<?xml version="1.0" encoding="UTF-8" standalone="no" ?>
<gpx xmlns="http://www.topografix.com/GPX/1/1" xmlns:xsi="http://www.w3.org/2001/XMLSchema-instance" xsi:schemaLocation="http://www.topografix.com/GPX/1/1 http://www.topografix.com/GPX/1/1/gpx.xsd" version="1.1" creator="VisuGPX - https://www.visugpx.com">
  <metadata>
    <name>Sortie VTT du 27/09/2015 42km CHEVILLY (Muco)</name>
    <desc><![CDATA[42km de CHEVILLY pour la mucoviscidose sortie avec Antoine BONNEAU]]></desc>
  </metadata>
  <trk>
    <name><![CDATA[Morning Ride]]></name>
    <trkseg>
      <trkpt lat="48.02593" lon="1.87176">
        <ele>125</ele>
        <time>2015-09-27T07:31:59Z</time>
      </trkpt>
      <trkpt lat="48.02599" lon="1.87172">
        <ele>125.1</ele>
        <time>2015-09-27T07:32:00Z</time>
      </trkpt>
      <trkpt lat="48.02605" lon="1.87173">
        <ele>125.2</ele>
        <time>2015-09-27T07:32:02Z</time>
      </trkpt>
      <trkpt lat="48.02601" lon="1.87171">
        <ele>125.1</ele>
        <time>2015-09-27T07:32:14Z</time>
      </trkpt>
      <trkpt lat="48.026" lon="1.87168">
        <ele>125</ele>
        <time>2015-09-27T07:32:16Z</time>
      </trkpt>
      <trkpt lat="48.026" lon="1.87179">
        <ele>125.1</ele>
        <time>2015-09-27T07:32:18Z</time>
      </trkpt>
      <trkpt lat="48.02603" lon="1.87176">
        <ele>125.2</ele>
        <time>2015-09-27T07:32:20Z</time>
      </trkpt>
      <trkpt lat="48.02603" lon="1.8717">
        <ele>125.1</ele>
        <time>2015-09-27T07:32:21Z</time>
      </trkpt>
      <trkpt lat="48.02607" lon="1.87164">
        <ele>125.1</ele>
        <time>2015-09-27T07:32:22Z</time>
      </trkpt>
      <trkpt lat="48.02603" lon="1.87168">
        <ele>125.1</ele>
        <time>2015-09-27T07:32:25Z</time>
      </trkpt>
      <trkpt lat="48.02601" lon="1.87166">
        <ele>125.1</ele>
        <time>2015-09-27T07:32:28Z</time>
      </trkpt>
      <trkpt lat="48.02601" lon="1.87171">
        <ele>125.1</ele>
        <time>2015-09-27T07:32:33Z</time>
      </trkpt>
      <trkpt lat="48.02602" lon="1.87176">
        <ele>125.2</ele>
        <time>2015-09-27T07:32:36Z</time>
      </trkpt>
      <trkpt lat="48.02602" lon="1.87181">
        <ele>125.2</ele>
        <time>2015-09-27T07:32:39Z</time>
      </trkpt>
      <trkpt lat="48.02603" lon="1.87186">
        <ele>125.3</ele>
        <time>2015-09-27T07:32:42Z</time>
      </trkpt>
      <trkpt lat="48.02603" lon="1.8719">
        <ele>125.3</ele>
        <time>2015-09-27T07:32:45Z</time>
      </trkpt>
      <trkpt lat="48.02605" lon="1.87196">
        <ele>125.4</ele>
        <time>2015-09-27T07:32:55Z</time>
      </trkpt>
      <trkpt lat="48.02605" lon="1.87201">
        <ele>125.5</ele>
        <time>2015-09-27T07:32:57Z</time>
      </trkpt>
      <trkpt lat="48.02604" lon="1.87206">
        <ele>125.5</ele>
        <time>2015-09-27T07:32:59Z</time>
      </trkpt>
      <trkpt lat="48.02602" lon="1.87209">
        <ele>125.4</ele>
        <time>2015-09-27T07:33:01Z</time>
      </trkpt>
      <trkpt lat="48.02598" lon="1.87211">
        <ele>125.4</ele>
        <time>2015-09-27T07:33:03Z</time>
      </trkpt>
      <trkpt lat="48.02595" lon="1.87212">
        <ele>125.3</ele>
        <time>2015-09-27T07:33:05Z</time>
      </trkpt>
      <trkpt lat="48.02592" lon="1.87214">
        <ele>125.2</ele>
        <time>2015-09-27T07:33:07Z</time>
      </trkpt>
      <trkpt lat="48.0259" lon="1.87219">
        <ele>125.2</ele>
        <time>2015-09-27T07:33:09Z</time>
      </trkpt>
      <trkpt lat="48.02591" lon="1.87226">
        <ele>125.2</ele>
        <time>2015-09-27T07:33:11Z</time>
      </trkpt>
      <trkpt lat="48.02592" lon="1.87233">
        <ele>125.2</ele>
        <time>2015-09-27T07:33:13Z</time>
      </trkpt>
      <trkpt lat="48.02594" lon="1.87239">
        <ele>125.3</ele>
        <time>2015-09-27T07:33:15Z</time>
      </trkpt>
      <trkpt lat="48.02596" lon="1.87244">
        <ele>125.3</ele>
        <time>2015-09-27T07:33:17Z</time>
      </trkpt>
      <trkpt lat="48.02598" lon="1.87249">
        <ele>125.3</ele>
        <time>2015-09-27T07:33:19Z</time>
      </trkpt>
      <trkpt lat="48.02599" lon="1.87254">
        <ele>125.4</ele>
        <time>2015-09-27T07:33:21Z</time>
      </trkpt>
      <trkpt lat="48.026" lon="1.87259">
        <ele>125.4</ele>
        <time>2015-09-27T07:33:23Z</time>
      </trkpt>
      <trkpt lat="48.02601" lon="1.87263">
        <ele>125.4</ele>
        <time>2015-09-27T07:33:25Z</time>
      </trkpt>
      <trkpt lat="48.02601" lon="1.87268">
        <ele>125.4</ele>
        <time>2015-09-27T07:33:27Z</time>
      </trkpt>
      <trkpt lat="48.02602" lon="1.87273">
        <ele>125.4</ele>
        <time>2015-09-27T07:33:29Z</time>
      </trkpt>
      <trkpt lat="48.02602" lon="1.87278">
        <ele>125.5</ele>
        <time>2015-09-27T07:33:31Z</time>
      </trkpt>
      <trkpt lat="48.02603" lon="1.87283">
        <ele>125.5</ele>
        <time>2015-09-27T07:33:33Z</time>
      </trkpt>
      <trkpt lat="48.02605" lon="1.87288">
        <ele>125.5</ele>
        <time>2015-09-27T07:33:35Z</time>
      </trkpt>
      <trkpt lat="48.02606" lon="1.87293">
        <ele>125.5</ele>
        <time>2015-09-27T07:33:37Z</time>
      </trkpt>
      <trkpt lat="48.02607" lon="1.87299">
        <ele>125.6</ele>
        <time>2015-09-27T07:33:39Z</time>
      </trkpt>
      <trkpt lat="48.02608" lon="1.87304">
        <ele>125.6</ele>
        <time>2015-09-27T07:33:41Z</time>
      </trkpt>
      <trkpt lat="48.02608" lon="1.87309">
        <ele>125.6</ele>
        <time>2015-09-27T07:33:43Z</time>
      </trkpt>
      <trkpt lat="48.02609" lon="1.87316">
        <ele>125.6</ele>
        <time>2015-09-27T07:33:45Z</time>
      </trkpt>
      <trkpt lat="48.0261" lon="1.87324">
        <ele>125.6</ele>
        <time>2015-09-27T07:33:47Z</time>
      </trkpt>
      <trkpt lat="48.02611" lon="1.87327">
        <ele>125.7</ele>
        <time>2015-09-27T07:33:48Z</time>
      </trkpt>
      <trkpt lat="48.02613" lon="1.87335">
        <ele>125.7</ele>
        <time>2015-09-27T07:33:50Z</time>
      </trkpt>
      <trkpt lat="48.02613" lon="1.87339">
        <ele>125.7</ele>
        <time>2015-09-27T07:33:51Z</time>
      </trkpt>
      <trkpt lat="48.02614" lon="1.87343">
        <ele>125.7</ele>
        <time>2015-09-27T07:33:52Z</time>
      </trkpt>
      <trkpt lat="48.02614" lon="1.87347">
        <ele>125.7</ele>
        <time>2015-09-27T07:33:53Z</time>
      </trkpt>
      <trkpt lat="48.02615" lon="1.87351">
        <ele>125.8</ele>
        <time>2015-09-27T07:33:54Z</time>
      </trkpt>
      <trkpt lat="48.02615" lon="1.87355">
        <ele>125.8</ele>
        <time>2015-09-27T07:33:55Z</time>
      </trkpt>
      <trkpt lat="48.02616" lon="1.87359">
        <ele>125.8</ele>
        <time>2015-09-27T07:33:56Z</time>
      </trkpt>
      <trkpt lat="48.02616" lon="1.87363">
        <ele>125.8</ele>
        <time>2015-09-27T07:33:57Z</time>
      </trkpt>
      <trkpt lat="48.02618" lon="1.87371">
        <ele>125.8</ele>
        <time>2015-09-27T07:33:59Z</time>
      </trkpt>
      <trkpt lat="48.02619" lon="1.87378">
        <ele>125.8</ele>
        <time>2015-09-27T07:34:01Z</time>
      </trkpt>
      <trkpt lat="48.02621" lon="1.87386">
        <ele>125.8</ele>
        <time>2015-09-27T07:34:03Z</time>
      </trkpt>
      <trkpt lat="48.02623" lon="1.87393">
        <ele>125.7</ele>
        <time>2015-09-27T07:34:05Z</time>
      </trkpt>
      <trkpt lat="48.02625" lon="1.87401">
        <ele>125.7</ele>
        <time>2015-09-27T07:34:07Z</time>
      </trkpt>
      <trkpt lat="48.02626" lon="1.87407">
        <ele>125.6</ele>
        <time>2015-09-27T07:34:09Z</time>
      </trkpt>
      <trkpt lat="48.02626" lon="1.87413">
        <ele>125.6</ele>
        <time>2015-09-27T07:34:12Z</time>
      </trkpt>
      <trkpt lat="48.02626" lon="1.87419">
        <ele>125.5</ele>
        <time>2015-09-27T07:34:36Z</time>
      </trkpt>
      <trkpt lat="48.02627" lon="1.87424">
        <ele>125.4</ele>
        <time>2015-09-27T07:34:38Z</time>
      </trkpt>
      <trkpt lat="48.02628" lon="1.8743">
        <ele>125.3</ele>
        <time>2015-09-27T07:34:40Z</time>
      </trkpt>
      <trkpt lat="48.02628" lon="1.87438">
        <ele>125.3</ele>
        <time>2015-09-27T07:34:42Z</time>
      </trkpt>
      <trkpt lat="48.02629" lon="1.87442">
        <ele>125.2</ele>
        <time>2015-09-27T07:34:43Z</time>
      </trkpt>
      <trkpt lat="48.02629" lon="1.87447">
        <ele>125.1</ele>
        <time>2015-09-27T07:34:44Z</time>
      </trkpt>
      <trkpt lat="48.02629" lon="1.87451">
        <ele>125.1</ele>
        <time>2015-09-27T07:34:45Z</time>
      </trkpt>
      <trkpt lat="48.02629" lon="1.87457">
        <ele>125</ele>
        <time>2015-09-27T07:34:46Z</time>
      </trkpt>
      <trkpt lat="48.0263" lon="1.87462">
        <ele>125.1</ele>
        <time>2015-09-27T07:34:47Z</time>
      </trkpt>
      <trkpt lat="48.0263" lon="1.87468">
        <ele>125.2</ele>
        <time>2015-09-27T07:34:48Z</time>
      </trkpt>
      <trkpt lat="48.0263" lon="1.87473">
        <ele>125.3</ele>
        <time>2015-09-27T07:34:49Z</time>
      </trkpt>
      <trkpt lat="48.0263" lon="1.87479">
        <ele>125.5</ele>
        <time>2015-09-27T07:34:50Z</time>
      </trkpt>
      <trkpt lat="48.02629" lon="1.87484">
        <ele>125.6</ele>
        <time>2015-09-27T07:34:51Z</time>
      </trkpt>
      <trkpt lat="48.02628" lon="1.8749">
        <ele>125.7</ele>
        <time>2015-09-27T07:34:52Z</time>
      </trkpt>
      <trkpt lat="48.02628" lon="1.87495">
        <ele>125.9</ele>
        <time>2015-09-27T07:34:53Z</time>
      </trkpt>
      <trkpt lat="48.02627" lon="1.875">
        <ele>126</ele>
        <time>2015-09-27T07:34:54Z</time>
      </trkpt>
      <trkpt lat="48.02626" lon="1.87506">
        <ele>126.1</ele>
        <time>2015-09-27T07:34:55Z</time>
      </trkpt>
      <trkpt lat="48.02626" lon="1.87511">
        <ele>126.2</ele>
        <time>2015-09-27T07:34:56Z</time>
      </trkpt>
      <trkpt lat="48.02625" lon="1.87516">
        <ele>126.4</ele>
        <time>2015-09-27T07:34:57Z</time>
      </trkpt>
      <trkpt lat="48.02624" lon="1.87521">
        <ele>126.5</ele>
        <time>2015-09-27T07:34:58Z</time>
      </trkpt>
      <trkpt lat="48.02624" lon="1.87526">
        <ele>126.6</ele>
        <time>2015-09-27T07:34:59Z</time>
      </trkpt>
      <trkpt lat="48.02623" lon="1.87531">
        <ele>126.7</ele>
        <time>2015-09-27T07:35:00Z</time>
      </trkpt>
      <trkpt lat="48.02622" lon="1.87536">
        <ele>126.9</ele>
        <time>2015-09-27T07:35:01Z</time>
      </trkpt>
      <trkpt lat="48.02621" lon="1.87541">
        <ele>127</ele>
        <time>2015-09-27T07:35:02Z</time>
      </trkpt>
      <trkpt lat="48.02621" lon="1.87546">
        <ele>127</ele>
        <time>2015-09-27T07:35:03Z</time>
      </trkpt>
      <trkpt lat="48.02621" lon="1.87551">
        <ele>127</ele>
        <time>2015-09-27T07:35:04Z</time>
      </trkpt>
      <trkpt lat="48.0262" lon="1.87556">
        <ele>127</ele>
        <time>2015-09-27T07:35:05Z</time>
      </trkpt>
      <trkpt lat="48.0262" lon="1.87561">
        <ele>127</ele>
        <time>2015-09-27T07:35:06Z</time>
      </trkpt>
      <trkpt lat="48.0262" lon="1.87566">
        <ele>127.1</ele>
        <time>2015-09-27T07:35:07Z</time>
      </trkpt>
      <trkpt lat="48.02619" lon="1.87571">
        <ele>127.1</ele>
        <time>2015-09-27T07:35:08Z</time>
      </trkpt>
      <trkpt lat="48.02619" lon="1.87576">
        <ele>127.1</ele>
        <time>2015-09-27T07:35:09Z</time>
      </trkpt>
      <trkpt lat="48.02619" lon="1.87581">
        <ele>127.1</ele>
        <time>2015-09-27T07:35:10Z</time>
      </trkpt>
      <trkpt lat="48.02618" lon="1.87586">
        <ele>127.1</ele>
        <time>2015-09-27T07:35:11Z</time>
      </trkpt>
      <trkpt lat="48.02617" lon="1.87591">
        <ele>127.2</ele>
        <time>2015-09-27T07:35:12Z</time>
      </trkpt>
      <trkpt lat="48.02617" lon="1.87596">
        <ele>127.2</ele>
        <time>2015-09-27T07:35:13Z</time>
      </trkpt>
      <trkpt lat="48.02616" lon="1.87602">
        <ele>127.2</ele>
        <time>2015-09-27T07:35:14Z</time>
      </trkpt>
      <trkpt lat="48.02615" lon="1.87607">
        <ele>127.3</ele>
        <time>2015-09-27T07:35:15Z</time>
      </trkpt>
      <trkpt lat="48.02614" lon="1.87612">
        <ele>127.3</ele>
        <time>2015-09-27T07:35:16Z</time>
      </trkpt>
      <trkpt lat="48.02613" lon="1.87617">
        <ele>127.4</ele>
        <time>2015-09-27T07:35:17Z</time>
      </trkpt>
      <trkpt lat="48.02613" lon="1.87622">
        <ele>127.4</ele>
        <time>2015-09-27T07:35:18Z</time>
      </trkpt>
      <trkpt lat="48.02612" lon="1.87628">
        <ele>127.5</ele>
        <time>2015-09-27T07:35:19Z</time>
      </trkpt>
      <trkpt lat="48.02611" lon="1.87634">
        <ele>127.7</ele>
        <time>2015-09-27T07:35:20Z</time>
      </trkpt>
      <trkpt lat="48.0261" lon="1.8764">
        <ele>127.8</ele>
        <time>2015-09-27T07:35:21Z</time>
      </trkpt>
      <trkpt lat="48.0261" lon="1.87646">
        <ele>127.9</ele>
        <time>2015-09-27T07:35:22Z</time>
      </trkpt>
      <trkpt lat="48.02609" lon="1.87652">
        <ele>128</ele>
        <time>2015-09-27T07:35:23Z</time>
      </trkpt>
      <trkpt lat="48.02608" lon="1.87658">
        <ele>128.1</ele>
        <time>2015-09-27T07:35:24Z</time>
      </trkpt>
      <trkpt lat="48.02608" lon="1.87664">
        <ele>128.3</ele>
        <time>2015-09-27T07:35:25Z</time>
      </trkpt>
      <trkpt lat="48.02607" lon="1.8767">
        <ele>128.4</ele>
        <time>2015-09-27T07:35:26Z</time>
      </trkpt>
      <trkpt lat="48.02606" lon="1.87676">
        <ele>128.5</ele>
        <time>2015-09-27T07:35:27Z</time>
      </trkpt>
      <trkpt lat="48.02606" lon="1.87683">
        <ele>128.6</ele>
        <time>2015-09-27T07:35:28Z</time>
      </trkpt>
      <trkpt lat="48.02605" lon="1.8769">
        <ele>128.7</ele>
        <time>2015-09-27T07:35:29Z</time>
      </trkpt>
      <trkpt lat="48.02604" lon="1.87696">
        <ele>128.8</ele>
        <time>2015-09-27T07:35:30Z</time>
      </trkpt>
      <trkpt lat="48.02604" lon="1.87703">
        <ele>128.9</ele>
        <time>2015-09-27T07:35:31Z</time>
      </trkpt>
      <trkpt lat="48.02604" lon="1.8771">
        <ele>128.9</ele>
        <time>2015-09-27T07:35:32Z</time>
      </trkpt>
      <trkpt lat="48.02604" lon="1.87716">
        <ele>128.5</ele>
        <time>2015-09-27T07:35:33Z</time>
      </trkpt>
      <trkpt lat="48.02603" lon="1.87723">
        <ele>128.1</ele>
        <time>2015-09-27T07:35:34Z</time>
      </trkpt>
      <trkpt lat="48.02602" lon="1.8773">
        <ele>127.6</ele>
        <time>2015-09-27T07:35:35Z</time>
      </trkpt>
      <trkpt lat="48.02602" lon="1.87737">
        <ele>127.2</ele>
        <time>2015-09-27T07:35:36Z</time>
      </trkpt>
      <trkpt lat="48.02602" lon="1.87744">
        <ele>126.7</ele>
        <time>2015-09-27T07:35:37Z</time>
      </trkpt>
      <trkpt lat="48.02602" lon="1.87752">
        <ele>126.3</ele>
        <time>2015-09-27T07:35:38Z</time>
      </trkpt>
      <trkpt lat="48.02604" lon="1.87758">
        <ele>125.8</ele>
        <time>2015-09-27T07:35:39Z</time>
      </trkpt>
      <trkpt lat="48.02606" lon="1.87765">
        <ele>125.4</ele>
        <time>2015-09-27T07:35:40Z</time>
      </trkpt>
      <trkpt lat="48.02606" lon="1.87772">
        <ele>125</ele>
        <time>2015-09-27T07:35:41Z</time>
      </trkpt>
      <trkpt lat="48.02608" lon="1.87777">
        <ele>124.7</ele>
        <time>2015-09-27T07:35:42Z</time>
      </trkpt>
      <trkpt lat="48.02607" lon="1.87783">
        <ele>124.3</ele>
        <time>2015-09-27T07:35:43Z</time>
      </trkpt>
      <trkpt lat="48.02604" lon="1.87789">
        <ele>123.9</ele>
        <time>2015-09-27T07:35:44Z</time>
      </trkpt>
      <trkpt lat="48.026" lon="1.87794">
        <ele>123.6</ele>
        <time>2015-09-27T07:35:45Z</time>
      </trkpt>
      <trkpt lat="48.02596" lon="1.87797">
        <ele>123.5</ele>
        <time>2015-09-27T07:35:46Z</time>
      </trkpt>
      <trkpt lat="48.02592" lon="1.878">
        <ele>123.3</ele>
        <time>2015-09-27T07:35:47Z</time>
      </trkpt>
      <trkpt lat="48.02587" lon="1.87802">
        <ele>123.2</ele>
        <time>2015-09-27T07:35:48Z</time>
      </trkpt>
      <trkpt lat="48.02583" lon="1.87805">
        <ele>123</ele>
        <time>2015-09-27T07:35:49Z</time>
      </trkpt>
      <trkpt lat="48.02579" lon="1.87808">
        <ele>122.9</ele>
        <time>2015-09-27T07:35:50Z</time>
      </trkpt>
      <trkpt lat="48.02574" lon="1.87809">
        <ele>122.8</ele>
        <time>2015-09-27T07:35:51Z</time>
      </trkpt>
      <trkpt lat="48.02568" lon="1.87812">
        <ele>122.6</ele>
        <time>2015-09-27T07:35:52Z</time>
      </trkpt>
      <trkpt lat="48.02563" lon="1.87813">
        <ele>122.5</ele>
        <time>2015-09-27T07:35:53Z</time>
      </trkpt>
      <trkpt lat="48.02557" lon="1.87817">
        <ele>122.3</ele>
        <time>2015-09-27T07:35:54Z</time>
      </trkpt>
      <trkpt lat="48.02552" lon="1.8782">
        <ele>122.1</ele>
        <time>2015-09-27T07:35:55Z</time>
      </trkpt>
      <trkpt lat="48.02546" lon="1.87822">
        <ele>121.9</ele>
        <time>2015-09-27T07:35:56Z</time>
      </trkpt>
      <trkpt lat="48.02543" lon="1.87826">
        <ele>121.8</ele>
        <time>2015-09-27T07:35:57Z</time>
      </trkpt>
      <trkpt lat="48.0254" lon="1.87829">
        <ele>121.6</ele>
        <time>2015-09-27T07:35:58Z</time>
      </trkpt>
      <trkpt lat="48.02536" lon="1.87832">
        <ele>121.4</ele>
        <time>2015-09-27T07:35:59Z</time>
      </trkpt>
      <trkpt lat="48.02531" lon="1.87833">
        <ele>121.2</ele>
        <time>2015-09-27T07:36:00Z</time>
      </trkpt>
      <trkpt lat="48.02527" lon="1.87834">
        <ele>121</ele>
        <time>2015-09-27T07:36:01Z</time>
      </trkpt>
      <trkpt lat="48.02521" lon="1.87836">
        <ele>120.8</ele>
        <time>2015-09-27T07:36:02Z</time>
      </trkpt>
      <trkpt lat="48.02516" lon="1.87838">
        <ele>120.6</ele>
        <time>2015-09-27T07:36:03Z</time>
      </trkpt>
      <trkpt lat="48.02512" lon="1.8784">
        <ele>120.5</ele>
        <time>2015-09-27T07:36:04Z</time>
      </trkpt>
      <trkpt lat="48.02508" lon="1.87842">
        <ele>120.4</ele>
        <time>2015-09-27T07:36:05Z</time>
      </trkpt>
      <trkpt lat="48.02504" lon="1.87844">
        <ele>120.3</ele>
        <time>2015-09-27T07:36:06Z</time>
      </trkpt>
      <trkpt lat="48.02499" lon="1.87846">
        <ele>120.2</ele>
        <time>2015-09-27T07:36:07Z</time>
      </trkpt>
      <trkpt lat="48.02496" lon="1.87848">
        <ele>120.1</ele>
        <time>2015-09-27T07:36:08Z</time>
      </trkpt>
      <trkpt lat="48.02492" lon="1.87849">
        <ele>120</ele>
        <time>2015-09-27T07:36:09Z</time>
      </trkpt>
      <trkpt lat="48.02486" lon="1.87852">
        <ele>119.9</ele>
        <time>2015-09-27T07:36:10Z</time>
      </trkpt>
      <trkpt lat="48.02482" lon="1.87855">
        <ele>119.9</ele>
        <time>2015-09-27T07:36:11Z</time>
      </trkpt>
      <trkpt lat="48.02477" lon="1.87857">
        <ele>119.8</ele>
        <time>2015-09-27T07:36:12Z</time>
      </trkpt>
      <trkpt lat="48.02473" lon="1.87859">
        <ele>119.8</ele>
        <time>2015-09-27T07:36:13Z</time>
      </trkpt>
      <trkpt lat="48.02468" lon="1.87861">
        <ele>119.8</ele>
        <time>2015-09-27T07:36:14Z</time>
      </trkpt>
      <trkpt lat="48.02463" lon="1.87863">
        <ele>119.8</ele>
        <time>2015-09-27T07:36:15Z</time>
      </trkpt>
      <trkpt lat="48.02459" lon="1.87866">
        <ele>119.8</ele>
        <time>2015-09-27T07:36:16Z</time>
      </trkpt>
      <trkpt lat="48.02454" lon="1.87868">
        <ele>119.8</ele>
        <time>2015-09-27T07:36:17Z</time>
      </trkpt>
      <trkpt lat="48.02449" lon="1.8787">
        <ele>119.8</ele>
        <time>2015-09-27T07:36:18Z</time>
      </trkpt>
      <trkpt lat="48.02445" lon="1.87873">
        <ele>119.8</ele>
        <time>2015-09-27T07:36:19Z</time>
      </trkpt>
      <trkpt lat="48.0244" lon="1.87876">
        <ele>119.8</ele>
        <time>2015-09-27T07:36:20Z</time>
      </trkpt>
      <trkpt lat="48.02435" lon="1.87878">
        <ele>119.8</ele>
        <time>2015-09-27T07:36:21Z</time>
      </trkpt>
      <trkpt lat="48.0243" lon="1.87879">
        <ele>119.8</ele>
        <time>2015-09-27T07:36:22Z</time>
      </trkpt>
      <trkpt lat="48.02425" lon="1.87881">
        <ele>119.7</ele>
        <time>2015-09-27T07:36:23Z</time>
      </trkpt>
      <trkpt lat="48.02421" lon="1.87882">
        <ele>119.7</ele>
        <time>2015-09-27T07:36:24Z</time>
      </trkpt>
      <trkpt lat="48.02417" lon="1.87884">
        <ele>119.7</ele>
        <time>2015-09-27T07:36:25Z</time>
      </trkpt>
      <trkpt lat="48.02412" lon="1.87887">
        <ele>119.7</ele>
        <time>2015-09-27T07:36:26Z</time>
      </trkpt>
      <trkpt lat="48.02407" lon="1.8789">
        <ele>119.7</ele>
        <time>2015-09-27T07:36:27Z</time>
      </trkpt>
      <trkpt lat="48.02403" lon="1.87892">
        <ele>119.7</ele>
        <time>2015-09-27T07:36:28Z</time>
      </trkpt>
      <trkpt lat="48.02399" lon="1.87895">
        <ele>119.8</ele>
        <time>2015-09-27T07:36:29Z</time>
      </trkpt>
      <trkpt lat="48.02395" lon="1.87897">
        <ele>119.8</ele>
        <time>2015-09-27T07:36:30Z</time>
      </trkpt>
      <trkpt lat="48.0239" lon="1.87899">
        <ele>119.8</ele>
        <time>2015-09-27T07:36:31Z</time>
      </trkpt>
      <trkpt lat="48.02387" lon="1.87901">
        <ele>119.8</ele>
        <time>2015-09-27T07:36:32Z</time>
      </trkpt>
      <trkpt lat="48.02383" lon="1.87902">
        <ele>119.7</ele>
        <time>2015-09-27T07:36:33Z</time>
      </trkpt>
      <trkpt lat="48.02378" lon="1.87902">
        <ele>119.7</ele>
        <time>2015-09-27T07:36:34Z</time>
      </trkpt>
      <trkpt lat="48.02375" lon="1.87903">
        <ele>119.7</ele>
        <time>2015-09-27T07:36:35Z</time>
      </trkpt>
      <trkpt lat="48.0237" lon="1.87902">
        <ele>119.7</ele>
        <time>2015-09-27T07:36:36Z</time>
      </trkpt>
      <trkpt lat="48.02366" lon="1.87901">
        <ele>119.7</ele>
        <time>2015-09-27T07:36:37Z</time>
      </trkpt>
      <trkpt lat="48.0236" lon="1.87901">
        <ele>119.8</ele>
        <time>2015-09-27T07:36:38Z</time>
      </trkpt>
      <trkpt lat="48.02355" lon="1.87901">
        <ele>119.8</ele>
        <time>2015-09-27T07:36:39Z</time>
      </trkpt>
      <trkpt lat="48.0235" lon="1.87902">
        <ele>119.8</ele>
        <time>2015-09-27T07:36:40Z</time>
      </trkpt>
      <trkpt lat="48.02345" lon="1.87903">
        <ele>119.9</ele>
        <time>2015-09-27T07:36:41Z</time>
      </trkpt>
      <trkpt lat="48.0234" lon="1.87901">
        <ele>119.9</ele>
        <time>2015-09-27T07:36:42Z</time>
      </trkpt>
      <trkpt lat="48.02335" lon="1.87901">
        <ele>120</ele>
        <time>2015-09-27T07:36:43Z</time>
      </trkpt>
      <trkpt lat="48.0233" lon="1.879">
        <ele>120</ele>
        <time>2015-09-27T07:36:44Z</time>
      </trkpt>
      <trkpt lat="48.02324" lon="1.87899">
        <ele>120</ele>
        <time>2015-09-27T07:36:45Z</time>
      </trkpt>
      <trkpt lat="48.02319" lon="1.87898">
        <ele>120</ele>
        <time>2015-09-27T07:36:46Z</time>
      </trkpt>
      <trkpt lat="48.02313" lon="1.87898">
        <ele>120.1</ele>
        <time>2015-09-27T07:36:47Z</time>
      </trkpt>
      <trkpt lat="48.02308" lon="1.87898">
        <ele>120.1</ele>
        <time>2015-09-27T07:36:48Z</time>
      </trkpt>
      <trkpt lat="48.02303" lon="1.87898">
        <ele>120.2</ele>
        <time>2015-09-27T07:36:49Z</time>
      </trkpt>
      <trkpt lat="48.02297" lon="1.87897">
        <ele>120.2</ele>
        <time>2015-09-27T07:36:50Z</time>
      </trkpt>
      <trkpt lat="48.02291" lon="1.87897">
        <ele>120.3</ele>
        <time>2015-09-27T07:36:51Z</time>
      </trkpt>
      <trkpt lat="48.02286" lon="1.87897">
        <ele>120.3</ele>
        <time>2015-09-27T07:36:52Z</time>
      </trkpt>
      <trkpt lat="48.02282" lon="1.87897">
        <ele>120.3</ele>
        <time>2015-09-27T07:36:53Z</time>
      </trkpt>
      <trkpt lat="48.02278" lon="1.87896">
        <ele>120.4</ele>
        <time>2015-09-27T07:36:54Z</time>
      </trkpt>
      <trkpt lat="48.02273" lon="1.87896">
        <ele>120.4</ele>
        <time>2015-09-27T07:36:55Z</time>
      </trkpt>
      <trkpt lat="48.02269" lon="1.87894">
        <ele>120.4</ele>
        <time>2015-09-27T07:36:56Z</time>
      </trkpt>
      <trkpt lat="48.02263" lon="1.87894">
        <ele>120.5</ele>
        <time>2015-09-27T07:36:57Z</time>
      </trkpt>
      <trkpt lat="48.02258" lon="1.87896">
        <ele>120.6</ele>
        <time>2015-09-27T07:36:58Z</time>
      </trkpt>
      <trkpt lat="48.02254" lon="1.87902">
        <ele>120.6</ele>
        <time>2015-09-27T07:36:59Z</time>
      </trkpt>
      <trkpt lat="48.02256" lon="1.87914">
        <ele>120.7</ele>
        <time>2015-09-27T07:37:00Z</time>
      </trkpt>
      <trkpt lat="48.02255" lon="1.87919">
        <ele>120.7</ele>
        <time>2015-09-27T07:37:01Z</time>
      </trkpt>
      <trkpt lat="48.02254" lon="1.87926">
        <ele>120.8</ele>
        <time>2015-09-27T07:37:02Z</time>
      </trkpt>
      <trkpt lat="48.02253" lon="1.87933">
        <ele>120.8</ele>
        <time>2015-09-27T07:37:03Z</time>
      </trkpt>
      <trkpt lat="48.02252" lon="1.8794">
        <ele>120.9</ele>
        <time>2015-09-27T07:37:04Z</time>
      </trkpt>
      <trkpt lat="48.0225" lon="1.87949">
        <ele>120.9</ele>
        <time>2015-09-27T07:37:06Z</time>
      </trkpt>
      <trkpt lat="48.0224" lon="1.8796">
        <ele>121</ele>
        <time>2015-09-27T07:37:10Z</time>
      </trkpt>
      <trkpt lat="48.02236" lon="1.87961">
        <ele>121</ele>
        <time>2015-09-27T07:37:11Z</time>
      </trkpt>
      <trkpt lat="48.02231" lon="1.87963">
        <ele>120.9</ele>
        <time>2015-09-27T07:37:12Z</time>
      </trkpt>
      <trkpt lat="48.02228" lon="1.87964">
        <ele>120.9</ele>
        <time>2015-09-27T07:37:13Z</time>
      </trkpt>
      <trkpt lat="48.02222" lon="1.87966">
        <ele>120.9</ele>
        <time>2015-09-27T07:37:14Z</time>
      </trkpt>
      <trkpt lat="48.02218" lon="1.87968">
        <ele>120.9</ele>
        <time>2015-09-27T07:37:15Z</time>
      </trkpt>
      <trkpt lat="48.02214" lon="1.87969">
        <ele>120.9</ele>
        <time>2015-09-27T07:37:16Z</time>
      </trkpt>
      <trkpt lat="48.0221" lon="1.8797">
        <ele>120.9</ele>
        <time>2015-09-27T07:37:17Z</time>
      </trkpt>
      <trkpt lat="48.02206" lon="1.87972">
        <ele>120.8</ele>
        <time>2015-09-27T07:37:18Z</time>
      </trkpt>
      <trkpt lat="48.02202" lon="1.87973">
        <ele>120.8</ele>
        <time>2015-09-27T07:37:19Z</time>
      </trkpt>
      <trkpt lat="48.02198" lon="1.87975">
        <ele>120.8</ele>
        <time>2015-09-27T07:37:20Z</time>
      </trkpt>
      <trkpt lat="48.02194" lon="1.87976">
        <ele>120.8</ele>
        <time>2015-09-27T07:37:21Z</time>
      </trkpt>
      <trkpt lat="48.0219" lon="1.87977">
        <ele>120.8</ele>
        <time>2015-09-27T07:37:22Z</time>
      </trkpt>
      <trkpt lat="48.02185" lon="1.87979">
        <ele>120.8</ele>
        <time>2015-09-27T07:37:23Z</time>
      </trkpt>
      <trkpt lat="48.02181" lon="1.87981">
        <ele>120.8</ele>
        <time>2015-09-27T07:37:24Z</time>
      </trkpt>
      <trkpt lat="48.02177" lon="1.87982">
        <ele>120.8</ele>
        <time>2015-09-27T07:37:25Z</time>
      </trkpt>
      <trkpt lat="48.02173" lon="1.87984">
        <ele>120.8</ele>
        <time>2015-09-27T07:37:26Z</time>
      </trkpt>
      <trkpt lat="48.02169" lon="1.87985">
        <ele>120.8</ele>
        <time>2015-09-27T07:37:27Z</time>
      </trkpt>
      <trkpt lat="48.02162" lon="1.87987">
        <ele>120.8</ele>
        <time>2015-09-27T07:37:28Z</time>
      </trkpt>
      <trkpt lat="48.02158" lon="1.87989">
        <ele>120.9</ele>
        <time>2015-09-27T07:37:30Z</time>
      </trkpt>
      <trkpt lat="48.02154" lon="1.8799">
        <ele>120.9</ele>
        <time>2015-09-27T07:37:31Z</time>
      </trkpt>
      <trkpt lat="48.0214" lon="1.87994">
        <ele>120.9</ele>
        <time>2015-09-27T07:37:33Z</time>
      </trkpt>
      <trkpt lat="48.02134" lon="1.8799">
        <ele>121</ele>
        <time>2015-09-27T07:37:34Z</time>
      </trkpt>
      <trkpt lat="48.02129" lon="1.87986">
        <ele>121</ele>
        <time>2015-09-27T07:37:35Z</time>
      </trkpt>
      <trkpt lat="48.02125" lon="1.87983">
        <ele>121</ele>
        <time>2015-09-27T07:37:36Z</time>
      </trkpt>
      <trkpt lat="48.0212" lon="1.87979">
        <ele>121.1</ele>
        <time>2015-09-27T07:37:37Z</time>
      </trkpt>
      <trkpt lat="48.02115" lon="1.87975">
        <ele>121.1</ele>
        <time>2015-09-27T07:37:38Z</time>
      </trkpt>
      <trkpt lat="48.02111" lon="1.87972">
        <ele>121.2</ele>
        <time>2015-09-27T07:37:39Z</time>
      </trkpt>
      <trkpt lat="48.02107" lon="1.87969">
        <ele>121.2</ele>
        <time>2015-09-27T07:37:40Z</time>
      </trkpt>
      <trkpt lat="48.02103" lon="1.87966">
        <ele>121.3</ele>
        <time>2015-09-27T07:37:41Z</time>
      </trkpt>
      <trkpt lat="48.02099" lon="1.87964">
        <ele>121.3</ele>
        <time>2015-09-27T07:37:42Z</time>
      </trkpt>
      <trkpt lat="48.02093" lon="1.87961">
        <ele>121.4</ele>
        <time>2015-09-27T07:37:44Z</time>
      </trkpt>
      <trkpt lat="48.02089" lon="1.8796">
        <ele>121.4</ele>
        <time>2015-09-27T07:37:45Z</time>
      </trkpt>
      <trkpt lat="48.02085" lon="1.87959">
        <ele>121.5</ele>
        <time>2015-09-27T07:37:46Z</time>
      </trkpt>
      <trkpt lat="48.02075" lon="1.87959">
        <ele>121.6</ele>
        <time>2015-09-27T07:37:48Z</time>
      </trkpt>
      <trkpt lat="48.0207" lon="1.87959">
        <ele>121.7</ele>
        <time>2015-09-27T07:37:49Z</time>
      </trkpt>
      <trkpt lat="48.02065" lon="1.87959">
        <ele>121.7</ele>
        <time>2015-09-27T07:37:50Z</time>
      </trkpt>
      <trkpt lat="48.02061" lon="1.87959">
        <ele>121.8</ele>
        <time>2015-09-27T07:37:51Z</time>
      </trkpt>
      <trkpt lat="48.02056" lon="1.87959">
        <ele>121.8</ele>
        <time>2015-09-27T07:37:52Z</time>
      </trkpt>
      <trkpt lat="48.0205" lon="1.87959">
        <ele>121.9</ele>
        <time>2015-09-27T07:37:53Z</time>
      </trkpt>
      <trkpt lat="48.02045" lon="1.87959">
        <ele>122</ele>
        <time>2015-09-27T07:37:54Z</time>
      </trkpt>
      <trkpt lat="48.02041" lon="1.87959">
        <ele>122</ele>
        <time>2015-09-27T07:37:55Z</time>
      </trkpt>
      <trkpt lat="48.02037" lon="1.87959">
        <ele>122.1</ele>
        <time>2015-09-27T07:37:56Z</time>
      </trkpt>
      <trkpt lat="48.02032" lon="1.87959">
        <ele>122.1</ele>
        <time>2015-09-27T07:37:57Z</time>
      </trkpt>
      <trkpt lat="48.02027" lon="1.87959">
        <ele>122.2</ele>
        <time>2015-09-27T07:37:58Z</time>
      </trkpt>
      <trkpt lat="48.02022" lon="1.87959">
        <ele>122.2</ele>
        <time>2015-09-27T07:37:59Z</time>
      </trkpt>
      <trkpt lat="48.02017" lon="1.87959">
        <ele>122.3</ele>
        <time>2015-09-27T07:38:00Z</time>
      </trkpt>
      <trkpt lat="48.02013" lon="1.87959">
        <ele>122.3</ele>
        <time>2015-09-27T07:38:01Z</time>
      </trkpt>
      <trkpt lat="48.02008" lon="1.87959">
        <ele>122.4</ele>
        <time>2015-09-27T07:38:02Z</time>
      </trkpt>
      <trkpt lat="48.02004" lon="1.87959">
        <ele>122.5</ele>
        <time>2015-09-27T07:38:03Z</time>
      </trkpt>
      <trkpt lat="48.01999" lon="1.87959">
        <ele>122.5</ele>
        <time>2015-09-27T07:38:04Z</time>
      </trkpt>
      <trkpt lat="48.01995" lon="1.87959">
        <ele>122.6</ele>
        <time>2015-09-27T07:38:05Z</time>
      </trkpt>
      <trkpt lat="48.0199" lon="1.87959">
        <ele>122.6</ele>
        <time>2015-09-27T07:38:06Z</time>
      </trkpt>
      <trkpt lat="48.01985" lon="1.87959">
        <ele>122.7</ele>
        <time>2015-09-27T07:38:07Z</time>
      </trkpt>
      <trkpt lat="48.01979" lon="1.87959">
        <ele>122.7</ele>
        <time>2015-09-27T07:38:08Z</time>
      </trkpt>
      <trkpt lat="48.01974" lon="1.8796">
        <ele>122.8</ele>
        <time>2015-09-27T07:38:09Z</time>
      </trkpt>
      <trkpt lat="48.0197" lon="1.8796">
        <ele>122.9</ele>
        <time>2015-09-27T07:38:10Z</time>
      </trkpt>
      <trkpt lat="48.01966" lon="1.8796">
        <ele>122.9</ele>
        <time>2015-09-27T07:38:11Z</time>
      </trkpt>
      <trkpt lat="48.0196" lon="1.8796">
        <ele>123</ele>
        <time>2015-09-27T07:38:12Z</time>
      </trkpt>
      <trkpt lat="48.01956" lon="1.8796">
        <ele>123</ele>
        <time>2015-09-27T07:38:13Z</time>
      </trkpt>
      <trkpt lat="48.01952" lon="1.8796">
        <ele>123</ele>
        <time>2015-09-27T07:38:14Z</time>
      </trkpt>
      <trkpt lat="48.01948" lon="1.8796">
        <ele>123</ele>
        <time>2015-09-27T07:38:15Z</time>
      </trkpt>
      <trkpt lat="48.01944" lon="1.8796">
        <ele>123</ele>
        <time>2015-09-27T07:38:16Z</time>
      </trkpt>
      <trkpt lat="48.01938" lon="1.8796">
        <ele>123</ele>
        <time>2015-09-27T07:38:17Z</time>
      </trkpt>
      <trkpt lat="48.01933" lon="1.8796">
        <ele>123</ele>
        <time>2015-09-27T07:38:18Z</time>
      </trkpt>
      <trkpt lat="48.0193" lon="1.8796">
        <ele>123</ele>
        <time>2015-09-27T07:38:19Z</time>
      </trkpt>
      <trkpt lat="48.01925" lon="1.8796">
        <ele>123</ele>
        <time>2015-09-27T07:38:20Z</time>
      </trkpt>
      <trkpt lat="48.01922" lon="1.8796">
        <ele>123</ele>
        <time>2015-09-27T07:38:21Z</time>
      </trkpt>
      <trkpt lat="48.01918" lon="1.8796">
        <ele>123</ele>
        <time>2015-09-27T07:38:22Z</time>
      </trkpt>
      <trkpt lat="48.01911" lon="1.8796">
        <ele>123</ele>
        <time>2015-09-27T07:38:24Z</time>
      </trkpt>
      <trkpt lat="48.01906" lon="1.8796">
        <ele>123</ele>
        <time>2015-09-27T07:38:25Z</time>
      </trkpt>
      <trkpt lat="48.01902" lon="1.87961">
        <ele>123</ele>
        <time>2015-09-27T07:38:26Z</time>
      </trkpt>
      <trkpt lat="48.01897" lon="1.87961">
        <ele>123</ele>
        <time>2015-09-27T07:38:27Z</time>
      </trkpt>
      <trkpt lat="48.01893" lon="1.87961">
        <ele>123</ele>
        <time>2015-09-27T07:38:28Z</time>
      </trkpt>
      <trkpt lat="48.0189" lon="1.87961">
        <ele>123</ele>
        <time>2015-09-27T07:38:29Z</time>
      </trkpt>
      <trkpt lat="48.01886" lon="1.87961">
        <ele>123</ele>
        <time>2015-09-27T07:38:30Z</time>
      </trkpt>
      <trkpt lat="48.0188" lon="1.87961">
        <ele>123</ele>
        <time>2015-09-27T07:38:31Z</time>
      </trkpt>
      <trkpt lat="48.01875" lon="1.87961">
        <ele>123</ele>
        <time>2015-09-27T07:38:32Z</time>
      </trkpt>
      <trkpt lat="48.01871" lon="1.87961">
        <ele>123</ele>
        <time>2015-09-27T07:38:33Z</time>
      </trkpt>
      <trkpt lat="48.01865" lon="1.87962">
        <ele>123</ele>
        <time>2015-09-27T07:38:34Z</time>
      </trkpt>
      <trkpt lat="48.0186" lon="1.87962">
        <ele>123</ele>
        <time>2015-09-27T07:38:35Z</time>
      </trkpt>
      <trkpt lat="48.01856" lon="1.87962">
        <ele>122.9</ele>
        <time>2015-09-27T07:38:36Z</time>
      </trkpt>
      <trkpt lat="48.01851" lon="1.87962">
        <ele>122.9</ele>
        <time>2015-09-27T07:38:37Z</time>
      </trkpt>
      <trkpt lat="48.01846" lon="1.87962">
        <ele>122.9</ele>
        <time>2015-09-27T07:38:38Z</time>
      </trkpt>
      <trkpt lat="48.01841" lon="1.87962">
        <ele>122.9</ele>
        <time>2015-09-27T07:38:39Z</time>
      </trkpt>
      <trkpt lat="48.01835" lon="1.87962">
        <ele>122.9</ele>
        <time>2015-09-27T07:38:40Z</time>
      </trkpt>
      <trkpt lat="48.01831" lon="1.87963">
        <ele>122.9</ele>
        <time>2015-09-27T07:38:41Z</time>
      </trkpt>
      <trkpt lat="48.01827" lon="1.87963">
        <ele>122.9</ele>
        <time>2015-09-27T07:38:42Z</time>
      </trkpt>
      <trkpt lat="48.01823" lon="1.87963">
        <ele>122.9</ele>
        <time>2015-09-27T07:38:43Z</time>
      </trkpt>
      <trkpt lat="48.01818" lon="1.87963">
        <ele>122.9</ele>
        <time>2015-09-27T07:38:44Z</time>
      </trkpt>
      <trkpt lat="48.01812" lon="1.87963">
        <ele>122.9</ele>
        <time>2015-09-27T07:38:45Z</time>
      </trkpt>
      <trkpt lat="48.01807" lon="1.87963">
        <ele>122.9</ele>
        <time>2015-09-27T07:38:46Z</time>
      </trkpt>
      <trkpt lat="48.01803" lon="1.87963">
        <ele>122.9</ele>
        <time>2015-09-27T07:38:47Z</time>
      </trkpt>
      <trkpt lat="48.01798" lon="1.87964">
        <ele>122.9</ele>
        <time>2015-09-27T07:38:48Z</time>
      </trkpt>
      <trkpt lat="48.01793" lon="1.87964">
        <ele>122.9</ele>
        <time>2015-09-27T07:38:49Z</time>
      </trkpt>
      <trkpt lat="48.01789" lon="1.87964">
        <ele>122.9</ele>
        <time>2015-09-27T07:38:50Z</time>
      </trkpt>
      <trkpt lat="48.01781" lon="1.87964">
        <ele>122.9</ele>
        <time>2015-09-27T07:38:52Z</time>
      </trkpt>
      <trkpt lat="48.01773" lon="1.87964">
        <ele>122.9</ele>
        <time>2015-09-27T07:38:54Z</time>
      </trkpt>
      <trkpt lat="48.01769" lon="1.87964">
        <ele>122.9</ele>
        <time>2015-09-27T07:38:55Z</time>
      </trkpt>
      <trkpt lat="48.01764" lon="1.87965">
        <ele>122.9</ele>
        <time>2015-09-27T07:38:56Z</time>
      </trkpt>
      <trkpt lat="48.0176" lon="1.87965">
        <ele>122.9</ele>
        <time>2015-09-27T07:38:57Z</time>
      </trkpt>
      <trkpt lat="48.01755" lon="1.87965">
        <ele>122.9</ele>
        <time>2015-09-27T07:38:58Z</time>
      </trkpt>
      <trkpt lat="48.01751" lon="1.87965">
        <ele>122.9</ele>
        <time>2015-09-27T07:38:59Z</time>
      </trkpt>
      <trkpt lat="48.01747" lon="1.87965">
        <ele>122.9</ele>
        <time>2015-09-27T07:39:00Z</time>
      </trkpt>
      <trkpt lat="48.0174" lon="1.87965">
        <ele>122.9</ele>
        <time>2015-09-27T07:39:02Z</time>
      </trkpt>
      <trkpt lat="48.01734" lon="1.87966">
        <ele>122.9</ele>
        <time>2015-09-27T07:39:03Z</time>
      </trkpt>
      <trkpt lat="48.01729" lon="1.87966">
        <ele>123</ele>
        <time>2015-09-27T07:39:04Z</time>
      </trkpt>
      <trkpt lat="48.01724" lon="1.87966">
        <ele>123</ele>
        <time>2015-09-27T07:39:05Z</time>
      </trkpt>
      <trkpt lat="48.01719" lon="1.87966">
        <ele>123</ele>
        <time>2015-09-27T07:39:06Z</time>
      </trkpt>
      <trkpt lat="48.01716" lon="1.87966">
        <ele>123</ele>
        <time>2015-09-27T07:39:07Z</time>
      </trkpt>
      <trkpt lat="48.01711" lon="1.87966">
        <ele>123</ele>
        <time>2015-09-27T07:39:08Z</time>
      </trkpt>
      <trkpt lat="48.01706" lon="1.87966">
        <ele>123</ele>
        <time>2015-09-27T07:39:09Z</time>
      </trkpt>
      <trkpt lat="48.01703" lon="1.87967">
        <ele>123.1</ele>
        <time>2015-09-27T07:39:10Z</time>
      </trkpt>
      <trkpt lat="48.01698" lon="1.87967">
        <ele>123.1</ele>
        <time>2015-09-27T07:39:11Z</time>
      </trkpt>
      <trkpt lat="48.01694" lon="1.87967">
        <ele>123.2</ele>
        <time>2015-09-27T07:39:12Z</time>
      </trkpt>
      <trkpt lat="48.01689" lon="1.87967">
        <ele>123.2</ele>
        <time>2015-09-27T07:39:13Z</time>
      </trkpt>
      <trkpt lat="48.01685" lon="1.87967">
        <ele>123.3</ele>
        <time>2015-09-27T07:39:14Z</time>
      </trkpt>
      <trkpt lat="48.01679" lon="1.87967">
        <ele>123.3</ele>
        <time>2015-09-27T07:39:15Z</time>
      </trkpt>
      <trkpt lat="48.01675" lon="1.87967">
        <ele>123.4</ele>
        <time>2015-09-27T07:39:16Z</time>
      </trkpt>
      <trkpt lat="48.01671" lon="1.87968">
        <ele>123.5</ele>
        <time>2015-09-27T07:39:17Z</time>
      </trkpt>
      <trkpt lat="48.01667" lon="1.87968">
        <ele>123.5</ele>
        <time>2015-09-27T07:39:18Z</time>
      </trkpt>
      <trkpt lat="48.01663" lon="1.87968">
        <ele>123.5</ele>
        <time>2015-09-27T07:39:19Z</time>
      </trkpt>
      <trkpt lat="48.0166" lon="1.87968">
        <ele>123.6</ele>
        <time>2015-09-27T07:39:20Z</time>
      </trkpt>
      <trkpt lat="48.01655" lon="1.87968">
        <ele>123.6</ele>
        <time>2015-09-27T07:39:21Z</time>
      </trkpt>
      <trkpt lat="48.01651" lon="1.87968">
        <ele>123.7</ele>
        <time>2015-09-27T07:39:22Z</time>
      </trkpt>
      <trkpt lat="48.01646" lon="1.87968">
        <ele>123.7</ele>
        <time>2015-09-27T07:39:23Z</time>
      </trkpt>
      <trkpt lat="48.01642" lon="1.87969">
        <ele>123.8</ele>
        <time>2015-09-27T07:39:24Z</time>
      </trkpt>
      <trkpt lat="48.01638" lon="1.87969">
        <ele>123.8</ele>
        <time>2015-09-27T07:39:25Z</time>
      </trkpt>
      <trkpt lat="48.01632" lon="1.87969">
        <ele>123.9</ele>
        <time>2015-09-27T07:39:26Z</time>
      </trkpt>
      <trkpt lat="48.01628" lon="1.87969">
        <ele>124</ele>
        <time>2015-09-27T07:39:27Z</time>
      </trkpt>
      <trkpt lat="48.01623" lon="1.8797">
        <ele>124</ele>
        <time>2015-09-27T07:39:28Z</time>
      </trkpt>
      <trkpt lat="48.01619" lon="1.8797">
        <ele>124</ele>
        <time>2015-09-27T07:39:29Z</time>
      </trkpt>
      <trkpt lat="48.01614" lon="1.8797">
        <ele>124</ele>
        <time>2015-09-27T07:39:30Z</time>
      </trkpt>
      <trkpt lat="48.01609" lon="1.87971">
        <ele>124.1</ele>
        <time>2015-09-27T07:39:31Z</time>
      </trkpt>
      <trkpt lat="48.01605" lon="1.87971">
        <ele>124.1</ele>
        <time>2015-09-27T07:39:32Z</time>
      </trkpt>
      <trkpt lat="48.016" lon="1.87971">
        <ele>124.1</ele>
        <time>2015-09-27T07:39:33Z</time>
      </trkpt>
      <trkpt lat="48.01596" lon="1.87972">
        <ele>124.1</ele>
        <time>2015-09-27T07:39:34Z</time>
      </trkpt>
      <trkpt lat="48.01592" lon="1.87972">
        <ele>124.1</ele>
        <time>2015-09-27T07:39:35Z</time>
      </trkpt>
      <trkpt lat="48.01587" lon="1.87973">
        <ele>124.2</ele>
        <time>2015-09-27T07:39:36Z</time>
      </trkpt>
      <trkpt lat="48.01582" lon="1.87973">
        <ele>124.2</ele>
        <time>2015-09-27T07:39:37Z</time>
      </trkpt>
      <trkpt lat="48.01576" lon="1.87974">
        <ele>124.2</ele>
        <time>2015-09-27T07:39:38Z</time>
      </trkpt>
      <trkpt lat="48.01572" lon="1.87974">
        <ele>124.2</ele>
        <time>2015-09-27T07:39:39Z</time>
      </trkpt>
      <trkpt lat="48.01568" lon="1.87975">
        <ele>124.3</ele>
        <time>2015-09-27T07:39:40Z</time>
      </trkpt>
      <trkpt lat="48.01563" lon="1.87975">
        <ele>124.3</ele>
        <time>2015-09-27T07:39:41Z</time>
      </trkpt>
      <trkpt lat="48.01557" lon="1.87976">
        <ele>124.3</ele>
        <time>2015-09-27T07:39:42Z</time>
      </trkpt>
      <trkpt lat="48.01553" lon="1.87976">
        <ele>124.4</ele>
        <time>2015-09-27T07:39:43Z</time>
      </trkpt>
      <trkpt lat="48.01548" lon="1.87977">
        <ele>124.4</ele>
        <time>2015-09-27T07:39:44Z</time>
      </trkpt>
      <trkpt lat="48.01544" lon="1.87977">
        <ele>124.4</ele>
        <time>2015-09-27T07:39:45Z</time>
      </trkpt>
      <trkpt lat="48.0154" lon="1.87978">
        <ele>124.4</ele>
        <time>2015-09-27T07:39:46Z</time>
      </trkpt>
      <trkpt lat="48.01535" lon="1.87978">
        <ele>124.4</ele>
        <time>2015-09-27T07:39:47Z</time>
      </trkpt>
      <trkpt lat="48.01531" lon="1.87979">
        <ele>124.4</ele>
        <time>2015-09-27T07:39:48Z</time>
      </trkpt>
      <trkpt lat="48.01526" lon="1.87979">
        <ele>124.3</ele>
        <time>2015-09-27T07:39:49Z</time>
      </trkpt>
      <trkpt lat="48.01522" lon="1.8798">
        <ele>124.3</ele>
        <time>2015-09-27T07:39:50Z</time>
      </trkpt>
      <trkpt lat="48.01516" lon="1.8798">
        <ele>124.2</ele>
        <time>2015-09-27T07:39:51Z</time>
      </trkpt>
      <trkpt lat="48.0151" lon="1.87981">
        <ele>124.2</ele>
        <time>2015-09-27T07:39:52Z</time>
      </trkpt>
      <trkpt lat="48.01504" lon="1.87982">
        <ele>124.2</ele>
        <time>2015-09-27T07:39:53Z</time>
      </trkpt>
      <trkpt lat="48.01499" lon="1.87982">
        <ele>124.1</ele>
        <time>2015-09-27T07:39:54Z</time>
      </trkpt>
      <trkpt lat="48.01493" lon="1.87983">
        <ele>124.1</ele>
        <time>2015-09-27T07:39:55Z</time>
      </trkpt>
      <trkpt lat="48.01488" lon="1.87984">
        <ele>124.1</ele>
        <time>2015-09-27T07:39:56Z</time>
      </trkpt>
      <trkpt lat="48.01482" lon="1.87984">
        <ele>124.1</ele>
        <time>2015-09-27T07:39:57Z</time>
      </trkpt>
      <trkpt lat="48.01477" lon="1.87985">
        <ele>124.1</ele>
        <time>2015-09-27T07:39:58Z</time>
      </trkpt>
      <trkpt lat="48.01472" lon="1.87986">
        <ele>124.1</ele>
        <time>2015-09-27T07:39:59Z</time>
      </trkpt>
      <trkpt lat="48.01466" lon="1.87987">
        <ele>124.1</ele>
        <time>2015-09-27T07:40:00Z</time>
      </trkpt>
      <trkpt lat="48.01463" lon="1.87987">
        <ele>124.1</ele>
        <time>2015-09-27T07:40:01Z</time>
      </trkpt>
      <trkpt lat="48.01457" lon="1.87988">
        <ele>124.1</ele>
        <time>2015-09-27T07:40:02Z</time>
      </trkpt>
      <trkpt lat="48.01451" lon="1.87989">
        <ele>124.2</ele>
        <time>2015-09-27T07:40:03Z</time>
      </trkpt>
      <trkpt lat="48.01446" lon="1.87989">
        <ele>124.3</ele>
        <time>2015-09-27T07:40:04Z</time>
      </trkpt>
      <trkpt lat="48.01439" lon="1.87991">
        <ele>124.4</ele>
        <time>2015-09-27T07:40:05Z</time>
      </trkpt>
      <trkpt lat="48.01435" lon="1.87991">
        <ele>124.5</ele>
        <time>2015-09-27T07:40:06Z</time>
      </trkpt>
      <trkpt lat="48.01429" lon="1.87992">
        <ele>124.6</ele>
        <time>2015-09-27T07:40:07Z</time>
      </trkpt>
      <trkpt lat="48.01424" lon="1.87993">
        <ele>124.6</ele>
        <time>2015-09-27T07:40:08Z</time>
      </trkpt>
      <trkpt lat="48.01418" lon="1.87994">
        <ele>124.7</ele>
        <time>2015-09-27T07:40:09Z</time>
      </trkpt>
      <trkpt lat="48.01412" lon="1.87995">
        <ele>124.8</ele>
        <time>2015-09-27T07:40:10Z</time>
      </trkpt>
      <trkpt lat="48.01407" lon="1.87996">
        <ele>124.8</ele>
        <time>2015-09-27T07:40:11Z</time>
      </trkpt>
      <trkpt lat="48.01403" lon="1.87996">
        <ele>124.8</ele>
        <time>2015-09-27T07:40:12Z</time>
      </trkpt>
      <trkpt lat="48.01396" lon="1.87997">
        <ele>124.9</ele>
        <time>2015-09-27T07:40:13Z</time>
      </trkpt>
      <trkpt lat="48.01392" lon="1.87998">
        <ele>124.9</ele>
        <time>2015-09-27T07:40:14Z</time>
      </trkpt>
      <trkpt lat="48.01387" lon="1.87999">
        <ele>125</ele>
        <time>2015-09-27T07:40:15Z</time>
      </trkpt>
      <trkpt lat="48.01382" lon="1.87999">
        <ele>125</ele>
        <time>2015-09-27T07:40:16Z</time>
      </trkpt>
      <trkpt lat="48.01376" lon="1.88">
        <ele>125</ele>
        <time>2015-09-27T07:40:17Z</time>
      </trkpt>
      <trkpt lat="48.0137" lon="1.88001">
        <ele>125</ele>
        <time>2015-09-27T07:40:18Z</time>
      </trkpt>
      <trkpt lat="48.01366" lon="1.88002">
        <ele>124.9</ele>
        <time>2015-09-27T07:40:19Z</time>
      </trkpt>
      <trkpt lat="48.01361" lon="1.88003">
        <ele>124.9</ele>
        <time>2015-09-27T07:40:20Z</time>
      </trkpt>
      <trkpt lat="48.01357" lon="1.88003">
        <ele>124.8</ele>
        <time>2015-09-27T07:40:21Z</time>
      </trkpt>
      <trkpt lat="48.01351" lon="1.88004">
        <ele>124.8</ele>
        <time>2015-09-27T07:40:22Z</time>
      </trkpt>
      <trkpt lat="48.01347" lon="1.88005">
        <ele>124.7</ele>
        <time>2015-09-27T07:40:23Z</time>
      </trkpt>
      <trkpt lat="48.01343" lon="1.88006">
        <ele>124.7</ele>
        <time>2015-09-27T07:40:24Z</time>
      </trkpt>
      <trkpt lat="48.01338" lon="1.88006">
        <ele>124.6</ele>
        <time>2015-09-27T07:40:25Z</time>
      </trkpt>
      <trkpt lat="48.01332" lon="1.88008">
        <ele>124.6</ele>
        <time>2015-09-27T07:40:26Z</time>
      </trkpt>
      <trkpt lat="48.01325" lon="1.88009">
        <ele>124.5</ele>
        <time>2015-09-27T07:40:27Z</time>
      </trkpt>
      <trkpt lat="48.01319" lon="1.8801">
        <ele>124.4</ele>
        <time>2015-09-27T07:40:28Z</time>
      </trkpt>
      <trkpt lat="48.01313" lon="1.88011">
        <ele>124.3</ele>
        <time>2015-09-27T07:40:29Z</time>
      </trkpt>
      <trkpt lat="48.01308" lon="1.88012">
        <ele>124.3</ele>
        <time>2015-09-27T07:40:30Z</time>
      </trkpt>
      <trkpt lat="48.01302" lon="1.88013">
        <ele>124.2</ele>
        <time>2015-09-27T07:40:31Z</time>
      </trkpt>
      <trkpt lat="48.01297" lon="1.88014">
        <ele>124.1</ele>
        <time>2015-09-27T07:40:32Z</time>
      </trkpt>
      <trkpt lat="48.01293" lon="1.88014">
        <ele>124</ele>
        <time>2015-09-27T07:40:33Z</time>
      </trkpt>
      <trkpt lat="48.01289" lon="1.88015">
        <ele>124</ele>
        <time>2015-09-27T07:40:34Z</time>
      </trkpt>
      <trkpt lat="48.01283" lon="1.88016">
        <ele>124</ele>
        <time>2015-09-27T07:40:35Z</time>
      </trkpt>
      <trkpt lat="48.01278" lon="1.88017">
        <ele>124</ele>
        <time>2015-09-27T07:40:36Z</time>
      </trkpt>
      <trkpt lat="48.01273" lon="1.88018">
        <ele>124</ele>
        <time>2015-09-27T07:40:37Z</time>
      </trkpt>
      <trkpt lat="48.01269" lon="1.88019">
        <ele>124</ele>
        <time>2015-09-27T07:40:38Z</time>
      </trkpt>
      <trkpt lat="48.01264" lon="1.8802">
        <ele>124</ele>
        <time>2015-09-27T07:40:39Z</time>
      </trkpt>
      <trkpt lat="48.01259" lon="1.88021">
        <ele>124</ele>
        <time>2015-09-27T07:40:40Z</time>
      </trkpt>
      <trkpt lat="48.01255" lon="1.88022">
        <ele>124</ele>
        <time>2015-09-27T07:40:41Z</time>
      </trkpt>
      <trkpt lat="48.01251" lon="1.88024">
        <ele>124</ele>
        <time>2015-09-27T07:40:42Z</time>
      </trkpt>
      <trkpt lat="48.01247" lon="1.88026">
        <ele>124</ele>
        <time>2015-09-27T07:40:43Z</time>
      </trkpt>
      <trkpt lat="48.01245" lon="1.88027">
        <ele>124</ele>
        <time>2015-09-27T07:40:44Z</time>
      </trkpt>
      <trkpt lat="48.01239" lon="1.88035">
        <ele>124</ele>
        <time>2015-09-27T07:40:46Z</time>
      </trkpt>
      <trkpt lat="48.01238" lon="1.88039">
        <ele>124</ele>
        <time>2015-09-27T07:40:51Z</time>
      </trkpt>
      <trkpt lat="48.01238" lon="1.88086">
        <ele>124.3</ele>
        <time>2015-09-27T07:40:54Z</time>
      </trkpt>
      <trkpt lat="48.01238" lon="1.88094">
        <ele>124.4</ele>
        <time>2015-09-27T07:40:55Z</time>
      </trkpt>
      <trkpt lat="48.01238" lon="1.88102">
        <ele>124.5</ele>
        <time>2015-09-27T07:40:56Z</time>
      </trkpt>
      <trkpt lat="48.01238" lon="1.8811">
        <ele>124.5</ele>
        <time>2015-09-27T07:40:57Z</time>
      </trkpt>
      <trkpt lat="48.01238" lon="1.88119">
        <ele>124.6</ele>
        <time>2015-09-27T07:40:58Z</time>
      </trkpt>
      <trkpt lat="48.01239" lon="1.88126">
        <ele>124.7</ele>
        <time>2015-09-27T07:40:59Z</time>
      </trkpt>
      <trkpt lat="48.01239" lon="1.88134">
        <ele>125.2</ele>
        <time>2015-09-27T07:41:00Z</time>
      </trkpt>
      <trkpt lat="48.01239" lon="1.88143">
        <ele>125.6</ele>
        <time>2015-09-27T07:41:01Z</time>
      </trkpt>
      <trkpt lat="48.01238" lon="1.8815">
        <ele>126.1</ele>
        <time>2015-09-27T07:41:02Z</time>
      </trkpt>
      <trkpt lat="48.01239" lon="1.88157">
        <ele>126.5</ele>
        <time>2015-09-27T07:41:03Z</time>
      </trkpt>
      <trkpt lat="48.0124" lon="1.88165">
        <ele>126.9</ele>
        <time>2015-09-27T07:41:04Z</time>
      </trkpt>
      <trkpt lat="48.0124" lon="1.88172">
        <ele>127.3</ele>
        <time>2015-09-27T07:41:05Z</time>
      </trkpt>
      <trkpt lat="48.01241" lon="1.88181">
        <ele>127.8</ele>
        <time>2015-09-27T07:41:06Z</time>
      </trkpt>
      <trkpt lat="48.01241" lon="1.88188">
        <ele>128.2</ele>
        <time>2015-09-27T07:41:07Z</time>
      </trkpt>
      <trkpt lat="48.01241" lon="1.88195">
        <ele>128.6</ele>
        <time>2015-09-27T07:41:08Z</time>
      </trkpt>
      <trkpt lat="48.01242" lon="1.88202">
        <ele>129</ele>
        <time>2015-09-27T07:41:09Z</time>
      </trkpt>
      <trkpt lat="48.01242" lon="1.8821">
        <ele>129.4</ele>
        <time>2015-09-27T07:41:10Z</time>
      </trkpt>
      <trkpt lat="48.01242" lon="1.88218">
        <ele>129.6</ele>
        <time>2015-09-27T07:41:11Z</time>
      </trkpt>
      <trkpt lat="48.01242" lon="1.88224">
        <ele>129.7</ele>
        <time>2015-09-27T07:41:12Z</time>
      </trkpt>
      <trkpt lat="48.01241" lon="1.88232">
        <ele>129.8</ele>
        <time>2015-09-27T07:41:13Z</time>
      </trkpt>
      <trkpt lat="48.01241" lon="1.88238">
        <ele>130</ele>
        <time>2015-09-27T07:41:14Z</time>
      </trkpt>
      <trkpt lat="48.01241" lon="1.88246">
        <ele>130.1</ele>
        <time>2015-09-27T07:41:15Z</time>
      </trkpt>
      <trkpt lat="48.01242" lon="1.88254">
        <ele>130.3</ele>
        <time>2015-09-27T07:41:16Z</time>
      </trkpt>
      <trkpt lat="48.01241" lon="1.88261">
        <ele>130.4</ele>
        <time>2015-09-27T07:41:17Z</time>
      </trkpt>
      <trkpt lat="48.01241" lon="1.88269">
        <ele>130.6</ele>
        <time>2015-09-27T07:41:18Z</time>
      </trkpt>
      <trkpt lat="48.01241" lon="1.88278">
        <ele>130.7</ele>
        <time>2015-09-27T07:41:19Z</time>
      </trkpt>
      <trkpt lat="48.01242" lon="1.88285">
        <ele>130.9</ele>
        <time>2015-09-27T07:41:20Z</time>
      </trkpt>
      <trkpt lat="48.01242" lon="1.88293">
        <ele>131</ele>
        <time>2015-09-27T07:41:21Z</time>
      </trkpt>
      <trkpt lat="48.01242" lon="1.88301">
        <ele>130.7</ele>
        <time>2015-09-27T07:41:22Z</time>
      </trkpt>
      <trkpt lat="48.01244" lon="1.88309">
        <ele>130.5</ele>
        <time>2015-09-27T07:41:23Z</time>
      </trkpt>
      <trkpt lat="48.01243" lon="1.88316">
        <ele>130.2</ele>
        <time>2015-09-27T07:41:24Z</time>
      </trkpt>
      <trkpt lat="48.01242" lon="1.88324">
        <ele>130</ele>
        <time>2015-09-27T07:41:25Z</time>
      </trkpt>
      <trkpt lat="48.01242" lon="1.88332">
        <ele>129.7</ele>
        <time>2015-09-27T07:41:26Z</time>
      </trkpt>
      <trkpt lat="48.01243" lon="1.8834">
        <ele>129.5</ele>
        <time>2015-09-27T07:41:27Z</time>
      </trkpt>
      <trkpt lat="48.01244" lon="1.88348">
        <ele>129.3</ele>
        <time>2015-09-27T07:41:28Z</time>
      </trkpt>
      <trkpt lat="48.01245" lon="1.88356">
        <ele>129</ele>
        <time>2015-09-27T07:41:29Z</time>
      </trkpt>
      <trkpt lat="48.01246" lon="1.88365">
        <ele>128.8</ele>
        <time>2015-09-27T07:41:30Z</time>
      </trkpt>
      <trkpt lat="48.01247" lon="1.88372">
        <ele>128.6</ele>
        <time>2015-09-27T07:41:31Z</time>
      </trkpt>
      <trkpt lat="48.01248" lon="1.8838">
        <ele>128.5</ele>
        <time>2015-09-27T07:41:32Z</time>
      </trkpt>
      <trkpt lat="48.01249" lon="1.88389">
        <ele>128.5</ele>
        <time>2015-09-27T07:41:33Z</time>
      </trkpt>
      <trkpt lat="48.01249" lon="1.88397">
        <ele>128.5</ele>
        <time>2015-09-27T07:41:34Z</time>
      </trkpt>
      <trkpt lat="48.01248" lon="1.88406">
        <ele>128.5</ele>
        <time>2015-09-27T07:41:35Z</time>
      </trkpt>
      <trkpt lat="48.01248" lon="1.88413">
        <ele>128.5</ele>
        <time>2015-09-27T07:41:36Z</time>
      </trkpt>
      <trkpt lat="48.01248" lon="1.88421">
        <ele>128.5</ele>
        <time>2015-09-27T07:41:37Z</time>
      </trkpt>
      <trkpt lat="48.01247" lon="1.88431">
        <ele>128.5</ele>
        <time>2015-09-27T07:41:38Z</time>
      </trkpt>
      <trkpt lat="48.01247" lon="1.88438">
        <ele>128.5</ele>
        <time>2015-09-27T07:41:39Z</time>
      </trkpt>
      <trkpt lat="48.01247" lon="1.88446">
        <ele>128.5</ele>
        <time>2015-09-27T07:41:40Z</time>
      </trkpt>
      <trkpt lat="48.01248" lon="1.88454">
        <ele>128.5</ele>
        <time>2015-09-27T07:41:41Z</time>
      </trkpt>
      <trkpt lat="48.01248" lon="1.88462">
        <ele>128.7</ele>
        <time>2015-09-27T07:41:42Z</time>
      </trkpt>
      <trkpt lat="48.01249" lon="1.8847">
        <ele>129.1</ele>
        <time>2015-09-27T07:41:43Z</time>
      </trkpt>
      <trkpt lat="48.01249" lon="1.88477">
        <ele>129.4</ele>
        <time>2015-09-27T07:41:44Z</time>
      </trkpt>
      <trkpt lat="48.01249" lon="1.88485">
        <ele>129.8</ele>
        <time>2015-09-27T07:41:45Z</time>
      </trkpt>
      <trkpt lat="48.01248" lon="1.88494">
        <ele>130.2</ele>
        <time>2015-09-27T07:41:46Z</time>
      </trkpt>
      <trkpt lat="48.01249" lon="1.88503">
        <ele>130.6</ele>
        <time>2015-09-27T07:41:47Z</time>
      </trkpt>
      <trkpt lat="48.0125" lon="1.88509">
        <ele>130.9</ele>
        <time>2015-09-27T07:41:48Z</time>
      </trkpt>
      <trkpt lat="48.0125" lon="1.88517">
        <ele>131.3</ele>
        <time>2015-09-27T07:41:49Z</time>
      </trkpt>
      <trkpt lat="48.0125" lon="1.88524">
        <ele>131.6</ele>
        <time>2015-09-27T07:41:50Z</time>
      </trkpt>
      <trkpt lat="48.01249" lon="1.88532">
        <ele>132</ele>
        <time>2015-09-27T07:41:51Z</time>
      </trkpt>
      <trkpt lat="48.0125" lon="1.88538">
        <ele>132.3</ele>
        <time>2015-09-27T07:41:52Z</time>
      </trkpt>
      <trkpt lat="48.01251" lon="1.88545">
        <ele>132.5</ele>
        <time>2015-09-27T07:41:53Z</time>
      </trkpt>
      <trkpt lat="48.01251" lon="1.88552">
        <ele>132.6</ele>
        <time>2015-09-27T07:41:54Z</time>
      </trkpt>
      <trkpt lat="48.0125" lon="1.8856">
        <ele>132.6</ele>
        <time>2015-09-27T07:41:55Z</time>
      </trkpt>
      <trkpt lat="48.0125" lon="1.88568">
        <ele>132.7</ele>
        <time>2015-09-27T07:41:56Z</time>
      </trkpt>
      <trkpt lat="48.0125" lon="1.88575">
        <ele>132.7</ele>
        <time>2015-09-27T07:41:57Z</time>
      </trkpt>
      <trkpt lat="48.01252" lon="1.88583">
        <ele>132.7</ele>
        <time>2015-09-27T07:41:58Z</time>
      </trkpt>
      <trkpt lat="48.01251" lon="1.88589">
        <ele>132.8</ele>
        <time>2015-09-27T07:41:59Z</time>
      </trkpt>
      <trkpt lat="48.01252" lon="1.88596">
        <ele>132.8</ele>
        <time>2015-09-27T07:42:00Z</time>
      </trkpt>
      <trkpt lat="48.01251" lon="1.88603">
        <ele>132.9</ele>
        <time>2015-09-27T07:42:01Z</time>
      </trkpt>
      <trkpt lat="48.01253" lon="1.8861">
        <ele>132.9</ele>
        <time>2015-09-27T07:42:02Z</time>
      </trkpt>
      <trkpt lat="48.01252" lon="1.88617">
        <ele>133</ele>
        <time>2015-09-27T07:42:03Z</time>
      </trkpt>
      <trkpt lat="48.01253" lon="1.88624">
        <ele>133</ele>
        <time>2015-09-27T07:42:04Z</time>
      </trkpt>
      <trkpt lat="48.01253" lon="1.8863">
        <ele>132.9</ele>
        <time>2015-09-27T07:42:05Z</time>
      </trkpt>
      <trkpt lat="48.01254" lon="1.88638">
        <ele>132.8</ele>
        <time>2015-09-27T07:42:06Z</time>
      </trkpt>
      <trkpt lat="48.01254" lon="1.88644">
        <ele>132.8</ele>
        <time>2015-09-27T07:42:07Z</time>
      </trkpt>
      <trkpt lat="48.01254" lon="1.8865">
        <ele>132.7</ele>
        <time>2015-09-27T07:42:08Z</time>
      </trkpt>
      <trkpt lat="48.01255" lon="1.88657">
        <ele>132.6</ele>
        <time>2015-09-27T07:42:09Z</time>
      </trkpt>
      <trkpt lat="48.01254" lon="1.88664">
        <ele>132.5</ele>
        <time>2015-09-27T07:42:10Z</time>
      </trkpt>
      <trkpt lat="48.01254" lon="1.88671">
        <ele>132.4</ele>
        <time>2015-09-27T07:42:11Z</time>
      </trkpt>
      <trkpt lat="48.01253" lon="1.88679">
        <ele>132.4</ele>
        <time>2015-09-27T07:42:12Z</time>
      </trkpt>
      <trkpt lat="48.01253" lon="1.88686">
        <ele>132.3</ele>
        <time>2015-09-27T07:42:13Z</time>
      </trkpt>
      <trkpt lat="48.01253" lon="1.88693">
        <ele>132.2</ele>
        <time>2015-09-27T07:42:14Z</time>
      </trkpt>
      <trkpt lat="48.01253" lon="1.88701">
        <ele>132.1</ele>
        <time>2015-09-27T07:42:15Z</time>
      </trkpt>
      <trkpt lat="48.01254" lon="1.88708">
        <ele>132</ele>
        <time>2015-09-27T07:42:16Z</time>
      </trkpt>
      <trkpt lat="48.01254" lon="1.88716">
        <ele>132.1</ele>
        <time>2015-09-27T07:42:17Z</time>
      </trkpt>
      <trkpt lat="48.01255" lon="1.88723">
        <ele>132.2</ele>
        <time>2015-09-27T07:42:18Z</time>
      </trkpt>
      <trkpt lat="48.01254" lon="1.88731">
        <ele>132.3</ele>
        <time>2015-09-27T07:42:19Z</time>
      </trkpt>
      <trkpt lat="48.01254" lon="1.88738">
        <ele>132.4</ele>
        <time>2015-09-27T07:42:20Z</time>
      </trkpt>
      <trkpt lat="48.01255" lon="1.88745">
        <ele>132.5</ele>
        <time>2015-09-27T07:42:21Z</time>
      </trkpt>
      <trkpt lat="48.01254" lon="1.88753">
        <ele>132.6</ele>
        <time>2015-09-27T07:42:22Z</time>
      </trkpt>
      <trkpt lat="48.01254" lon="1.8876">
        <ele>132.7</ele>
        <time>2015-09-27T07:42:23Z</time>
      </trkpt>
      <trkpt lat="48.01254" lon="1.88766">
        <ele>132.8</ele>
        <time>2015-09-27T07:42:24Z</time>
      </trkpt>
      <trkpt lat="48.01256" lon="1.88774">
        <ele>132.9</ele>
        <time>2015-09-27T07:42:25Z</time>
      </trkpt>
      <trkpt lat="48.01256" lon="1.88782">
        <ele>133</ele>
        <time>2015-09-27T07:42:26Z</time>
      </trkpt>
      <trkpt lat="48.01257" lon="1.8879">
        <ele>133.1</ele>
        <time>2015-09-27T07:42:27Z</time>
      </trkpt>
      <trkpt lat="48.01258" lon="1.88797">
        <ele>133.1</ele>
        <time>2015-09-27T07:42:28Z</time>
      </trkpt>
      <trkpt lat="48.01258" lon="1.88804">
        <ele>133</ele>
        <time>2015-09-27T07:42:29Z</time>
      </trkpt>
      <trkpt lat="48.01258" lon="1.88811">
        <ele>133</ele>
        <time>2015-09-27T07:42:30Z</time>
      </trkpt>
      <trkpt lat="48.01258" lon="1.88817">
        <ele>132.9</ele>
        <time>2015-09-27T07:42:31Z</time>
      </trkpt>
      <trkpt lat="48.01257" lon="1.88826">
        <ele>132.8</ele>
        <time>2015-09-27T07:42:32Z</time>
      </trkpt>
      <trkpt lat="48.01258" lon="1.88833">
        <ele>132.7</ele>
        <time>2015-09-27T07:42:33Z</time>
      </trkpt>
      <trkpt lat="48.01259" lon="1.88841">
        <ele>132.6</ele>
        <time>2015-09-27T07:42:34Z</time>
      </trkpt>
      <trkpt lat="48.01256" lon="1.88849">
        <ele>132.5</ele>
        <time>2015-09-27T07:42:35Z</time>
      </trkpt>
      <trkpt lat="48.01255" lon="1.88855">
        <ele>132.4</ele>
        <time>2015-09-27T07:42:36Z</time>
      </trkpt>
      <trkpt lat="48.01253" lon="1.88863">
        <ele>132.2</ele>
        <time>2015-09-27T07:42:37Z</time>
      </trkpt>
      <trkpt lat="48.01253" lon="1.88869">
        <ele>132.1</ele>
        <time>2015-09-27T07:42:38Z</time>
      </trkpt>
      <trkpt lat="48.01254" lon="1.88875">
        <ele>132.1</ele>
        <time>2015-09-27T07:42:39Z</time>
      </trkpt>
      <trkpt lat="48.01253" lon="1.88882">
        <ele>132</ele>
        <time>2015-09-27T07:42:40Z</time>
      </trkpt>
      <trkpt lat="48.01255" lon="1.88889">
        <ele>132</ele>
        <time>2015-09-27T07:42:42Z</time>
      </trkpt>
      <trkpt lat="48.01256" lon="1.88905">
        <ele>131.9</ele>
        <time>2015-09-27T07:42:43Z</time>
      </trkpt>
      <trkpt lat="48.01255" lon="1.88913">
        <ele>131.9</ele>
        <time>2015-09-27T07:42:44Z</time>
      </trkpt>
      <trkpt lat="48.01256" lon="1.8892">
        <ele>131.8</ele>
        <time>2015-09-27T07:42:45Z</time>
      </trkpt>
      <trkpt lat="48.01256" lon="1.88927">
        <ele>131.8</ele>
        <time>2015-09-27T07:42:46Z</time>
      </trkpt>
      <trkpt lat="48.01257" lon="1.88935">
        <ele>131.7</ele>
        <time>2015-09-27T07:42:47Z</time>
      </trkpt>
      <trkpt lat="48.01258" lon="1.88942">
        <ele>131.7</ele>
        <time>2015-09-27T07:42:48Z</time>
      </trkpt>
      <trkpt lat="48.01259" lon="1.88949">
        <ele>131.7</ele>
        <time>2015-09-27T07:42:49Z</time>
      </trkpt>
      <trkpt lat="48.0126" lon="1.88957">
        <ele>131.6</ele>
        <time>2015-09-27T07:42:50Z</time>
      </trkpt>
      <trkpt lat="48.01259" lon="1.88964">
        <ele>131.6</ele>
        <time>2015-09-27T07:42:51Z</time>
      </trkpt>
      <trkpt lat="48.01259" lon="1.88971">
        <ele>131.6</ele>
        <time>2015-09-27T07:42:52Z</time>
      </trkpt>
      <trkpt lat="48.0126" lon="1.88979">
        <ele>131.7</ele>
        <time>2015-09-27T07:42:53Z</time>
      </trkpt>
      <trkpt lat="48.01259" lon="1.88984">
        <ele>131.7</ele>
        <time>2015-09-27T07:42:54Z</time>
      </trkpt>
      <trkpt lat="48.01259" lon="1.8899">
        <ele>131.7</ele>
        <time>2015-09-27T07:42:55Z</time>
      </trkpt>
      <trkpt lat="48.01259" lon="1.88995">
        <ele>131.7</ele>
        <time>2015-09-27T07:42:56Z</time>
      </trkpt>
      <trkpt lat="48.0126" lon="1.89003">
        <ele>131.7</ele>
        <time>2015-09-27T07:42:57Z</time>
      </trkpt>
      <trkpt lat="48.01261" lon="1.89007">
        <ele>131.8</ele>
        <time>2015-09-27T07:42:58Z</time>
      </trkpt>
      <trkpt lat="48.01261" lon="1.89022">
        <ele>131.8</ele>
        <time>2015-09-27T07:42:59Z</time>
      </trkpt>
      <trkpt lat="48.01262" lon="1.89028">
        <ele>131.9</ele>
        <time>2015-09-27T07:43:00Z</time>
      </trkpt>
      <trkpt lat="48.01261" lon="1.89032">
        <ele>131.9</ele>
        <time>2015-09-27T07:43:01Z</time>
      </trkpt>
      <trkpt lat="48.01264" lon="1.89045">
        <ele>132</ele>
        <time>2015-09-27T07:43:02Z</time>
      </trkpt>
      <trkpt lat="48.01265" lon="1.89058">
        <ele>132.1</ele>
        <time>2015-09-27T07:43:03Z</time>
      </trkpt>
      <trkpt lat="48.01262" lon="1.89062">
        <ele>132</ele>
        <time>2015-09-27T07:43:04Z</time>
      </trkpt>
      <trkpt lat="48.01272" lon="1.89066">
        <ele>132.4</ele>
        <time>2015-09-27T07:43:05Z</time>
      </trkpt>
      <trkpt lat="48.01268" lon="1.8907">
        <ele>132.2</ele>
        <time>2015-09-27T07:43:06Z</time>
      </trkpt>
      <trkpt lat="48.01266" lon="1.89074">
        <ele>132.2</ele>
        <time>2015-09-27T07:43:07Z</time>
      </trkpt>
      <trkpt lat="48.01267" lon="1.89083">
        <ele>132.3</ele>
        <time>2015-09-27T07:43:08Z</time>
      </trkpt>
      <trkpt lat="48.01267" lon="1.89094">
        <ele>132.3</ele>
        <time>2015-09-27T07:43:09Z</time>
      </trkpt>
      <trkpt lat="48.01268" lon="1.89104">
        <ele>132.4</ele>
        <time>2015-09-27T07:43:10Z</time>
      </trkpt>
      <trkpt lat="48.01265" lon="1.89113">
        <ele>132.3</ele>
        <time>2015-09-27T07:43:11Z</time>
      </trkpt>
      <trkpt lat="48.01266" lon="1.89122">
        <ele>132.4</ele>
        <time>2015-09-27T07:43:12Z</time>
      </trkpt>
      <trkpt lat="48.01268" lon="1.89128">
        <ele>132.5</ele>
        <time>2015-09-27T07:43:13Z</time>
      </trkpt>
      <trkpt lat="48.01269" lon="1.89135">
        <ele>132.5</ele>
        <time>2015-09-27T07:43:14Z</time>
      </trkpt>
      <trkpt lat="48.0127" lon="1.89143">
        <ele>132.6</ele>
        <time>2015-09-27T07:43:15Z</time>
      </trkpt>
      <trkpt lat="48.01269" lon="1.89151">
        <ele>132.6</ele>
        <time>2015-09-27T07:43:16Z</time>
      </trkpt>
      <trkpt lat="48.01268" lon="1.89156">
        <ele>132.6</ele>
        <time>2015-09-27T07:43:17Z</time>
      </trkpt>
      <trkpt lat="48.01272" lon="1.89164">
        <ele>132.8</ele>
        <time>2015-09-27T07:43:18Z</time>
      </trkpt>
      <trkpt lat="48.01274" lon="1.89175">
        <ele>132.9</ele>
        <time>2015-09-27T07:43:19Z</time>
      </trkpt>
      <trkpt lat="48.01273" lon="1.89182">
        <ele>132.9</ele>
        <time>2015-09-27T07:43:20Z</time>
      </trkpt>
      <trkpt lat="48.01271" lon="1.8919">
        <ele>132.9</ele>
        <time>2015-09-27T07:43:21Z</time>
      </trkpt>
      <trkpt lat="48.01272" lon="1.89198">
        <ele>133</ele>
        <time>2015-09-27T07:43:22Z</time>
      </trkpt>
      <trkpt lat="48.01273" lon="1.89202">
        <ele>133</ele>
        <time>2015-09-27T07:43:23Z</time>
      </trkpt>
      <trkpt lat="48.01272" lon="1.89208">
        <ele>133</ele>
        <time>2015-09-27T07:43:24Z</time>
      </trkpt>
      <trkpt lat="48.01272" lon="1.89214">
        <ele>133</ele>
        <time>2015-09-27T07:43:25Z</time>
      </trkpt>
      <trkpt lat="48.01272" lon="1.89221">
        <ele>132.9</ele>
        <time>2015-09-27T07:43:26Z</time>
      </trkpt>
      <trkpt lat="48.01272" lon="1.89227">
        <ele>132.9</ele>
        <time>2015-09-27T07:43:27Z</time>
      </trkpt>
      <trkpt lat="48.01271" lon="1.89235">
        <ele>132.8</ele>
        <time>2015-09-27T07:43:28Z</time>
      </trkpt>
      <trkpt lat="48.0127" lon="1.89242">
        <ele>132.6</ele>
        <time>2015-09-27T07:43:29Z</time>
      </trkpt>
      <trkpt lat="48.01268" lon="1.89247">
        <ele>132.5</ele>
        <time>2015-09-27T07:43:30Z</time>
      </trkpt>
      <trkpt lat="48.01266" lon="1.89253">
        <ele>132.4</ele>
        <time>2015-09-27T07:43:31Z</time>
      </trkpt>
      <trkpt lat="48.01263" lon="1.8926">
        <ele>132.2</ele>
        <time>2015-09-27T07:43:32Z</time>
      </trkpt>
      <trkpt lat="48.01262" lon="1.89265">
        <ele>132.1</ele>
        <time>2015-09-27T07:43:33Z</time>
      </trkpt>
      <trkpt lat="48.0126" lon="1.8927">
        <ele>132</ele>
        <time>2015-09-27T07:43:34Z</time>
      </trkpt>
      <trkpt lat="48.01257" lon="1.89275">
        <ele>131.9</ele>
        <time>2015-09-27T07:43:35Z</time>
      </trkpt>
      <trkpt lat="48.01256" lon="1.89279">
        <ele>131.8</ele>
        <time>2015-09-27T07:43:36Z</time>
      </trkpt>
      <trkpt lat="48.01254" lon="1.89286">
        <ele>131.7</ele>
        <time>2015-09-27T07:43:37Z</time>
      </trkpt>
      <trkpt lat="48.01252" lon="1.89291">
        <ele>131.6</ele>
        <time>2015-09-27T07:43:38Z</time>
      </trkpt>
      <trkpt lat="48.01251" lon="1.89299">
        <ele>131.7</ele>
        <time>2015-09-27T07:43:40Z</time>
      </trkpt>
      <trkpt lat="48.01247" lon="1.89305">
        <ele>131.7</ele>
        <time>2015-09-27T07:43:42Z</time>
      </trkpt>
      <trkpt lat="48.01244" lon="1.89309">
        <ele>131.6</ele>
        <time>2015-09-27T07:43:43Z</time>
      </trkpt>
      <trkpt lat="48.01242" lon="1.89314">
        <ele>131.7</ele>
        <time>2015-09-27T07:43:44Z</time>
      </trkpt>
      <trkpt lat="48.01239" lon="1.8932">
        <ele>131.7</ele>
        <time>2015-09-27T07:43:45Z</time>
      </trkpt>
      <trkpt lat="48.01237" lon="1.89325">
        <ele>131.8</ele>
        <time>2015-09-27T07:43:46Z</time>
      </trkpt>
      <trkpt lat="48.01236" lon="1.8933">
        <ele>131.9</ele>
        <time>2015-09-27T07:43:47Z</time>
      </trkpt>
      <trkpt lat="48.01234" lon="1.89335">
        <ele>132</ele>
        <time>2015-09-27T07:43:48Z</time>
      </trkpt>
      <trkpt lat="48.01233" lon="1.8934">
        <ele>132.1</ele>
        <time>2015-09-27T07:43:49Z</time>
      </trkpt>
      <trkpt lat="48.01232" lon="1.89345">
        <ele>132.2</ele>
        <time>2015-09-27T07:43:50Z</time>
      </trkpt>
      <trkpt lat="48.0123" lon="1.8935">
        <ele>132.3</ele>
        <time>2015-09-27T07:43:51Z</time>
      </trkpt>
      <trkpt lat="48.01228" lon="1.89356">
        <ele>132.5</ele>
        <time>2015-09-27T07:43:52Z</time>
      </trkpt>
      <trkpt lat="48.01226" lon="1.89361">
        <ele>132.6</ele>
        <time>2015-09-27T07:43:53Z</time>
      </trkpt>
      <trkpt lat="48.01223" lon="1.89366">
        <ele>132.7</ele>
        <time>2015-09-27T07:43:54Z</time>
      </trkpt>
      <trkpt lat="48.01221" lon="1.89371">
        <ele>132.9</ele>
        <time>2015-09-27T07:43:55Z</time>
      </trkpt>
      <trkpt lat="48.01219" lon="1.89376">
        <ele>133</ele>
        <time>2015-09-27T07:43:56Z</time>
      </trkpt>
      <trkpt lat="48.01217" lon="1.89381">
        <ele>132.9</ele>
        <time>2015-09-27T07:43:57Z</time>
      </trkpt>
      <trkpt lat="48.01215" lon="1.89386">
        <ele>132.9</ele>
        <time>2015-09-27T07:43:58Z</time>
      </trkpt>
      <trkpt lat="48.01213" lon="1.89392">
        <ele>132.8</ele>
        <time>2015-09-27T07:43:59Z</time>
      </trkpt>
      <trkpt lat="48.01211" lon="1.89396">
        <ele>132.7</ele>
        <time>2015-09-27T07:44:00Z</time>
      </trkpt>
      <trkpt lat="48.01209" lon="1.89401">
        <ele>132.7</ele>
        <time>2015-09-27T07:44:01Z</time>
      </trkpt>
      <trkpt lat="48.01207" lon="1.89405">
        <ele>132.6</ele>
        <time>2015-09-27T07:44:02Z</time>
      </trkpt>
      <trkpt lat="48.01205" lon="1.89409">
        <ele>132.6</ele>
        <time>2015-09-27T07:44:03Z</time>
      </trkpt>
      <trkpt lat="48.012" lon="1.89413">
        <ele>132.5</ele>
        <time>2015-09-27T07:44:05Z</time>
      </trkpt>
      <trkpt lat="48.01197" lon="1.89415">
        <ele>132.4</ele>
        <time>2015-09-27T07:44:07Z</time>
      </trkpt>
      <trkpt lat="48.01196" lon="1.89419">
        <ele>132.4</ele>
        <time>2015-09-27T07:44:09Z</time>
      </trkpt>
      <trkpt lat="48.01195" lon="1.89427">
        <ele>132.4</ele>
        <time>2015-09-27T07:44:11Z</time>
      </trkpt>
      <trkpt lat="48.01195" lon="1.89432">
        <ele>132.3</ele>
        <time>2015-09-27T07:44:12Z</time>
      </trkpt>
      <trkpt lat="48.01194" lon="1.89436">
        <ele>132.3</ele>
        <time>2015-09-27T07:44:13Z</time>
      </trkpt>
      <trkpt lat="48.01193" lon="1.8944">
        <ele>132.3</ele>
        <time>2015-09-27T07:44:14Z</time>
      </trkpt>
      <trkpt lat="48.01192" lon="1.89444">
        <ele>132.3</ele>
        <time>2015-09-27T07:44:15Z</time>
      </trkpt>
      <trkpt lat="48.0119" lon="1.89449">
        <ele>132.3</ele>
        <time>2015-09-27T07:44:16Z</time>
      </trkpt>
      <trkpt lat="48.01189" lon="1.89453">
        <ele>132.3</ele>
        <time>2015-09-27T07:44:17Z</time>
      </trkpt>
      <trkpt lat="48.01188" lon="1.89458">
        <ele>132.2</ele>
        <time>2015-09-27T07:44:18Z</time>
      </trkpt>
      <trkpt lat="48.01187" lon="1.89462">
        <ele>132.2</ele>
        <time>2015-09-27T07:44:19Z</time>
      </trkpt>
      <trkpt lat="48.01186" lon="1.89467">
        <ele>132.2</ele>
        <time>2015-09-27T07:44:20Z</time>
      </trkpt>
      <trkpt lat="48.01185" lon="1.89472">
        <ele>132.1</ele>
        <time>2015-09-27T07:44:21Z</time>
      </trkpt>
      <trkpt lat="48.01183" lon="1.89477">
        <ele>132.1</ele>
        <time>2015-09-27T07:44:22Z</time>
      </trkpt>
      <trkpt lat="48.01181" lon="1.89482">
        <ele>132</ele>
        <time>2015-09-27T07:44:23Z</time>
      </trkpt>
      <trkpt lat="48.01179" lon="1.89487">
        <ele>132</ele>
        <time>2015-09-27T07:44:24Z</time>
      </trkpt>
      <trkpt lat="48.01176" lon="1.89493">
        <ele>132</ele>
        <time>2015-09-27T07:44:25Z</time>
      </trkpt>
      <trkpt lat="48.01174" lon="1.89499">
        <ele>131.9</ele>
        <time>2015-09-27T07:44:26Z</time>
      </trkpt>
      <trkpt lat="48.01171" lon="1.89504">
        <ele>131.9</ele>
        <time>2015-09-27T07:44:27Z</time>
      </trkpt>
      <trkpt lat="48.0117" lon="1.89511">
        <ele>131.8</ele>
        <time>2015-09-27T07:44:28Z</time>
      </trkpt>
      <trkpt lat="48.01168" lon="1.89516">
        <ele>131.8</ele>
        <time>2015-09-27T07:44:29Z</time>
      </trkpt>
      <trkpt lat="48.01166" lon="1.89522">
        <ele>131.7</ele>
        <time>2015-09-27T07:44:30Z</time>
      </trkpt>
      <trkpt lat="48.01164" lon="1.89528">
        <ele>131.7</ele>
        <time>2015-09-27T07:44:31Z</time>
      </trkpt>
      <trkpt lat="48.01162" lon="1.89534">
        <ele>131.6</ele>
        <time>2015-09-27T07:44:32Z</time>
      </trkpt>
      <trkpt lat="48.01161" lon="1.89541">
        <ele>131.6</ele>
        <time>2015-09-27T07:44:33Z</time>
      </trkpt>
      <trkpt lat="48.0116" lon="1.89547">
        <ele>131.6</ele>
        <time>2015-09-27T07:44:34Z</time>
      </trkpt>
      <trkpt lat="48.01159" lon="1.89553">
        <ele>131.6</ele>
        <time>2015-09-27T07:44:35Z</time>
      </trkpt>
      <trkpt lat="48.01157" lon="1.89559">
        <ele>131.6</ele>
        <time>2015-09-27T07:44:36Z</time>
      </trkpt>
      <trkpt lat="48.01155" lon="1.89564">
        <ele>131.6</ele>
        <time>2015-09-27T07:44:37Z</time>
      </trkpt>
      <trkpt lat="48.01154" lon="1.8957">
        <ele>131.7</ele>
        <time>2015-09-27T07:44:38Z</time>
      </trkpt>
      <trkpt lat="48.01152" lon="1.89575">
        <ele>131.7</ele>
        <time>2015-09-27T07:44:39Z</time>
      </trkpt>
      <trkpt lat="48.0115" lon="1.89581">
        <ele>131.7</ele>
        <time>2015-09-27T07:44:40Z</time>
      </trkpt>
      <trkpt lat="48.01148" lon="1.89586">
        <ele>131.7</ele>
        <time>2015-09-27T07:44:41Z</time>
      </trkpt>
      <trkpt lat="48.01146" lon="1.89592">
        <ele>131.8</ele>
        <time>2015-09-27T07:44:42Z</time>
      </trkpt>
      <trkpt lat="48.01143" lon="1.89598">
        <ele>131.8</ele>
        <time>2015-09-27T07:44:43Z</time>
      </trkpt>
      <trkpt lat="48.01141" lon="1.89604">
        <ele>131.8</ele>
        <time>2015-09-27T07:44:44Z</time>
      </trkpt>
      <trkpt lat="48.01138" lon="1.8961">
        <ele>131.8</ele>
        <time>2015-09-27T07:44:45Z</time>
      </trkpt>
      <trkpt lat="48.01136" lon="1.89617">
        <ele>131.9</ele>
        <time>2015-09-27T07:44:46Z</time>
      </trkpt>
      <trkpt lat="48.01134" lon="1.89623">
        <ele>131.9</ele>
        <time>2015-09-27T07:44:47Z</time>
      </trkpt>
      <trkpt lat="48.01133" lon="1.89628">
        <ele>131.9</ele>
        <time>2015-09-27T07:44:48Z</time>
      </trkpt>
      <trkpt lat="48.01131" lon="1.89634">
        <ele>132</ele>
        <time>2015-09-27T07:44:49Z</time>
      </trkpt>
      <trkpt lat="48.01131" lon="1.89639">
        <ele>132.1</ele>
        <time>2015-09-27T07:44:50Z</time>
      </trkpt>
      <trkpt lat="48.01131" lon="1.89645">
        <ele>132.2</ele>
        <time>2015-09-27T07:44:51Z</time>
      </trkpt>
      <trkpt lat="48.01129" lon="1.8965">
        <ele>132.2</ele>
        <time>2015-09-27T07:44:52Z</time>
      </trkpt>
      <trkpt lat="48.01127" lon="1.89655">
        <ele>132.3</ele>
        <time>2015-09-27T07:44:53Z</time>
      </trkpt>
      <trkpt lat="48.01126" lon="1.89659">
        <ele>132.4</ele>
        <time>2015-09-27T07:44:54Z</time>
      </trkpt>
      <trkpt lat="48.01124" lon="1.89665">
        <ele>132.5</ele>
        <time>2015-09-27T07:44:56Z</time>
      </trkpt>
      <trkpt lat="48.01123" lon="1.89669">
        <ele>132.5</ele>
        <time>2015-09-27T07:44:57Z</time>
      </trkpt>
      <trkpt lat="48.01122" lon="1.89674">
        <ele>132.6</ele>
        <time>2015-09-27T07:44:58Z</time>
      </trkpt>
      <trkpt lat="48.0112" lon="1.89679">
        <ele>132.7</ele>
        <time>2015-09-27T07:44:59Z</time>
      </trkpt>
      <trkpt lat="48.01117" lon="1.89684">
        <ele>132.8</ele>
        <time>2015-09-27T07:45:00Z</time>
      </trkpt>
      <trkpt lat="48.01115" lon="1.89689">
        <ele>132.9</ele>
        <time>2015-09-27T07:45:01Z</time>
      </trkpt>
      <trkpt lat="48.01113" lon="1.89695">
        <ele>133</ele>
        <time>2015-09-27T07:45:02Z</time>
      </trkpt>
      <trkpt lat="48.01111" lon="1.89701">
        <ele>133.1</ele>
        <time>2015-09-27T07:45:03Z</time>
      </trkpt>
      <trkpt lat="48.01109" lon="1.89707">
        <ele>133.2</ele>
        <time>2015-09-27T07:45:04Z</time>
      </trkpt>
      <trkpt lat="48.01107" lon="1.89713">
        <ele>133.2</ele>
        <time>2015-09-27T07:45:05Z</time>
      </trkpt>
      <trkpt lat="48.01105" lon="1.8972">
        <ele>133.1</ele>
        <time>2015-09-27T07:45:06Z</time>
      </trkpt>
      <trkpt lat="48.01104" lon="1.89727">
        <ele>133.1</ele>
        <time>2015-09-27T07:45:07Z</time>
      </trkpt>
      <trkpt lat="48.01102" lon="1.89733">
        <ele>133.1</ele>
        <time>2015-09-27T07:45:08Z</time>
      </trkpt>
      <trkpt lat="48.011" lon="1.89739">
        <ele>133</ele>
        <time>2015-09-27T07:45:09Z</time>
      </trkpt>
      <trkpt lat="48.01099" lon="1.89745">
        <ele>133</ele>
        <time>2015-09-27T07:45:10Z</time>
      </trkpt>
      <trkpt lat="48.01097" lon="1.89751">
        <ele>133</ele>
        <time>2015-09-27T07:45:11Z</time>
      </trkpt>
      <trkpt lat="48.01095" lon="1.89756">
        <ele>133</ele>
        <time>2015-09-27T07:45:12Z</time>
      </trkpt>
      <trkpt lat="48.01093" lon="1.89761">
        <ele>133</ele>
        <time>2015-09-27T07:45:13Z</time>
      </trkpt>
      <trkpt lat="48.01091" lon="1.89767">
        <ele>133</ele>
        <time>2015-09-27T07:45:14Z</time>
      </trkpt>
      <trkpt lat="48.01089" lon="1.89771">
        <ele>133</ele>
        <time>2015-09-27T07:45:15Z</time>
      </trkpt>
      <trkpt lat="48.01086" lon="1.89776">
        <ele>133</ele>
        <time>2015-09-27T07:45:16Z</time>
      </trkpt>
      <trkpt lat="48.01084" lon="1.89781">
        <ele>133</ele>
        <time>2015-09-27T07:45:17Z</time>
      </trkpt>
      <trkpt lat="48.01082" lon="1.89786">
        <ele>133.1</ele>
        <time>2015-09-27T07:45:18Z</time>
      </trkpt>
      <trkpt lat="48.0108" lon="1.89791">
        <ele>133.1</ele>
        <time>2015-09-27T07:45:19Z</time>
      </trkpt>
      <trkpt lat="48.01079" lon="1.89796">
        <ele>133.1</ele>
        <time>2015-09-27T07:45:20Z</time>
      </trkpt>
      <trkpt lat="48.01078" lon="1.89802">
        <ele>133.1</ele>
        <time>2015-09-27T07:45:21Z</time>
      </trkpt>
      <trkpt lat="48.01076" lon="1.89807">
        <ele>133.2</ele>
        <time>2015-09-27T07:45:22Z</time>
      </trkpt>
      <trkpt lat="48.01074" lon="1.89812">
        <ele>133.2</ele>
        <time>2015-09-27T07:45:23Z</time>
      </trkpt>
      <trkpt lat="48.01072" lon="1.89818">
        <ele>133.3</ele>
        <time>2015-09-27T07:45:24Z</time>
      </trkpt>
      <trkpt lat="48.01071" lon="1.89823">
        <ele>133.3</ele>
        <time>2015-09-27T07:45:25Z</time>
      </trkpt>
      <trkpt lat="48.01069" lon="1.89829">
        <ele>133.4</ele>
        <time>2015-09-27T07:45:26Z</time>
      </trkpt>
      <trkpt lat="48.01066" lon="1.89835">
        <ele>133.4</ele>
        <time>2015-09-27T07:45:27Z</time>
      </trkpt>
      <trkpt lat="48.01064" lon="1.8984">
        <ele>133.5</ele>
        <time>2015-09-27T07:45:28Z</time>
      </trkpt>
      <trkpt lat="48.01061" lon="1.89846">
        <ele>133.5</ele>
        <time>2015-09-27T07:45:29Z</time>
      </trkpt>
      <trkpt lat="48.01059" lon="1.89851">
        <ele>133.6</ele>
        <time>2015-09-27T07:45:30Z</time>
      </trkpt>
      <trkpt lat="48.01057" lon="1.89857">
        <ele>133.6</ele>
        <time>2015-09-27T07:45:31Z</time>
      </trkpt>
      <trkpt lat="48.01055" lon="1.89863">
        <ele>133.7</ele>
        <time>2015-09-27T07:45:32Z</time>
      </trkpt>
      <trkpt lat="48.01052" lon="1.89868">
        <ele>133.8</ele>
        <time>2015-09-27T07:45:33Z</time>
      </trkpt>
      <trkpt lat="48.0105" lon="1.89873">
        <ele>133.8</ele>
        <time>2015-09-27T07:45:34Z</time>
      </trkpt>
      <trkpt lat="48.01047" lon="1.89878">
        <ele>133.9</ele>
        <time>2015-09-27T07:45:35Z</time>
      </trkpt>
      <trkpt lat="48.01045" lon="1.89882">
        <ele>133.9</ele>
        <time>2015-09-27T07:45:36Z</time>
      </trkpt>
      <trkpt lat="48.01042" lon="1.89887">
        <ele>134</ele>
        <time>2015-09-27T07:45:37Z</time>
      </trkpt>
      <trkpt lat="48.01039" lon="1.89891">
        <ele>134</ele>
        <time>2015-09-27T07:45:38Z</time>
      </trkpt>
      <trkpt lat="48.01035" lon="1.89895">
        <ele>134.1</ele>
        <time>2015-09-27T07:45:39Z</time>
      </trkpt>
      <trkpt lat="48.01032" lon="1.89897">
        <ele>134.1</ele>
        <time>2015-09-27T07:45:40Z</time>
      </trkpt>
      <trkpt lat="48.01028" lon="1.899">
        <ele>134.1</ele>
        <time>2015-09-27T07:45:41Z</time>
      </trkpt>
      <trkpt lat="48.01024" lon="1.89902">
        <ele>134.1</ele>
        <time>2015-09-27T07:45:42Z</time>
      </trkpt>
      <trkpt lat="48.01021" lon="1.89906">
        <ele>134.2</ele>
        <time>2015-09-27T07:45:43Z</time>
      </trkpt>
      <trkpt lat="48.01017" lon="1.8991">
        <ele>134.2</ele>
        <time>2015-09-27T07:45:44Z</time>
      </trkpt>
      <trkpt lat="48.01012" lon="1.89915">
        <ele>134.2</ele>
        <time>2015-09-27T07:45:45Z</time>
      </trkpt>
      <trkpt lat="48.01008" lon="1.89921">
        <ele>134.2</ele>
        <time>2015-09-27T07:45:46Z</time>
      </trkpt>
      <trkpt lat="48.01006" lon="1.89927">
        <ele>134.2</ele>
        <time>2015-09-27T07:45:47Z</time>
      </trkpt>
      <trkpt lat="48.01003" lon="1.89934">
        <ele>134.1</ele>
        <time>2015-09-27T07:45:48Z</time>
      </trkpt>
      <trkpt lat="48.01001" lon="1.8994">
        <ele>134.1</ele>
        <time>2015-09-27T07:45:49Z</time>
      </trkpt>
      <trkpt lat="48.01001" lon="1.89947">
        <ele>134.1</ele>
        <time>2015-09-27T07:45:50Z</time>
      </trkpt>
      <trkpt lat="48.01002" lon="1.89954">
        <ele>134</ele>
        <time>2015-09-27T07:45:51Z</time>
      </trkpt>
      <trkpt lat="48.01003" lon="1.89961">
        <ele>134</ele>
        <time>2015-09-27T07:45:52Z</time>
      </trkpt>
      <trkpt lat="48.01004" lon="1.89968">
        <ele>134.2</ele>
        <time>2015-09-27T07:45:53Z</time>
      </trkpt>
      <trkpt lat="48.01004" lon="1.89975">
        <ele>134.3</ele>
        <time>2015-09-27T07:45:54Z</time>
      </trkpt>
      <trkpt lat="48.01004" lon="1.89981">
        <ele>134.4</ele>
        <time>2015-09-27T07:45:55Z</time>
      </trkpt>
      <trkpt lat="48.01005" lon="1.89987">
        <ele>134.5</ele>
        <time>2015-09-27T07:45:56Z</time>
      </trkpt>
      <trkpt lat="48.01005" lon="1.89994">
        <ele>134.6</ele>
        <time>2015-09-27T07:45:57Z</time>
      </trkpt>
      <trkpt lat="48.01004" lon="1.9">
        <ele>134.7</ele>
        <time>2015-09-27T07:45:58Z</time>
      </trkpt>
      <trkpt lat="48.01003" lon="1.90005">
        <ele>134.8</ele>
        <time>2015-09-27T07:45:59Z</time>
      </trkpt>
      <trkpt lat="48.01001" lon="1.90011">
        <ele>134.9</ele>
        <time>2015-09-27T07:46:00Z</time>
      </trkpt>
      <trkpt lat="48.01" lon="1.90017">
        <ele>135.1</ele>
        <time>2015-09-27T07:46:01Z</time>
      </trkpt>
      <trkpt lat="48.00998" lon="1.90022">
        <ele>135.2</ele>
        <time>2015-09-27T07:46:02Z</time>
      </trkpt>
      <trkpt lat="48.00996" lon="1.90028">
        <ele>135.3</ele>
        <time>2015-09-27T07:46:03Z</time>
      </trkpt>
      <trkpt lat="48.00993" lon="1.90033">
        <ele>135.4</ele>
        <time>2015-09-27T07:46:04Z</time>
      </trkpt>
      <trkpt lat="48.00991" lon="1.90039">
        <ele>135.5</ele>
        <time>2015-09-27T07:46:05Z</time>
      </trkpt>
      <trkpt lat="48.0099" lon="1.90044">
        <ele>135.7</ele>
        <time>2015-09-27T07:46:06Z</time>
      </trkpt>
      <trkpt lat="48.00988" lon="1.90051">
        <ele>135.9</ele>
        <time>2015-09-27T07:46:07Z</time>
      </trkpt>
      <trkpt lat="48.00987" lon="1.90056">
        <ele>136.1</ele>
        <time>2015-09-27T07:46:08Z</time>
      </trkpt>
      <trkpt lat="48.00985" lon="1.90062">
        <ele>136.3</ele>
        <time>2015-09-27T07:46:09Z</time>
      </trkpt>
      <trkpt lat="48.00983" lon="1.90067">
        <ele>136.4</ele>
        <time>2015-09-27T07:46:10Z</time>
      </trkpt>
      <trkpt lat="48.00981" lon="1.90073">
        <ele>136.6</ele>
        <time>2015-09-27T07:46:11Z</time>
      </trkpt>
      <trkpt lat="48.00979" lon="1.90078">
        <ele>136.8</ele>
        <time>2015-09-27T07:46:12Z</time>
      </trkpt>
      <trkpt lat="48.00978" lon="1.90083">
        <ele>137</ele>
        <time>2015-09-27T07:46:13Z</time>
      </trkpt>
      <trkpt lat="48.00976" lon="1.90088">
        <ele>137.2</ele>
        <time>2015-09-27T07:46:14Z</time>
      </trkpt>
      <trkpt lat="48.00974" lon="1.90093">
        <ele>137.4</ele>
        <time>2015-09-27T07:46:15Z</time>
      </trkpt>
      <trkpt lat="48.00972" lon="1.90098">
        <ele>137.6</ele>
        <time>2015-09-27T07:46:16Z</time>
      </trkpt>
      <trkpt lat="48.0097" lon="1.90102">
        <ele>137.8</ele>
        <time>2015-09-27T07:46:17Z</time>
      </trkpt>
      <trkpt lat="48.00968" lon="1.90107">
        <ele>138.1</ele>
        <time>2015-09-27T07:46:18Z</time>
      </trkpt>
      <trkpt lat="48.00966" lon="1.90113">
        <ele>138.3</ele>
        <time>2015-09-27T07:46:19Z</time>
      </trkpt>
      <trkpt lat="48.00964" lon="1.90118">
        <ele>138.6</ele>
        <time>2015-09-27T07:46:20Z</time>
      </trkpt>
      <trkpt lat="48.00961" lon="1.90123">
        <ele>138.8</ele>
        <time>2015-09-27T07:46:21Z</time>
      </trkpt>
      <trkpt lat="48.00959" lon="1.90128">
        <ele>139</ele>
        <time>2015-09-27T07:46:22Z</time>
      </trkpt>
      <trkpt lat="48.00957" lon="1.90133">
        <ele>139.1</ele>
        <time>2015-09-27T07:46:23Z</time>
      </trkpt>
      <trkpt lat="48.00955" lon="1.90139">
        <ele>139.1</ele>
        <time>2015-09-27T07:46:24Z</time>
      </trkpt>
      <trkpt lat="48.00953" lon="1.90145">
        <ele>139.1</ele>
        <time>2015-09-27T07:46:25Z</time>
      </trkpt>
      <trkpt lat="48.00952" lon="1.90151">
        <ele>139.2</ele>
        <time>2015-09-27T07:46:26Z</time>
      </trkpt>
      <trkpt lat="48.00952" lon="1.90158">
        <ele>139.2</ele>
        <time>2015-09-27T07:46:27Z</time>
      </trkpt>
      <trkpt lat="48.00951" lon="1.90164">
        <ele>139.3</ele>
        <time>2015-09-27T07:46:28Z</time>
      </trkpt>
      <trkpt lat="48.00949" lon="1.9017">
        <ele>139.3</ele>
        <time>2015-09-27T07:46:29Z</time>
      </trkpt>
      <trkpt lat="48.00947" lon="1.90175">
        <ele>139.3</ele>
        <time>2015-09-27T07:46:30Z</time>
      </trkpt>
      <trkpt lat="48.00945" lon="1.9018">
        <ele>139.3</ele>
        <time>2015-09-27T07:46:31Z</time>
      </trkpt>
      <trkpt lat="48.00943" lon="1.90184">
        <ele>139.3</ele>
        <time>2015-09-27T07:46:32Z</time>
      </trkpt>
      <trkpt lat="48.00941" lon="1.90189">
        <ele>139.4</ele>
        <time>2015-09-27T07:46:33Z</time>
      </trkpt>
      <trkpt lat="48.00938" lon="1.90194">
        <ele>139.3</ele>
        <time>2015-09-27T07:46:34Z</time>
      </trkpt>
      <trkpt lat="48.00936" lon="1.90198">
        <ele>139.3</ele>
        <time>2015-09-27T07:46:35Z</time>
      </trkpt>
      <trkpt lat="48.00934" lon="1.90203">
        <ele>139.4</ele>
        <time>2015-09-27T07:46:36Z</time>
      </trkpt>
      <trkpt lat="48.00932" lon="1.90209">
        <ele>139.4</ele>
        <time>2015-09-27T07:46:37Z</time>
      </trkpt>
      <trkpt lat="48.0093" lon="1.90215">
        <ele>139.2</ele>
        <time>2015-09-27T07:46:38Z</time>
      </trkpt>
      <trkpt lat="48.00929" lon="1.90222">
        <ele>139.1</ele>
        <time>2015-09-27T07:46:39Z</time>
      </trkpt>
      <trkpt lat="48.00928" lon="1.90228">
        <ele>139</ele>
        <time>2015-09-27T07:46:40Z</time>
      </trkpt>
      <trkpt lat="48.00926" lon="1.90234">
        <ele>138.8</ele>
        <time>2015-09-27T07:46:41Z</time>
      </trkpt>
      <trkpt lat="48.00924" lon="1.90241">
        <ele>138.7</ele>
        <time>2015-09-27T07:46:42Z</time>
      </trkpt>
      <trkpt lat="48.00922" lon="1.90247">
        <ele>138.6</ele>
        <time>2015-09-27T07:46:43Z</time>
      </trkpt>
      <trkpt lat="48.0092" lon="1.90253">
        <ele>138.5</ele>
        <time>2015-09-27T07:46:44Z</time>
      </trkpt>
      <trkpt lat="48.00918" lon="1.90259">
        <ele>138.4</ele>
        <time>2015-09-27T07:46:45Z</time>
      </trkpt>
      <trkpt lat="48.00916" lon="1.90264">
        <ele>138.3</ele>
        <time>2015-09-27T07:46:46Z</time>
      </trkpt>
      <trkpt lat="48.00914" lon="1.90269">
        <ele>138.2</ele>
        <time>2015-09-27T07:46:47Z</time>
      </trkpt>
      <trkpt lat="48.00911" lon="1.90274">
        <ele>138.2</ele>
        <time>2015-09-27T07:46:48Z</time>
      </trkpt>
      <trkpt lat="48.00909" lon="1.9028">
        <ele>138.1</ele>
        <time>2015-09-27T07:46:49Z</time>
      </trkpt>
      <trkpt lat="48.00907" lon="1.90285">
        <ele>138.1</ele>
        <time>2015-09-27T07:46:50Z</time>
      </trkpt>
      <trkpt lat="48.00905" lon="1.9029">
        <ele>138</ele>
        <time>2015-09-27T07:46:51Z</time>
      </trkpt>
      <trkpt lat="48.00904" lon="1.90295">
        <ele>138</ele>
        <time>2015-09-27T07:46:52Z</time>
      </trkpt>
      <trkpt lat="48.00901" lon="1.90301">
        <ele>138</ele>
        <time>2015-09-27T07:46:53Z</time>
      </trkpt>
      <trkpt lat="48.00899" lon="1.90306">
        <ele>138</ele>
        <time>2015-09-27T07:46:54Z</time>
      </trkpt>
      <trkpt lat="48.00897" lon="1.90311">
        <ele>137.9</ele>
        <time>2015-09-27T07:46:55Z</time>
      </trkpt>
      <trkpt lat="48.00896" lon="1.90316">
        <ele>137.9</ele>
        <time>2015-09-27T07:46:56Z</time>
      </trkpt>
      <trkpt lat="48.00894" lon="1.90321">
        <ele>137.9</ele>
        <time>2015-09-27T07:46:57Z</time>
      </trkpt>
      <trkpt lat="48.00892" lon="1.90325">
        <ele>137.9</ele>
        <time>2015-09-27T07:46:58Z</time>
      </trkpt>
      <trkpt lat="48.0089" lon="1.9033">
        <ele>137.9</ele>
        <time>2015-09-27T07:46:59Z</time>
      </trkpt>
      <trkpt lat="48.00889" lon="1.90334">
        <ele>137.9</ele>
        <time>2015-09-27T07:47:00Z</time>
      </trkpt>
      <trkpt lat="48.00887" lon="1.90339">
        <ele>137.9</ele>
        <time>2015-09-27T07:47:01Z</time>
      </trkpt>
      <trkpt lat="48.00885" lon="1.90343">
        <ele>137.9</ele>
        <time>2015-09-27T07:47:02Z</time>
      </trkpt>
      <trkpt lat="48.00883" lon="1.90348">
        <ele>137.9</ele>
        <time>2015-09-27T07:47:03Z</time>
      </trkpt>
      <trkpt lat="48.00882" lon="1.90353">
        <ele>137.9</ele>
        <time>2015-09-27T07:47:04Z</time>
      </trkpt>
      <trkpt lat="48.0088" lon="1.90357">
        <ele>137.9</ele>
        <time>2015-09-27T07:47:05Z</time>
      </trkpt>
      <trkpt lat="48.00879" lon="1.90363">
        <ele>138</ele>
        <time>2015-09-27T07:47:06Z</time>
      </trkpt>
      <trkpt lat="48.00877" lon="1.90368">
        <ele>138</ele>
        <time>2015-09-27T07:47:07Z</time>
      </trkpt>
      <trkpt lat="48.00875" lon="1.90372">
        <ele>138</ele>
        <time>2015-09-27T07:47:08Z</time>
      </trkpt>
      <trkpt lat="48.00873" lon="1.90378">
        <ele>138</ele>
        <time>2015-09-27T07:47:09Z</time>
      </trkpt>
      <trkpt lat="48.00871" lon="1.90384">
        <ele>138</ele>
        <time>2015-09-27T07:47:10Z</time>
      </trkpt>
      <trkpt lat="48.00869" lon="1.9039">
        <ele>138.1</ele>
        <time>2015-09-27T07:47:11Z</time>
      </trkpt>
      <trkpt lat="48.00867" lon="1.90396">
        <ele>138.1</ele>
        <time>2015-09-27T07:47:12Z</time>
      </trkpt>
      <trkpt lat="48.00865" lon="1.90401">
        <ele>138.1</ele>
        <time>2015-09-27T07:47:13Z</time>
      </trkpt>
      <trkpt lat="48.00863" lon="1.90407">
        <ele>138.1</ele>
        <time>2015-09-27T07:47:14Z</time>
      </trkpt>
      <trkpt lat="48.0086" lon="1.90413">
        <ele>138</ele>
        <time>2015-09-27T07:47:15Z</time>
      </trkpt>
      <trkpt lat="48.00858" lon="1.90419">
        <ele>138</ele>
        <time>2015-09-27T07:47:16Z</time>
      </trkpt>
      <trkpt lat="48.00853" lon="1.90425">
        <ele>137.9</ele>
        <time>2015-09-27T07:47:17Z</time>
      </trkpt>
      <trkpt lat="48.0085" lon="1.9043">
        <ele>137.8</ele>
        <time>2015-09-27T07:47:18Z</time>
      </trkpt>
      <trkpt lat="48.00849" lon="1.90434">
        <ele>137.7</ele>
        <time>2015-09-27T07:47:19Z</time>
      </trkpt>
      <trkpt lat="48.00849" lon="1.90441">
        <ele>137.7</ele>
        <time>2015-09-27T07:47:20Z</time>
      </trkpt>
      <trkpt lat="48.00846" lon="1.90451">
        <ele>137.6</ele>
        <time>2015-09-27T07:47:21Z</time>
      </trkpt>
      <trkpt lat="48.00843" lon="1.90459">
        <ele>137.5</ele>
        <time>2015-09-27T07:47:22Z</time>
      </trkpt>
      <trkpt lat="48.00841" lon="1.90464">
        <ele>137.3</ele>
        <time>2015-09-27T07:47:23Z</time>
      </trkpt>
      <trkpt lat="48.00839" lon="1.90468">
        <ele>137.1</ele>
        <time>2015-09-27T07:47:24Z</time>
      </trkpt>
      <trkpt lat="48.00838" lon="1.90477">
        <ele>136.9</ele>
        <time>2015-09-27T07:47:25Z</time>
      </trkpt>
      <trkpt lat="48.00834" lon="1.90484">
        <ele>136.7</ele>
        <time>2015-09-27T07:47:26Z</time>
      </trkpt>
      <trkpt lat="48.00831" lon="1.90493">
        <ele>136.5</ele>
        <time>2015-09-27T07:47:27Z</time>
      </trkpt>
      <trkpt lat="48.00825" lon="1.90498">
        <ele>136.2</ele>
        <time>2015-09-27T07:47:28Z</time>
      </trkpt>
      <trkpt lat="48.00822" lon="1.90506">
        <ele>136</ele>
        <time>2015-09-27T07:47:29Z</time>
      </trkpt>
      <trkpt lat="48.00821" lon="1.90519">
        <ele>135.9</ele>
        <time>2015-09-27T07:47:30Z</time>
      </trkpt>
      <trkpt lat="48.00822" lon="1.90531">
        <ele>135.8</ele>
        <time>2015-09-27T07:47:31Z</time>
      </trkpt>
      <trkpt lat="48.0082" lon="1.90537">
        <ele>135.7</ele>
        <time>2015-09-27T07:47:32Z</time>
      </trkpt>
      <trkpt lat="48.00818" lon="1.90544">
        <ele>135.6</ele>
        <time>2015-09-27T07:47:33Z</time>
      </trkpt>
      <trkpt lat="48.00817" lon="1.90552">
        <ele>135.6</ele>
        <time>2015-09-27T07:47:34Z</time>
      </trkpt>
      <trkpt lat="48.00813" lon="1.90559">
        <ele>135.6</ele>
        <time>2015-09-27T07:47:35Z</time>
      </trkpt>
      <trkpt lat="48.00812" lon="1.90569">
        <ele>135.7</ele>
        <time>2015-09-27T07:47:36Z</time>
      </trkpt>
      <trkpt lat="48.00808" lon="1.90578">
        <ele>135.7</ele>
        <time>2015-09-27T07:47:37Z</time>
      </trkpt>
      <trkpt lat="48.00802" lon="1.90587">
        <ele>135.6</ele>
        <time>2015-09-27T07:47:38Z</time>
      </trkpt>
      <trkpt lat="48.00798" lon="1.90595">
        <ele>135.7</ele>
        <time>2015-09-27T07:47:39Z</time>
      </trkpt>
      <trkpt lat="48.00794" lon="1.90601">
        <ele>135.7</ele>
        <time>2015-09-27T07:47:40Z</time>
      </trkpt>
      <trkpt lat="48.00792" lon="1.90611">
        <ele>135.8</ele>
        <time>2015-09-27T07:47:41Z</time>
      </trkpt>
      <trkpt lat="48.00788" lon="1.9062">
        <ele>135.8</ele>
        <time>2015-09-27T07:47:42Z</time>
      </trkpt>
      <trkpt lat="48.00782" lon="1.9063">
        <ele>135.7</ele>
        <time>2015-09-27T07:47:43Z</time>
      </trkpt>
      <trkpt lat="48.0078" lon="1.90638">
        <ele>135.6</ele>
        <time>2015-09-27T07:47:44Z</time>
      </trkpt>
      <trkpt lat="48.00777" lon="1.90645">
        <ele>135.5</ele>
        <time>2015-09-27T07:47:45Z</time>
      </trkpt>
      <trkpt lat="48.00772" lon="1.90654">
        <ele>135.3</ele>
        <time>2015-09-27T07:47:46Z</time>
      </trkpt>
      <trkpt lat="48.00768" lon="1.9066">
        <ele>135.1</ele>
        <time>2015-09-27T07:47:47Z</time>
      </trkpt>
      <trkpt lat="48.00766" lon="1.90668">
        <ele>135</ele>
        <time>2015-09-27T07:47:48Z</time>
      </trkpt>
      <trkpt lat="48.00765" lon="1.90677">
        <ele>134.9</ele>
        <time>2015-09-27T07:47:49Z</time>
      </trkpt>
      <trkpt lat="48.00758" lon="1.90684">
        <ele>134.8</ele>
        <time>2015-09-27T07:47:50Z</time>
      </trkpt>
      <trkpt lat="48.00757" lon="1.90693">
        <ele>134.7</ele>
        <time>2015-09-27T07:47:51Z</time>
      </trkpt>
      <trkpt lat="48.00755" lon="1.90703">
        <ele>134.6</ele>
        <time>2015-09-27T07:47:52Z</time>
      </trkpt>
      <trkpt lat="48.00753" lon="1.90712">
        <ele>134.6</ele>
        <time>2015-09-27T07:47:53Z</time>
      </trkpt>
      <trkpt lat="48.00751" lon="1.9072">
        <ele>134.6</ele>
        <time>2015-09-27T07:47:54Z</time>
      </trkpt>
      <trkpt lat="48.00749" lon="1.90727">
        <ele>134.6</ele>
        <time>2015-09-27T07:47:55Z</time>
      </trkpt>
      <trkpt lat="48.00746" lon="1.90736">
        <ele>134.6</ele>
        <time>2015-09-27T07:47:56Z</time>
      </trkpt>
      <trkpt lat="48.00742" lon="1.90744">
        <ele>134.7</ele>
        <time>2015-09-27T07:47:57Z</time>
      </trkpt>
      <trkpt lat="48.00733" lon="1.90751">
        <ele>134.7</ele>
        <time>2015-09-27T07:47:58Z</time>
      </trkpt>
      <trkpt lat="48.00732" lon="1.90763">
        <ele>134.8</ele>
        <time>2015-09-27T07:47:59Z</time>
      </trkpt>
      <trkpt lat="48.0073" lon="1.9077">
        <ele>134.8</ele>
        <time>2015-09-27T07:48:00Z</time>
      </trkpt>
      <trkpt lat="48.00725" lon="1.9078">
        <ele>134.9</ele>
        <time>2015-09-27T07:48:01Z</time>
      </trkpt>
      <trkpt lat="48.00725" lon="1.9079">
        <ele>135</ele>
        <time>2015-09-27T07:48:02Z</time>
      </trkpt>
      <trkpt lat="48.00717" lon="1.90799">
        <ele>135</ele>
        <time>2015-09-27T07:48:03Z</time>
      </trkpt>
      <trkpt lat="48.00715" lon="1.90809">
        <ele>135</ele>
        <time>2015-09-27T07:48:04Z</time>
      </trkpt>
      <trkpt lat="48.00714" lon="1.90819">
        <ele>135</ele>
        <time>2015-09-27T07:48:05Z</time>
      </trkpt>
      <trkpt lat="48.00711" lon="1.90827">
        <ele>135</ele>
        <time>2015-09-27T07:48:06Z</time>
      </trkpt>
      <trkpt lat="48.00706" lon="1.90836">
        <ele>134.9</ele>
        <time>2015-09-27T07:48:07Z</time>
      </trkpt>
      <trkpt lat="48.00704" lon="1.90843">
        <ele>134.9</ele>
        <time>2015-09-27T07:48:08Z</time>
      </trkpt>
      <trkpt lat="48.00702" lon="1.90853">
        <ele>134.8</ele>
        <time>2015-09-27T07:48:09Z</time>
      </trkpt>
      <trkpt lat="48.00698" lon="1.90863">
        <ele>134.6</ele>
        <time>2015-09-27T07:48:10Z</time>
      </trkpt>
      <trkpt lat="48.00696" lon="1.90871">
        <ele>134.6</ele>
        <time>2015-09-27T07:48:11Z</time>
      </trkpt>
      <trkpt lat="48.00696" lon="1.90879">
        <ele>134.5</ele>
        <time>2015-09-27T07:48:12Z</time>
      </trkpt>
      <trkpt lat="48.00693" lon="1.90888">
        <ele>134.3</ele>
        <time>2015-09-27T07:48:13Z</time>
      </trkpt>
      <trkpt lat="48.00689" lon="1.90897">
        <ele>134.2</ele>
        <time>2015-09-27T07:48:14Z</time>
      </trkpt>
      <trkpt lat="48.00686" lon="1.90905">
        <ele>134</ele>
        <time>2015-09-27T07:48:15Z</time>
      </trkpt>
      <trkpt lat="48.00683" lon="1.90917">
        <ele>133.9</ele>
        <time>2015-09-27T07:48:16Z</time>
      </trkpt>
      <trkpt lat="48.00679" lon="1.90925">
        <ele>133.8</ele>
        <time>2015-09-27T07:48:17Z</time>
      </trkpt>
      <trkpt lat="48.00675" lon="1.90934">
        <ele>133.7</ele>
        <time>2015-09-27T07:48:18Z</time>
      </trkpt>
      <trkpt lat="48.00678" lon="1.90949">
        <ele>133.7</ele>
        <time>2015-09-27T07:48:19Z</time>
      </trkpt>
      <trkpt lat="48.00673" lon="1.90956">
        <ele>133.6</ele>
        <time>2015-09-27T07:48:20Z</time>
      </trkpt>
      <trkpt lat="48.00667" lon="1.90962">
        <ele>133.4</ele>
        <time>2015-09-27T07:48:21Z</time>
      </trkpt>
      <trkpt lat="48.00658" lon="1.90967">
        <ele>133.2</ele>
        <time>2015-09-27T07:48:22Z</time>
      </trkpt>
      <trkpt lat="48.0066" lon="1.90976">
        <ele>133.1</ele>
        <time>2015-09-27T07:48:23Z</time>
      </trkpt>
      <trkpt lat="48.00655" lon="1.90983">
        <ele>133</ele>
        <time>2015-09-27T07:48:24Z</time>
      </trkpt>
      <trkpt lat="48.00652" lon="1.90989">
        <ele>132.8</ele>
        <time>2015-09-27T07:48:25Z</time>
      </trkpt>
      <trkpt lat="48.00653" lon="1.90999">
        <ele>132.7</ele>
        <time>2015-09-27T07:48:26Z</time>
      </trkpt>
      <trkpt lat="48.00649" lon="1.91006">
        <ele>132.6</ele>
        <time>2015-09-27T07:48:27Z</time>
      </trkpt>
      <trkpt lat="48.00648" lon="1.91014">
        <ele>132.4</ele>
        <time>2015-09-27T07:48:28Z</time>
      </trkpt>
      <trkpt lat="48.00645" lon="1.91024">
        <ele>132.3</ele>
        <time>2015-09-27T07:48:29Z</time>
      </trkpt>
      <trkpt lat="48.00646" lon="1.91034">
        <ele>132.1</ele>
        <time>2015-09-27T07:48:30Z</time>
      </trkpt>
      <trkpt lat="48.00642" lon="1.9104">
        <ele>132</ele>
        <time>2015-09-27T07:48:31Z</time>
      </trkpt>
      <trkpt lat="48.00644" lon="1.9105">
        <ele>132.1</ele>
        <time>2015-09-27T07:48:32Z</time>
      </trkpt>
      <trkpt lat="48.00653" lon="1.91073">
        <ele>132.4</ele>
        <time>2015-09-27T07:48:34Z</time>
      </trkpt>
      <trkpt lat="48.00647" lon="1.9108">
        <ele>132.5</ele>
        <time>2015-09-27T07:48:35Z</time>
      </trkpt>
      <trkpt lat="48.00636" lon="1.91087">
        <ele>132.5</ele>
        <time>2015-09-27T07:48:36Z</time>
      </trkpt>
      <trkpt lat="48.00633" lon="1.91094">
        <ele>132.6</ele>
        <time>2015-09-27T07:48:37Z</time>
      </trkpt>
      <trkpt lat="48.00627" lon="1.91099">
        <ele>132.7</ele>
        <time>2015-09-27T07:48:38Z</time>
      </trkpt>
      <trkpt lat="48.00623" lon="1.91106">
        <ele>132.8</ele>
        <time>2015-09-27T07:48:39Z</time>
      </trkpt>
      <trkpt lat="48.00621" lon="1.91111">
        <ele>132.9</ele>
        <time>2015-09-27T07:48:40Z</time>
      </trkpt>
      <trkpt lat="48.00615" lon="1.9112">
        <ele>133</ele>
        <time>2015-09-27T07:48:41Z</time>
      </trkpt>
      <trkpt lat="48.00611" lon="1.91124">
        <ele>133</ele>
        <time>2015-09-27T07:48:42Z</time>
      </trkpt>
      <trkpt lat="48.00609" lon="1.91128">
        <ele>133</ele>
        <time>2015-09-27T07:48:43Z</time>
      </trkpt>
      <trkpt lat="48.00606" lon="1.91136">
        <ele>133</ele>
        <time>2015-09-27T07:48:44Z</time>
      </trkpt>
      <trkpt lat="48.00604" lon="1.91143">
        <ele>133</ele>
        <time>2015-09-27T07:48:45Z</time>
      </trkpt>
      <trkpt lat="48.00599" lon="1.9115">
        <ele>133</ele>
        <time>2015-09-27T07:48:46Z</time>
      </trkpt>
      <trkpt lat="48.00594" lon="1.91156">
        <ele>133</ele>
        <time>2015-09-27T07:48:48Z</time>
      </trkpt>
      <trkpt lat="48.0059" lon="1.9117">
        <ele>133</ele>
        <time>2015-09-27T07:48:49Z</time>
      </trkpt>
      <trkpt lat="48.00592" lon="1.91178">
        <ele>133</ele>
        <time>2015-09-27T07:48:50Z</time>
      </trkpt>
      <trkpt lat="48.0059" lon="1.91184">
        <ele>133</ele>
        <time>2015-09-27T07:48:51Z</time>
      </trkpt>
      <trkpt lat="48.0059" lon="1.91192">
        <ele>133</ele>
        <time>2015-09-27T07:48:52Z</time>
      </trkpt>
      <trkpt lat="48.00587" lon="1.912">
        <ele>133</ele>
        <time>2015-09-27T07:48:53Z</time>
      </trkpt>
      <trkpt lat="48.00585" lon="1.91208">
        <ele>133</ele>
        <time>2015-09-27T07:48:54Z</time>
      </trkpt>
      <trkpt lat="48.00584" lon="1.91214">
        <ele>133</ele>
        <time>2015-09-27T07:48:55Z</time>
      </trkpt>
      <trkpt lat="48.00582" lon="1.9122">
        <ele>132.9</ele>
        <time>2015-09-27T07:48:56Z</time>
      </trkpt>
      <trkpt lat="48.00581" lon="1.91225">
        <ele>132.9</ele>
        <time>2015-09-27T07:48:57Z</time>
      </trkpt>
      <trkpt lat="48.00579" lon="1.9123">
        <ele>132.9</ele>
        <time>2015-09-27T07:48:58Z</time>
      </trkpt>
      <trkpt lat="48.00576" lon="1.91233">
        <ele>132.9</ele>
        <time>2015-09-27T07:48:59Z</time>
      </trkpt>
      <trkpt lat="48.00574" lon="1.91235">
        <ele>132.9</ele>
        <time>2015-09-27T07:49:00Z</time>
      </trkpt>
      <trkpt lat="48.00569" lon="1.91236">
        <ele>132.9</ele>
        <time>2015-09-27T07:49:02Z</time>
      </trkpt>
      <trkpt lat="48.00566" lon="1.91236">
        <ele>132.9</ele>
        <time>2015-09-27T07:49:03Z</time>
      </trkpt>
      <trkpt lat="48.00563" lon="1.91236">
        <ele>132.9</ele>
        <time>2015-09-27T07:49:04Z</time>
      </trkpt>
      <trkpt lat="48.00559" lon="1.91236">
        <ele>132.9</ele>
        <time>2015-09-27T07:49:05Z</time>
      </trkpt>
      <trkpt lat="48.00554" lon="1.91235">
        <ele>133</ele>
        <time>2015-09-27T07:49:07Z</time>
      </trkpt>
      <trkpt lat="48.00551" lon="1.91234">
        <ele>133</ele>
        <time>2015-09-27T07:49:08Z</time>
      </trkpt>
      <trkpt lat="48.00548" lon="1.91232">
        <ele>133</ele>
        <time>2015-09-27T07:49:09Z</time>
      </trkpt>
      <trkpt lat="48.00545" lon="1.9123">
        <ele>133</ele>
        <time>2015-09-27T07:49:10Z</time>
      </trkpt>
      <trkpt lat="48.00541" lon="1.91227">
        <ele>133</ele>
        <time>2015-09-27T07:49:11Z</time>
      </trkpt>
      <trkpt lat="48.00538" lon="1.91225">
        <ele>133</ele>
        <time>2015-09-27T07:49:12Z</time>
      </trkpt>
      <trkpt lat="48.00534" lon="1.91222">
        <ele>132.9</ele>
        <time>2015-09-27T07:49:13Z</time>
      </trkpt>
      <trkpt lat="48.0053" lon="1.91219">
        <ele>132.9</ele>
        <time>2015-09-27T07:49:14Z</time>
      </trkpt>
      <trkpt lat="48.00526" lon="1.91217">
        <ele>132.8</ele>
        <time>2015-09-27T07:49:15Z</time>
      </trkpt>
      <trkpt lat="48.00522" lon="1.91214">
        <ele>132.8</ele>
        <time>2015-09-27T07:49:16Z</time>
      </trkpt>
      <trkpt lat="48.00516" lon="1.91211">
        <ele>132.7</ele>
        <time>2015-09-27T07:49:17Z</time>
      </trkpt>
      <trkpt lat="48.00512" lon="1.91209">
        <ele>132.6</ele>
        <time>2015-09-27T07:49:18Z</time>
      </trkpt>
      <trkpt lat="48.00507" lon="1.91208">
        <ele>132.6</ele>
        <time>2015-09-27T07:49:19Z</time>
      </trkpt>
      <trkpt lat="48.00502" lon="1.91206">
        <ele>132.5</ele>
        <time>2015-09-27T07:49:20Z</time>
      </trkpt>
      <trkpt lat="48.00497" lon="1.91204">
        <ele>132.5</ele>
        <time>2015-09-27T07:49:21Z</time>
      </trkpt>
      <trkpt lat="48.00493" lon="1.91202">
        <ele>132.5</ele>
        <time>2015-09-27T07:49:22Z</time>
      </trkpt>
      <trkpt lat="48.00488" lon="1.912">
        <ele>132.4</ele>
        <time>2015-09-27T07:49:23Z</time>
      </trkpt>
      <trkpt lat="48.00483" lon="1.91198">
        <ele>132.4</ele>
        <time>2015-09-27T07:49:24Z</time>
      </trkpt>
      <trkpt lat="48.00478" lon="1.91196">
        <ele>132.3</ele>
        <time>2015-09-27T07:49:25Z</time>
      </trkpt>
      <trkpt lat="48.00473" lon="1.91192">
        <ele>132.3</ele>
        <time>2015-09-27T07:49:26Z</time>
      </trkpt>
      <trkpt lat="48.00468" lon="1.9119">
        <ele>132.3</ele>
        <time>2015-09-27T07:49:27Z</time>
      </trkpt>
      <trkpt lat="48.00463" lon="1.91187">
        <ele>132.3</ele>
        <time>2015-09-27T07:49:28Z</time>
      </trkpt>
      <trkpt lat="48.00455" lon="1.91185">
        <ele>132.2</ele>
        <time>2015-09-27T07:49:29Z</time>
      </trkpt>
      <trkpt lat="48.0045" lon="1.91181">
        <ele>132.2</ele>
        <time>2015-09-27T07:49:30Z</time>
      </trkpt>
      <trkpt lat="48.00444" lon="1.91178">
        <ele>132.1</ele>
        <time>2015-09-27T07:49:31Z</time>
      </trkpt>
      <trkpt lat="48.00439" lon="1.91176">
        <ele>132.1</ele>
        <time>2015-09-27T07:49:32Z</time>
      </trkpt>
      <trkpt lat="48.00433" lon="1.91173">
        <ele>132.1</ele>
        <time>2015-09-27T07:49:33Z</time>
      </trkpt>
      <trkpt lat="48.00428" lon="1.91171">
        <ele>132</ele>
        <time>2015-09-27T07:49:34Z</time>
      </trkpt>
      <trkpt lat="48.00422" lon="1.91168">
        <ele>132</ele>
        <time>2015-09-27T07:49:35Z</time>
      </trkpt>
      <trkpt lat="48.00417" lon="1.91167">
        <ele>132</ele>
        <time>2015-09-27T07:49:36Z</time>
      </trkpt>
      <trkpt lat="48.00412" lon="1.91165">
        <ele>132</ele>
        <time>2015-09-27T07:49:37Z</time>
      </trkpt>
      <trkpt lat="48.00408" lon="1.91159">
        <ele>132.1</ele>
        <time>2015-09-27T07:49:38Z</time>
      </trkpt>
      <trkpt lat="48.00402" lon="1.91157">
        <ele>132.1</ele>
        <time>2015-09-27T07:49:39Z</time>
      </trkpt>
      <trkpt lat="48.00398" lon="1.91153">
        <ele>132.2</ele>
        <time>2015-09-27T07:49:40Z</time>
      </trkpt>
      <trkpt lat="48.00393" lon="1.91154">
        <ele>132.1</ele>
        <time>2015-09-27T07:49:41Z</time>
      </trkpt>
      <trkpt lat="48.00384" lon="1.91156">
        <ele>132</ele>
        <time>2015-09-27T07:49:42Z</time>
      </trkpt>
      <trkpt lat="48.00378" lon="1.91157">
        <ele>131.9</ele>
        <time>2015-09-27T07:49:43Z</time>
      </trkpt>
      <trkpt lat="48.0037" lon="1.91159">
        <ele>131.9</ele>
        <time>2015-09-27T07:49:44Z</time>
      </trkpt>
      <trkpt lat="48.00367" lon="1.91158">
        <ele>132</ele>
        <time>2015-09-27T07:49:45Z</time>
      </trkpt>
      <trkpt lat="48.0036" lon="1.91158">
        <ele>132.2</ele>
        <time>2015-09-27T07:49:46Z</time>
      </trkpt>
      <trkpt lat="48.00354" lon="1.9116">
        <ele>132.3</ele>
        <time>2015-09-27T07:49:47Z</time>
      </trkpt>
      <trkpt lat="48.0035" lon="1.91161">
        <ele>132.4</ele>
        <time>2015-09-27T07:49:48Z</time>
      </trkpt>
      <trkpt lat="48.00346" lon="1.91163">
        <ele>132.5</ele>
        <time>2015-09-27T07:49:49Z</time>
      </trkpt>
      <trkpt lat="48.00342" lon="1.91166">
        <ele>132.5</ele>
        <time>2015-09-27T07:49:50Z</time>
      </trkpt>
      <trkpt lat="48.00337" lon="1.91164">
        <ele>132.7</ele>
        <time>2015-09-27T07:49:51Z</time>
      </trkpt>
      <trkpt lat="48.00334" lon="1.91161">
        <ele>132.8</ele>
        <time>2015-09-27T07:49:52Z</time>
      </trkpt>
      <trkpt lat="48.00329" lon="1.91157">
        <ele>133</ele>
        <time>2015-09-27T07:49:53Z</time>
      </trkpt>
      <trkpt lat="48.00325" lon="1.91152">
        <ele>133.2</ele>
        <time>2015-09-27T07:49:54Z</time>
      </trkpt>
      <trkpt lat="48.00321" lon="1.91147">
        <ele>133.4</ele>
        <time>2015-09-27T07:49:55Z</time>
      </trkpt>
      <trkpt lat="48.00318" lon="1.91141">
        <ele>133.5</ele>
        <time>2015-09-27T07:49:56Z</time>
      </trkpt>
      <trkpt lat="48.00315" lon="1.91134">
        <ele>133.6</ele>
        <time>2015-09-27T07:49:57Z</time>
      </trkpt>
      <trkpt lat="48.00312" lon="1.91128">
        <ele>133.7</ele>
        <time>2015-09-27T07:49:58Z</time>
      </trkpt>
      <trkpt lat="48.00307" lon="1.91125">
        <ele>133.8</ele>
        <time>2015-09-27T07:49:59Z</time>
      </trkpt>
      <trkpt lat="48.00301" lon="1.91122">
        <ele>133.9</ele>
        <time>2015-09-27T07:50:00Z</time>
      </trkpt>
      <trkpt lat="48.00296" lon="1.91118">
        <ele>134</ele>
        <time>2015-09-27T07:50:01Z</time>
      </trkpt>
      <trkpt lat="48.00294" lon="1.9111">
        <ele>134</ele>
        <time>2015-09-27T07:50:02Z</time>
      </trkpt>
      <trkpt lat="48.00291" lon="1.91106">
        <ele>134</ele>
        <time>2015-09-27T07:50:03Z</time>
      </trkpt>
      <trkpt lat="48.00285" lon="1.91101">
        <ele>134.1</ele>
        <time>2015-09-27T07:50:04Z</time>
      </trkpt>
      <trkpt lat="48.00284" lon="1.91094">
        <ele>134.1</ele>
        <time>2015-09-27T07:50:05Z</time>
      </trkpt>
      <trkpt lat="48.00279" lon="1.91088">
        <ele>134.2</ele>
        <time>2015-09-27T07:50:06Z</time>
      </trkpt>
      <trkpt lat="48.00275" lon="1.91083">
        <ele>134.3</ele>
        <time>2015-09-27T07:50:07Z</time>
      </trkpt>
      <trkpt lat="48.00271" lon="1.91078">
        <ele>134.4</ele>
        <time>2015-09-27T07:50:08Z</time>
      </trkpt>
      <trkpt lat="48.00271" lon="1.91072">
        <ele>134.4</ele>
        <time>2015-09-27T07:50:09Z</time>
      </trkpt>
      <trkpt lat="48.00265" lon="1.91072">
        <ele>134.5</ele>
        <time>2015-09-27T07:50:10Z</time>
      </trkpt>
      <trkpt lat="48.00263" lon="1.91063">
        <ele>134.6</ele>
        <time>2015-09-27T07:50:11Z</time>
      </trkpt>
      <trkpt lat="48.00256" lon="1.91061">
        <ele>134.8</ele>
        <time>2015-09-27T07:50:12Z</time>
      </trkpt>
      <trkpt lat="48.00253" lon="1.91057">
        <ele>134.8</ele>
        <time>2015-09-27T07:50:13Z</time>
      </trkpt>
      <trkpt lat="48.00252" lon="1.9105">
        <ele>134.9</ele>
        <time>2015-09-27T07:50:14Z</time>
      </trkpt>
      <trkpt lat="48.00247" lon="1.91044">
        <ele>135.1</ele>
        <time>2015-09-27T07:50:15Z</time>
      </trkpt>
      <trkpt lat="48.00242" lon="1.91038">
        <ele>135.2</ele>
        <time>2015-09-27T07:50:16Z</time>
      </trkpt>
      <trkpt lat="48.00234" lon="1.91035">
        <ele>135.4</ele>
        <time>2015-09-27T07:50:17Z</time>
      </trkpt>
      <trkpt lat="48.00232" lon="1.91028">
        <ele>135.5</ele>
        <time>2015-09-27T07:50:18Z</time>
      </trkpt>
      <trkpt lat="48.00231" lon="1.9102">
        <ele>135.5</ele>
        <time>2015-09-27T07:50:19Z</time>
      </trkpt>
      <trkpt lat="48.00229" lon="1.91013">
        <ele>135.6</ele>
        <time>2015-09-27T07:50:20Z</time>
      </trkpt>
      <trkpt lat="48.00225" lon="1.91012">
        <ele>135.7</ele>
        <time>2015-09-27T07:50:21Z</time>
      </trkpt>
      <trkpt lat="48.00221" lon="1.91007">
        <ele>135.8</ele>
        <time>2015-09-27T07:50:22Z</time>
      </trkpt>
      <trkpt lat="48.00217" lon="1.91003">
        <ele>135.8</ele>
        <time>2015-09-27T07:50:23Z</time>
      </trkpt>
      <trkpt lat="48.00214" lon="1.90996">
        <ele>135.9</ele>
        <time>2015-09-27T07:50:24Z</time>
      </trkpt>
      <trkpt lat="48.00211" lon="1.90986">
        <ele>136</ele>
        <time>2015-09-27T07:50:25Z</time>
      </trkpt>
      <trkpt lat="48.00203" lon="1.90989">
        <ele>136</ele>
        <time>2015-09-27T07:50:26Z</time>
      </trkpt>
      <trkpt lat="48.00204" lon="1.90982">
        <ele>136</ele>
        <time>2015-09-27T07:50:27Z</time>
      </trkpt>
      <trkpt lat="48.002" lon="1.90977">
        <ele>135.9</ele>
        <time>2015-09-27T07:50:28Z</time>
      </trkpt>
      <trkpt lat="48.00198" lon="1.90971">
        <ele>135.9</ele>
        <time>2015-09-27T07:50:29Z</time>
      </trkpt>
      <trkpt lat="48.00195" lon="1.90968">
        <ele>135.9</ele>
        <time>2015-09-27T07:50:30Z</time>
      </trkpt>
      <trkpt lat="48.00189" lon="1.90964">
        <ele>135.8</ele>
        <time>2015-09-27T07:50:31Z</time>
      </trkpt>
      <trkpt lat="48.00183" lon="1.90959">
        <ele>135.7</ele>
        <time>2015-09-27T07:50:32Z</time>
      </trkpt>
      <trkpt lat="48.00179" lon="1.90958">
        <ele>135.6</ele>
        <time>2015-09-27T07:50:33Z</time>
      </trkpt>
      <trkpt lat="48.00175" lon="1.90956">
        <ele>135.5</ele>
        <time>2015-09-27T07:50:34Z</time>
      </trkpt>
      <trkpt lat="48.0017" lon="1.90953">
        <ele>135.4</ele>
        <time>2015-09-27T07:50:35Z</time>
      </trkpt>
      <trkpt lat="48.00165" lon="1.90951">
        <ele>135.3</ele>
        <time>2015-09-27T07:50:36Z</time>
      </trkpt>
      <trkpt lat="48.0016" lon="1.9095">
        <ele>135.2</ele>
        <time>2015-09-27T07:50:37Z</time>
      </trkpt>
      <trkpt lat="48.00156" lon="1.90947">
        <ele>135.1</ele>
        <time>2015-09-27T07:50:38Z</time>
      </trkpt>
      <trkpt lat="48.00152" lon="1.90941">
        <ele>135</ele>
        <time>2015-09-27T07:50:39Z</time>
      </trkpt>
      <trkpt lat="48.00148" lon="1.90935">
        <ele>134.9</ele>
        <time>2015-09-27T07:50:40Z</time>
      </trkpt>
      <trkpt lat="48.00146" lon="1.90927">
        <ele>134.7</ele>
        <time>2015-09-27T07:50:41Z</time>
      </trkpt>
      <trkpt lat="48.00142" lon="1.90921">
        <ele>134.6</ele>
        <time>2015-09-27T07:50:42Z</time>
      </trkpt>
      <trkpt lat="48.00139" lon="1.90913">
        <ele>134.4</ele>
        <time>2015-09-27T07:50:43Z</time>
      </trkpt>
      <trkpt lat="48.00136" lon="1.90905">
        <ele>134.3</ele>
        <time>2015-09-27T07:50:44Z</time>
      </trkpt>
      <trkpt lat="48.00134" lon="1.90896">
        <ele>134.2</ele>
        <time>2015-09-27T07:50:45Z</time>
      </trkpt>
      <trkpt lat="48.00133" lon="1.90888">
        <ele>134.1</ele>
        <time>2015-09-27T07:50:46Z</time>
      </trkpt>
      <trkpt lat="48.00131" lon="1.90881">
        <ele>134</ele>
        <time>2015-09-27T07:50:47Z</time>
      </trkpt>
      <trkpt lat="48.0013" lon="1.90874">
        <ele>134</ele>
        <time>2015-09-27T07:50:48Z</time>
      </trkpt>
      <trkpt lat="48.00128" lon="1.90867">
        <ele>134.1</ele>
        <time>2015-09-27T07:50:49Z</time>
      </trkpt>
      <trkpt lat="48.00126" lon="1.9086">
        <ele>134.2</ele>
        <time>2015-09-27T07:50:50Z</time>
      </trkpt>
      <trkpt lat="48.00123" lon="1.90855">
        <ele>134.3</ele>
        <time>2015-09-27T07:50:51Z</time>
      </trkpt>
      <trkpt lat="48.00121" lon="1.90851">
        <ele>134.3</ele>
        <time>2015-09-27T07:50:52Z</time>
      </trkpt>
      <trkpt lat="48.00119" lon="1.90846">
        <ele>134.4</ele>
        <time>2015-09-27T07:50:53Z</time>
      </trkpt>
      <trkpt lat="48.00115" lon="1.90842">
        <ele>134.5</ele>
        <time>2015-09-27T07:50:54Z</time>
      </trkpt>
      <trkpt lat="48.00111" lon="1.90837">
        <ele>134.5</ele>
        <time>2015-09-27T07:50:55Z</time>
      </trkpt>
      <trkpt lat="48.00108" lon="1.9083">
        <ele>134.6</ele>
        <time>2015-09-27T07:50:56Z</time>
      </trkpt>
      <trkpt lat="48.00105" lon="1.90822">
        <ele>134.7</ele>
        <time>2015-09-27T07:50:57Z</time>
      </trkpt>
      <trkpt lat="48.00102" lon="1.90813">
        <ele>134.8</ele>
        <time>2015-09-27T07:50:58Z</time>
      </trkpt>
      <trkpt lat="48.001" lon="1.90805">
        <ele>134.9</ele>
        <time>2015-09-27T07:50:59Z</time>
      </trkpt>
      <trkpt lat="48.00097" lon="1.90797">
        <ele>135</ele>
        <time>2015-09-27T07:51:00Z</time>
      </trkpt>
      <trkpt lat="48.00095" lon="1.9079">
        <ele>135</ele>
        <time>2015-09-27T07:51:01Z</time>
      </trkpt>
      <trkpt lat="48.00091" lon="1.90783">
        <ele>135.1</ele>
        <time>2015-09-27T07:51:02Z</time>
      </trkpt>
      <trkpt lat="48.00088" lon="1.90776">
        <ele>135.1</ele>
        <time>2015-09-27T07:51:03Z</time>
      </trkpt>
      <trkpt lat="48.00085" lon="1.9077">
        <ele>135.1</ele>
        <time>2015-09-27T07:51:04Z</time>
      </trkpt>
      <trkpt lat="48.00082" lon="1.90765">
        <ele>135.2</ele>
        <time>2015-09-27T07:51:05Z</time>
      </trkpt>
      <trkpt lat="48.00079" lon="1.90761">
        <ele>135.2</ele>
        <time>2015-09-27T07:51:06Z</time>
      </trkpt>
      <trkpt lat="48.00076" lon="1.90755">
        <ele>135.2</ele>
        <time>2015-09-27T07:51:07Z</time>
      </trkpt>
      <trkpt lat="48.00074" lon="1.9075">
        <ele>135.2</ele>
        <time>2015-09-27T07:51:08Z</time>
      </trkpt>
      <trkpt lat="48.00071" lon="1.90745">
        <ele>135.2</ele>
        <time>2015-09-27T07:51:09Z</time>
      </trkpt>
      <trkpt lat="48.00068" lon="1.90739">
        <ele>135.2</ele>
        <time>2015-09-27T07:51:10Z</time>
      </trkpt>
      <trkpt lat="48.00066" lon="1.90733">
        <ele>135.2</ele>
        <time>2015-09-27T07:51:11Z</time>
      </trkpt>
      <trkpt lat="48.00063" lon="1.90728">
        <ele>135.2</ele>
        <time>2015-09-27T07:51:12Z</time>
      </trkpt>
      <trkpt lat="48.0006" lon="1.90722">
        <ele>135.2</ele>
        <time>2015-09-27T07:51:13Z</time>
      </trkpt>
      <trkpt lat="48.00057" lon="1.90717">
        <ele>135.2</ele>
        <time>2015-09-27T07:51:14Z</time>
      </trkpt>
      <trkpt lat="48.00055" lon="1.90711">
        <ele>135.2</ele>
        <time>2015-09-27T07:51:15Z</time>
      </trkpt>
      <trkpt lat="48.00052" lon="1.90705">
        <ele>135.1</ele>
        <time>2015-09-27T07:51:16Z</time>
      </trkpt>
      <trkpt lat="48.00048" lon="1.907">
        <ele>135.1</ele>
        <time>2015-09-27T07:51:17Z</time>
      </trkpt>
      <trkpt lat="48.00045" lon="1.90694">
        <ele>135</ele>
        <time>2015-09-27T07:51:18Z</time>
      </trkpt>
      <trkpt lat="48.00042" lon="1.90689">
        <ele>135</ele>
        <time>2015-09-27T07:51:19Z</time>
      </trkpt>
      <trkpt lat="48.00039" lon="1.90683">
        <ele>134.9</ele>
        <time>2015-09-27T07:51:20Z</time>
      </trkpt>
      <trkpt lat="48.00035" lon="1.90677">
        <ele>134.8</ele>
        <time>2015-09-27T07:51:21Z</time>
      </trkpt>
      <trkpt lat="48.00032" lon="1.90671">
        <ele>134.7</ele>
        <time>2015-09-27T07:51:22Z</time>
      </trkpt>
      <trkpt lat="48.0003" lon="1.90665">
        <ele>134.6</ele>
        <time>2015-09-27T07:51:23Z</time>
      </trkpt>
      <trkpt lat="48.00028" lon="1.90658">
        <ele>134.5</ele>
        <time>2015-09-27T07:51:24Z</time>
      </trkpt>
      <trkpt lat="48.00025" lon="1.90651">
        <ele>134.3</ele>
        <time>2015-09-27T07:51:25Z</time>
      </trkpt>
      <trkpt lat="48.00022" lon="1.90644">
        <ele>134.1</ele>
        <time>2015-09-27T07:51:26Z</time>
      </trkpt>
      <trkpt lat="48.00019" lon="1.90637">
        <ele>134</ele>
        <time>2015-09-27T07:51:27Z</time>
      </trkpt>
      <trkpt lat="48.00015" lon="1.90629">
        <ele>133.7</ele>
        <time>2015-09-27T07:51:28Z</time>
      </trkpt>
      <trkpt lat="48.00011" lon="1.90622">
        <ele>133.5</ele>
        <time>2015-09-27T07:51:29Z</time>
      </trkpt>
      <trkpt lat="48.00006" lon="1.90615">
        <ele>133.2</ele>
        <time>2015-09-27T07:51:30Z</time>
      </trkpt>
      <trkpt lat="48.00002" lon="1.90608">
        <ele>133</ele>
        <time>2015-09-27T07:51:31Z</time>
      </trkpt>
      <trkpt lat="47.99998" lon="1.90602">
        <ele>132.8</ele>
        <time>2015-09-27T07:51:32Z</time>
      </trkpt>
      <trkpt lat="47.99994" lon="1.90595">
        <ele>132.5</ele>
        <time>2015-09-27T07:51:33Z</time>
      </trkpt>
      <trkpt lat="47.9999" lon="1.90587">
        <ele>132.3</ele>
        <time>2015-09-27T07:51:34Z</time>
      </trkpt>
      <trkpt lat="47.99987" lon="1.90579">
        <ele>132.2</ele>
        <time>2015-09-27T07:51:35Z</time>
      </trkpt>
      <trkpt lat="47.99985" lon="1.9057">
        <ele>132.1</ele>
        <time>2015-09-27T07:51:36Z</time>
      </trkpt>
      <trkpt lat="47.99983" lon="1.90561">
        <ele>132</ele>
        <time>2015-09-27T07:51:37Z</time>
      </trkpt>
      <trkpt lat="47.99981" lon="1.90552">
        <ele>131.8</ele>
        <time>2015-09-27T07:51:38Z</time>
      </trkpt>
      <trkpt lat="47.99978" lon="1.90544">
        <ele>131.7</ele>
        <time>2015-09-27T07:51:39Z</time>
      </trkpt>
      <trkpt lat="47.99976" lon="1.90535">
        <ele>131.6</ele>
        <time>2015-09-27T07:51:40Z</time>
      </trkpt>
      <trkpt lat="47.99975" lon="1.90525">
        <ele>131.5</ele>
        <time>2015-09-27T07:51:41Z</time>
      </trkpt>
      <trkpt lat="47.99973" lon="1.90515">
        <ele>131.5</ele>
        <time>2015-09-27T07:51:42Z</time>
      </trkpt>
      <trkpt lat="47.99971" lon="1.90505">
        <ele>131.4</ele>
        <time>2015-09-27T07:51:43Z</time>
      </trkpt>
      <trkpt lat="47.99969" lon="1.90496">
        <ele>131.3</ele>
        <time>2015-09-27T07:51:44Z</time>
      </trkpt>
      <trkpt lat="47.99966" lon="1.90487">
        <ele>131.2</ele>
        <time>2015-09-27T07:51:45Z</time>
      </trkpt>
      <trkpt lat="47.99964" lon="1.90479">
        <ele>131.1</ele>
        <time>2015-09-27T07:51:46Z</time>
      </trkpt>
      <trkpt lat="47.99962" lon="1.90472">
        <ele>131.1</ele>
        <time>2015-09-27T07:51:47Z</time>
      </trkpt>
      <trkpt lat="47.99959" lon="1.90467">
        <ele>131</ele>
        <time>2015-09-27T07:51:48Z</time>
      </trkpt>
      <trkpt lat="47.99957" lon="1.90461">
        <ele>131</ele>
        <time>2015-09-27T07:51:49Z</time>
      </trkpt>
      <trkpt lat="47.99955" lon="1.90455">
        <ele>131</ele>
        <time>2015-09-27T07:51:50Z</time>
      </trkpt>
      <trkpt lat="47.99952" lon="1.90449">
        <ele>130.9</ele>
        <time>2015-09-27T07:51:51Z</time>
      </trkpt>
      <trkpt lat="47.9995" lon="1.90442">
        <ele>130.9</ele>
        <time>2015-09-27T07:51:52Z</time>
      </trkpt>
      <trkpt lat="47.99947" lon="1.90435">
        <ele>130.9</ele>
        <time>2015-09-27T07:51:53Z</time>
      </trkpt>
      <trkpt lat="47.99945" lon="1.90428">
        <ele>130.8</ele>
        <time>2015-09-27T07:51:54Z</time>
      </trkpt>
      <trkpt lat="47.99942" lon="1.90421">
        <ele>130.8</ele>
        <time>2015-09-27T07:51:55Z</time>
      </trkpt>
      <trkpt lat="47.9994" lon="1.90413">
        <ele>130.8</ele>
        <time>2015-09-27T07:51:56Z</time>
      </trkpt>
      <trkpt lat="47.99937" lon="1.90407">
        <ele>130.7</ele>
        <time>2015-09-27T07:51:57Z</time>
      </trkpt>
      <trkpt lat="47.99934" lon="1.90401">
        <ele>130.7</ele>
        <time>2015-09-27T07:51:58Z</time>
      </trkpt>
      <trkpt lat="47.99931" lon="1.90395">
        <ele>130.7</ele>
        <time>2015-09-27T07:51:59Z</time>
      </trkpt>
      <trkpt lat="47.99929" lon="1.90388">
        <ele>130.6</ele>
        <time>2015-09-27T07:52:00Z</time>
      </trkpt>
      <trkpt lat="47.99927" lon="1.90382">
        <ele>130.6</ele>
        <time>2015-09-27T07:52:01Z</time>
      </trkpt>
      <trkpt lat="47.99925" lon="1.90375">
        <ele>130.6</ele>
        <time>2015-09-27T07:52:02Z</time>
      </trkpt>
      <trkpt lat="47.99924" lon="1.90367">
        <ele>130.6</ele>
        <time>2015-09-27T07:52:03Z</time>
      </trkpt>
      <trkpt lat="47.99924" lon="1.9036">
        <ele>130.6</ele>
        <time>2015-09-27T07:52:04Z</time>
      </trkpt>
      <trkpt lat="47.99923" lon="1.90353">
        <ele>130.6</ele>
        <time>2015-09-27T07:52:05Z</time>
      </trkpt>
      <trkpt lat="47.99921" lon="1.90349">
        <ele>130.6</ele>
        <time>2015-09-27T07:52:06Z</time>
      </trkpt>
      <trkpt lat="47.99919" lon="1.90345">
        <ele>130.5</ele>
        <time>2015-09-27T07:52:07Z</time>
      </trkpt>
      <trkpt lat="47.99916" lon="1.9034">
        <ele>130.5</ele>
        <time>2015-09-27T07:52:08Z</time>
      </trkpt>
      <trkpt lat="47.99913" lon="1.90335">
        <ele>130.4</ele>
        <time>2015-09-27T07:52:09Z</time>
      </trkpt>
      <trkpt lat="47.9991" lon="1.90329">
        <ele>130.3</ele>
        <time>2015-09-27T07:52:10Z</time>
      </trkpt>
      <trkpt lat="47.99908" lon="1.90322">
        <ele>130.3</ele>
        <time>2015-09-27T07:52:11Z</time>
      </trkpt>
      <trkpt lat="47.99904" lon="1.90316">
        <ele>130.1</ele>
        <time>2015-09-27T07:52:12Z</time>
      </trkpt>
      <trkpt lat="47.99898" lon="1.90312">
        <ele>129.9</ele>
        <time>2015-09-27T07:52:13Z</time>
      </trkpt>
      <trkpt lat="47.99893" lon="1.90309">
        <ele>129.8</ele>
        <time>2015-09-27T07:52:14Z</time>
      </trkpt>
      <trkpt lat="47.99888" lon="1.90305">
        <ele>129.6</ele>
        <time>2015-09-27T07:52:15Z</time>
      </trkpt>
      <trkpt lat="47.99885" lon="1.90299">
        <ele>129.4</ele>
        <time>2015-09-27T07:52:16Z</time>
      </trkpt>
      <trkpt lat="47.99882" lon="1.90292">
        <ele>129.3</ele>
        <time>2015-09-27T07:52:17Z</time>
      </trkpt>
      <trkpt lat="47.99879" lon="1.90286">
        <ele>129.2</ele>
        <time>2015-09-27T07:52:18Z</time>
      </trkpt>
      <trkpt lat="47.99875" lon="1.90279">
        <ele>129.1</ele>
        <time>2015-09-27T07:52:19Z</time>
      </trkpt>
      <trkpt lat="47.99871" lon="1.90273">
        <ele>129.2</ele>
        <time>2015-09-27T07:52:20Z</time>
      </trkpt>
      <trkpt lat="47.99866" lon="1.90265">
        <ele>129.2</ele>
        <time>2015-09-27T07:52:21Z</time>
      </trkpt>
      <trkpt lat="47.99863" lon="1.90258">
        <ele>129.3</ele>
        <time>2015-09-27T07:52:22Z</time>
      </trkpt>
      <trkpt lat="47.9986" lon="1.90249">
        <ele>129.3</ele>
        <time>2015-09-27T07:52:23Z</time>
      </trkpt>
      <trkpt lat="47.99859" lon="1.90241">
        <ele>129.4</ele>
        <time>2015-09-27T07:52:24Z</time>
      </trkpt>
      <trkpt lat="47.99856" lon="1.90234">
        <ele>129.5</ele>
        <time>2015-09-27T07:52:25Z</time>
      </trkpt>
      <trkpt lat="47.99855" lon="1.90226">
        <ele>129.5</ele>
        <time>2015-09-27T07:52:26Z</time>
      </trkpt>
      <trkpt lat="47.99853" lon="1.90219">
        <ele>129.6</ele>
        <time>2015-09-27T07:52:27Z</time>
      </trkpt>
      <trkpt lat="47.99851" lon="1.90211">
        <ele>129.7</ele>
        <time>2015-09-27T07:52:28Z</time>
      </trkpt>
      <trkpt lat="47.9985" lon="1.90203">
        <ele>129.9</ele>
        <time>2015-09-27T07:52:29Z</time>
      </trkpt>
      <trkpt lat="47.99849" lon="1.90194">
        <ele>130.2</ele>
        <time>2015-09-27T07:52:30Z</time>
      </trkpt>
      <trkpt lat="47.99849" lon="1.90187">
        <ele>130.5</ele>
        <time>2015-09-27T07:52:31Z</time>
      </trkpt>
      <trkpt lat="47.99848" lon="1.9018">
        <ele>130.8</ele>
        <time>2015-09-27T07:52:32Z</time>
      </trkpt>
      <trkpt lat="47.99847" lon="1.90173">
        <ele>131.1</ele>
        <time>2015-09-27T07:52:33Z</time>
      </trkpt>
      <trkpt lat="47.99846" lon="1.90166">
        <ele>131.3</ele>
        <time>2015-09-27T07:52:34Z</time>
      </trkpt>
      <trkpt lat="47.99844" lon="1.9016">
        <ele>131.6</ele>
        <time>2015-09-27T07:52:35Z</time>
      </trkpt>
      <trkpt lat="47.99844" lon="1.90152">
        <ele>131.9</ele>
        <time>2015-09-27T07:52:36Z</time>
      </trkpt>
      <trkpt lat="47.99842" lon="1.90146">
        <ele>132.2</ele>
        <time>2015-09-27T07:52:37Z</time>
      </trkpt>
      <trkpt lat="47.9984" lon="1.9014">
        <ele>132.4</ele>
        <time>2015-09-27T07:52:38Z</time>
      </trkpt>
      <trkpt lat="47.99838" lon="1.90136">
        <ele>132.6</ele>
        <time>2015-09-27T07:52:39Z</time>
      </trkpt>
      <trkpt lat="47.99836" lon="1.90131">
        <ele>132.8</ele>
        <time>2015-09-27T07:52:40Z</time>
      </trkpt>
      <trkpt lat="47.99834" lon="1.90127">
        <ele>132.9</ele>
        <time>2015-09-27T07:52:41Z</time>
      </trkpt>
      <trkpt lat="47.99834" lon="1.90121">
        <ele>133.1</ele>
        <time>2015-09-27T07:52:42Z</time>
      </trkpt>
      <trkpt lat="47.99834" lon="1.90115">
        <ele>133.2</ele>
        <time>2015-09-27T07:52:43Z</time>
      </trkpt>
      <trkpt lat="47.99834" lon="1.90109">
        <ele>133.3</ele>
        <time>2015-09-27T07:52:44Z</time>
      </trkpt>
      <trkpt lat="47.99834" lon="1.90103">
        <ele>133.4</ele>
        <time>2015-09-27T07:52:45Z</time>
      </trkpt>
      <trkpt lat="47.99833" lon="1.90097">
        <ele>133.5</ele>
        <time>2015-09-27T07:52:46Z</time>
      </trkpt>
      <trkpt lat="47.99833" lon="1.90091">
        <ele>133.6</ele>
        <time>2015-09-27T07:52:47Z</time>
      </trkpt>
      <trkpt lat="47.99831" lon="1.90086">
        <ele>133.7</ele>
        <time>2015-09-27T07:52:48Z</time>
      </trkpt>
      <trkpt lat="47.9983" lon="1.90081">
        <ele>133.8</ele>
        <time>2015-09-27T07:52:49Z</time>
      </trkpt>
      <trkpt lat="47.99829" lon="1.90075">
        <ele>133.9</ele>
        <time>2015-09-27T07:52:50Z</time>
      </trkpt>
      <trkpt lat="47.99828" lon="1.90069">
        <ele>134</ele>
        <time>2015-09-27T07:52:51Z</time>
      </trkpt>
      <trkpt lat="47.99828" lon="1.90064">
        <ele>134.1</ele>
        <time>2015-09-27T07:52:52Z</time>
      </trkpt>
      <trkpt lat="47.99827" lon="1.90058">
        <ele>134.2</ele>
        <time>2015-09-27T07:52:53Z</time>
      </trkpt>
      <trkpt lat="47.99826" lon="1.90052">
        <ele>134.2</ele>
        <time>2015-09-27T07:52:54Z</time>
      </trkpt>
      <trkpt lat="47.99826" lon="1.90045">
        <ele>134.4</ele>
        <time>2015-09-27T07:52:55Z</time>
      </trkpt>
      <trkpt lat="47.99826" lon="1.90038">
        <ele>134.4</ele>
        <time>2015-09-27T07:52:56Z</time>
      </trkpt>
      <trkpt lat="47.99826" lon="1.90031">
        <ele>134.3</ele>
        <time>2015-09-27T07:52:57Z</time>
      </trkpt>
      <trkpt lat="47.99825" lon="1.90024">
        <ele>134.3</ele>
        <time>2015-09-27T07:52:58Z</time>
      </trkpt>
      <trkpt lat="47.99825" lon="1.90017">
        <ele>134.2</ele>
        <time>2015-09-27T07:52:59Z</time>
      </trkpt>
      <trkpt lat="47.99825" lon="1.9001">
        <ele>134.2</ele>
        <time>2015-09-27T07:53:00Z</time>
      </trkpt>
      <trkpt lat="47.99824" lon="1.90003">
        <ele>134.1</ele>
        <time>2015-09-27T07:53:01Z</time>
      </trkpt>
      <trkpt lat="47.99824" lon="1.89996">
        <ele>134</ele>
        <time>2015-09-27T07:53:02Z</time>
      </trkpt>
      <trkpt lat="47.99823" lon="1.89989">
        <ele>134</ele>
        <time>2015-09-27T07:53:03Z</time>
      </trkpt>
      <trkpt lat="47.99822" lon="1.89982">
        <ele>133.9</ele>
        <time>2015-09-27T07:53:04Z</time>
      </trkpt>
      <trkpt lat="47.99822" lon="1.89975">
        <ele>133.9</ele>
        <time>2015-09-27T07:53:05Z</time>
      </trkpt>
      <trkpt lat="47.99822" lon="1.89968">
        <ele>133.8</ele>
        <time>2015-09-27T07:53:06Z</time>
      </trkpt>
      <trkpt lat="47.99822" lon="1.89961">
        <ele>133.7</ele>
        <time>2015-09-27T07:53:07Z</time>
      </trkpt>
      <trkpt lat="47.99821" lon="1.89954">
        <ele>133.7</ele>
        <time>2015-09-27T07:53:08Z</time>
      </trkpt>
      <trkpt lat="47.9982" lon="1.89947">
        <ele>133.6</ele>
        <time>2015-09-27T07:53:09Z</time>
      </trkpt>
      <trkpt lat="47.99819" lon="1.8994">
        <ele>133.6</ele>
        <time>2015-09-27T07:53:10Z</time>
      </trkpt>
      <trkpt lat="47.99819" lon="1.89933">
        <ele>133.6</ele>
        <time>2015-09-27T07:53:11Z</time>
      </trkpt>
      <trkpt lat="47.9982" lon="1.89926">
        <ele>133.5</ele>
        <time>2015-09-27T07:53:12Z</time>
      </trkpt>
      <trkpt lat="47.99821" lon="1.89919">
        <ele>133.5</ele>
        <time>2015-09-27T07:53:13Z</time>
      </trkpt>
      <trkpt lat="47.99822" lon="1.89912">
        <ele>133.5</ele>
        <time>2015-09-27T07:53:14Z</time>
      </trkpt>
      <trkpt lat="47.99822" lon="1.89905">
        <ele>133.5</ele>
        <time>2015-09-27T07:53:15Z</time>
      </trkpt>
      <trkpt lat="47.99823" lon="1.89898">
        <ele>133.5</ele>
        <time>2015-09-27T07:53:16Z</time>
      </trkpt>
      <trkpt lat="47.99822" lon="1.89891">
        <ele>133.4</ele>
        <time>2015-09-27T07:53:17Z</time>
      </trkpt>
      <trkpt lat="47.99822" lon="1.89883">
        <ele>133.4</ele>
        <time>2015-09-27T07:53:18Z</time>
      </trkpt>
      <trkpt lat="47.99821" lon="1.89877">
        <ele>133.4</ele>
        <time>2015-09-27T07:53:19Z</time>
      </trkpt>
      <trkpt lat="47.99821" lon="1.89869">
        <ele>133.4</ele>
        <time>2015-09-27T07:53:20Z</time>
      </trkpt>
      <trkpt lat="47.99822" lon="1.89861">
        <ele>133.4</ele>
        <time>2015-09-27T07:53:21Z</time>
      </trkpt>
      <trkpt lat="47.99822" lon="1.89855">
        <ele>133.4</ele>
        <time>2015-09-27T07:53:22Z</time>
      </trkpt>
      <trkpt lat="47.99821" lon="1.89848">
        <ele>133.3</ele>
        <time>2015-09-27T07:53:23Z</time>
      </trkpt>
      <trkpt lat="47.9982" lon="1.89842">
        <ele>133.3</ele>
        <time>2015-09-27T07:53:24Z</time>
      </trkpt>
      <trkpt lat="47.99818" lon="1.89835">
        <ele>133.3</ele>
        <time>2015-09-27T07:53:25Z</time>
      </trkpt>
      <trkpt lat="47.99817" lon="1.89828">
        <ele>133.3</ele>
        <time>2015-09-27T07:53:26Z</time>
      </trkpt>
      <trkpt lat="47.99815" lon="1.8982">
        <ele>133.3</ele>
        <time>2015-09-27T07:53:27Z</time>
      </trkpt>
      <trkpt lat="47.99813" lon="1.89812">
        <ele>133.3</ele>
        <time>2015-09-27T07:53:28Z</time>
      </trkpt>
      <trkpt lat="47.99811" lon="1.89803">
        <ele>133.2</ele>
        <time>2015-09-27T07:53:29Z</time>
      </trkpt>
      <trkpt lat="47.99808" lon="1.89795">
        <ele>133.2</ele>
        <time>2015-09-27T07:53:30Z</time>
      </trkpt>
      <trkpt lat="47.99807" lon="1.89785">
        <ele>133</ele>
        <time>2015-09-27T07:53:31Z</time>
      </trkpt>
      <trkpt lat="47.99805" lon="1.89776">
        <ele>132.6</ele>
        <time>2015-09-27T07:53:32Z</time>
      </trkpt>
      <trkpt lat="47.99803" lon="1.89767">
        <ele>132.3</ele>
        <time>2015-09-27T07:53:33Z</time>
      </trkpt>
      <trkpt lat="47.99803" lon="1.89758">
        <ele>132</ele>
        <time>2015-09-27T07:53:34Z</time>
      </trkpt>
      <trkpt lat="47.99801" lon="1.8975">
        <ele>131.7</ele>
        <time>2015-09-27T07:53:35Z</time>
      </trkpt>
      <trkpt lat="47.99799" lon="1.89743">
        <ele>131.4</ele>
        <time>2015-09-27T07:53:36Z</time>
      </trkpt>
      <trkpt lat="47.99797" lon="1.89737">
        <ele>131.1</ele>
        <time>2015-09-27T07:53:37Z</time>
      </trkpt>
      <trkpt lat="47.99794" lon="1.89734">
        <ele>131</ele>
        <time>2015-09-27T07:53:38Z</time>
      </trkpt>
      <trkpt lat="47.9979" lon="1.8973">
        <ele>130.8</ele>
        <time>2015-09-27T07:53:39Z</time>
      </trkpt>
      <trkpt lat="47.99785" lon="1.89727">
        <ele>130.6</ele>
        <time>2015-09-27T07:53:40Z</time>
      </trkpt>
      <trkpt lat="47.99779" lon="1.89724">
        <ele>130.5</ele>
        <time>2015-09-27T07:53:41Z</time>
      </trkpt>
      <trkpt lat="47.99774" lon="1.8972">
        <ele>130.3</ele>
        <time>2015-09-27T07:53:42Z</time>
      </trkpt>
      <trkpt lat="47.99769" lon="1.89716">
        <ele>130</ele>
        <time>2015-09-27T07:53:43Z</time>
      </trkpt>
      <trkpt lat="47.99764" lon="1.89711">
        <ele>129.8</ele>
        <time>2015-09-27T07:53:44Z</time>
      </trkpt>
      <trkpt lat="47.99758" lon="1.89707">
        <ele>129.5</ele>
        <time>2015-09-27T07:53:45Z</time>
      </trkpt>
      <trkpt lat="47.99752" lon="1.89705">
        <ele>129.3</ele>
        <time>2015-09-27T07:53:46Z</time>
      </trkpt>
      <trkpt lat="47.99747" lon="1.89703">
        <ele>129.1</ele>
        <time>2015-09-27T07:53:47Z</time>
      </trkpt>
      <trkpt lat="47.99742" lon="1.89701">
        <ele>128.9</ele>
        <time>2015-09-27T07:53:48Z</time>
      </trkpt>
      <trkpt lat="47.99738" lon="1.89701">
        <ele>128.8</ele>
        <time>2015-09-27T07:53:49Z</time>
      </trkpt>
      <trkpt lat="47.99733" lon="1.89702">
        <ele>128.9</ele>
        <time>2015-09-27T07:53:50Z</time>
      </trkpt>
      <trkpt lat="47.99729" lon="1.89702">
        <ele>128.8</ele>
        <time>2015-09-27T07:53:51Z</time>
      </trkpt>
      <trkpt lat="47.99724" lon="1.89702">
        <ele>128.7</ele>
        <time>2015-09-27T07:53:52Z</time>
      </trkpt>
      <trkpt lat="47.99721" lon="1.89699">
        <ele>128.5</ele>
        <time>2015-09-27T07:53:53Z</time>
      </trkpt>
      <trkpt lat="47.99718" lon="1.89694">
        <ele>128.1</ele>
        <time>2015-09-27T07:53:54Z</time>
      </trkpt>
      <trkpt lat="47.99716" lon="1.89689">
        <ele>127.7</ele>
        <time>2015-09-27T07:53:55Z</time>
      </trkpt>
      <trkpt lat="47.99712" lon="1.89686">
        <ele>127.4</ele>
        <time>2015-09-27T07:53:56Z</time>
      </trkpt>
      <trkpt lat="47.99707" lon="1.89685">
        <ele>127.3</ele>
        <time>2015-09-27T07:53:57Z</time>
      </trkpt>
      <trkpt lat="47.99703" lon="1.89683">
        <ele>127.2</ele>
        <time>2015-09-27T07:53:58Z</time>
      </trkpt>
      <trkpt lat="47.99699" lon="1.8968">
        <ele>126.9</ele>
        <time>2015-09-27T07:53:59Z</time>
      </trkpt>
      <trkpt lat="47.99695" lon="1.89676">
        <ele>126.6</ele>
        <time>2015-09-27T07:54:00Z</time>
      </trkpt>
      <trkpt lat="47.99691" lon="1.89672">
        <ele>126.3</ele>
        <time>2015-09-27T07:54:01Z</time>
      </trkpt>
      <trkpt lat="47.99687" lon="1.89669">
        <ele>126</ele>
        <time>2015-09-27T07:54:02Z</time>
      </trkpt>
      <trkpt lat="47.99682" lon="1.89666">
        <ele>125.8</ele>
        <time>2015-09-27T07:54:03Z</time>
      </trkpt>
      <trkpt lat="47.99677" lon="1.89665">
        <ele>125.7</ele>
        <time>2015-09-27T07:54:04Z</time>
      </trkpt>
      <trkpt lat="47.99671" lon="1.89664">
        <ele>125.6</ele>
        <time>2015-09-27T07:54:05Z</time>
      </trkpt>
      <trkpt lat="47.99667" lon="1.89663">
        <ele>125.5</ele>
        <time>2015-09-27T07:54:06Z</time>
      </trkpt>
      <trkpt lat="47.99663" lon="1.89662">
        <ele>125.4</ele>
        <time>2015-09-27T07:54:07Z</time>
      </trkpt>
      <trkpt lat="47.99659" lon="1.89661">
        <ele>125.3</ele>
        <time>2015-09-27T07:54:08Z</time>
      </trkpt>
      <trkpt lat="47.99654" lon="1.89661">
        <ele>125.2</ele>
        <time>2015-09-27T07:54:09Z</time>
      </trkpt>
      <trkpt lat="47.9965" lon="1.89661">
        <ele>125.2</ele>
        <time>2015-09-27T07:54:10Z</time>
      </trkpt>
      <trkpt lat="47.99645" lon="1.89662">
        <ele>125.2</ele>
        <time>2015-09-27T07:54:11Z</time>
      </trkpt>
      <trkpt lat="47.99642" lon="1.8966">
        <ele>125</ele>
        <time>2015-09-27T07:54:12Z</time>
      </trkpt>
      <trkpt lat="47.99639" lon="1.89658">
        <ele>124.9</ele>
        <time>2015-09-27T07:54:13Z</time>
      </trkpt>
      <trkpt lat="47.99635" lon="1.89656">
        <ele>124.7</ele>
        <time>2015-09-27T07:54:14Z</time>
      </trkpt>
      <trkpt lat="47.9963" lon="1.89654">
        <ele>124.5</ele>
        <time>2015-09-27T07:54:15Z</time>
      </trkpt>
      <trkpt lat="47.99626" lon="1.89653">
        <ele>124.3</ele>
        <time>2015-09-27T07:54:16Z</time>
      </trkpt>
      <trkpt lat="47.99621" lon="1.89651">
        <ele>124.2</ele>
        <time>2015-09-27T07:54:17Z</time>
      </trkpt>
      <trkpt lat="47.99617" lon="1.89649">
        <ele>124</ele>
        <time>2015-09-27T07:54:18Z</time>
      </trkpt>
      <trkpt lat="47.99613" lon="1.89647">
        <ele>123.8</ele>
        <time>2015-09-27T07:54:19Z</time>
      </trkpt>
      <trkpt lat="47.99608" lon="1.89645">
        <ele>123.6</ele>
        <time>2015-09-27T07:54:20Z</time>
      </trkpt>
      <trkpt lat="47.99604" lon="1.89643">
        <ele>123.4</ele>
        <time>2015-09-27T07:54:21Z</time>
      </trkpt>
      <trkpt lat="47.996" lon="1.8964">
        <ele>123.2</ele>
        <time>2015-09-27T07:54:22Z</time>
      </trkpt>
      <trkpt lat="47.99596" lon="1.89637">
        <ele>122.9</ele>
        <time>2015-09-27T07:54:23Z</time>
      </trkpt>
      <trkpt lat="47.99592" lon="1.89634">
        <ele>122.7</ele>
        <time>2015-09-27T07:54:24Z</time>
      </trkpt>
      <trkpt lat="47.99587" lon="1.8963">
        <ele>122.4</ele>
        <time>2015-09-27T07:54:25Z</time>
      </trkpt>
      <trkpt lat="47.99583" lon="1.89628">
        <ele>122.3</ele>
        <time>2015-09-27T07:54:26Z</time>
      </trkpt>
      <trkpt lat="47.99578" lon="1.89628">
        <ele>122.2</ele>
        <time>2015-09-27T07:54:27Z</time>
      </trkpt>
      <trkpt lat="47.99574" lon="1.89628">
        <ele>122.2</ele>
        <time>2015-09-27T07:54:28Z</time>
      </trkpt>
      <trkpt lat="47.99569" lon="1.89629">
        <ele>122.3</ele>
        <time>2015-09-27T07:54:29Z</time>
      </trkpt>
      <trkpt lat="47.99565" lon="1.89631">
        <ele>122.4</ele>
        <time>2015-09-27T07:54:30Z</time>
      </trkpt>
      <trkpt lat="47.9956" lon="1.89632">
        <ele>122.5</ele>
        <time>2015-09-27T07:54:31Z</time>
      </trkpt>
      <trkpt lat="47.99556" lon="1.89633">
        <ele>122.6</ele>
        <time>2015-09-27T07:54:32Z</time>
      </trkpt>
      <trkpt lat="47.99552" lon="1.89634">
        <ele>122.6</ele>
        <time>2015-09-27T07:54:33Z</time>
      </trkpt>
      <trkpt lat="47.99547" lon="1.89634">
        <ele>122.7</ele>
        <time>2015-09-27T07:54:34Z</time>
      </trkpt>
      <trkpt lat="47.99543" lon="1.89635">
        <ele>122.7</ele>
        <time>2015-09-27T07:54:35Z</time>
      </trkpt>
      <trkpt lat="47.99539" lon="1.89636">
        <ele>122.8</ele>
        <time>2015-09-27T07:54:36Z</time>
      </trkpt>
      <trkpt lat="47.99536" lon="1.89637">
        <ele>123</ele>
        <time>2015-09-27T07:54:37Z</time>
      </trkpt>
      <trkpt lat="47.99532" lon="1.89639">
        <ele>123.2</ele>
        <time>2015-09-27T07:54:38Z</time>
      </trkpt>
      <trkpt lat="47.99529" lon="1.8964">
        <ele>123.3</ele>
        <time>2015-09-27T07:54:39Z</time>
      </trkpt>
      <trkpt lat="47.99526" lon="1.89641">
        <ele>123.4</ele>
        <time>2015-09-27T07:54:40Z</time>
      </trkpt>
      <trkpt lat="47.99523" lon="1.89641">
        <ele>123.5</ele>
        <time>2015-09-27T07:54:41Z</time>
      </trkpt>
      <trkpt lat="47.9952" lon="1.89642">
        <ele>123.7</ele>
        <time>2015-09-27T07:54:42Z</time>
      </trkpt>
      <trkpt lat="47.99517" lon="1.89643">
        <ele>123.8</ele>
        <time>2015-09-27T07:54:43Z</time>
      </trkpt>
      <trkpt lat="47.99513" lon="1.89644">
        <ele>123.9</ele>
        <time>2015-09-27T07:54:44Z</time>
      </trkpt>
      <trkpt lat="47.99509" lon="1.89645">
        <ele>124</ele>
        <time>2015-09-27T07:54:45Z</time>
      </trkpt>
      <trkpt lat="47.99505" lon="1.89645">
        <ele>124.1</ele>
        <time>2015-09-27T07:54:46Z</time>
      </trkpt>
      <trkpt lat="47.99501" lon="1.89645">
        <ele>124.2</ele>
        <time>2015-09-27T07:54:47Z</time>
      </trkpt>
      <trkpt lat="47.99498" lon="1.89646">
        <ele>124.3</ele>
        <time>2015-09-27T07:54:48Z</time>
      </trkpt>
      <trkpt lat="47.99494" lon="1.89647">
        <ele>124.4</ele>
        <time>2015-09-27T07:54:49Z</time>
      </trkpt>
      <trkpt lat="47.99489" lon="1.89647">
        <ele>124.5</ele>
        <time>2015-09-27T07:54:50Z</time>
      </trkpt>
      <trkpt lat="47.99485" lon="1.89648">
        <ele>124.6</ele>
        <time>2015-09-27T07:54:51Z</time>
      </trkpt>
      <trkpt lat="47.99482" lon="1.89649">
        <ele>124.8</ele>
        <time>2015-09-27T07:54:52Z</time>
      </trkpt>
      <trkpt lat="47.99478" lon="1.8965">
        <ele>124.9</ele>
        <time>2015-09-27T07:54:53Z</time>
      </trkpt>
      <trkpt lat="47.99474" lon="1.89651">
        <ele>125</ele>
        <time>2015-09-27T07:54:54Z</time>
      </trkpt>
      <trkpt lat="47.9947" lon="1.89652">
        <ele>125.1</ele>
        <time>2015-09-27T07:54:55Z</time>
      </trkpt>
      <trkpt lat="47.99467" lon="1.89653">
        <ele>125.2</ele>
        <time>2015-09-27T07:54:56Z</time>
      </trkpt>
      <trkpt lat="47.99463" lon="1.89654">
        <ele>125.3</ele>
        <time>2015-09-27T07:54:57Z</time>
      </trkpt>
      <trkpt lat="47.99459" lon="1.89654">
        <ele>125.4</ele>
        <time>2015-09-27T07:54:58Z</time>
      </trkpt>
      <trkpt lat="47.99455" lon="1.89655">
        <ele>125.5</ele>
        <time>2015-09-27T07:54:59Z</time>
      </trkpt>
      <trkpt lat="47.9945" lon="1.89657">
        <ele>125.6</ele>
        <time>2015-09-27T07:55:00Z</time>
      </trkpt>
      <trkpt lat="47.99446" lon="1.89658">
        <ele>125.8</ele>
        <time>2015-09-27T07:55:01Z</time>
      </trkpt>
      <trkpt lat="47.99442" lon="1.89659">
        <ele>125.9</ele>
        <time>2015-09-27T07:55:02Z</time>
      </trkpt>
      <trkpt lat="47.99437" lon="1.8966">
        <ele>126</ele>
        <time>2015-09-27T07:55:03Z</time>
      </trkpt>
      <trkpt lat="47.99432" lon="1.89662">
        <ele>126.1</ele>
        <time>2015-09-27T07:55:04Z</time>
      </trkpt>
      <trkpt lat="47.99427" lon="1.89663">
        <ele>126.2</ele>
        <time>2015-09-27T07:55:05Z</time>
      </trkpt>
      <trkpt lat="47.99423" lon="1.89664">
        <ele>126.3</ele>
        <time>2015-09-27T07:55:06Z</time>
      </trkpt>
      <trkpt lat="47.99418" lon="1.89665">
        <ele>126.4</ele>
        <time>2015-09-27T07:55:07Z</time>
      </trkpt>
      <trkpt lat="47.99414" lon="1.89667">
        <ele>126.5</ele>
        <time>2015-09-27T07:55:08Z</time>
      </trkpt>
      <trkpt lat="47.9941" lon="1.89667">
        <ele>126.6</ele>
        <time>2015-09-27T07:55:09Z</time>
      </trkpt>
      <trkpt lat="47.99407" lon="1.89667">
        <ele>126.6</ele>
        <time>2015-09-27T07:55:10Z</time>
      </trkpt>
      <trkpt lat="47.99403" lon="1.89666">
        <ele>126.6</ele>
        <time>2015-09-27T07:55:11Z</time>
      </trkpt>
      <trkpt lat="47.994" lon="1.89663">
        <ele>126.6</ele>
        <time>2015-09-27T07:55:12Z</time>
      </trkpt>
      <trkpt lat="47.99396" lon="1.8966">
        <ele>126.5</ele>
        <time>2015-09-27T07:55:13Z</time>
      </trkpt>
      <trkpt lat="47.99394" lon="1.89656">
        <ele>126.5</ele>
        <time>2015-09-27T07:55:14Z</time>
      </trkpt>
      <trkpt lat="47.99393" lon="1.8965">
        <ele>126.3</ele>
        <time>2015-09-27T07:55:15Z</time>
      </trkpt>
      <trkpt lat="47.99393" lon="1.89643">
        <ele>126.1</ele>
        <time>2015-09-27T07:55:16Z</time>
      </trkpt>
      <trkpt lat="47.99393" lon="1.89635">
        <ele>125.9</ele>
        <time>2015-09-27T07:55:17Z</time>
      </trkpt>
      <trkpt lat="47.99393" lon="1.89628">
        <ele>125.6</ele>
        <time>2015-09-27T07:55:18Z</time>
      </trkpt>
      <trkpt lat="47.99394" lon="1.8962">
        <ele>125.7</ele>
        <time>2015-09-27T07:55:19Z</time>
      </trkpt>
      <trkpt lat="47.99394" lon="1.89613">
        <ele>126</ele>
        <time>2015-09-27T07:55:20Z</time>
      </trkpt>
      <trkpt lat="47.99394" lon="1.89606">
        <ele>126.2</ele>
        <time>2015-09-27T07:55:21Z</time>
      </trkpt>
      <trkpt lat="47.99394" lon="1.89599">
        <ele>126.5</ele>
        <time>2015-09-27T07:55:22Z</time>
      </trkpt>
      <trkpt lat="47.99394" lon="1.89592">
        <ele>126.7</ele>
        <time>2015-09-27T07:55:23Z</time>
      </trkpt>
      <trkpt lat="47.99393" lon="1.89585">
        <ele>127</ele>
        <time>2015-09-27T07:55:24Z</time>
      </trkpt>
      <trkpt lat="47.99393" lon="1.89579">
        <ele>127.2</ele>
        <time>2015-09-27T07:55:25Z</time>
      </trkpt>
      <trkpt lat="47.99391" lon="1.89572">
        <ele>127.5</ele>
        <time>2015-09-27T07:55:26Z</time>
      </trkpt>
      <trkpt lat="47.9939" lon="1.89566">
        <ele>127.8</ele>
        <time>2015-09-27T07:55:27Z</time>
      </trkpt>
      <trkpt lat="47.99388" lon="1.89559">
        <ele>128.1</ele>
        <time>2015-09-27T07:55:28Z</time>
      </trkpt>
      <trkpt lat="47.99385" lon="1.89553">
        <ele>128.4</ele>
        <time>2015-09-27T07:55:29Z</time>
      </trkpt>
      <trkpt lat="47.9938" lon="1.89548">
        <ele>128.6</ele>
        <time>2015-09-27T07:55:30Z</time>
      </trkpt>
      <trkpt lat="47.99376" lon="1.89546">
        <ele>128.8</ele>
        <time>2015-09-27T07:55:31Z</time>
      </trkpt>
      <trkpt lat="47.99371" lon="1.89544">
        <ele>128.9</ele>
        <time>2015-09-27T07:55:32Z</time>
      </trkpt>
      <trkpt lat="47.99366" lon="1.89542">
        <ele>129</ele>
        <time>2015-09-27T07:55:33Z</time>
      </trkpt>
      <trkpt lat="47.99361" lon="1.8954">
        <ele>129</ele>
        <time>2015-09-27T07:55:34Z</time>
      </trkpt>
      <trkpt lat="47.99356" lon="1.89539">
        <ele>129.1</ele>
        <time>2015-09-27T07:55:35Z</time>
      </trkpt>
      <trkpt lat="47.99351" lon="1.89537">
        <ele>129.1</ele>
        <time>2015-09-27T07:55:36Z</time>
      </trkpt>
      <trkpt lat="47.99346" lon="1.89536">
        <ele>129.2</ele>
        <time>2015-09-27T07:55:37Z</time>
      </trkpt>
      <trkpt lat="47.99341" lon="1.89535">
        <ele>129.2</ele>
        <time>2015-09-27T07:55:38Z</time>
      </trkpt>
      <trkpt lat="47.99336" lon="1.89534">
        <ele>129.2</ele>
        <time>2015-09-27T07:55:39Z</time>
      </trkpt>
      <trkpt lat="47.9933" lon="1.89533">
        <ele>129.2</ele>
        <time>2015-09-27T07:55:40Z</time>
      </trkpt>
      <trkpt lat="47.99324" lon="1.89533">
        <ele>129.2</ele>
        <time>2015-09-27T07:55:41Z</time>
      </trkpt>
      <trkpt lat="47.99319" lon="1.89533">
        <ele>129.2</ele>
        <time>2015-09-27T07:55:42Z</time>
      </trkpt>
      <trkpt lat="47.99314" lon="1.89533">
        <ele>129.2</ele>
        <time>2015-09-27T07:55:43Z</time>
      </trkpt>
      <trkpt lat="47.99309" lon="1.89533">
        <ele>129.2</ele>
        <time>2015-09-27T07:55:44Z</time>
      </trkpt>
      <trkpt lat="47.99304" lon="1.89534">
        <ele>129.2</ele>
        <time>2015-09-27T07:55:45Z</time>
      </trkpt>
      <trkpt lat="47.99299" lon="1.89534">
        <ele>129.2</ele>
        <time>2015-09-27T07:55:46Z</time>
      </trkpt>
      <trkpt lat="47.99294" lon="1.89534">
        <ele>129.2</ele>
        <time>2015-09-27T07:55:47Z</time>
      </trkpt>
      <trkpt lat="47.99288" lon="1.89535">
        <ele>129.1</ele>
        <time>2015-09-27T07:55:48Z</time>
      </trkpt>
      <trkpt lat="47.99283" lon="1.89536">
        <ele>129</ele>
        <time>2015-09-27T07:55:49Z</time>
      </trkpt>
      <trkpt lat="47.99278" lon="1.89537">
        <ele>129</ele>
        <time>2015-09-27T07:55:50Z</time>
      </trkpt>
      <trkpt lat="47.99273" lon="1.89537">
        <ele>128.9</ele>
        <time>2015-09-27T07:55:51Z</time>
      </trkpt>
      <trkpt lat="47.99269" lon="1.89537">
        <ele>128.9</ele>
        <time>2015-09-27T07:55:52Z</time>
      </trkpt>
      <trkpt lat="47.99264" lon="1.89537">
        <ele>128.8</ele>
        <time>2015-09-27T07:55:53Z</time>
      </trkpt>
      <trkpt lat="47.99259" lon="1.89537">
        <ele>128.7</ele>
        <time>2015-09-27T07:55:54Z</time>
      </trkpt>
      <trkpt lat="47.99254" lon="1.89538">
        <ele>128.6</ele>
        <time>2015-09-27T07:55:55Z</time>
      </trkpt>
      <trkpt lat="47.99248" lon="1.8954">
        <ele>128.5</ele>
        <time>2015-09-27T07:55:56Z</time>
      </trkpt>
      <trkpt lat="47.99243" lon="1.89542">
        <ele>128.4</ele>
        <time>2015-09-27T07:55:57Z</time>
      </trkpt>
      <trkpt lat="47.99237" lon="1.89545">
        <ele>128.2</ele>
        <time>2015-09-27T07:55:58Z</time>
      </trkpt>
      <trkpt lat="47.99232" lon="1.89547">
        <ele>128.1</ele>
        <time>2015-09-27T07:55:59Z</time>
      </trkpt>
      <trkpt lat="47.99226" lon="1.89549">
        <ele>127.9</ele>
        <time>2015-09-27T07:56:00Z</time>
      </trkpt>
      <trkpt lat="47.99222" lon="1.89551">
        <ele>127.8</ele>
        <time>2015-09-27T07:56:01Z</time>
      </trkpt>
      <trkpt lat="47.99218" lon="1.89552">
        <ele>127.7</ele>
        <time>2015-09-27T07:56:02Z</time>
      </trkpt>
      <trkpt lat="47.99213" lon="1.89553">
        <ele>127.6</ele>
        <time>2015-09-27T07:56:03Z</time>
      </trkpt>
      <trkpt lat="47.99209" lon="1.89554">
        <ele>127.6</ele>
        <time>2015-09-27T07:56:04Z</time>
      </trkpt>
      <trkpt lat="47.99204" lon="1.89554">
        <ele>127.5</ele>
        <time>2015-09-27T07:56:05Z</time>
      </trkpt>
      <trkpt lat="47.992" lon="1.89553">
        <ele>127.4</ele>
        <time>2015-09-27T07:56:06Z</time>
      </trkpt>
      <trkpt lat="47.99194" lon="1.89551">
        <ele>127.3</ele>
        <time>2015-09-27T07:56:07Z</time>
      </trkpt>
      <trkpt lat="47.99191" lon="1.8955">
        <ele>127.3</ele>
        <time>2015-09-27T07:56:08Z</time>
      </trkpt>
      <trkpt lat="47.99187" lon="1.89548">
        <ele>127.2</ele>
        <time>2015-09-27T07:56:09Z</time>
      </trkpt>
      <trkpt lat="47.99183" lon="1.89547">
        <ele>127.2</ele>
        <time>2015-09-27T07:56:10Z</time>
      </trkpt>
      <trkpt lat="47.99179" lon="1.89543">
        <ele>127.3</ele>
        <time>2015-09-27T07:56:12Z</time>
      </trkpt>
      <trkpt lat="47.9918" lon="1.89539">
        <ele>127.4</ele>
        <time>2015-09-27T07:56:16Z</time>
      </trkpt>
      <trkpt lat="47.9918" lon="1.89533">
        <ele>127.7</ele>
        <time>2015-09-27T07:56:19Z</time>
      </trkpt>
      <trkpt lat="47.9918" lon="1.89526">
        <ele>127.9</ele>
        <time>2015-09-27T07:56:21Z</time>
      </trkpt>
      <trkpt lat="47.9918" lon="1.89522">
        <ele>128.1</ele>
        <time>2015-09-27T07:56:22Z</time>
      </trkpt>
      <trkpt lat="47.9918" lon="1.89517">
        <ele>128.3</ele>
        <time>2015-09-27T07:56:23Z</time>
      </trkpt>
      <trkpt lat="47.9918" lon="1.89513">
        <ele>128.5</ele>
        <time>2015-09-27T07:56:24Z</time>
      </trkpt>
      <trkpt lat="47.9918" lon="1.89506">
        <ele>128.7</ele>
        <time>2015-09-27T07:56:26Z</time>
      </trkpt>
      <trkpt lat="47.99179" lon="1.89502">
        <ele>128.9</ele>
        <time>2015-09-27T07:56:31Z</time>
      </trkpt>
      <trkpt lat="47.99178" lon="1.89508">
        <ele>128.6</ele>
        <time>2015-09-27T07:56:34Z</time>
      </trkpt>
      <trkpt lat="47.99177" lon="1.89513">
        <ele>128.4</ele>
        <time>2015-09-27T07:56:35Z</time>
      </trkpt>
      <trkpt lat="47.99177" lon="1.89518">
        <ele>128.2</ele>
        <time>2015-09-27T07:56:36Z</time>
      </trkpt>
      <trkpt lat="47.99178" lon="1.89524">
        <ele>128</ele>
        <time>2015-09-27T07:56:37Z</time>
      </trkpt>
      <trkpt lat="47.99179" lon="1.89529">
        <ele>127.8</ele>
        <time>2015-09-27T07:56:38Z</time>
      </trkpt>
      <trkpt lat="47.99182" lon="1.89534">
        <ele>127.7</ele>
        <time>2015-09-27T07:56:39Z</time>
      </trkpt>
      <trkpt lat="47.99184" lon="1.89538">
        <ele>127.6</ele>
        <time>2015-09-27T07:56:40Z</time>
      </trkpt>
      <trkpt lat="47.99187" lon="1.89542">
        <ele>127.5</ele>
        <time>2015-09-27T07:56:41Z</time>
      </trkpt>
      <trkpt lat="47.99191" lon="1.89544">
        <ele>127.5</ele>
        <time>2015-09-27T07:56:42Z</time>
      </trkpt>
      <trkpt lat="47.99194" lon="1.89547">
        <ele>127.5</ele>
        <time>2015-09-27T07:56:43Z</time>
      </trkpt>
      <trkpt lat="47.99196" lon="1.8955">
        <ele>127.4</ele>
        <time>2015-09-27T07:56:47Z</time>
      </trkpt>
      <trkpt lat="47.99199" lon="1.89552">
        <ele>127.4</ele>
        <time>2015-09-27T07:56:52Z</time>
      </trkpt>
      <trkpt lat="47.99199" lon="1.89557">
        <ele>127.2</ele>
        <time>2015-09-27T07:57:00Z</time>
      </trkpt>
      <trkpt lat="47.99201" lon="1.89564">
        <ele>127</ele>
        <time>2015-09-27T07:57:02Z</time>
      </trkpt>
      <trkpt lat="47.99204" lon="1.8957">
        <ele>126.8</ele>
        <time>2015-09-27T07:57:04Z</time>
      </trkpt>
      <trkpt lat="47.99206" lon="1.89576">
        <ele>126.7</ele>
        <time>2015-09-27T07:57:06Z</time>
      </trkpt>
      <trkpt lat="47.99208" lon="1.89582">
        <ele>126.5</ele>
        <time>2015-09-27T07:57:08Z</time>
      </trkpt>
      <trkpt lat="47.99211" lon="1.89589">
        <ele>126.3</ele>
        <time>2015-09-27T07:57:10Z</time>
      </trkpt>
      <trkpt lat="47.99212" lon="1.89595">
        <ele>126.1</ele>
        <time>2015-09-27T07:57:12Z</time>
      </trkpt>
      <trkpt lat="47.99211" lon="1.89603">
        <ele>125.8</ele>
        <time>2015-09-27T07:57:14Z</time>
      </trkpt>
      <trkpt lat="47.9921" lon="1.89608">
        <ele>125.6</ele>
        <time>2015-09-27T07:57:15Z</time>
      </trkpt>
      <trkpt lat="47.99209" lon="1.89614">
        <ele>125.4</ele>
        <time>2015-09-27T07:57:16Z</time>
      </trkpt>
      <trkpt lat="47.99209" lon="1.8962">
        <ele>125.2</ele>
        <time>2015-09-27T07:57:18Z</time>
      </trkpt>
      <trkpt lat="47.99207" lon="1.89631">
        <ele>125.1</ele>
        <time>2015-09-27T07:57:19Z</time>
      </trkpt>
      <trkpt lat="47.99207" lon="1.89637">
        <ele>125.2</ele>
        <time>2015-09-27T07:57:20Z</time>
      </trkpt>
      <trkpt lat="47.99206" lon="1.89642">
        <ele>125.3</ele>
        <time>2015-09-27T07:57:21Z</time>
      </trkpt>
      <trkpt lat="47.99205" lon="1.89648">
        <ele>125.4</ele>
        <time>2015-09-27T07:57:22Z</time>
      </trkpt>
      <trkpt lat="47.99204" lon="1.89653">
        <ele>125.4</ele>
        <time>2015-09-27T07:57:23Z</time>
      </trkpt>
      <trkpt lat="47.99203" lon="1.89658">
        <ele>125.5</ele>
        <time>2015-09-27T07:57:24Z</time>
      </trkpt>
      <trkpt lat="47.99202" lon="1.89663">
        <ele>125.5</ele>
        <time>2015-09-27T07:57:25Z</time>
      </trkpt>
      <trkpt lat="47.99201" lon="1.89668">
        <ele>125.6</ele>
        <time>2015-09-27T07:57:26Z</time>
      </trkpt>
      <trkpt lat="47.992" lon="1.89673">
        <ele>125.6</ele>
        <time>2015-09-27T07:57:27Z</time>
      </trkpt>
      <trkpt lat="47.99199" lon="1.89678">
        <ele>125.7</ele>
        <time>2015-09-27T07:57:28Z</time>
      </trkpt>
      <trkpt lat="47.99198" lon="1.89684">
        <ele>125.8</ele>
        <time>2015-09-27T07:57:29Z</time>
      </trkpt>
      <trkpt lat="47.99197" lon="1.89691">
        <ele>125.8</ele>
        <time>2015-09-27T07:57:30Z</time>
      </trkpt>
      <trkpt lat="47.99196" lon="1.89696">
        <ele>125.8</ele>
        <time>2015-09-27T07:57:31Z</time>
      </trkpt>
      <trkpt lat="47.99194" lon="1.89702">
        <ele>125.9</ele>
        <time>2015-09-27T07:57:32Z</time>
      </trkpt>
      <trkpt lat="47.99193" lon="1.89708">
        <ele>125.9</ele>
        <time>2015-09-27T07:57:33Z</time>
      </trkpt>
      <trkpt lat="47.99192" lon="1.89714">
        <ele>125.9</ele>
        <time>2015-09-27T07:57:34Z</time>
      </trkpt>
      <trkpt lat="47.99192" lon="1.8972">
        <ele>126</ele>
        <time>2015-09-27T07:57:35Z</time>
      </trkpt>
      <trkpt lat="47.99191" lon="1.89725">
        <ele>126</ele>
        <time>2015-09-27T07:57:36Z</time>
      </trkpt>
      <trkpt lat="47.99191" lon="1.89731">
        <ele>126.1</ele>
        <time>2015-09-27T07:57:37Z</time>
      </trkpt>
      <trkpt lat="47.99191" lon="1.89737">
        <ele>126.2</ele>
        <time>2015-09-27T07:57:38Z</time>
      </trkpt>
      <trkpt lat="47.99191" lon="1.89743">
        <ele>126.3</ele>
        <time>2015-09-27T07:57:39Z</time>
      </trkpt>
      <trkpt lat="47.99192" lon="1.8975">
        <ele>126.4</ele>
        <time>2015-09-27T07:57:40Z</time>
      </trkpt>
      <trkpt lat="47.99192" lon="1.89759">
        <ele>126.5</ele>
        <time>2015-09-27T07:57:41Z</time>
      </trkpt>
      <trkpt lat="47.99192" lon="1.89768">
        <ele>126.7</ele>
        <time>2015-09-27T07:57:42Z</time>
      </trkpt>
      <trkpt lat="47.99192" lon="1.89777">
        <ele>126.8</ele>
        <time>2015-09-27T07:57:43Z</time>
      </trkpt>
      <trkpt lat="47.99192" lon="1.89787">
        <ele>126.9</ele>
        <time>2015-09-27T07:57:44Z</time>
      </trkpt>
      <trkpt lat="47.99192" lon="1.89797">
        <ele>126.9</ele>
        <time>2015-09-27T07:57:45Z</time>
      </trkpt>
      <trkpt lat="47.99192" lon="1.89806">
        <ele>126.7</ele>
        <time>2015-09-27T07:57:46Z</time>
      </trkpt>
      <trkpt lat="47.99192" lon="1.89816">
        <ele>126.5</ele>
        <time>2015-09-27T07:57:47Z</time>
      </trkpt>
      <trkpt lat="47.99192" lon="1.89824">
        <ele>126.3</ele>
        <time>2015-09-27T07:57:48Z</time>
      </trkpt>
      <trkpt lat="47.99192" lon="1.89833">
        <ele>126.1</ele>
        <time>2015-09-27T07:57:49Z</time>
      </trkpt>
      <trkpt lat="47.99194" lon="1.89843">
        <ele>126</ele>
        <time>2015-09-27T07:57:50Z</time>
      </trkpt>
      <trkpt lat="47.99196" lon="1.89853">
        <ele>125.9</ele>
        <time>2015-09-27T07:57:51Z</time>
      </trkpt>
      <trkpt lat="47.99197" lon="1.89862">
        <ele>125.7</ele>
        <time>2015-09-27T07:57:52Z</time>
      </trkpt>
      <trkpt lat="47.99197" lon="1.89872">
        <ele>125.5</ele>
        <time>2015-09-27T07:57:53Z</time>
      </trkpt>
      <trkpt lat="47.99198" lon="1.89881">
        <ele>125.4</ele>
        <time>2015-09-27T07:57:54Z</time>
      </trkpt>
      <trkpt lat="47.99198" lon="1.89891">
        <ele>125.3</ele>
        <time>2015-09-27T07:57:55Z</time>
      </trkpt>
      <trkpt lat="47.99198" lon="1.899">
        <ele>125.2</ele>
        <time>2015-09-27T07:57:56Z</time>
      </trkpt>
      <trkpt lat="47.99198" lon="1.8991">
        <ele>125</ele>
        <time>2015-09-27T07:57:57Z</time>
      </trkpt>
      <trkpt lat="47.99198" lon="1.89919">
        <ele>124.9</ele>
        <time>2015-09-27T07:57:58Z</time>
      </trkpt>
      <trkpt lat="47.99198" lon="1.89928">
        <ele>124.8</ele>
        <time>2015-09-27T07:57:59Z</time>
      </trkpt>
      <trkpt lat="47.99197" lon="1.89937">
        <ele>124.6</ele>
        <time>2015-09-27T07:58:00Z</time>
      </trkpt>
      <trkpt lat="47.99197" lon="1.89946">
        <ele>124.5</ele>
        <time>2015-09-27T07:58:01Z</time>
      </trkpt>
      <trkpt lat="47.99198" lon="1.89954">
        <ele>124.4</ele>
        <time>2015-09-27T07:58:02Z</time>
      </trkpt>
      <trkpt lat="47.99199" lon="1.89961">
        <ele>124.4</ele>
        <time>2015-09-27T07:58:03Z</time>
      </trkpt>
      <trkpt lat="47.99199" lon="1.89968">
        <ele>124.5</ele>
        <time>2015-09-27T07:58:04Z</time>
      </trkpt>
      <trkpt lat="47.99199" lon="1.89975">
        <ele>124.5</ele>
        <time>2015-09-27T07:58:05Z</time>
      </trkpt>
      <trkpt lat="47.99199" lon="1.89981">
        <ele>124.4</ele>
        <time>2015-09-27T07:58:06Z</time>
      </trkpt>
      <trkpt lat="47.99198" lon="1.89988">
        <ele>124.4</ele>
        <time>2015-09-27T07:58:07Z</time>
      </trkpt>
      <trkpt lat="47.99196" lon="1.89994">
        <ele>124.3</ele>
        <time>2015-09-27T07:58:08Z</time>
      </trkpt>
      <trkpt lat="47.99194" lon="1.90001">
        <ele>124.1</ele>
        <time>2015-09-27T07:58:09Z</time>
      </trkpt>
      <trkpt lat="47.9919" lon="1.90007">
        <ele>123.9</ele>
        <time>2015-09-27T07:58:10Z</time>
      </trkpt>
      <trkpt lat="47.99186" lon="1.90013">
        <ele>123.7</ele>
        <time>2015-09-27T07:58:11Z</time>
      </trkpt>
      <trkpt lat="47.99183" lon="1.9002">
        <ele>123.5</ele>
        <time>2015-09-27T07:58:12Z</time>
      </trkpt>
      <trkpt lat="47.9918" lon="1.90027">
        <ele>123.3</ele>
        <time>2015-09-27T07:58:13Z</time>
      </trkpt>
      <trkpt lat="47.99178" lon="1.90035">
        <ele>123.2</ele>
        <time>2015-09-27T07:58:14Z</time>
      </trkpt>
      <trkpt lat="47.99176" lon="1.90042">
        <ele>123.1</ele>
        <time>2015-09-27T07:58:15Z</time>
      </trkpt>
      <trkpt lat="47.99173" lon="1.9005">
        <ele>122.9</ele>
        <time>2015-09-27T07:58:16Z</time>
      </trkpt>
      <trkpt lat="47.9917" lon="1.90058">
        <ele>122.7</ele>
        <time>2015-09-27T07:58:17Z</time>
      </trkpt>
      <trkpt lat="47.99166" lon="1.90066">
        <ele>122.5</ele>
        <time>2015-09-27T07:58:18Z</time>
      </trkpt>
      <trkpt lat="47.99162" lon="1.90073">
        <ele>122.3</ele>
        <time>2015-09-27T07:58:19Z</time>
      </trkpt>
      <trkpt lat="47.99159" lon="1.90081">
        <ele>122.1</ele>
        <time>2015-09-27T07:58:20Z</time>
      </trkpt>
      <trkpt lat="47.99156" lon="1.90089">
        <ele>122</ele>
        <time>2015-09-27T07:58:21Z</time>
      </trkpt>
      <trkpt lat="47.99153" lon="1.90096">
        <ele>121.9</ele>
        <time>2015-09-27T07:58:22Z</time>
      </trkpt>
      <trkpt lat="47.9915" lon="1.90103">
        <ele>121.8</ele>
        <time>2015-09-27T07:58:23Z</time>
      </trkpt>
      <trkpt lat="47.99145" lon="1.90109">
        <ele>121.6</ele>
        <time>2015-09-27T07:58:24Z</time>
      </trkpt>
      <trkpt lat="47.9914" lon="1.90114">
        <ele>121.4</ele>
        <time>2015-09-27T07:58:25Z</time>
      </trkpt>
      <trkpt lat="47.99134" lon="1.90119">
        <ele>121.3</ele>
        <time>2015-09-27T07:58:26Z</time>
      </trkpt>
      <trkpt lat="47.99128" lon="1.90123">
        <ele>121.1</ele>
        <time>2015-09-27T07:58:27Z</time>
      </trkpt>
      <trkpt lat="47.99121" lon="1.90127">
        <ele>121.4</ele>
        <time>2015-09-27T07:58:28Z</time>
      </trkpt>
      <trkpt lat="47.99115" lon="1.9013">
        <ele>122</ele>
        <time>2015-09-27T07:58:29Z</time>
      </trkpt>
      <trkpt lat="47.99109" lon="1.90134">
        <ele>122.7</ele>
        <time>2015-09-27T07:58:30Z</time>
      </trkpt>
      <trkpt lat="47.99102" lon="1.90138">
        <ele>123.3</ele>
        <time>2015-09-27T07:58:31Z</time>
      </trkpt>
      <trkpt lat="47.99096" lon="1.90143">
        <ele>124</ele>
        <time>2015-09-27T07:58:32Z</time>
      </trkpt>
      <trkpt lat="47.9909" lon="1.90147">
        <ele>124.7</ele>
        <time>2015-09-27T07:58:33Z</time>
      </trkpt>
      <trkpt lat="47.99084" lon="1.9015">
        <ele>125.3</ele>
        <time>2015-09-27T07:58:34Z</time>
      </trkpt>
      <trkpt lat="47.99078" lon="1.90153">
        <ele>125.8</ele>
        <time>2015-09-27T07:58:35Z</time>
      </trkpt>
      <trkpt lat="47.99073" lon="1.90155">
        <ele>126.4</ele>
        <time>2015-09-27T07:58:36Z</time>
      </trkpt>
      <trkpt lat="47.99067" lon="1.90156">
        <ele>126.9</ele>
        <time>2015-09-27T07:58:37Z</time>
      </trkpt>
      <trkpt lat="47.99062" lon="1.90155">
        <ele>127.4</ele>
        <time>2015-09-27T07:58:38Z</time>
      </trkpt>
      <trkpt lat="47.99059" lon="1.90151">
        <ele>127.7</ele>
        <time>2015-09-27T07:58:39Z</time>
      </trkpt>
      <trkpt lat="47.99057" lon="1.90145">
        <ele>127.8</ele>
        <time>2015-09-27T07:58:40Z</time>
      </trkpt>
      <trkpt lat="47.99055" lon="1.90137">
        <ele>127.8</ele>
        <time>2015-09-27T07:58:41Z</time>
      </trkpt>
      <trkpt lat="47.99055" lon="1.9013">
        <ele>127.8</ele>
        <time>2015-09-27T07:58:42Z</time>
      </trkpt>
      <trkpt lat="47.99053" lon="1.90121">
        <ele>127.8</ele>
        <time>2015-09-27T07:58:43Z</time>
      </trkpt>
      <trkpt lat="47.99052" lon="1.90113">
        <ele>127.6</ele>
        <time>2015-09-27T07:58:44Z</time>
      </trkpt>
      <trkpt lat="47.99049" lon="1.90108">
        <ele>127.7</ele>
        <time>2015-09-27T07:58:45Z</time>
      </trkpt>
      <trkpt lat="47.99046" lon="1.90099">
        <ele>127.7</ele>
        <time>2015-09-27T07:58:46Z</time>
      </trkpt>
      <trkpt lat="47.99043" lon="1.90092">
        <ele>127.7</ele>
        <time>2015-09-27T07:58:47Z</time>
      </trkpt>
      <trkpt lat="47.99038" lon="1.90083">
        <ele>127.7</ele>
        <time>2015-09-27T07:58:48Z</time>
      </trkpt>
      <trkpt lat="47.99035" lon="1.90077">
        <ele>127.7</ele>
        <time>2015-09-27T07:58:49Z</time>
      </trkpt>
      <trkpt lat="47.99032" lon="1.90069">
        <ele>127.7</ele>
        <time>2015-09-27T07:58:50Z</time>
      </trkpt>
      <trkpt lat="47.99028" lon="1.90062">
        <ele>127.7</ele>
        <time>2015-09-27T07:58:51Z</time>
      </trkpt>
      <trkpt lat="47.99024" lon="1.90054">
        <ele>127.8</ele>
        <time>2015-09-27T07:58:52Z</time>
      </trkpt>
      <trkpt lat="47.99021" lon="1.90048">
        <ele>127.9</ele>
        <time>2015-09-27T07:58:53Z</time>
      </trkpt>
      <trkpt lat="47.99017" lon="1.90041">
        <ele>128</ele>
        <time>2015-09-27T07:58:55Z</time>
      </trkpt>
      <trkpt lat="47.9901" lon="1.90028">
        <ele>128.2</ele>
        <time>2015-09-27T07:58:56Z</time>
      </trkpt>
      <trkpt lat="47.99006" lon="1.9002">
        <ele>128.3</ele>
        <time>2015-09-27T07:58:57Z</time>
      </trkpt>
      <trkpt lat="47.99002" lon="1.90013">
        <ele>128.5</ele>
        <time>2015-09-27T07:58:58Z</time>
      </trkpt>
      <trkpt lat="47.98998" lon="1.90007">
        <ele>128.6</ele>
        <time>2015-09-27T07:58:59Z</time>
      </trkpt>
      <trkpt lat="47.98995" lon="1.9">
        <ele>128.8</ele>
        <time>2015-09-27T07:59:00Z</time>
      </trkpt>
      <trkpt lat="47.98991" lon="1.89993">
        <ele>129</ele>
        <time>2015-09-27T07:59:01Z</time>
      </trkpt>
      <trkpt lat="47.98987" lon="1.89986">
        <ele>129.3</ele>
        <time>2015-09-27T07:59:02Z</time>
      </trkpt>
      <trkpt lat="47.98983" lon="1.89978">
        <ele>129.5</ele>
        <time>2015-09-27T07:59:03Z</time>
      </trkpt>
      <trkpt lat="47.98979" lon="1.89972">
        <ele>129.8</ele>
        <time>2015-09-27T07:59:04Z</time>
      </trkpt>
      <trkpt lat="47.98974" lon="1.89963">
        <ele>130.2</ele>
        <time>2015-09-27T07:59:05Z</time>
      </trkpt>
      <trkpt lat="47.98971" lon="1.89957">
        <ele>130.4</ele>
        <time>2015-09-27T07:59:06Z</time>
      </trkpt>
      <trkpt lat="47.98966" lon="1.89948">
        <ele>130.3</ele>
        <time>2015-09-27T07:59:07Z</time>
      </trkpt>
      <trkpt lat="47.98963" lon="1.89943">
        <ele>130.2</ele>
        <time>2015-09-27T07:59:08Z</time>
      </trkpt>
      <trkpt lat="47.98958" lon="1.89934">
        <ele>129.9</ele>
        <time>2015-09-27T07:59:09Z</time>
      </trkpt>
      <trkpt lat="47.98955" lon="1.89928">
        <ele>129.5</ele>
        <time>2015-09-27T07:59:10Z</time>
      </trkpt>
      <trkpt lat="47.98952" lon="1.89922">
        <ele>129.1</ele>
        <time>2015-09-27T07:59:11Z</time>
      </trkpt>
      <trkpt lat="47.98949" lon="1.89917">
        <ele>128.7</ele>
        <time>2015-09-27T07:59:12Z</time>
      </trkpt>
      <trkpt lat="47.98945" lon="1.89908">
        <ele>128.2</ele>
        <time>2015-09-27T07:59:13Z</time>
      </trkpt>
      <trkpt lat="47.98941" lon="1.89901">
        <ele>127.8</ele>
        <time>2015-09-27T07:59:14Z</time>
      </trkpt>
      <trkpt lat="47.98938" lon="1.89896">
        <ele>127.6</ele>
        <time>2015-09-27T07:59:15Z</time>
      </trkpt>
      <trkpt lat="47.98933" lon="1.89886">
        <ele>127.2</ele>
        <time>2015-09-27T07:59:16Z</time>
      </trkpt>
      <trkpt lat="47.9893" lon="1.89879">
        <ele>126.9</ele>
        <time>2015-09-27T07:59:17Z</time>
      </trkpt>
      <trkpt lat="47.98925" lon="1.8987">
        <ele>126.7</ele>
        <time>2015-09-27T07:59:18Z</time>
      </trkpt>
      <trkpt lat="47.98922" lon="1.89863">
        <ele>126.6</ele>
        <time>2015-09-27T07:59:19Z</time>
      </trkpt>
      <trkpt lat="47.98918" lon="1.89856">
        <ele>126.4</ele>
        <time>2015-09-27T07:59:20Z</time>
      </trkpt>
      <trkpt lat="47.98914" lon="1.89849">
        <ele>126.2</ele>
        <time>2015-09-27T07:59:21Z</time>
      </trkpt>
      <trkpt lat="47.98911" lon="1.89843">
        <ele>126</ele>
        <time>2015-09-27T07:59:22Z</time>
      </trkpt>
      <trkpt lat="47.98908" lon="1.89836">
        <ele>125.8</ele>
        <time>2015-09-27T07:59:23Z</time>
      </trkpt>
      <trkpt lat="47.98904" lon="1.89828">
        <ele>125.6</ele>
        <time>2015-09-27T07:59:24Z</time>
      </trkpt>
      <trkpt lat="47.98901" lon="1.8982">
        <ele>125.4</ele>
        <time>2015-09-27T07:59:25Z</time>
      </trkpt>
      <trkpt lat="47.98896" lon="1.89811">
        <ele>125.1</ele>
        <time>2015-09-27T07:59:26Z</time>
      </trkpt>
      <trkpt lat="47.98893" lon="1.89804">
        <ele>124.8</ele>
        <time>2015-09-27T07:59:27Z</time>
      </trkpt>
      <trkpt lat="47.9889" lon="1.89797">
        <ele>124.6</ele>
        <time>2015-09-27T07:59:28Z</time>
      </trkpt>
      <trkpt lat="47.98887" lon="1.89791">
        <ele>124.4</ele>
        <time>2015-09-27T07:59:29Z</time>
      </trkpt>
      <trkpt lat="47.98883" lon="1.89784">
        <ele>124.3</ele>
        <time>2015-09-27T07:59:30Z</time>
      </trkpt>
      <trkpt lat="47.9888" lon="1.89777">
        <ele>124.2</ele>
        <time>2015-09-27T07:59:31Z</time>
      </trkpt>
      <trkpt lat="47.98877" lon="1.89773">
        <ele>124.2</ele>
        <time>2015-09-27T07:59:32Z</time>
      </trkpt>
      <trkpt lat="47.98873" lon="1.89768">
        <ele>124.2</ele>
        <time>2015-09-27T07:59:33Z</time>
      </trkpt>
      <trkpt lat="47.98866" lon="1.89766">
        <ele>124.2</ele>
        <time>2015-09-27T07:59:34Z</time>
      </trkpt>
      <trkpt lat="47.98861" lon="1.89767">
        <ele>124.3</ele>
        <time>2015-09-27T07:59:35Z</time>
      </trkpt>
      <trkpt lat="47.98855" lon="1.89767">
        <ele>124.4</ele>
        <time>2015-09-27T07:59:36Z</time>
      </trkpt>
      <trkpt lat="47.98849" lon="1.89767">
        <ele>124.4</ele>
        <time>2015-09-27T07:59:37Z</time>
      </trkpt>
      <trkpt lat="47.98844" lon="1.89768">
        <ele>124.5</ele>
        <time>2015-09-27T07:59:38Z</time>
      </trkpt>
      <trkpt lat="47.98839" lon="1.89768">
        <ele>124.6</ele>
        <time>2015-09-27T07:59:39Z</time>
      </trkpt>
      <trkpt lat="47.98833" lon="1.89769">
        <ele>124.7</ele>
        <time>2015-09-27T07:59:40Z</time>
      </trkpt>
      <trkpt lat="47.98828" lon="1.8977">
        <ele>124.8</ele>
        <time>2015-09-27T07:59:41Z</time>
      </trkpt>
      <trkpt lat="47.98823" lon="1.8977">
        <ele>124.8</ele>
        <time>2015-09-27T07:59:42Z</time>
      </trkpt>
      <trkpt lat="47.98817" lon="1.89771">
        <ele>124.9</ele>
        <time>2015-09-27T07:59:43Z</time>
      </trkpt>
      <trkpt lat="47.98812" lon="1.89772">
        <ele>125</ele>
        <time>2015-09-27T07:59:44Z</time>
      </trkpt>
      <trkpt lat="47.98807" lon="1.89772">
        <ele>125.1</ele>
        <time>2015-09-27T07:59:45Z</time>
      </trkpt>
      <trkpt lat="47.98801" lon="1.89773">
        <ele>125.2</ele>
        <time>2015-09-27T07:59:46Z</time>
      </trkpt>
      <trkpt lat="47.98796" lon="1.89774">
        <ele>125.3</ele>
        <time>2015-09-27T07:59:47Z</time>
      </trkpt>
      <trkpt lat="47.98791" lon="1.89774">
        <ele>125.4</ele>
        <time>2015-09-27T07:59:48Z</time>
      </trkpt>
      <trkpt lat="47.98786" lon="1.89775">
        <ele>125.7</ele>
        <time>2015-09-27T07:59:49Z</time>
      </trkpt>
      <trkpt lat="47.98781" lon="1.89775">
        <ele>125.9</ele>
        <time>2015-09-27T07:59:50Z</time>
      </trkpt>
      <trkpt lat="47.98776" lon="1.89776">
        <ele>126.2</ele>
        <time>2015-09-27T07:59:51Z</time>
      </trkpt>
      <trkpt lat="47.98737" lon="1.89788">
        <ele>128.5</ele>
        <time>2015-09-27T07:59:59Z</time>
      </trkpt>
      <trkpt lat="47.98731" lon="1.89788">
        <ele>128.7</ele>
        <time>2015-09-27T08:00:00Z</time>
      </trkpt>
      <trkpt lat="47.98727" lon="1.89789">
        <ele>129</ele>
        <time>2015-09-27T08:00:01Z</time>
      </trkpt>
      <trkpt lat="47.98722" lon="1.89789">
        <ele>129.2</ele>
        <time>2015-09-27T08:00:02Z</time>
      </trkpt>
      <trkpt lat="47.98717" lon="1.89789">
        <ele>129.5</ele>
        <time>2015-09-27T08:00:03Z</time>
      </trkpt>
      <trkpt lat="47.98711" lon="1.8979">
        <ele>129.8</ele>
        <time>2015-09-27T08:00:04Z</time>
      </trkpt>
      <trkpt lat="47.98706" lon="1.8979">
        <ele>130</ele>
        <time>2015-09-27T08:00:05Z</time>
      </trkpt>
      <trkpt lat="47.98702" lon="1.89786">
        <ele>129.9</ele>
        <time>2015-09-27T08:00:06Z</time>
      </trkpt>
      <trkpt lat="47.98698" lon="1.89782">
        <ele>129.8</ele>
        <time>2015-09-27T08:00:07Z</time>
      </trkpt>
      <trkpt lat="47.98691" lon="1.8978">
        <ele>129.8</ele>
        <time>2015-09-27T08:00:08Z</time>
      </trkpt>
      <trkpt lat="47.98687" lon="1.8977">
        <ele>129.4</ele>
        <time>2015-09-27T08:00:09Z</time>
      </trkpt>
      <trkpt lat="47.98686" lon="1.89762">
        <ele>129.1</ele>
        <time>2015-09-27T08:00:10Z</time>
      </trkpt>
      <trkpt lat="47.98685" lon="1.89755">
        <ele>128.8</ele>
        <time>2015-09-27T08:00:11Z</time>
      </trkpt>
      <trkpt lat="47.9868" lon="1.89749">
        <ele>128.6</ele>
        <time>2015-09-27T08:00:12Z</time>
      </trkpt>
      <trkpt lat="47.98676" lon="1.89746">
        <ele>128.5</ele>
        <time>2015-09-27T08:00:13Z</time>
      </trkpt>
      <trkpt lat="47.98673" lon="1.89742">
        <ele>128.4</ele>
        <time>2015-09-27T08:00:14Z</time>
      </trkpt>
      <trkpt lat="47.98669" lon="1.89736">
        <ele>128.2</ele>
        <time>2015-09-27T08:00:15Z</time>
      </trkpt>
      <trkpt lat="47.98665" lon="1.89727">
        <ele>127.8</ele>
        <time>2015-09-27T08:00:16Z</time>
      </trkpt>
      <trkpt lat="47.98662" lon="1.89724">
        <ele>127.7</ele>
        <time>2015-09-27T08:00:17Z</time>
      </trkpt>
      <trkpt lat="47.98658" lon="1.89724">
        <ele>127.7</ele>
        <time>2015-09-27T08:00:18Z</time>
      </trkpt>
      <trkpt lat="47.98654" lon="1.89717">
        <ele>127.4</ele>
        <time>2015-09-27T08:00:19Z</time>
      </trkpt>
      <trkpt lat="47.98653" lon="1.89713">
        <ele>127.2</ele>
        <time>2015-09-27T08:00:20Z</time>
      </trkpt>
      <trkpt lat="47.98652" lon="1.89707">
        <ele>126.9</ele>
        <time>2015-09-27T08:00:21Z</time>
      </trkpt>
      <trkpt lat="47.98647" lon="1.89704">
        <ele>126.7</ele>
        <time>2015-09-27T08:00:22Z</time>
      </trkpt>
      <trkpt lat="47.98643" lon="1.89701">
        <ele>126.5</ele>
        <time>2015-09-27T08:00:23Z</time>
      </trkpt>
      <trkpt lat="47.98638" lon="1.89698">
        <ele>126.3</ele>
        <time>2015-09-27T08:00:24Z</time>
      </trkpt>
      <trkpt lat="47.98634" lon="1.89695">
        <ele>126.1</ele>
        <time>2015-09-27T08:00:25Z</time>
      </trkpt>
      <trkpt lat="47.98628" lon="1.89691">
        <ele>125.8</ele>
        <time>2015-09-27T08:00:26Z</time>
      </trkpt>
      <trkpt lat="47.98624" lon="1.89689">
        <ele>125.6</ele>
        <time>2015-09-27T08:00:27Z</time>
      </trkpt>
      <trkpt lat="47.98618" lon="1.89687">
        <ele>125.8</ele>
        <time>2015-09-27T08:00:28Z</time>
      </trkpt>
      <trkpt lat="47.98614" lon="1.89684">
        <ele>125.7</ele>
        <time>2015-09-27T08:00:29Z</time>
      </trkpt>
      <trkpt lat="47.98609" lon="1.89681">
        <ele>125.6</ele>
        <time>2015-09-27T08:00:30Z</time>
      </trkpt>
      <trkpt lat="47.98604" lon="1.89677">
        <ele>125.6</ele>
        <time>2015-09-27T08:00:31Z</time>
      </trkpt>
      <trkpt lat="47.98597" lon="1.89674">
        <ele>125.7</ele>
        <time>2015-09-27T08:00:32Z</time>
      </trkpt>
      <trkpt lat="47.98591" lon="1.8967">
        <ele>125.7</ele>
        <time>2015-09-27T08:00:33Z</time>
      </trkpt>
      <trkpt lat="47.98585" lon="1.89668">
        <ele>125.8</ele>
        <time>2015-09-27T08:00:34Z</time>
      </trkpt>
      <trkpt lat="47.98581" lon="1.8967">
        <ele>126</ele>
        <time>2015-09-27T08:00:35Z</time>
      </trkpt>
      <trkpt lat="47.98576" lon="1.89666">
        <ele>126</ele>
        <time>2015-09-27T08:00:36Z</time>
      </trkpt>
      <trkpt lat="47.9857" lon="1.89665">
        <ele>126.2</ele>
        <time>2015-09-27T08:00:37Z</time>
      </trkpt>
      <trkpt lat="47.98566" lon="1.89662">
        <ele>126.2</ele>
        <time>2015-09-27T08:00:38Z</time>
      </trkpt>
      <trkpt lat="47.98562" lon="1.89657">
        <ele>126.1</ele>
        <time>2015-09-27T08:00:39Z</time>
      </trkpt>
      <trkpt lat="47.98559" lon="1.89654">
        <ele>126</ele>
        <time>2015-09-27T08:00:40Z</time>
      </trkpt>
      <trkpt lat="47.98554" lon="1.89651">
        <ele>126</ele>
        <time>2015-09-27T08:00:41Z</time>
      </trkpt>
      <trkpt lat="47.98551" lon="1.89644">
        <ele>125.7</ele>
        <time>2015-09-27T08:00:42Z</time>
      </trkpt>
      <trkpt lat="47.98546" lon="1.89639">
        <ele>125.7</ele>
        <time>2015-09-27T08:00:43Z</time>
      </trkpt>
      <trkpt lat="47.98542" lon="1.89635">
        <ele>125.6</ele>
        <time>2015-09-27T08:00:44Z</time>
      </trkpt>
      <trkpt lat="47.98537" lon="1.89632">
        <ele>125.7</ele>
        <time>2015-09-27T08:00:45Z</time>
      </trkpt>
      <trkpt lat="47.9853" lon="1.89628">
        <ele>125.9</ele>
        <time>2015-09-27T08:00:46Z</time>
      </trkpt>
      <trkpt lat="47.98524" lon="1.89622">
        <ele>126</ele>
        <time>2015-09-27T08:00:47Z</time>
      </trkpt>
      <trkpt lat="47.98518" lon="1.8962">
        <ele>126.3</ele>
        <time>2015-09-27T08:00:48Z</time>
      </trkpt>
      <trkpt lat="47.98512" lon="1.89614">
        <ele>126.4</ele>
        <time>2015-09-27T08:00:49Z</time>
      </trkpt>
      <trkpt lat="47.98507" lon="1.89609">
        <ele>126.5</ele>
        <time>2015-09-27T08:00:50Z</time>
      </trkpt>
      <trkpt lat="47.98499" lon="1.89605">
        <ele>126.9</ele>
        <time>2015-09-27T08:00:51Z</time>
      </trkpt>
      <trkpt lat="47.9849" lon="1.89602">
        <ele>127.2</ele>
        <time>2015-09-27T08:00:52Z</time>
      </trkpt>
      <trkpt lat="47.98489" lon="1.89598">
        <ele>127.1</ele>
        <time>2015-09-27T08:00:53Z</time>
      </trkpt>
      <trkpt lat="47.98489" lon="1.89573">
        <ele>126.1</ele>
        <time>2015-09-27T08:00:55Z</time>
      </trkpt>
      <trkpt lat="47.98488" lon="1.89567">
        <ele>125.9</ele>
        <time>2015-09-27T08:00:56Z</time>
      </trkpt>
      <trkpt lat="47.98481" lon="1.89568">
        <ele>126.3</ele>
        <time>2015-09-27T08:00:57Z</time>
      </trkpt>
      <trkpt lat="47.98479" lon="1.89555">
        <ele>125.8</ele>
        <time>2015-09-27T08:00:58Z</time>
      </trkpt>
      <trkpt lat="47.98471" lon="1.89551">
        <ele>126</ele>
        <time>2015-09-27T08:00:59Z</time>
      </trkpt>
      <trkpt lat="47.98468" lon="1.89542">
        <ele>125.6</ele>
        <time>2015-09-27T08:01:00Z</time>
      </trkpt>
      <trkpt lat="47.98461" lon="1.89543">
        <ele>126</ele>
        <time>2015-09-27T08:01:01Z</time>
      </trkpt>
      <trkpt lat="47.98456" lon="1.89541">
        <ele>126.1</ele>
        <time>2015-09-27T08:01:02Z</time>
      </trkpt>
      <trkpt lat="47.9845" lon="1.89535">
        <ele>126.3</ele>
        <time>2015-09-27T08:01:03Z</time>
      </trkpt>
      <trkpt lat="47.98447" lon="1.89532">
        <ele>126.4</ele>
        <time>2015-09-27T08:01:04Z</time>
      </trkpt>
      <trkpt lat="47.9844" lon="1.89525">
        <ele>126.8</ele>
        <time>2015-09-27T08:01:05Z</time>
      </trkpt>
      <trkpt lat="47.98433" lon="1.89523">
        <ele>127</ele>
        <time>2015-09-27T08:01:06Z</time>
      </trkpt>
      <trkpt lat="47.98428" lon="1.8952">
        <ele>127.3</ele>
        <time>2015-09-27T08:01:07Z</time>
      </trkpt>
      <trkpt lat="47.98424" lon="1.89514">
        <ele>127.5</ele>
        <time>2015-09-27T08:01:08Z</time>
      </trkpt>
      <trkpt lat="47.98416" lon="1.89512">
        <ele>127.9</ele>
        <time>2015-09-27T08:01:09Z</time>
      </trkpt>
      <trkpt lat="47.98411" lon="1.89508">
        <ele>128.2</ele>
        <time>2015-09-27T08:01:10Z</time>
      </trkpt>
      <trkpt lat="47.98413" lon="1.895">
        <ele>128.2</ele>
        <time>2015-09-27T08:01:11Z</time>
      </trkpt>
      <trkpt lat="47.98408" lon="1.89496">
        <ele>128.5</ele>
        <time>2015-09-27T08:01:12Z</time>
      </trkpt>
      <trkpt lat="47.98404" lon="1.89493">
        <ele>128.7</ele>
        <time>2015-09-27T08:01:13Z</time>
      </trkpt>
      <trkpt lat="47.984" lon="1.89488">
        <ele>129</ele>
        <time>2015-09-27T08:01:14Z</time>
      </trkpt>
      <trkpt lat="47.98392" lon="1.89486">
        <ele>129.4</ele>
        <time>2015-09-27T08:01:16Z</time>
      </trkpt>
      <trkpt lat="47.98388" lon="1.89483">
        <ele>129.7</ele>
        <time>2015-09-27T08:01:17Z</time>
      </trkpt>
      <trkpt lat="47.9838" lon="1.89482">
        <ele>130.1</ele>
        <time>2015-09-27T08:01:18Z</time>
      </trkpt>
      <trkpt lat="47.98377" lon="1.89479">
        <ele>130.4</ele>
        <time>2015-09-27T08:01:19Z</time>
      </trkpt>
      <trkpt lat="47.98375" lon="1.89473">
        <ele>130.7</ele>
        <time>2015-09-27T08:01:20Z</time>
      </trkpt>
      <trkpt lat="47.9837" lon="1.89469">
        <ele>130.8</ele>
        <time>2015-09-27T08:01:21Z</time>
      </trkpt>
      <trkpt lat="47.98365" lon="1.89466">
        <ele>131</ele>
        <time>2015-09-27T08:01:22Z</time>
      </trkpt>
      <trkpt lat="47.98361" lon="1.89463">
        <ele>131.1</ele>
        <time>2015-09-27T08:01:23Z</time>
      </trkpt>
      <trkpt lat="47.98355" lon="1.89457">
        <ele>131.2</ele>
        <time>2015-09-27T08:01:24Z</time>
      </trkpt>
      <trkpt lat="47.9835" lon="1.89455">
        <ele>131.3</ele>
        <time>2015-09-27T08:01:25Z</time>
      </trkpt>
      <trkpt lat="47.98346" lon="1.89448">
        <ele>131.3</ele>
        <time>2015-09-27T08:01:27Z</time>
      </trkpt>
      <trkpt lat="47.98343" lon="1.8944">
        <ele>131.2</ele>
        <time>2015-09-27T08:01:28Z</time>
      </trkpt>
      <trkpt lat="47.98341" lon="1.89431">
        <ele>131.1</ele>
        <time>2015-09-27T08:01:29Z</time>
      </trkpt>
      <trkpt lat="47.98336" lon="1.89425">
        <ele>131.1</ele>
        <time>2015-09-27T08:01:30Z</time>
      </trkpt>
      <trkpt lat="47.98333" lon="1.89419">
        <ele>131</ele>
        <time>2015-09-27T08:01:31Z</time>
      </trkpt>
      <trkpt lat="47.98329" lon="1.89414">
        <ele>131</ele>
        <time>2015-09-27T08:01:32Z</time>
      </trkpt>
      <trkpt lat="47.98325" lon="1.89412">
        <ele>130.9</ele>
        <time>2015-09-27T08:01:33Z</time>
      </trkpt>
      <trkpt lat="47.9832" lon="1.89408">
        <ele>130.9</ele>
        <time>2015-09-27T08:01:34Z</time>
      </trkpt>
      <trkpt lat="47.98314" lon="1.89408">
        <ele>130.8</ele>
        <time>2015-09-27T08:01:35Z</time>
      </trkpt>
      <trkpt lat="47.98309" lon="1.89402">
        <ele>130.7</ele>
        <time>2015-09-27T08:01:36Z</time>
      </trkpt>
      <trkpt lat="47.98303" lon="1.89398">
        <ele>130.6</ele>
        <time>2015-09-27T08:01:37Z</time>
      </trkpt>
      <trkpt lat="47.98297" lon="1.89393">
        <ele>130.5</ele>
        <time>2015-09-27T08:01:38Z</time>
      </trkpt>
      <trkpt lat="47.98292" lon="1.89387">
        <ele>130.3</ele>
        <time>2015-09-27T08:01:39Z</time>
      </trkpt>
      <trkpt lat="47.98287" lon="1.89381">
        <ele>130.1</ele>
        <time>2015-09-27T08:01:40Z</time>
      </trkpt>
      <trkpt lat="47.98282" lon="1.89375">
        <ele>130</ele>
        <time>2015-09-27T08:01:41Z</time>
      </trkpt>
      <trkpt lat="47.98277" lon="1.8937">
        <ele>130</ele>
        <time>2015-09-27T08:01:42Z</time>
      </trkpt>
      <trkpt lat="47.98274" lon="1.89366">
        <ele>129.9</ele>
        <time>2015-09-27T08:01:43Z</time>
      </trkpt>
      <trkpt lat="47.98271" lon="1.8936">
        <ele>129.9</ele>
        <time>2015-09-27T08:01:44Z</time>
      </trkpt>
      <trkpt lat="47.98267" lon="1.89355">
        <ele>129.8</ele>
        <time>2015-09-27T08:01:45Z</time>
      </trkpt>
      <trkpt lat="47.98262" lon="1.89351">
        <ele>129.8</ele>
        <time>2015-09-27T08:01:46Z</time>
      </trkpt>
      <trkpt lat="47.98257" lon="1.89347">
        <ele>129.8</ele>
        <time>2015-09-27T08:01:47Z</time>
      </trkpt>
      <trkpt lat="47.98251" lon="1.89344">
        <ele>129.8</ele>
        <time>2015-09-27T08:01:48Z</time>
      </trkpt>
      <trkpt lat="47.98246" lon="1.8934">
        <ele>129.8</ele>
        <time>2015-09-27T08:01:49Z</time>
      </trkpt>
      <trkpt lat="47.98241" lon="1.89337">
        <ele>129.8</ele>
        <time>2015-09-27T08:01:50Z</time>
      </trkpt>
      <trkpt lat="47.98237" lon="1.89331">
        <ele>129.8</ele>
        <time>2015-09-27T08:01:51Z</time>
      </trkpt>
      <trkpt lat="47.98232" lon="1.89328">
        <ele>129.8</ele>
        <time>2015-09-27T08:01:52Z</time>
      </trkpt>
      <trkpt lat="47.98227" lon="1.89325">
        <ele>129.9</ele>
        <time>2015-09-27T08:01:53Z</time>
      </trkpt>
      <trkpt lat="47.98223" lon="1.89319">
        <ele>129.9</ele>
        <time>2015-09-27T08:01:54Z</time>
      </trkpt>
      <trkpt lat="47.98218" lon="1.89315">
        <ele>129.9</ele>
        <time>2015-09-27T08:01:55Z</time>
      </trkpt>
      <trkpt lat="47.98212" lon="1.89314">
        <ele>130</ele>
        <time>2015-09-27T08:01:56Z</time>
      </trkpt>
      <trkpt lat="47.98208" lon="1.89309">
        <ele>130</ele>
        <time>2015-09-27T08:01:57Z</time>
      </trkpt>
      <trkpt lat="47.98203" lon="1.89307">
        <ele>130</ele>
        <time>2015-09-27T08:01:58Z</time>
      </trkpt>
      <trkpt lat="47.98199" lon="1.89303">
        <ele>130</ele>
        <time>2015-09-27T08:01:59Z</time>
      </trkpt>
      <trkpt lat="47.98193" lon="1.89301">
        <ele>130</ele>
        <time>2015-09-27T08:02:00Z</time>
      </trkpt>
      <trkpt lat="47.9819" lon="1.89297">
        <ele>130</ele>
        <time>2015-09-27T08:02:01Z</time>
      </trkpt>
      <trkpt lat="47.98185" lon="1.89293">
        <ele>130</ele>
        <time>2015-09-27T08:02:02Z</time>
      </trkpt>
      <trkpt lat="47.9818" lon="1.8929">
        <ele>130</ele>
        <time>2015-09-27T08:02:03Z</time>
      </trkpt>
      <trkpt lat="47.98175" lon="1.89286">
        <ele>130</ele>
        <time>2015-09-27T08:02:04Z</time>
      </trkpt>
      <trkpt lat="47.9817" lon="1.89283">
        <ele>130.1</ele>
        <time>2015-09-27T08:02:05Z</time>
      </trkpt>
      <trkpt lat="47.98165" lon="1.89279">
        <ele>130.1</ele>
        <time>2015-09-27T08:02:06Z</time>
      </trkpt>
      <trkpt lat="47.98161" lon="1.89273">
        <ele>130.1</ele>
        <time>2015-09-27T08:02:07Z</time>
      </trkpt>
      <trkpt lat="47.98156" lon="1.89268">
        <ele>130.1</ele>
        <time>2015-09-27T08:02:08Z</time>
      </trkpt>
      <trkpt lat="47.98151" lon="1.89265">
        <ele>130.1</ele>
        <time>2015-09-27T08:02:09Z</time>
      </trkpt>
      <trkpt lat="47.98149" lon="1.89258">
        <ele>130.1</ele>
        <time>2015-09-27T08:02:10Z</time>
      </trkpt>
      <trkpt lat="47.98145" lon="1.89253">
        <ele>130.1</ele>
        <time>2015-09-27T08:02:11Z</time>
      </trkpt>
      <trkpt lat="47.98141" lon="1.89249">
        <ele>130.1</ele>
        <time>2015-09-27T08:02:12Z</time>
      </trkpt>
      <trkpt lat="47.98136" lon="1.89245">
        <ele>130.1</ele>
        <time>2015-09-27T08:02:13Z</time>
      </trkpt>
      <trkpt lat="47.98134" lon="1.8924">
        <ele>130.1</ele>
        <time>2015-09-27T08:02:14Z</time>
      </trkpt>
      <trkpt lat="47.98126" lon="1.89239">
        <ele>130</ele>
        <time>2015-09-27T08:02:15Z</time>
      </trkpt>
      <trkpt lat="47.98123" lon="1.89234">
        <ele>130.1</ele>
        <time>2015-09-27T08:02:16Z</time>
      </trkpt>
      <trkpt lat="47.98116" lon="1.89232">
        <ele>130.2</ele>
        <time>2015-09-27T08:02:17Z</time>
      </trkpt>
      <trkpt lat="47.98114" lon="1.89224">
        <ele>130.3</ele>
        <time>2015-09-27T08:02:18Z</time>
      </trkpt>
      <trkpt lat="47.98112" lon="1.89217">
        <ele>130.3</ele>
        <time>2015-09-27T08:02:19Z</time>
      </trkpt>
      <trkpt lat="47.98107" lon="1.89211">
        <ele>130.4</ele>
        <time>2015-09-27T08:02:20Z</time>
      </trkpt>
      <trkpt lat="47.98103" lon="1.89206">
        <ele>130.4</ele>
        <time>2015-09-27T08:02:21Z</time>
      </trkpt>
      <trkpt lat="47.98096" lon="1.89203">
        <ele>130.5</ele>
        <time>2015-09-27T08:02:22Z</time>
      </trkpt>
      <trkpt lat="47.98095" lon="1.89195">
        <ele>130.3</ele>
        <time>2015-09-27T08:02:23Z</time>
      </trkpt>
      <trkpt lat="47.98092" lon="1.89189">
        <ele>130.1</ele>
        <time>2015-09-27T08:02:24Z</time>
      </trkpt>
      <trkpt lat="47.98088" lon="1.89186">
        <ele>130.2</ele>
        <time>2015-09-27T08:02:25Z</time>
      </trkpt>
      <trkpt lat="47.98082" lon="1.89185">
        <ele>130.3</ele>
        <time>2015-09-27T08:02:26Z</time>
      </trkpt>
      <trkpt lat="47.9808" lon="1.8918">
        <ele>130.3</ele>
        <time>2015-09-27T08:02:27Z</time>
      </trkpt>
      <trkpt lat="47.98077" lon="1.89177">
        <ele>130.3</ele>
        <time>2015-09-27T08:02:28Z</time>
      </trkpt>
      <trkpt lat="47.98074" lon="1.89173">
        <ele>130.3</ele>
        <time>2015-09-27T08:02:29Z</time>
      </trkpt>
      <trkpt lat="47.98074" lon="1.89169">
        <ele>130.2</ele>
        <time>2015-09-27T08:02:30Z</time>
      </trkpt>
      <trkpt lat="47.98065" lon="1.89173">
        <ele>130.6</ele>
        <time>2015-09-27T08:02:31Z</time>
      </trkpt>
      <trkpt lat="47.98061" lon="1.89171">
        <ele>130.8</ele>
        <time>2015-09-27T08:02:32Z</time>
      </trkpt>
      <trkpt lat="47.98057" lon="1.89169">
        <ele>130.9</ele>
        <time>2015-09-27T08:02:33Z</time>
      </trkpt>
      <trkpt lat="47.98051" lon="1.8917">
        <ele>131.2</ele>
        <time>2015-09-27T08:02:34Z</time>
      </trkpt>
      <trkpt lat="47.98047" lon="1.8917">
        <ele>131.3</ele>
        <time>2015-09-27T08:02:35Z</time>
      </trkpt>
      <trkpt lat="47.98044" lon="1.89168">
        <ele>131.4</ele>
        <time>2015-09-27T08:02:36Z</time>
      </trkpt>
      <trkpt lat="47.98041" lon="1.89166">
        <ele>131.5</ele>
        <time>2015-09-27T08:02:37Z</time>
      </trkpt>
      <trkpt lat="47.98038" lon="1.89164">
        <ele>131.4</ele>
        <time>2015-09-27T08:02:38Z</time>
      </trkpt>
      <trkpt lat="47.98034" lon="1.89162">
        <ele>131.4</ele>
        <time>2015-09-27T08:02:39Z</time>
      </trkpt>
      <trkpt lat="47.98031" lon="1.89159">
        <ele>131.3</ele>
        <time>2015-09-27T08:02:40Z</time>
      </trkpt>
      <trkpt lat="47.98027" lon="1.89156">
        <ele>131.2</ele>
        <time>2015-09-27T08:02:41Z</time>
      </trkpt>
      <trkpt lat="47.98023" lon="1.89152">
        <ele>131.1</ele>
        <time>2015-09-27T08:02:42Z</time>
      </trkpt>
      <trkpt lat="47.98019" lon="1.89149">
        <ele>131</ele>
        <time>2015-09-27T08:02:43Z</time>
      </trkpt>
      <trkpt lat="47.98015" lon="1.89145">
        <ele>130.8</ele>
        <time>2015-09-27T08:02:44Z</time>
      </trkpt>
      <trkpt lat="47.98011" lon="1.89141">
        <ele>130.7</ele>
        <time>2015-09-27T08:02:45Z</time>
      </trkpt>
      <trkpt lat="47.98007" lon="1.89137">
        <ele>130.5</ele>
        <time>2015-09-27T08:02:46Z</time>
      </trkpt>
      <trkpt lat="47.98004" lon="1.89133">
        <ele>130.3</ele>
        <time>2015-09-27T08:02:47Z</time>
      </trkpt>
      <trkpt lat="47.98" lon="1.8913">
        <ele>130.1</ele>
        <time>2015-09-27T08:02:48Z</time>
      </trkpt>
      <trkpt lat="47.97997" lon="1.89126">
        <ele>130</ele>
        <time>2015-09-27T08:02:49Z</time>
      </trkpt>
      <trkpt lat="47.97993" lon="1.89123">
        <ele>129.8</ele>
        <time>2015-09-27T08:02:50Z</time>
      </trkpt>
      <trkpt lat="47.9799" lon="1.89121">
        <ele>129.6</ele>
        <time>2015-09-27T08:02:51Z</time>
      </trkpt>
      <trkpt lat="47.97987" lon="1.89118">
        <ele>129.4</ele>
        <time>2015-09-27T08:02:52Z</time>
      </trkpt>
      <trkpt lat="47.97983" lon="1.89114">
        <ele>129.3</ele>
        <time>2015-09-27T08:02:53Z</time>
      </trkpt>
      <trkpt lat="47.97981" lon="1.89111">
        <ele>129.1</ele>
        <time>2015-09-27T08:02:54Z</time>
      </trkpt>
      <trkpt lat="47.97978" lon="1.89107">
        <ele>128.9</ele>
        <time>2015-09-27T08:02:55Z</time>
      </trkpt>
      <trkpt lat="47.97976" lon="1.89102">
        <ele>128.8</ele>
        <time>2015-09-27T08:02:56Z</time>
      </trkpt>
      <trkpt lat="47.97974" lon="1.89098">
        <ele>128.6</ele>
        <time>2015-09-27T08:02:57Z</time>
      </trkpt>
      <trkpt lat="47.97972" lon="1.89093">
        <ele>128.4</ele>
        <time>2015-09-27T08:02:58Z</time>
      </trkpt>
      <trkpt lat="47.97969" lon="1.8909">
        <ele>128.3</ele>
        <time>2015-09-27T08:02:59Z</time>
      </trkpt>
      <trkpt lat="47.97966" lon="1.8909">
        <ele>128.3</ele>
        <time>2015-09-27T08:03:00Z</time>
      </trkpt>
      <trkpt lat="47.97962" lon="1.89092">
        <ele>128.3</ele>
        <time>2015-09-27T08:03:01Z</time>
      </trkpt>
      <trkpt lat="47.97959" lon="1.89097">
        <ele>128.3</ele>
        <time>2015-09-27T08:03:02Z</time>
      </trkpt>
      <trkpt lat="47.97957" lon="1.89102">
        <ele>128.4</ele>
        <time>2015-09-27T08:03:03Z</time>
      </trkpt>
      <trkpt lat="47.97955" lon="1.89108">
        <ele>128.5</ele>
        <time>2015-09-27T08:03:04Z</time>
      </trkpt>
      <trkpt lat="47.97955" lon="1.89113">
        <ele>128.6</ele>
        <time>2015-09-27T08:03:05Z</time>
      </trkpt>
      <trkpt lat="47.97954" lon="1.89118">
        <ele>128.8</ele>
        <time>2015-09-27T08:03:06Z</time>
      </trkpt>
      <trkpt lat="47.97953" lon="1.89122">
        <ele>128.9</ele>
        <time>2015-09-27T08:03:07Z</time>
      </trkpt>
      <trkpt lat="47.97951" lon="1.89127">
        <ele>129</ele>
        <time>2015-09-27T08:03:08Z</time>
      </trkpt>
      <trkpt lat="47.9795" lon="1.89132">
        <ele>129.2</ele>
        <time>2015-09-27T08:03:09Z</time>
      </trkpt>
      <trkpt lat="47.97949" lon="1.89137">
        <ele>129.5</ele>
        <time>2015-09-27T08:03:10Z</time>
      </trkpt>
      <trkpt lat="47.97948" lon="1.89143">
        <ele>129.7</ele>
        <time>2015-09-27T08:03:11Z</time>
      </trkpt>
      <trkpt lat="47.97947" lon="1.89149">
        <ele>130</ele>
        <time>2015-09-27T08:03:12Z</time>
      </trkpt>
      <trkpt lat="47.97944" lon="1.89155">
        <ele>130.3</ele>
        <time>2015-09-27T08:03:13Z</time>
      </trkpt>
      <trkpt lat="47.97942" lon="1.89162">
        <ele>130.7</ele>
        <time>2015-09-27T08:03:14Z</time>
      </trkpt>
      <trkpt lat="47.9794" lon="1.89169">
        <ele>131</ele>
        <time>2015-09-27T08:03:15Z</time>
      </trkpt>
      <trkpt lat="47.97937" lon="1.89176">
        <ele>131.4</ele>
        <time>2015-09-27T08:03:16Z</time>
      </trkpt>
      <trkpt lat="47.97936" lon="1.89183">
        <ele>131.7</ele>
        <time>2015-09-27T08:03:17Z</time>
      </trkpt>
      <trkpt lat="47.97934" lon="1.8919">
        <ele>132.1</ele>
        <time>2015-09-27T08:03:18Z</time>
      </trkpt>
      <trkpt lat="47.97932" lon="1.89197">
        <ele>132.4</ele>
        <time>2015-09-27T08:03:19Z</time>
      </trkpt>
      <trkpt lat="47.9793" lon="1.89203">
        <ele>132.7</ele>
        <time>2015-09-27T08:03:20Z</time>
      </trkpt>
      <trkpt lat="47.97927" lon="1.8921">
        <ele>133</ele>
        <time>2015-09-27T08:03:21Z</time>
      </trkpt>
      <trkpt lat="47.97925" lon="1.89217">
        <ele>132.8</ele>
        <time>2015-09-27T08:03:22Z</time>
      </trkpt>
      <trkpt lat="47.97922" lon="1.89225">
        <ele>132.6</ele>
        <time>2015-09-27T08:03:23Z</time>
      </trkpt>
      <trkpt lat="47.97918" lon="1.89234">
        <ele>132.4</ele>
        <time>2015-09-27T08:03:24Z</time>
      </trkpt>
      <trkpt lat="47.97914" lon="1.89243">
        <ele>132.1</ele>
        <time>2015-09-27T08:03:25Z</time>
      </trkpt>
      <trkpt lat="47.97911" lon="1.89252">
        <ele>131.9</ele>
        <time>2015-09-27T08:03:26Z</time>
      </trkpt>
      <trkpt lat="47.97908" lon="1.89259">
        <ele>131.6</ele>
        <time>2015-09-27T08:03:27Z</time>
      </trkpt>
      <trkpt lat="47.97906" lon="1.89266">
        <ele>131.4</ele>
        <time>2015-09-27T08:03:28Z</time>
      </trkpt>
      <trkpt lat="47.97903" lon="1.89273">
        <ele>131.2</ele>
        <time>2015-09-27T08:03:29Z</time>
      </trkpt>
      <trkpt lat="47.97901" lon="1.8928">
        <ele>131</ele>
        <time>2015-09-27T08:03:30Z</time>
      </trkpt>
      <trkpt lat="47.97898" lon="1.89287">
        <ele>130.7</ele>
        <time>2015-09-27T08:03:31Z</time>
      </trkpt>
      <trkpt lat="47.97895" lon="1.89296">
        <ele>130.4</ele>
        <time>2015-09-27T08:03:32Z</time>
      </trkpt>
      <trkpt lat="47.97893" lon="1.89303">
        <ele>130.1</ele>
        <time>2015-09-27T08:03:33Z</time>
      </trkpt>
      <trkpt lat="47.97889" lon="1.89311">
        <ele>129.9</ele>
        <time>2015-09-27T08:03:34Z</time>
      </trkpt>
      <trkpt lat="47.97887" lon="1.89319">
        <ele>129.6</ele>
        <time>2015-09-27T08:03:35Z</time>
      </trkpt>
      <trkpt lat="47.97885" lon="1.89326">
        <ele>129.4</ele>
        <time>2015-09-27T08:03:36Z</time>
      </trkpt>
      <trkpt lat="47.97883" lon="1.89334">
        <ele>129.2</ele>
        <time>2015-09-27T08:03:37Z</time>
      </trkpt>
      <trkpt lat="47.97881" lon="1.89341">
        <ele>128.9</ele>
        <time>2015-09-27T08:03:38Z</time>
      </trkpt>
      <trkpt lat="47.97878" lon="1.89348">
        <ele>128.7</ele>
        <time>2015-09-27T08:03:39Z</time>
      </trkpt>
      <trkpt lat="47.97876" lon="1.89355">
        <ele>128.5</ele>
        <time>2015-09-27T08:03:40Z</time>
      </trkpt>
      <trkpt lat="47.97874" lon="1.89362">
        <ele>128.3</ele>
        <time>2015-09-27T08:03:41Z</time>
      </trkpt>
      <trkpt lat="47.97871" lon="1.89369">
        <ele>128.2</ele>
        <time>2015-09-27T08:03:42Z</time>
      </trkpt>
      <trkpt lat="47.97869" lon="1.89378">
        <ele>128.1</ele>
        <time>2015-09-27T08:03:43Z</time>
      </trkpt>
      <trkpt lat="47.97866" lon="1.89385">
        <ele>128.2</ele>
        <time>2015-09-27T08:03:44Z</time>
      </trkpt>
      <trkpt lat="47.97863" lon="1.89393">
        <ele>128.3</ele>
        <time>2015-09-27T08:03:45Z</time>
      </trkpt>
      <trkpt lat="47.9786" lon="1.894">
        <ele>128.4</ele>
        <time>2015-09-27T08:03:46Z</time>
      </trkpt>
      <trkpt lat="47.97857" lon="1.89407">
        <ele>128.4</ele>
        <time>2015-09-27T08:03:47Z</time>
      </trkpt>
      <trkpt lat="47.97855" lon="1.89416">
        <ele>128.5</ele>
        <time>2015-09-27T08:03:48Z</time>
      </trkpt>
      <trkpt lat="47.97853" lon="1.89425">
        <ele>128.5</ele>
        <time>2015-09-27T08:03:49Z</time>
      </trkpt>
      <trkpt lat="47.97851" lon="1.89434">
        <ele>128.6</ele>
        <time>2015-09-27T08:03:50Z</time>
      </trkpt>
      <trkpt lat="47.97849" lon="1.89442">
        <ele>128.6</ele>
        <time>2015-09-27T08:03:51Z</time>
      </trkpt>
      <trkpt lat="47.97846" lon="1.89449">
        <ele>128.7</ele>
        <time>2015-09-27T08:03:52Z</time>
      </trkpt>
      <trkpt lat="47.97843" lon="1.89457">
        <ele>128.8</ele>
        <time>2015-09-27T08:03:53Z</time>
      </trkpt>
      <trkpt lat="47.97841" lon="1.89463">
        <ele>128.8</ele>
        <time>2015-09-27T08:03:54Z</time>
      </trkpt>
      <trkpt lat="47.97839" lon="1.89469">
        <ele>128.9</ele>
        <time>2015-09-27T08:03:55Z</time>
      </trkpt>
      <trkpt lat="47.97837" lon="1.89475">
        <ele>129</ele>
        <time>2015-09-27T08:03:56Z</time>
      </trkpt>
      <trkpt lat="47.97835" lon="1.89482">
        <ele>129.1</ele>
        <time>2015-09-27T08:03:57Z</time>
      </trkpt>
      <trkpt lat="47.97836" lon="1.89486">
        <ele>129.1</ele>
        <time>2015-09-27T08:03:58Z</time>
      </trkpt>
      <trkpt lat="47.97838" lon="1.8949">
        <ele>129</ele>
        <time>2015-09-27T08:03:59Z</time>
      </trkpt>
      <trkpt lat="47.97842" lon="1.89492">
        <ele>129</ele>
        <time>2015-09-27T08:04:00Z</time>
      </trkpt>
      <trkpt lat="47.97846" lon="1.89495">
        <ele>128.8</ele>
        <time>2015-09-27T08:04:01Z</time>
      </trkpt>
      <trkpt lat="47.97851" lon="1.89498">
        <ele>128.7</ele>
        <time>2015-09-27T08:04:02Z</time>
      </trkpt>
      <trkpt lat="47.97856" lon="1.89501">
        <ele>128.6</ele>
        <time>2015-09-27T08:04:03Z</time>
      </trkpt>
      <trkpt lat="47.9786" lon="1.89505">
        <ele>128.5</ele>
        <time>2015-09-27T08:04:04Z</time>
      </trkpt>
      <trkpt lat="47.97865" lon="1.89508">
        <ele>128.3</ele>
        <time>2015-09-27T08:04:05Z</time>
      </trkpt>
      <trkpt lat="47.97869" lon="1.89512">
        <ele>128.2</ele>
        <time>2015-09-27T08:04:06Z</time>
      </trkpt>
      <trkpt lat="47.97873" lon="1.89516">
        <ele>128.1</ele>
        <time>2015-09-27T08:04:07Z</time>
      </trkpt>
      <trkpt lat="47.97878" lon="1.8952">
        <ele>128</ele>
        <time>2015-09-27T08:04:08Z</time>
      </trkpt>
      <trkpt lat="47.97882" lon="1.89523">
        <ele>128</ele>
        <time>2015-09-27T08:04:09Z</time>
      </trkpt>
      <trkpt lat="47.97889" lon="1.89527">
        <ele>128</ele>
        <time>2015-09-27T08:04:10Z</time>
      </trkpt>
      <trkpt lat="47.97894" lon="1.89529">
        <ele>128</ele>
        <time>2015-09-27T08:04:11Z</time>
      </trkpt>
      <trkpt lat="47.97898" lon="1.89533">
        <ele>128</ele>
        <time>2015-09-27T08:04:12Z</time>
      </trkpt>
      <trkpt lat="47.97903" lon="1.89537">
        <ele>128</ele>
        <time>2015-09-27T08:04:13Z</time>
      </trkpt>
      <trkpt lat="47.97907" lon="1.89539">
        <ele>128</ele>
        <time>2015-09-27T08:04:14Z</time>
      </trkpt>
      <trkpt lat="47.97911" lon="1.89543">
        <ele>128</ele>
        <time>2015-09-27T08:04:15Z</time>
      </trkpt>
      <trkpt lat="47.97916" lon="1.89545">
        <ele>128</ele>
        <time>2015-09-27T08:04:16Z</time>
      </trkpt>
      <trkpt lat="47.9792" lon="1.89548">
        <ele>128</ele>
        <time>2015-09-27T08:04:17Z</time>
      </trkpt>
      <trkpt lat="47.97922" lon="1.89555">
        <ele>128.1</ele>
        <time>2015-09-27T08:04:18Z</time>
      </trkpt>
      <trkpt lat="47.97923" lon="1.89561">
        <ele>128.1</ele>
        <time>2015-09-27T08:04:19Z</time>
      </trkpt>
      <trkpt lat="47.97921" lon="1.89567">
        <ele>128.1</ele>
        <time>2015-09-27T08:04:20Z</time>
      </trkpt>
      <trkpt lat="47.97914" lon="1.89564">
        <ele>128.1</ele>
        <time>2015-09-27T08:04:21Z</time>
      </trkpt>
      <trkpt lat="47.97909" lon="1.89567">
        <ele>128.2</ele>
        <time>2015-09-27T08:04:22Z</time>
      </trkpt>
      <trkpt lat="47.97905" lon="1.8957">
        <ele>128.2</ele>
        <time>2015-09-27T08:04:23Z</time>
      </trkpt>
      <trkpt lat="47.97901" lon="1.89574">
        <ele>128.3</ele>
        <time>2015-09-27T08:04:24Z</time>
      </trkpt>
      <trkpt lat="47.97898" lon="1.89576">
        <ele>128.3</ele>
        <time>2015-09-27T08:04:25Z</time>
      </trkpt>
      <trkpt lat="47.97892" lon="1.89579">
        <ele>128.4</ele>
        <time>2015-09-27T08:04:26Z</time>
      </trkpt>
      <trkpt lat="47.97885" lon="1.8958">
        <ele>128.4</ele>
        <time>2015-09-27T08:04:27Z</time>
      </trkpt>
      <trkpt lat="47.97881" lon="1.89584">
        <ele>128.5</ele>
        <time>2015-09-27T08:04:28Z</time>
      </trkpt>
      <trkpt lat="47.97876" lon="1.89595">
        <ele>128.6</ele>
        <time>2015-09-27T08:04:29Z</time>
      </trkpt>
      <trkpt lat="47.97871" lon="1.89598">
        <ele>128.8</ele>
        <time>2015-09-27T08:04:30Z</time>
      </trkpt>
      <trkpt lat="47.97865" lon="1.89601">
        <ele>128.9</ele>
        <time>2015-09-27T08:04:31Z</time>
      </trkpt>
      <trkpt lat="47.9786" lon="1.89605">
        <ele>129</ele>
        <time>2015-09-27T08:04:32Z</time>
      </trkpt>
      <trkpt lat="47.97856" lon="1.89613">
        <ele>129.1</ele>
        <time>2015-09-27T08:04:33Z</time>
      </trkpt>
      <trkpt lat="47.97852" lon="1.89619">
        <ele>129.2</ele>
        <time>2015-09-27T08:04:34Z</time>
      </trkpt>
      <trkpt lat="47.97847" lon="1.89623">
        <ele>129.3</ele>
        <time>2015-09-27T08:04:35Z</time>
      </trkpt>
      <trkpt lat="47.97841" lon="1.89627">
        <ele>129.4</ele>
        <time>2015-09-27T08:04:36Z</time>
      </trkpt>
      <trkpt lat="47.97837" lon="1.8963">
        <ele>129.6</ele>
        <time>2015-09-27T08:04:37Z</time>
      </trkpt>
      <trkpt lat="47.97831" lon="1.89634">
        <ele>129.7</ele>
        <time>2015-09-27T08:04:38Z</time>
      </trkpt>
      <trkpt lat="47.97827" lon="1.89638">
        <ele>129.8</ele>
        <time>2015-09-27T08:04:39Z</time>
      </trkpt>
      <trkpt lat="47.97825" lon="1.89644">
        <ele>129.9</ele>
        <time>2015-09-27T08:04:40Z</time>
      </trkpt>
      <trkpt lat="47.97822" lon="1.89648">
        <ele>130</ele>
        <time>2015-09-27T08:04:41Z</time>
      </trkpt>
      <trkpt lat="47.97823" lon="1.89654">
        <ele>130.1</ele>
        <time>2015-09-27T08:04:42Z</time>
      </trkpt>
      <trkpt lat="47.97827" lon="1.8966">
        <ele>130.2</ele>
        <time>2015-09-27T08:04:43Z</time>
      </trkpt>
      <trkpt lat="47.97829" lon="1.89666">
        <ele>130.3</ele>
        <time>2015-09-27T08:04:44Z</time>
      </trkpt>
      <trkpt lat="47.97831" lon="1.8967">
        <ele>130.3</ele>
        <time>2015-09-27T08:04:45Z</time>
      </trkpt>
      <trkpt lat="47.97834" lon="1.89672">
        <ele>130.4</ele>
        <time>2015-09-27T08:04:46Z</time>
      </trkpt>
      <trkpt lat="47.97838" lon="1.89681">
        <ele>130.5</ele>
        <time>2015-09-27T08:04:47Z</time>
      </trkpt>
      <trkpt lat="47.97842" lon="1.89686">
        <ele>130.6</ele>
        <time>2015-09-27T08:04:48Z</time>
      </trkpt>
      <trkpt lat="47.97845" lon="1.89694">
        <ele>130.7</ele>
        <time>2015-09-27T08:04:49Z</time>
      </trkpt>
      <trkpt lat="47.97849" lon="1.89702">
        <ele>130.9</ele>
        <time>2015-09-27T08:04:50Z</time>
      </trkpt>
      <trkpt lat="47.97847" lon="1.8971">
        <ele>131</ele>
        <time>2015-09-27T08:04:52Z</time>
      </trkpt>
      <trkpt lat="47.97849" lon="1.89717">
        <ele>131.1</ele>
        <time>2015-09-27T08:04:53Z</time>
      </trkpt>
      <trkpt lat="47.97851" lon="1.89725">
        <ele>131.3</ele>
        <time>2015-09-27T08:04:55Z</time>
      </trkpt>
      <trkpt lat="47.97852" lon="1.89732">
        <ele>131.4</ele>
        <time>2015-09-27T08:04:57Z</time>
      </trkpt>
      <trkpt lat="47.97853" lon="1.89737">
        <ele>131.4</ele>
        <time>2015-09-27T08:04:59Z</time>
      </trkpt>
      <trkpt lat="47.97855" lon="1.89743">
        <ele>131.5</ele>
        <time>2015-09-27T08:05:01Z</time>
      </trkpt>
      <trkpt lat="47.97857" lon="1.89746">
        <ele>131.5</ele>
        <time>2015-09-27T08:05:02Z</time>
      </trkpt>
      <trkpt lat="47.9786" lon="1.8975">
        <ele>131.6</ele>
        <time>2015-09-27T08:05:03Z</time>
      </trkpt>
      <trkpt lat="47.97862" lon="1.89754">
        <ele>131.6</ele>
        <time>2015-09-27T08:05:04Z</time>
      </trkpt>
      <trkpt lat="47.97864" lon="1.89759">
        <ele>131.7</ele>
        <time>2015-09-27T08:05:05Z</time>
      </trkpt>
      <trkpt lat="47.97866" lon="1.89764">
        <ele>131.7</ele>
        <time>2015-09-27T08:05:06Z</time>
      </trkpt>
      <trkpt lat="47.97868" lon="1.89769">
        <ele>131.8</ele>
        <time>2015-09-27T08:05:07Z</time>
      </trkpt>
      <trkpt lat="47.97869" lon="1.89775">
        <ele>131.9</ele>
        <time>2015-09-27T08:05:08Z</time>
      </trkpt>
      <trkpt lat="47.9787" lon="1.89779">
        <ele>131.9</ele>
        <time>2015-09-27T08:05:09Z</time>
      </trkpt>
      <trkpt lat="47.97872" lon="1.89784">
        <ele>131.9</ele>
        <time>2015-09-27T08:05:10Z</time>
      </trkpt>
      <trkpt lat="47.97873" lon="1.89789">
        <ele>132</ele>
        <time>2015-09-27T08:05:11Z</time>
      </trkpt>
      <trkpt lat="47.97875" lon="1.89795">
        <ele>132.1</ele>
        <time>2015-09-27T08:05:12Z</time>
      </trkpt>
      <trkpt lat="47.97876" lon="1.89801">
        <ele>132.4</ele>
        <time>2015-09-27T08:05:13Z</time>
      </trkpt>
      <trkpt lat="47.97878" lon="1.89808">
        <ele>132.6</ele>
        <time>2015-09-27T08:05:14Z</time>
      </trkpt>
      <trkpt lat="47.9788" lon="1.89814">
        <ele>132.9</ele>
        <time>2015-09-27T08:05:15Z</time>
      </trkpt>
      <trkpt lat="47.97882" lon="1.89819">
        <ele>133.1</ele>
        <time>2015-09-27T08:05:16Z</time>
      </trkpt>
      <trkpt lat="47.97884" lon="1.89825">
        <ele>133.4</ele>
        <time>2015-09-27T08:05:17Z</time>
      </trkpt>
      <trkpt lat="47.97887" lon="1.89831">
        <ele>133.6</ele>
        <time>2015-09-27T08:05:18Z</time>
      </trkpt>
      <trkpt lat="47.97889" lon="1.89837">
        <ele>133.9</ele>
        <time>2015-09-27T08:05:19Z</time>
      </trkpt>
      <trkpt lat="47.97891" lon="1.89843">
        <ele>134.1</ele>
        <time>2015-09-27T08:05:20Z</time>
      </trkpt>
      <trkpt lat="47.97893" lon="1.89849">
        <ele>134.4</ele>
        <time>2015-09-27T08:05:21Z</time>
      </trkpt>
      <trkpt lat="47.97895" lon="1.89856">
        <ele>134.6</ele>
        <time>2015-09-27T08:05:22Z</time>
      </trkpt>
      <trkpt lat="47.97897" lon="1.89864">
        <ele>134.9</ele>
        <time>2015-09-27T08:05:23Z</time>
      </trkpt>
      <trkpt lat="47.97898" lon="1.8987">
        <ele>135.1</ele>
        <time>2015-09-27T08:05:24Z</time>
      </trkpt>
      <trkpt lat="47.97901" lon="1.89877">
        <ele>135.3</ele>
        <time>2015-09-27T08:05:25Z</time>
      </trkpt>
      <trkpt lat="47.97903" lon="1.89884">
        <ele>135.4</ele>
        <time>2015-09-27T08:05:26Z</time>
      </trkpt>
      <trkpt lat="47.97906" lon="1.8989">
        <ele>135.4</ele>
        <time>2015-09-27T08:05:27Z</time>
      </trkpt>
      <trkpt lat="47.97909" lon="1.89896">
        <ele>135.5</ele>
        <time>2015-09-27T08:05:28Z</time>
      </trkpt>
      <trkpt lat="47.97911" lon="1.89903">
        <ele>135.5</ele>
        <time>2015-09-27T08:05:29Z</time>
      </trkpt>
      <trkpt lat="47.97914" lon="1.8991">
        <ele>135.5</ele>
        <time>2015-09-27T08:05:30Z</time>
      </trkpt>
      <trkpt lat="47.97916" lon="1.89916">
        <ele>135.5</ele>
        <time>2015-09-27T08:05:31Z</time>
      </trkpt>
      <trkpt lat="47.97919" lon="1.89922">
        <ele>135.5</ele>
        <time>2015-09-27T08:05:32Z</time>
      </trkpt>
      <trkpt lat="47.97921" lon="1.89928">
        <ele>135.5</ele>
        <time>2015-09-27T08:05:33Z</time>
      </trkpt>
      <trkpt lat="47.97922" lon="1.89934">
        <ele>135.5</ele>
        <time>2015-09-27T08:05:34Z</time>
      </trkpt>
      <trkpt lat="47.97924" lon="1.89938">
        <ele>135.5</ele>
        <time>2015-09-27T08:05:35Z</time>
      </trkpt>
      <trkpt lat="47.97925" lon="1.89944">
        <ele>135.4</ele>
        <time>2015-09-27T08:05:36Z</time>
      </trkpt>
      <trkpt lat="47.97927" lon="1.8995">
        <ele>135.4</ele>
        <time>2015-09-27T08:05:37Z</time>
      </trkpt>
      <trkpt lat="47.97928" lon="1.89956">
        <ele>135.4</ele>
        <time>2015-09-27T08:05:38Z</time>
      </trkpt>
      <trkpt lat="47.97929" lon="1.89961">
        <ele>135.3</ele>
        <time>2015-09-27T08:05:39Z</time>
      </trkpt>
      <trkpt lat="47.97931" lon="1.89966">
        <ele>135.2</ele>
        <time>2015-09-27T08:05:40Z</time>
      </trkpt>
      <trkpt lat="47.97932" lon="1.8997">
        <ele>135.1</ele>
        <time>2015-09-27T08:05:41Z</time>
      </trkpt>
      <trkpt lat="47.97933" lon="1.89975">
        <ele>135</ele>
        <time>2015-09-27T08:05:42Z</time>
      </trkpt>
      <trkpt lat="47.97935" lon="1.8998">
        <ele>134.8</ele>
        <time>2015-09-27T08:05:43Z</time>
      </trkpt>
      <trkpt lat="47.97937" lon="1.89985">
        <ele>134.7</ele>
        <time>2015-09-27T08:05:44Z</time>
      </trkpt>
      <trkpt lat="47.9794" lon="1.89991">
        <ele>134.5</ele>
        <time>2015-09-27T08:05:45Z</time>
      </trkpt>
      <trkpt lat="47.97942" lon="1.89997">
        <ele>134.4</ele>
        <time>2015-09-27T08:05:46Z</time>
      </trkpt>
      <trkpt lat="47.97944" lon="1.90003">
        <ele>134.2</ele>
        <time>2015-09-27T08:05:47Z</time>
      </trkpt>
      <trkpt lat="47.97946" lon="1.90008">
        <ele>134</ele>
        <time>2015-09-27T08:05:48Z</time>
      </trkpt>
      <trkpt lat="47.97948" lon="1.90015">
        <ele>133.9</ele>
        <time>2015-09-27T08:05:49Z</time>
      </trkpt>
      <trkpt lat="47.9795" lon="1.9002">
        <ele>133.7</ele>
        <time>2015-09-27T08:05:50Z</time>
      </trkpt>
      <trkpt lat="47.97952" lon="1.90026">
        <ele>133.5</ele>
        <time>2015-09-27T08:05:51Z</time>
      </trkpt>
      <trkpt lat="47.97953" lon="1.90031">
        <ele>133.4</ele>
        <time>2015-09-27T08:05:52Z</time>
      </trkpt>
      <trkpt lat="47.97955" lon="1.90037">
        <ele>133.2</ele>
        <time>2015-09-27T08:05:53Z</time>
      </trkpt>
      <trkpt lat="47.97957" lon="1.90042">
        <ele>133</ele>
        <time>2015-09-27T08:05:54Z</time>
      </trkpt>
      <trkpt lat="47.97958" lon="1.90047">
        <ele>132.9</ele>
        <time>2015-09-27T08:05:55Z</time>
      </trkpt>
      <trkpt lat="47.97961" lon="1.90052">
        <ele>132.8</ele>
        <time>2015-09-27T08:05:56Z</time>
      </trkpt>
      <trkpt lat="47.97963" lon="1.90057">
        <ele>132.8</ele>
        <time>2015-09-27T08:05:57Z</time>
      </trkpt>
      <trkpt lat="47.97966" lon="1.90061">
        <ele>132.7</ele>
        <time>2015-09-27T08:05:58Z</time>
      </trkpt>
      <trkpt lat="47.97968" lon="1.90066">
        <ele>132.6</ele>
        <time>2015-09-27T08:05:59Z</time>
      </trkpt>
      <trkpt lat="47.9797" lon="1.9007">
        <ele>132.5</ele>
        <time>2015-09-27T08:06:00Z</time>
      </trkpt>
      <trkpt lat="47.97971" lon="1.90074">
        <ele>132.5</ele>
        <time>2015-09-27T08:06:01Z</time>
      </trkpt>
      <trkpt lat="47.97974" lon="1.90076">
        <ele>132.4</ele>
        <time>2015-09-27T08:06:02Z</time>
      </trkpt>
      <trkpt lat="47.97977" lon="1.90077">
        <ele>132.4</ele>
        <time>2015-09-27T08:06:03Z</time>
      </trkpt>
      <trkpt lat="47.97981" lon="1.90075">
        <ele>132.3</ele>
        <time>2015-09-27T08:06:04Z</time>
      </trkpt>
      <trkpt lat="47.97985" lon="1.90073">
        <ele>132.3</ele>
        <time>2015-09-27T08:06:05Z</time>
      </trkpt>
      <trkpt lat="47.97988" lon="1.90069">
        <ele>132.3</ele>
        <time>2015-09-27T08:06:06Z</time>
      </trkpt>
      <trkpt lat="47.97991" lon="1.90065">
        <ele>132.3</ele>
        <time>2015-09-27T08:06:07Z</time>
      </trkpt>
      <trkpt lat="47.97995" lon="1.90061">
        <ele>132.3</ele>
        <time>2015-09-27T08:06:08Z</time>
      </trkpt>
      <trkpt lat="47.97998" lon="1.90058">
        <ele>132.3</ele>
        <time>2015-09-27T08:06:09Z</time>
      </trkpt>
      <trkpt lat="47.98002" lon="1.90054">
        <ele>132.3</ele>
        <time>2015-09-27T08:06:10Z</time>
      </trkpt>
      <trkpt lat="47.98006" lon="1.90051">
        <ele>132.3</ele>
        <time>2015-09-27T08:06:11Z</time>
      </trkpt>
      <trkpt lat="47.9801" lon="1.90048">
        <ele>132.3</ele>
        <time>2015-09-27T08:06:12Z</time>
      </trkpt>
      <trkpt lat="47.98015" lon="1.90045">
        <ele>132.3</ele>
        <time>2015-09-27T08:06:13Z</time>
      </trkpt>
      <trkpt lat="47.9802" lon="1.90042">
        <ele>132.3</ele>
        <time>2015-09-27T08:06:14Z</time>
      </trkpt>
      <trkpt lat="47.98025" lon="1.9004">
        <ele>132.2</ele>
        <time>2015-09-27T08:06:15Z</time>
      </trkpt>
      <trkpt lat="47.98029" lon="1.90037">
        <ele>132.2</ele>
        <time>2015-09-27T08:06:16Z</time>
      </trkpt>
      <trkpt lat="47.98035" lon="1.90034">
        <ele>132.2</ele>
        <time>2015-09-27T08:06:17Z</time>
      </trkpt>
      <trkpt lat="47.9804" lon="1.90032">
        <ele>132.1</ele>
        <time>2015-09-27T08:06:18Z</time>
      </trkpt>
      <trkpt lat="47.98044" lon="1.9003">
        <ele>132.1</ele>
        <time>2015-09-27T08:06:19Z</time>
      </trkpt>
      <trkpt lat="47.98049" lon="1.90027">
        <ele>132</ele>
        <time>2015-09-27T08:06:20Z</time>
      </trkpt>
      <trkpt lat="47.98054" lon="1.90024">
        <ele>131.9</ele>
        <time>2015-09-27T08:06:21Z</time>
      </trkpt>
      <trkpt lat="47.98058" lon="1.90021">
        <ele>131.9</ele>
        <time>2015-09-27T08:06:22Z</time>
      </trkpt>
      <trkpt lat="47.98063" lon="1.90019">
        <ele>131.8</ele>
        <time>2015-09-27T08:06:23Z</time>
      </trkpt>
      <trkpt lat="47.98067" lon="1.90017">
        <ele>131.7</ele>
        <time>2015-09-27T08:06:24Z</time>
      </trkpt>
      <trkpt lat="47.9807" lon="1.90016">
        <ele>131.6</ele>
        <time>2015-09-27T08:06:25Z</time>
      </trkpt>
      <trkpt lat="47.98073" lon="1.90018">
        <ele>131.5</ele>
        <time>2015-09-27T08:06:26Z</time>
      </trkpt>
      <trkpt lat="47.98075" lon="1.90021">
        <ele>131.4</ele>
        <time>2015-09-27T08:06:27Z</time>
      </trkpt>
      <trkpt lat="47.98077" lon="1.90027">
        <ele>131.3</ele>
        <time>2015-09-27T08:06:28Z</time>
      </trkpt>
      <trkpt lat="47.98078" lon="1.90032">
        <ele>131.2</ele>
        <time>2015-09-27T08:06:29Z</time>
      </trkpt>
      <trkpt lat="47.98078" lon="1.90038">
        <ele>131.2</ele>
        <time>2015-09-27T08:06:30Z</time>
      </trkpt>
      <trkpt lat="47.98076" lon="1.90044">
        <ele>131.2</ele>
        <time>2015-09-27T08:06:31Z</time>
      </trkpt>
      <trkpt lat="47.98074" lon="1.9005">
        <ele>131.2</ele>
        <time>2015-09-27T08:06:32Z</time>
      </trkpt>
      <trkpt lat="47.98072" lon="1.90056">
        <ele>131.3</ele>
        <time>2015-09-27T08:06:33Z</time>
      </trkpt>
      <trkpt lat="47.9807" lon="1.90061">
        <ele>131.3</ele>
        <time>2015-09-27T08:06:34Z</time>
      </trkpt>
      <trkpt lat="47.98068" lon="1.90067">
        <ele>131.4</ele>
        <time>2015-09-27T08:06:35Z</time>
      </trkpt>
      <trkpt lat="47.98066" lon="1.90072">
        <ele>131.4</ele>
        <time>2015-09-27T08:06:36Z</time>
      </trkpt>
      <trkpt lat="47.98064" lon="1.90077">
        <ele>131.4</ele>
        <time>2015-09-27T08:06:37Z</time>
      </trkpt>
      <trkpt lat="47.98063" lon="1.90082">
        <ele>131.4</ele>
        <time>2015-09-27T08:06:38Z</time>
      </trkpt>
      <trkpt lat="47.98061" lon="1.90087">
        <ele>131.4</ele>
        <time>2015-09-27T08:06:39Z</time>
      </trkpt>
      <trkpt lat="47.9806" lon="1.90092">
        <ele>131.4</ele>
        <time>2015-09-27T08:06:40Z</time>
      </trkpt>
      <trkpt lat="47.98058" lon="1.90098">
        <ele>131.3</ele>
        <time>2015-09-27T08:06:41Z</time>
      </trkpt>
      <trkpt lat="47.98056" lon="1.90103">
        <ele>131.3</ele>
        <time>2015-09-27T08:06:42Z</time>
      </trkpt>
      <trkpt lat="47.98055" lon="1.90108">
        <ele>131.3</ele>
        <time>2015-09-27T08:06:43Z</time>
      </trkpt>
      <trkpt lat="47.98053" lon="1.90114">
        <ele>131.2</ele>
        <time>2015-09-27T08:06:44Z</time>
      </trkpt>
      <trkpt lat="47.98051" lon="1.9012">
        <ele>131.1</ele>
        <time>2015-09-27T08:06:45Z</time>
      </trkpt>
      <trkpt lat="47.98049" lon="1.90126">
        <ele>131.1</ele>
        <time>2015-09-27T08:06:46Z</time>
      </trkpt>
      <trkpt lat="47.98047" lon="1.90132">
        <ele>130.8</ele>
        <time>2015-09-27T08:06:47Z</time>
      </trkpt>
      <trkpt lat="47.98045" lon="1.90138">
        <ele>130.6</ele>
        <time>2015-09-27T08:06:48Z</time>
      </trkpt>
      <trkpt lat="47.98043" lon="1.90143">
        <ele>130.4</ele>
        <time>2015-09-27T08:06:49Z</time>
      </trkpt>
      <trkpt lat="47.98041" lon="1.9015">
        <ele>130.1</ele>
        <time>2015-09-27T08:06:50Z</time>
      </trkpt>
      <trkpt lat="47.9804" lon="1.90156">
        <ele>129.9</ele>
        <time>2015-09-27T08:06:51Z</time>
      </trkpt>
      <trkpt lat="47.98039" lon="1.90163">
        <ele>129.7</ele>
        <time>2015-09-27T08:06:52Z</time>
      </trkpt>
      <trkpt lat="47.98037" lon="1.90169">
        <ele>129.5</ele>
        <time>2015-09-27T08:06:53Z</time>
      </trkpt>
      <trkpt lat="47.98036" lon="1.90176">
        <ele>129.3</ele>
        <time>2015-09-27T08:06:54Z</time>
      </trkpt>
      <trkpt lat="47.98034" lon="1.90182">
        <ele>129.1</ele>
        <time>2015-09-27T08:06:55Z</time>
      </trkpt>
      <trkpt lat="47.98032" lon="1.90188">
        <ele>128.9</ele>
        <time>2015-09-27T08:06:56Z</time>
      </trkpt>
      <trkpt lat="47.9803" lon="1.90194">
        <ele>128.8</ele>
        <time>2015-09-27T08:06:57Z</time>
      </trkpt>
      <trkpt lat="47.98029" lon="1.902">
        <ele>128.6</ele>
        <time>2015-09-27T08:06:58Z</time>
      </trkpt>
      <trkpt lat="47.98028" lon="1.90207">
        <ele>128.4</ele>
        <time>2015-09-27T08:06:59Z</time>
      </trkpt>
      <trkpt lat="47.98026" lon="1.90213">
        <ele>128.5</ele>
        <time>2015-09-27T08:07:00Z</time>
      </trkpt>
      <trkpt lat="47.98024" lon="1.90219">
        <ele>128.7</ele>
        <time>2015-09-27T08:07:01Z</time>
      </trkpt>
      <trkpt lat="47.98021" lon="1.90225">
        <ele>129</ele>
        <time>2015-09-27T08:07:02Z</time>
      </trkpt>
      <trkpt lat="47.98019" lon="1.90231">
        <ele>129.2</ele>
        <time>2015-09-27T08:07:03Z</time>
      </trkpt>
      <trkpt lat="47.98017" lon="1.90237">
        <ele>129.5</ele>
        <time>2015-09-27T08:07:04Z</time>
      </trkpt>
      <trkpt lat="47.98015" lon="1.90243">
        <ele>129.8</ele>
        <time>2015-09-27T08:07:05Z</time>
      </trkpt>
      <trkpt lat="47.98013" lon="1.9025">
        <ele>130</ele>
        <time>2015-09-27T08:07:06Z</time>
      </trkpt>
      <trkpt lat="47.98011" lon="1.90256">
        <ele>130.3</ele>
        <time>2015-09-27T08:07:07Z</time>
      </trkpt>
      <trkpt lat="47.98009" lon="1.90262">
        <ele>130.6</ele>
        <time>2015-09-27T08:07:08Z</time>
      </trkpt>
      <trkpt lat="47.98007" lon="1.90268">
        <ele>130.9</ele>
        <time>2015-09-27T08:07:09Z</time>
      </trkpt>
      <trkpt lat="47.98005" lon="1.90274">
        <ele>131.1</ele>
        <time>2015-09-27T08:07:10Z</time>
      </trkpt>
      <trkpt lat="47.98004" lon="1.9028">
        <ele>131.4</ele>
        <time>2015-09-27T08:07:11Z</time>
      </trkpt>
      <trkpt lat="47.98003" lon="1.90286">
        <ele>131.7</ele>
        <time>2015-09-27T08:07:12Z</time>
      </trkpt>
      <trkpt lat="47.98001" lon="1.90291">
        <ele>131.9</ele>
        <time>2015-09-27T08:07:13Z</time>
      </trkpt>
      <trkpt lat="47.97999" lon="1.90294">
        <ele>132.2</ele>
        <time>2015-09-27T08:07:14Z</time>
      </trkpt>
      <trkpt lat="47.97997" lon="1.90298">
        <ele>132.5</ele>
        <time>2015-09-27T08:07:15Z</time>
      </trkpt>
      <trkpt lat="47.97996" lon="1.90303">
        <ele>132.9</ele>
        <time>2015-09-27T08:07:16Z</time>
      </trkpt>
      <trkpt lat="47.97994" lon="1.90308">
        <ele>133.2</ele>
        <time>2015-09-27T08:07:17Z</time>
      </trkpt>
      <trkpt lat="47.97993" lon="1.90313">
        <ele>133.5</ele>
        <time>2015-09-27T08:07:18Z</time>
      </trkpt>
      <trkpt lat="47.97991" lon="1.90318">
        <ele>133.9</ele>
        <time>2015-09-27T08:07:19Z</time>
      </trkpt>
      <trkpt lat="47.9799" lon="1.90324">
        <ele>134.2</ele>
        <time>2015-09-27T08:07:20Z</time>
      </trkpt>
      <trkpt lat="47.97988" lon="1.90329">
        <ele>134.5</ele>
        <time>2015-09-27T08:07:21Z</time>
      </trkpt>
      <trkpt lat="47.97987" lon="1.90334">
        <ele>134.9</ele>
        <time>2015-09-27T08:07:22Z</time>
      </trkpt>
      <trkpt lat="47.97986" lon="1.9034">
        <ele>135.2</ele>
        <time>2015-09-27T08:07:23Z</time>
      </trkpt>
      <trkpt lat="47.97984" lon="1.90345">
        <ele>135.5</ele>
        <time>2015-09-27T08:07:24Z</time>
      </trkpt>
      <trkpt lat="47.97982" lon="1.9035">
        <ele>135.7</ele>
        <time>2015-09-27T08:07:25Z</time>
      </trkpt>
      <trkpt lat="47.97981" lon="1.90355">
        <ele>136</ele>
        <time>2015-09-27T08:07:26Z</time>
      </trkpt>
      <trkpt lat="47.97979" lon="1.90361">
        <ele>136.3</ele>
        <time>2015-09-27T08:07:27Z</time>
      </trkpt>
      <trkpt lat="47.97978" lon="1.90367">
        <ele>136.6</ele>
        <time>2015-09-27T08:07:28Z</time>
      </trkpt>
      <trkpt lat="47.97977" lon="1.90373">
        <ele>136.9</ele>
        <time>2015-09-27T08:07:29Z</time>
      </trkpt>
      <trkpt lat="47.97976" lon="1.90378">
        <ele>137</ele>
        <time>2015-09-27T08:07:30Z</time>
      </trkpt>
      <trkpt lat="47.97974" lon="1.90384">
        <ele>137.1</ele>
        <time>2015-09-27T08:07:31Z</time>
      </trkpt>
      <trkpt lat="47.97972" lon="1.9039">
        <ele>137.2</ele>
        <time>2015-09-27T08:07:32Z</time>
      </trkpt>
      <trkpt lat="47.9797" lon="1.90396">
        <ele>137.3</ele>
        <time>2015-09-27T08:07:33Z</time>
      </trkpt>
      <trkpt lat="47.97969" lon="1.90401">
        <ele>137.4</ele>
        <time>2015-09-27T08:07:34Z</time>
      </trkpt>
      <trkpt lat="47.97967" lon="1.90407">
        <ele>137.4</ele>
        <time>2015-09-27T08:07:35Z</time>
      </trkpt>
      <trkpt lat="47.97965" lon="1.90413">
        <ele>137.5</ele>
        <time>2015-09-27T08:07:36Z</time>
      </trkpt>
      <trkpt lat="47.97964" lon="1.90419">
        <ele>137.6</ele>
        <time>2015-09-27T08:07:37Z</time>
      </trkpt>
      <trkpt lat="47.97963" lon="1.90425">
        <ele>137.6</ele>
        <time>2015-09-27T08:07:38Z</time>
      </trkpt>
      <trkpt lat="47.97962" lon="1.90431">
        <ele>137.7</ele>
        <time>2015-09-27T08:07:39Z</time>
      </trkpt>
      <trkpt lat="47.97961" lon="1.90437">
        <ele>137.8</ele>
        <time>2015-09-27T08:07:40Z</time>
      </trkpt>
      <trkpt lat="47.97959" lon="1.90443">
        <ele>137.8</ele>
        <time>2015-09-27T08:07:41Z</time>
      </trkpt>
      <trkpt lat="47.97957" lon="1.90449">
        <ele>137.8</ele>
        <time>2015-09-27T08:07:42Z</time>
      </trkpt>
      <trkpt lat="47.97955" lon="1.90455">
        <ele>137.8</ele>
        <time>2015-09-27T08:07:43Z</time>
      </trkpt>
      <trkpt lat="47.97953" lon="1.90461">
        <ele>137.7</ele>
        <time>2015-09-27T08:07:44Z</time>
      </trkpt>
      <trkpt lat="47.97952" lon="1.90467">
        <ele>137.4</ele>
        <time>2015-09-27T08:07:45Z</time>
      </trkpt>
      <trkpt lat="47.9795" lon="1.90473">
        <ele>137</ele>
        <time>2015-09-27T08:07:46Z</time>
      </trkpt>
      <trkpt lat="47.97948" lon="1.90479">
        <ele>136.7</ele>
        <time>2015-09-27T08:07:47Z</time>
      </trkpt>
      <trkpt lat="47.97946" lon="1.90485">
        <ele>136.4</ele>
        <time>2015-09-27T08:07:48Z</time>
      </trkpt>
      <trkpt lat="47.97944" lon="1.90491">
        <ele>136.1</ele>
        <time>2015-09-27T08:07:49Z</time>
      </trkpt>
      <trkpt lat="47.97942" lon="1.90497">
        <ele>135.8</ele>
        <time>2015-09-27T08:07:50Z</time>
      </trkpt>
      <trkpt lat="47.9794" lon="1.90502">
        <ele>135.5</ele>
        <time>2015-09-27T08:07:51Z</time>
      </trkpt>
      <trkpt lat="47.97939" lon="1.90507">
        <ele>135.2</ele>
        <time>2015-09-27T08:07:52Z</time>
      </trkpt>
      <trkpt lat="47.97937" lon="1.90512">
        <ele>134.9</ele>
        <time>2015-09-27T08:07:53Z</time>
      </trkpt>
      <trkpt lat="47.97936" lon="1.90519">
        <ele>134.6</ele>
        <time>2015-09-27T08:07:55Z</time>
      </trkpt>
      <trkpt lat="47.97935" lon="1.90523">
        <ele>134.3</ele>
        <time>2015-09-27T08:07:56Z</time>
      </trkpt>
      <trkpt lat="47.9793" lon="1.90525">
        <ele>134</ele>
        <time>2015-09-27T08:07:58Z</time>
      </trkpt>
      <trkpt lat="47.97925" lon="1.90522">
        <ele>133.8</ele>
        <time>2015-09-27T08:08:00Z</time>
      </trkpt>
      <trkpt lat="47.97923" lon="1.90521">
        <ele>133.7</ele>
        <time>2015-09-27T08:08:01Z</time>
      </trkpt>
      <trkpt lat="47.97919" lon="1.90519">
        <ele>133.6</ele>
        <time>2015-09-27T08:08:02Z</time>
      </trkpt>
      <trkpt lat="47.97915" lon="1.90516">
        <ele>133.5</ele>
        <time>2015-09-27T08:08:03Z</time>
      </trkpt>
      <trkpt lat="47.97911" lon="1.90514">
        <ele>133.4</ele>
        <time>2015-09-27T08:08:04Z</time>
      </trkpt>
      <trkpt lat="47.97908" lon="1.90512">
        <ele>133.3</ele>
        <time>2015-09-27T08:08:05Z</time>
      </trkpt>
      <trkpt lat="47.97904" lon="1.9051">
        <ele>133.1</ele>
        <time>2015-09-27T08:08:06Z</time>
      </trkpt>
      <trkpt lat="47.97899" lon="1.90507">
        <ele>133</ele>
        <time>2015-09-27T08:08:07Z</time>
      </trkpt>
      <trkpt lat="47.97894" lon="1.90505">
        <ele>132.8</ele>
        <time>2015-09-27T08:08:08Z</time>
      </trkpt>
      <trkpt lat="47.97886" lon="1.90503">
        <ele>132.4</ele>
        <time>2015-09-27T08:08:09Z</time>
      </trkpt>
      <trkpt lat="47.97878" lon="1.90503">
        <ele>132</ele>
        <time>2015-09-27T08:08:10Z</time>
      </trkpt>
      <trkpt lat="47.9787" lon="1.90503">
        <ele>131.8</ele>
        <time>2015-09-27T08:08:11Z</time>
      </trkpt>
      <trkpt lat="47.97862" lon="1.90501">
        <ele>131.7</ele>
        <time>2015-09-27T08:08:12Z</time>
      </trkpt>
      <trkpt lat="47.97855" lon="1.90498">
        <ele>131.7</ele>
        <time>2015-09-27T08:08:13Z</time>
      </trkpt>
      <trkpt lat="47.97848" lon="1.90495">
        <ele>131.7</ele>
        <time>2015-09-27T08:08:14Z</time>
      </trkpt>
      <trkpt lat="47.97843" lon="1.90492">
        <ele>131.8</ele>
        <time>2015-09-27T08:08:15Z</time>
      </trkpt>
      <trkpt lat="47.97838" lon="1.90489">
        <ele>131.8</ele>
        <time>2015-09-27T08:08:16Z</time>
      </trkpt>
      <trkpt lat="47.97834" lon="1.90487">
        <ele>131.8</ele>
        <time>2015-09-27T08:08:17Z</time>
      </trkpt>
      <trkpt lat="47.97829" lon="1.90485">
        <ele>131.8</ele>
        <time>2015-09-27T08:08:18Z</time>
      </trkpt>
      <trkpt lat="47.97823" lon="1.90484">
        <ele>131.7</ele>
        <time>2015-09-27T08:08:19Z</time>
      </trkpt>
      <trkpt lat="47.97819" lon="1.90482">
        <ele>131.7</ele>
        <time>2015-09-27T08:08:20Z</time>
      </trkpt>
      <trkpt lat="47.97814" lon="1.90481">
        <ele>131.7</ele>
        <time>2015-09-27T08:08:21Z</time>
      </trkpt>
      <trkpt lat="47.97809" lon="1.90479">
        <ele>131.6</ele>
        <time>2015-09-27T08:08:22Z</time>
      </trkpt>
      <trkpt lat="47.97803" lon="1.90476">
        <ele>131.6</ele>
        <time>2015-09-27T08:08:23Z</time>
      </trkpt>
      <trkpt lat="47.97797" lon="1.90474">
        <ele>131.5</ele>
        <time>2015-09-27T08:08:24Z</time>
      </trkpt>
      <trkpt lat="47.97792" lon="1.90472">
        <ele>131.5</ele>
        <time>2015-09-27T08:08:25Z</time>
      </trkpt>
      <trkpt lat="47.97787" lon="1.90471">
        <ele>131.5</ele>
        <time>2015-09-27T08:08:26Z</time>
      </trkpt>
      <trkpt lat="47.97782" lon="1.90471">
        <ele>131.4</ele>
        <time>2015-09-27T08:08:27Z</time>
      </trkpt>
      <trkpt lat="47.97778" lon="1.9047">
        <ele>131.4</ele>
        <time>2015-09-27T08:08:28Z</time>
      </trkpt>
      <trkpt lat="47.97774" lon="1.90469">
        <ele>131.4</ele>
        <time>2015-09-27T08:08:29Z</time>
      </trkpt>
      <trkpt lat="47.9777" lon="1.90469">
        <ele>131.3</ele>
        <time>2015-09-27T08:08:30Z</time>
      </trkpt>
      <trkpt lat="47.97765" lon="1.90469">
        <ele>131.3</ele>
        <time>2015-09-27T08:08:31Z</time>
      </trkpt>
      <trkpt lat="47.97761" lon="1.90468">
        <ele>131.3</ele>
        <time>2015-09-27T08:08:32Z</time>
      </trkpt>
      <trkpt lat="47.97757" lon="1.90467">
        <ele>131.3</ele>
        <time>2015-09-27T08:08:33Z</time>
      </trkpt>
      <trkpt lat="47.97753" lon="1.90465">
        <ele>131.3</ele>
        <time>2015-09-27T08:08:34Z</time>
      </trkpt>
      <trkpt lat="47.97748" lon="1.90464">
        <ele>131.3</ele>
        <time>2015-09-27T08:08:35Z</time>
      </trkpt>
      <trkpt lat="47.97744" lon="1.90461">
        <ele>131.3</ele>
        <time>2015-09-27T08:08:36Z</time>
      </trkpt>
      <trkpt lat="47.97739" lon="1.90459">
        <ele>131.3</ele>
        <time>2015-09-27T08:08:37Z</time>
      </trkpt>
      <trkpt lat="47.97733" lon="1.90456">
        <ele>131.3</ele>
        <time>2015-09-27T08:08:38Z</time>
      </trkpt>
      <trkpt lat="47.97729" lon="1.90454">
        <ele>131.3</ele>
        <time>2015-09-27T08:08:39Z</time>
      </trkpt>
      <trkpt lat="47.97725" lon="1.90452">
        <ele>131.3</ele>
        <time>2015-09-27T08:08:40Z</time>
      </trkpt>
      <trkpt lat="47.9772" lon="1.90451">
        <ele>131.2</ele>
        <time>2015-09-27T08:08:41Z</time>
      </trkpt>
      <trkpt lat="47.97717" lon="1.90449">
        <ele>131.2</ele>
        <time>2015-09-27T08:08:42Z</time>
      </trkpt>
      <trkpt lat="47.97713" lon="1.90448">
        <ele>131.2</ele>
        <time>2015-09-27T08:08:43Z</time>
      </trkpt>
      <trkpt lat="47.97709" lon="1.90447">
        <ele>131.1</ele>
        <time>2015-09-27T08:08:44Z</time>
      </trkpt>
      <trkpt lat="47.97705" lon="1.90445">
        <ele>131.1</ele>
        <time>2015-09-27T08:08:45Z</time>
      </trkpt>
      <trkpt lat="47.977" lon="1.90443">
        <ele>131</ele>
        <time>2015-09-27T08:08:46Z</time>
      </trkpt>
      <trkpt lat="47.97694" lon="1.90441">
        <ele>130.9</ele>
        <time>2015-09-27T08:08:47Z</time>
      </trkpt>
      <trkpt lat="47.97688" lon="1.90439">
        <ele>130.7</ele>
        <time>2015-09-27T08:08:48Z</time>
      </trkpt>
      <trkpt lat="47.97682" lon="1.90437">
        <ele>130.5</ele>
        <time>2015-09-27T08:08:49Z</time>
      </trkpt>
      <trkpt lat="47.97674" lon="1.90435">
        <ele>130.3</ele>
        <time>2015-09-27T08:08:50Z</time>
      </trkpt>
      <trkpt lat="47.97667" lon="1.90433">
        <ele>130</ele>
        <time>2015-09-27T08:08:51Z</time>
      </trkpt>
      <trkpt lat="47.97658" lon="1.90431">
        <ele>129.8</ele>
        <time>2015-09-27T08:08:52Z</time>
      </trkpt>
      <trkpt lat="47.97652" lon="1.90429">
        <ele>129.5</ele>
        <time>2015-09-27T08:08:53Z</time>
      </trkpt>
      <trkpt lat="47.97645" lon="1.90427">
        <ele>129.2</ele>
        <time>2015-09-27T08:08:54Z</time>
      </trkpt>
      <trkpt lat="47.97638" lon="1.90425">
        <ele>128.8</ele>
        <time>2015-09-27T08:08:55Z</time>
      </trkpt>
      <trkpt lat="47.97631" lon="1.90425">
        <ele>128.6</ele>
        <time>2015-09-27T08:08:56Z</time>
      </trkpt>
      <trkpt lat="47.97624" lon="1.90424">
        <ele>128.3</ele>
        <time>2015-09-27T08:08:57Z</time>
      </trkpt>
      <trkpt lat="47.97617" lon="1.90422">
        <ele>128.2</ele>
        <time>2015-09-27T08:08:58Z</time>
      </trkpt>
      <trkpt lat="47.97611" lon="1.9042">
        <ele>128</ele>
        <time>2015-09-27T08:08:59Z</time>
      </trkpt>
      <trkpt lat="47.97605" lon="1.90417">
        <ele>127.9</ele>
        <time>2015-09-27T08:09:00Z</time>
      </trkpt>
      <trkpt lat="47.976" lon="1.90415">
        <ele>127.8</ele>
        <time>2015-09-27T08:09:01Z</time>
      </trkpt>
      <trkpt lat="47.97596" lon="1.90412">
        <ele>127.7</ele>
        <time>2015-09-27T08:09:02Z</time>
      </trkpt>
      <trkpt lat="47.97591" lon="1.90409">
        <ele>127.5</ele>
        <time>2015-09-27T08:09:03Z</time>
      </trkpt>
      <trkpt lat="47.97586" lon="1.90408">
        <ele>127.5</ele>
        <time>2015-09-27T08:09:04Z</time>
      </trkpt>
      <trkpt lat="47.9758" lon="1.90409">
        <ele>127.5</ele>
        <time>2015-09-27T08:09:05Z</time>
      </trkpt>
      <trkpt lat="47.97574" lon="1.9041">
        <ele>127.5</ele>
        <time>2015-09-27T08:09:06Z</time>
      </trkpt>
      <trkpt lat="47.97569" lon="1.9041">
        <ele>127.5</ele>
        <time>2015-09-27T08:09:07Z</time>
      </trkpt>
      <trkpt lat="47.97565" lon="1.90408">
        <ele>127.5</ele>
        <time>2015-09-27T08:09:08Z</time>
      </trkpt>
      <trkpt lat="47.9756" lon="1.90406">
        <ele>127.4</ele>
        <time>2015-09-27T08:09:09Z</time>
      </trkpt>
      <trkpt lat="47.97557" lon="1.90403">
        <ele>127.3</ele>
        <time>2015-09-27T08:09:10Z</time>
      </trkpt>
      <trkpt lat="47.97553" lon="1.90399">
        <ele>127.3</ele>
        <time>2015-09-27T08:09:11Z</time>
      </trkpt>
      <trkpt lat="47.9755" lon="1.90397">
        <ele>127.2</ele>
        <time>2015-09-27T08:09:12Z</time>
      </trkpt>
      <trkpt lat="47.97548" lon="1.90395">
        <ele>127.2</ele>
        <time>2015-09-27T08:09:13Z</time>
      </trkpt>
      <trkpt lat="47.97545" lon="1.90394">
        <ele>127.2</ele>
        <time>2015-09-27T08:09:14Z</time>
      </trkpt>
      <trkpt lat="47.97541" lon="1.9039">
        <ele>127.2</ele>
        <time>2015-09-27T08:09:16Z</time>
      </trkpt>
      <trkpt lat="47.97537" lon="1.90385">
        <ele>127.1</ele>
        <time>2015-09-27T08:09:18Z</time>
      </trkpt>
      <trkpt lat="47.97534" lon="1.90383">
        <ele>127</ele>
        <time>2015-09-27T08:09:19Z</time>
      </trkpt>
      <trkpt lat="47.97532" lon="1.9038">
        <ele>126.9</ele>
        <time>2015-09-27T08:09:20Z</time>
      </trkpt>
      <trkpt lat="47.97529" lon="1.90378">
        <ele>126.9</ele>
        <time>2015-09-27T08:09:21Z</time>
      </trkpt>
      <trkpt lat="47.97525" lon="1.90375">
        <ele>126.8</ele>
        <time>2015-09-27T08:09:22Z</time>
      </trkpt>
      <trkpt lat="47.97522" lon="1.90373">
        <ele>126.7</ele>
        <time>2015-09-27T08:09:23Z</time>
      </trkpt>
      <trkpt lat="47.97519" lon="1.90369">
        <ele>126.6</ele>
        <time>2015-09-27T08:09:25Z</time>
      </trkpt>
      <trkpt lat="47.97519" lon="1.90373">
        <ele>126.7</ele>
        <time>2015-09-27T08:09:34Z</time>
      </trkpt>
      <trkpt lat="47.97522" lon="1.90372">
        <ele>126.7</ele>
        <time>2015-09-27T08:09:36Z</time>
      </trkpt>
      <trkpt lat="47.97522" lon="1.90368">
        <ele>126.7</ele>
        <time>2015-09-27T08:09:39Z</time>
      </trkpt>
      <trkpt lat="47.97519" lon="1.90369">
        <ele>126.6</ele>
        <time>2015-09-27T08:09:41Z</time>
      </trkpt>
      <trkpt lat="47.97515" lon="1.90369">
        <ele>126.6</ele>
        <time>2015-09-27T08:09:43Z</time>
      </trkpt>
      <trkpt lat="47.9751" lon="1.90365">
        <ele>126.5</ele>
        <time>2015-09-27T08:09:45Z</time>
      </trkpt>
      <trkpt lat="47.97507" lon="1.90362">
        <ele>126.4</ele>
        <time>2015-09-27T08:09:47Z</time>
      </trkpt>
      <trkpt lat="47.97503" lon="1.90357">
        <ele>126.2</ele>
        <time>2015-09-27T08:09:49Z</time>
      </trkpt>
      <trkpt lat="47.97499" lon="1.90354">
        <ele>126.1</ele>
        <time>2015-09-27T08:09:50Z</time>
      </trkpt>
      <trkpt lat="47.97496" lon="1.90351">
        <ele>126</ele>
        <time>2015-09-27T08:09:51Z</time>
      </trkpt>
      <trkpt lat="47.97493" lon="1.90346">
        <ele>125.9</ele>
        <time>2015-09-27T08:09:52Z</time>
      </trkpt>
      <trkpt lat="47.9749" lon="1.90342">
        <ele>125.7</ele>
        <time>2015-09-27T08:09:53Z</time>
      </trkpt>
      <trkpt lat="47.97486" lon="1.90338">
        <ele>125.6</ele>
        <time>2015-09-27T08:09:54Z</time>
      </trkpt>
      <trkpt lat="47.97483" lon="1.90335">
        <ele>125.5</ele>
        <time>2015-09-27T08:09:55Z</time>
      </trkpt>
      <trkpt lat="47.97479" lon="1.90331">
        <ele>125.3</ele>
        <time>2015-09-27T08:09:56Z</time>
      </trkpt>
      <trkpt lat="47.97475" lon="1.90328">
        <ele>125.2</ele>
        <time>2015-09-27T08:09:57Z</time>
      </trkpt>
      <trkpt lat="47.97472" lon="1.90325">
        <ele>125</ele>
        <time>2015-09-27T08:09:58Z</time>
      </trkpt>
      <trkpt lat="47.97468" lon="1.90322">
        <ele>124.9</ele>
        <time>2015-09-27T08:09:59Z</time>
      </trkpt>
      <trkpt lat="47.97463" lon="1.9032">
        <ele>124.8</ele>
        <time>2015-09-27T08:10:00Z</time>
      </trkpt>
      <trkpt lat="47.97459" lon="1.90318">
        <ele>124.6</ele>
        <time>2015-09-27T08:10:02Z</time>
      </trkpt>
      <trkpt lat="47.97451" lon="1.90312">
        <ele>124.8</ele>
        <time>2015-09-27T08:10:03Z</time>
      </trkpt>
      <trkpt lat="47.97447" lon="1.90308">
        <ele>124.9</ele>
        <time>2015-09-27T08:10:04Z</time>
      </trkpt>
      <trkpt lat="47.97443" lon="1.90304">
        <ele>125</ele>
        <time>2015-09-27T08:10:05Z</time>
      </trkpt>
      <trkpt lat="47.9744" lon="1.90301">
        <ele>125.1</ele>
        <time>2015-09-27T08:10:06Z</time>
      </trkpt>
      <trkpt lat="47.97436" lon="1.90297">
        <ele>125.2</ele>
        <time>2015-09-27T08:10:07Z</time>
      </trkpt>
      <trkpt lat="47.97433" lon="1.90292">
        <ele>125.2</ele>
        <time>2015-09-27T08:10:08Z</time>
      </trkpt>
      <trkpt lat="47.9743" lon="1.90288">
        <ele>125.3</ele>
        <time>2015-09-27T08:10:09Z</time>
      </trkpt>
      <trkpt lat="47.97426" lon="1.90284">
        <ele>125.4</ele>
        <time>2015-09-27T08:10:10Z</time>
      </trkpt>
      <trkpt lat="47.97423" lon="1.9028">
        <ele>125.4</ele>
        <time>2015-09-27T08:10:11Z</time>
      </trkpt>
      <trkpt lat="47.9742" lon="1.90276">
        <ele>125.5</ele>
        <time>2015-09-27T08:10:12Z</time>
      </trkpt>
      <trkpt lat="47.97417" lon="1.90272">
        <ele>125.5</ele>
        <time>2015-09-27T08:10:13Z</time>
      </trkpt>
      <trkpt lat="47.97414" lon="1.90268">
        <ele>125.6</ele>
        <time>2015-09-27T08:10:14Z</time>
      </trkpt>
      <trkpt lat="47.97411" lon="1.90264">
        <ele>125.6</ele>
        <time>2015-09-27T08:10:15Z</time>
      </trkpt>
      <trkpt lat="47.97408" lon="1.90259">
        <ele>125.6</ele>
        <time>2015-09-27T08:10:16Z</time>
      </trkpt>
      <trkpt lat="47.97405" lon="1.90254">
        <ele>125.7</ele>
        <time>2015-09-27T08:10:17Z</time>
      </trkpt>
      <trkpt lat="47.97402" lon="1.9025">
        <ele>125.7</ele>
        <time>2015-09-27T08:10:18Z</time>
      </trkpt>
      <trkpt lat="47.97399" lon="1.90246">
        <ele>125.8</ele>
        <time>2015-09-27T08:10:19Z</time>
      </trkpt>
      <trkpt lat="47.97395" lon="1.90243">
        <ele>125.8</ele>
        <time>2015-09-27T08:10:20Z</time>
      </trkpt>
      <trkpt lat="47.97392" lon="1.9024">
        <ele>125.9</ele>
        <time>2015-09-27T08:10:21Z</time>
      </trkpt>
      <trkpt lat="47.97388" lon="1.90237">
        <ele>126.1</ele>
        <time>2015-09-27T08:10:22Z</time>
      </trkpt>
      <trkpt lat="47.97384" lon="1.90234">
        <ele>126.2</ele>
        <time>2015-09-27T08:10:23Z</time>
      </trkpt>
      <trkpt lat="47.9738" lon="1.90232">
        <ele>126.4</ele>
        <time>2015-09-27T08:10:24Z</time>
      </trkpt>
      <trkpt lat="47.97375" lon="1.90229">
        <ele>126.5</ele>
        <time>2015-09-27T08:10:25Z</time>
      </trkpt>
      <trkpt lat="47.97371" lon="1.90226">
        <ele>126.6</ele>
        <time>2015-09-27T08:10:26Z</time>
      </trkpt>
      <trkpt lat="47.97367" lon="1.90223">
        <ele>126.6</ele>
        <time>2015-09-27T08:10:27Z</time>
      </trkpt>
      <trkpt lat="47.97363" lon="1.90221">
        <ele>126.7</ele>
        <time>2015-09-27T08:10:28Z</time>
      </trkpt>
      <trkpt lat="47.9736" lon="1.90218">
        <ele>126.8</ele>
        <time>2015-09-27T08:10:29Z</time>
      </trkpt>
      <trkpt lat="47.97356" lon="1.90215">
        <ele>126.8</ele>
        <time>2015-09-27T08:10:30Z</time>
      </trkpt>
      <trkpt lat="47.97352" lon="1.90213">
        <ele>126.9</ele>
        <time>2015-09-27T08:10:31Z</time>
      </trkpt>
      <trkpt lat="47.97348" lon="1.90211">
        <ele>127</ele>
        <time>2015-09-27T08:10:32Z</time>
      </trkpt>
      <trkpt lat="47.97344" lon="1.90209">
        <ele>127.1</ele>
        <time>2015-09-27T08:10:33Z</time>
      </trkpt>
      <trkpt lat="47.97341" lon="1.90207">
        <ele>127.2</ele>
        <time>2015-09-27T08:10:34Z</time>
      </trkpt>
      <trkpt lat="47.97337" lon="1.90205">
        <ele>127.3</ele>
        <time>2015-09-27T08:10:35Z</time>
      </trkpt>
      <trkpt lat="47.97334" lon="1.90202">
        <ele>127.3</ele>
        <time>2015-09-27T08:10:36Z</time>
      </trkpt>
      <trkpt lat="47.97331" lon="1.90198">
        <ele>127.2</ele>
        <time>2015-09-27T08:10:37Z</time>
      </trkpt>
      <trkpt lat="47.97328" lon="1.90194">
        <ele>127.2</ele>
        <time>2015-09-27T08:10:38Z</time>
      </trkpt>
      <trkpt lat="47.97324" lon="1.9019">
        <ele>127.2</ele>
        <time>2015-09-27T08:10:39Z</time>
      </trkpt>
      <trkpt lat="47.97321" lon="1.90186">
        <ele>127.1</ele>
        <time>2015-09-27T08:10:40Z</time>
      </trkpt>
      <trkpt lat="47.97318" lon="1.90182">
        <ele>127.1</ele>
        <time>2015-09-27T08:10:41Z</time>
      </trkpt>
      <trkpt lat="47.97314" lon="1.90178">
        <ele>127.1</ele>
        <time>2015-09-27T08:10:42Z</time>
      </trkpt>
      <trkpt lat="47.9731" lon="1.90175">
        <ele>127</ele>
        <time>2015-09-27T08:10:43Z</time>
      </trkpt>
      <trkpt lat="47.97308" lon="1.9017">
        <ele>126.9</ele>
        <time>2015-09-27T08:10:44Z</time>
      </trkpt>
      <trkpt lat="47.97305" lon="1.90166">
        <ele>126.7</ele>
        <time>2015-09-27T08:10:45Z</time>
      </trkpt>
      <trkpt lat="47.97301" lon="1.90162">
        <ele>126.6</ele>
        <time>2015-09-27T08:10:46Z</time>
      </trkpt>
      <trkpt lat="47.97298" lon="1.90158">
        <ele>126.5</ele>
        <time>2015-09-27T08:10:47Z</time>
      </trkpt>
      <trkpt lat="47.97294" lon="1.90155">
        <ele>126.4</ele>
        <time>2015-09-27T08:10:48Z</time>
      </trkpt>
      <trkpt lat="47.9729" lon="1.90152">
        <ele>126.3</ele>
        <time>2015-09-27T08:10:49Z</time>
      </trkpt>
      <trkpt lat="47.97287" lon="1.90148">
        <ele>126.2</ele>
        <time>2015-09-27T08:10:50Z</time>
      </trkpt>
      <trkpt lat="47.97284" lon="1.90144">
        <ele>126.1</ele>
        <time>2015-09-27T08:10:51Z</time>
      </trkpt>
      <trkpt lat="47.9728" lon="1.9014">
        <ele>126.1</ele>
        <time>2015-09-27T08:10:52Z</time>
      </trkpt>
      <trkpt lat="47.97277" lon="1.90136">
        <ele>126</ele>
        <time>2015-09-27T08:10:53Z</time>
      </trkpt>
      <trkpt lat="47.97274" lon="1.90133">
        <ele>126</ele>
        <time>2015-09-27T08:10:54Z</time>
      </trkpt>
      <trkpt lat="47.97271" lon="1.90129">
        <ele>125.9</ele>
        <time>2015-09-27T08:10:55Z</time>
      </trkpt>
      <trkpt lat="47.97267" lon="1.90126">
        <ele>125.9</ele>
        <time>2015-09-27T08:10:56Z</time>
      </trkpt>
      <trkpt lat="47.97264" lon="1.90122">
        <ele>125.9</ele>
        <time>2015-09-27T08:10:57Z</time>
      </trkpt>
      <trkpt lat="47.97261" lon="1.90118">
        <ele>125.9</ele>
        <time>2015-09-27T08:10:58Z</time>
      </trkpt>
      <trkpt lat="47.97257" lon="1.90114">
        <ele>126</ele>
        <time>2015-09-27T08:10:59Z</time>
      </trkpt>
      <trkpt lat="47.97254" lon="1.90111">
        <ele>126</ele>
        <time>2015-09-27T08:11:00Z</time>
      </trkpt>
      <trkpt lat="47.97251" lon="1.90107">
        <ele>126</ele>
        <time>2015-09-27T08:11:01Z</time>
      </trkpt>
      <trkpt lat="47.97247" lon="1.90104">
        <ele>126.1</ele>
        <time>2015-09-27T08:11:02Z</time>
      </trkpt>
      <trkpt lat="47.97244" lon="1.901">
        <ele>126.2</ele>
        <time>2015-09-27T08:11:03Z</time>
      </trkpt>
      <trkpt lat="47.97241" lon="1.90096">
        <ele>126.2</ele>
        <time>2015-09-27T08:11:04Z</time>
      </trkpt>
      <trkpt lat="47.97239" lon="1.90093">
        <ele>126.2</ele>
        <time>2015-09-27T08:11:05Z</time>
      </trkpt>
      <trkpt lat="47.97236" lon="1.9009">
        <ele>126.3</ele>
        <time>2015-09-27T08:11:06Z</time>
      </trkpt>
      <trkpt lat="47.97232" lon="1.90087">
        <ele>126.4</ele>
        <time>2015-09-27T08:11:07Z</time>
      </trkpt>
      <trkpt lat="47.97229" lon="1.90084">
        <ele>126.5</ele>
        <time>2015-09-27T08:11:08Z</time>
      </trkpt>
      <trkpt lat="47.97226" lon="1.90081">
        <ele>126.6</ele>
        <time>2015-09-27T08:11:09Z</time>
      </trkpt>
      <trkpt lat="47.97222" lon="1.90078">
        <ele>126.8</ele>
        <time>2015-09-27T08:11:10Z</time>
      </trkpt>
      <trkpt lat="47.97218" lon="1.90074">
        <ele>126.9</ele>
        <time>2015-09-27T08:11:11Z</time>
      </trkpt>
      <trkpt lat="47.97214" lon="1.9007">
        <ele>127</ele>
        <time>2015-09-27T08:11:12Z</time>
      </trkpt>
      <trkpt lat="47.9721" lon="1.90066">
        <ele>127.2</ele>
        <time>2015-09-27T08:11:13Z</time>
      </trkpt>
      <trkpt lat="47.97206" lon="1.90062">
        <ele>127.3</ele>
        <time>2015-09-27T08:11:14Z</time>
      </trkpt>
      <trkpt lat="47.97202" lon="1.90059">
        <ele>127.3</ele>
        <time>2015-09-27T08:11:15Z</time>
      </trkpt>
      <trkpt lat="47.97199" lon="1.90055">
        <ele>127.3</ele>
        <time>2015-09-27T08:11:16Z</time>
      </trkpt>
      <trkpt lat="47.97197" lon="1.90051">
        <ele>127.3</ele>
        <time>2015-09-27T08:11:17Z</time>
      </trkpt>
      <trkpt lat="47.97195" lon="1.90047">
        <ele>127.2</ele>
        <time>2015-09-27T08:11:20Z</time>
      </trkpt>
      <trkpt lat="47.97191" lon="1.90043">
        <ele>127.2</ele>
        <time>2015-09-27T08:11:22Z</time>
      </trkpt>
      <trkpt lat="47.97188" lon="1.9004">
        <ele>127.2</ele>
        <time>2015-09-27T08:11:23Z</time>
      </trkpt>
      <trkpt lat="47.97184" lon="1.90039">
        <ele>127.2</ele>
        <time>2015-09-27T08:11:24Z</time>
      </trkpt>
      <trkpt lat="47.97179" lon="1.90037">
        <ele>127.2</ele>
        <time>2015-09-27T08:11:25Z</time>
      </trkpt>
      <trkpt lat="47.97175" lon="1.90036">
        <ele>127.2</ele>
        <time>2015-09-27T08:11:26Z</time>
      </trkpt>
      <trkpt lat="47.97171" lon="1.90035">
        <ele>127.1</ele>
        <time>2015-09-27T08:11:27Z</time>
      </trkpt>
      <trkpt lat="47.97168" lon="1.90032">
        <ele>127.1</ele>
        <time>2015-09-27T08:11:28Z</time>
      </trkpt>
      <trkpt lat="47.97164" lon="1.9003">
        <ele>127.1</ele>
        <time>2015-09-27T08:11:29Z</time>
      </trkpt>
      <trkpt lat="47.9716" lon="1.90028">
        <ele>127</ele>
        <time>2015-09-27T08:11:30Z</time>
      </trkpt>
      <trkpt lat="47.97157" lon="1.90025">
        <ele>126.9</ele>
        <time>2015-09-27T08:11:31Z</time>
      </trkpt>
      <trkpt lat="47.97154" lon="1.90021">
        <ele>126.8</ele>
        <time>2015-09-27T08:11:32Z</time>
      </trkpt>
      <trkpt lat="47.97151" lon="1.90018">
        <ele>126.7</ele>
        <time>2015-09-27T08:11:33Z</time>
      </trkpt>
      <trkpt lat="47.97148" lon="1.90014">
        <ele>126.6</ele>
        <time>2015-09-27T08:11:34Z</time>
      </trkpt>
      <trkpt lat="47.97146" lon="1.9001">
        <ele>126.5</ele>
        <time>2015-09-27T08:11:35Z</time>
      </trkpt>
      <trkpt lat="47.97143" lon="1.90007">
        <ele>126.4</ele>
        <time>2015-09-27T08:11:36Z</time>
      </trkpt>
      <trkpt lat="47.9714" lon="1.90003">
        <ele>126.3</ele>
        <time>2015-09-27T08:11:37Z</time>
      </trkpt>
      <trkpt lat="47.97136" lon="1.9">
        <ele>126.3</ele>
        <time>2015-09-27T08:11:38Z</time>
      </trkpt>
      <trkpt lat="47.97133" lon="1.89997">
        <ele>126.2</ele>
        <time>2015-09-27T08:11:39Z</time>
      </trkpt>
      <trkpt lat="47.9713" lon="1.89994">
        <ele>126.2</ele>
        <time>2015-09-27T08:11:40Z</time>
      </trkpt>
      <trkpt lat="47.97127" lon="1.89991">
        <ele>126.1</ele>
        <time>2015-09-27T08:11:41Z</time>
      </trkpt>
      <trkpt lat="47.97125" lon="1.89988">
        <ele>126.1</ele>
        <time>2015-09-27T08:11:42Z</time>
      </trkpt>
      <trkpt lat="47.97123" lon="1.89984">
        <ele>126.1</ele>
        <time>2015-09-27T08:11:43Z</time>
      </trkpt>
      <trkpt lat="47.9712" lon="1.89981">
        <ele>126.2</ele>
        <time>2015-09-27T08:11:44Z</time>
      </trkpt>
      <trkpt lat="47.97117" lon="1.89979">
        <ele>126.3</ele>
        <time>2015-09-27T08:11:45Z</time>
      </trkpt>
      <trkpt lat="47.97113" lon="1.89977">
        <ele>126.5</ele>
        <time>2015-09-27T08:11:46Z</time>
      </trkpt>
      <trkpt lat="47.97109" lon="1.89975">
        <ele>126.7</ele>
        <time>2015-09-27T08:11:47Z</time>
      </trkpt>
      <trkpt lat="47.97104" lon="1.89972">
        <ele>126.9</ele>
        <time>2015-09-27T08:11:48Z</time>
      </trkpt>
      <trkpt lat="47.971" lon="1.89968">
        <ele>127.1</ele>
        <time>2015-09-27T08:11:49Z</time>
      </trkpt>
      <trkpt lat="47.97096" lon="1.89964">
        <ele>127.3</ele>
        <time>2015-09-27T08:11:50Z</time>
      </trkpt>
      <trkpt lat="47.97093" lon="1.8996">
        <ele>127.4</ele>
        <time>2015-09-27T08:11:51Z</time>
      </trkpt>
      <trkpt lat="47.97089" lon="1.89955">
        <ele>127.5</ele>
        <time>2015-09-27T08:11:52Z</time>
      </trkpt>
      <trkpt lat="47.97086" lon="1.89952">
        <ele>127.7</ele>
        <time>2015-09-27T08:11:53Z</time>
      </trkpt>
      <trkpt lat="47.97082" lon="1.89949">
        <ele>127.8</ele>
        <time>2015-09-27T08:11:54Z</time>
      </trkpt>
      <trkpt lat="47.97078" lon="1.89946">
        <ele>128</ele>
        <time>2015-09-27T08:11:55Z</time>
      </trkpt>
      <trkpt lat="47.97075" lon="1.89942">
        <ele>128.1</ele>
        <time>2015-09-27T08:11:56Z</time>
      </trkpt>
      <trkpt lat="47.97072" lon="1.89938">
        <ele>128.1</ele>
        <time>2015-09-27T08:11:57Z</time>
      </trkpt>
      <trkpt lat="47.97068" lon="1.89934">
        <ele>128.2</ele>
        <time>2015-09-27T08:11:58Z</time>
      </trkpt>
      <trkpt lat="47.97065" lon="1.8993">
        <ele>128.2</ele>
        <time>2015-09-27T08:11:59Z</time>
      </trkpt>
      <trkpt lat="47.97062" lon="1.89926">
        <ele>128.3</ele>
        <time>2015-09-27T08:12:00Z</time>
      </trkpt>
      <trkpt lat="47.9706" lon="1.89923">
        <ele>128.3</ele>
        <time>2015-09-27T08:12:01Z</time>
      </trkpt>
      <trkpt lat="47.97057" lon="1.8992">
        <ele>128.3</ele>
        <time>2015-09-27T08:12:02Z</time>
      </trkpt>
      <trkpt lat="47.97054" lon="1.89918">
        <ele>128.4</ele>
        <time>2015-09-27T08:12:03Z</time>
      </trkpt>
      <trkpt lat="47.97051" lon="1.89916">
        <ele>128.4</ele>
        <time>2015-09-27T08:12:04Z</time>
      </trkpt>
      <trkpt lat="47.97048" lon="1.89913">
        <ele>128.5</ele>
        <time>2015-09-27T08:12:05Z</time>
      </trkpt>
      <trkpt lat="47.97045" lon="1.89911">
        <ele>128.5</ele>
        <time>2015-09-27T08:12:06Z</time>
      </trkpt>
      <trkpt lat="47.97042" lon="1.89909">
        <ele>128.6</ele>
        <time>2015-09-27T08:12:07Z</time>
      </trkpt>
      <trkpt lat="47.97039" lon="1.89907">
        <ele>128.8</ele>
        <time>2015-09-27T08:12:08Z</time>
      </trkpt>
      <trkpt lat="47.97036" lon="1.89905">
        <ele>129</ele>
        <time>2015-09-27T08:12:09Z</time>
      </trkpt>
      <trkpt lat="47.97033" lon="1.89901">
        <ele>129.1</ele>
        <time>2015-09-27T08:12:10Z</time>
      </trkpt>
      <trkpt lat="47.97031" lon="1.89897">
        <ele>129.1</ele>
        <time>2015-09-27T08:12:11Z</time>
      </trkpt>
      <trkpt lat="47.97029" lon="1.89893">
        <ele>129.1</ele>
        <time>2015-09-27T08:12:12Z</time>
      </trkpt>
      <trkpt lat="47.97026" lon="1.8989">
        <ele>129.2</ele>
        <time>2015-09-27T08:12:13Z</time>
      </trkpt>
      <trkpt lat="47.97023" lon="1.89887">
        <ele>129.4</ele>
        <time>2015-09-27T08:12:14Z</time>
      </trkpt>
      <trkpt lat="47.9702" lon="1.89884">
        <ele>129.6</ele>
        <time>2015-09-27T08:12:15Z</time>
      </trkpt>
      <trkpt lat="47.97017" lon="1.89881">
        <ele>129.9</ele>
        <time>2015-09-27T08:12:16Z</time>
      </trkpt>
      <trkpt lat="47.97013" lon="1.89878">
        <ele>130.2</ele>
        <time>2015-09-27T08:12:17Z</time>
      </trkpt>
      <trkpt lat="47.97009" lon="1.89876">
        <ele>130.6</ele>
        <time>2015-09-27T08:12:18Z</time>
      </trkpt>
      <trkpt lat="47.97005" lon="1.89873">
        <ele>131</ele>
        <time>2015-09-27T08:12:19Z</time>
      </trkpt>
      <trkpt lat="47.97001" lon="1.8987">
        <ele>131.4</ele>
        <time>2015-09-27T08:12:20Z</time>
      </trkpt>
      <trkpt lat="47.96997" lon="1.89867">
        <ele>131.8</ele>
        <time>2015-09-27T08:12:21Z</time>
      </trkpt>
      <trkpt lat="47.96994" lon="1.89864">
        <ele>132.1</ele>
        <time>2015-09-27T08:12:22Z</time>
      </trkpt>
      <trkpt lat="47.9699" lon="1.89859">
        <ele>132.5</ele>
        <time>2015-09-27T08:12:23Z</time>
      </trkpt>
      <trkpt lat="47.96986" lon="1.89855">
        <ele>132.8</ele>
        <time>2015-09-27T08:12:24Z</time>
      </trkpt>
      <trkpt lat="47.96983" lon="1.89852">
        <ele>133.2</ele>
        <time>2015-09-27T08:12:25Z</time>
      </trkpt>
      <trkpt lat="47.96979" lon="1.89848">
        <ele>133.5</ele>
        <time>2015-09-27T08:12:26Z</time>
      </trkpt>
      <trkpt lat="47.96976" lon="1.89846">
        <ele>133.8</ele>
        <time>2015-09-27T08:12:27Z</time>
      </trkpt>
      <trkpt lat="47.96973" lon="1.89843">
        <ele>134.1</ele>
        <time>2015-09-27T08:12:28Z</time>
      </trkpt>
      <trkpt lat="47.9697" lon="1.89841">
        <ele>134.4</ele>
        <time>2015-09-27T08:12:29Z</time>
      </trkpt>
      <trkpt lat="47.96968" lon="1.89839">
        <ele>134.6</ele>
        <time>2015-09-27T08:12:30Z</time>
      </trkpt>
      <trkpt lat="47.96965" lon="1.89837">
        <ele>134.8</ele>
        <time>2015-09-27T08:12:31Z</time>
      </trkpt>
      <trkpt lat="47.96962" lon="1.89835">
        <ele>135.1</ele>
        <time>2015-09-27T08:12:32Z</time>
      </trkpt>
      <trkpt lat="47.96959" lon="1.89831">
        <ele>135.4</ele>
        <time>2015-09-27T08:12:33Z</time>
      </trkpt>
      <trkpt lat="47.96957" lon="1.89828">
        <ele>135.5</ele>
        <time>2015-09-27T08:12:34Z</time>
      </trkpt>
      <trkpt lat="47.96955" lon="1.89824">
        <ele>135.5</ele>
        <time>2015-09-27T08:12:35Z</time>
      </trkpt>
      <trkpt lat="47.96952" lon="1.8982">
        <ele>135.5</ele>
        <time>2015-09-27T08:12:36Z</time>
      </trkpt>
      <trkpt lat="47.96949" lon="1.89817">
        <ele>135.5</ele>
        <time>2015-09-27T08:12:37Z</time>
      </trkpt>
      <trkpt lat="47.96947" lon="1.89813">
        <ele>135.5</ele>
        <time>2015-09-27T08:12:38Z</time>
      </trkpt>
      <trkpt lat="47.96944" lon="1.8981">
        <ele>135.5</ele>
        <time>2015-09-27T08:12:39Z</time>
      </trkpt>
      <trkpt lat="47.96943" lon="1.89805">
        <ele>135.5</ele>
        <time>2015-09-27T08:12:40Z</time>
      </trkpt>
      <trkpt lat="47.96942" lon="1.898">
        <ele>135.5</ele>
        <time>2015-09-27T08:12:41Z</time>
      </trkpt>
      <trkpt lat="47.96942" lon="1.89795">
        <ele>135.4</ele>
        <time>2015-09-27T08:12:42Z</time>
      </trkpt>
      <trkpt lat="47.96942" lon="1.8979">
        <ele>135.3</ele>
        <time>2015-09-27T08:12:43Z</time>
      </trkpt>
      <trkpt lat="47.96942" lon="1.89784">
        <ele>135.1</ele>
        <time>2015-09-27T08:12:44Z</time>
      </trkpt>
      <trkpt lat="47.96942" lon="1.89779">
        <ele>134.9</ele>
        <time>2015-09-27T08:12:45Z</time>
      </trkpt>
      <trkpt lat="47.96943" lon="1.89773">
        <ele>134.7</ele>
        <time>2015-09-27T08:12:46Z</time>
      </trkpt>
      <trkpt lat="47.96943" lon="1.89767">
        <ele>134.4</ele>
        <time>2015-09-27T08:12:47Z</time>
      </trkpt>
      <trkpt lat="47.96943" lon="1.89761">
        <ele>134.2</ele>
        <time>2015-09-27T08:12:48Z</time>
      </trkpt>
      <trkpt lat="47.96943" lon="1.89756">
        <ele>134</ele>
        <time>2015-09-27T08:12:49Z</time>
      </trkpt>
      <trkpt lat="47.96943" lon="1.89749">
        <ele>133.8</ele>
        <time>2015-09-27T08:12:50Z</time>
      </trkpt>
      <trkpt lat="47.96943" lon="1.89743">
        <ele>133.5</ele>
        <time>2015-09-27T08:12:51Z</time>
      </trkpt>
      <trkpt lat="47.96943" lon="1.89737">
        <ele>133.3</ele>
        <time>2015-09-27T08:12:52Z</time>
      </trkpt>
      <trkpt lat="47.96943" lon="1.89731">
        <ele>133</ele>
        <time>2015-09-27T08:12:53Z</time>
      </trkpt>
      <trkpt lat="47.96943" lon="1.89724">
        <ele>132.8</ele>
        <time>2015-09-27T08:12:54Z</time>
      </trkpt>
      <trkpt lat="47.96943" lon="1.89718">
        <ele>132.5</ele>
        <time>2015-09-27T08:12:55Z</time>
      </trkpt>
      <trkpt lat="47.96943" lon="1.89711">
        <ele>132.3</ele>
        <time>2015-09-27T08:12:56Z</time>
      </trkpt>
      <trkpt lat="47.96943" lon="1.89704">
        <ele>131.9</ele>
        <time>2015-09-27T08:12:57Z</time>
      </trkpt>
      <trkpt lat="47.96943" lon="1.89697">
        <ele>131.4</ele>
        <time>2015-09-27T08:12:58Z</time>
      </trkpt>
      <trkpt lat="47.96944" lon="1.89689">
        <ele>131</ele>
        <time>2015-09-27T08:12:59Z</time>
      </trkpt>
      <trkpt lat="47.96944" lon="1.89683">
        <ele>130.6</ele>
        <time>2015-09-27T08:13:00Z</time>
      </trkpt>
      <trkpt lat="47.96944" lon="1.89676">
        <ele>130.2</ele>
        <time>2015-09-27T08:13:01Z</time>
      </trkpt>
      <trkpt lat="47.96945" lon="1.89669">
        <ele>129.7</ele>
        <time>2015-09-27T08:13:02Z</time>
      </trkpt>
      <trkpt lat="47.96945" lon="1.89663">
        <ele>129.3</ele>
        <time>2015-09-27T08:13:03Z</time>
      </trkpt>
      <trkpt lat="47.96946" lon="1.89656">
        <ele>128.9</ele>
        <time>2015-09-27T08:13:04Z</time>
      </trkpt>
      <trkpt lat="47.96946" lon="1.8965">
        <ele>128.5</ele>
        <time>2015-09-27T08:13:05Z</time>
      </trkpt>
      <trkpt lat="47.96946" lon="1.89643">
        <ele>128.1</ele>
        <time>2015-09-27T08:13:06Z</time>
      </trkpt>
      <trkpt lat="47.96946" lon="1.89637">
        <ele>127.7</ele>
        <time>2015-09-27T08:13:07Z</time>
      </trkpt>
      <trkpt lat="47.96947" lon="1.8963">
        <ele>127.3</ele>
        <time>2015-09-27T08:13:08Z</time>
      </trkpt>
      <trkpt lat="47.96947" lon="1.89624">
        <ele>127</ele>
        <time>2015-09-27T08:13:09Z</time>
      </trkpt>
      <trkpt lat="47.96947" lon="1.89617">
        <ele>126.9</ele>
        <time>2015-09-27T08:13:10Z</time>
      </trkpt>
      <trkpt lat="47.96947" lon="1.8961">
        <ele>126.8</ele>
        <time>2015-09-27T08:13:11Z</time>
      </trkpt>
      <trkpt lat="47.96947" lon="1.89603">
        <ele>126.7</ele>
        <time>2015-09-27T08:13:12Z</time>
      </trkpt>
      <trkpt lat="47.96947" lon="1.89597">
        <ele>126.7</ele>
        <time>2015-09-27T08:13:13Z</time>
      </trkpt>
      <trkpt lat="47.96946" lon="1.8959">
        <ele>126.6</ele>
        <time>2015-09-27T08:13:14Z</time>
      </trkpt>
      <trkpt lat="47.96946" lon="1.89584">
        <ele>126.5</ele>
        <time>2015-09-27T08:13:15Z</time>
      </trkpt>
      <trkpt lat="47.96946" lon="1.89577">
        <ele>126.4</ele>
        <time>2015-09-27T08:13:16Z</time>
      </trkpt>
      <trkpt lat="47.96946" lon="1.89571">
        <ele>126.3</ele>
        <time>2015-09-27T08:13:17Z</time>
      </trkpt>
      <trkpt lat="47.96946" lon="1.89564">
        <ele>126.3</ele>
        <time>2015-09-27T08:13:18Z</time>
      </trkpt>
      <trkpt lat="47.96946" lon="1.89557">
        <ele>126.2</ele>
        <time>2015-09-27T08:13:19Z</time>
      </trkpt>
      <trkpt lat="47.96946" lon="1.8955">
        <ele>126.1</ele>
        <time>2015-09-27T08:13:20Z</time>
      </trkpt>
      <trkpt lat="47.96946" lon="1.89542">
        <ele>126</ele>
        <time>2015-09-27T08:13:21Z</time>
      </trkpt>
      <trkpt lat="47.96946" lon="1.89535">
        <ele>126</ele>
        <time>2015-09-27T08:13:22Z</time>
      </trkpt>
      <trkpt lat="47.96946" lon="1.89528">
        <ele>126</ele>
        <time>2015-09-27T08:13:23Z</time>
      </trkpt>
      <trkpt lat="47.96946" lon="1.8952">
        <ele>126</ele>
        <time>2015-09-27T08:13:25Z</time>
      </trkpt>
      <trkpt lat="47.96946" lon="1.89505">
        <ele>126</ele>
        <time>2015-09-27T08:13:26Z</time>
      </trkpt>
      <trkpt lat="47.96946" lon="1.89497">
        <ele>126</ele>
        <time>2015-09-27T08:13:27Z</time>
      </trkpt>
      <trkpt lat="47.96947" lon="1.89489">
        <ele>126</ele>
        <time>2015-09-27T08:13:28Z</time>
      </trkpt>
      <trkpt lat="47.96947" lon="1.89482">
        <ele>126</ele>
        <time>2015-09-27T08:13:29Z</time>
      </trkpt>
      <trkpt lat="47.96947" lon="1.89474">
        <ele>126</ele>
        <time>2015-09-27T08:13:30Z</time>
      </trkpt>
      <trkpt lat="47.96947" lon="1.89466">
        <ele>126</ele>
        <time>2015-09-27T08:13:31Z</time>
      </trkpt>
      <trkpt lat="47.96947" lon="1.89459">
        <ele>126</ele>
        <time>2015-09-27T08:13:32Z</time>
      </trkpt>
      <trkpt lat="47.96947" lon="1.8945">
        <ele>125.8</ele>
        <time>2015-09-27T08:13:33Z</time>
      </trkpt>
      <trkpt lat="47.96947" lon="1.89443">
        <ele>125.6</ele>
        <time>2015-09-27T08:13:34Z</time>
      </trkpt>
      <trkpt lat="47.96947" lon="1.89435">
        <ele>125.4</ele>
        <time>2015-09-27T08:13:35Z</time>
      </trkpt>
      <trkpt lat="47.96947" lon="1.89424">
        <ele>125.2</ele>
        <time>2015-09-27T08:13:36Z</time>
      </trkpt>
      <trkpt lat="47.96947" lon="1.89416">
        <ele>125</ele>
        <time>2015-09-27T08:13:37Z</time>
      </trkpt>
      <trkpt lat="47.96947" lon="1.89406">
        <ele>124.8</ele>
        <time>2015-09-27T08:13:38Z</time>
      </trkpt>
      <trkpt lat="47.96947" lon="1.89399">
        <ele>124.6</ele>
        <time>2015-09-27T08:13:39Z</time>
      </trkpt>
      <trkpt lat="47.96946" lon="1.8939">
        <ele>124.4</ele>
        <time>2015-09-27T08:13:40Z</time>
      </trkpt>
      <trkpt lat="47.96946" lon="1.89382">
        <ele>124.2</ele>
        <time>2015-09-27T08:13:41Z</time>
      </trkpt>
      <trkpt lat="47.96945" lon="1.89372">
        <ele>124</ele>
        <time>2015-09-27T08:13:42Z</time>
      </trkpt>
      <trkpt lat="47.96944" lon="1.89364">
        <ele>124.1</ele>
        <time>2015-09-27T08:13:43Z</time>
      </trkpt>
      <trkpt lat="47.96943" lon="1.89359">
        <ele>124.2</ele>
        <time>2015-09-27T08:13:44Z</time>
      </trkpt>
      <trkpt lat="47.96944" lon="1.89353">
        <ele>124.3</ele>
        <time>2015-09-27T08:13:45Z</time>
      </trkpt>
      <trkpt lat="47.96944" lon="1.89345">
        <ele>124.4</ele>
        <time>2015-09-27T08:13:46Z</time>
      </trkpt>
      <trkpt lat="47.96944" lon="1.89338">
        <ele>124.4</ele>
        <time>2015-09-27T08:13:47Z</time>
      </trkpt>
      <trkpt lat="47.96945" lon="1.8933">
        <ele>124.5</ele>
        <time>2015-09-27T08:13:48Z</time>
      </trkpt>
      <trkpt lat="47.96945" lon="1.89324">
        <ele>124.6</ele>
        <time>2015-09-27T08:13:49Z</time>
      </trkpt>
      <trkpt lat="47.96945" lon="1.89319">
        <ele>124.7</ele>
        <time>2015-09-27T08:13:50Z</time>
      </trkpt>
      <trkpt lat="47.96946" lon="1.89311">
        <ele>124.8</ele>
        <time>2015-09-27T08:13:51Z</time>
      </trkpt>
      <trkpt lat="47.96944" lon="1.89301">
        <ele>124.9</ele>
        <time>2015-09-27T08:13:52Z</time>
      </trkpt>
      <trkpt lat="47.96945" lon="1.89295">
        <ele>125</ele>
        <time>2015-09-27T08:13:53Z</time>
      </trkpt>
      <trkpt lat="47.96944" lon="1.89286">
        <ele>124.9</ele>
        <time>2015-09-27T08:13:54Z</time>
      </trkpt>
      <trkpt lat="47.96945" lon="1.89277">
        <ele>124.9</ele>
        <time>2015-09-27T08:13:55Z</time>
      </trkpt>
      <trkpt lat="47.96945" lon="1.89268">
        <ele>124.8</ele>
        <time>2015-09-27T08:13:56Z</time>
      </trkpt>
      <trkpt lat="47.96944" lon="1.89261">
        <ele>124.7</ele>
        <time>2015-09-27T08:13:57Z</time>
      </trkpt>
      <trkpt lat="47.96945" lon="1.89255">
        <ele>124.6</ele>
        <time>2015-09-27T08:13:58Z</time>
      </trkpt>
      <trkpt lat="47.96945" lon="1.89245">
        <ele>124.5</ele>
        <time>2015-09-27T08:13:59Z</time>
      </trkpt>
      <trkpt lat="47.96945" lon="1.89236">
        <ele>124.4</ele>
        <time>2015-09-27T08:14:00Z</time>
      </trkpt>
      <trkpt lat="47.96946" lon="1.89229">
        <ele>124.4</ele>
        <time>2015-09-27T08:14:01Z</time>
      </trkpt>
      <trkpt lat="47.96946" lon="1.89223">
        <ele>124.3</ele>
        <time>2015-09-27T08:14:02Z</time>
      </trkpt>
      <trkpt lat="47.96946" lon="1.89217">
        <ele>124.2</ele>
        <time>2015-09-27T08:14:03Z</time>
      </trkpt>
      <trkpt lat="47.96946" lon="1.8921">
        <ele>124.2</ele>
        <time>2015-09-27T08:14:04Z</time>
      </trkpt>
      <trkpt lat="47.96946" lon="1.89202">
        <ele>124.1</ele>
        <time>2015-09-27T08:14:05Z</time>
      </trkpt>
      <trkpt lat="47.96946" lon="1.89196">
        <ele>124</ele>
        <time>2015-09-27T08:14:06Z</time>
      </trkpt>
      <trkpt lat="47.96946" lon="1.89186">
        <ele>123.9</ele>
        <time>2015-09-27T08:14:07Z</time>
      </trkpt>
      <trkpt lat="47.96946" lon="1.89178">
        <ele>123.8</ele>
        <time>2015-09-27T08:14:08Z</time>
      </trkpt>
      <trkpt lat="47.96946" lon="1.89169">
        <ele>123.8</ele>
        <time>2015-09-27T08:14:09Z</time>
      </trkpt>
      <trkpt lat="47.96947" lon="1.89162">
        <ele>123.7</ele>
        <time>2015-09-27T08:14:10Z</time>
      </trkpt>
      <trkpt lat="47.96947" lon="1.89155">
        <ele>123.6</ele>
        <time>2015-09-27T08:14:11Z</time>
      </trkpt>
      <trkpt lat="47.96949" lon="1.8915">
        <ele>123.5</ele>
        <time>2015-09-27T08:14:12Z</time>
      </trkpt>
      <trkpt lat="47.96951" lon="1.8914">
        <ele>123.3</ele>
        <time>2015-09-27T08:14:13Z</time>
      </trkpt>
      <trkpt lat="47.96951" lon="1.89133">
        <ele>123.3</ele>
        <time>2015-09-27T08:14:14Z</time>
      </trkpt>
      <trkpt lat="47.96951" lon="1.89126">
        <ele>123.2</ele>
        <time>2015-09-27T08:14:15Z</time>
      </trkpt>
      <trkpt lat="47.96951" lon="1.89121">
        <ele>123.3</ele>
        <time>2015-09-27T08:14:16Z</time>
      </trkpt>
      <trkpt lat="47.9695" lon="1.89114">
        <ele>123.6</ele>
        <time>2015-09-27T08:14:17Z</time>
      </trkpt>
      <trkpt lat="47.9695" lon="1.89108">
        <ele>123.8</ele>
        <time>2015-09-27T08:14:18Z</time>
      </trkpt>
      <trkpt lat="47.9695" lon="1.89101">
        <ele>124</ele>
        <time>2015-09-27T08:14:19Z</time>
      </trkpt>
      <trkpt lat="47.9695" lon="1.89095">
        <ele>124.2</ele>
        <time>2015-09-27T08:14:20Z</time>
      </trkpt>
      <trkpt lat="47.96949" lon="1.89089">
        <ele>124.4</ele>
        <time>2015-09-27T08:14:21Z</time>
      </trkpt>
      <trkpt lat="47.96949" lon="1.89083">
        <ele>124.6</ele>
        <time>2015-09-27T08:14:22Z</time>
      </trkpt>
      <trkpt lat="47.9695" lon="1.89077">
        <ele>124.8</ele>
        <time>2015-09-27T08:14:23Z</time>
      </trkpt>
      <trkpt lat="47.96951" lon="1.8907">
        <ele>125</ele>
        <time>2015-09-27T08:14:24Z</time>
      </trkpt>
      <trkpt lat="47.96951" lon="1.89063">
        <ele>125.3</ele>
        <time>2015-09-27T08:14:25Z</time>
      </trkpt>
      <trkpt lat="47.96951" lon="1.89057">
        <ele>125.5</ele>
        <time>2015-09-27T08:14:26Z</time>
      </trkpt>
      <trkpt lat="47.96951" lon="1.8905">
        <ele>125.7</ele>
        <time>2015-09-27T08:14:27Z</time>
      </trkpt>
      <trkpt lat="47.96951" lon="1.89043">
        <ele>126</ele>
        <time>2015-09-27T08:14:28Z</time>
      </trkpt>
      <trkpt lat="47.96951" lon="1.89035">
        <ele>126.2</ele>
        <time>2015-09-27T08:14:29Z</time>
      </trkpt>
      <trkpt lat="47.9695" lon="1.89028">
        <ele>126.4</ele>
        <time>2015-09-27T08:14:30Z</time>
      </trkpt>
      <trkpt lat="47.9695" lon="1.89021">
        <ele>126.7</ele>
        <time>2015-09-27T08:14:31Z</time>
      </trkpt>
      <trkpt lat="47.96951" lon="1.89014">
        <ele>126.9</ele>
        <time>2015-09-27T08:14:32Z</time>
      </trkpt>
      <trkpt lat="47.96951" lon="1.89007">
        <ele>127.1</ele>
        <time>2015-09-27T08:14:33Z</time>
      </trkpt>
      <trkpt lat="47.96951" lon="1.88999">
        <ele>127.4</ele>
        <time>2015-09-27T08:14:34Z</time>
      </trkpt>
      <trkpt lat="47.96951" lon="1.88992">
        <ele>127.6</ele>
        <time>2015-09-27T08:14:35Z</time>
      </trkpt>
      <trkpt lat="47.96951" lon="1.88984">
        <ele>127.9</ele>
        <time>2015-09-27T08:14:36Z</time>
      </trkpt>
      <trkpt lat="47.96951" lon="1.88978">
        <ele>128.1</ele>
        <time>2015-09-27T08:14:37Z</time>
      </trkpt>
      <trkpt lat="47.96952" lon="1.88969">
        <ele>128.4</ele>
        <time>2015-09-27T08:14:38Z</time>
      </trkpt>
      <trkpt lat="47.96952" lon="1.88963">
        <ele>128.6</ele>
        <time>2015-09-27T08:14:39Z</time>
      </trkpt>
      <trkpt lat="47.96952" lon="1.88955">
        <ele>128.6</ele>
        <time>2015-09-27T08:14:40Z</time>
      </trkpt>
      <trkpt lat="47.96952" lon="1.8895">
        <ele>128.4</ele>
        <time>2015-09-27T08:14:41Z</time>
      </trkpt>
      <trkpt lat="47.96951" lon="1.88945">
        <ele>128.1</ele>
        <time>2015-09-27T08:14:42Z</time>
      </trkpt>
      <trkpt lat="47.96947" lon="1.88943">
        <ele>127.9</ele>
        <time>2015-09-27T08:14:43Z</time>
      </trkpt>
      <trkpt lat="47.96943" lon="1.88941">
        <ele>127.7</ele>
        <time>2015-09-27T08:14:44Z</time>
      </trkpt>
      <trkpt lat="47.9694" lon="1.88941">
        <ele>127.6</ele>
        <time>2015-09-27T08:14:45Z</time>
      </trkpt>
      <trkpt lat="47.96937" lon="1.88939">
        <ele>127.5</ele>
        <time>2015-09-27T08:14:46Z</time>
      </trkpt>
      <trkpt lat="47.96933" lon="1.88938">
        <ele>127.3</ele>
        <time>2015-09-27T08:14:47Z</time>
      </trkpt>
      <trkpt lat="47.96929" lon="1.88937">
        <ele>127.2</ele>
        <time>2015-09-27T08:14:48Z</time>
      </trkpt>
      <trkpt lat="47.96929" lon="1.88932">
        <ele>127</ele>
        <time>2015-09-27T08:14:49Z</time>
      </trkpt>
      <trkpt lat="47.96926" lon="1.88932">
        <ele>126.9</ele>
        <time>2015-09-27T08:14:50Z</time>
      </trkpt>
      <trkpt lat="47.96923" lon="1.8893">
        <ele>126.8</ele>
        <time>2015-09-27T08:14:51Z</time>
      </trkpt>
      <trkpt lat="47.96919" lon="1.88929">
        <ele>126.7</ele>
        <time>2015-09-27T08:14:52Z</time>
      </trkpt>
      <trkpt lat="47.96916" lon="1.88929">
        <ele>126.6</ele>
        <time>2015-09-27T08:14:53Z</time>
      </trkpt>
      <trkpt lat="47.96913" lon="1.88929">
        <ele>126.5</ele>
        <time>2015-09-27T08:14:54Z</time>
      </trkpt>
      <trkpt lat="47.96909" lon="1.8893">
        <ele>126.5</ele>
        <time>2015-09-27T08:14:55Z</time>
      </trkpt>
      <trkpt lat="47.96905" lon="1.8893">
        <ele>126.4</ele>
        <time>2015-09-27T08:14:56Z</time>
      </trkpt>
      <trkpt lat="47.969" lon="1.88931">
        <ele>126.3</ele>
        <time>2015-09-27T08:14:57Z</time>
      </trkpt>
      <trkpt lat="47.96895" lon="1.88931">
        <ele>126.2</ele>
        <time>2015-09-27T08:14:58Z</time>
      </trkpt>
      <trkpt lat="47.96891" lon="1.88932">
        <ele>126.1</ele>
        <time>2015-09-27T08:14:59Z</time>
      </trkpt>
      <trkpt lat="47.96887" lon="1.88932">
        <ele>126</ele>
        <time>2015-09-27T08:15:00Z</time>
      </trkpt>
      <trkpt lat="47.96882" lon="1.88932">
        <ele>125.9</ele>
        <time>2015-09-27T08:15:01Z</time>
      </trkpt>
      <trkpt lat="47.96877" lon="1.88932">
        <ele>125.7</ele>
        <time>2015-09-27T08:15:02Z</time>
      </trkpt>
      <trkpt lat="47.96873" lon="1.88932">
        <ele>125.7</ele>
        <time>2015-09-27T08:15:03Z</time>
      </trkpt>
      <trkpt lat="47.96869" lon="1.88932">
        <ele>125.7</ele>
        <time>2015-09-27T08:15:04Z</time>
      </trkpt>
      <trkpt lat="47.96865" lon="1.88932">
        <ele>125.6</ele>
        <time>2015-09-27T08:15:05Z</time>
      </trkpt>
      <trkpt lat="47.96861" lon="1.88931">
        <ele>125.6</ele>
        <time>2015-09-27T08:15:06Z</time>
      </trkpt>
      <trkpt lat="47.96858" lon="1.8893">
        <ele>125.6</ele>
        <time>2015-09-27T08:15:07Z</time>
      </trkpt>
      <trkpt lat="47.96854" lon="1.8893">
        <ele>125.6</ele>
        <time>2015-09-27T08:15:08Z</time>
      </trkpt>
      <trkpt lat="47.9685" lon="1.8893">
        <ele>125.6</ele>
        <time>2015-09-27T08:15:09Z</time>
      </trkpt>
      <trkpt lat="47.96846" lon="1.8893">
        <ele>125.5</ele>
        <time>2015-09-27T08:15:10Z</time>
      </trkpt>
      <trkpt lat="47.96842" lon="1.8893">
        <ele>125.5</ele>
        <time>2015-09-27T08:15:11Z</time>
      </trkpt>
      <trkpt lat="47.96838" lon="1.88931">
        <ele>125.5</ele>
        <time>2015-09-27T08:15:12Z</time>
      </trkpt>
      <trkpt lat="47.96834" lon="1.88931">
        <ele>125.5</ele>
        <time>2015-09-27T08:15:13Z</time>
      </trkpt>
      <trkpt lat="47.9683" lon="1.88931">
        <ele>125.5</ele>
        <time>2015-09-27T08:15:14Z</time>
      </trkpt>
      <trkpt lat="47.96827" lon="1.88933">
        <ele>125.5</ele>
        <time>2015-09-27T08:15:15Z</time>
      </trkpt>
      <trkpt lat="47.96824" lon="1.88939">
        <ele>125.6</ele>
        <time>2015-09-27T08:15:16Z</time>
      </trkpt>
      <trkpt lat="47.96823" lon="1.88945">
        <ele>125.7</ele>
        <time>2015-09-27T08:15:17Z</time>
      </trkpt>
      <trkpt lat="47.96823" lon="1.88952">
        <ele>125.9</ele>
        <time>2015-09-27T08:15:18Z</time>
      </trkpt>
      <trkpt lat="47.96822" lon="1.88961">
        <ele>126.1</ele>
        <time>2015-09-27T08:15:19Z</time>
      </trkpt>
      <trkpt lat="47.96821" lon="1.88968">
        <ele>126.3</ele>
        <time>2015-09-27T08:15:20Z</time>
      </trkpt>
      <trkpt lat="47.9682" lon="1.88976">
        <ele>126.6</ele>
        <time>2015-09-27T08:15:21Z</time>
      </trkpt>
      <trkpt lat="47.96818" lon="1.88983">
        <ele>126.8</ele>
        <time>2015-09-27T08:15:22Z</time>
      </trkpt>
      <trkpt lat="47.96817" lon="1.88989">
        <ele>127</ele>
        <time>2015-09-27T08:15:23Z</time>
      </trkpt>
      <trkpt lat="47.96815" lon="1.88994">
        <ele>127.3</ele>
        <time>2015-09-27T08:15:24Z</time>
      </trkpt>
      <trkpt lat="47.96812" lon="1.89">
        <ele>127.5</ele>
        <time>2015-09-27T08:15:25Z</time>
      </trkpt>
      <trkpt lat="47.96809" lon="1.89005">
        <ele>127.8</ele>
        <time>2015-09-27T08:15:26Z</time>
      </trkpt>
      <trkpt lat="47.96806" lon="1.8901">
        <ele>128</ele>
        <time>2015-09-27T08:15:27Z</time>
      </trkpt>
      <trkpt lat="47.96802" lon="1.89014">
        <ele>128.3</ele>
        <time>2015-09-27T08:15:28Z</time>
      </trkpt>
      <trkpt lat="47.96799" lon="1.89018">
        <ele>128.6</ele>
        <time>2015-09-27T08:15:29Z</time>
      </trkpt>
      <trkpt lat="47.96795" lon="1.89021">
        <ele>128.9</ele>
        <time>2015-09-27T08:15:30Z</time>
      </trkpt>
      <trkpt lat="47.96791" lon="1.89025">
        <ele>129.2</ele>
        <time>2015-09-27T08:15:31Z</time>
      </trkpt>
      <trkpt lat="47.96788" lon="1.89028">
        <ele>129.4</ele>
        <time>2015-09-27T08:15:32Z</time>
      </trkpt>
      <trkpt lat="47.96784" lon="1.89031">
        <ele>129.5</ele>
        <time>2015-09-27T08:15:33Z</time>
      </trkpt>
      <trkpt lat="47.96781" lon="1.89035">
        <ele>129.7</ele>
        <time>2015-09-27T08:15:34Z</time>
      </trkpt>
      <trkpt lat="47.96777" lon="1.8904">
        <ele>129.9</ele>
        <time>2015-09-27T08:15:35Z</time>
      </trkpt>
      <trkpt lat="47.96773" lon="1.89045">
        <ele>130</ele>
        <time>2015-09-27T08:15:36Z</time>
      </trkpt>
      <trkpt lat="47.96768" lon="1.89052">
        <ele>130</ele>
        <time>2015-09-27T08:15:37Z</time>
      </trkpt>
      <trkpt lat="47.96764" lon="1.89058">
        <ele>130.1</ele>
        <time>2015-09-27T08:15:38Z</time>
      </trkpt>
      <trkpt lat="47.9676" lon="1.89063">
        <ele>130.1</ele>
        <time>2015-09-27T08:15:39Z</time>
      </trkpt>
      <trkpt lat="47.96757" lon="1.89067">
        <ele>130.1</ele>
        <time>2015-09-27T08:15:40Z</time>
      </trkpt>
      <trkpt lat="47.96754" lon="1.8907">
        <ele>130.2</ele>
        <time>2015-09-27T08:15:42Z</time>
      </trkpt>
      <trkpt lat="47.96751" lon="1.89076">
        <ele>130.2</ele>
        <time>2015-09-27T08:15:44Z</time>
      </trkpt>
      <trkpt lat="47.96749" lon="1.89083">
        <ele>130.3</ele>
        <time>2015-09-27T08:15:45Z</time>
      </trkpt>
      <trkpt lat="47.96748" lon="1.89089">
        <ele>130.3</ele>
        <time>2015-09-27T08:15:46Z</time>
      </trkpt>
      <trkpt lat="47.96747" lon="1.89096">
        <ele>130.3</ele>
        <time>2015-09-27T08:15:47Z</time>
      </trkpt>
      <trkpt lat="47.96745" lon="1.89103">
        <ele>130.4</ele>
        <time>2015-09-27T08:15:48Z</time>
      </trkpt>
      <trkpt lat="47.96743" lon="1.8911">
        <ele>130.5</ele>
        <time>2015-09-27T08:15:49Z</time>
      </trkpt>
      <trkpt lat="47.9674" lon="1.89116">
        <ele>130.6</ele>
        <time>2015-09-27T08:15:50Z</time>
      </trkpt>
      <trkpt lat="47.96737" lon="1.89122">
        <ele>130.6</ele>
        <time>2015-09-27T08:15:51Z</time>
      </trkpt>
      <trkpt lat="47.96735" lon="1.89128">
        <ele>130.7</ele>
        <time>2015-09-27T08:15:52Z</time>
      </trkpt>
      <trkpt lat="47.96732" lon="1.89133">
        <ele>130.7</ele>
        <time>2015-09-27T08:15:53Z</time>
      </trkpt>
      <trkpt lat="47.9673" lon="1.89139">
        <ele>130.7</ele>
        <time>2015-09-27T08:15:54Z</time>
      </trkpt>
      <trkpt lat="47.96729" lon="1.89144">
        <ele>130.8</ele>
        <time>2015-09-27T08:15:55Z</time>
      </trkpt>
      <trkpt lat="47.96728" lon="1.8915">
        <ele>130.8</ele>
        <time>2015-09-27T08:15:56Z</time>
      </trkpt>
      <trkpt lat="47.96726" lon="1.89155">
        <ele>130.8</ele>
        <time>2015-09-27T08:15:57Z</time>
      </trkpt>
      <trkpt lat="47.96724" lon="1.8916">
        <ele>130.9</ele>
        <time>2015-09-27T08:15:58Z</time>
      </trkpt>
      <trkpt lat="47.96721" lon="1.89164">
        <ele>131</ele>
        <time>2015-09-27T08:15:59Z</time>
      </trkpt>
      <trkpt lat="47.96717" lon="1.89167">
        <ele>131.2</ele>
        <time>2015-09-27T08:16:00Z</time>
      </trkpt>
      <trkpt lat="47.96713" lon="1.89172">
        <ele>131.4</ele>
        <time>2015-09-27T08:16:01Z</time>
      </trkpt>
      <trkpt lat="47.9671" lon="1.89177">
        <ele>131.6</ele>
        <time>2015-09-27T08:16:02Z</time>
      </trkpt>
      <trkpt lat="47.96706" lon="1.89181">
        <ele>131.7</ele>
        <time>2015-09-27T08:16:03Z</time>
      </trkpt>
      <trkpt lat="47.96702" lon="1.89185">
        <ele>131.8</ele>
        <time>2015-09-27T08:16:04Z</time>
      </trkpt>
      <trkpt lat="47.96697" lon="1.89187">
        <ele>131.8</ele>
        <time>2015-09-27T08:16:05Z</time>
      </trkpt>
      <trkpt lat="47.96693" lon="1.8919">
        <ele>131.9</ele>
        <time>2015-09-27T08:16:06Z</time>
      </trkpt>
      <trkpt lat="47.9669" lon="1.89194">
        <ele>131.9</ele>
        <time>2015-09-27T08:16:07Z</time>
      </trkpt>
      <trkpt lat="47.96687" lon="1.89199">
        <ele>131.9</ele>
        <time>2015-09-27T08:16:08Z</time>
      </trkpt>
      <trkpt lat="47.96686" lon="1.89204">
        <ele>132</ele>
        <time>2015-09-27T08:16:09Z</time>
      </trkpt>
      <trkpt lat="47.96684" lon="1.8921">
        <ele>132</ele>
        <time>2015-09-27T08:16:10Z</time>
      </trkpt>
      <trkpt lat="47.96684" lon="1.89216">
        <ele>131.8</ele>
        <time>2015-09-27T08:16:11Z</time>
      </trkpt>
      <trkpt lat="47.96684" lon="1.89223">
        <ele>131.7</ele>
        <time>2015-09-27T08:16:12Z</time>
      </trkpt>
      <trkpt lat="47.96683" lon="1.8923">
        <ele>131.6</ele>
        <time>2015-09-27T08:16:13Z</time>
      </trkpt>
      <trkpt lat="47.96683" lon="1.89237">
        <ele>131.4</ele>
        <time>2015-09-27T08:16:14Z</time>
      </trkpt>
      <trkpt lat="47.96681" lon="1.89244">
        <ele>131.3</ele>
        <time>2015-09-27T08:16:15Z</time>
      </trkpt>
      <trkpt lat="47.96677" lon="1.89249">
        <ele>131.2</ele>
        <time>2015-09-27T08:16:16Z</time>
      </trkpt>
      <trkpt lat="47.96672" lon="1.89252">
        <ele>131.2</ele>
        <time>2015-09-27T08:16:17Z</time>
      </trkpt>
      <trkpt lat="47.96667" lon="1.89255">
        <ele>131.2</ele>
        <time>2015-09-27T08:16:18Z</time>
      </trkpt>
      <trkpt lat="47.96662" lon="1.89256">
        <ele>131.2</ele>
        <time>2015-09-27T08:16:19Z</time>
      </trkpt>
      <trkpt lat="47.96658" lon="1.89257">
        <ele>131.2</ele>
        <time>2015-09-27T08:16:20Z</time>
      </trkpt>
      <trkpt lat="47.96653" lon="1.89258">
        <ele>131.2</ele>
        <time>2015-09-27T08:16:21Z</time>
      </trkpt>
      <trkpt lat="47.96649" lon="1.89262">
        <ele>131.2</ele>
        <time>2015-09-27T08:16:22Z</time>
      </trkpt>
      <trkpt lat="47.96646" lon="1.89268">
        <ele>131.1</ele>
        <time>2015-09-27T08:16:23Z</time>
      </trkpt>
      <trkpt lat="47.96644" lon="1.89273">
        <ele>131</ele>
        <time>2015-09-27T08:16:24Z</time>
      </trkpt>
      <trkpt lat="47.96643" lon="1.89279">
        <ele>131</ele>
        <time>2015-09-27T08:16:25Z</time>
      </trkpt>
      <trkpt lat="47.96644" lon="1.89284">
        <ele>130.9</ele>
        <time>2015-09-27T08:16:26Z</time>
      </trkpt>
      <trkpt lat="47.96645" lon="1.89289">
        <ele>130.8</ele>
        <time>2015-09-27T08:16:27Z</time>
      </trkpt>
      <trkpt lat="47.96646" lon="1.89294">
        <ele>130.8</ele>
        <time>2015-09-27T08:16:28Z</time>
      </trkpt>
      <trkpt lat="47.96647" lon="1.89298">
        <ele>130.9</ele>
        <time>2015-09-27T08:16:29Z</time>
      </trkpt>
      <trkpt lat="47.96648" lon="1.89302">
        <ele>131</ele>
        <time>2015-09-27T08:16:30Z</time>
      </trkpt>
      <trkpt lat="47.96649" lon="1.8931">
        <ele>131.1</ele>
        <time>2015-09-27T08:16:32Z</time>
      </trkpt>
      <trkpt lat="47.96649" lon="1.89318">
        <ele>131.3</ele>
        <time>2015-09-27T08:16:34Z</time>
      </trkpt>
      <trkpt lat="47.96649" lon="1.89323">
        <ele>131.4</ele>
        <time>2015-09-27T08:16:35Z</time>
      </trkpt>
      <trkpt lat="47.96649" lon="1.89328">
        <ele>131.5</ele>
        <time>2015-09-27T08:16:36Z</time>
      </trkpt>
      <trkpt lat="47.96648" lon="1.89334">
        <ele>131.7</ele>
        <time>2015-09-27T08:16:37Z</time>
      </trkpt>
      <trkpt lat="47.96648" lon="1.8934">
        <ele>131.8</ele>
        <time>2015-09-27T08:16:38Z</time>
      </trkpt>
      <trkpt lat="47.96648" lon="1.89346">
        <ele>131.9</ele>
        <time>2015-09-27T08:16:39Z</time>
      </trkpt>
      <trkpt lat="47.96649" lon="1.89352">
        <ele>132.1</ele>
        <time>2015-09-27T08:16:40Z</time>
      </trkpt>
      <trkpt lat="47.96649" lon="1.89358">
        <ele>132.2</ele>
        <time>2015-09-27T08:16:41Z</time>
      </trkpt>
      <trkpt lat="47.96649" lon="1.89364">
        <ele>132.3</ele>
        <time>2015-09-27T08:16:42Z</time>
      </trkpt>
      <trkpt lat="47.96649" lon="1.8937">
        <ele>132.4</ele>
        <time>2015-09-27T08:16:43Z</time>
      </trkpt>
      <trkpt lat="47.96649" lon="1.89375">
        <ele>132.6</ele>
        <time>2015-09-27T08:16:44Z</time>
      </trkpt>
      <trkpt lat="47.96648" lon="1.8938">
        <ele>132.6</ele>
        <time>2015-09-27T08:16:45Z</time>
      </trkpt>
      <trkpt lat="47.96648" lon="1.89385">
        <ele>132.6</ele>
        <time>2015-09-27T08:16:46Z</time>
      </trkpt>
      <trkpt lat="47.96645" lon="1.89391">
        <ele>132.7</ele>
        <time>2015-09-27T08:16:47Z</time>
      </trkpt>
      <trkpt lat="47.96642" lon="1.89395">
        <ele>132.9</ele>
        <time>2015-09-27T08:16:48Z</time>
      </trkpt>
      <trkpt lat="47.96639" lon="1.894">
        <ele>133.1</ele>
        <time>2015-09-27T08:16:49Z</time>
      </trkpt>
      <trkpt lat="47.96636" lon="1.89405">
        <ele>133.3</ele>
        <time>2015-09-27T08:16:50Z</time>
      </trkpt>
      <trkpt lat="47.96634" lon="1.89411">
        <ele>133.4</ele>
        <time>2015-09-27T08:16:51Z</time>
      </trkpt>
      <trkpt lat="47.96633" lon="1.89417">
        <ele>133.5</ele>
        <time>2015-09-27T08:16:52Z</time>
      </trkpt>
      <trkpt lat="47.96633" lon="1.89423">
        <ele>133.5</ele>
        <time>2015-09-27T08:16:53Z</time>
      </trkpt>
      <trkpt lat="47.96633" lon="1.89429">
        <ele>133.5</ele>
        <time>2015-09-27T08:16:54Z</time>
      </trkpt>
      <trkpt lat="47.96632" lon="1.89435">
        <ele>133.5</ele>
        <time>2015-09-27T08:16:55Z</time>
      </trkpt>
      <trkpt lat="47.96631" lon="1.8944">
        <ele>133.6</ele>
        <time>2015-09-27T08:16:56Z</time>
      </trkpt>
      <trkpt lat="47.96629" lon="1.89445">
        <ele>133.7</ele>
        <time>2015-09-27T08:16:57Z</time>
      </trkpt>
      <trkpt lat="47.96627" lon="1.89449">
        <ele>133.9</ele>
        <time>2015-09-27T08:16:58Z</time>
      </trkpt>
      <trkpt lat="47.96624" lon="1.89453">
        <ele>134</ele>
        <time>2015-09-27T08:16:59Z</time>
      </trkpt>
      <trkpt lat="47.9662" lon="1.89457">
        <ele>134.1</ele>
        <time>2015-09-27T08:17:00Z</time>
      </trkpt>
      <trkpt lat="47.96616" lon="1.8946">
        <ele>134.2</ele>
        <time>2015-09-27T08:17:01Z</time>
      </trkpt>
      <trkpt lat="47.96613" lon="1.89464">
        <ele>134.2</ele>
        <time>2015-09-27T08:17:02Z</time>
      </trkpt>
      <trkpt lat="47.96611" lon="1.89469">
        <ele>134.1</ele>
        <time>2015-09-27T08:17:03Z</time>
      </trkpt>
      <trkpt lat="47.96608" lon="1.89474">
        <ele>134.1</ele>
        <time>2015-09-27T08:17:04Z</time>
      </trkpt>
      <trkpt lat="47.96605" lon="1.8948">
        <ele>134.1</ele>
        <time>2015-09-27T08:17:05Z</time>
      </trkpt>
      <trkpt lat="47.96603" lon="1.89485">
        <ele>134</ele>
        <time>2015-09-27T08:17:06Z</time>
      </trkpt>
      <trkpt lat="47.96602" lon="1.89491">
        <ele>134</ele>
        <time>2015-09-27T08:17:07Z</time>
      </trkpt>
      <trkpt lat="47.96601" lon="1.89497">
        <ele>133.9</ele>
        <time>2015-09-27T08:17:08Z</time>
      </trkpt>
      <trkpt lat="47.966" lon="1.89504">
        <ele>133.8</ele>
        <time>2015-09-27T08:17:09Z</time>
      </trkpt>
      <trkpt lat="47.96599" lon="1.8951">
        <ele>133.8</ele>
        <time>2015-09-27T08:17:10Z</time>
      </trkpt>
      <trkpt lat="47.96598" lon="1.89518">
        <ele>133.7</ele>
        <time>2015-09-27T08:17:11Z</time>
      </trkpt>
      <trkpt lat="47.96596" lon="1.89524">
        <ele>133.7</ele>
        <time>2015-09-27T08:17:12Z</time>
      </trkpt>
      <trkpt lat="47.96595" lon="1.8953">
        <ele>133.6</ele>
        <time>2015-09-27T08:17:13Z</time>
      </trkpt>
      <trkpt lat="47.96593" lon="1.89536">
        <ele>133.6</ele>
        <time>2015-09-27T08:17:14Z</time>
      </trkpt>
      <trkpt lat="47.9659" lon="1.89538">
        <ele>133.7</ele>
        <time>2015-09-27T08:17:15Z</time>
      </trkpt>
      <trkpt lat="47.96585" lon="1.89538">
        <ele>134</ele>
        <time>2015-09-27T08:17:16Z</time>
      </trkpt>
      <trkpt lat="47.96581" lon="1.89536">
        <ele>134.2</ele>
        <time>2015-09-27T08:17:17Z</time>
      </trkpt>
      <trkpt lat="47.96577" lon="1.89536">
        <ele>134.4</ele>
        <time>2015-09-27T08:17:18Z</time>
      </trkpt>
      <trkpt lat="47.96573" lon="1.89535">
        <ele>134.5</ele>
        <time>2015-09-27T08:17:19Z</time>
      </trkpt>
      <trkpt lat="47.9657" lon="1.89535">
        <ele>134.7</ele>
        <time>2015-09-27T08:17:20Z</time>
      </trkpt>
      <trkpt lat="47.96566" lon="1.89534">
        <ele>134.9</ele>
        <time>2015-09-27T08:17:21Z</time>
      </trkpt>
      <trkpt lat="47.96563" lon="1.89533">
        <ele>135.1</ele>
        <time>2015-09-27T08:17:22Z</time>
      </trkpt>
      <trkpt lat="47.96559" lon="1.89531">
        <ele>135.2</ele>
        <time>2015-09-27T08:17:23Z</time>
      </trkpt>
      <trkpt lat="47.96556" lon="1.8953">
        <ele>135.4</ele>
        <time>2015-09-27T08:17:24Z</time>
      </trkpt>
      <trkpt lat="47.96552" lon="1.89529">
        <ele>135.6</ele>
        <time>2015-09-27T08:17:25Z</time>
      </trkpt>
      <trkpt lat="47.96546" lon="1.89529">
        <ele>135.8</ele>
        <time>2015-09-27T08:17:26Z</time>
      </trkpt>
      <trkpt lat="47.96541" lon="1.89529">
        <ele>136</ele>
        <time>2015-09-27T08:17:27Z</time>
      </trkpt>
      <trkpt lat="47.96536" lon="1.89529">
        <ele>136.1</ele>
        <time>2015-09-27T08:17:28Z</time>
      </trkpt>
      <trkpt lat="47.96531" lon="1.89529">
        <ele>136.1</ele>
        <time>2015-09-27T08:17:29Z</time>
      </trkpt>
      <trkpt lat="47.96526" lon="1.89529">
        <ele>136.2</ele>
        <time>2015-09-27T08:17:30Z</time>
      </trkpt>
      <trkpt lat="47.96521" lon="1.8953">
        <ele>136.3</ele>
        <time>2015-09-27T08:17:31Z</time>
      </trkpt>
      <trkpt lat="47.96516" lon="1.89529">
        <ele>136.4</ele>
        <time>2015-09-27T08:17:32Z</time>
      </trkpt>
      <trkpt lat="47.96511" lon="1.8953">
        <ele>136.4</ele>
        <time>2015-09-27T08:17:33Z</time>
      </trkpt>
      <trkpt lat="47.96506" lon="1.8953">
        <ele>136.5</ele>
        <time>2015-09-27T08:17:34Z</time>
      </trkpt>
      <trkpt lat="47.96501" lon="1.89531">
        <ele>136.6</ele>
        <time>2015-09-27T08:17:35Z</time>
      </trkpt>
      <trkpt lat="47.96497" lon="1.89531">
        <ele>136.6</ele>
        <time>2015-09-27T08:17:36Z</time>
      </trkpt>
      <trkpt lat="47.96492" lon="1.89531">
        <ele>136.7</ele>
        <time>2015-09-27T08:17:37Z</time>
      </trkpt>
      <trkpt lat="47.96488" lon="1.8953">
        <ele>136.7</ele>
        <time>2015-09-27T08:17:38Z</time>
      </trkpt>
      <trkpt lat="47.96484" lon="1.89529">
        <ele>136.8</ele>
        <time>2015-09-27T08:17:39Z</time>
      </trkpt>
      <trkpt lat="47.9648" lon="1.89527">
        <ele>136.9</ele>
        <time>2015-09-27T08:17:40Z</time>
      </trkpt>
      <trkpt lat="47.96475" lon="1.89526">
        <ele>136.9</ele>
        <time>2015-09-27T08:17:41Z</time>
      </trkpt>
      <trkpt lat="47.96471" lon="1.89525">
        <ele>137</ele>
        <time>2015-09-27T08:17:42Z</time>
      </trkpt>
      <trkpt lat="47.96467" lon="1.89524">
        <ele>137.1</ele>
        <time>2015-09-27T08:17:43Z</time>
      </trkpt>
      <trkpt lat="47.96463" lon="1.89523">
        <ele>137.2</ele>
        <time>2015-09-27T08:17:44Z</time>
      </trkpt>
      <trkpt lat="47.96458" lon="1.89522">
        <ele>137.2</ele>
        <time>2015-09-27T08:17:45Z</time>
      </trkpt>
      <trkpt lat="47.96454" lon="1.89521">
        <ele>137.1</ele>
        <time>2015-09-27T08:17:46Z</time>
      </trkpt>
      <trkpt lat="47.9645" lon="1.8952">
        <ele>137</ele>
        <time>2015-09-27T08:17:47Z</time>
      </trkpt>
      <trkpt lat="47.96446" lon="1.89519">
        <ele>136.9</ele>
        <time>2015-09-27T08:17:48Z</time>
      </trkpt>
      <trkpt lat="47.96442" lon="1.89519">
        <ele>136.8</ele>
        <time>2015-09-27T08:17:49Z</time>
      </trkpt>
      <trkpt lat="47.96439" lon="1.89519">
        <ele>136.7</ele>
        <time>2015-09-27T08:17:50Z</time>
      </trkpt>
      <trkpt lat="47.96435" lon="1.89519">
        <ele>136.6</ele>
        <time>2015-09-27T08:17:51Z</time>
      </trkpt>
      <trkpt lat="47.96432" lon="1.89518">
        <ele>136.6</ele>
        <time>2015-09-27T08:17:52Z</time>
      </trkpt>
      <trkpt lat="47.96428" lon="1.89518">
        <ele>136.5</ele>
        <time>2015-09-27T08:17:53Z</time>
      </trkpt>
      <trkpt lat="47.96425" lon="1.89519">
        <ele>136.4</ele>
        <time>2015-09-27T08:17:54Z</time>
      </trkpt>
      <trkpt lat="47.96421" lon="1.8952">
        <ele>136.2</ele>
        <time>2015-09-27T08:17:55Z</time>
      </trkpt>
      <trkpt lat="47.96417" lon="1.89521">
        <ele>136.1</ele>
        <time>2015-09-27T08:17:56Z</time>
      </trkpt>
      <trkpt lat="47.96414" lon="1.89521">
        <ele>136</ele>
        <time>2015-09-27T08:17:57Z</time>
      </trkpt>
      <trkpt lat="47.9641" lon="1.89521">
        <ele>135.9</ele>
        <time>2015-09-27T08:17:58Z</time>
      </trkpt>
      <trkpt lat="47.96405" lon="1.89521">
        <ele>135.8</ele>
        <time>2015-09-27T08:17:59Z</time>
      </trkpt>
      <trkpt lat="47.96401" lon="1.89521">
        <ele>135.7</ele>
        <time>2015-09-27T08:18:00Z</time>
      </trkpt>
      <trkpt lat="47.96398" lon="1.8952">
        <ele>135.6</ele>
        <time>2015-09-27T08:18:01Z</time>
      </trkpt>
      <trkpt lat="47.96394" lon="1.8952">
        <ele>135.5</ele>
        <time>2015-09-27T08:18:02Z</time>
      </trkpt>
      <trkpt lat="47.9639" lon="1.89519">
        <ele>135.4</ele>
        <time>2015-09-27T08:18:03Z</time>
      </trkpt>
      <trkpt lat="47.96386" lon="1.89518">
        <ele>135.3</ele>
        <time>2015-09-27T08:18:04Z</time>
      </trkpt>
      <trkpt lat="47.96381" lon="1.89516">
        <ele>135.2</ele>
        <time>2015-09-27T08:18:05Z</time>
      </trkpt>
      <trkpt lat="47.96377" lon="1.89514">
        <ele>135.1</ele>
        <time>2015-09-27T08:18:06Z</time>
      </trkpt>
      <trkpt lat="47.96372" lon="1.89512">
        <ele>135</ele>
        <time>2015-09-27T08:18:07Z</time>
      </trkpt>
      <trkpt lat="47.96368" lon="1.89511">
        <ele>135.1</ele>
        <time>2015-09-27T08:18:08Z</time>
      </trkpt>
      <trkpt lat="47.96364" lon="1.8951">
        <ele>135.2</ele>
        <time>2015-09-27T08:18:09Z</time>
      </trkpt>
      <trkpt lat="47.9636" lon="1.8951">
        <ele>135.2</ele>
        <time>2015-09-27T08:18:10Z</time>
      </trkpt>
      <trkpt lat="47.96357" lon="1.8951">
        <ele>135.3</ele>
        <time>2015-09-27T08:18:11Z</time>
      </trkpt>
      <trkpt lat="47.96353" lon="1.89511">
        <ele>135.3</ele>
        <time>2015-09-27T08:18:12Z</time>
      </trkpt>
      <trkpt lat="47.9635" lon="1.89511">
        <ele>135.4</ele>
        <time>2015-09-27T08:18:13Z</time>
      </trkpt>
      <trkpt lat="47.96347" lon="1.89511">
        <ele>135.4</ele>
        <time>2015-09-27T08:18:14Z</time>
      </trkpt>
      <trkpt lat="47.96344" lon="1.89511">
        <ele>135.5</ele>
        <time>2015-09-27T08:18:15Z</time>
      </trkpt>
      <trkpt lat="47.96341" lon="1.8951">
        <ele>135.5</ele>
        <time>2015-09-27T08:18:16Z</time>
      </trkpt>
      <trkpt lat="47.96338" lon="1.8951">
        <ele>135.6</ele>
        <time>2015-09-27T08:18:17Z</time>
      </trkpt>
      <trkpt lat="47.96334" lon="1.8951">
        <ele>135.6</ele>
        <time>2015-09-27T08:18:18Z</time>
      </trkpt>
      <trkpt lat="47.96331" lon="1.8951">
        <ele>135.7</ele>
        <time>2015-09-27T08:18:19Z</time>
      </trkpt>
      <trkpt lat="47.96327" lon="1.8951">
        <ele>135.7</ele>
        <time>2015-09-27T08:18:20Z</time>
      </trkpt>
      <trkpt lat="47.96323" lon="1.8951">
        <ele>135.8</ele>
        <time>2015-09-27T08:18:22Z</time>
      </trkpt>
      <trkpt lat="47.96314" lon="1.89508">
        <ele>135.9</ele>
        <time>2015-09-27T08:18:23Z</time>
      </trkpt>
      <trkpt lat="47.9631" lon="1.89508">
        <ele>135.9</ele>
        <time>2015-09-27T08:18:24Z</time>
      </trkpt>
      <trkpt lat="47.96305" lon="1.89508">
        <ele>136</ele>
        <time>2015-09-27T08:18:25Z</time>
      </trkpt>
      <trkpt lat="47.96301" lon="1.89508">
        <ele>136.1</ele>
        <time>2015-09-27T08:18:26Z</time>
      </trkpt>
      <trkpt lat="47.96296" lon="1.89508">
        <ele>136.1</ele>
        <time>2015-09-27T08:18:27Z</time>
      </trkpt>
      <trkpt lat="47.96291" lon="1.89509">
        <ele>136.2</ele>
        <time>2015-09-27T08:18:28Z</time>
      </trkpt>
      <trkpt lat="47.96287" lon="1.89508">
        <ele>136.2</ele>
        <time>2015-09-27T08:18:29Z</time>
      </trkpt>
      <trkpt lat="47.96283" lon="1.89507">
        <ele>136.1</ele>
        <time>2015-09-27T08:18:30Z</time>
      </trkpt>
      <trkpt lat="47.96278" lon="1.89507">
        <ele>136.1</ele>
        <time>2015-09-27T08:18:31Z</time>
      </trkpt>
      <trkpt lat="47.96274" lon="1.89506">
        <ele>136</ele>
        <time>2015-09-27T08:18:32Z</time>
      </trkpt>
      <trkpt lat="47.96269" lon="1.89505">
        <ele>136</ele>
        <time>2015-09-27T08:18:33Z</time>
      </trkpt>
      <trkpt lat="47.96265" lon="1.89504">
        <ele>135.9</ele>
        <time>2015-09-27T08:18:34Z</time>
      </trkpt>
      <trkpt lat="47.96261" lon="1.89503">
        <ele>135.9</ele>
        <time>2015-09-27T08:18:35Z</time>
      </trkpt>
      <trkpt lat="47.96256" lon="1.89503">
        <ele>135.8</ele>
        <time>2015-09-27T08:18:36Z</time>
      </trkpt>
      <trkpt lat="47.96251" lon="1.89504">
        <ele>135.8</ele>
        <time>2015-09-27T08:18:37Z</time>
      </trkpt>
      <trkpt lat="47.96246" lon="1.89504">
        <ele>135.8</ele>
        <time>2015-09-27T08:18:38Z</time>
      </trkpt>
      <trkpt lat="47.96242" lon="1.89505">
        <ele>135.8</ele>
        <time>2015-09-27T08:18:39Z</time>
      </trkpt>
      <trkpt lat="47.96238" lon="1.89505">
        <ele>135.8</ele>
        <time>2015-09-27T08:18:40Z</time>
      </trkpt>
      <trkpt lat="47.96234" lon="1.89505">
        <ele>135.7</ele>
        <time>2015-09-27T08:18:41Z</time>
      </trkpt>
      <trkpt lat="47.9623" lon="1.89503">
        <ele>135.7</ele>
        <time>2015-09-27T08:18:42Z</time>
      </trkpt>
      <trkpt lat="47.96226" lon="1.89503">
        <ele>135.6</ele>
        <time>2015-09-27T08:18:43Z</time>
      </trkpt>
      <trkpt lat="47.96221" lon="1.89502">
        <ele>135.6</ele>
        <time>2015-09-27T08:18:44Z</time>
      </trkpt>
      <trkpt lat="47.96217" lon="1.89502">
        <ele>135.6</ele>
        <time>2015-09-27T08:18:45Z</time>
      </trkpt>
      <trkpt lat="47.96213" lon="1.89501">
        <ele>135.5</ele>
        <time>2015-09-27T08:18:46Z</time>
      </trkpt>
      <trkpt lat="47.96208" lon="1.89501">
        <ele>135.5</ele>
        <time>2015-09-27T08:18:47Z</time>
      </trkpt>
      <trkpt lat="47.96203" lon="1.89501">
        <ele>135.4</ele>
        <time>2015-09-27T08:18:48Z</time>
      </trkpt>
      <trkpt lat="47.96198" lon="1.89501">
        <ele>135.2</ele>
        <time>2015-09-27T08:18:49Z</time>
      </trkpt>
      <trkpt lat="47.96193" lon="1.895">
        <ele>135.1</ele>
        <time>2015-09-27T08:18:50Z</time>
      </trkpt>
      <trkpt lat="47.96188" lon="1.895">
        <ele>135</ele>
        <time>2015-09-27T08:18:51Z</time>
      </trkpt>
      <trkpt lat="47.96184" lon="1.89499">
        <ele>134.9</ele>
        <time>2015-09-27T08:18:52Z</time>
      </trkpt>
      <trkpt lat="47.9618" lon="1.895">
        <ele>134.8</ele>
        <time>2015-09-27T08:18:53Z</time>
      </trkpt>
      <trkpt lat="47.96175" lon="1.895">
        <ele>134.7</ele>
        <time>2015-09-27T08:18:54Z</time>
      </trkpt>
      <trkpt lat="47.96171" lon="1.89501">
        <ele>134.6</ele>
        <time>2015-09-27T08:18:55Z</time>
      </trkpt>
      <trkpt lat="47.96167" lon="1.89501">
        <ele>134.5</ele>
        <time>2015-09-27T08:18:56Z</time>
      </trkpt>
      <trkpt lat="47.96162" lon="1.895">
        <ele>134.4</ele>
        <time>2015-09-27T08:18:57Z</time>
      </trkpt>
      <trkpt lat="47.96158" lon="1.895">
        <ele>134.3</ele>
        <time>2015-09-27T08:18:58Z</time>
      </trkpt>
      <trkpt lat="47.96153" lon="1.89499">
        <ele>134.2</ele>
        <time>2015-09-27T08:18:59Z</time>
      </trkpt>
      <trkpt lat="47.96148" lon="1.89499">
        <ele>134.1</ele>
        <time>2015-09-27T08:19:00Z</time>
      </trkpt>
      <trkpt lat="47.96144" lon="1.89499">
        <ele>134</ele>
        <time>2015-09-27T08:19:01Z</time>
      </trkpt>
      <trkpt lat="47.96139" lon="1.89499">
        <ele>133.8</ele>
        <time>2015-09-27T08:19:02Z</time>
      </trkpt>
      <trkpt lat="47.96136" lon="1.89499">
        <ele>133.8</ele>
        <time>2015-09-27T08:19:03Z</time>
      </trkpt>
      <trkpt lat="47.96132" lon="1.89498">
        <ele>133.7</ele>
        <time>2015-09-27T08:19:04Z</time>
      </trkpt>
      <trkpt lat="47.96129" lon="1.89497">
        <ele>133.6</ele>
        <time>2015-09-27T08:19:05Z</time>
      </trkpt>
      <trkpt lat="47.96125" lon="1.89496">
        <ele>133.6</ele>
        <time>2015-09-27T08:19:06Z</time>
      </trkpt>
      <trkpt lat="47.96123" lon="1.89494">
        <ele>133.4</ele>
        <time>2015-09-27T08:19:07Z</time>
      </trkpt>
      <trkpt lat="47.96119" lon="1.89493">
        <ele>133.2</ele>
        <time>2015-09-27T08:19:08Z</time>
      </trkpt>
      <trkpt lat="47.96116" lon="1.89495">
        <ele>132.9</ele>
        <time>2015-09-27T08:19:09Z</time>
      </trkpt>
      <trkpt lat="47.96113" lon="1.89497">
        <ele>132.6</ele>
        <time>2015-09-27T08:19:10Z</time>
      </trkpt>
      <trkpt lat="47.9611" lon="1.895">
        <ele>132.4</ele>
        <time>2015-09-27T08:19:11Z</time>
      </trkpt>
      <trkpt lat="47.96107" lon="1.89504">
        <ele>132.2</ele>
        <time>2015-09-27T08:19:12Z</time>
      </trkpt>
      <trkpt lat="47.96104" lon="1.89508">
        <ele>132</ele>
        <time>2015-09-27T08:19:13Z</time>
      </trkpt>
      <trkpt lat="47.96102" lon="1.89511">
        <ele>131.7</ele>
        <time>2015-09-27T08:19:14Z</time>
      </trkpt>
      <trkpt lat="47.96099" lon="1.89514">
        <ele>131.5</ele>
        <time>2015-09-27T08:19:15Z</time>
      </trkpt>
      <trkpt lat="47.96096" lon="1.89517">
        <ele>131.3</ele>
        <time>2015-09-27T08:19:16Z</time>
      </trkpt>
      <trkpt lat="47.96094" lon="1.8952">
        <ele>131.2</ele>
        <time>2015-09-27T08:19:17Z</time>
      </trkpt>
      <trkpt lat="47.96091" lon="1.89522">
        <ele>131</ele>
        <time>2015-09-27T08:19:18Z</time>
      </trkpt>
      <trkpt lat="47.9609" lon="1.89525">
        <ele>130.9</ele>
        <time>2015-09-27T08:19:19Z</time>
      </trkpt>
      <trkpt lat="47.96088" lon="1.89529">
        <ele>130.8</ele>
        <time>2015-09-27T08:19:20Z</time>
      </trkpt>
      <trkpt lat="47.96086" lon="1.89533">
        <ele>130.7</ele>
        <time>2015-09-27T08:19:21Z</time>
      </trkpt>
      <trkpt lat="47.96085" lon="1.89537">
        <ele>130.6</ele>
        <time>2015-09-27T08:19:22Z</time>
      </trkpt>
      <trkpt lat="47.96083" lon="1.89541">
        <ele>130.5</ele>
        <time>2015-09-27T08:19:23Z</time>
      </trkpt>
      <trkpt lat="47.96081" lon="1.89544">
        <ele>130.5</ele>
        <time>2015-09-27T08:19:24Z</time>
      </trkpt>
      <trkpt lat="47.96077" lon="1.89547">
        <ele>130.4</ele>
        <time>2015-09-27T08:19:25Z</time>
      </trkpt>
      <trkpt lat="47.96074" lon="1.8955">
        <ele>130.4</ele>
        <time>2015-09-27T08:19:26Z</time>
      </trkpt>
      <trkpt lat="47.96071" lon="1.89553">
        <ele>130.4</ele>
        <time>2015-09-27T08:19:27Z</time>
      </trkpt>
      <trkpt lat="47.96068" lon="1.89557">
        <ele>130.4</ele>
        <time>2015-09-27T08:19:28Z</time>
      </trkpt>
      <trkpt lat="47.96066" lon="1.89561">
        <ele>130.6</ele>
        <time>2015-09-27T08:19:29Z</time>
      </trkpt>
      <trkpt lat="47.96065" lon="1.89566">
        <ele>130.8</ele>
        <time>2015-09-27T08:19:30Z</time>
      </trkpt>
      <trkpt lat="47.96069" lon="1.8957">
        <ele>131.2</ele>
        <time>2015-09-27T08:19:32Z</time>
      </trkpt>
      <trkpt lat="47.96074" lon="1.89569">
        <ele>131.4</ele>
        <time>2015-09-27T08:19:34Z</time>
      </trkpt>
      <trkpt lat="47.96079" lon="1.89569">
        <ele>131.6</ele>
        <time>2015-09-27T08:19:36Z</time>
      </trkpt>
      <trkpt lat="47.96083" lon="1.89569">
        <ele>131.8</ele>
        <time>2015-09-27T08:19:38Z</time>
      </trkpt>
      <trkpt lat="47.96087" lon="1.89568">
        <ele>131.9</ele>
        <time>2015-09-27T08:19:40Z</time>
      </trkpt>
      <trkpt lat="47.9609" lon="1.89566">
        <ele>132</ele>
        <time>2015-09-27T08:19:42Z</time>
      </trkpt>
      <trkpt lat="47.96094" lon="1.89566">
        <ele>132.2</ele>
        <time>2015-09-27T08:19:44Z</time>
      </trkpt>
      <trkpt lat="47.96099" lon="1.89567">
        <ele>132.4</ele>
        <time>2015-09-27T08:19:46Z</time>
      </trkpt>
      <trkpt lat="47.96104" lon="1.8957">
        <ele>132.8</ele>
        <time>2015-09-27T08:19:48Z</time>
      </trkpt>
      <trkpt lat="47.96109" lon="1.89573">
        <ele>133.1</ele>
        <time>2015-09-27T08:19:50Z</time>
      </trkpt>
      <trkpt lat="47.96112" lon="1.89574">
        <ele>133.2</ele>
        <time>2015-09-27T08:19:51Z</time>
      </trkpt>
      <trkpt lat="47.96117" lon="1.89574">
        <ele>133.4</ele>
        <time>2015-09-27T08:19:52Z</time>
      </trkpt>
      <trkpt lat="47.96121" lon="1.89574">
        <ele>133.6</ele>
        <time>2015-09-27T08:19:53Z</time>
      </trkpt>
      <trkpt lat="47.96125" lon="1.89574">
        <ele>133.8</ele>
        <time>2015-09-27T08:19:54Z</time>
      </trkpt>
      <trkpt lat="47.9613" lon="1.89574">
        <ele>133.9</ele>
        <time>2015-09-27T08:19:55Z</time>
      </trkpt>
      <trkpt lat="47.96134" lon="1.89574">
        <ele>134</ele>
        <time>2015-09-27T08:19:56Z</time>
      </trkpt>
      <trkpt lat="47.96138" lon="1.89575">
        <ele>134.1</ele>
        <time>2015-09-27T08:19:57Z</time>
      </trkpt>
      <trkpt lat="47.96143" lon="1.89577">
        <ele>134.2</ele>
        <time>2015-09-27T08:19:58Z</time>
      </trkpt>
      <trkpt lat="47.96147" lon="1.89578">
        <ele>134.3</ele>
        <time>2015-09-27T08:19:59Z</time>
      </trkpt>
      <trkpt lat="47.96151" lon="1.89579">
        <ele>134.4</ele>
        <time>2015-09-27T08:20:00Z</time>
      </trkpt>
      <trkpt lat="47.96155" lon="1.89579">
        <ele>134.5</ele>
        <time>2015-09-27T08:20:01Z</time>
      </trkpt>
      <trkpt lat="47.96159" lon="1.89579">
        <ele>134.6</ele>
        <time>2015-09-27T08:20:02Z</time>
      </trkpt>
      <trkpt lat="47.96163" lon="1.8958">
        <ele>134.7</ele>
        <time>2015-09-27T08:20:03Z</time>
      </trkpt>
      <trkpt lat="47.96167" lon="1.8958">
        <ele>134.7</ele>
        <time>2015-09-27T08:20:04Z</time>
      </trkpt>
      <trkpt lat="47.96171" lon="1.8958">
        <ele>134.8</ele>
        <time>2015-09-27T08:20:05Z</time>
      </trkpt>
      <trkpt lat="47.96176" lon="1.8958">
        <ele>134.9</ele>
        <time>2015-09-27T08:20:06Z</time>
      </trkpt>
      <trkpt lat="47.96183" lon="1.89584">
        <ele>135</ele>
        <time>2015-09-27T08:20:07Z</time>
      </trkpt>
      <trkpt lat="47.96187" lon="1.89585">
        <ele>135.1</ele>
        <time>2015-09-27T08:20:08Z</time>
      </trkpt>
      <trkpt lat="47.96192" lon="1.89584">
        <ele>135.2</ele>
        <time>2015-09-27T08:20:09Z</time>
      </trkpt>
      <trkpt lat="47.96198" lon="1.89584">
        <ele>135.3</ele>
        <time>2015-09-27T08:20:10Z</time>
      </trkpt>
      <trkpt lat="47.96205" lon="1.89585">
        <ele>135.4</ele>
        <time>2015-09-27T08:20:11Z</time>
      </trkpt>
      <trkpt lat="47.96211" lon="1.89585">
        <ele>135.5</ele>
        <time>2015-09-27T08:20:12Z</time>
      </trkpt>
      <trkpt lat="47.96217" lon="1.89585">
        <ele>135.5</ele>
        <time>2015-09-27T08:20:13Z</time>
      </trkpt>
      <trkpt lat="47.96222" lon="1.89585">
        <ele>135.5</ele>
        <time>2015-09-27T08:20:14Z</time>
      </trkpt>
      <trkpt lat="47.96229" lon="1.89587">
        <ele>135.4</ele>
        <time>2015-09-27T08:20:15Z</time>
      </trkpt>
      <trkpt lat="47.96233" lon="1.89586">
        <ele>135.5</ele>
        <time>2015-09-27T08:20:16Z</time>
      </trkpt>
      <trkpt lat="47.96238" lon="1.89585">
        <ele>135.5</ele>
        <time>2015-09-27T08:20:17Z</time>
      </trkpt>
      <trkpt lat="47.96243" lon="1.89586">
        <ele>135.4</ele>
        <time>2015-09-27T08:20:18Z</time>
      </trkpt>
      <trkpt lat="47.96247" lon="1.89585">
        <ele>135.5</ele>
        <time>2015-09-27T08:20:19Z</time>
      </trkpt>
      <trkpt lat="47.96251" lon="1.89585">
        <ele>135.5</ele>
        <time>2015-09-27T08:20:20Z</time>
      </trkpt>
      <trkpt lat="47.96256" lon="1.89586">
        <ele>135.4</ele>
        <time>2015-09-27T08:20:21Z</time>
      </trkpt>
      <trkpt lat="47.96261" lon="1.89585">
        <ele>135.5</ele>
        <time>2015-09-27T08:20:22Z</time>
      </trkpt>
      <trkpt lat="47.96265" lon="1.89587">
        <ele>135.4</ele>
        <time>2015-09-27T08:20:23Z</time>
      </trkpt>
      <trkpt lat="47.9627" lon="1.89587">
        <ele>135.4</ele>
        <time>2015-09-27T08:20:24Z</time>
      </trkpt>
      <trkpt lat="47.96275" lon="1.89587">
        <ele>135.4</ele>
        <time>2015-09-27T08:20:25Z</time>
      </trkpt>
      <trkpt lat="47.96279" lon="1.89589">
        <ele>135.3</ele>
        <time>2015-09-27T08:20:26Z</time>
      </trkpt>
      <trkpt lat="47.96285" lon="1.89589">
        <ele>135.3</ele>
        <time>2015-09-27T08:20:27Z</time>
      </trkpt>
      <trkpt lat="47.96291" lon="1.89587">
        <ele>135.4</ele>
        <time>2015-09-27T08:20:28Z</time>
      </trkpt>
      <trkpt lat="47.96296" lon="1.89586">
        <ele>135.3</ele>
        <time>2015-09-27T08:20:29Z</time>
      </trkpt>
      <trkpt lat="47.96301" lon="1.89588">
        <ele>135.2</ele>
        <time>2015-09-27T08:20:30Z</time>
      </trkpt>
      <trkpt lat="47.96307" lon="1.89591">
        <ele>135</ele>
        <time>2015-09-27T08:20:31Z</time>
      </trkpt>
      <trkpt lat="47.9631" lon="1.89589">
        <ele>135</ele>
        <time>2015-09-27T08:20:32Z</time>
      </trkpt>
      <trkpt lat="47.96314" lon="1.8959">
        <ele>134.9</ele>
        <time>2015-09-27T08:20:33Z</time>
      </trkpt>
      <trkpt lat="47.96318" lon="1.89592">
        <ele>134.8</ele>
        <time>2015-09-27T08:20:34Z</time>
      </trkpt>
      <trkpt lat="47.96323" lon="1.89592">
        <ele>134.7</ele>
        <time>2015-09-27T08:20:35Z</time>
      </trkpt>
      <trkpt lat="47.96328" lon="1.89591">
        <ele>134.6</ele>
        <time>2015-09-27T08:20:36Z</time>
      </trkpt>
      <trkpt lat="47.96333" lon="1.89593">
        <ele>134.5</ele>
        <time>2015-09-27T08:20:37Z</time>
      </trkpt>
      <trkpt lat="47.96337" lon="1.89592">
        <ele>134.4</ele>
        <time>2015-09-27T08:20:38Z</time>
      </trkpt>
      <trkpt lat="47.96342" lon="1.89591">
        <ele>134.4</ele>
        <time>2015-09-27T08:20:39Z</time>
      </trkpt>
      <trkpt lat="47.96347" lon="1.89593">
        <ele>134.2</ele>
        <time>2015-09-27T08:20:40Z</time>
      </trkpt>
      <trkpt lat="47.96352" lon="1.89593">
        <ele>134.1</ele>
        <time>2015-09-27T08:20:41Z</time>
      </trkpt>
      <trkpt lat="47.96358" lon="1.89592">
        <ele>134.1</ele>
        <time>2015-09-27T08:20:42Z</time>
      </trkpt>
      <trkpt lat="47.96365" lon="1.89596">
        <ele>133.9</ele>
        <time>2015-09-27T08:20:43Z</time>
      </trkpt>
      <trkpt lat="47.9637" lon="1.89599">
        <ele>133.7</ele>
        <time>2015-09-27T08:20:44Z</time>
      </trkpt>
      <trkpt lat="47.96376" lon="1.89604">
        <ele>133.5</ele>
        <time>2015-09-27T08:20:45Z</time>
      </trkpt>
      <trkpt lat="47.96381" lon="1.89601">
        <ele>133.6</ele>
        <time>2015-09-27T08:20:46Z</time>
      </trkpt>
      <trkpt lat="47.96386" lon="1.89602">
        <ele>133.6</ele>
        <time>2015-09-27T08:20:47Z</time>
      </trkpt>
      <trkpt lat="47.96391" lon="1.89605">
        <ele>133.6</ele>
        <time>2015-09-27T08:20:48Z</time>
      </trkpt>
      <trkpt lat="47.96397" lon="1.89603">
        <ele>133.7</ele>
        <time>2015-09-27T08:20:49Z</time>
      </trkpt>
      <trkpt lat="47.96401" lon="1.89604">
        <ele>133.7</ele>
        <time>2015-09-27T08:20:50Z</time>
      </trkpt>
      <trkpt lat="47.96406" lon="1.89607">
        <ele>133.6</ele>
        <time>2015-09-27T08:20:51Z</time>
      </trkpt>
      <trkpt lat="47.96409" lon="1.89608">
        <ele>133.6</ele>
        <time>2015-09-27T08:20:52Z</time>
      </trkpt>
      <trkpt lat="47.96416" lon="1.89612">
        <ele>133.5</ele>
        <time>2015-09-27T08:20:53Z</time>
      </trkpt>
      <trkpt lat="47.96422" lon="1.89608">
        <ele>133.6</ele>
        <time>2015-09-27T08:20:54Z</time>
      </trkpt>
      <trkpt lat="47.96426" lon="1.89607">
        <ele>133.7</ele>
        <time>2015-09-27T08:20:55Z</time>
      </trkpt>
      <trkpt lat="47.9643" lon="1.89607">
        <ele>133.7</ele>
        <time>2015-09-27T08:20:56Z</time>
      </trkpt>
      <trkpt lat="47.96434" lon="1.89607">
        <ele>133.7</ele>
        <time>2015-09-27T08:20:57Z</time>
      </trkpt>
      <trkpt lat="47.96439" lon="1.89608">
        <ele>133.7</ele>
        <time>2015-09-27T08:20:58Z</time>
      </trkpt>
      <trkpt lat="47.96446" lon="1.89611">
        <ele>133.6</ele>
        <time>2015-09-27T08:20:59Z</time>
      </trkpt>
      <trkpt lat="47.96452" lon="1.8961">
        <ele>133.7</ele>
        <time>2015-09-27T08:21:00Z</time>
      </trkpt>
      <trkpt lat="47.96458" lon="1.8961">
        <ele>133.7</ele>
        <time>2015-09-27T08:21:01Z</time>
      </trkpt>
      <trkpt lat="47.96464" lon="1.8961">
        <ele>133.8</ele>
        <time>2015-09-27T08:21:02Z</time>
      </trkpt>
      <trkpt lat="47.9647" lon="1.89615">
        <ele>133.7</ele>
        <time>2015-09-27T08:21:03Z</time>
      </trkpt>
      <trkpt lat="47.96474" lon="1.89615">
        <ele>133.8</ele>
        <time>2015-09-27T08:21:04Z</time>
      </trkpt>
      <trkpt lat="47.96479" lon="1.89615">
        <ele>133.9</ele>
        <time>2015-09-27T08:21:05Z</time>
      </trkpt>
      <trkpt lat="47.96485" lon="1.89615">
        <ele>134</ele>
        <time>2015-09-27T08:21:06Z</time>
      </trkpt>
      <trkpt lat="47.9649" lon="1.89613">
        <ele>134.2</ele>
        <time>2015-09-27T08:21:07Z</time>
      </trkpt>
      <trkpt lat="47.96495" lon="1.89613">
        <ele>134.3</ele>
        <time>2015-09-27T08:21:08Z</time>
      </trkpt>
      <trkpt lat="47.96501" lon="1.89613">
        <ele>134.4</ele>
        <time>2015-09-27T08:21:09Z</time>
      </trkpt>
      <trkpt lat="47.96509" lon="1.89618">
        <ele>134.4</ele>
        <time>2015-09-27T08:21:10Z</time>
      </trkpt>
      <trkpt lat="47.96514" lon="1.89618">
        <ele>134.5</ele>
        <time>2015-09-27T08:21:11Z</time>
      </trkpt>
      <trkpt lat="47.96519" lon="1.89619">
        <ele>134.6</ele>
        <time>2015-09-27T08:21:12Z</time>
      </trkpt>
      <trkpt lat="47.96523" lon="1.89618">
        <ele>134.7</ele>
        <time>2015-09-27T08:21:13Z</time>
      </trkpt>
      <trkpt lat="47.96529" lon="1.89623">
        <ele>134.7</ele>
        <time>2015-09-27T08:21:14Z</time>
      </trkpt>
      <trkpt lat="47.96536" lon="1.89632">
        <ele>134.6</ele>
        <time>2015-09-27T08:21:15Z</time>
      </trkpt>
      <trkpt lat="47.9654" lon="1.89632">
        <ele>134.7</ele>
        <time>2015-09-27T08:21:16Z</time>
      </trkpt>
      <trkpt lat="47.96546" lon="1.89635">
        <ele>134.2</ele>
        <time>2015-09-27T08:21:17Z</time>
      </trkpt>
      <trkpt lat="47.9655" lon="1.8963">
        <ele>134.3</ele>
        <time>2015-09-27T08:21:18Z</time>
      </trkpt>
      <trkpt lat="47.96556" lon="1.89633">
        <ele>133.8</ele>
        <time>2015-09-27T08:21:19Z</time>
      </trkpt>
      <trkpt lat="47.96563" lon="1.89632">
        <ele>133.4</ele>
        <time>2015-09-27T08:21:20Z</time>
      </trkpt>
      <trkpt lat="47.96569" lon="1.8963">
        <ele>133.2</ele>
        <time>2015-09-27T08:21:21Z</time>
      </trkpt>
      <trkpt lat="47.96574" lon="1.89628">
        <ele>133</ele>
        <time>2015-09-27T08:21:22Z</time>
      </trkpt>
      <trkpt lat="47.96578" lon="1.89627">
        <ele>132.8</ele>
        <time>2015-09-27T08:21:23Z</time>
      </trkpt>
      <trkpt lat="47.96583" lon="1.89625">
        <ele>132.5</ele>
        <time>2015-09-27T08:21:24Z</time>
      </trkpt>
      <trkpt lat="47.96587" lon="1.89628">
        <ele>132.2</ele>
        <time>2015-09-27T08:21:25Z</time>
      </trkpt>
      <trkpt lat="47.9659" lon="1.89628">
        <ele>132</ele>
        <time>2015-09-27T08:21:26Z</time>
      </trkpt>
      <trkpt lat="47.96596" lon="1.8963">
        <ele>131.6</ele>
        <time>2015-09-27T08:21:27Z</time>
      </trkpt>
      <trkpt lat="47.96596" lon="1.89625">
        <ele>131.8</ele>
        <time>2015-09-27T08:21:28Z</time>
      </trkpt>
      <trkpt lat="47.966" lon="1.89621">
        <ele>131.6</ele>
        <time>2015-09-27T08:21:30Z</time>
      </trkpt>
      <trkpt lat="47.96604" lon="1.89627">
        <ele>131.2</ele>
        <time>2015-09-27T08:21:32Z</time>
      </trkpt>
      <trkpt lat="47.96606" lon="1.89631">
        <ele>131</ele>
        <time>2015-09-27T08:21:34Z</time>
      </trkpt>
      <trkpt lat="47.96609" lon="1.89631">
        <ele>130.9</ele>
        <time>2015-09-27T08:21:36Z</time>
      </trkpt>
      <trkpt lat="47.96609" lon="1.89636">
        <ele>130.7</ele>
        <time>2015-09-27T08:21:40Z</time>
      </trkpt>
      <trkpt lat="47.96608" lon="1.89642">
        <ele>130.7</ele>
        <time>2015-09-27T08:21:43Z</time>
      </trkpt>
      <trkpt lat="47.96606" lon="1.89646">
        <ele>130.7</ele>
        <time>2015-09-27T08:21:44Z</time>
      </trkpt>
      <trkpt lat="47.96603" lon="1.8965">
        <ele>130.8</ele>
        <time>2015-09-27T08:21:45Z</time>
      </trkpt>
      <trkpt lat="47.96601" lon="1.89654">
        <ele>130.8</ele>
        <time>2015-09-27T08:21:46Z</time>
      </trkpt>
      <trkpt lat="47.96599" lon="1.89659">
        <ele>130.8</ele>
        <time>2015-09-27T08:21:47Z</time>
      </trkpt>
      <trkpt lat="47.96598" lon="1.89664">
        <ele>130.7</ele>
        <time>2015-09-27T08:21:48Z</time>
      </trkpt>
      <trkpt lat="47.96597" lon="1.89669">
        <ele>130.6</ele>
        <time>2015-09-27T08:21:49Z</time>
      </trkpt>
      <trkpt lat="47.96597" lon="1.89675">
        <ele>130.5</ele>
        <time>2015-09-27T08:21:50Z</time>
      </trkpt>
      <trkpt lat="47.96596" lon="1.8968">
        <ele>130.4</ele>
        <time>2015-09-27T08:21:51Z</time>
      </trkpt>
      <trkpt lat="47.96595" lon="1.89685">
        <ele>130.3</ele>
        <time>2015-09-27T08:21:52Z</time>
      </trkpt>
      <trkpt lat="47.96593" lon="1.89688">
        <ele>130.3</ele>
        <time>2015-09-27T08:21:53Z</time>
      </trkpt>
      <trkpt lat="47.9659" lon="1.8969">
        <ele>130.3</ele>
        <time>2015-09-27T08:21:54Z</time>
      </trkpt>
      <trkpt lat="47.96586" lon="1.89692">
        <ele>130.4</ele>
        <time>2015-09-27T08:21:55Z</time>
      </trkpt>
      <trkpt lat="47.96583" lon="1.89694">
        <ele>130.5</ele>
        <time>2015-09-27T08:21:56Z</time>
      </trkpt>
      <trkpt lat="47.9658" lon="1.89696">
        <ele>130.5</ele>
        <time>2015-09-27T08:21:57Z</time>
      </trkpt>
      <trkpt lat="47.96578" lon="1.897">
        <ele>130.4</ele>
        <time>2015-09-27T08:21:58Z</time>
      </trkpt>
      <trkpt lat="47.96576" lon="1.89704">
        <ele>130.3</ele>
        <time>2015-09-27T08:21:59Z</time>
      </trkpt>
      <trkpt lat="47.96574" lon="1.89709">
        <ele>130.2</ele>
        <time>2015-09-27T08:22:00Z</time>
      </trkpt>
      <trkpt lat="47.96573" lon="1.89714">
        <ele>130.2</ele>
        <time>2015-09-27T08:22:01Z</time>
      </trkpt>
      <trkpt lat="47.96571" lon="1.89719">
        <ele>130.3</ele>
        <time>2015-09-27T08:22:02Z</time>
      </trkpt>
      <trkpt lat="47.96569" lon="1.89725">
        <ele>130.3</ele>
        <time>2015-09-27T08:22:03Z</time>
      </trkpt>
      <trkpt lat="47.96568" lon="1.89731">
        <ele>130.3</ele>
        <time>2015-09-27T08:22:04Z</time>
      </trkpt>
      <trkpt lat="47.96567" lon="1.89737">
        <ele>130.3</ele>
        <time>2015-09-27T08:22:05Z</time>
      </trkpt>
      <trkpt lat="47.96566" lon="1.89743">
        <ele>130.3</ele>
        <time>2015-09-27T08:22:06Z</time>
      </trkpt>
      <trkpt lat="47.96564" lon="1.89749">
        <ele>130.3</ele>
        <time>2015-09-27T08:22:07Z</time>
      </trkpt>
      <trkpt lat="47.96563" lon="1.89755">
        <ele>130.4</ele>
        <time>2015-09-27T08:22:08Z</time>
      </trkpt>
      <trkpt lat="47.96561" lon="1.89761">
        <ele>130.4</ele>
        <time>2015-09-27T08:22:09Z</time>
      </trkpt>
      <trkpt lat="47.9656" lon="1.89766">
        <ele>130.4</ele>
        <time>2015-09-27T08:22:10Z</time>
      </trkpt>
      <trkpt lat="47.96559" lon="1.89772">
        <ele>130.4</ele>
        <time>2015-09-27T08:22:11Z</time>
      </trkpt>
      <trkpt lat="47.96558" lon="1.89777">
        <ele>130.4</ele>
        <time>2015-09-27T08:22:12Z</time>
      </trkpt>
      <trkpt lat="47.96559" lon="1.89782">
        <ele>130.4</ele>
        <time>2015-09-27T08:22:13Z</time>
      </trkpt>
      <trkpt lat="47.96558" lon="1.89788">
        <ele>130.4</ele>
        <time>2015-09-27T08:22:14Z</time>
      </trkpt>
      <trkpt lat="47.96558" lon="1.89793">
        <ele>130.4</ele>
        <time>2015-09-27T08:22:15Z</time>
      </trkpt>
      <trkpt lat="47.96558" lon="1.89798">
        <ele>130.3</ele>
        <time>2015-09-27T08:22:16Z</time>
      </trkpt>
      <trkpt lat="47.96558" lon="1.89803">
        <ele>130.3</ele>
        <time>2015-09-27T08:22:17Z</time>
      </trkpt>
      <trkpt lat="47.96558" lon="1.89809">
        <ele>130.2</ele>
        <time>2015-09-27T08:22:18Z</time>
      </trkpt>
      <trkpt lat="47.96558" lon="1.89814">
        <ele>130.2</ele>
        <time>2015-09-27T08:22:19Z</time>
      </trkpt>
      <trkpt lat="47.96557" lon="1.89819">
        <ele>130.1</ele>
        <time>2015-09-27T08:22:20Z</time>
      </trkpt>
      <trkpt lat="47.96557" lon="1.89823">
        <ele>130.1</ele>
        <time>2015-09-27T08:22:21Z</time>
      </trkpt>
      <trkpt lat="47.96557" lon="1.89827">
        <ele>130</ele>
        <time>2015-09-27T08:22:22Z</time>
      </trkpt>
      <trkpt lat="47.96558" lon="1.89833">
        <ele>129.9</ele>
        <time>2015-09-27T08:22:24Z</time>
      </trkpt>
      <trkpt lat="47.96557" lon="1.8984">
        <ele>129.9</ele>
        <time>2015-09-27T08:22:26Z</time>
      </trkpt>
      <trkpt lat="47.96557" lon="1.89844">
        <ele>129.8</ele>
        <time>2015-09-27T08:22:27Z</time>
      </trkpt>
      <trkpt lat="47.96557" lon="1.89849">
        <ele>129.7</ele>
        <time>2015-09-27T08:22:28Z</time>
      </trkpt>
      <trkpt lat="47.96557" lon="1.89855">
        <ele>129.7</ele>
        <time>2015-09-27T08:22:29Z</time>
      </trkpt>
      <trkpt lat="47.96557" lon="1.89862">
        <ele>129.6</ele>
        <time>2015-09-27T08:22:30Z</time>
      </trkpt>
      <trkpt lat="47.96556" lon="1.89869">
        <ele>129.6</ele>
        <time>2015-09-27T08:22:31Z</time>
      </trkpt>
      <trkpt lat="47.96555" lon="1.89876">
        <ele>129.5</ele>
        <time>2015-09-27T08:22:32Z</time>
      </trkpt>
      <trkpt lat="47.96554" lon="1.89883">
        <ele>129.7</ele>
        <time>2015-09-27T08:22:33Z</time>
      </trkpt>
      <trkpt lat="47.96553" lon="1.8989">
        <ele>129.9</ele>
        <time>2015-09-27T08:22:34Z</time>
      </trkpt>
      <trkpt lat="47.96553" lon="1.89897">
        <ele>130</ele>
        <time>2015-09-27T08:22:35Z</time>
      </trkpt>
      <trkpt lat="47.96552" lon="1.89904">
        <ele>130.3</ele>
        <time>2015-09-27T08:22:36Z</time>
      </trkpt>
      <trkpt lat="47.96551" lon="1.89912">
        <ele>130.5</ele>
        <time>2015-09-27T08:22:37Z</time>
      </trkpt>
      <trkpt lat="47.96551" lon="1.89919">
        <ele>130.6</ele>
        <time>2015-09-27T08:22:38Z</time>
      </trkpt>
      <trkpt lat="47.9655" lon="1.89926">
        <ele>130.8</ele>
        <time>2015-09-27T08:22:39Z</time>
      </trkpt>
      <trkpt lat="47.96551" lon="1.89933">
        <ele>130.9</ele>
        <time>2015-09-27T08:22:40Z</time>
      </trkpt>
      <trkpt lat="47.96551" lon="1.8994">
        <ele>131</ele>
        <time>2015-09-27T08:22:41Z</time>
      </trkpt>
      <trkpt lat="47.96552" lon="1.89946">
        <ele>131.1</ele>
        <time>2015-09-27T08:22:42Z</time>
      </trkpt>
      <trkpt lat="47.96553" lon="1.89952">
        <ele>131.2</ele>
        <time>2015-09-27T08:22:43Z</time>
      </trkpt>
      <trkpt lat="47.96554" lon="1.89958">
        <ele>131.2</ele>
        <time>2015-09-27T08:22:44Z</time>
      </trkpt>
      <trkpt lat="47.96555" lon="1.89966">
        <ele>131.1</ele>
        <time>2015-09-27T08:22:45Z</time>
      </trkpt>
      <trkpt lat="47.96557" lon="1.89973">
        <ele>131</ele>
        <time>2015-09-27T08:22:46Z</time>
      </trkpt>
      <trkpt lat="47.96558" lon="1.89981">
        <ele>130.9</ele>
        <time>2015-09-27T08:22:47Z</time>
      </trkpt>
      <trkpt lat="47.96559" lon="1.8999">
        <ele>130.8</ele>
        <time>2015-09-27T08:22:48Z</time>
      </trkpt>
      <trkpt lat="47.96559" lon="1.89998">
        <ele>130.7</ele>
        <time>2015-09-27T08:22:49Z</time>
      </trkpt>
      <trkpt lat="47.96561" lon="1.90006">
        <ele>130.5</ele>
        <time>2015-09-27T08:22:50Z</time>
      </trkpt>
      <trkpt lat="47.96563" lon="1.90014">
        <ele>130.4</ele>
        <time>2015-09-27T08:22:51Z</time>
      </trkpt>
      <trkpt lat="47.96565" lon="1.90022">
        <ele>130.3</ele>
        <time>2015-09-27T08:22:52Z</time>
      </trkpt>
      <trkpt lat="47.96566" lon="1.9003">
        <ele>130.2</ele>
        <time>2015-09-27T08:22:53Z</time>
      </trkpt>
      <trkpt lat="47.96568" lon="1.90038">
        <ele>130.1</ele>
        <time>2015-09-27T08:22:54Z</time>
      </trkpt>
      <trkpt lat="47.96568" lon="1.90046">
        <ele>130.1</ele>
        <time>2015-09-27T08:22:55Z</time>
      </trkpt>
      <trkpt lat="47.96568" lon="1.90054">
        <ele>130.1</ele>
        <time>2015-09-27T08:22:56Z</time>
      </trkpt>
      <trkpt lat="47.96567" lon="1.90062">
        <ele>130.1</ele>
        <time>2015-09-27T08:22:57Z</time>
      </trkpt>
      <trkpt lat="47.96567" lon="1.9007">
        <ele>130.1</ele>
        <time>2015-09-27T08:22:58Z</time>
      </trkpt>
      <trkpt lat="47.96566" lon="1.90078">
        <ele>130.1</ele>
        <time>2015-09-27T08:22:59Z</time>
      </trkpt>
      <trkpt lat="47.96567" lon="1.90085">
        <ele>130.1</ele>
        <time>2015-09-27T08:23:00Z</time>
      </trkpt>
      <trkpt lat="47.96568" lon="1.90091">
        <ele>130.1</ele>
        <time>2015-09-27T08:23:01Z</time>
      </trkpt>
      <trkpt lat="47.96569" lon="1.90096">
        <ele>130</ele>
        <time>2015-09-27T08:23:02Z</time>
      </trkpt>
      <trkpt lat="47.96569" lon="1.90102">
        <ele>130</ele>
        <time>2015-09-27T08:23:03Z</time>
      </trkpt>
      <trkpt lat="47.9657" lon="1.90108">
        <ele>130</ele>
        <time>2015-09-27T08:23:04Z</time>
      </trkpt>
      <trkpt lat="47.9657" lon="1.90113">
        <ele>130</ele>
        <time>2015-09-27T08:23:05Z</time>
      </trkpt>
      <trkpt lat="47.96569" lon="1.9012">
        <ele>130</ele>
        <time>2015-09-27T08:23:06Z</time>
      </trkpt>
      <trkpt lat="47.96569" lon="1.90127">
        <ele>130</ele>
        <time>2015-09-27T08:23:07Z</time>
      </trkpt>
      <trkpt lat="47.96569" lon="1.90134">
        <ele>130.1</ele>
        <time>2015-09-27T08:23:08Z</time>
      </trkpt>
      <trkpt lat="47.9657" lon="1.90139">
        <ele>130.1</ele>
        <time>2015-09-27T08:23:09Z</time>
      </trkpt>
      <trkpt lat="47.96571" lon="1.90145">
        <ele>130.1</ele>
        <time>2015-09-27T08:23:10Z</time>
      </trkpt>
      <trkpt lat="47.96572" lon="1.9015">
        <ele>130.1</ele>
        <time>2015-09-27T08:23:11Z</time>
      </trkpt>
      <trkpt lat="47.96573" lon="1.90156">
        <ele>130.1</ele>
        <time>2015-09-27T08:23:12Z</time>
      </trkpt>
      <trkpt lat="47.96574" lon="1.90161">
        <ele>130.1</ele>
        <time>2015-09-27T08:23:13Z</time>
      </trkpt>
      <trkpt lat="47.96575" lon="1.90167">
        <ele>130.1</ele>
        <time>2015-09-27T08:23:14Z</time>
      </trkpt>
      <trkpt lat="47.96576" lon="1.90173">
        <ele>130.1</ele>
        <time>2015-09-27T08:23:15Z</time>
      </trkpt>
      <trkpt lat="47.96577" lon="1.9018">
        <ele>130.1</ele>
        <time>2015-09-27T08:23:16Z</time>
      </trkpt>
      <trkpt lat="47.96577" lon="1.90186">
        <ele>130.1</ele>
        <time>2015-09-27T08:23:17Z</time>
      </trkpt>
      <trkpt lat="47.96578" lon="1.90192">
        <ele>130.2</ele>
        <time>2015-09-27T08:23:18Z</time>
      </trkpt>
      <trkpt lat="47.96578" lon="1.90199">
        <ele>130.2</ele>
        <time>2015-09-27T08:23:19Z</time>
      </trkpt>
      <trkpt lat="47.96579" lon="1.90206">
        <ele>130.2</ele>
        <time>2015-09-27T08:23:20Z</time>
      </trkpt>
      <trkpt lat="47.96579" lon="1.90212">
        <ele>130.2</ele>
        <time>2015-09-27T08:23:21Z</time>
      </trkpt>
      <trkpt lat="47.96579" lon="1.9022">
        <ele>130.1</ele>
        <time>2015-09-27T08:23:22Z</time>
      </trkpt>
      <trkpt lat="47.96579" lon="1.90228">
        <ele>130.1</ele>
        <time>2015-09-27T08:23:23Z</time>
      </trkpt>
      <trkpt lat="47.96579" lon="1.90235">
        <ele>130</ele>
        <time>2015-09-27T08:23:24Z</time>
      </trkpt>
      <trkpt lat="47.96579" lon="1.90242">
        <ele>130</ele>
        <time>2015-09-27T08:23:25Z</time>
      </trkpt>
      <trkpt lat="47.96578" lon="1.90249">
        <ele>130</ele>
        <time>2015-09-27T08:23:26Z</time>
      </trkpt>
      <trkpt lat="47.96577" lon="1.90256">
        <ele>130</ele>
        <time>2015-09-27T08:23:27Z</time>
      </trkpt>
      <trkpt lat="47.96576" lon="1.90263">
        <ele>129.9</ele>
        <time>2015-09-27T08:23:28Z</time>
      </trkpt>
      <trkpt lat="47.96576" lon="1.9027">
        <ele>129.9</ele>
        <time>2015-09-27T08:23:29Z</time>
      </trkpt>
      <trkpt lat="47.96574" lon="1.90277">
        <ele>129.9</ele>
        <time>2015-09-27T08:23:30Z</time>
      </trkpt>
      <trkpt lat="47.96572" lon="1.90284">
        <ele>130</ele>
        <time>2015-09-27T08:23:31Z</time>
      </trkpt>
      <trkpt lat="47.9657" lon="1.9029">
        <ele>130</ele>
        <time>2015-09-27T08:23:32Z</time>
      </trkpt>
      <trkpt lat="47.9657" lon="1.90297">
        <ele>130</ele>
        <time>2015-09-27T08:23:33Z</time>
      </trkpt>
      <trkpt lat="47.9657" lon="1.90304">
        <ele>130.1</ele>
        <time>2015-09-27T08:23:34Z</time>
      </trkpt>
      <trkpt lat="47.96573" lon="1.90309">
        <ele>130</ele>
        <time>2015-09-27T08:23:35Z</time>
      </trkpt>
      <trkpt lat="47.96578" lon="1.90313">
        <ele>129.8</ele>
        <time>2015-09-27T08:23:36Z</time>
      </trkpt>
      <trkpt lat="47.96584" lon="1.90314">
        <ele>129.6</ele>
        <time>2015-09-27T08:23:37Z</time>
      </trkpt>
      <trkpt lat="47.96588" lon="1.90313">
        <ele>129.4</ele>
        <time>2015-09-27T08:23:38Z</time>
      </trkpt>
      <trkpt lat="47.96592" lon="1.90312">
        <ele>129.3</ele>
        <time>2015-09-27T08:23:39Z</time>
      </trkpt>
      <trkpt lat="47.96595" lon="1.9031">
        <ele>129.2</ele>
        <time>2015-09-27T08:23:40Z</time>
      </trkpt>
      <trkpt lat="47.96599" lon="1.90309">
        <ele>129</ele>
        <time>2015-09-27T08:23:41Z</time>
      </trkpt>
      <trkpt lat="47.96602" lon="1.90308">
        <ele>128.9</ele>
        <time>2015-09-27T08:23:42Z</time>
      </trkpt>
      <trkpt lat="47.96606" lon="1.90307">
        <ele>128.7</ele>
        <time>2015-09-27T08:23:43Z</time>
      </trkpt>
      <trkpt lat="47.96609" lon="1.90305">
        <ele>128.6</ele>
        <time>2015-09-27T08:23:44Z</time>
      </trkpt>
      <trkpt lat="47.96613" lon="1.90303">
        <ele>128.5</ele>
        <time>2015-09-27T08:23:45Z</time>
      </trkpt>
      <trkpt lat="47.96616" lon="1.90302">
        <ele>128.3</ele>
        <time>2015-09-27T08:23:46Z</time>
      </trkpt>
      <trkpt lat="47.9662" lon="1.90301">
        <ele>128.2</ele>
        <time>2015-09-27T08:23:47Z</time>
      </trkpt>
      <trkpt lat="47.96624" lon="1.90301">
        <ele>128</ele>
        <time>2015-09-27T08:23:48Z</time>
      </trkpt>
      <trkpt lat="47.96628" lon="1.90301">
        <ele>128</ele>
        <time>2015-09-27T08:23:49Z</time>
      </trkpt>
      <trkpt lat="47.96631" lon="1.90299">
        <ele>127.9</ele>
        <time>2015-09-27T08:23:50Z</time>
      </trkpt>
      <trkpt lat="47.96636" lon="1.90298">
        <ele>127.9</ele>
        <time>2015-09-27T08:23:51Z</time>
      </trkpt>
      <trkpt lat="47.96639" lon="1.90297">
        <ele>127.9</ele>
        <time>2015-09-27T08:23:52Z</time>
      </trkpt>
      <trkpt lat="47.96643" lon="1.90297">
        <ele>127.8</ele>
        <time>2015-09-27T08:23:53Z</time>
      </trkpt>
      <trkpt lat="47.96647" lon="1.90297">
        <ele>127.8</ele>
        <time>2015-09-27T08:23:54Z</time>
      </trkpt>
      <trkpt lat="47.96651" lon="1.90297">
        <ele>127.7</ele>
        <time>2015-09-27T08:23:55Z</time>
      </trkpt>
      <trkpt lat="47.96656" lon="1.90298">
        <ele>127.7</ele>
        <time>2015-09-27T08:23:56Z</time>
      </trkpt>
      <trkpt lat="47.9666" lon="1.90299">
        <ele>127.7</ele>
        <time>2015-09-27T08:23:57Z</time>
      </trkpt>
      <trkpt lat="47.96664" lon="1.903">
        <ele>127.7</ele>
        <time>2015-09-27T08:23:58Z</time>
      </trkpt>
      <trkpt lat="47.96668" lon="1.903">
        <ele>127.7</ele>
        <time>2015-09-27T08:23:59Z</time>
      </trkpt>
      <trkpt lat="47.96671" lon="1.90301">
        <ele>127.6</ele>
        <time>2015-09-27T08:24:00Z</time>
      </trkpt>
      <trkpt lat="47.96675" lon="1.90301">
        <ele>127.6</ele>
        <time>2015-09-27T08:24:01Z</time>
      </trkpt>
      <trkpt lat="47.96678" lon="1.903">
        <ele>127.6</ele>
        <time>2015-09-27T08:24:02Z</time>
      </trkpt>
      <trkpt lat="47.96682" lon="1.903">
        <ele>127.5</ele>
        <time>2015-09-27T08:24:03Z</time>
      </trkpt>
      <trkpt lat="47.96685" lon="1.90299">
        <ele>127.5</ele>
        <time>2015-09-27T08:24:04Z</time>
      </trkpt>
      <trkpt lat="47.96689" lon="1.90299">
        <ele>127.4</ele>
        <time>2015-09-27T08:24:05Z</time>
      </trkpt>
      <trkpt lat="47.96693" lon="1.90299">
        <ele>127.4</ele>
        <time>2015-09-27T08:24:06Z</time>
      </trkpt>
      <trkpt lat="47.96697" lon="1.90299">
        <ele>127.4</ele>
        <time>2015-09-27T08:24:07Z</time>
      </trkpt>
      <trkpt lat="47.96701" lon="1.90299">
        <ele>127.3</ele>
        <time>2015-09-27T08:24:08Z</time>
      </trkpt>
      <trkpt lat="47.96705" lon="1.90299">
        <ele>127.3</ele>
        <time>2015-09-27T08:24:09Z</time>
      </trkpt>
      <trkpt lat="47.96709" lon="1.90299">
        <ele>127.3</ele>
        <time>2015-09-27T08:24:10Z</time>
      </trkpt>
      <trkpt lat="47.96713" lon="1.90299">
        <ele>127.5</ele>
        <time>2015-09-27T08:24:11Z</time>
      </trkpt>
      <trkpt lat="47.96717" lon="1.90299">
        <ele>127.7</ele>
        <time>2015-09-27T08:24:12Z</time>
      </trkpt>
      <trkpt lat="47.96722" lon="1.90299">
        <ele>127.8</ele>
        <time>2015-09-27T08:24:13Z</time>
      </trkpt>
      <trkpt lat="47.96726" lon="1.90299">
        <ele>128</ele>
        <time>2015-09-27T08:24:14Z</time>
      </trkpt>
      <trkpt lat="47.9673" lon="1.90299">
        <ele>128.2</ele>
        <time>2015-09-27T08:24:15Z</time>
      </trkpt>
      <trkpt lat="47.96734" lon="1.90299">
        <ele>128.4</ele>
        <time>2015-09-27T08:24:16Z</time>
      </trkpt>
      <trkpt lat="47.96738" lon="1.90298">
        <ele>128.6</ele>
        <time>2015-09-27T08:24:17Z</time>
      </trkpt>
      <trkpt lat="47.96742" lon="1.90297">
        <ele>128.7</ele>
        <time>2015-09-27T08:24:18Z</time>
      </trkpt>
      <trkpt lat="47.96747" lon="1.90297">
        <ele>128.9</ele>
        <time>2015-09-27T08:24:19Z</time>
      </trkpt>
      <trkpt lat="47.96752" lon="1.90297">
        <ele>129.1</ele>
        <time>2015-09-27T08:24:20Z</time>
      </trkpt>
      <trkpt lat="47.96757" lon="1.90298">
        <ele>129.4</ele>
        <time>2015-09-27T08:24:21Z</time>
      </trkpt>
      <trkpt lat="47.96761" lon="1.90298">
        <ele>129.6</ele>
        <time>2015-09-27T08:24:22Z</time>
      </trkpt>
      <trkpt lat="47.96766" lon="1.90298">
        <ele>129.8</ele>
        <time>2015-09-27T08:24:23Z</time>
      </trkpt>
      <trkpt lat="47.9677" lon="1.90297">
        <ele>129.9</ele>
        <time>2015-09-27T08:24:24Z</time>
      </trkpt>
      <trkpt lat="47.96773" lon="1.90295">
        <ele>130.1</ele>
        <time>2015-09-27T08:24:25Z</time>
      </trkpt>
      <trkpt lat="47.96776" lon="1.90294">
        <ele>130.3</ele>
        <time>2015-09-27T08:24:26Z</time>
      </trkpt>
      <trkpt lat="47.96779" lon="1.90294">
        <ele>130.4</ele>
        <time>2015-09-27T08:24:27Z</time>
      </trkpt>
      <trkpt lat="47.96782" lon="1.90294">
        <ele>130.5</ele>
        <time>2015-09-27T08:24:28Z</time>
      </trkpt>
      <trkpt lat="47.96785" lon="1.90294">
        <ele>130.7</ele>
        <time>2015-09-27T08:24:29Z</time>
      </trkpt>
      <trkpt lat="47.96788" lon="1.90294">
        <ele>130.8</ele>
        <time>2015-09-27T08:24:30Z</time>
      </trkpt>
      <trkpt lat="47.96792" lon="1.90295">
        <ele>131</ele>
        <time>2015-09-27T08:24:31Z</time>
      </trkpt>
      <trkpt lat="47.96796" lon="1.90295">
        <ele>131.2</ele>
        <time>2015-09-27T08:24:32Z</time>
      </trkpt>
      <trkpt lat="47.968" lon="1.90295">
        <ele>131.4</ele>
        <time>2015-09-27T08:24:33Z</time>
      </trkpt>
      <trkpt lat="47.96804" lon="1.90295">
        <ele>131.5</ele>
        <time>2015-09-27T08:24:34Z</time>
      </trkpt>
      <trkpt lat="47.96808" lon="1.90295">
        <ele>131.7</ele>
        <time>2015-09-27T08:24:35Z</time>
      </trkpt>
      <trkpt lat="47.96812" lon="1.90296">
        <ele>131.9</ele>
        <time>2015-09-27T08:24:36Z</time>
      </trkpt>
      <trkpt lat="47.96817" lon="1.90297">
        <ele>132.1</ele>
        <time>2015-09-27T08:24:37Z</time>
      </trkpt>
      <trkpt lat="47.96823" lon="1.90299">
        <ele>132.4</ele>
        <time>2015-09-27T08:24:38Z</time>
      </trkpt>
      <trkpt lat="47.96828" lon="1.90301">
        <ele>132.6</ele>
        <time>2015-09-27T08:24:39Z</time>
      </trkpt>
      <trkpt lat="47.96834" lon="1.90304">
        <ele>132.9</ele>
        <time>2015-09-27T08:24:40Z</time>
      </trkpt>
      <trkpt lat="47.96839" lon="1.90306">
        <ele>133.1</ele>
        <time>2015-09-27T08:24:41Z</time>
      </trkpt>
      <trkpt lat="47.96844" lon="1.90306">
        <ele>133.3</ele>
        <time>2015-09-27T08:24:42Z</time>
      </trkpt>
      <trkpt lat="47.96849" lon="1.90306">
        <ele>133.6</ele>
        <time>2015-09-27T08:24:43Z</time>
      </trkpt>
      <trkpt lat="47.96854" lon="1.90306">
        <ele>133.8</ele>
        <time>2015-09-27T08:24:44Z</time>
      </trkpt>
      <trkpt lat="47.96859" lon="1.90306">
        <ele>134.1</ele>
        <time>2015-09-27T08:24:45Z</time>
      </trkpt>
      <trkpt lat="47.96864" lon="1.90306">
        <ele>134.3</ele>
        <time>2015-09-27T08:24:46Z</time>
      </trkpt>
      <trkpt lat="47.9687" lon="1.90307">
        <ele>134.5</ele>
        <time>2015-09-27T08:24:47Z</time>
      </trkpt>
      <trkpt lat="47.96875" lon="1.90308">
        <ele>134.8</ele>
        <time>2015-09-27T08:24:48Z</time>
      </trkpt>
      <trkpt lat="47.9688" lon="1.90308">
        <ele>134.9</ele>
        <time>2015-09-27T08:24:49Z</time>
      </trkpt>
      <trkpt lat="47.96887" lon="1.90308">
        <ele>134.9</ele>
        <time>2015-09-27T08:24:50Z</time>
      </trkpt>
      <trkpt lat="47.96891" lon="1.90309">
        <ele>135</ele>
        <time>2015-09-27T08:24:51Z</time>
      </trkpt>
      <trkpt lat="47.96895" lon="1.90309">
        <ele>135</ele>
        <time>2015-09-27T08:24:52Z</time>
      </trkpt>
      <trkpt lat="47.969" lon="1.90308">
        <ele>135.1</ele>
        <time>2015-09-27T08:24:53Z</time>
      </trkpt>
      <trkpt lat="47.96905" lon="1.9031">
        <ele>135.1</ele>
        <time>2015-09-27T08:24:54Z</time>
      </trkpt>
      <trkpt lat="47.96908" lon="1.90318">
        <ele>135.1</ele>
        <time>2015-09-27T08:24:55Z</time>
      </trkpt>
      <trkpt lat="47.96912" lon="1.90322">
        <ele>135.1</ele>
        <time>2015-09-27T08:24:56Z</time>
      </trkpt>
      <trkpt lat="47.96916" lon="1.90329">
        <ele>135</ele>
        <time>2015-09-27T08:24:57Z</time>
      </trkpt>
      <trkpt lat="47.9692" lon="1.90333">
        <ele>135.1</ele>
        <time>2015-09-27T08:24:58Z</time>
      </trkpt>
      <trkpt lat="47.96926" lon="1.90337">
        <ele>135.1</ele>
        <time>2015-09-27T08:24:59Z</time>
      </trkpt>
      <trkpt lat="47.96932" lon="1.9034">
        <ele>135.1</ele>
        <time>2015-09-27T08:25:00Z</time>
      </trkpt>
      <trkpt lat="47.96936" lon="1.90335">
        <ele>135.2</ele>
        <time>2015-09-27T08:25:01Z</time>
      </trkpt>
      <trkpt lat="47.96939" lon="1.90329">
        <ele>135.3</ele>
        <time>2015-09-27T08:25:02Z</time>
      </trkpt>
      <trkpt lat="47.96944" lon="1.9033">
        <ele>135.4</ele>
        <time>2015-09-27T08:25:03Z</time>
      </trkpt>
      <trkpt lat="47.96947" lon="1.9033">
        <ele>135.4</ele>
        <time>2015-09-27T08:25:04Z</time>
      </trkpt>
      <trkpt lat="47.96951" lon="1.90331">
        <ele>135.4</ele>
        <time>2015-09-27T08:25:05Z</time>
      </trkpt>
      <trkpt lat="47.96953" lon="1.90334">
        <ele>135.4</ele>
        <time>2015-09-27T08:25:06Z</time>
      </trkpt>
      <trkpt lat="47.96957" lon="1.90337">
        <ele>135.4</ele>
        <time>2015-09-27T08:25:07Z</time>
      </trkpt>
      <trkpt lat="47.96961" lon="1.90339">
        <ele>135.4</ele>
        <time>2015-09-27T08:25:08Z</time>
      </trkpt>
      <trkpt lat="47.96965" lon="1.90341">
        <ele>135.4</ele>
        <time>2015-09-27T08:25:09Z</time>
      </trkpt>
      <trkpt lat="47.96969" lon="1.90344">
        <ele>135.3</ele>
        <time>2015-09-27T08:25:10Z</time>
      </trkpt>
      <trkpt lat="47.96975" lon="1.90351">
        <ele>135.2</ele>
        <time>2015-09-27T08:25:11Z</time>
      </trkpt>
      <trkpt lat="47.96979" lon="1.90356">
        <ele>135.1</ele>
        <time>2015-09-27T08:25:12Z</time>
      </trkpt>
      <trkpt lat="47.96983" lon="1.90357">
        <ele>135.1</ele>
        <time>2015-09-27T08:25:13Z</time>
      </trkpt>
      <trkpt lat="47.96987" lon="1.90362">
        <ele>135</ele>
        <time>2015-09-27T08:25:14Z</time>
      </trkpt>
      <trkpt lat="47.9699" lon="1.90368">
        <ele>135</ele>
        <time>2015-09-27T08:25:15Z</time>
      </trkpt>
      <trkpt lat="47.96994" lon="1.90373">
        <ele>135</ele>
        <time>2015-09-27T08:25:16Z</time>
      </trkpt>
      <trkpt lat="47.96997" lon="1.90377">
        <ele>135</ele>
        <time>2015-09-27T08:25:17Z</time>
      </trkpt>
      <trkpt lat="47.97001" lon="1.9038">
        <ele>135</ele>
        <time>2015-09-27T08:25:18Z</time>
      </trkpt>
      <trkpt lat="47.97005" lon="1.90383">
        <ele>135</ele>
        <time>2015-09-27T08:25:19Z</time>
      </trkpt>
      <trkpt lat="47.97009" lon="1.90386">
        <ele>135</ele>
        <time>2015-09-27T08:25:20Z</time>
      </trkpt>
      <trkpt lat="47.97013" lon="1.9039">
        <ele>135.1</ele>
        <time>2015-09-27T08:25:21Z</time>
      </trkpt>
      <trkpt lat="47.97017" lon="1.90393">
        <ele>135.1</ele>
        <time>2015-09-27T08:25:22Z</time>
      </trkpt>
      <trkpt lat="47.97021" lon="1.90396">
        <ele>135.1</ele>
        <time>2015-09-27T08:25:23Z</time>
      </trkpt>
      <trkpt lat="47.97025" lon="1.904">
        <ele>135.2</ele>
        <time>2015-09-27T08:25:24Z</time>
      </trkpt>
      <trkpt lat="47.97029" lon="1.90403">
        <ele>135.2</ele>
        <time>2015-09-27T08:25:25Z</time>
      </trkpt>
      <trkpt lat="47.97032" lon="1.90407">
        <ele>135.3</ele>
        <time>2015-09-27T08:25:26Z</time>
      </trkpt>
      <trkpt lat="47.97036" lon="1.9041">
        <ele>135.4</ele>
        <time>2015-09-27T08:25:27Z</time>
      </trkpt>
      <trkpt lat="47.9704" lon="1.90412">
        <ele>135.4</ele>
        <time>2015-09-27T08:25:28Z</time>
      </trkpt>
      <trkpt lat="47.97044" lon="1.90414">
        <ele>135.5</ele>
        <time>2015-09-27T08:25:29Z</time>
      </trkpt>
      <trkpt lat="47.97048" lon="1.90416">
        <ele>135.5</ele>
        <time>2015-09-27T08:25:30Z</time>
      </trkpt>
      <trkpt lat="47.97052" lon="1.9042">
        <ele>135.5</ele>
        <time>2015-09-27T08:25:31Z</time>
      </trkpt>
      <trkpt lat="47.97056" lon="1.90424">
        <ele>135.5</ele>
        <time>2015-09-27T08:25:32Z</time>
      </trkpt>
      <trkpt lat="47.9706" lon="1.90428">
        <ele>135.5</ele>
        <time>2015-09-27T08:25:33Z</time>
      </trkpt>
      <trkpt lat="47.97064" lon="1.90432">
        <ele>135.5</ele>
        <time>2015-09-27T08:25:34Z</time>
      </trkpt>
      <trkpt lat="47.97068" lon="1.90436">
        <ele>135.5</ele>
        <time>2015-09-27T08:25:35Z</time>
      </trkpt>
      <trkpt lat="47.97073" lon="1.90441">
        <ele>135.5</ele>
        <time>2015-09-27T08:25:36Z</time>
      </trkpt>
      <trkpt lat="47.97077" lon="1.90445">
        <ele>135.5</ele>
        <time>2015-09-27T08:25:37Z</time>
      </trkpt>
      <trkpt lat="47.9708" lon="1.90449">
        <ele>135.5</ele>
        <time>2015-09-27T08:25:38Z</time>
      </trkpt>
      <trkpt lat="47.97085" lon="1.90453">
        <ele>135.5</ele>
        <time>2015-09-27T08:25:39Z</time>
      </trkpt>
      <trkpt lat="47.97089" lon="1.90457">
        <ele>135.4</ele>
        <time>2015-09-27T08:25:40Z</time>
      </trkpt>
      <trkpt lat="47.97093" lon="1.9046">
        <ele>135.4</ele>
        <time>2015-09-27T08:25:41Z</time>
      </trkpt>
      <trkpt lat="47.97097" lon="1.90463">
        <ele>135.4</ele>
        <time>2015-09-27T08:25:42Z</time>
      </trkpt>
      <trkpt lat="47.97101" lon="1.90467">
        <ele>135.4</ele>
        <time>2015-09-27T08:25:43Z</time>
      </trkpt>
      <trkpt lat="47.97105" lon="1.90471">
        <ele>135.4</ele>
        <time>2015-09-27T08:25:44Z</time>
      </trkpt>
      <trkpt lat="47.97109" lon="1.90475">
        <ele>135.4</ele>
        <time>2015-09-27T08:25:45Z</time>
      </trkpt>
      <trkpt lat="47.97113" lon="1.9048">
        <ele>135.4</ele>
        <time>2015-09-27T08:25:46Z</time>
      </trkpt>
      <trkpt lat="47.97117" lon="1.90484">
        <ele>135.4</ele>
        <time>2015-09-27T08:25:47Z</time>
      </trkpt>
      <trkpt lat="47.97122" lon="1.9049">
        <ele>135.4</ele>
        <time>2015-09-27T08:25:48Z</time>
      </trkpt>
      <trkpt lat="47.97126" lon="1.90495">
        <ele>135.4</ele>
        <time>2015-09-27T08:25:49Z</time>
      </trkpt>
      <trkpt lat="47.9713" lon="1.905">
        <ele>135.4</ele>
        <time>2015-09-27T08:25:50Z</time>
      </trkpt>
      <trkpt lat="47.97134" lon="1.90503">
        <ele>135.4</ele>
        <time>2015-09-27T08:25:51Z</time>
      </trkpt>
      <trkpt lat="47.97137" lon="1.90507">
        <ele>135.4</ele>
        <time>2015-09-27T08:25:52Z</time>
      </trkpt>
      <trkpt lat="47.97141" lon="1.90511">
        <ele>135.4</ele>
        <time>2015-09-27T08:25:53Z</time>
      </trkpt>
      <trkpt lat="47.97144" lon="1.90514">
        <ele>135.4</ele>
        <time>2015-09-27T08:25:54Z</time>
      </trkpt>
      <trkpt lat="47.97148" lon="1.90517">
        <ele>135.4</ele>
        <time>2015-09-27T08:25:55Z</time>
      </trkpt>
      <trkpt lat="47.97152" lon="1.9052">
        <ele>135.4</ele>
        <time>2015-09-27T08:25:56Z</time>
      </trkpt>
      <trkpt lat="47.97156" lon="1.90524">
        <ele>135.4</ele>
        <time>2015-09-27T08:25:57Z</time>
      </trkpt>
      <trkpt lat="47.9716" lon="1.90529">
        <ele>135.4</ele>
        <time>2015-09-27T08:25:58Z</time>
      </trkpt>
      <trkpt lat="47.97165" lon="1.90534">
        <ele>135.4</ele>
        <time>2015-09-27T08:25:59Z</time>
      </trkpt>
      <trkpt lat="47.97169" lon="1.90539">
        <ele>135.4</ele>
        <time>2015-09-27T08:26:00Z</time>
      </trkpt>
      <trkpt lat="47.97173" lon="1.90544">
        <ele>135.4</ele>
        <time>2015-09-27T08:26:01Z</time>
      </trkpt>
      <trkpt lat="47.97177" lon="1.90549">
        <ele>135.3</ele>
        <time>2015-09-27T08:26:02Z</time>
      </trkpt>
      <trkpt lat="47.97181" lon="1.90554">
        <ele>135.2</ele>
        <time>2015-09-27T08:26:03Z</time>
      </trkpt>
      <trkpt lat="47.97184" lon="1.90559">
        <ele>135.1</ele>
        <time>2015-09-27T08:26:04Z</time>
      </trkpt>
      <trkpt lat="47.97188" lon="1.90563">
        <ele>135</ele>
        <time>2015-09-27T08:26:05Z</time>
      </trkpt>
      <trkpt lat="47.97192" lon="1.90568">
        <ele>134.9</ele>
        <time>2015-09-27T08:26:06Z</time>
      </trkpt>
      <trkpt lat="47.97197" lon="1.90571">
        <ele>134.8</ele>
        <time>2015-09-27T08:26:07Z</time>
      </trkpt>
      <trkpt lat="47.97201" lon="1.90576">
        <ele>134.7</ele>
        <time>2015-09-27T08:26:08Z</time>
      </trkpt>
      <trkpt lat="47.97206" lon="1.9058">
        <ele>134.6</ele>
        <time>2015-09-27T08:26:09Z</time>
      </trkpt>
      <trkpt lat="47.9721" lon="1.90584">
        <ele>134.4</ele>
        <time>2015-09-27T08:26:10Z</time>
      </trkpt>
      <trkpt lat="47.97214" lon="1.90588">
        <ele>134.1</ele>
        <time>2015-09-27T08:26:11Z</time>
      </trkpt>
      <trkpt lat="47.97217" lon="1.90592">
        <ele>133.8</ele>
        <time>2015-09-27T08:26:12Z</time>
      </trkpt>
      <trkpt lat="47.9722" lon="1.90598">
        <ele>133.5</ele>
        <time>2015-09-27T08:26:13Z</time>
      </trkpt>
      <trkpt lat="47.97222" lon="1.90602">
        <ele>133.4</ele>
        <time>2015-09-27T08:26:14Z</time>
      </trkpt>
      <trkpt lat="47.97225" lon="1.90609">
        <ele>133.1</ele>
        <time>2015-09-27T08:26:16Z</time>
      </trkpt>
      <trkpt lat="47.97225" lon="1.90616">
        <ele>133</ele>
        <time>2015-09-27T08:26:18Z</time>
      </trkpt>
      <trkpt lat="47.97221" lon="1.90622">
        <ele>133.2</ele>
        <time>2015-09-27T08:26:20Z</time>
      </trkpt>
      <trkpt lat="47.97217" lon="1.90625">
        <ele>133.4</ele>
        <time>2015-09-27T08:26:21Z</time>
      </trkpt>
      <trkpt lat="47.97214" lon="1.90626">
        <ele>133.6</ele>
        <time>2015-09-27T08:26:22Z</time>
      </trkpt>
      <trkpt lat="47.9721" lon="1.90627">
        <ele>133.9</ele>
        <time>2015-09-27T08:26:23Z</time>
      </trkpt>
      <trkpt lat="47.97206" lon="1.90629">
        <ele>134</ele>
        <time>2015-09-27T08:26:24Z</time>
      </trkpt>
      <trkpt lat="47.97203" lon="1.9063">
        <ele>134</ele>
        <time>2015-09-27T08:26:25Z</time>
      </trkpt>
      <trkpt lat="47.972" lon="1.90632">
        <ele>134</ele>
        <time>2015-09-27T08:26:26Z</time>
      </trkpt>
      <trkpt lat="47.97197" lon="1.90633">
        <ele>134</ele>
        <time>2015-09-27T08:26:27Z</time>
      </trkpt>
      <trkpt lat="47.97194" lon="1.90635">
        <ele>134.1</ele>
        <time>2015-09-27T08:26:28Z</time>
      </trkpt>
      <trkpt lat="47.97191" lon="1.90636">
        <ele>134.1</ele>
        <time>2015-09-27T08:26:29Z</time>
      </trkpt>
      <trkpt lat="47.97189" lon="1.90638">
        <ele>134.1</ele>
        <time>2015-09-27T08:26:30Z</time>
      </trkpt>
      <trkpt lat="47.97186" lon="1.90639">
        <ele>134.2</ele>
        <time>2015-09-27T08:26:31Z</time>
      </trkpt>
      <trkpt lat="47.97183" lon="1.90641">
        <ele>134.2</ele>
        <time>2015-09-27T08:26:32Z</time>
      </trkpt>
      <trkpt lat="47.97179" lon="1.90643">
        <ele>134.2</ele>
        <time>2015-09-27T08:26:33Z</time>
      </trkpt>
      <trkpt lat="47.97176" lon="1.90645">
        <ele>134.2</ele>
        <time>2015-09-27T08:26:34Z</time>
      </trkpt>
      <trkpt lat="47.97173" lon="1.90647">
        <ele>134.3</ele>
        <time>2015-09-27T08:26:35Z</time>
      </trkpt>
      <trkpt lat="47.9717" lon="1.90649">
        <ele>134.3</ele>
        <time>2015-09-27T08:26:36Z</time>
      </trkpt>
      <trkpt lat="47.97166" lon="1.90652">
        <ele>134.3</ele>
        <time>2015-09-27T08:26:37Z</time>
      </trkpt>
      <trkpt lat="47.97162" lon="1.90655">
        <ele>134.4</ele>
        <time>2015-09-27T08:26:38Z</time>
      </trkpt>
      <trkpt lat="47.97158" lon="1.90657">
        <ele>134.4</ele>
        <time>2015-09-27T08:26:39Z</time>
      </trkpt>
      <trkpt lat="47.97155" lon="1.9066">
        <ele>134.5</ele>
        <time>2015-09-27T08:26:40Z</time>
      </trkpt>
      <trkpt lat="47.97151" lon="1.90664">
        <ele>134.5</ele>
        <time>2015-09-27T08:26:41Z</time>
      </trkpt>
      <trkpt lat="47.97148" lon="1.90667">
        <ele>134.6</ele>
        <time>2015-09-27T08:26:42Z</time>
      </trkpt>
      <trkpt lat="47.97144" lon="1.9067">
        <ele>134.6</ele>
        <time>2015-09-27T08:26:43Z</time>
      </trkpt>
      <trkpt lat="47.97141" lon="1.90673">
        <ele>134.7</ele>
        <time>2015-09-27T08:26:44Z</time>
      </trkpt>
      <trkpt lat="47.97137" lon="1.90676">
        <ele>134.8</ele>
        <time>2015-09-27T08:26:45Z</time>
      </trkpt>
      <trkpt lat="47.97134" lon="1.90679">
        <ele>134.8</ele>
        <time>2015-09-27T08:26:46Z</time>
      </trkpt>
      <trkpt lat="47.9713" lon="1.90682">
        <ele>134.9</ele>
        <time>2015-09-27T08:26:47Z</time>
      </trkpt>
      <trkpt lat="47.97126" lon="1.90684">
        <ele>135</ele>
        <time>2015-09-27T08:26:48Z</time>
      </trkpt>
      <trkpt lat="47.97122" lon="1.90687">
        <ele>135</ele>
        <time>2015-09-27T08:26:49Z</time>
      </trkpt>
      <trkpt lat="47.97118" lon="1.9069">
        <ele>135.1</ele>
        <time>2015-09-27T08:26:50Z</time>
      </trkpt>
      <trkpt lat="47.97114" lon="1.90693">
        <ele>135.2</ele>
        <time>2015-09-27T08:26:51Z</time>
      </trkpt>
      <trkpt lat="47.9711" lon="1.90696">
        <ele>135.2</ele>
        <time>2015-09-27T08:26:52Z</time>
      </trkpt>
      <trkpt lat="47.97107" lon="1.90699">
        <ele>135.2</ele>
        <time>2015-09-27T08:26:53Z</time>
      </trkpt>
      <trkpt lat="47.97103" lon="1.90702">
        <ele>135.3</ele>
        <time>2015-09-27T08:26:54Z</time>
      </trkpt>
      <trkpt lat="47.97099" lon="1.90704">
        <ele>135.3</ele>
        <time>2015-09-27T08:26:55Z</time>
      </trkpt>
      <trkpt lat="47.97095" lon="1.90707">
        <ele>135.4</ele>
        <time>2015-09-27T08:26:56Z</time>
      </trkpt>
      <trkpt lat="47.97092" lon="1.9071">
        <ele>135.4</ele>
        <time>2015-09-27T08:26:57Z</time>
      </trkpt>
      <trkpt lat="47.97088" lon="1.90712">
        <ele>135.5</ele>
        <time>2015-09-27T08:26:58Z</time>
      </trkpt>
      <trkpt lat="47.97085" lon="1.90715">
        <ele>135.5</ele>
        <time>2015-09-27T08:26:59Z</time>
      </trkpt>
      <trkpt lat="47.97082" lon="1.90718">
        <ele>135.6</ele>
        <time>2015-09-27T08:27:00Z</time>
      </trkpt>
      <trkpt lat="47.97078" lon="1.9072">
        <ele>135.6</ele>
        <time>2015-09-27T08:27:01Z</time>
      </trkpt>
      <trkpt lat="47.97075" lon="1.90723">
        <ele>135.7</ele>
        <time>2015-09-27T08:27:02Z</time>
      </trkpt>
      <trkpt lat="47.97071" lon="1.90725">
        <ele>135.7</ele>
        <time>2015-09-27T08:27:03Z</time>
      </trkpt>
      <trkpt lat="47.97068" lon="1.90727">
        <ele>135.8</ele>
        <time>2015-09-27T08:27:04Z</time>
      </trkpt>
      <trkpt lat="47.97065" lon="1.90729">
        <ele>135.8</ele>
        <time>2015-09-27T08:27:05Z</time>
      </trkpt>
      <trkpt lat="47.97062" lon="1.90731">
        <ele>135.8</ele>
        <time>2015-09-27T08:27:06Z</time>
      </trkpt>
      <trkpt lat="47.97059" lon="1.90732">
        <ele>135.9</ele>
        <time>2015-09-27T08:27:07Z</time>
      </trkpt>
      <trkpt lat="47.97055" lon="1.90734">
        <ele>135.9</ele>
        <time>2015-09-27T08:27:08Z</time>
      </trkpt>
      <trkpt lat="47.97052" lon="1.90736">
        <ele>135.9</ele>
        <time>2015-09-27T08:27:09Z</time>
      </trkpt>
      <trkpt lat="47.97049" lon="1.90738">
        <ele>135.9</ele>
        <time>2015-09-27T08:27:10Z</time>
      </trkpt>
      <trkpt lat="47.97046" lon="1.90741">
        <ele>136</ele>
        <time>2015-09-27T08:27:11Z</time>
      </trkpt>
      <trkpt lat="47.97042" lon="1.90743">
        <ele>136</ele>
        <time>2015-09-27T08:27:12Z</time>
      </trkpt>
      <trkpt lat="47.97039" lon="1.90746">
        <ele>136</ele>
        <time>2015-09-27T08:27:13Z</time>
      </trkpt>
      <trkpt lat="47.97035" lon="1.90748">
        <ele>136</ele>
        <time>2015-09-27T08:27:14Z</time>
      </trkpt>
      <trkpt lat="47.97032" lon="1.9075">
        <ele>135.9</ele>
        <time>2015-09-27T08:27:15Z</time>
      </trkpt>
      <trkpt lat="47.97028" lon="1.90753">
        <ele>135.9</ele>
        <time>2015-09-27T08:27:16Z</time>
      </trkpt>
      <trkpt lat="47.97024" lon="1.90755">
        <ele>135.9</ele>
        <time>2015-09-27T08:27:17Z</time>
      </trkpt>
      <trkpt lat="47.9702" lon="1.90758">
        <ele>135.9</ele>
        <time>2015-09-27T08:27:18Z</time>
      </trkpt>
      <trkpt lat="47.97014" lon="1.90761">
        <ele>135.9</ele>
        <time>2015-09-27T08:27:19Z</time>
      </trkpt>
      <trkpt lat="47.9701" lon="1.90765">
        <ele>135.9</ele>
        <time>2015-09-27T08:27:20Z</time>
      </trkpt>
      <trkpt lat="47.97007" lon="1.90769">
        <ele>135.9</ele>
        <time>2015-09-27T08:27:21Z</time>
      </trkpt>
      <trkpt lat="47.97002" lon="1.90773">
        <ele>135.9</ele>
        <time>2015-09-27T08:27:22Z</time>
      </trkpt>
      <trkpt lat="47.96999" lon="1.90776">
        <ele>135.9</ele>
        <time>2015-09-27T08:27:23Z</time>
      </trkpt>
      <trkpt lat="47.96996" lon="1.90776">
        <ele>135.9</ele>
        <time>2015-09-27T08:27:24Z</time>
      </trkpt>
      <trkpt lat="47.96992" lon="1.9078">
        <ele>135.9</ele>
        <time>2015-09-27T08:27:25Z</time>
      </trkpt>
      <trkpt lat="47.96987" lon="1.90783">
        <ele>135.9</ele>
        <time>2015-09-27T08:27:26Z</time>
      </trkpt>
      <trkpt lat="47.96981" lon="1.90787">
        <ele>136</ele>
        <time>2015-09-27T08:27:27Z</time>
      </trkpt>
      <trkpt lat="47.96975" lon="1.90789">
        <ele>136</ele>
        <time>2015-09-27T08:27:28Z</time>
      </trkpt>
      <trkpt lat="47.96971" lon="1.90792">
        <ele>136</ele>
        <time>2015-09-27T08:27:29Z</time>
      </trkpt>
      <trkpt lat="47.96967" lon="1.90796">
        <ele>135.9</ele>
        <time>2015-09-27T08:27:30Z</time>
      </trkpt>
      <trkpt lat="47.96963" lon="1.90799">
        <ele>135.8</ele>
        <time>2015-09-27T08:27:31Z</time>
      </trkpt>
      <trkpt lat="47.96958" lon="1.90801">
        <ele>135.7</ele>
        <time>2015-09-27T08:27:32Z</time>
      </trkpt>
      <trkpt lat="47.96954" lon="1.90805">
        <ele>135.5</ele>
        <time>2015-09-27T08:27:33Z</time>
      </trkpt>
      <trkpt lat="47.9695" lon="1.90807">
        <ele>135.5</ele>
        <time>2015-09-27T08:27:34Z</time>
      </trkpt>
      <trkpt lat="47.96946" lon="1.90809">
        <ele>135.4</ele>
        <time>2015-09-27T08:27:35Z</time>
      </trkpt>
      <trkpt lat="47.96943" lon="1.90812">
        <ele>135.3</ele>
        <time>2015-09-27T08:27:36Z</time>
      </trkpt>
      <trkpt lat="47.9694" lon="1.90814">
        <ele>135.3</ele>
        <time>2015-09-27T08:27:37Z</time>
      </trkpt>
      <trkpt lat="47.96937" lon="1.90817">
        <ele>135.2</ele>
        <time>2015-09-27T08:27:38Z</time>
      </trkpt>
      <trkpt lat="47.96934" lon="1.9082">
        <ele>135.1</ele>
        <time>2015-09-27T08:27:39Z</time>
      </trkpt>
      <trkpt lat="47.96933" lon="1.90827">
        <ele>134.8</ele>
        <time>2015-09-27T08:27:40Z</time>
      </trkpt>
      <trkpt lat="47.96934" lon="1.90832">
        <ele>134.7</ele>
        <time>2015-09-27T08:27:41Z</time>
      </trkpt>
      <trkpt lat="47.96934" lon="1.90839">
        <ele>134.5</ele>
        <time>2015-09-27T08:27:42Z</time>
      </trkpt>
      <trkpt lat="47.96935" lon="1.90845">
        <ele>134.3</ele>
        <time>2015-09-27T08:27:43Z</time>
      </trkpt>
      <trkpt lat="47.96933" lon="1.90852">
        <ele>134.1</ele>
        <time>2015-09-27T08:27:44Z</time>
      </trkpt>
      <trkpt lat="47.96933" lon="1.90857">
        <ele>133.9</ele>
        <time>2015-09-27T08:27:45Z</time>
      </trkpt>
      <trkpt lat="47.96933" lon="1.90864">
        <ele>133.7</ele>
        <time>2015-09-27T08:27:46Z</time>
      </trkpt>
      <trkpt lat="47.96933" lon="1.90871">
        <ele>133.4</ele>
        <time>2015-09-27T08:27:47Z</time>
      </trkpt>
      <trkpt lat="47.96934" lon="1.90878">
        <ele>133.2</ele>
        <time>2015-09-27T08:27:48Z</time>
      </trkpt>
      <trkpt lat="47.96934" lon="1.90885">
        <ele>133</ele>
        <time>2015-09-27T08:27:49Z</time>
      </trkpt>
      <trkpt lat="47.96934" lon="1.90893">
        <ele>132.8</ele>
        <time>2015-09-27T08:27:50Z</time>
      </trkpt>
      <trkpt lat="47.96934" lon="1.90899">
        <ele>132.6</ele>
        <time>2015-09-27T08:27:51Z</time>
      </trkpt>
      <trkpt lat="47.96935" lon="1.90906">
        <ele>132.4</ele>
        <time>2015-09-27T08:27:52Z</time>
      </trkpt>
      <trkpt lat="47.96933" lon="1.90912">
        <ele>132.3</ele>
        <time>2015-09-27T08:27:53Z</time>
      </trkpt>
      <trkpt lat="47.96931" lon="1.90919">
        <ele>132.1</ele>
        <time>2015-09-27T08:27:54Z</time>
      </trkpt>
      <trkpt lat="47.96931" lon="1.90926">
        <ele>131.9</ele>
        <time>2015-09-27T08:27:55Z</time>
      </trkpt>
      <trkpt lat="47.96936" lon="1.90933">
        <ele>131.7</ele>
        <time>2015-09-27T08:27:56Z</time>
      </trkpt>
      <trkpt lat="47.96935" lon="1.9094">
        <ele>131.5</ele>
        <time>2015-09-27T08:27:57Z</time>
      </trkpt>
      <trkpt lat="47.96934" lon="1.90946">
        <ele>131.3</ele>
        <time>2015-09-27T08:27:58Z</time>
      </trkpt>
      <trkpt lat="47.96933" lon="1.90954">
        <ele>131.1</ele>
        <time>2015-09-27T08:27:59Z</time>
      </trkpt>
      <trkpt lat="47.96934" lon="1.90961">
        <ele>131</ele>
        <time>2015-09-27T08:28:00Z</time>
      </trkpt>
      <trkpt lat="47.96934" lon="1.90968">
        <ele>131</ele>
        <time>2015-09-27T08:28:01Z</time>
      </trkpt>
      <trkpt lat="47.96933" lon="1.90975">
        <ele>131</ele>
        <time>2015-09-27T08:28:02Z</time>
      </trkpt>
      <trkpt lat="47.96933" lon="1.90981">
        <ele>131</ele>
        <time>2015-09-27T08:28:03Z</time>
      </trkpt>
      <trkpt lat="47.9693" lon="1.90988">
        <ele>131</ele>
        <time>2015-09-27T08:28:04Z</time>
      </trkpt>
      <trkpt lat="47.96923" lon="1.90996">
        <ele>131</ele>
        <time>2015-09-27T08:28:05Z</time>
      </trkpt>
      <trkpt lat="47.96924" lon="1.91005">
        <ele>131</ele>
        <time>2015-09-27T08:28:06Z</time>
      </trkpt>
      <trkpt lat="47.96926" lon="1.91011">
        <ele>131</ele>
        <time>2015-09-27T08:28:07Z</time>
      </trkpt>
      <trkpt lat="47.96926" lon="1.91018">
        <ele>131</ele>
        <time>2015-09-27T08:28:08Z</time>
      </trkpt>
      <trkpt lat="47.96928" lon="1.91024">
        <ele>131</ele>
        <time>2015-09-27T08:28:09Z</time>
      </trkpt>
      <trkpt lat="47.96929" lon="1.91033">
        <ele>131</ele>
        <time>2015-09-27T08:28:10Z</time>
      </trkpt>
      <trkpt lat="47.9693" lon="1.91042">
        <ele>131</ele>
        <time>2015-09-27T08:28:11Z</time>
      </trkpt>
      <trkpt lat="47.96928" lon="1.91051">
        <ele>131</ele>
        <time>2015-09-27T08:28:12Z</time>
      </trkpt>
      <trkpt lat="47.96927" lon="1.91058">
        <ele>130.9</ele>
        <time>2015-09-27T08:28:13Z</time>
      </trkpt>
      <trkpt lat="47.96925" lon="1.91067">
        <ele>130.9</ele>
        <time>2015-09-27T08:28:14Z</time>
      </trkpt>
      <trkpt lat="47.96924" lon="1.91076">
        <ele>130.8</ele>
        <time>2015-09-27T08:28:15Z</time>
      </trkpt>
      <trkpt lat="47.96925" lon="1.91083">
        <ele>130.8</ele>
        <time>2015-09-27T08:28:16Z</time>
      </trkpt>
      <trkpt lat="47.96927" lon="1.91092">
        <ele>130.8</ele>
        <time>2015-09-27T08:28:17Z</time>
      </trkpt>
      <trkpt lat="47.96929" lon="1.91101">
        <ele>130.8</ele>
        <time>2015-09-27T08:28:18Z</time>
      </trkpt>
      <trkpt lat="47.96929" lon="1.91109">
        <ele>130.7</ele>
        <time>2015-09-27T08:28:19Z</time>
      </trkpt>
      <trkpt lat="47.96932" lon="1.91118">
        <ele>130.7</ele>
        <time>2015-09-27T08:28:20Z</time>
      </trkpt>
      <trkpt lat="47.96935" lon="1.91124">
        <ele>130.7</ele>
        <time>2015-09-27T08:28:21Z</time>
      </trkpt>
      <trkpt lat="47.96934" lon="1.91133">
        <ele>130.8</ele>
        <time>2015-09-27T08:28:22Z</time>
      </trkpt>
      <trkpt lat="47.96936" lon="1.91144">
        <ele>130.9</ele>
        <time>2015-09-27T08:28:23Z</time>
      </trkpt>
      <trkpt lat="47.96932" lon="1.91152">
        <ele>130.9</ele>
        <time>2015-09-27T08:28:24Z</time>
      </trkpt>
      <trkpt lat="47.96933" lon="1.91158">
        <ele>131</ele>
        <time>2015-09-27T08:28:25Z</time>
      </trkpt>
      <trkpt lat="47.96933" lon="1.91168">
        <ele>131.1</ele>
        <time>2015-09-27T08:28:26Z</time>
      </trkpt>
      <trkpt lat="47.96936" lon="1.91175">
        <ele>131.2</ele>
        <time>2015-09-27T08:28:27Z</time>
      </trkpt>
      <trkpt lat="47.9694" lon="1.91181">
        <ele>131.3</ele>
        <time>2015-09-27T08:28:28Z</time>
      </trkpt>
      <trkpt lat="47.96938" lon="1.91188">
        <ele>131.3</ele>
        <time>2015-09-27T08:28:29Z</time>
      </trkpt>
      <trkpt lat="47.9694" lon="1.91196">
        <ele>131.4</ele>
        <time>2015-09-27T08:28:30Z</time>
      </trkpt>
      <trkpt lat="47.96933" lon="1.912">
        <ele>131.3</ele>
        <time>2015-09-27T08:28:31Z</time>
      </trkpt>
      <trkpt lat="47.9693" lon="1.91206">
        <ele>131.3</ele>
        <time>2015-09-27T08:28:32Z</time>
      </trkpt>
      <trkpt lat="47.96937" lon="1.9121">
        <ele>131.5</ele>
        <time>2015-09-27T08:28:34Z</time>
      </trkpt>
      <trkpt lat="47.96941" lon="1.91215">
        <ele>131.6</ele>
        <time>2015-09-27T08:28:36Z</time>
      </trkpt>
      <trkpt lat="47.96946" lon="1.91215">
        <ele>131.7</ele>
        <time>2015-09-27T08:28:37Z</time>
      </trkpt>
      <trkpt lat="47.9695" lon="1.91216">
        <ele>131.8</ele>
        <time>2015-09-27T08:28:38Z</time>
      </trkpt>
      <trkpt lat="47.96954" lon="1.91216">
        <ele>131.9</ele>
        <time>2015-09-27T08:28:39Z</time>
      </trkpt>
      <trkpt lat="47.96957" lon="1.91215">
        <ele>132</ele>
        <time>2015-09-27T08:28:40Z</time>
      </trkpt>
      <trkpt lat="47.96962" lon="1.91217">
        <ele>132</ele>
        <time>2015-09-27T08:28:41Z</time>
      </trkpt>
      <trkpt lat="47.96966" lon="1.91217">
        <ele>132.1</ele>
        <time>2015-09-27T08:28:42Z</time>
      </trkpt>
      <trkpt lat="47.96971" lon="1.91219">
        <ele>132.2</ele>
        <time>2015-09-27T08:28:43Z</time>
      </trkpt>
      <trkpt lat="47.96976" lon="1.91223">
        <ele>132.2</ele>
        <time>2015-09-27T08:28:44Z</time>
      </trkpt>
      <trkpt lat="47.9698" lon="1.91225">
        <ele>132.3</ele>
        <time>2015-09-27T08:28:45Z</time>
      </trkpt>
      <trkpt lat="47.96985" lon="1.91227">
        <ele>132.3</ele>
        <time>2015-09-27T08:28:46Z</time>
      </trkpt>
      <trkpt lat="47.96989" lon="1.91228">
        <ele>132.4</ele>
        <time>2015-09-27T08:28:47Z</time>
      </trkpt>
      <trkpt lat="47.96994" lon="1.91229">
        <ele>132.4</ele>
        <time>2015-09-27T08:28:48Z</time>
      </trkpt>
      <trkpt lat="47.96999" lon="1.9123">
        <ele>132.5</ele>
        <time>2015-09-27T08:28:49Z</time>
      </trkpt>
      <trkpt lat="47.97003" lon="1.91232">
        <ele>132.5</ele>
        <time>2015-09-27T08:28:50Z</time>
      </trkpt>
      <trkpt lat="47.97008" lon="1.91234">
        <ele>132.6</ele>
        <time>2015-09-27T08:28:51Z</time>
      </trkpt>
      <trkpt lat="47.97012" lon="1.91236">
        <ele>132.6</ele>
        <time>2015-09-27T08:28:52Z</time>
      </trkpt>
      <trkpt lat="47.97017" lon="1.91237">
        <ele>132.7</ele>
        <time>2015-09-27T08:28:53Z</time>
      </trkpt>
      <trkpt lat="47.97021" lon="1.91238">
        <ele>132.8</ele>
        <time>2015-09-27T08:28:54Z</time>
      </trkpt>
      <trkpt lat="47.97025" lon="1.91241">
        <ele>132.8</ele>
        <time>2015-09-27T08:28:55Z</time>
      </trkpt>
      <trkpt lat="47.97029" lon="1.91245">
        <ele>132.8</ele>
        <time>2015-09-27T08:28:56Z</time>
      </trkpt>
      <trkpt lat="47.97034" lon="1.91248">
        <ele>132.9</ele>
        <time>2015-09-27T08:28:57Z</time>
      </trkpt>
      <trkpt lat="47.97038" lon="1.91249">
        <ele>133</ele>
        <time>2015-09-27T08:28:58Z</time>
      </trkpt>
      <trkpt lat="47.97043" lon="1.9125">
        <ele>133</ele>
        <time>2015-09-27T08:28:59Z</time>
      </trkpt>
      <trkpt lat="47.97048" lon="1.9125">
        <ele>133.1</ele>
        <time>2015-09-27T08:29:00Z</time>
      </trkpt>
      <trkpt lat="47.97053" lon="1.9125">
        <ele>133.2</ele>
        <time>2015-09-27T08:29:01Z</time>
      </trkpt>
      <trkpt lat="47.97057" lon="1.91251">
        <ele>133.3</ele>
        <time>2015-09-27T08:29:02Z</time>
      </trkpt>
      <trkpt lat="47.97062" lon="1.91252">
        <ele>133.4</ele>
        <time>2015-09-27T08:29:03Z</time>
      </trkpt>
      <trkpt lat="47.97066" lon="1.91254">
        <ele>133.4</ele>
        <time>2015-09-27T08:29:04Z</time>
      </trkpt>
      <trkpt lat="47.9707" lon="1.91255">
        <ele>133.5</ele>
        <time>2015-09-27T08:29:05Z</time>
      </trkpt>
      <trkpt lat="47.97075" lon="1.91257">
        <ele>133.6</ele>
        <time>2015-09-27T08:29:06Z</time>
      </trkpt>
      <trkpt lat="47.97079" lon="1.91258">
        <ele>133.6</ele>
        <time>2015-09-27T08:29:07Z</time>
      </trkpt>
      <trkpt lat="47.97084" lon="1.91261">
        <ele>133.7</ele>
        <time>2015-09-27T08:29:08Z</time>
      </trkpt>
      <trkpt lat="47.97087" lon="1.91262">
        <ele>133.7</ele>
        <time>2015-09-27T08:29:09Z</time>
      </trkpt>
      <trkpt lat="47.97091" lon="1.91264">
        <ele>133.8</ele>
        <time>2015-09-27T08:29:10Z</time>
      </trkpt>
      <trkpt lat="47.97095" lon="1.91265">
        <ele>133.8</ele>
        <time>2015-09-27T08:29:11Z</time>
      </trkpt>
      <trkpt lat="47.97099" lon="1.91265">
        <ele>133.9</ele>
        <time>2015-09-27T08:29:12Z</time>
      </trkpt>
      <trkpt lat="47.97103" lon="1.91266">
        <ele>134</ele>
        <time>2015-09-27T08:29:13Z</time>
      </trkpt>
      <trkpt lat="47.97108" lon="1.91267">
        <ele>134</ele>
        <time>2015-09-27T08:29:14Z</time>
      </trkpt>
      <trkpt lat="47.97112" lon="1.91269">
        <ele>134.1</ele>
        <time>2015-09-27T08:29:15Z</time>
      </trkpt>
      <trkpt lat="47.97117" lon="1.91271">
        <ele>134.1</ele>
        <time>2015-09-27T08:29:16Z</time>
      </trkpt>
      <trkpt lat="47.97121" lon="1.91272">
        <ele>134.2</ele>
        <time>2015-09-27T08:29:17Z</time>
      </trkpt>
      <trkpt lat="47.97126" lon="1.91273">
        <ele>134.2</ele>
        <time>2015-09-27T08:29:18Z</time>
      </trkpt>
      <trkpt lat="47.9713" lon="1.91274">
        <ele>134.2</ele>
        <time>2015-09-27T08:29:19Z</time>
      </trkpt>
      <trkpt lat="47.97135" lon="1.91275">
        <ele>134.1</ele>
        <time>2015-09-27T08:29:20Z</time>
      </trkpt>
      <trkpt lat="47.97139" lon="1.91276">
        <ele>134.1</ele>
        <time>2015-09-27T08:29:21Z</time>
      </trkpt>
      <trkpt lat="47.97142" lon="1.91277">
        <ele>134</ele>
        <time>2015-09-27T08:29:22Z</time>
      </trkpt>
      <trkpt lat="47.97145" lon="1.91277">
        <ele>134</ele>
        <time>2015-09-27T08:29:23Z</time>
      </trkpt>
      <trkpt lat="47.97148" lon="1.91273">
        <ele>134</ele>
        <time>2015-09-27T08:29:25Z</time>
      </trkpt>
      <trkpt lat="47.97151" lon="1.91268">
        <ele>134.1</ele>
        <time>2015-09-27T08:29:27Z</time>
      </trkpt>
      <trkpt lat="47.97158" lon="1.91267">
        <ele>134</ele>
        <time>2015-09-27T08:29:29Z</time>
      </trkpt>
      <trkpt lat="47.97162" lon="1.91267">
        <ele>134</ele>
        <time>2015-09-27T08:29:30Z</time>
      </trkpt>
      <trkpt lat="47.97165" lon="1.91267">
        <ele>133.9</ele>
        <time>2015-09-27T08:29:31Z</time>
      </trkpt>
      <trkpt lat="47.97169" lon="1.91268">
        <ele>133.9</ele>
        <time>2015-09-27T08:29:32Z</time>
      </trkpt>
      <trkpt lat="47.97173" lon="1.91269">
        <ele>133.9</ele>
        <time>2015-09-27T08:29:33Z</time>
      </trkpt>
      <trkpt lat="47.97177" lon="1.91269">
        <ele>133.8</ele>
        <time>2015-09-27T08:29:34Z</time>
      </trkpt>
      <trkpt lat="47.97181" lon="1.9127">
        <ele>133.8</ele>
        <time>2015-09-27T08:29:35Z</time>
      </trkpt>
      <trkpt lat="47.97185" lon="1.9127">
        <ele>133.7</ele>
        <time>2015-09-27T08:29:36Z</time>
      </trkpt>
      <trkpt lat="47.9719" lon="1.9127">
        <ele>133.7</ele>
        <time>2015-09-27T08:29:37Z</time>
      </trkpt>
      <trkpt lat="47.97194" lon="1.9127">
        <ele>133.7</ele>
        <time>2015-09-27T08:29:38Z</time>
      </trkpt>
      <trkpt lat="47.97198" lon="1.9127">
        <ele>133.6</ele>
        <time>2015-09-27T08:29:39Z</time>
      </trkpt>
      <trkpt lat="47.97202" lon="1.9127">
        <ele>133.6</ele>
        <time>2015-09-27T08:29:40Z</time>
      </trkpt>
      <trkpt lat="47.97207" lon="1.91271">
        <ele>133.5</ele>
        <time>2015-09-27T08:29:41Z</time>
      </trkpt>
      <trkpt lat="47.97211" lon="1.91272">
        <ele>133.4</ele>
        <time>2015-09-27T08:29:42Z</time>
      </trkpt>
      <trkpt lat="47.97217" lon="1.91273">
        <ele>133.3</ele>
        <time>2015-09-27T08:29:43Z</time>
      </trkpt>
      <trkpt lat="47.97222" lon="1.91275">
        <ele>133.2</ele>
        <time>2015-09-27T08:29:44Z</time>
      </trkpt>
      <trkpt lat="47.97227" lon="1.91277">
        <ele>133.1</ele>
        <time>2015-09-27T08:29:45Z</time>
      </trkpt>
      <trkpt lat="47.97232" lon="1.91279">
        <ele>132.9</ele>
        <time>2015-09-27T08:29:46Z</time>
      </trkpt>
      <trkpt lat="47.97237" lon="1.9128">
        <ele>132.8</ele>
        <time>2015-09-27T08:29:47Z</time>
      </trkpt>
      <trkpt lat="47.97242" lon="1.91282">
        <ele>132.7</ele>
        <time>2015-09-27T08:29:48Z</time>
      </trkpt>
      <trkpt lat="47.97247" lon="1.91282">
        <ele>132.7</ele>
        <time>2015-09-27T08:29:49Z</time>
      </trkpt>
      <trkpt lat="47.97252" lon="1.91283">
        <ele>132.6</ele>
        <time>2015-09-27T08:29:50Z</time>
      </trkpt>
      <trkpt lat="47.97256" lon="1.91283">
        <ele>132.5</ele>
        <time>2015-09-27T08:29:51Z</time>
      </trkpt>
      <trkpt lat="47.97261" lon="1.91284">
        <ele>132.4</ele>
        <time>2015-09-27T08:29:52Z</time>
      </trkpt>
      <trkpt lat="47.97267" lon="1.91285">
        <ele>132.3</ele>
        <time>2015-09-27T08:29:53Z</time>
      </trkpt>
      <trkpt lat="47.97272" lon="1.91287">
        <ele>132.3</ele>
        <time>2015-09-27T08:29:54Z</time>
      </trkpt>
      <trkpt lat="47.97277" lon="1.91288">
        <ele>132.2</ele>
        <time>2015-09-27T08:29:55Z</time>
      </trkpt>
      <trkpt lat="47.97283" lon="1.91289">
        <ele>132.1</ele>
        <time>2015-09-27T08:29:56Z</time>
      </trkpt>
      <trkpt lat="47.97288" lon="1.9129">
        <ele>132</ele>
        <time>2015-09-27T08:29:57Z</time>
      </trkpt>
      <trkpt lat="47.97293" lon="1.91291">
        <ele>132</ele>
        <time>2015-09-27T08:29:58Z</time>
      </trkpt>
      <trkpt lat="47.97298" lon="1.91292">
        <ele>131.9</ele>
        <time>2015-09-27T08:29:59Z</time>
      </trkpt>
      <trkpt lat="47.97304" lon="1.91293">
        <ele>131.9</ele>
        <time>2015-09-27T08:30:00Z</time>
      </trkpt>
      <trkpt lat="47.97309" lon="1.91295">
        <ele>131.8</ele>
        <time>2015-09-27T08:30:01Z</time>
      </trkpt>
      <trkpt lat="47.97314" lon="1.91296">
        <ele>131.8</ele>
        <time>2015-09-27T08:30:02Z</time>
      </trkpt>
      <trkpt lat="47.97319" lon="1.91298">
        <ele>131.7</ele>
        <time>2015-09-27T08:30:03Z</time>
      </trkpt>
      <trkpt lat="47.97325" lon="1.913">
        <ele>131.7</ele>
        <time>2015-09-27T08:30:04Z</time>
      </trkpt>
      <trkpt lat="47.9733" lon="1.913">
        <ele>131.7</ele>
        <time>2015-09-27T08:30:05Z</time>
      </trkpt>
      <trkpt lat="47.97335" lon="1.91301">
        <ele>131.7</ele>
        <time>2015-09-27T08:30:06Z</time>
      </trkpt>
      <trkpt lat="47.9734" lon="1.91302">
        <ele>131.6</ele>
        <time>2015-09-27T08:30:07Z</time>
      </trkpt>
      <trkpt lat="47.97345" lon="1.91303">
        <ele>131.6</ele>
        <time>2015-09-27T08:30:08Z</time>
      </trkpt>
      <trkpt lat="47.9735" lon="1.91304">
        <ele>131.6</ele>
        <time>2015-09-27T08:30:09Z</time>
      </trkpt>
      <trkpt lat="47.97355" lon="1.91306">
        <ele>131.6</ele>
        <time>2015-09-27T08:30:10Z</time>
      </trkpt>
      <trkpt lat="47.97361" lon="1.91307">
        <ele>131.6</ele>
        <time>2015-09-27T08:30:11Z</time>
      </trkpt>
      <trkpt lat="47.97365" lon="1.91307">
        <ele>131.6</ele>
        <time>2015-09-27T08:30:12Z</time>
      </trkpt>
      <trkpt lat="47.9737" lon="1.91307">
        <ele>131.6</ele>
        <time>2015-09-27T08:30:13Z</time>
      </trkpt>
      <trkpt lat="47.97375" lon="1.91308">
        <ele>131.6</ele>
        <time>2015-09-27T08:30:14Z</time>
      </trkpt>
      <trkpt lat="47.9738" lon="1.91309">
        <ele>131.6</ele>
        <time>2015-09-27T08:30:15Z</time>
      </trkpt>
      <trkpt lat="47.97385" lon="1.9131">
        <ele>131.6</ele>
        <time>2015-09-27T08:30:16Z</time>
      </trkpt>
      <trkpt lat="47.9739" lon="1.91311">
        <ele>131.5</ele>
        <time>2015-09-27T08:30:17Z</time>
      </trkpt>
      <trkpt lat="47.97394" lon="1.91312">
        <ele>131.5</ele>
        <time>2015-09-27T08:30:18Z</time>
      </trkpt>
      <trkpt lat="47.97399" lon="1.91312">
        <ele>131.4</ele>
        <time>2015-09-27T08:30:19Z</time>
      </trkpt>
      <trkpt lat="47.97404" lon="1.91312">
        <ele>131.4</ele>
        <time>2015-09-27T08:30:20Z</time>
      </trkpt>
      <trkpt lat="47.97409" lon="1.91313">
        <ele>131.4</ele>
        <time>2015-09-27T08:30:21Z</time>
      </trkpt>
      <trkpt lat="47.97414" lon="1.91314">
        <ele>131.3</ele>
        <time>2015-09-27T08:30:22Z</time>
      </trkpt>
      <trkpt lat="47.97419" lon="1.91315">
        <ele>131.3</ele>
        <time>2015-09-27T08:30:23Z</time>
      </trkpt>
      <trkpt lat="47.97424" lon="1.91317">
        <ele>131.3</ele>
        <time>2015-09-27T08:30:24Z</time>
      </trkpt>
      <trkpt lat="47.97429" lon="1.91319">
        <ele>131.3</ele>
        <time>2015-09-27T08:30:25Z</time>
      </trkpt>
      <trkpt lat="47.97434" lon="1.91321">
        <ele>131.4</ele>
        <time>2015-09-27T08:30:26Z</time>
      </trkpt>
      <trkpt lat="47.97438" lon="1.91322">
        <ele>131.3</ele>
        <time>2015-09-27T08:30:27Z</time>
      </trkpt>
      <trkpt lat="47.97443" lon="1.91323">
        <ele>131.3</ele>
        <time>2015-09-27T08:30:28Z</time>
      </trkpt>
      <trkpt lat="47.97448" lon="1.91323">
        <ele>131.3</ele>
        <time>2015-09-27T08:30:29Z</time>
      </trkpt>
      <trkpt lat="47.97453" lon="1.91323">
        <ele>131.2</ele>
        <time>2015-09-27T08:30:30Z</time>
      </trkpt>
      <trkpt lat="47.97458" lon="1.91323">
        <ele>131.1</ele>
        <time>2015-09-27T08:30:31Z</time>
      </trkpt>
      <trkpt lat="47.97463" lon="1.91324">
        <ele>131.2</ele>
        <time>2015-09-27T08:30:32Z</time>
      </trkpt>
      <trkpt lat="47.97468" lon="1.91325">
        <ele>131.3</ele>
        <time>2015-09-27T08:30:33Z</time>
      </trkpt>
      <trkpt lat="47.97474" lon="1.91326">
        <ele>131.3</ele>
        <time>2015-09-27T08:30:34Z</time>
      </trkpt>
      <trkpt lat="47.97479" lon="1.91326">
        <ele>131.4</ele>
        <time>2015-09-27T08:30:35Z</time>
      </trkpt>
      <trkpt lat="47.97485" lon="1.91327">
        <ele>131.4</ele>
        <time>2015-09-27T08:30:36Z</time>
      </trkpt>
      <trkpt lat="47.97491" lon="1.91327">
        <ele>131.5</ele>
        <time>2015-09-27T08:30:37Z</time>
      </trkpt>
      <trkpt lat="47.97497" lon="1.91327">
        <ele>131.5</ele>
        <time>2015-09-27T08:30:38Z</time>
      </trkpt>
      <trkpt lat="47.97502" lon="1.91328">
        <ele>131.6</ele>
        <time>2015-09-27T08:30:39Z</time>
      </trkpt>
      <trkpt lat="47.97508" lon="1.91328">
        <ele>131.6</ele>
        <time>2015-09-27T08:30:40Z</time>
      </trkpt>
      <trkpt lat="47.97514" lon="1.91329">
        <ele>131.7</ele>
        <time>2015-09-27T08:30:41Z</time>
      </trkpt>
      <trkpt lat="47.97519" lon="1.91329">
        <ele>131.7</ele>
        <time>2015-09-27T08:30:42Z</time>
      </trkpt>
      <trkpt lat="47.97525" lon="1.9133">
        <ele>131.8</ele>
        <time>2015-09-27T08:30:43Z</time>
      </trkpt>
      <trkpt lat="47.9753" lon="1.9133">
        <ele>131.8</ele>
        <time>2015-09-27T08:30:44Z</time>
      </trkpt>
      <trkpt lat="47.97536" lon="1.9133">
        <ele>131.9</ele>
        <time>2015-09-27T08:30:45Z</time>
      </trkpt>
      <trkpt lat="47.97541" lon="1.91331">
        <ele>131.9</ele>
        <time>2015-09-27T08:30:46Z</time>
      </trkpt>
      <trkpt lat="47.97547" lon="1.91331">
        <ele>132</ele>
        <time>2015-09-27T08:30:47Z</time>
      </trkpt>
      <trkpt lat="47.97552" lon="1.91332">
        <ele>132</ele>
        <time>2015-09-27T08:30:48Z</time>
      </trkpt>
      <trkpt lat="47.97557" lon="1.91333">
        <ele>132.1</ele>
        <time>2015-09-27T08:30:49Z</time>
      </trkpt>
      <trkpt lat="47.97562" lon="1.91333">
        <ele>132.1</ele>
        <time>2015-09-27T08:30:50Z</time>
      </trkpt>
      <trkpt lat="47.97567" lon="1.91332">
        <ele>132.1</ele>
        <time>2015-09-27T08:30:51Z</time>
      </trkpt>
      <trkpt lat="47.97573" lon="1.9133">
        <ele>132.1</ele>
        <time>2015-09-27T08:30:52Z</time>
      </trkpt>
      <trkpt lat="47.97578" lon="1.91328">
        <ele>132.1</ele>
        <time>2015-09-27T08:30:53Z</time>
      </trkpt>
      <trkpt lat="47.97583" lon="1.91327">
        <ele>132.1</ele>
        <time>2015-09-27T08:30:54Z</time>
      </trkpt>
      <trkpt lat="47.97589" lon="1.91326">
        <ele>132.2</ele>
        <time>2015-09-27T08:30:55Z</time>
      </trkpt>
      <trkpt lat="47.97594" lon="1.91325">
        <ele>132.2</ele>
        <time>2015-09-27T08:30:56Z</time>
      </trkpt>
      <trkpt lat="47.97599" lon="1.91325">
        <ele>132.2</ele>
        <time>2015-09-27T08:30:57Z</time>
      </trkpt>
      <trkpt lat="47.97605" lon="1.91325">
        <ele>132.3</ele>
        <time>2015-09-27T08:30:58Z</time>
      </trkpt>
      <trkpt lat="47.97609" lon="1.91325">
        <ele>132.3</ele>
        <time>2015-09-27T08:30:59Z</time>
      </trkpt>
      <trkpt lat="47.97614" lon="1.91326">
        <ele>132.3</ele>
        <time>2015-09-27T08:31:00Z</time>
      </trkpt>
      <trkpt lat="47.9762" lon="1.91326">
        <ele>132.4</ele>
        <time>2015-09-27T08:31:01Z</time>
      </trkpt>
      <trkpt lat="47.97625" lon="1.91327">
        <ele>132.4</ele>
        <time>2015-09-27T08:31:02Z</time>
      </trkpt>
      <trkpt lat="47.9763" lon="1.91329">
        <ele>132.4</ele>
        <time>2015-09-27T08:31:03Z</time>
      </trkpt>
      <trkpt lat="47.97635" lon="1.9133">
        <ele>132.3</ele>
        <time>2015-09-27T08:31:04Z</time>
      </trkpt>
      <trkpt lat="47.9764" lon="1.91331">
        <ele>132.3</ele>
        <time>2015-09-27T08:31:05Z</time>
      </trkpt>
      <trkpt lat="47.97645" lon="1.91332">
        <ele>132.3</ele>
        <time>2015-09-27T08:31:06Z</time>
      </trkpt>
      <trkpt lat="47.97648" lon="1.91332">
        <ele>132.2</ele>
        <time>2015-09-27T08:31:07Z</time>
      </trkpt>
      <trkpt lat="47.97651" lon="1.91333">
        <ele>132.2</ele>
        <time>2015-09-27T08:31:08Z</time>
      </trkpt>
      <trkpt lat="47.97654" lon="1.91334">
        <ele>132.2</ele>
        <time>2015-09-27T08:31:09Z</time>
      </trkpt>
      <trkpt lat="47.97656" lon="1.91335">
        <ele>132.1</ele>
        <time>2015-09-27T08:31:10Z</time>
      </trkpt>
      <trkpt lat="47.97659" lon="1.91335">
        <ele>132.1</ele>
        <time>2015-09-27T08:31:11Z</time>
      </trkpt>
      <trkpt lat="47.97662" lon="1.91335">
        <ele>132.1</ele>
        <time>2015-09-27T08:31:12Z</time>
      </trkpt>
      <trkpt lat="47.97666" lon="1.91335">
        <ele>132</ele>
        <time>2015-09-27T08:31:13Z</time>
      </trkpt>
      <trkpt lat="47.9767" lon="1.91335">
        <ele>132</ele>
        <time>2015-09-27T08:31:14Z</time>
      </trkpt>
      <trkpt lat="47.97674" lon="1.91335">
        <ele>131.9</ele>
        <time>2015-09-27T08:31:15Z</time>
      </trkpt>
      <trkpt lat="47.97678" lon="1.91335">
        <ele>131.9</ele>
        <time>2015-09-27T08:31:16Z</time>
      </trkpt>
      <trkpt lat="47.97682" lon="1.91337">
        <ele>131.8</ele>
        <time>2015-09-27T08:31:17Z</time>
      </trkpt>
      <trkpt lat="47.97686" lon="1.91337">
        <ele>131.7</ele>
        <time>2015-09-27T08:31:18Z</time>
      </trkpt>
      <trkpt lat="47.9769" lon="1.91337">
        <ele>131.7</ele>
        <time>2015-09-27T08:31:19Z</time>
      </trkpt>
      <trkpt lat="47.97694" lon="1.91337">
        <ele>131.6</ele>
        <time>2015-09-27T08:31:20Z</time>
      </trkpt>
      <trkpt lat="47.97698" lon="1.91336">
        <ele>131.6</ele>
        <time>2015-09-27T08:31:21Z</time>
      </trkpt>
      <trkpt lat="47.97702" lon="1.91335">
        <ele>131.6</ele>
        <time>2015-09-27T08:31:22Z</time>
      </trkpt>
      <trkpt lat="47.97706" lon="1.91335">
        <ele>131.5</ele>
        <time>2015-09-27T08:31:23Z</time>
      </trkpt>
      <trkpt lat="47.9771" lon="1.91335">
        <ele>131.5</ele>
        <time>2015-09-27T08:31:24Z</time>
      </trkpt>
      <trkpt lat="47.97714" lon="1.91337">
        <ele>131.6</ele>
        <time>2015-09-27T08:31:25Z</time>
      </trkpt>
      <trkpt lat="47.97718" lon="1.9134">
        <ele>131.7</ele>
        <time>2015-09-27T08:31:26Z</time>
      </trkpt>
      <trkpt lat="47.97722" lon="1.91343">
        <ele>131.7</ele>
        <time>2015-09-27T08:31:27Z</time>
      </trkpt>
      <trkpt lat="47.97726" lon="1.91345">
        <ele>131.8</ele>
        <time>2015-09-27T08:31:28Z</time>
      </trkpt>
      <trkpt lat="47.9773" lon="1.91346">
        <ele>131.9</ele>
        <time>2015-09-27T08:31:29Z</time>
      </trkpt>
      <trkpt lat="47.97734" lon="1.91347">
        <ele>132</ele>
        <time>2015-09-27T08:31:30Z</time>
      </trkpt>
      <trkpt lat="47.97739" lon="1.91348">
        <ele>132.1</ele>
        <time>2015-09-27T08:31:31Z</time>
      </trkpt>
      <trkpt lat="47.97743" lon="1.91348">
        <ele>132.2</ele>
        <time>2015-09-27T08:31:32Z</time>
      </trkpt>
      <trkpt lat="47.97747" lon="1.91348">
        <ele>132.3</ele>
        <time>2015-09-27T08:31:33Z</time>
      </trkpt>
      <trkpt lat="47.97752" lon="1.91349">
        <ele>132.4</ele>
        <time>2015-09-27T08:31:34Z</time>
      </trkpt>
      <trkpt lat="47.97756" lon="1.91348">
        <ele>132.5</ele>
        <time>2015-09-27T08:31:35Z</time>
      </trkpt>
      <trkpt lat="47.97761" lon="1.91347">
        <ele>132.6</ele>
        <time>2015-09-27T08:31:36Z</time>
      </trkpt>
      <trkpt lat="47.97765" lon="1.91344">
        <ele>132.7</ele>
        <time>2015-09-27T08:31:37Z</time>
      </trkpt>
      <trkpt lat="47.97769" lon="1.91342">
        <ele>132.8</ele>
        <time>2015-09-27T08:31:38Z</time>
      </trkpt>
      <trkpt lat="47.97773" lon="1.91342">
        <ele>133</ele>
        <time>2015-09-27T08:31:39Z</time>
      </trkpt>
      <trkpt lat="47.97777" lon="1.91342">
        <ele>133.1</ele>
        <time>2015-09-27T08:31:40Z</time>
      </trkpt>
      <trkpt lat="47.97782" lon="1.91342">
        <ele>133.2</ele>
        <time>2015-09-27T08:31:41Z</time>
      </trkpt>
      <trkpt lat="47.97786" lon="1.91344">
        <ele>133.2</ele>
        <time>2015-09-27T08:31:42Z</time>
      </trkpt>
      <trkpt lat="47.97791" lon="1.91346">
        <ele>133.3</ele>
        <time>2015-09-27T08:31:43Z</time>
      </trkpt>
      <trkpt lat="47.97795" lon="1.91347">
        <ele>133.3</ele>
        <time>2015-09-27T08:31:44Z</time>
      </trkpt>
      <trkpt lat="47.978" lon="1.91349">
        <ele>133.3</ele>
        <time>2015-09-27T08:31:45Z</time>
      </trkpt>
      <trkpt lat="47.97804" lon="1.91351">
        <ele>133.3</ele>
        <time>2015-09-27T08:31:46Z</time>
      </trkpt>
      <trkpt lat="47.97808" lon="1.91352">
        <ele>133.2</ele>
        <time>2015-09-27T08:31:47Z</time>
      </trkpt>
      <trkpt lat="47.97813" lon="1.91352">
        <ele>133.2</ele>
        <time>2015-09-27T08:31:48Z</time>
      </trkpt>
      <trkpt lat="47.97817" lon="1.91352">
        <ele>133.2</ele>
        <time>2015-09-27T08:31:49Z</time>
      </trkpt>
      <trkpt lat="47.97822" lon="1.91352">
        <ele>133.2</ele>
        <time>2015-09-27T08:31:50Z</time>
      </trkpt>
      <trkpt lat="47.97826" lon="1.91352">
        <ele>133.2</ele>
        <time>2015-09-27T08:31:51Z</time>
      </trkpt>
      <trkpt lat="47.97831" lon="1.9135">
        <ele>133.2</ele>
        <time>2015-09-27T08:31:52Z</time>
      </trkpt>
      <trkpt lat="47.97834" lon="1.91349">
        <ele>133.3</ele>
        <time>2015-09-27T08:31:53Z</time>
      </trkpt>
      <trkpt lat="47.97838" lon="1.91349">
        <ele>133.3</ele>
        <time>2015-09-27T08:31:54Z</time>
      </trkpt>
      <trkpt lat="47.97841" lon="1.91348">
        <ele>133.3</ele>
        <time>2015-09-27T08:31:55Z</time>
      </trkpt>
      <trkpt lat="47.97844" lon="1.91345">
        <ele>133.4</ele>
        <time>2015-09-27T08:31:56Z</time>
      </trkpt>
      <trkpt lat="47.97848" lon="1.91343">
        <ele>133.5</ele>
        <time>2015-09-27T08:31:57Z</time>
      </trkpt>
      <trkpt lat="47.97851" lon="1.91341">
        <ele>133.6</ele>
        <time>2015-09-27T08:31:58Z</time>
      </trkpt>
      <trkpt lat="47.97855" lon="1.91339">
        <ele>133.7</ele>
        <time>2015-09-27T08:31:59Z</time>
      </trkpt>
      <trkpt lat="47.97859" lon="1.91338">
        <ele>133.7</ele>
        <time>2015-09-27T08:32:00Z</time>
      </trkpt>
      <trkpt lat="47.97863" lon="1.91336">
        <ele>133.8</ele>
        <time>2015-09-27T08:32:01Z</time>
      </trkpt>
      <trkpt lat="47.97867" lon="1.91335">
        <ele>133.9</ele>
        <time>2015-09-27T08:32:02Z</time>
      </trkpt>
      <trkpt lat="47.97871" lon="1.91334">
        <ele>134</ele>
        <time>2015-09-27T08:32:03Z</time>
      </trkpt>
      <trkpt lat="47.97876" lon="1.91332">
        <ele>134.1</ele>
        <time>2015-09-27T08:32:04Z</time>
      </trkpt>
      <trkpt lat="47.9788" lon="1.91331">
        <ele>134.2</ele>
        <time>2015-09-27T08:32:05Z</time>
      </trkpt>
      <trkpt lat="47.97883" lon="1.91329">
        <ele>134.5</ele>
        <time>2015-09-27T08:32:06Z</time>
      </trkpt>
      <trkpt lat="47.97886" lon="1.91325">
        <ele>134.7</ele>
        <time>2015-09-27T08:32:07Z</time>
      </trkpt>
      <trkpt lat="47.97889" lon="1.91321">
        <ele>135</ele>
        <time>2015-09-27T08:32:08Z</time>
      </trkpt>
      <trkpt lat="47.97893" lon="1.91318">
        <ele>135.3</ele>
        <time>2015-09-27T08:32:09Z</time>
      </trkpt>
      <trkpt lat="47.97897" lon="1.91316">
        <ele>135.5</ele>
        <time>2015-09-27T08:32:10Z</time>
      </trkpt>
      <trkpt lat="47.97901" lon="1.91315">
        <ele>135.7</ele>
        <time>2015-09-27T08:32:11Z</time>
      </trkpt>
      <trkpt lat="47.97905" lon="1.91315">
        <ele>135.8</ele>
        <time>2015-09-27T08:32:12Z</time>
      </trkpt>
      <trkpt lat="47.97909" lon="1.91316">
        <ele>135.9</ele>
        <time>2015-09-27T08:32:13Z</time>
      </trkpt>
      <trkpt lat="47.97912" lon="1.91317">
        <ele>136</ele>
        <time>2015-09-27T08:32:14Z</time>
      </trkpt>
      <trkpt lat="47.97915" lon="1.91317">
        <ele>136.1</ele>
        <time>2015-09-27T08:32:15Z</time>
      </trkpt>
      <trkpt lat="47.97918" lon="1.91314">
        <ele>136.4</ele>
        <time>2015-09-27T08:32:16Z</time>
      </trkpt>
      <trkpt lat="47.9792" lon="1.91309">
        <ele>136.7</ele>
        <time>2015-09-27T08:32:17Z</time>
      </trkpt>
      <trkpt lat="47.97922" lon="1.91305">
        <ele>137</ele>
        <time>2015-09-27T08:32:18Z</time>
      </trkpt>
      <trkpt lat="47.97925" lon="1.91301">
        <ele>137.3</ele>
        <time>2015-09-27T08:32:19Z</time>
      </trkpt>
      <trkpt lat="47.97929" lon="1.91297">
        <ele>137.6</ele>
        <time>2015-09-27T08:32:20Z</time>
      </trkpt>
      <trkpt lat="47.97932" lon="1.91294">
        <ele>137.9</ele>
        <time>2015-09-27T08:32:21Z</time>
      </trkpt>
      <trkpt lat="47.97936" lon="1.9129">
        <ele>138.2</ele>
        <time>2015-09-27T08:32:22Z</time>
      </trkpt>
      <trkpt lat="47.9794" lon="1.91286">
        <ele>138.5</ele>
        <time>2015-09-27T08:32:23Z</time>
      </trkpt>
      <trkpt lat="47.97944" lon="1.91282">
        <ele>138.7</ele>
        <time>2015-09-27T08:32:24Z</time>
      </trkpt>
      <trkpt lat="47.97948" lon="1.91278">
        <ele>139</ele>
        <time>2015-09-27T08:32:25Z</time>
      </trkpt>
      <trkpt lat="47.97952" lon="1.91275">
        <ele>139.2</ele>
        <time>2015-09-27T08:32:26Z</time>
      </trkpt>
      <trkpt lat="47.97956" lon="1.91272">
        <ele>139.4</ele>
        <time>2015-09-27T08:32:27Z</time>
      </trkpt>
      <trkpt lat="47.9796" lon="1.91268">
        <ele>139.5</ele>
        <time>2015-09-27T08:32:28Z</time>
      </trkpt>
      <trkpt lat="47.97964" lon="1.91265">
        <ele>139.5</ele>
        <time>2015-09-27T08:32:29Z</time>
      </trkpt>
      <trkpt lat="47.97968" lon="1.91261">
        <ele>139.5</ele>
        <time>2015-09-27T08:32:30Z</time>
      </trkpt>
      <trkpt lat="47.97972" lon="1.91258">
        <ele>139.5</ele>
        <time>2015-09-27T08:32:31Z</time>
      </trkpt>
      <trkpt lat="47.97976" lon="1.91255">
        <ele>139.5</ele>
        <time>2015-09-27T08:32:32Z</time>
      </trkpt>
      <trkpt lat="47.9798" lon="1.91252">
        <ele>139.5</ele>
        <time>2015-09-27T08:32:33Z</time>
      </trkpt>
      <trkpt lat="47.97985" lon="1.91249">
        <ele>139.6</ele>
        <time>2015-09-27T08:32:34Z</time>
      </trkpt>
      <trkpt lat="47.97989" lon="1.91246">
        <ele>139.6</ele>
        <time>2015-09-27T08:32:35Z</time>
      </trkpt>
      <trkpt lat="47.97994" lon="1.91243">
        <ele>139.6</ele>
        <time>2015-09-27T08:32:36Z</time>
      </trkpt>
      <trkpt lat="47.97998" lon="1.9124">
        <ele>139.7</ele>
        <time>2015-09-27T08:32:37Z</time>
      </trkpt>
      <trkpt lat="47.98002" lon="1.91238">
        <ele>139.7</ele>
        <time>2015-09-27T08:32:38Z</time>
      </trkpt>
      <trkpt lat="47.98007" lon="1.91236">
        <ele>139.8</ele>
        <time>2015-09-27T08:32:39Z</time>
      </trkpt>
      <trkpt lat="47.98011" lon="1.91234">
        <ele>139.8</ele>
        <time>2015-09-27T08:32:40Z</time>
      </trkpt>
      <trkpt lat="47.98016" lon="1.91234">
        <ele>139.7</ele>
        <time>2015-09-27T08:32:41Z</time>
      </trkpt>
      <trkpt lat="47.98021" lon="1.91235">
        <ele>139.7</ele>
        <time>2015-09-27T08:32:42Z</time>
      </trkpt>
      <trkpt lat="47.98026" lon="1.91236">
        <ele>139.6</ele>
        <time>2015-09-27T08:32:43Z</time>
      </trkpt>
      <trkpt lat="47.98031" lon="1.91236">
        <ele>139.5</ele>
        <time>2015-09-27T08:32:44Z</time>
      </trkpt>
      <trkpt lat="47.98036" lon="1.91238">
        <ele>139.3</ele>
        <time>2015-09-27T08:32:45Z</time>
      </trkpt>
      <trkpt lat="47.98042" lon="1.91239">
        <ele>139.1</ele>
        <time>2015-09-27T08:32:46Z</time>
      </trkpt>
      <trkpt lat="47.98047" lon="1.91241">
        <ele>139</ele>
        <time>2015-09-27T08:32:47Z</time>
      </trkpt>
      <trkpt lat="47.98053" lon="1.91241">
        <ele>139</ele>
        <time>2015-09-27T08:32:48Z</time>
      </trkpt>
      <trkpt lat="47.98058" lon="1.91242">
        <ele>138.9</ele>
        <time>2015-09-27T08:32:49Z</time>
      </trkpt>
      <trkpt lat="47.98063" lon="1.91242">
        <ele>138.9</ele>
        <time>2015-09-27T08:32:50Z</time>
      </trkpt>
      <trkpt lat="47.98068" lon="1.91242">
        <ele>138.9</ele>
        <time>2015-09-27T08:32:51Z</time>
      </trkpt>
      <trkpt lat="47.98074" lon="1.91243">
        <ele>138.8</ele>
        <time>2015-09-27T08:32:52Z</time>
      </trkpt>
      <trkpt lat="47.98079" lon="1.91243">
        <ele>138.7</ele>
        <time>2015-09-27T08:32:53Z</time>
      </trkpt>
      <trkpt lat="47.98084" lon="1.91243">
        <ele>138.7</ele>
        <time>2015-09-27T08:32:54Z</time>
      </trkpt>
      <trkpt lat="47.98089" lon="1.91242">
        <ele>138.7</ele>
        <time>2015-09-27T08:32:55Z</time>
      </trkpt>
      <trkpt lat="47.98095" lon="1.91243">
        <ele>138.7</ele>
        <time>2015-09-27T08:32:56Z</time>
      </trkpt>
      <trkpt lat="47.98101" lon="1.91244">
        <ele>138.6</ele>
        <time>2015-09-27T08:32:57Z</time>
      </trkpt>
      <trkpt lat="47.98106" lon="1.91244">
        <ele>138.5</ele>
        <time>2015-09-27T08:32:58Z</time>
      </trkpt>
      <trkpt lat="47.98112" lon="1.91245">
        <ele>138.4</ele>
        <time>2015-09-27T08:32:59Z</time>
      </trkpt>
      <trkpt lat="47.98118" lon="1.91245">
        <ele>138.4</ele>
        <time>2015-09-27T08:33:00Z</time>
      </trkpt>
      <trkpt lat="47.98124" lon="1.91246">
        <ele>138.3</ele>
        <time>2015-09-27T08:33:01Z</time>
      </trkpt>
      <trkpt lat="47.9813" lon="1.91247">
        <ele>138.2</ele>
        <time>2015-09-27T08:33:02Z</time>
      </trkpt>
      <trkpt lat="47.98135" lon="1.91248">
        <ele>138.1</ele>
        <time>2015-09-27T08:33:03Z</time>
      </trkpt>
      <trkpt lat="47.98141" lon="1.91248">
        <ele>138</ele>
        <time>2015-09-27T08:33:05Z</time>
      </trkpt>
      <trkpt lat="47.98152" lon="1.91248">
        <ele>138</ele>
        <time>2015-09-27T08:33:06Z</time>
      </trkpt>
      <trkpt lat="47.98158" lon="1.91248">
        <ele>137.9</ele>
        <time>2015-09-27T08:33:07Z</time>
      </trkpt>
      <trkpt lat="47.98163" lon="1.91248">
        <ele>137.9</ele>
        <time>2015-09-27T08:33:08Z</time>
      </trkpt>
      <trkpt lat="47.98169" lon="1.91247">
        <ele>137.9</ele>
        <time>2015-09-27T08:33:09Z</time>
      </trkpt>
      <trkpt lat="47.98175" lon="1.91247">
        <ele>137.9</ele>
        <time>2015-09-27T08:33:10Z</time>
      </trkpt>
      <trkpt lat="47.9818" lon="1.91247">
        <ele>137.9</ele>
        <time>2015-09-27T08:33:11Z</time>
      </trkpt>
      <trkpt lat="47.98186" lon="1.91247">
        <ele>137.8</ele>
        <time>2015-09-27T08:33:12Z</time>
      </trkpt>
      <trkpt lat="47.98191" lon="1.91247">
        <ele>137.8</ele>
        <time>2015-09-27T08:33:13Z</time>
      </trkpt>
      <trkpt lat="47.98196" lon="1.91245">
        <ele>137.9</ele>
        <time>2015-09-27T08:33:14Z</time>
      </trkpt>
      <trkpt lat="47.98201" lon="1.91242">
        <ele>138.1</ele>
        <time>2015-09-27T08:33:15Z</time>
      </trkpt>
      <trkpt lat="47.98205" lon="1.91236">
        <ele>138.4</ele>
        <time>2015-09-27T08:33:16Z</time>
      </trkpt>
      <trkpt lat="47.98208" lon="1.91228">
        <ele>138.8</ele>
        <time>2015-09-27T08:33:17Z</time>
      </trkpt>
      <trkpt lat="47.98211" lon="1.91219">
        <ele>139.2</ele>
        <time>2015-09-27T08:33:18Z</time>
      </trkpt>
      <trkpt lat="47.98213" lon="1.9121">
        <ele>139.5</ele>
        <time>2015-09-27T08:33:19Z</time>
      </trkpt>
      <trkpt lat="47.98216" lon="1.912">
        <ele>139.5</ele>
        <time>2015-09-27T08:33:20Z</time>
      </trkpt>
      <trkpt lat="47.98219" lon="1.91191">
        <ele>139.4</ele>
        <time>2015-09-27T08:33:21Z</time>
      </trkpt>
      <trkpt lat="47.98221" lon="1.91182">
        <ele>139.3</ele>
        <time>2015-09-27T08:33:22Z</time>
      </trkpt>
      <trkpt lat="47.98224" lon="1.91174">
        <ele>139.2</ele>
        <time>2015-09-27T08:33:23Z</time>
      </trkpt>
      <trkpt lat="47.98227" lon="1.91165">
        <ele>139.1</ele>
        <time>2015-09-27T08:33:24Z</time>
      </trkpt>
      <trkpt lat="47.9823" lon="1.91157">
        <ele>139</ele>
        <time>2015-09-27T08:33:25Z</time>
      </trkpt>
      <trkpt lat="47.98232" lon="1.91149">
        <ele>138.9</ele>
        <time>2015-09-27T08:33:26Z</time>
      </trkpt>
      <trkpt lat="47.98235" lon="1.91141">
        <ele>138.8</ele>
        <time>2015-09-27T08:33:27Z</time>
      </trkpt>
      <trkpt lat="47.98238" lon="1.91134">
        <ele>138.7</ele>
        <time>2015-09-27T08:33:28Z</time>
      </trkpt>
      <trkpt lat="47.98241" lon="1.91126">
        <ele>138.6</ele>
        <time>2015-09-27T08:33:29Z</time>
      </trkpt>
      <trkpt lat="47.98244" lon="1.9112">
        <ele>138.5</ele>
        <time>2015-09-27T08:33:30Z</time>
      </trkpt>
      <trkpt lat="47.98247" lon="1.91114">
        <ele>138.3</ele>
        <time>2015-09-27T08:33:31Z</time>
      </trkpt>
      <trkpt lat="47.98251" lon="1.9111">
        <ele>138</ele>
        <time>2015-09-27T08:33:32Z</time>
      </trkpt>
      <trkpt lat="47.98255" lon="1.91107">
        <ele>137.7</ele>
        <time>2015-09-27T08:33:33Z</time>
      </trkpt>
      <trkpt lat="47.9826" lon="1.91107">
        <ele>137.4</ele>
        <time>2015-09-27T08:33:34Z</time>
      </trkpt>
      <trkpt lat="47.98266" lon="1.9111">
        <ele>137</ele>
        <time>2015-09-27T08:33:35Z</time>
      </trkpt>
      <trkpt lat="47.98272" lon="1.91113">
        <ele>136.6</ele>
        <time>2015-09-27T08:33:36Z</time>
      </trkpt>
      <trkpt lat="47.98278" lon="1.91113">
        <ele>136.1</ele>
        <time>2015-09-27T08:33:37Z</time>
      </trkpt>
      <trkpt lat="47.98285" lon="1.91113">
        <ele>135.6</ele>
        <time>2015-09-27T08:33:38Z</time>
      </trkpt>
      <trkpt lat="47.98292" lon="1.91113">
        <ele>135.1</ele>
        <time>2015-09-27T08:33:39Z</time>
      </trkpt>
      <trkpt lat="47.98298" lon="1.91115">
        <ele>134.7</ele>
        <time>2015-09-27T08:33:40Z</time>
      </trkpt>
      <trkpt lat="47.98305" lon="1.91116">
        <ele>134.4</ele>
        <time>2015-09-27T08:33:41Z</time>
      </trkpt>
      <trkpt lat="47.9831" lon="1.91117">
        <ele>134</ele>
        <time>2015-09-27T08:33:42Z</time>
      </trkpt>
      <trkpt lat="47.98315" lon="1.91117">
        <ele>133.8</ele>
        <time>2015-09-27T08:33:43Z</time>
      </trkpt>
      <trkpt lat="47.98319" lon="1.91117">
        <ele>133.5</ele>
        <time>2015-09-27T08:33:44Z</time>
      </trkpt>
      <trkpt lat="47.98322" lon="1.91116">
        <ele>133.3</ele>
        <time>2015-09-27T08:33:45Z</time>
      </trkpt>
      <trkpt lat="47.98325" lon="1.91116">
        <ele>133.2</ele>
        <time>2015-09-27T08:33:46Z</time>
      </trkpt>
      <trkpt lat="47.98328" lon="1.91114">
        <ele>133.1</ele>
        <time>2015-09-27T08:33:47Z</time>
      </trkpt>
      <trkpt lat="47.9833" lon="1.91109">
        <ele>133.1</ele>
        <time>2015-09-27T08:33:48Z</time>
      </trkpt>
      <trkpt lat="47.98331" lon="1.91104">
        <ele>133.1</ele>
        <time>2015-09-27T08:33:49Z</time>
      </trkpt>
      <trkpt lat="47.98332" lon="1.91099">
        <ele>133.2</ele>
        <time>2015-09-27T08:33:50Z</time>
      </trkpt>
      <trkpt lat="47.98333" lon="1.91092">
        <ele>133.3</ele>
        <time>2015-09-27T08:33:52Z</time>
      </trkpt>
      <trkpt lat="47.98335" lon="1.91088">
        <ele>133.3</ele>
        <time>2015-09-27T08:33:53Z</time>
      </trkpt>
      <trkpt lat="47.98337" lon="1.91085">
        <ele>133.3</ele>
        <time>2015-09-27T08:33:54Z</time>
      </trkpt>
      <trkpt lat="47.98341" lon="1.9108">
        <ele>133.2</ele>
        <time>2015-09-27T08:33:56Z</time>
      </trkpt>
      <trkpt lat="47.98341" lon="1.91076">
        <ele>133.3</ele>
        <time>2015-09-27T08:33:59Z</time>
      </trkpt>
      <trkpt lat="47.9834" lon="1.91072">
        <ele>133.5</ele>
        <time>2015-09-27T08:34:03Z</time>
      </trkpt>
      <trkpt lat="47.98339" lon="1.91066">
        <ele>133.7</ele>
        <time>2015-09-27T08:34:06Z</time>
      </trkpt>
      <trkpt lat="47.9834" lon="1.91061">
        <ele>133.8</ele>
        <time>2015-09-27T08:34:08Z</time>
      </trkpt>
      <trkpt lat="47.98343" lon="1.91056">
        <ele>133.8</ele>
        <time>2015-09-27T08:34:10Z</time>
      </trkpt>
      <trkpt lat="47.98345" lon="1.91049">
        <ele>133.9</ele>
        <time>2015-09-27T08:34:12Z</time>
      </trkpt>
      <trkpt lat="47.98344" lon="1.91041">
        <ele>134.1</ele>
        <time>2015-09-27T08:34:14Z</time>
      </trkpt>
      <trkpt lat="47.98346" lon="1.91035">
        <ele>134.1</ele>
        <time>2015-09-27T08:34:16Z</time>
      </trkpt>
      <trkpt lat="47.98351" lon="1.91033">
        <ele>134</ele>
        <time>2015-09-27T08:34:18Z</time>
      </trkpt>
      <trkpt lat="47.98353" lon="1.91034">
        <ele>133.9</ele>
        <time>2015-09-27T08:34:19Z</time>
      </trkpt>
      <trkpt lat="47.98356" lon="1.91036">
        <ele>133.8</ele>
        <time>2015-09-27T08:34:20Z</time>
      </trkpt>
      <trkpt lat="47.98359" lon="1.91041">
        <ele>133.6</ele>
        <time>2015-09-27T08:34:22Z</time>
      </trkpt>
      <trkpt lat="47.98361" lon="1.91046">
        <ele>133.4</ele>
        <time>2015-09-27T08:34:24Z</time>
      </trkpt>
      <trkpt lat="47.98362" lon="1.91051">
        <ele>133.2</ele>
        <time>2015-09-27T08:34:26Z</time>
      </trkpt>
      <trkpt lat="47.98361" lon="1.91057">
        <ele>133</ele>
        <time>2015-09-27T08:34:28Z</time>
      </trkpt>
      <trkpt lat="47.98361" lon="1.91061">
        <ele>132.9</ele>
        <time>2015-09-27T08:34:29Z</time>
      </trkpt>
      <trkpt lat="47.98361" lon="1.91066">
        <ele>132.7</ele>
        <time>2015-09-27T08:34:30Z</time>
      </trkpt>
      <trkpt lat="47.98361" lon="1.91072">
        <ele>132.5</ele>
        <time>2015-09-27T08:34:31Z</time>
      </trkpt>
      <trkpt lat="47.98361" lon="1.91078">
        <ele>132.4</ele>
        <time>2015-09-27T08:34:32Z</time>
      </trkpt>
      <trkpt lat="47.98361" lon="1.91083">
        <ele>132.2</ele>
        <time>2015-09-27T08:34:33Z</time>
      </trkpt>
      <trkpt lat="47.98361" lon="1.91089">
        <ele>132</ele>
        <time>2015-09-27T08:34:34Z</time>
      </trkpt>
      <trkpt lat="47.98361" lon="1.91095">
        <ele>131.8</ele>
        <time>2015-09-27T08:34:35Z</time>
      </trkpt>
      <trkpt lat="47.98362" lon="1.91101">
        <ele>131.6</ele>
        <time>2015-09-27T08:34:36Z</time>
      </trkpt>
      <trkpt lat="47.98362" lon="1.91109">
        <ele>131.3</ele>
        <time>2015-09-27T08:34:37Z</time>
      </trkpt>
      <trkpt lat="47.98362" lon="1.91118">
        <ele>131</ele>
        <time>2015-09-27T08:34:38Z</time>
      </trkpt>
      <trkpt lat="47.98362" lon="1.91127">
        <ele>130.8</ele>
        <time>2015-09-27T08:34:39Z</time>
      </trkpt>
      <trkpt lat="47.98359" lon="1.91139">
        <ele>130.7</ele>
        <time>2015-09-27T08:34:40Z</time>
      </trkpt>
      <trkpt lat="47.98359" lon="1.91148">
        <ele>130.6</ele>
        <time>2015-09-27T08:34:41Z</time>
      </trkpt>
      <trkpt lat="47.98359" lon="1.91158">
        <ele>130.5</ele>
        <time>2015-09-27T08:34:42Z</time>
      </trkpt>
      <trkpt lat="47.98359" lon="1.91169">
        <ele>130.3</ele>
        <time>2015-09-27T08:34:43Z</time>
      </trkpt>
      <trkpt lat="47.98361" lon="1.91179">
        <ele>130.1</ele>
        <time>2015-09-27T08:34:44Z</time>
      </trkpt>
      <trkpt lat="47.98361" lon="1.91188">
        <ele>130</ele>
        <time>2015-09-27T08:34:45Z</time>
      </trkpt>
      <trkpt lat="47.98361" lon="1.91199">
        <ele>129.8</ele>
        <time>2015-09-27T08:34:46Z</time>
      </trkpt>
      <trkpt lat="47.98361" lon="1.91208">
        <ele>129.7</ele>
        <time>2015-09-27T08:34:47Z</time>
      </trkpt>
      <trkpt lat="47.98362" lon="1.91219">
        <ele>129.8</ele>
        <time>2015-09-27T08:34:48Z</time>
      </trkpt>
      <trkpt lat="47.98362" lon="1.91227">
        <ele>130</ele>
        <time>2015-09-27T08:34:49Z</time>
      </trkpt>
      <trkpt lat="47.98364" lon="1.91236">
        <ele>130.1</ele>
        <time>2015-09-27T08:34:50Z</time>
      </trkpt>
      <trkpt lat="47.98364" lon="1.91246">
        <ele>130.2</ele>
        <time>2015-09-27T08:34:51Z</time>
      </trkpt>
      <trkpt lat="47.98365" lon="1.91254">
        <ele>130.4</ele>
        <time>2015-09-27T08:34:52Z</time>
      </trkpt>
      <trkpt lat="47.98366" lon="1.91264">
        <ele>130.6</ele>
        <time>2015-09-27T08:34:53Z</time>
      </trkpt>
      <trkpt lat="47.98365" lon="1.91272">
        <ele>130.7</ele>
        <time>2015-09-27T08:34:54Z</time>
      </trkpt>
      <trkpt lat="47.98365" lon="1.91281">
        <ele>130.9</ele>
        <time>2015-09-27T08:34:55Z</time>
      </trkpt>
      <trkpt lat="47.98365" lon="1.9129">
        <ele>131.1</ele>
        <time>2015-09-27T08:34:56Z</time>
      </trkpt>
      <trkpt lat="47.98366" lon="1.91296">
        <ele>131.2</ele>
        <time>2015-09-27T08:34:57Z</time>
      </trkpt>
      <trkpt lat="47.98367" lon="1.91306">
        <ele>131.2</ele>
        <time>2015-09-27T08:34:58Z</time>
      </trkpt>
      <trkpt lat="47.98368" lon="1.91314">
        <ele>131.3</ele>
        <time>2015-09-27T08:34:59Z</time>
      </trkpt>
      <trkpt lat="47.98368" lon="1.91322">
        <ele>131.4</ele>
        <time>2015-09-27T08:35:00Z</time>
      </trkpt>
      <trkpt lat="47.98367" lon="1.91331">
        <ele>131.5</ele>
        <time>2015-09-27T08:35:01Z</time>
      </trkpt>
      <trkpt lat="47.98366" lon="1.9134">
        <ele>131.6</ele>
        <time>2015-09-27T08:35:02Z</time>
      </trkpt>
      <trkpt lat="47.98366" lon="1.91348">
        <ele>131.6</ele>
        <time>2015-09-27T08:35:03Z</time>
      </trkpt>
      <trkpt lat="47.98364" lon="1.91357">
        <ele>131.7</ele>
        <time>2015-09-27T08:35:04Z</time>
      </trkpt>
      <trkpt lat="47.98365" lon="1.91366">
        <ele>131.8</ele>
        <time>2015-09-27T08:35:05Z</time>
      </trkpt>
      <trkpt lat="47.98364" lon="1.91375">
        <ele>131.9</ele>
        <time>2015-09-27T08:35:06Z</time>
      </trkpt>
      <trkpt lat="47.98364" lon="1.91383">
        <ele>131.8</ele>
        <time>2015-09-27T08:35:07Z</time>
      </trkpt>
      <trkpt lat="47.98365" lon="1.91392">
        <ele>131.7</ele>
        <time>2015-09-27T08:35:08Z</time>
      </trkpt>
      <trkpt lat="47.98365" lon="1.914">
        <ele>131.6</ele>
        <time>2015-09-27T08:35:09Z</time>
      </trkpt>
      <trkpt lat="47.98366" lon="1.91408">
        <ele>131.5</ele>
        <time>2015-09-27T08:35:10Z</time>
      </trkpt>
      <trkpt lat="47.98366" lon="1.91416">
        <ele>131.5</ele>
        <time>2015-09-27T08:35:11Z</time>
      </trkpt>
      <trkpt lat="47.98367" lon="1.91425">
        <ele>131.4</ele>
        <time>2015-09-27T08:35:12Z</time>
      </trkpt>
      <trkpt lat="47.98367" lon="1.91433">
        <ele>131.3</ele>
        <time>2015-09-27T08:35:13Z</time>
      </trkpt>
      <trkpt lat="47.98367" lon="1.91442">
        <ele>131.2</ele>
        <time>2015-09-27T08:35:14Z</time>
      </trkpt>
      <trkpt lat="47.98367" lon="1.91449">
        <ele>131.1</ele>
        <time>2015-09-27T08:35:15Z</time>
      </trkpt>
      <trkpt lat="47.98368" lon="1.91455">
        <ele>131</ele>
        <time>2015-09-27T08:35:16Z</time>
      </trkpt>
      <trkpt lat="47.98367" lon="1.91463">
        <ele>130.9</ele>
        <time>2015-09-27T08:35:17Z</time>
      </trkpt>
      <trkpt lat="47.98368" lon="1.91471">
        <ele>130.9</ele>
        <time>2015-09-27T08:35:18Z</time>
      </trkpt>
      <trkpt lat="47.98368" lon="1.91478">
        <ele>130.8</ele>
        <time>2015-09-27T08:35:19Z</time>
      </trkpt>
      <trkpt lat="47.98369" lon="1.91487">
        <ele>130.7</ele>
        <time>2015-09-27T08:35:20Z</time>
      </trkpt>
      <trkpt lat="47.9837" lon="1.91494">
        <ele>130.6</ele>
        <time>2015-09-27T08:35:21Z</time>
      </trkpt>
      <trkpt lat="47.98369" lon="1.91503">
        <ele>130.5</ele>
        <time>2015-09-27T08:35:22Z</time>
      </trkpt>
      <trkpt lat="47.9837" lon="1.9151">
        <ele>130.4</ele>
        <time>2015-09-27T08:35:23Z</time>
      </trkpt>
      <trkpt lat="47.9837" lon="1.9152">
        <ele>130.3</ele>
        <time>2015-09-27T08:35:24Z</time>
      </trkpt>
      <trkpt lat="47.98371" lon="1.91532">
        <ele>130.1</ele>
        <time>2015-09-27T08:35:25Z</time>
      </trkpt>
      <trkpt lat="47.98371" lon="1.91539">
        <ele>130</ele>
        <time>2015-09-27T08:35:26Z</time>
      </trkpt>
      <trkpt lat="47.98371" lon="1.91547">
        <ele>130.1</ele>
        <time>2015-09-27T08:35:27Z</time>
      </trkpt>
      <trkpt lat="47.98372" lon="1.91557">
        <ele>130.2</ele>
        <time>2015-09-27T08:35:28Z</time>
      </trkpt>
      <trkpt lat="47.98371" lon="1.91566">
        <ele>130.3</ele>
        <time>2015-09-27T08:35:29Z</time>
      </trkpt>
      <trkpt lat="47.98371" lon="1.91574">
        <ele>130.4</ele>
        <time>2015-09-27T08:35:30Z</time>
      </trkpt>
      <trkpt lat="47.98372" lon="1.91583">
        <ele>130.5</ele>
        <time>2015-09-27T08:35:31Z</time>
      </trkpt>
      <trkpt lat="47.98372" lon="1.9159">
        <ele>130.6</ele>
        <time>2015-09-27T08:35:32Z</time>
      </trkpt>
      <trkpt lat="47.98373" lon="1.91597">
        <ele>130.7</ele>
        <time>2015-09-27T08:35:33Z</time>
      </trkpt>
      <trkpt lat="47.98373" lon="1.91605">
        <ele>130.7</ele>
        <time>2015-09-27T08:35:34Z</time>
      </trkpt>
      <trkpt lat="47.98373" lon="1.91612">
        <ele>130.8</ele>
        <time>2015-09-27T08:35:35Z</time>
      </trkpt>
      <trkpt lat="47.98374" lon="1.91619">
        <ele>130.9</ele>
        <time>2015-09-27T08:35:36Z</time>
      </trkpt>
      <trkpt lat="47.98375" lon="1.91628">
        <ele>131.1</ele>
        <time>2015-09-27T08:35:37Z</time>
      </trkpt>
      <trkpt lat="47.98376" lon="1.91635">
        <ele>131.3</ele>
        <time>2015-09-27T08:35:38Z</time>
      </trkpt>
      <trkpt lat="47.98376" lon="1.91641">
        <ele>131.4</ele>
        <time>2015-09-27T08:35:39Z</time>
      </trkpt>
      <trkpt lat="47.98376" lon="1.91649">
        <ele>131.6</ele>
        <time>2015-09-27T08:35:40Z</time>
      </trkpt>
      <trkpt lat="47.98377" lon="1.91656">
        <ele>131.8</ele>
        <time>2015-09-27T08:35:42Z</time>
      </trkpt>
      <trkpt lat="47.98377" lon="1.91661">
        <ele>131.9</ele>
        <time>2015-09-27T08:35:43Z</time>
      </trkpt>
      <trkpt lat="47.98375" lon="1.91667">
        <ele>132</ele>
        <time>2015-09-27T08:35:45Z</time>
      </trkpt>
      <trkpt lat="47.98374" lon="1.91672">
        <ele>132.1</ele>
        <time>2015-09-27T08:35:47Z</time>
      </trkpt>
      <trkpt lat="47.9838" lon="1.91669">
        <ele>132.1</ele>
        <time>2015-09-27T08:37:49Z</time>
      </trkpt>
      <trkpt lat="47.98379" lon="1.91682">
        <ele>132.4</ele>
        <time>2015-09-27T08:42:41Z</time>
      </trkpt>
      <trkpt lat="47.98381" lon="1.91689">
        <ele>132.6</ele>
        <time>2015-09-27T08:42:43Z</time>
      </trkpt>
      <trkpt lat="47.98382" lon="1.91693">
        <ele>132.7</ele>
        <time>2015-09-27T08:42:44Z</time>
      </trkpt>
      <trkpt lat="47.98382" lon="1.917">
        <ele>132.9</ele>
        <time>2015-09-27T08:42:46Z</time>
      </trkpt>
      <trkpt lat="47.98382" lon="1.91709">
        <ele>133.1</ele>
        <time>2015-09-27T08:42:48Z</time>
      </trkpt>
      <trkpt lat="47.98382" lon="1.91713">
        <ele>133.1</ele>
        <time>2015-09-27T08:42:49Z</time>
      </trkpt>
      <trkpt lat="47.98381" lon="1.91718">
        <ele>133.1</ele>
        <time>2015-09-27T08:42:50Z</time>
      </trkpt>
      <trkpt lat="47.98381" lon="1.91723">
        <ele>133.1</ele>
        <time>2015-09-27T08:42:51Z</time>
      </trkpt>
      <trkpt lat="47.9838" lon="1.91728">
        <ele>133.1</ele>
        <time>2015-09-27T08:42:52Z</time>
      </trkpt>
      <trkpt lat="47.9838" lon="1.91732">
        <ele>133.1</ele>
        <time>2015-09-27T08:42:53Z</time>
      </trkpt>
      <trkpt lat="47.98379" lon="1.91737">
        <ele>133.1</ele>
        <time>2015-09-27T08:42:54Z</time>
      </trkpt>
      <trkpt lat="47.9838" lon="1.91742">
        <ele>133.1</ele>
        <time>2015-09-27T08:42:55Z</time>
      </trkpt>
      <trkpt lat="47.9838" lon="1.91747">
        <ele>133.1</ele>
        <time>2015-09-27T08:42:56Z</time>
      </trkpt>
      <trkpt lat="47.9838" lon="1.91752">
        <ele>133.1</ele>
        <time>2015-09-27T08:42:57Z</time>
      </trkpt>
      <trkpt lat="47.9838" lon="1.91757">
        <ele>133.1</ele>
        <time>2015-09-27T08:42:58Z</time>
      </trkpt>
      <trkpt lat="47.9838" lon="1.91762">
        <ele>133.1</ele>
        <time>2015-09-27T08:42:59Z</time>
      </trkpt>
      <trkpt lat="47.9838" lon="1.91766">
        <ele>133.1</ele>
        <time>2015-09-27T08:43:00Z</time>
      </trkpt>
      <trkpt lat="47.98379" lon="1.91771">
        <ele>133.1</ele>
        <time>2015-09-27T08:43:01Z</time>
      </trkpt>
      <trkpt lat="47.98379" lon="1.91777">
        <ele>133.1</ele>
        <time>2015-09-27T08:43:02Z</time>
      </trkpt>
      <trkpt lat="47.98378" lon="1.91783">
        <ele>133.1</ele>
        <time>2015-09-27T08:43:03Z</time>
      </trkpt>
      <trkpt lat="47.98377" lon="1.91789">
        <ele>133</ele>
        <time>2015-09-27T08:43:04Z</time>
      </trkpt>
      <trkpt lat="47.98376" lon="1.91795">
        <ele>133</ele>
        <time>2015-09-27T08:43:05Z</time>
      </trkpt>
      <trkpt lat="47.98375" lon="1.91802">
        <ele>133</ele>
        <time>2015-09-27T08:43:06Z</time>
      </trkpt>
      <trkpt lat="47.98375" lon="1.91809">
        <ele>133</ele>
        <time>2015-09-27T08:43:07Z</time>
      </trkpt>
      <trkpt lat="47.98375" lon="1.91817">
        <ele>133</ele>
        <time>2015-09-27T08:43:08Z</time>
      </trkpt>
      <trkpt lat="47.98375" lon="1.91824">
        <ele>133</ele>
        <time>2015-09-27T08:43:09Z</time>
      </trkpt>
      <trkpt lat="47.98375" lon="1.91832">
        <ele>133</ele>
        <time>2015-09-27T08:43:10Z</time>
      </trkpt>
      <trkpt lat="47.98375" lon="1.9184">
        <ele>133</ele>
        <time>2015-09-27T08:43:11Z</time>
      </trkpt>
      <trkpt lat="47.98376" lon="1.91848">
        <ele>133</ele>
        <time>2015-09-27T08:43:12Z</time>
      </trkpt>
      <trkpt lat="47.98377" lon="1.91856">
        <ele>133</ele>
        <time>2015-09-27T08:43:13Z</time>
      </trkpt>
      <trkpt lat="47.98378" lon="1.91864">
        <ele>133</ele>
        <time>2015-09-27T08:43:14Z</time>
      </trkpt>
      <trkpt lat="47.98381" lon="1.91894">
        <ele>132.7</ele>
        <time>2015-09-27T08:43:16Z</time>
      </trkpt>
      <trkpt lat="47.98382" lon="1.91908">
        <ele>132.5</ele>
        <time>2015-09-27T08:43:17Z</time>
      </trkpt>
      <trkpt lat="47.98382" lon="1.91918">
        <ele>132.3</ele>
        <time>2015-09-27T08:43:18Z</time>
      </trkpt>
      <trkpt lat="47.98383" lon="1.91927">
        <ele>132.1</ele>
        <time>2015-09-27T08:43:19Z</time>
      </trkpt>
      <trkpt lat="47.98382" lon="1.91937">
        <ele>132</ele>
        <time>2015-09-27T08:43:20Z</time>
      </trkpt>
      <trkpt lat="47.98382" lon="1.91947">
        <ele>131.9</ele>
        <time>2015-09-27T08:43:21Z</time>
      </trkpt>
      <trkpt lat="47.98382" lon="1.91955">
        <ele>131.7</ele>
        <time>2015-09-27T08:43:22Z</time>
      </trkpt>
      <trkpt lat="47.98383" lon="1.91963">
        <ele>131.5</ele>
        <time>2015-09-27T08:43:23Z</time>
      </trkpt>
      <trkpt lat="47.98385" lon="1.91971">
        <ele>131.2</ele>
        <time>2015-09-27T08:43:24Z</time>
      </trkpt>
      <trkpt lat="47.98384" lon="1.9198">
        <ele>131.1</ele>
        <time>2015-09-27T08:43:25Z</time>
      </trkpt>
      <trkpt lat="47.98385" lon="1.9199">
        <ele>130.8</ele>
        <time>2015-09-27T08:43:26Z</time>
      </trkpt>
      <trkpt lat="47.98385" lon="1.91998">
        <ele>130.6</ele>
        <time>2015-09-27T08:43:27Z</time>
      </trkpt>
      <trkpt lat="47.98386" lon="1.92008">
        <ele>130.3</ele>
        <time>2015-09-27T08:43:28Z</time>
      </trkpt>
      <trkpt lat="47.98389" lon="1.92018">
        <ele>130</ele>
        <time>2015-09-27T08:43:29Z</time>
      </trkpt>
      <trkpt lat="47.98389" lon="1.92027">
        <ele>129.8</ele>
        <time>2015-09-27T08:43:30Z</time>
      </trkpt>
      <trkpt lat="47.98388" lon="1.92036">
        <ele>129.7</ele>
        <time>2015-09-27T08:43:31Z</time>
      </trkpt>
      <trkpt lat="47.98387" lon="1.92044">
        <ele>129.6</ele>
        <time>2015-09-27T08:43:32Z</time>
      </trkpt>
      <trkpt lat="47.98387" lon="1.92052">
        <ele>129.6</ele>
        <time>2015-09-27T08:43:33Z</time>
      </trkpt>
      <trkpt lat="47.98389" lon="1.9206">
        <ele>129.5</ele>
        <time>2015-09-27T08:43:34Z</time>
      </trkpt>
      <trkpt lat="47.98389" lon="1.92069">
        <ele>129.5</ele>
        <time>2015-09-27T08:43:35Z</time>
      </trkpt>
      <trkpt lat="47.9839" lon="1.92077">
        <ele>129.5</ele>
        <time>2015-09-27T08:43:36Z</time>
      </trkpt>
      <trkpt lat="47.98388" lon="1.92086">
        <ele>129.6</ele>
        <time>2015-09-27T08:43:37Z</time>
      </trkpt>
      <trkpt lat="47.98389" lon="1.92095">
        <ele>129.6</ele>
        <time>2015-09-27T08:43:38Z</time>
      </trkpt>
      <trkpt lat="47.98391" lon="1.92103">
        <ele>129.6</ele>
        <time>2015-09-27T08:43:39Z</time>
      </trkpt>
      <trkpt lat="47.98391" lon="1.92111">
        <ele>129.6</ele>
        <time>2015-09-27T08:43:40Z</time>
      </trkpt>
      <trkpt lat="47.98388" lon="1.92119">
        <ele>129.7</ele>
        <time>2015-09-27T08:43:41Z</time>
      </trkpt>
      <trkpt lat="47.98388" lon="1.92128">
        <ele>129.8</ele>
        <time>2015-09-27T08:43:42Z</time>
      </trkpt>
      <trkpt lat="47.98389" lon="1.92138">
        <ele>130</ele>
        <time>2015-09-27T08:43:43Z</time>
      </trkpt>
      <trkpt lat="47.98388" lon="1.92145">
        <ele>130.2</ele>
        <time>2015-09-27T08:43:44Z</time>
      </trkpt>
      <trkpt lat="47.98387" lon="1.92152">
        <ele>130.4</ele>
        <time>2015-09-27T08:43:45Z</time>
      </trkpt>
      <trkpt lat="47.98384" lon="1.92159">
        <ele>130.6</ele>
        <time>2015-09-27T08:43:46Z</time>
      </trkpt>
      <trkpt lat="47.98384" lon="1.92168">
        <ele>130.8</ele>
        <time>2015-09-27T08:43:47Z</time>
      </trkpt>
      <trkpt lat="47.98384" lon="1.92174">
        <ele>131</ele>
        <time>2015-09-27T08:43:48Z</time>
      </trkpt>
      <trkpt lat="47.98384" lon="1.92183">
        <ele>131.2</ele>
        <time>2015-09-27T08:43:49Z</time>
      </trkpt>
      <trkpt lat="47.98385" lon="1.92191">
        <ele>131.3</ele>
        <time>2015-09-27T08:43:50Z</time>
      </trkpt>
      <trkpt lat="47.98389" lon="1.922">
        <ele>131.5</ele>
        <time>2015-09-27T08:43:51Z</time>
      </trkpt>
      <trkpt lat="47.98391" lon="1.92207">
        <ele>131.6</ele>
        <time>2015-09-27T08:43:52Z</time>
      </trkpt>
      <trkpt lat="47.98393" lon="1.92216">
        <ele>131.8</ele>
        <time>2015-09-27T08:43:53Z</time>
      </trkpt>
      <trkpt lat="47.98394" lon="1.92224">
        <ele>132.1</ele>
        <time>2015-09-27T08:43:54Z</time>
      </trkpt>
      <trkpt lat="47.98396" lon="1.92231">
        <ele>132.2</ele>
        <time>2015-09-27T08:43:55Z</time>
      </trkpt>
      <trkpt lat="47.98397" lon="1.92237">
        <ele>132.4</ele>
        <time>2015-09-27T08:43:56Z</time>
      </trkpt>
      <trkpt lat="47.98395" lon="1.92244">
        <ele>132.7</ele>
        <time>2015-09-27T08:43:57Z</time>
      </trkpt>
      <trkpt lat="47.98395" lon="1.92252">
        <ele>133</ele>
        <time>2015-09-27T08:43:58Z</time>
      </trkpt>
      <trkpt lat="47.98398" lon="1.9226">
        <ele>133.1</ele>
        <time>2015-09-27T08:43:59Z</time>
      </trkpt>
      <trkpt lat="47.984" lon="1.92268">
        <ele>133.3</ele>
        <time>2015-09-27T08:44:00Z</time>
      </trkpt>
      <trkpt lat="47.984" lon="1.92273">
        <ele>133.5</ele>
        <time>2015-09-27T08:44:01Z</time>
      </trkpt>
      <trkpt lat="47.984" lon="1.9228">
        <ele>133.7</ele>
        <time>2015-09-27T08:44:02Z</time>
      </trkpt>
      <trkpt lat="47.98399" lon="1.92288">
        <ele>134</ele>
        <time>2015-09-27T08:44:03Z</time>
      </trkpt>
      <trkpt lat="47.98401" lon="1.92294">
        <ele>134.1</ele>
        <time>2015-09-27T08:44:04Z</time>
      </trkpt>
      <trkpt lat="47.98401" lon="1.92301">
        <ele>134</ele>
        <time>2015-09-27T08:44:05Z</time>
      </trkpt>
      <trkpt lat="47.98401" lon="1.92308">
        <ele>133.9</ele>
        <time>2015-09-27T08:44:06Z</time>
      </trkpt>
      <trkpt lat="47.98401" lon="1.92318">
        <ele>133.8</ele>
        <time>2015-09-27T08:44:07Z</time>
      </trkpt>
      <trkpt lat="47.98403" lon="1.92326">
        <ele>133.7</ele>
        <time>2015-09-27T08:44:08Z</time>
      </trkpt>
      <trkpt lat="47.98402" lon="1.92333">
        <ele>133.7</ele>
        <time>2015-09-27T08:44:09Z</time>
      </trkpt>
      <trkpt lat="47.984" lon="1.92339">
        <ele>133.7</ele>
        <time>2015-09-27T08:44:10Z</time>
      </trkpt>
      <trkpt lat="47.98403" lon="1.92348">
        <ele>133.6</ele>
        <time>2015-09-27T08:44:11Z</time>
      </trkpt>
      <trkpt lat="47.98402" lon="1.92354">
        <ele>133.5</ele>
        <time>2015-09-27T08:44:12Z</time>
      </trkpt>
      <trkpt lat="47.98402" lon="1.92363">
        <ele>133.5</ele>
        <time>2015-09-27T08:44:13Z</time>
      </trkpt>
      <trkpt lat="47.98404" lon="1.9237">
        <ele>133.4</ele>
        <time>2015-09-27T08:44:14Z</time>
      </trkpt>
      <trkpt lat="47.98404" lon="1.92375">
        <ele>133.3</ele>
        <time>2015-09-27T08:44:15Z</time>
      </trkpt>
      <trkpt lat="47.98404" lon="1.92383">
        <ele>133.1</ele>
        <time>2015-09-27T08:44:16Z</time>
      </trkpt>
      <trkpt lat="47.98403" lon="1.92389">
        <ele>132.9</ele>
        <time>2015-09-27T08:44:17Z</time>
      </trkpt>
      <trkpt lat="47.98403" lon="1.92395">
        <ele>132.8</ele>
        <time>2015-09-27T08:44:18Z</time>
      </trkpt>
      <trkpt lat="47.98403" lon="1.924">
        <ele>132.6</ele>
        <time>2015-09-27T08:44:19Z</time>
      </trkpt>
      <trkpt lat="47.98403" lon="1.92407">
        <ele>132.4</ele>
        <time>2015-09-27T08:44:20Z</time>
      </trkpt>
      <trkpt lat="47.98403" lon="1.92413">
        <ele>132.3</ele>
        <time>2015-09-27T08:44:21Z</time>
      </trkpt>
      <trkpt lat="47.98403" lon="1.92419">
        <ele>132.1</ele>
        <time>2015-09-27T08:44:22Z</time>
      </trkpt>
      <trkpt lat="47.98403" lon="1.92424">
        <ele>132</ele>
        <time>2015-09-27T08:44:23Z</time>
      </trkpt>
      <trkpt lat="47.98402" lon="1.9243">
        <ele>131.8</ele>
        <time>2015-09-27T08:44:24Z</time>
      </trkpt>
      <trkpt lat="47.98403" lon="1.92437">
        <ele>131.6</ele>
        <time>2015-09-27T08:44:25Z</time>
      </trkpt>
      <trkpt lat="47.98403" lon="1.92444">
        <ele>131.4</ele>
        <time>2015-09-27T08:44:26Z</time>
      </trkpt>
      <trkpt lat="47.98404" lon="1.9245">
        <ele>131.2</ele>
        <time>2015-09-27T08:44:27Z</time>
      </trkpt>
      <trkpt lat="47.98403" lon="1.92458">
        <ele>131</ele>
        <time>2015-09-27T08:44:28Z</time>
      </trkpt>
      <trkpt lat="47.98403" lon="1.92464">
        <ele>130.9</ele>
        <time>2015-09-27T08:44:29Z</time>
      </trkpt>
      <trkpt lat="47.98403" lon="1.92471">
        <ele>130.7</ele>
        <time>2015-09-27T08:44:30Z</time>
      </trkpt>
      <trkpt lat="47.98403" lon="1.92478">
        <ele>130.6</ele>
        <time>2015-09-27T08:44:31Z</time>
      </trkpt>
      <trkpt lat="47.98403" lon="1.92485">
        <ele>130.5</ele>
        <time>2015-09-27T08:44:32Z</time>
      </trkpt>
      <trkpt lat="47.98403" lon="1.92492">
        <ele>130.3</ele>
        <time>2015-09-27T08:44:33Z</time>
      </trkpt>
      <trkpt lat="47.98402" lon="1.92498">
        <ele>130.2</ele>
        <time>2015-09-27T08:44:34Z</time>
      </trkpt>
      <trkpt lat="47.98402" lon="1.92505">
        <ele>130</ele>
        <time>2015-09-27T08:44:35Z</time>
      </trkpt>
      <trkpt lat="47.98401" lon="1.92512">
        <ele>129.9</ele>
        <time>2015-09-27T08:44:36Z</time>
      </trkpt>
      <trkpt lat="47.984" lon="1.92518">
        <ele>129.7</ele>
        <time>2015-09-27T08:44:37Z</time>
      </trkpt>
      <trkpt lat="47.98401" lon="1.92525">
        <ele>129.6</ele>
        <time>2015-09-27T08:44:38Z</time>
      </trkpt>
      <trkpt lat="47.98403" lon="1.92533">
        <ele>129.5</ele>
        <time>2015-09-27T08:44:39Z</time>
      </trkpt>
      <trkpt lat="47.98404" lon="1.9254">
        <ele>129.4</ele>
        <time>2015-09-27T08:44:40Z</time>
      </trkpt>
      <trkpt lat="47.98405" lon="1.92548">
        <ele>129.4</ele>
        <time>2015-09-27T08:44:41Z</time>
      </trkpt>
      <trkpt lat="47.98406" lon="1.92555">
        <ele>129.4</ele>
        <time>2015-09-27T08:44:42Z</time>
      </trkpt>
      <trkpt lat="47.98407" lon="1.92563">
        <ele>129.4</ele>
        <time>2015-09-27T08:44:43Z</time>
      </trkpt>
      <trkpt lat="47.98408" lon="1.92572">
        <ele>129.4</ele>
        <time>2015-09-27T08:44:44Z</time>
      </trkpt>
      <trkpt lat="47.98409" lon="1.9258">
        <ele>129.4</ele>
        <time>2015-09-27T08:44:45Z</time>
      </trkpt>
      <trkpt lat="47.9841" lon="1.92589">
        <ele>129.4</ele>
        <time>2015-09-27T08:44:46Z</time>
      </trkpt>
      <trkpt lat="47.9841" lon="1.92597">
        <ele>129.4</ele>
        <time>2015-09-27T08:44:47Z</time>
      </trkpt>
      <trkpt lat="47.98411" lon="1.92605">
        <ele>129.4</ele>
        <time>2015-09-27T08:44:48Z</time>
      </trkpt>
      <trkpt lat="47.98411" lon="1.92613">
        <ele>129.3</ele>
        <time>2015-09-27T08:44:49Z</time>
      </trkpt>
      <trkpt lat="47.9841" lon="1.92619">
        <ele>129.3</ele>
        <time>2015-09-27T08:44:50Z</time>
      </trkpt>
      <trkpt lat="47.9841" lon="1.92626">
        <ele>129.3</ele>
        <time>2015-09-27T08:44:51Z</time>
      </trkpt>
      <trkpt lat="47.9841" lon="1.92632">
        <ele>129.4</ele>
        <time>2015-09-27T08:44:52Z</time>
      </trkpt>
      <trkpt lat="47.98409" lon="1.92638">
        <ele>129.5</ele>
        <time>2015-09-27T08:44:53Z</time>
      </trkpt>
      <trkpt lat="47.98409" lon="1.92644">
        <ele>129.6</ele>
        <time>2015-09-27T08:44:54Z</time>
      </trkpt>
      <trkpt lat="47.98408" lon="1.92651">
        <ele>129.7</ele>
        <time>2015-09-27T08:44:55Z</time>
      </trkpt>
      <trkpt lat="47.98408" lon="1.92657">
        <ele>129.8</ele>
        <time>2015-09-27T08:44:56Z</time>
      </trkpt>
      <trkpt lat="47.98408" lon="1.92663">
        <ele>129.9</ele>
        <time>2015-09-27T08:44:57Z</time>
      </trkpt>
      <trkpt lat="47.98408" lon="1.9267">
        <ele>130.1</ele>
        <time>2015-09-27T08:44:58Z</time>
      </trkpt>
      <trkpt lat="47.98409" lon="1.92676">
        <ele>130.2</ele>
        <time>2015-09-27T08:44:59Z</time>
      </trkpt>
      <trkpt lat="47.98409" lon="1.92683">
        <ele>130.3</ele>
        <time>2015-09-27T08:45:00Z</time>
      </trkpt>
      <trkpt lat="47.98409" lon="1.92689">
        <ele>130.4</ele>
        <time>2015-09-27T08:45:01Z</time>
      </trkpt>
      <trkpt lat="47.98408" lon="1.92696">
        <ele>130.6</ele>
        <time>2015-09-27T08:45:02Z</time>
      </trkpt>
      <trkpt lat="47.98408" lon="1.92703">
        <ele>130.7</ele>
        <time>2015-09-27T08:45:03Z</time>
      </trkpt>
      <trkpt lat="47.98408" lon="1.9271">
        <ele>130.8</ele>
        <time>2015-09-27T08:45:04Z</time>
      </trkpt>
      <trkpt lat="47.98408" lon="1.92717">
        <ele>130.9</ele>
        <time>2015-09-27T08:45:05Z</time>
      </trkpt>
      <trkpt lat="47.98408" lon="1.92723">
        <ele>131</ele>
        <time>2015-09-27T08:45:06Z</time>
      </trkpt>
      <trkpt lat="47.98407" lon="1.9273">
        <ele>131</ele>
        <time>2015-09-27T08:45:07Z</time>
      </trkpt>
      <trkpt lat="47.98406" lon="1.92736">
        <ele>131.1</ele>
        <time>2015-09-27T08:45:08Z</time>
      </trkpt>
      <trkpt lat="47.98405" lon="1.92743">
        <ele>131.2</ele>
        <time>2015-09-27T08:45:09Z</time>
      </trkpt>
      <trkpt lat="47.98403" lon="1.92749">
        <ele>131.3</ele>
        <time>2015-09-27T08:45:10Z</time>
      </trkpt>
      <trkpt lat="47.98401" lon="1.92755">
        <ele>131.4</ele>
        <time>2015-09-27T08:45:11Z</time>
      </trkpt>
      <trkpt lat="47.984" lon="1.92762">
        <ele>131.6</ele>
        <time>2015-09-27T08:45:12Z</time>
      </trkpt>
      <trkpt lat="47.98399" lon="1.92769">
        <ele>131.7</ele>
        <time>2015-09-27T08:45:13Z</time>
      </trkpt>
      <trkpt lat="47.98399" lon="1.92776">
        <ele>131.8</ele>
        <time>2015-09-27T08:45:14Z</time>
      </trkpt>
      <trkpt lat="47.98399" lon="1.92782">
        <ele>132</ele>
        <time>2015-09-27T08:45:15Z</time>
      </trkpt>
      <trkpt lat="47.98399" lon="1.92789">
        <ele>132.1</ele>
        <time>2015-09-27T08:45:16Z</time>
      </trkpt>
      <trkpt lat="47.98399" lon="1.92796">
        <ele>132.2</ele>
        <time>2015-09-27T08:45:17Z</time>
      </trkpt>
      <trkpt lat="47.98399" lon="1.92803">
        <ele>132.3</ele>
        <time>2015-09-27T08:45:18Z</time>
      </trkpt>
      <trkpt lat="47.98398" lon="1.92809">
        <ele>132.5</ele>
        <time>2015-09-27T08:45:19Z</time>
      </trkpt>
      <trkpt lat="47.98396" lon="1.92816">
        <ele>132.6</ele>
        <time>2015-09-27T08:45:20Z</time>
      </trkpt>
      <trkpt lat="47.98394" lon="1.92823">
        <ele>132.8</ele>
        <time>2015-09-27T08:45:21Z</time>
      </trkpt>
      <trkpt lat="47.98392" lon="1.92829">
        <ele>132.9</ele>
        <time>2015-09-27T08:45:22Z</time>
      </trkpt>
      <trkpt lat="47.98391" lon="1.92836">
        <ele>133.1</ele>
        <time>2015-09-27T08:45:23Z</time>
      </trkpt>
      <trkpt lat="47.98388" lon="1.92843">
        <ele>133.2</ele>
        <time>2015-09-27T08:45:24Z</time>
      </trkpt>
      <trkpt lat="47.98385" lon="1.92848">
        <ele>133.4</ele>
        <time>2015-09-27T08:45:25Z</time>
      </trkpt>
      <trkpt lat="47.98382" lon="1.92854">
        <ele>133.6</ele>
        <time>2015-09-27T08:45:26Z</time>
      </trkpt>
      <trkpt lat="47.98378" lon="1.92859">
        <ele>133.7</ele>
        <time>2015-09-27T08:45:27Z</time>
      </trkpt>
      <trkpt lat="47.98375" lon="1.92864">
        <ele>133.9</ele>
        <time>2015-09-27T08:45:28Z</time>
      </trkpt>
      <trkpt lat="47.98372" lon="1.92869">
        <ele>133.9</ele>
        <time>2015-09-27T08:45:29Z</time>
      </trkpt>
      <trkpt lat="47.9837" lon="1.92875">
        <ele>134</ele>
        <time>2015-09-27T08:45:30Z</time>
      </trkpt>
      <trkpt lat="47.98367" lon="1.9288">
        <ele>133.9</ele>
        <time>2015-09-27T08:45:31Z</time>
      </trkpt>
      <trkpt lat="47.98363" lon="1.92885">
        <ele>133.8</ele>
        <time>2015-09-27T08:45:32Z</time>
      </trkpt>
      <trkpt lat="47.98359" lon="1.9289">
        <ele>133.7</ele>
        <time>2015-09-27T08:45:33Z</time>
      </trkpt>
      <trkpt lat="47.98355" lon="1.92896">
        <ele>133.5</ele>
        <time>2015-09-27T08:45:34Z</time>
      </trkpt>
      <trkpt lat="47.98351" lon="1.92901">
        <ele>133.3</ele>
        <time>2015-09-27T08:45:35Z</time>
      </trkpt>
      <trkpt lat="47.98348" lon="1.92906">
        <ele>133</ele>
        <time>2015-09-27T08:45:36Z</time>
      </trkpt>
      <trkpt lat="47.98344" lon="1.92911">
        <ele>132.8</ele>
        <time>2015-09-27T08:45:37Z</time>
      </trkpt>
      <trkpt lat="47.9834" lon="1.92916">
        <ele>132.5</ele>
        <time>2015-09-27T08:45:38Z</time>
      </trkpt>
      <trkpt lat="47.98337" lon="1.92921">
        <ele>132.2</ele>
        <time>2015-09-27T08:45:39Z</time>
      </trkpt>
      <trkpt lat="47.98334" lon="1.92926">
        <ele>131.9</ele>
        <time>2015-09-27T08:45:40Z</time>
      </trkpt>
      <trkpt lat="47.98331" lon="1.92932">
        <ele>131.5</ele>
        <time>2015-09-27T08:45:41Z</time>
      </trkpt>
      <trkpt lat="47.98327" lon="1.92937">
        <ele>131.1</ele>
        <time>2015-09-27T08:45:42Z</time>
      </trkpt>
      <trkpt lat="47.98324" lon="1.92942">
        <ele>130.7</ele>
        <time>2015-09-27T08:45:43Z</time>
      </trkpt>
      <trkpt lat="47.98321" lon="1.92946">
        <ele>130.4</ele>
        <time>2015-09-27T08:45:44Z</time>
      </trkpt>
      <trkpt lat="47.98318" lon="1.9295">
        <ele>130</ele>
        <time>2015-09-27T08:45:45Z</time>
      </trkpt>
      <trkpt lat="47.98315" lon="1.92953">
        <ele>129.6</ele>
        <time>2015-09-27T08:45:46Z</time>
      </trkpt>
      <trkpt lat="47.98312" lon="1.92958">
        <ele>129.2</ele>
        <time>2015-09-27T08:45:47Z</time>
      </trkpt>
      <trkpt lat="47.98309" lon="1.92963">
        <ele>129</ele>
        <time>2015-09-27T08:45:48Z</time>
      </trkpt>
      <trkpt lat="47.98306" lon="1.92968">
        <ele>128.9</ele>
        <time>2015-09-27T08:45:49Z</time>
      </trkpt>
      <trkpt lat="47.98303" lon="1.92973">
        <ele>128.7</ele>
        <time>2015-09-27T08:45:50Z</time>
      </trkpt>
      <trkpt lat="47.983" lon="1.92978">
        <ele>128.5</ele>
        <time>2015-09-27T08:45:51Z</time>
      </trkpt>
      <trkpt lat="47.98296" lon="1.92984">
        <ele>128.3</ele>
        <time>2015-09-27T08:45:52Z</time>
      </trkpt>
      <trkpt lat="47.98293" lon="1.92989">
        <ele>128.1</ele>
        <time>2015-09-27T08:45:53Z</time>
      </trkpt>
      <trkpt lat="47.9829" lon="1.92994">
        <ele>128.2</ele>
        <time>2015-09-27T08:45:54Z</time>
      </trkpt>
      <trkpt lat="47.98286" lon="1.92999">
        <ele>128.5</ele>
        <time>2015-09-27T08:45:55Z</time>
      </trkpt>
      <trkpt lat="47.98282" lon="1.93004">
        <ele>128.8</ele>
        <time>2015-09-27T08:45:56Z</time>
      </trkpt>
      <trkpt lat="47.98279" lon="1.93009">
        <ele>129</ele>
        <time>2015-09-27T08:45:57Z</time>
      </trkpt>
      <trkpt lat="47.98276" lon="1.93015">
        <ele>129.2</ele>
        <time>2015-09-27T08:45:58Z</time>
      </trkpt>
      <trkpt lat="47.98273" lon="1.9302">
        <ele>129.5</ele>
        <time>2015-09-27T08:45:59Z</time>
      </trkpt>
      <trkpt lat="47.9827" lon="1.93026">
        <ele>129.7</ele>
        <time>2015-09-27T08:46:00Z</time>
      </trkpt>
      <trkpt lat="47.98267" lon="1.93032">
        <ele>129.9</ele>
        <time>2015-09-27T08:46:01Z</time>
      </trkpt>
      <trkpt lat="47.98263" lon="1.93037">
        <ele>130.1</ele>
        <time>2015-09-27T08:46:02Z</time>
      </trkpt>
      <trkpt lat="47.9826" lon="1.93043">
        <ele>130.3</ele>
        <time>2015-09-27T08:46:03Z</time>
      </trkpt>
      <trkpt lat="47.98256" lon="1.93048">
        <ele>130.7</ele>
        <time>2015-09-27T08:46:04Z</time>
      </trkpt>
      <trkpt lat="47.98253" lon="1.93053">
        <ele>131</ele>
        <time>2015-09-27T08:46:05Z</time>
      </trkpt>
      <trkpt lat="47.98249" lon="1.93059">
        <ele>131.3</ele>
        <time>2015-09-27T08:46:06Z</time>
      </trkpt>
      <trkpt lat="47.98246" lon="1.93064">
        <ele>131.6</ele>
        <time>2015-09-27T08:46:07Z</time>
      </trkpt>
      <trkpt lat="47.98243" lon="1.93071">
        <ele>131.8</ele>
        <time>2015-09-27T08:46:08Z</time>
      </trkpt>
      <trkpt lat="47.9824" lon="1.93078">
        <ele>131.9</ele>
        <time>2015-09-27T08:46:09Z</time>
      </trkpt>
      <trkpt lat="47.98237" lon="1.93084">
        <ele>132</ele>
        <time>2015-09-27T08:46:10Z</time>
      </trkpt>
      <trkpt lat="47.98236" lon="1.93093">
        <ele>132</ele>
        <time>2015-09-27T08:46:11Z</time>
      </trkpt>
      <trkpt lat="47.98232" lon="1.93099">
        <ele>132</ele>
        <time>2015-09-27T08:46:12Z</time>
      </trkpt>
      <trkpt lat="47.98229" lon="1.93105">
        <ele>131.9</ele>
        <time>2015-09-27T08:46:13Z</time>
      </trkpt>
      <trkpt lat="47.98225" lon="1.9311">
        <ele>131.8</ele>
        <time>2015-09-27T08:46:14Z</time>
      </trkpt>
      <trkpt lat="47.9822" lon="1.93116">
        <ele>131.6</ele>
        <time>2015-09-27T08:46:15Z</time>
      </trkpt>
      <trkpt lat="47.98216" lon="1.93123">
        <ele>131.3</ele>
        <time>2015-09-27T08:46:16Z</time>
      </trkpt>
      <trkpt lat="47.98212" lon="1.93128">
        <ele>131.1</ele>
        <time>2015-09-27T08:46:17Z</time>
      </trkpt>
      <trkpt lat="47.98207" lon="1.93135">
        <ele>131</ele>
        <time>2015-09-27T08:46:18Z</time>
      </trkpt>
      <trkpt lat="47.98204" lon="1.93141">
        <ele>130.9</ele>
        <time>2015-09-27T08:46:19Z</time>
      </trkpt>
      <trkpt lat="47.982" lon="1.93148">
        <ele>130.8</ele>
        <time>2015-09-27T08:46:20Z</time>
      </trkpt>
      <trkpt lat="47.98197" lon="1.93154">
        <ele>130.8</ele>
        <time>2015-09-27T08:46:21Z</time>
      </trkpt>
      <trkpt lat="47.98195" lon="1.93162">
        <ele>130.7</ele>
        <time>2015-09-27T08:46:22Z</time>
      </trkpt>
      <trkpt lat="47.9819" lon="1.93167">
        <ele>130.6</ele>
        <time>2015-09-27T08:46:23Z</time>
      </trkpt>
      <trkpt lat="47.98186" lon="1.93173">
        <ele>130.4</ele>
        <time>2015-09-27T08:46:24Z</time>
      </trkpt>
      <trkpt lat="47.98183" lon="1.93177">
        <ele>130.3</ele>
        <time>2015-09-27T08:46:25Z</time>
      </trkpt>
      <trkpt lat="47.98179" lon="1.93184">
        <ele>130.1</ele>
        <time>2015-09-27T08:46:26Z</time>
      </trkpt>
      <trkpt lat="47.98175" lon="1.9319">
        <ele>130</ele>
        <time>2015-09-27T08:46:27Z</time>
      </trkpt>
      <trkpt lat="47.98171" lon="1.93194">
        <ele>129.8</ele>
        <time>2015-09-27T08:46:28Z</time>
      </trkpt>
      <trkpt lat="47.98171" lon="1.93204">
        <ele>129.7</ele>
        <time>2015-09-27T08:46:29Z</time>
      </trkpt>
      <trkpt lat="47.98167" lon="1.9321">
        <ele>129.5</ele>
        <time>2015-09-27T08:46:30Z</time>
      </trkpt>
      <trkpt lat="47.98161" lon="1.93217">
        <ele>129.3</ele>
        <time>2015-09-27T08:46:31Z</time>
      </trkpt>
      <trkpt lat="47.98157" lon="1.93222">
        <ele>129.2</ele>
        <time>2015-09-27T08:46:32Z</time>
      </trkpt>
      <trkpt lat="47.98153" lon="1.93229">
        <ele>129.1</ele>
        <time>2015-09-27T08:46:33Z</time>
      </trkpt>
      <trkpt lat="47.9815" lon="1.93235">
        <ele>129</ele>
        <time>2015-09-27T08:46:34Z</time>
      </trkpt>
      <trkpt lat="47.98146" lon="1.9324">
        <ele>128.9</ele>
        <time>2015-09-27T08:46:35Z</time>
      </trkpt>
      <trkpt lat="47.98144" lon="1.93247">
        <ele>128.8</ele>
        <time>2015-09-27T08:46:36Z</time>
      </trkpt>
      <trkpt lat="47.98141" lon="1.93254">
        <ele>128.7</ele>
        <time>2015-09-27T08:46:37Z</time>
      </trkpt>
      <trkpt lat="47.98138" lon="1.93261">
        <ele>128.6</ele>
        <time>2015-09-27T08:46:38Z</time>
      </trkpt>
      <trkpt lat="47.98134" lon="1.93267">
        <ele>128.4</ele>
        <time>2015-09-27T08:46:39Z</time>
      </trkpt>
      <trkpt lat="47.9813" lon="1.93273">
        <ele>128.2</ele>
        <time>2015-09-27T08:46:40Z</time>
      </trkpt>
      <trkpt lat="47.98126" lon="1.93279">
        <ele>128</ele>
        <time>2015-09-27T08:46:41Z</time>
      </trkpt>
      <trkpt lat="47.98123" lon="1.93285">
        <ele>128</ele>
        <time>2015-09-27T08:46:42Z</time>
      </trkpt>
      <trkpt lat="47.98119" lon="1.93292">
        <ele>128.1</ele>
        <time>2015-09-27T08:46:43Z</time>
      </trkpt>
      <trkpt lat="47.98115" lon="1.93298">
        <ele>128.4</ele>
        <time>2015-09-27T08:46:44Z</time>
      </trkpt>
      <trkpt lat="47.98112" lon="1.93304">
        <ele>128.8</ele>
        <time>2015-09-27T08:46:45Z</time>
      </trkpt>
      <trkpt lat="47.98107" lon="1.93309">
        <ele>129.1</ele>
        <time>2015-09-27T08:46:46Z</time>
      </trkpt>
      <trkpt lat="47.98104" lon="1.93317">
        <ele>129.5</ele>
        <time>2015-09-27T08:46:47Z</time>
      </trkpt>
      <trkpt lat="47.981" lon="1.93323">
        <ele>129.8</ele>
        <time>2015-09-27T08:46:48Z</time>
      </trkpt>
      <trkpt lat="47.98095" lon="1.93329">
        <ele>130.1</ele>
        <time>2015-09-27T08:46:49Z</time>
      </trkpt>
      <trkpt lat="47.98093" lon="1.93336">
        <ele>130.5</ele>
        <time>2015-09-27T08:46:50Z</time>
      </trkpt>
      <trkpt lat="47.98091" lon="1.93344">
        <ele>130.9</ele>
        <time>2015-09-27T08:46:51Z</time>
      </trkpt>
      <trkpt lat="47.98086" lon="1.93351">
        <ele>131.3</ele>
        <time>2015-09-27T08:46:52Z</time>
      </trkpt>
      <trkpt lat="47.98084" lon="1.93357">
        <ele>131.6</ele>
        <time>2015-09-27T08:46:53Z</time>
      </trkpt>
      <trkpt lat="47.9808" lon="1.93362">
        <ele>131.9</ele>
        <time>2015-09-27T08:46:54Z</time>
      </trkpt>
      <trkpt lat="47.98077" lon="1.93367">
        <ele>132.2</ele>
        <time>2015-09-27T08:46:55Z</time>
      </trkpt>
      <trkpt lat="47.98073" lon="1.93371">
        <ele>132.4</ele>
        <time>2015-09-27T08:46:56Z</time>
      </trkpt>
      <trkpt lat="47.98071" lon="1.93377">
        <ele>132.7</ele>
        <time>2015-09-27T08:46:57Z</time>
      </trkpt>
      <trkpt lat="47.98069" lon="1.93382">
        <ele>132.8</ele>
        <time>2015-09-27T08:46:58Z</time>
      </trkpt>
      <trkpt lat="47.98065" lon="1.93387">
        <ele>133</ele>
        <time>2015-09-27T08:46:59Z</time>
      </trkpt>
      <trkpt lat="47.98063" lon="1.93391">
        <ele>133.1</ele>
        <time>2015-09-27T08:47:00Z</time>
      </trkpt>
      <trkpt lat="47.98063" lon="1.93397">
        <ele>133.2</ele>
        <time>2015-09-27T08:47:01Z</time>
      </trkpt>
      <trkpt lat="47.9806" lon="1.93402">
        <ele>133.4</ele>
        <time>2015-09-27T08:47:03Z</time>
      </trkpt>
      <trkpt lat="47.98057" lon="1.93405">
        <ele>133.5</ele>
        <time>2015-09-27T08:47:05Z</time>
      </trkpt>
      <trkpt lat="47.98054" lon="1.93407">
        <ele>133.6</ele>
        <time>2015-09-27T08:47:07Z</time>
      </trkpt>
      <trkpt lat="47.98051" lon="1.93409">
        <ele>133.6</ele>
        <time>2015-09-27T08:47:10Z</time>
      </trkpt>
      <trkpt lat="47.98048" lon="1.93411">
        <ele>133.7</ele>
        <time>2015-09-27T08:47:13Z</time>
      </trkpt>
      <trkpt lat="47.98047" lon="1.93415">
        <ele>133.9</ele>
        <time>2015-09-27T08:47:15Z</time>
      </trkpt>
      <trkpt lat="47.98046" lon="1.9342">
        <ele>134</ele>
        <time>2015-09-27T08:47:17Z</time>
      </trkpt>
      <trkpt lat="47.98043" lon="1.93427">
        <ele>134.2</ele>
        <time>2015-09-27T08:47:19Z</time>
      </trkpt>
      <trkpt lat="47.98041" lon="1.93431">
        <ele>134.3</ele>
        <time>2015-09-27T08:47:20Z</time>
      </trkpt>
      <trkpt lat="47.98039" lon="1.93434">
        <ele>134.4</ele>
        <time>2015-09-27T08:47:21Z</time>
      </trkpt>
      <trkpt lat="47.98036" lon="1.93438">
        <ele>134.5</ele>
        <time>2015-09-27T08:47:22Z</time>
      </trkpt>
      <trkpt lat="47.98034" lon="1.93443">
        <ele>134.5</ele>
        <time>2015-09-27T08:47:23Z</time>
      </trkpt>
      <trkpt lat="47.9803" lon="1.93448">
        <ele>134.6</ele>
        <time>2015-09-27T08:47:24Z</time>
      </trkpt>
      <trkpt lat="47.98025" lon="1.93455">
        <ele>134.7</ele>
        <time>2015-09-27T08:47:25Z</time>
      </trkpt>
      <trkpt lat="47.9802" lon="1.93461">
        <ele>134.7</ele>
        <time>2015-09-27T08:47:26Z</time>
      </trkpt>
      <trkpt lat="47.98018" lon="1.93469">
        <ele>134.6</ele>
        <time>2015-09-27T08:47:27Z</time>
      </trkpt>
      <trkpt lat="47.98014" lon="1.93476">
        <ele>134.5</ele>
        <time>2015-09-27T08:47:28Z</time>
      </trkpt>
      <trkpt lat="47.98013" lon="1.93483">
        <ele>134.4</ele>
        <time>2015-09-27T08:47:29Z</time>
      </trkpt>
      <trkpt lat="47.98008" lon="1.93489">
        <ele>134.2</ele>
        <time>2015-09-27T08:47:30Z</time>
      </trkpt>
      <trkpt lat="47.98003" lon="1.93494">
        <ele>134.1</ele>
        <time>2015-09-27T08:47:31Z</time>
      </trkpt>
      <trkpt lat="47.98" lon="1.93502">
        <ele>134</ele>
        <time>2015-09-27T08:47:32Z</time>
      </trkpt>
      <trkpt lat="47.97996" lon="1.93509">
        <ele>133.8</ele>
        <time>2015-09-27T08:47:33Z</time>
      </trkpt>
      <trkpt lat="47.97992" lon="1.93514">
        <ele>133.7</ele>
        <time>2015-09-27T08:47:34Z</time>
      </trkpt>
      <trkpt lat="47.97988" lon="1.93521">
        <ele>133.6</ele>
        <time>2015-09-27T08:47:35Z</time>
      </trkpt>
      <trkpt lat="47.97985" lon="1.93526">
        <ele>133.5</ele>
        <time>2015-09-27T08:47:36Z</time>
      </trkpt>
      <trkpt lat="47.97981" lon="1.93533">
        <ele>133.4</ele>
        <time>2015-09-27T08:47:37Z</time>
      </trkpt>
      <trkpt lat="47.97977" lon="1.9354">
        <ele>133.2</ele>
        <time>2015-09-27T08:47:38Z</time>
      </trkpt>
      <trkpt lat="47.97973" lon="1.93546">
        <ele>133.1</ele>
        <time>2015-09-27T08:47:39Z</time>
      </trkpt>
      <trkpt lat="47.97968" lon="1.93554">
        <ele>132.9</ele>
        <time>2015-09-27T08:47:40Z</time>
      </trkpt>
      <trkpt lat="47.97965" lon="1.9356">
        <ele>132.8</ele>
        <time>2015-09-27T08:47:41Z</time>
      </trkpt>
      <trkpt lat="47.97961" lon="1.93566">
        <ele>132.7</ele>
        <time>2015-09-27T08:47:42Z</time>
      </trkpt>
      <trkpt lat="47.97958" lon="1.93574">
        <ele>132.6</ele>
        <time>2015-09-27T08:47:43Z</time>
      </trkpt>
      <trkpt lat="47.97954" lon="1.93582">
        <ele>132.6</ele>
        <time>2015-09-27T08:47:44Z</time>
      </trkpt>
      <trkpt lat="47.9795" lon="1.93589">
        <ele>132.6</ele>
        <time>2015-09-27T08:47:45Z</time>
      </trkpt>
      <trkpt lat="47.97946" lon="1.93596">
        <ele>132.7</ele>
        <time>2015-09-27T08:47:46Z</time>
      </trkpt>
      <trkpt lat="47.97943" lon="1.93603">
        <ele>132.7</ele>
        <time>2015-09-27T08:47:47Z</time>
      </trkpt>
      <trkpt lat="47.97938" lon="1.93608">
        <ele>132.8</ele>
        <time>2015-09-27T08:47:48Z</time>
      </trkpt>
      <trkpt lat="47.97935" lon="1.93614">
        <ele>132.9</ele>
        <time>2015-09-27T08:47:49Z</time>
      </trkpt>
      <trkpt lat="47.97932" lon="1.93621">
        <ele>133</ele>
        <time>2015-09-27T08:47:50Z</time>
      </trkpt>
      <trkpt lat="47.97929" lon="1.93628">
        <ele>133.1</ele>
        <time>2015-09-27T08:47:51Z</time>
      </trkpt>
      <trkpt lat="47.97925" lon="1.93635">
        <ele>133.2</ele>
        <time>2015-09-27T08:47:52Z</time>
      </trkpt>
      <trkpt lat="47.97921" lon="1.93642">
        <ele>133.3</ele>
        <time>2015-09-27T08:47:53Z</time>
      </trkpt>
      <trkpt lat="47.97917" lon="1.93649">
        <ele>133.5</ele>
        <time>2015-09-27T08:47:54Z</time>
      </trkpt>
      <trkpt lat="47.97913" lon="1.93655">
        <ele>133.7</ele>
        <time>2015-09-27T08:47:55Z</time>
      </trkpt>
      <trkpt lat="47.97909" lon="1.93662">
        <ele>133.9</ele>
        <time>2015-09-27T08:47:56Z</time>
      </trkpt>
      <trkpt lat="47.97905" lon="1.93668">
        <ele>134</ele>
        <time>2015-09-27T08:47:57Z</time>
      </trkpt>
      <trkpt lat="47.97901" lon="1.93674">
        <ele>134.3</ele>
        <time>2015-09-27T08:47:58Z</time>
      </trkpt>
      <trkpt lat="47.97898" lon="1.9368">
        <ele>134.5</ele>
        <time>2015-09-27T08:47:59Z</time>
      </trkpt>
      <trkpt lat="47.97894" lon="1.93687">
        <ele>134.7</ele>
        <time>2015-09-27T08:48:00Z</time>
      </trkpt>
      <trkpt lat="47.97891" lon="1.93693">
        <ele>134.9</ele>
        <time>2015-09-27T08:48:01Z</time>
      </trkpt>
      <trkpt lat="47.97888" lon="1.93699">
        <ele>135.2</ele>
        <time>2015-09-27T08:48:02Z</time>
      </trkpt>
      <trkpt lat="47.97884" lon="1.93707">
        <ele>135.4</ele>
        <time>2015-09-27T08:48:03Z</time>
      </trkpt>
      <trkpt lat="47.97881" lon="1.93714">
        <ele>135.6</ele>
        <time>2015-09-27T08:48:04Z</time>
      </trkpt>
      <trkpt lat="47.97877" lon="1.93721">
        <ele>135.7</ele>
        <time>2015-09-27T08:48:05Z</time>
      </trkpt>
      <trkpt lat="47.97872" lon="1.93726">
        <ele>135.8</ele>
        <time>2015-09-27T08:48:06Z</time>
      </trkpt>
      <trkpt lat="47.97867" lon="1.93732">
        <ele>135.7</ele>
        <time>2015-09-27T08:48:07Z</time>
      </trkpt>
      <trkpt lat="47.97864" lon="1.93739">
        <ele>135.6</ele>
        <time>2015-09-27T08:48:08Z</time>
      </trkpt>
      <trkpt lat="47.97863" lon="1.93748">
        <ele>135.6</ele>
        <time>2015-09-27T08:48:09Z</time>
      </trkpt>
      <trkpt lat="47.9786" lon="1.93755">
        <ele>135.6</ele>
        <time>2015-09-27T08:48:10Z</time>
      </trkpt>
      <trkpt lat="47.97857" lon="1.93764">
        <ele>135.6</ele>
        <time>2015-09-27T08:48:11Z</time>
      </trkpt>
      <trkpt lat="47.97854" lon="1.93771">
        <ele>135.6</ele>
        <time>2015-09-27T08:48:12Z</time>
      </trkpt>
      <trkpt lat="47.9785" lon="1.93776">
        <ele>135.6</ele>
        <time>2015-09-27T08:48:13Z</time>
      </trkpt>
      <trkpt lat="47.97847" lon="1.93782">
        <ele>135.7</ele>
        <time>2015-09-27T08:48:14Z</time>
      </trkpt>
      <trkpt lat="47.97843" lon="1.93789">
        <ele>135.8</ele>
        <time>2015-09-27T08:48:15Z</time>
      </trkpt>
      <trkpt lat="47.9784" lon="1.93794">
        <ele>135.8</ele>
        <time>2015-09-27T08:48:16Z</time>
      </trkpt>
      <trkpt lat="47.97834" lon="1.93799">
        <ele>135.9</ele>
        <time>2015-09-27T08:48:17Z</time>
      </trkpt>
      <trkpt lat="47.97829" lon="1.93804">
        <ele>136</ele>
        <time>2015-09-27T08:48:18Z</time>
      </trkpt>
      <trkpt lat="47.97828" lon="1.93813">
        <ele>135.9</ele>
        <time>2015-09-27T08:48:19Z</time>
      </trkpt>
      <trkpt lat="47.97826" lon="1.9382">
        <ele>135.8</ele>
        <time>2015-09-27T08:48:20Z</time>
      </trkpt>
      <trkpt lat="47.97822" lon="1.93825">
        <ele>135.9</ele>
        <time>2015-09-27T08:48:21Z</time>
      </trkpt>
      <trkpt lat="47.97814" lon="1.93826">
        <ele>136</ele>
        <time>2015-09-27T08:48:22Z</time>
      </trkpt>
      <trkpt lat="47.97812" lon="1.93834">
        <ele>136</ele>
        <time>2015-09-27T08:48:23Z</time>
      </trkpt>
      <trkpt lat="47.97808" lon="1.93838">
        <ele>136.1</ele>
        <time>2015-09-27T08:48:24Z</time>
      </trkpt>
      <trkpt lat="47.97808" lon="1.93851">
        <ele>135.9</ele>
        <time>2015-09-27T08:48:25Z</time>
      </trkpt>
      <trkpt lat="47.97803" lon="1.93855">
        <ele>136</ele>
        <time>2015-09-27T08:48:26Z</time>
      </trkpt>
      <trkpt lat="47.97801" lon="1.93862">
        <ele>135.9</ele>
        <time>2015-09-27T08:48:27Z</time>
      </trkpt>
      <trkpt lat="47.97797" lon="1.93867">
        <ele>136</ele>
        <time>2015-09-27T08:48:28Z</time>
      </trkpt>
      <trkpt lat="47.97792" lon="1.9387">
        <ele>136</ele>
        <time>2015-09-27T08:48:29Z</time>
      </trkpt>
      <trkpt lat="47.97789" lon="1.93875">
        <ele>136</ele>
        <time>2015-09-27T08:48:30Z</time>
      </trkpt>
      <trkpt lat="47.97786" lon="1.93879">
        <ele>135.9</ele>
        <time>2015-09-27T08:48:31Z</time>
      </trkpt>
      <trkpt lat="47.97784" lon="1.93886">
        <ele>135.8</ele>
        <time>2015-09-27T08:48:32Z</time>
      </trkpt>
      <trkpt lat="47.97781" lon="1.93892">
        <ele>135.6</ele>
        <time>2015-09-27T08:48:33Z</time>
      </trkpt>
      <trkpt lat="47.97777" lon="1.93898">
        <ele>135.5</ele>
        <time>2015-09-27T08:48:34Z</time>
      </trkpt>
      <trkpt lat="47.97774" lon="1.93904">
        <ele>135.5</ele>
        <time>2015-09-27T08:48:35Z</time>
      </trkpt>
      <trkpt lat="47.97771" lon="1.93909">
        <ele>135.4</ele>
        <time>2015-09-27T08:48:36Z</time>
      </trkpt>
      <trkpt lat="47.97766" lon="1.93915">
        <ele>135.3</ele>
        <time>2015-09-27T08:48:37Z</time>
      </trkpt>
      <trkpt lat="47.97764" lon="1.93921">
        <ele>135.3</ele>
        <time>2015-09-27T08:48:38Z</time>
      </trkpt>
      <trkpt lat="47.97761" lon="1.93926">
        <ele>135.2</ele>
        <time>2015-09-27T08:48:39Z</time>
      </trkpt>
      <trkpt lat="47.97756" lon="1.93932">
        <ele>135.2</ele>
        <time>2015-09-27T08:48:40Z</time>
      </trkpt>
      <trkpt lat="47.97752" lon="1.93937">
        <ele>135.2</ele>
        <time>2015-09-27T08:48:41Z</time>
      </trkpt>
      <trkpt lat="47.97749" lon="1.93944">
        <ele>135.2</ele>
        <time>2015-09-27T08:48:42Z</time>
      </trkpt>
      <trkpt lat="47.97745" lon="1.9395">
        <ele>135.2</ele>
        <time>2015-09-27T08:48:43Z</time>
      </trkpt>
      <trkpt lat="47.97742" lon="1.93956">
        <ele>135.2</ele>
        <time>2015-09-27T08:48:44Z</time>
      </trkpt>
      <trkpt lat="47.97738" lon="1.93962">
        <ele>135.3</ele>
        <time>2015-09-27T08:48:45Z</time>
      </trkpt>
      <trkpt lat="47.97734" lon="1.93966">
        <ele>135.3</ele>
        <time>2015-09-27T08:48:46Z</time>
      </trkpt>
      <trkpt lat="47.97729" lon="1.93972">
        <ele>135.3</ele>
        <time>2015-09-27T08:48:47Z</time>
      </trkpt>
      <trkpt lat="47.97726" lon="1.93978">
        <ele>135.3</ele>
        <time>2015-09-27T08:48:48Z</time>
      </trkpt>
      <trkpt lat="47.97724" lon="1.93985">
        <ele>135.3</ele>
        <time>2015-09-27T08:48:49Z</time>
      </trkpt>
      <trkpt lat="47.97722" lon="1.93991">
        <ele>135.3</ele>
        <time>2015-09-27T08:48:50Z</time>
      </trkpt>
      <trkpt lat="47.97718" lon="1.93997">
        <ele>135.3</ele>
        <time>2015-09-27T08:48:51Z</time>
      </trkpt>
      <trkpt lat="47.97714" lon="1.94002">
        <ele>135.3</ele>
        <time>2015-09-27T08:48:52Z</time>
      </trkpt>
      <trkpt lat="47.97711" lon="1.94008">
        <ele>135.3</ele>
        <time>2015-09-27T08:48:53Z</time>
      </trkpt>
      <trkpt lat="47.97707" lon="1.94014">
        <ele>135.3</ele>
        <time>2015-09-27T08:48:54Z</time>
      </trkpt>
      <trkpt lat="47.97704" lon="1.9402">
        <ele>135.3</ele>
        <time>2015-09-27T08:48:55Z</time>
      </trkpt>
      <trkpt lat="47.97701" lon="1.94025">
        <ele>135.3</ele>
        <time>2015-09-27T08:48:56Z</time>
      </trkpt>
      <trkpt lat="47.97699" lon="1.9403">
        <ele>135.2</ele>
        <time>2015-09-27T08:48:57Z</time>
      </trkpt>
      <trkpt lat="47.97696" lon="1.94037">
        <ele>135.2</ele>
        <time>2015-09-27T08:48:58Z</time>
      </trkpt>
      <trkpt lat="47.97694" lon="1.94043">
        <ele>135.2</ele>
        <time>2015-09-27T08:48:59Z</time>
      </trkpt>
      <trkpt lat="47.97691" lon="1.94048">
        <ele>135.2</ele>
        <time>2015-09-27T08:49:00Z</time>
      </trkpt>
      <trkpt lat="47.97687" lon="1.94052">
        <ele>135.3</ele>
        <time>2015-09-27T08:49:01Z</time>
      </trkpt>
      <trkpt lat="47.97684" lon="1.94058">
        <ele>135.3</ele>
        <time>2015-09-27T08:49:02Z</time>
      </trkpt>
      <trkpt lat="47.97681" lon="1.94063">
        <ele>135.3</ele>
        <time>2015-09-27T08:49:03Z</time>
      </trkpt>
      <trkpt lat="47.97678" lon="1.94069">
        <ele>135.4</ele>
        <time>2015-09-27T08:49:04Z</time>
      </trkpt>
      <trkpt lat="47.97677" lon="1.94073">
        <ele>135.4</ele>
        <time>2015-09-27T08:49:05Z</time>
      </trkpt>
      <trkpt lat="47.97674" lon="1.94079">
        <ele>135.4</ele>
        <time>2015-09-27T08:49:06Z</time>
      </trkpt>
      <trkpt lat="47.97671" lon="1.94083">
        <ele>135.4</ele>
        <time>2015-09-27T08:49:07Z</time>
      </trkpt>
      <trkpt lat="47.97667" lon="1.94088">
        <ele>135.5</ele>
        <time>2015-09-27T08:49:08Z</time>
      </trkpt>
      <trkpt lat="47.97663" lon="1.94091">
        <ele>135.5</ele>
        <time>2015-09-27T08:49:09Z</time>
      </trkpt>
      <trkpt lat="47.97662" lon="1.94098">
        <ele>135.6</ele>
        <time>2015-09-27T08:49:10Z</time>
      </trkpt>
      <trkpt lat="47.97658" lon="1.94101">
        <ele>135.6</ele>
        <time>2015-09-27T08:49:11Z</time>
      </trkpt>
      <trkpt lat="47.97654" lon="1.94103">
        <ele>135.7</ele>
        <time>2015-09-27T08:49:12Z</time>
      </trkpt>
      <trkpt lat="47.97652" lon="1.9411">
        <ele>135.7</ele>
        <time>2015-09-27T08:49:13Z</time>
      </trkpt>
      <trkpt lat="47.9765" lon="1.94115">
        <ele>135.7</ele>
        <time>2015-09-27T08:49:14Z</time>
      </trkpt>
      <trkpt lat="47.97647" lon="1.94121">
        <ele>135.7</ele>
        <time>2015-09-27T08:49:15Z</time>
      </trkpt>
      <trkpt lat="47.97645" lon="1.94127">
        <ele>135.7</ele>
        <time>2015-09-27T08:49:16Z</time>
      </trkpt>
      <trkpt lat="47.97643" lon="1.94136">
        <ele>135.7</ele>
        <time>2015-09-27T08:49:17Z</time>
      </trkpt>
      <trkpt lat="47.97641" lon="1.94141">
        <ele>135.7</ele>
        <time>2015-09-27T08:49:18Z</time>
      </trkpt>
      <trkpt lat="47.97639" lon="1.94148">
        <ele>135.6</ele>
        <time>2015-09-27T08:49:19Z</time>
      </trkpt>
      <trkpt lat="47.97637" lon="1.94155">
        <ele>135.5</ele>
        <time>2015-09-27T08:49:20Z</time>
      </trkpt>
      <trkpt lat="47.97634" lon="1.94161">
        <ele>135.5</ele>
        <time>2015-09-27T08:49:21Z</time>
      </trkpt>
      <trkpt lat="47.9763" lon="1.94168">
        <ele>135.5</ele>
        <time>2015-09-27T08:49:22Z</time>
      </trkpt>
      <trkpt lat="47.97626" lon="1.94172">
        <ele>135.4</ele>
        <time>2015-09-27T08:49:23Z</time>
      </trkpt>
      <trkpt lat="47.97623" lon="1.94179">
        <ele>135.3</ele>
        <time>2015-09-27T08:49:24Z</time>
      </trkpt>
      <trkpt lat="47.97617" lon="1.94183">
        <ele>135.2</ele>
        <time>2015-09-27T08:49:25Z</time>
      </trkpt>
      <trkpt lat="47.97614" lon="1.94188">
        <ele>135.1</ele>
        <time>2015-09-27T08:49:26Z</time>
      </trkpt>
      <trkpt lat="47.97611" lon="1.94195">
        <ele>135</ele>
        <time>2015-09-27T08:49:27Z</time>
      </trkpt>
      <trkpt lat="47.97609" lon="1.94203">
        <ele>134.9</ele>
        <time>2015-09-27T08:49:28Z</time>
      </trkpt>
      <trkpt lat="47.97605" lon="1.94207">
        <ele>134.8</ele>
        <time>2015-09-27T08:49:29Z</time>
      </trkpt>
      <trkpt lat="47.97602" lon="1.94212">
        <ele>134.6</ele>
        <time>2015-09-27T08:49:30Z</time>
      </trkpt>
      <trkpt lat="47.97598" lon="1.94218">
        <ele>134.5</ele>
        <time>2015-09-27T08:49:31Z</time>
      </trkpt>
      <trkpt lat="47.97594" lon="1.94223">
        <ele>134.3</ele>
        <time>2015-09-27T08:49:32Z</time>
      </trkpt>
      <trkpt lat="47.9759" lon="1.94229">
        <ele>134.2</ele>
        <time>2015-09-27T08:49:33Z</time>
      </trkpt>
      <trkpt lat="47.97586" lon="1.94234">
        <ele>134.1</ele>
        <time>2015-09-27T08:49:34Z</time>
      </trkpt>
      <trkpt lat="47.97583" lon="1.94239">
        <ele>133.9</ele>
        <time>2015-09-27T08:49:35Z</time>
      </trkpt>
      <trkpt lat="47.97579" lon="1.94244">
        <ele>133.8</ele>
        <time>2015-09-27T08:49:36Z</time>
      </trkpt>
      <trkpt lat="47.97576" lon="1.94248">
        <ele>133.7</ele>
        <time>2015-09-27T08:49:37Z</time>
      </trkpt>
      <trkpt lat="47.97572" lon="1.94252">
        <ele>133.6</ele>
        <time>2015-09-27T08:49:38Z</time>
      </trkpt>
      <trkpt lat="47.97569" lon="1.94258">
        <ele>133.5</ele>
        <time>2015-09-27T08:49:39Z</time>
      </trkpt>
      <trkpt lat="47.97567" lon="1.94263">
        <ele>133.4</ele>
        <time>2015-09-27T08:49:40Z</time>
      </trkpt>
      <trkpt lat="47.97563" lon="1.94269">
        <ele>133.3</ele>
        <time>2015-09-27T08:49:41Z</time>
      </trkpt>
      <trkpt lat="47.9756" lon="1.94273">
        <ele>133.3</ele>
        <time>2015-09-27T08:49:42Z</time>
      </trkpt>
      <trkpt lat="47.97556" lon="1.94279">
        <ele>133.2</ele>
        <time>2015-09-27T08:49:43Z</time>
      </trkpt>
      <trkpt lat="47.97553" lon="1.94284">
        <ele>133.1</ele>
        <time>2015-09-27T08:49:44Z</time>
      </trkpt>
      <trkpt lat="47.9755" lon="1.94289">
        <ele>133</ele>
        <time>2015-09-27T08:49:45Z</time>
      </trkpt>
      <trkpt lat="47.97546" lon="1.94294">
        <ele>133</ele>
        <time>2015-09-27T08:49:46Z</time>
      </trkpt>
      <trkpt lat="47.97543" lon="1.94299">
        <ele>133</ele>
        <time>2015-09-27T08:49:47Z</time>
      </trkpt>
      <trkpt lat="47.97539" lon="1.94305">
        <ele>132.9</ele>
        <time>2015-09-27T08:49:48Z</time>
      </trkpt>
      <trkpt lat="47.97536" lon="1.94312">
        <ele>132.9</ele>
        <time>2015-09-27T08:49:49Z</time>
      </trkpt>
      <trkpt lat="47.97534" lon="1.94319">
        <ele>132.8</ele>
        <time>2015-09-27T08:49:50Z</time>
      </trkpt>
      <trkpt lat="47.97531" lon="1.94325">
        <ele>132.7</ele>
        <time>2015-09-27T08:49:51Z</time>
      </trkpt>
      <trkpt lat="47.97528" lon="1.94331">
        <ele>132.7</ele>
        <time>2015-09-27T08:49:52Z</time>
      </trkpt>
      <trkpt lat="47.97524" lon="1.94336">
        <ele>132.6</ele>
        <time>2015-09-27T08:49:53Z</time>
      </trkpt>
      <trkpt lat="47.97521" lon="1.94341">
        <ele>132.5</ele>
        <time>2015-09-27T08:49:54Z</time>
      </trkpt>
      <trkpt lat="47.97518" lon="1.94346">
        <ele>132.4</ele>
        <time>2015-09-27T08:49:55Z</time>
      </trkpt>
      <trkpt lat="47.97515" lon="1.94351">
        <ele>132.4</ele>
        <time>2015-09-27T08:49:56Z</time>
      </trkpt>
      <trkpt lat="47.97511" lon="1.94356">
        <ele>132.3</ele>
        <time>2015-09-27T08:49:57Z</time>
      </trkpt>
      <trkpt lat="47.97508" lon="1.94361">
        <ele>132.2</ele>
        <time>2015-09-27T08:49:58Z</time>
      </trkpt>
      <trkpt lat="47.97505" lon="1.94366">
        <ele>132.1</ele>
        <time>2015-09-27T08:49:59Z</time>
      </trkpt>
      <trkpt lat="47.97502" lon="1.94371">
        <ele>132</ele>
        <time>2015-09-27T08:50:00Z</time>
      </trkpt>
      <trkpt lat="47.97498" lon="1.94376">
        <ele>132</ele>
        <time>2015-09-27T08:50:01Z</time>
      </trkpt>
      <trkpt lat="47.97495" lon="1.94381">
        <ele>131.9</ele>
        <time>2015-09-27T08:50:02Z</time>
      </trkpt>
      <trkpt lat="47.97492" lon="1.94386">
        <ele>131.9</ele>
        <time>2015-09-27T08:50:03Z</time>
      </trkpt>
      <trkpt lat="47.97489" lon="1.94392">
        <ele>131.8</ele>
        <time>2015-09-27T08:50:04Z</time>
      </trkpt>
      <trkpt lat="47.97486" lon="1.94397">
        <ele>131.8</ele>
        <time>2015-09-27T08:50:05Z</time>
      </trkpt>
      <trkpt lat="47.97483" lon="1.94403">
        <ele>131.7</ele>
        <time>2015-09-27T08:50:06Z</time>
      </trkpt>
      <trkpt lat="47.97481" lon="1.94409">
        <ele>131.6</ele>
        <time>2015-09-27T08:50:07Z</time>
      </trkpt>
      <trkpt lat="47.97478" lon="1.94414">
        <ele>131.6</ele>
        <time>2015-09-27T08:50:08Z</time>
      </trkpt>
      <trkpt lat="47.97474" lon="1.94419">
        <ele>131.5</ele>
        <time>2015-09-27T08:50:09Z</time>
      </trkpt>
      <trkpt lat="47.97472" lon="1.94424">
        <ele>131.4</ele>
        <time>2015-09-27T08:50:10Z</time>
      </trkpt>
      <trkpt lat="47.97469" lon="1.94429">
        <ele>131.3</ele>
        <time>2015-09-27T08:50:11Z</time>
      </trkpt>
      <trkpt lat="47.97466" lon="1.94435">
        <ele>131.3</ele>
        <time>2015-09-27T08:50:12Z</time>
      </trkpt>
      <trkpt lat="47.97464" lon="1.94441">
        <ele>131.2</ele>
        <time>2015-09-27T08:50:13Z</time>
      </trkpt>
      <trkpt lat="47.97462" lon="1.94448">
        <ele>131.1</ele>
        <time>2015-09-27T08:50:14Z</time>
      </trkpt>
      <trkpt lat="47.97459" lon="1.94453">
        <ele>131</ele>
        <time>2015-09-27T08:50:15Z</time>
      </trkpt>
      <trkpt lat="47.97456" lon="1.94458">
        <ele>131.1</ele>
        <time>2015-09-27T08:50:16Z</time>
      </trkpt>
      <trkpt lat="47.97452" lon="1.94463">
        <ele>131.3</ele>
        <time>2015-09-27T08:50:17Z</time>
      </trkpt>
      <trkpt lat="47.97449" lon="1.94467">
        <ele>131.5</ele>
        <time>2015-09-27T08:50:18Z</time>
      </trkpt>
      <trkpt lat="47.97445" lon="1.94471">
        <ele>131.6</ele>
        <time>2015-09-27T08:50:19Z</time>
      </trkpt>
      <trkpt lat="47.97442" lon="1.94475">
        <ele>131.8</ele>
        <time>2015-09-27T08:50:20Z</time>
      </trkpt>
      <trkpt lat="47.97438" lon="1.94479">
        <ele>132</ele>
        <time>2015-09-27T08:50:21Z</time>
      </trkpt>
      <trkpt lat="47.97435" lon="1.94484">
        <ele>132.2</ele>
        <time>2015-09-27T08:50:22Z</time>
      </trkpt>
      <trkpt lat="47.97433" lon="1.9449">
        <ele>132.4</ele>
        <time>2015-09-27T08:50:23Z</time>
      </trkpt>
      <trkpt lat="47.9743" lon="1.94496">
        <ele>132.6</ele>
        <time>2015-09-27T08:50:24Z</time>
      </trkpt>
      <trkpt lat="47.97427" lon="1.94501">
        <ele>132.8</ele>
        <time>2015-09-27T08:50:25Z</time>
      </trkpt>
      <trkpt lat="47.97423" lon="1.94506">
        <ele>133</ele>
        <time>2015-09-27T08:50:26Z</time>
      </trkpt>
      <trkpt lat="47.9742" lon="1.94512">
        <ele>133.2</ele>
        <time>2015-09-27T08:50:27Z</time>
      </trkpt>
      <trkpt lat="47.97418" lon="1.94518">
        <ele>133.4</ele>
        <time>2015-09-27T08:50:28Z</time>
      </trkpt>
      <trkpt lat="47.97415" lon="1.94524">
        <ele>133.6</ele>
        <time>2015-09-27T08:50:29Z</time>
      </trkpt>
      <trkpt lat="47.97413" lon="1.94529">
        <ele>133.8</ele>
        <time>2015-09-27T08:50:30Z</time>
      </trkpt>
      <trkpt lat="47.9741" lon="1.94535">
        <ele>134</ele>
        <time>2015-09-27T08:50:31Z</time>
      </trkpt>
      <trkpt lat="47.97407" lon="1.9454">
        <ele>134.2</ele>
        <time>2015-09-27T08:50:32Z</time>
      </trkpt>
      <trkpt lat="47.97405" lon="1.94543">
        <ele>134.3</ele>
        <time>2015-09-27T08:50:33Z</time>
      </trkpt>
      <trkpt lat="47.97402" lon="1.94547">
        <ele>134.3</ele>
        <time>2015-09-27T08:50:34Z</time>
      </trkpt>
      <trkpt lat="47.974" lon="1.94553">
        <ele>134.2</ele>
        <time>2015-09-27T08:50:35Z</time>
      </trkpt>
      <trkpt lat="47.97398" lon="1.94558">
        <ele>134.1</ele>
        <time>2015-09-27T08:50:36Z</time>
      </trkpt>
      <trkpt lat="47.97397" lon="1.94565">
        <ele>134</ele>
        <time>2015-09-27T08:50:37Z</time>
      </trkpt>
      <trkpt lat="47.97395" lon="1.9457">
        <ele>133.9</ele>
        <time>2015-09-27T08:50:38Z</time>
      </trkpt>
      <trkpt lat="47.97392" lon="1.94575">
        <ele>133.8</ele>
        <time>2015-09-27T08:50:39Z</time>
      </trkpt>
      <trkpt lat="47.9739" lon="1.9458">
        <ele>133.7</ele>
        <time>2015-09-27T08:50:40Z</time>
      </trkpt>
      <trkpt lat="47.97387" lon="1.94584">
        <ele>133.5</ele>
        <time>2015-09-27T08:50:41Z</time>
      </trkpt>
      <trkpt lat="47.97384" lon="1.94589">
        <ele>133.4</ele>
        <time>2015-09-27T08:50:42Z</time>
      </trkpt>
      <trkpt lat="47.97381" lon="1.94594">
        <ele>133.2</ele>
        <time>2015-09-27T08:50:43Z</time>
      </trkpt>
      <trkpt lat="47.97377" lon="1.94598">
        <ele>133</ele>
        <time>2015-09-27T08:50:44Z</time>
      </trkpt>
      <trkpt lat="47.97373" lon="1.94602">
        <ele>132.8</ele>
        <time>2015-09-27T08:50:45Z</time>
      </trkpt>
      <trkpt lat="47.9737" lon="1.94606">
        <ele>132.5</ele>
        <time>2015-09-27T08:50:46Z</time>
      </trkpt>
      <trkpt lat="47.97366" lon="1.9461">
        <ele>132.3</ele>
        <time>2015-09-27T08:50:47Z</time>
      </trkpt>
      <trkpt lat="47.97362" lon="1.94614">
        <ele>132</ele>
        <time>2015-09-27T08:50:48Z</time>
      </trkpt>
      <trkpt lat="47.97359" lon="1.94619">
        <ele>131.7</ele>
        <time>2015-09-27T08:50:49Z</time>
      </trkpt>
      <trkpt lat="47.97356" lon="1.94624">
        <ele>131.4</ele>
        <time>2015-09-27T08:50:50Z</time>
      </trkpt>
      <trkpt lat="47.97352" lon="1.94629">
        <ele>131</ele>
        <time>2015-09-27T08:50:51Z</time>
      </trkpt>
      <trkpt lat="47.97348" lon="1.94634">
        <ele>130.7</ele>
        <time>2015-09-27T08:50:52Z</time>
      </trkpt>
      <trkpt lat="47.97345" lon="1.94639">
        <ele>130.4</ele>
        <time>2015-09-27T08:50:53Z</time>
      </trkpt>
      <trkpt lat="47.97342" lon="1.94645">
        <ele>130</ele>
        <time>2015-09-27T08:50:54Z</time>
      </trkpt>
      <trkpt lat="47.9734" lon="1.94651">
        <ele>129.7</ele>
        <time>2015-09-27T08:50:55Z</time>
      </trkpt>
      <trkpt lat="47.97337" lon="1.94657">
        <ele>129.4</ele>
        <time>2015-09-27T08:50:56Z</time>
      </trkpt>
      <trkpt lat="47.97335" lon="1.94663">
        <ele>129.2</ele>
        <time>2015-09-27T08:50:57Z</time>
      </trkpt>
      <trkpt lat="47.97332" lon="1.94669">
        <ele>128.9</ele>
        <time>2015-09-27T08:50:58Z</time>
      </trkpt>
      <trkpt lat="47.97329" lon="1.94674">
        <ele>128.6</ele>
        <time>2015-09-27T08:50:59Z</time>
      </trkpt>
      <trkpt lat="47.97326" lon="1.9468">
        <ele>128.4</ele>
        <time>2015-09-27T08:51:00Z</time>
      </trkpt>
      <trkpt lat="47.97324" lon="1.94686">
        <ele>128.1</ele>
        <time>2015-09-27T08:51:01Z</time>
      </trkpt>
      <trkpt lat="47.97322" lon="1.94692">
        <ele>127.9</ele>
        <time>2015-09-27T08:51:02Z</time>
      </trkpt>
      <trkpt lat="47.97319" lon="1.94698">
        <ele>127.7</ele>
        <time>2015-09-27T08:51:03Z</time>
      </trkpt>
      <trkpt lat="47.97317" lon="1.94703">
        <ele>127.5</ele>
        <time>2015-09-27T08:51:04Z</time>
      </trkpt>
      <trkpt lat="47.97313" lon="1.94707">
        <ele>127.3</ele>
        <time>2015-09-27T08:51:05Z</time>
      </trkpt>
      <trkpt lat="47.9731" lon="1.94712">
        <ele>127.3</ele>
        <time>2015-09-27T08:51:06Z</time>
      </trkpt>
      <trkpt lat="47.97307" lon="1.94716">
        <ele>127.3</ele>
        <time>2015-09-27T08:51:07Z</time>
      </trkpt>
      <trkpt lat="47.97304" lon="1.94721">
        <ele>127.3</ele>
        <time>2015-09-27T08:51:08Z</time>
      </trkpt>
      <trkpt lat="47.97301" lon="1.94726">
        <ele>127.3</ele>
        <time>2015-09-27T08:51:09Z</time>
      </trkpt>
      <trkpt lat="47.97298" lon="1.9473">
        <ele>127.3</ele>
        <time>2015-09-27T08:51:10Z</time>
      </trkpt>
      <trkpt lat="47.97295" lon="1.94735">
        <ele>127.3</ele>
        <time>2015-09-27T08:51:11Z</time>
      </trkpt>
      <trkpt lat="47.97292" lon="1.9474">
        <ele>127.4</ele>
        <time>2015-09-27T08:51:12Z</time>
      </trkpt>
      <trkpt lat="47.97289" lon="1.94745">
        <ele>127.4</ele>
        <time>2015-09-27T08:51:13Z</time>
      </trkpt>
      <trkpt lat="47.97286" lon="1.9475">
        <ele>127.5</ele>
        <time>2015-09-27T08:51:14Z</time>
      </trkpt>
      <trkpt lat="47.97284" lon="1.94755">
        <ele>127.6</ele>
        <time>2015-09-27T08:51:15Z</time>
      </trkpt>
      <trkpt lat="47.97281" lon="1.94759">
        <ele>127.6</ele>
        <time>2015-09-27T08:51:16Z</time>
      </trkpt>
      <trkpt lat="47.97279" lon="1.94763">
        <ele>127.7</ele>
        <time>2015-09-27T08:51:17Z</time>
      </trkpt>
      <trkpt lat="47.97276" lon="1.94768">
        <ele>127.7</ele>
        <time>2015-09-27T08:51:18Z</time>
      </trkpt>
      <trkpt lat="47.97274" lon="1.94772">
        <ele>127.8</ele>
        <time>2015-09-27T08:51:19Z</time>
      </trkpt>
      <trkpt lat="47.97271" lon="1.94776">
        <ele>127.8</ele>
        <time>2015-09-27T08:51:20Z</time>
      </trkpt>
      <trkpt lat="47.97268" lon="1.9478">
        <ele>127.9</ele>
        <time>2015-09-27T08:51:21Z</time>
      </trkpt>
      <trkpt lat="47.97265" lon="1.94784">
        <ele>127.9</ele>
        <time>2015-09-27T08:51:22Z</time>
      </trkpt>
      <trkpt lat="47.97262" lon="1.94787">
        <ele>127.9</ele>
        <time>2015-09-27T08:51:23Z</time>
      </trkpt>
      <trkpt lat="47.97257" lon="1.94788">
        <ele>128</ele>
        <time>2015-09-27T08:51:24Z</time>
      </trkpt>
      <trkpt lat="47.97253" lon="1.94786">
        <ele>127.9</ele>
        <time>2015-09-27T08:51:25Z</time>
      </trkpt>
      <trkpt lat="47.97248" lon="1.94777">
        <ele>127.8</ele>
        <time>2015-09-27T08:51:26Z</time>
      </trkpt>
      <trkpt lat="47.97244" lon="1.94773">
        <ele>127.8</ele>
        <time>2015-09-27T08:51:27Z</time>
      </trkpt>
      <trkpt lat="47.97241" lon="1.94769">
        <ele>127.7</ele>
        <time>2015-09-27T08:51:28Z</time>
      </trkpt>
      <trkpt lat="47.97237" lon="1.94765">
        <ele>127.7</ele>
        <time>2015-09-27T08:51:29Z</time>
      </trkpt>
      <trkpt lat="47.97233" lon="1.9476">
        <ele>127.6</ele>
        <time>2015-09-27T08:51:30Z</time>
      </trkpt>
      <trkpt lat="47.97229" lon="1.94755">
        <ele>127.6</ele>
        <time>2015-09-27T08:51:31Z</time>
      </trkpt>
      <trkpt lat="47.97225" lon="1.94751">
        <ele>127.5</ele>
        <time>2015-09-27T08:51:32Z</time>
      </trkpt>
      <trkpt lat="47.97221" lon="1.94747">
        <ele>127.5</ele>
        <time>2015-09-27T08:51:33Z</time>
      </trkpt>
      <trkpt lat="47.97217" lon="1.94741">
        <ele>127.4</ele>
        <time>2015-09-27T08:51:34Z</time>
      </trkpt>
      <trkpt lat="47.97213" lon="1.94737">
        <ele>127.3</ele>
        <time>2015-09-27T08:51:35Z</time>
      </trkpt>
      <trkpt lat="47.97209" lon="1.94731">
        <ele>127.3</ele>
        <time>2015-09-27T08:51:36Z</time>
      </trkpt>
      <trkpt lat="47.97205" lon="1.94727">
        <ele>127.4</ele>
        <time>2015-09-27T08:51:37Z</time>
      </trkpt>
      <trkpt lat="47.972" lon="1.94722">
        <ele>127.5</ele>
        <time>2015-09-27T08:51:38Z</time>
      </trkpt>
      <trkpt lat="47.97195" lon="1.94716">
        <ele>127.6</ele>
        <time>2015-09-27T08:51:39Z</time>
      </trkpt>
      <trkpt lat="47.97191" lon="1.94712">
        <ele>127.7</ele>
        <time>2015-09-27T08:51:40Z</time>
      </trkpt>
      <trkpt lat="47.97186" lon="1.94708">
        <ele>127.8</ele>
        <time>2015-09-27T08:51:41Z</time>
      </trkpt>
      <trkpt lat="47.97182" lon="1.94703">
        <ele>127.9</ele>
        <time>2015-09-27T08:51:42Z</time>
      </trkpt>
      <trkpt lat="47.97177" lon="1.94698">
        <ele>128.1</ele>
        <time>2015-09-27T08:51:43Z</time>
      </trkpt>
      <trkpt lat="47.97173" lon="1.94694">
        <ele>128.2</ele>
        <time>2015-09-27T08:51:44Z</time>
      </trkpt>
      <trkpt lat="47.97169" lon="1.94689">
        <ele>128.3</ele>
        <time>2015-09-27T08:51:45Z</time>
      </trkpt>
      <trkpt lat="47.97165" lon="1.94685">
        <ele>128.4</ele>
        <time>2015-09-27T08:51:46Z</time>
      </trkpt>
      <trkpt lat="47.97161" lon="1.9468">
        <ele>128.5</ele>
        <time>2015-09-27T08:51:47Z</time>
      </trkpt>
      <trkpt lat="47.97157" lon="1.94676">
        <ele>128.6</ele>
        <time>2015-09-27T08:51:48Z</time>
      </trkpt>
      <trkpt lat="47.97152" lon="1.9467">
        <ele>128.7</ele>
        <time>2015-09-27T08:51:49Z</time>
      </trkpt>
      <trkpt lat="47.97148" lon="1.94666">
        <ele>128.8</ele>
        <time>2015-09-27T08:51:50Z</time>
      </trkpt>
      <trkpt lat="47.97145" lon="1.94662">
        <ele>128.9</ele>
        <time>2015-09-27T08:51:51Z</time>
      </trkpt>
      <trkpt lat="47.97141" lon="1.94658">
        <ele>128.9</ele>
        <time>2015-09-27T08:51:52Z</time>
      </trkpt>
      <trkpt lat="47.97137" lon="1.94654">
        <ele>129</ele>
        <time>2015-09-27T08:51:53Z</time>
      </trkpt>
      <trkpt lat="47.97133" lon="1.94649">
        <ele>129.1</ele>
        <time>2015-09-27T08:51:54Z</time>
      </trkpt>
      <trkpt lat="47.97128" lon="1.94644">
        <ele>129.1</ele>
        <time>2015-09-27T08:51:55Z</time>
      </trkpt>
      <trkpt lat="47.97125" lon="1.9464">
        <ele>129.2</ele>
        <time>2015-09-27T08:51:56Z</time>
      </trkpt>
      <trkpt lat="47.97121" lon="1.94636">
        <ele>129.2</ele>
        <time>2015-09-27T08:51:57Z</time>
      </trkpt>
      <trkpt lat="47.97116" lon="1.9463">
        <ele>129.3</ele>
        <time>2015-09-27T08:51:58Z</time>
      </trkpt>
      <trkpt lat="47.97112" lon="1.94626">
        <ele>129.3</ele>
        <time>2015-09-27T08:51:59Z</time>
      </trkpt>
      <trkpt lat="47.97108" lon="1.94622">
        <ele>129.6</ele>
        <time>2015-09-27T08:52:00Z</time>
      </trkpt>
      <trkpt lat="47.97103" lon="1.94616">
        <ele>130</ele>
        <time>2015-09-27T08:52:01Z</time>
      </trkpt>
      <trkpt lat="47.97099" lon="1.94611">
        <ele>130.3</ele>
        <time>2015-09-27T08:52:02Z</time>
      </trkpt>
      <trkpt lat="47.97095" lon="1.94607">
        <ele>130.6</ele>
        <time>2015-09-27T08:52:03Z</time>
      </trkpt>
      <trkpt lat="47.97092" lon="1.94603">
        <ele>130.8</ele>
        <time>2015-09-27T08:52:04Z</time>
      </trkpt>
      <trkpt lat="47.97085" lon="1.94596">
        <ele>131.4</ele>
        <time>2015-09-27T08:52:05Z</time>
      </trkpt>
      <trkpt lat="47.97081" lon="1.94592">
        <ele>131.7</ele>
        <time>2015-09-27T08:52:06Z</time>
      </trkpt>
      <trkpt lat="47.97078" lon="1.94588">
        <ele>131.9</ele>
        <time>2015-09-27T08:52:07Z</time>
      </trkpt>
      <trkpt lat="47.97072" lon="1.94581">
        <ele>132.4</ele>
        <time>2015-09-27T08:52:09Z</time>
      </trkpt>
      <trkpt lat="47.97068" lon="1.94577">
        <ele>132.7</ele>
        <time>2015-09-27T08:52:10Z</time>
      </trkpt>
      <trkpt lat="47.97064" lon="1.94572">
        <ele>133</ele>
        <time>2015-09-27T08:52:11Z</time>
      </trkpt>
      <trkpt lat="47.97061" lon="1.94568">
        <ele>133.3</ele>
        <time>2015-09-27T08:52:12Z</time>
      </trkpt>
      <trkpt lat="47.97057" lon="1.94564">
        <ele>133.6</ele>
        <time>2015-09-27T08:52:13Z</time>
      </trkpt>
      <trkpt lat="47.97052" lon="1.94559">
        <ele>133.9</ele>
        <time>2015-09-27T08:52:14Z</time>
      </trkpt>
      <trkpt lat="47.97025" lon="1.94525">
        <ele>135</ele>
        <time>2015-09-27T08:52:21Z</time>
      </trkpt>
      <trkpt lat="47.97022" lon="1.9452">
        <ele>135.1</ele>
        <time>2015-09-27T08:52:22Z</time>
      </trkpt>
      <trkpt lat="47.97016" lon="1.94515">
        <ele>135.1</ele>
        <time>2015-09-27T08:52:23Z</time>
      </trkpt>
      <trkpt lat="47.97012" lon="1.9451">
        <ele>135.2</ele>
        <time>2015-09-27T08:52:24Z</time>
      </trkpt>
      <trkpt lat="47.97009" lon="1.94507">
        <ele>135.2</ele>
        <time>2015-09-27T08:52:25Z</time>
      </trkpt>
      <trkpt lat="47.97005" lon="1.94503">
        <ele>135.2</ele>
        <time>2015-09-27T08:52:26Z</time>
      </trkpt>
      <trkpt lat="47.97" lon="1.94496">
        <ele>135.4</ele>
        <time>2015-09-27T08:52:27Z</time>
      </trkpt>
      <trkpt lat="47.96996" lon="1.94493">
        <ele>135.4</ele>
        <time>2015-09-27T08:52:28Z</time>
      </trkpt>
      <trkpt lat="47.96992" lon="1.94487">
        <ele>135.5</ele>
        <time>2015-09-27T08:52:29Z</time>
      </trkpt>
      <trkpt lat="47.96989" lon="1.94485">
        <ele>135.5</ele>
        <time>2015-09-27T08:52:30Z</time>
      </trkpt>
      <trkpt lat="47.96984" lon="1.94482">
        <ele>135.5</ele>
        <time>2015-09-27T08:52:31Z</time>
      </trkpt>
      <trkpt lat="47.96979" lon="1.94479">
        <ele>135.6</ele>
        <time>2015-09-27T08:52:32Z</time>
      </trkpt>
      <trkpt lat="47.96974" lon="1.94476">
        <ele>135.6</ele>
        <time>2015-09-27T08:52:33Z</time>
      </trkpt>
      <trkpt lat="47.96969" lon="1.94473">
        <ele>135.6</ele>
        <time>2015-09-27T08:52:34Z</time>
      </trkpt>
      <trkpt lat="47.96967" lon="1.94471">
        <ele>135.7</ele>
        <time>2015-09-27T08:52:35Z</time>
      </trkpt>
      <trkpt lat="47.96962" lon="1.94471">
        <ele>135.6</ele>
        <time>2015-09-27T08:52:36Z</time>
      </trkpt>
      <trkpt lat="47.96958" lon="1.94468">
        <ele>135.6</ele>
        <time>2015-09-27T08:52:37Z</time>
      </trkpt>
      <trkpt lat="47.96953" lon="1.94467">
        <ele>135.6</ele>
        <time>2015-09-27T08:52:38Z</time>
      </trkpt>
      <trkpt lat="47.96949" lon="1.94467">
        <ele>135.6</ele>
        <time>2015-09-27T08:52:39Z</time>
      </trkpt>
      <trkpt lat="47.96945" lon="1.94466">
        <ele>135.5</ele>
        <time>2015-09-27T08:52:40Z</time>
      </trkpt>
      <trkpt lat="47.96941" lon="1.94466">
        <ele>135.5</ele>
        <time>2015-09-27T08:52:41Z</time>
      </trkpt>
      <trkpt lat="47.96936" lon="1.94467">
        <ele>135.4</ele>
        <time>2015-09-27T08:52:42Z</time>
      </trkpt>
      <trkpt lat="47.96932" lon="1.94467">
        <ele>135.4</ele>
        <time>2015-09-27T08:52:43Z</time>
      </trkpt>
      <trkpt lat="47.96928" lon="1.94466">
        <ele>135.4</ele>
        <time>2015-09-27T08:52:44Z</time>
      </trkpt>
      <trkpt lat="47.96923" lon="1.94466">
        <ele>135.3</ele>
        <time>2015-09-27T08:52:45Z</time>
      </trkpt>
      <trkpt lat="47.96916" lon="1.94464">
        <ele>135.3</ele>
        <time>2015-09-27T08:52:46Z</time>
      </trkpt>
      <trkpt lat="47.96911" lon="1.94464">
        <ele>135.2</ele>
        <time>2015-09-27T08:52:47Z</time>
      </trkpt>
      <trkpt lat="47.96907" lon="1.94466">
        <ele>135.1</ele>
        <time>2015-09-27T08:52:48Z</time>
      </trkpt>
      <trkpt lat="47.969" lon="1.94466">
        <ele>135</ele>
        <time>2015-09-27T08:52:49Z</time>
      </trkpt>
      <trkpt lat="47.96895" lon="1.94466">
        <ele>135</ele>
        <time>2015-09-27T08:52:50Z</time>
      </trkpt>
      <trkpt lat="47.96889" lon="1.94466">
        <ele>134.9</ele>
        <time>2015-09-27T08:52:51Z</time>
      </trkpt>
      <trkpt lat="47.96883" lon="1.94467">
        <ele>134.8</ele>
        <time>2015-09-27T08:52:52Z</time>
      </trkpt>
      <trkpt lat="47.96876" lon="1.94467">
        <ele>134.7</ele>
        <time>2015-09-27T08:52:53Z</time>
      </trkpt>
      <trkpt lat="47.9687" lon="1.94466">
        <ele>134.7</ele>
        <time>2015-09-27T08:52:54Z</time>
      </trkpt>
      <trkpt lat="47.96865" lon="1.94465">
        <ele>134.8</ele>
        <time>2015-09-27T08:52:55Z</time>
      </trkpt>
      <trkpt lat="47.96858" lon="1.94464">
        <ele>134.8</ele>
        <time>2015-09-27T08:52:56Z</time>
      </trkpt>
      <trkpt lat="47.96853" lon="1.94462">
        <ele>134.9</ele>
        <time>2015-09-27T08:52:57Z</time>
      </trkpt>
      <trkpt lat="47.96847" lon="1.94462">
        <ele>134.9</ele>
        <time>2015-09-27T08:52:58Z</time>
      </trkpt>
      <trkpt lat="47.96842" lon="1.94463">
        <ele>134.9</ele>
        <time>2015-09-27T08:52:59Z</time>
      </trkpt>
      <trkpt lat="47.96837" lon="1.94463">
        <ele>134.9</ele>
        <time>2015-09-27T08:53:00Z</time>
      </trkpt>
      <trkpt lat="47.96833" lon="1.94463">
        <ele>134.9</ele>
        <time>2015-09-27T08:53:01Z</time>
      </trkpt>
      <trkpt lat="47.96828" lon="1.94463">
        <ele>134.9</ele>
        <time>2015-09-27T08:53:02Z</time>
      </trkpt>
      <trkpt lat="47.96823" lon="1.94463">
        <ele>134.9</ele>
        <time>2015-09-27T08:53:03Z</time>
      </trkpt>
      <trkpt lat="47.96818" lon="1.94463">
        <ele>134.9</ele>
        <time>2015-09-27T08:53:04Z</time>
      </trkpt>
      <trkpt lat="47.96813" lon="1.94464">
        <ele>134.9</ele>
        <time>2015-09-27T08:53:05Z</time>
      </trkpt>
      <trkpt lat="47.96808" lon="1.94463">
        <ele>134.9</ele>
        <time>2015-09-27T08:53:06Z</time>
      </trkpt>
      <trkpt lat="47.96803" lon="1.94463">
        <ele>134.9</ele>
        <time>2015-09-27T08:53:07Z</time>
      </trkpt>
      <trkpt lat="47.96797" lon="1.94465">
        <ele>134.9</ele>
        <time>2015-09-27T08:53:08Z</time>
      </trkpt>
      <trkpt lat="47.96792" lon="1.94466">
        <ele>134.9</ele>
        <time>2015-09-27T08:53:09Z</time>
      </trkpt>
      <trkpt lat="47.96787" lon="1.94466">
        <ele>135.2</ele>
        <time>2015-09-27T08:53:10Z</time>
      </trkpt>
      <trkpt lat="47.96782" lon="1.94466">
        <ele>135.4</ele>
        <time>2015-09-27T08:53:11Z</time>
      </trkpt>
      <trkpt lat="47.96777" lon="1.94467">
        <ele>135.6</ele>
        <time>2015-09-27T08:53:12Z</time>
      </trkpt>
      <trkpt lat="47.96772" lon="1.94468">
        <ele>135.9</ele>
        <time>2015-09-27T08:53:13Z</time>
      </trkpt>
      <trkpt lat="47.96768" lon="1.94469">
        <ele>136.1</ele>
        <time>2015-09-27T08:53:14Z</time>
      </trkpt>
      <trkpt lat="47.96763" lon="1.9447">
        <ele>136.3</ele>
        <time>2015-09-27T08:53:15Z</time>
      </trkpt>
      <trkpt lat="47.96757" lon="1.94471">
        <ele>136.6</ele>
        <time>2015-09-27T08:53:16Z</time>
      </trkpt>
      <trkpt lat="47.96753" lon="1.94472">
        <ele>136.9</ele>
        <time>2015-09-27T08:53:17Z</time>
      </trkpt>
      <trkpt lat="47.96748" lon="1.94474">
        <ele>137.1</ele>
        <time>2015-09-27T08:53:18Z</time>
      </trkpt>
      <trkpt lat="47.96743" lon="1.94476">
        <ele>137.4</ele>
        <time>2015-09-27T08:53:19Z</time>
      </trkpt>
      <trkpt lat="47.96739" lon="1.94479">
        <ele>137.6</ele>
        <time>2015-09-27T08:53:20Z</time>
      </trkpt>
      <trkpt lat="47.96734" lon="1.94481">
        <ele>137.9</ele>
        <time>2015-09-27T08:53:21Z</time>
      </trkpt>
      <trkpt lat="47.96729" lon="1.94482">
        <ele>138.1</ele>
        <time>2015-09-27T08:53:22Z</time>
      </trkpt>
      <trkpt lat="47.96725" lon="1.94485">
        <ele>138.4</ele>
        <time>2015-09-27T08:53:23Z</time>
      </trkpt>
      <trkpt lat="47.9672" lon="1.94488">
        <ele>138.7</ele>
        <time>2015-09-27T08:53:24Z</time>
      </trkpt>
      <trkpt lat="47.96715" lon="1.94489">
        <ele>139</ele>
        <time>2015-09-27T08:53:25Z</time>
      </trkpt>
      <trkpt lat="47.9671" lon="1.94491">
        <ele>139.3</ele>
        <time>2015-09-27T08:53:26Z</time>
      </trkpt>
      <trkpt lat="47.96704" lon="1.94493">
        <ele>139.2</ele>
        <time>2015-09-27T08:53:27Z</time>
      </trkpt>
      <trkpt lat="47.96699" lon="1.94496">
        <ele>139</ele>
        <time>2015-09-27T08:53:28Z</time>
      </trkpt>
      <trkpt lat="47.96695" lon="1.94498">
        <ele>138.8</ele>
        <time>2015-09-27T08:53:29Z</time>
      </trkpt>
      <trkpt lat="47.96689" lon="1.94499">
        <ele>138.6</ele>
        <time>2015-09-27T08:53:30Z</time>
      </trkpt>
      <trkpt lat="47.96683" lon="1.94499">
        <ele>138.3</ele>
        <time>2015-09-27T08:53:31Z</time>
      </trkpt>
      <trkpt lat="47.96677" lon="1.94501">
        <ele>138</ele>
        <time>2015-09-27T08:53:32Z</time>
      </trkpt>
      <trkpt lat="47.96671" lon="1.94503">
        <ele>137.8</ele>
        <time>2015-09-27T08:53:33Z</time>
      </trkpt>
      <trkpt lat="47.96667" lon="1.94508">
        <ele>137.6</ele>
        <time>2015-09-27T08:53:34Z</time>
      </trkpt>
      <trkpt lat="47.96662" lon="1.94511">
        <ele>137.4</ele>
        <time>2015-09-27T08:53:35Z</time>
      </trkpt>
      <trkpt lat="47.96658" lon="1.94513">
        <ele>137.2</ele>
        <time>2015-09-27T08:53:36Z</time>
      </trkpt>
      <trkpt lat="47.96651" lon="1.94515">
        <ele>136.9</ele>
        <time>2015-09-27T08:53:37Z</time>
      </trkpt>
      <trkpt lat="47.96644" lon="1.94517">
        <ele>136.6</ele>
        <time>2015-09-27T08:53:38Z</time>
      </trkpt>
      <trkpt lat="47.96639" lon="1.94518">
        <ele>136.4</ele>
        <time>2015-09-27T08:53:39Z</time>
      </trkpt>
      <trkpt lat="47.96633" lon="1.94521">
        <ele>136.1</ele>
        <time>2015-09-27T08:53:40Z</time>
      </trkpt>
      <trkpt lat="47.96627" lon="1.94526">
        <ele>135.9</ele>
        <time>2015-09-27T08:53:41Z</time>
      </trkpt>
      <trkpt lat="47.96621" lon="1.94529">
        <ele>135.7</ele>
        <time>2015-09-27T08:53:42Z</time>
      </trkpt>
      <trkpt lat="47.96615" lon="1.9453">
        <ele>135.6</ele>
        <time>2015-09-27T08:53:43Z</time>
      </trkpt>
      <trkpt lat="47.9661" lon="1.94533">
        <ele>135.5</ele>
        <time>2015-09-27T08:53:44Z</time>
      </trkpt>
      <trkpt lat="47.96604" lon="1.94535">
        <ele>135.4</ele>
        <time>2015-09-27T08:53:45Z</time>
      </trkpt>
      <trkpt lat="47.96599" lon="1.94538">
        <ele>135.3</ele>
        <time>2015-09-27T08:53:46Z</time>
      </trkpt>
      <trkpt lat="47.96592" lon="1.9454">
        <ele>135.2</ele>
        <time>2015-09-27T08:53:47Z</time>
      </trkpt>
      <trkpt lat="47.96587" lon="1.94543">
        <ele>135.1</ele>
        <time>2015-09-27T08:53:48Z</time>
      </trkpt>
      <trkpt lat="47.96581" lon="1.94544">
        <ele>135.1</ele>
        <time>2015-09-27T08:53:49Z</time>
      </trkpt>
      <trkpt lat="47.96575" lon="1.94546">
        <ele>135</ele>
        <time>2015-09-27T08:53:50Z</time>
      </trkpt>
      <trkpt lat="47.96571" lon="1.94548">
        <ele>135</ele>
        <time>2015-09-27T08:53:51Z</time>
      </trkpt>
      <trkpt lat="47.96565" lon="1.9455">
        <ele>134.9</ele>
        <time>2015-09-27T08:53:52Z</time>
      </trkpt>
      <trkpt lat="47.9656" lon="1.94554">
        <ele>134.9</ele>
        <time>2015-09-27T08:53:53Z</time>
      </trkpt>
      <trkpt lat="47.96554" lon="1.94556">
        <ele>134.8</ele>
        <time>2015-09-27T08:53:54Z</time>
      </trkpt>
      <trkpt lat="47.96547" lon="1.94559">
        <ele>134.8</ele>
        <time>2015-09-27T08:53:55Z</time>
      </trkpt>
      <trkpt lat="47.96542" lon="1.9456">
        <ele>134.7</ele>
        <time>2015-09-27T08:53:56Z</time>
      </trkpt>
      <trkpt lat="47.96538" lon="1.94563">
        <ele>134.7</ele>
        <time>2015-09-27T08:53:57Z</time>
      </trkpt>
      <trkpt lat="47.96533" lon="1.94564">
        <ele>134.6</ele>
        <time>2015-09-27T08:53:58Z</time>
      </trkpt>
      <trkpt lat="47.96527" lon="1.94566">
        <ele>134.6</ele>
        <time>2015-09-27T08:53:59Z</time>
      </trkpt>
      <trkpt lat="47.96521" lon="1.94567">
        <ele>134.5</ele>
        <time>2015-09-27T08:54:00Z</time>
      </trkpt>
      <trkpt lat="47.96514" lon="1.94568">
        <ele>134.4</ele>
        <time>2015-09-27T08:54:01Z</time>
      </trkpt>
      <trkpt lat="47.96509" lon="1.9457">
        <ele>134.3</ele>
        <time>2015-09-27T08:54:02Z</time>
      </trkpt>
      <trkpt lat="47.96503" lon="1.94572">
        <ele>134.3</ele>
        <time>2015-09-27T08:54:03Z</time>
      </trkpt>
      <trkpt lat="47.96497" lon="1.94575">
        <ele>134.2</ele>
        <time>2015-09-27T08:54:04Z</time>
      </trkpt>
      <trkpt lat="47.96491" lon="1.94576">
        <ele>134.1</ele>
        <time>2015-09-27T08:54:05Z</time>
      </trkpt>
      <trkpt lat="47.96486" lon="1.94579">
        <ele>134.1</ele>
        <time>2015-09-27T08:54:06Z</time>
      </trkpt>
      <trkpt lat="47.96479" lon="1.94582">
        <ele>134</ele>
        <time>2015-09-27T08:54:07Z</time>
      </trkpt>
      <trkpt lat="47.96475" lon="1.94586">
        <ele>133.9</ele>
        <time>2015-09-27T08:54:08Z</time>
      </trkpt>
      <trkpt lat="47.96468" lon="1.94588">
        <ele>133.8</ele>
        <time>2015-09-27T08:54:09Z</time>
      </trkpt>
      <trkpt lat="47.96462" lon="1.94591">
        <ele>133.7</ele>
        <time>2015-09-27T08:54:10Z</time>
      </trkpt>
      <trkpt lat="47.96457" lon="1.94594">
        <ele>133.6</ele>
        <time>2015-09-27T08:54:11Z</time>
      </trkpt>
      <trkpt lat="47.96451" lon="1.94596">
        <ele>133.6</ele>
        <time>2015-09-27T08:54:12Z</time>
      </trkpt>
      <trkpt lat="47.96445" lon="1.94598">
        <ele>133.6</ele>
        <time>2015-09-27T08:54:13Z</time>
      </trkpt>
      <trkpt lat="47.96438" lon="1.94601">
        <ele>133.6</ele>
        <time>2015-09-27T08:54:14Z</time>
      </trkpt>
      <trkpt lat="47.96433" lon="1.94603">
        <ele>133.7</ele>
        <time>2015-09-27T08:54:15Z</time>
      </trkpt>
      <trkpt lat="47.96427" lon="1.94606">
        <ele>133.7</ele>
        <time>2015-09-27T08:54:16Z</time>
      </trkpt>
      <trkpt lat="47.9642" lon="1.94608">
        <ele>133.7</ele>
        <time>2015-09-27T08:54:17Z</time>
      </trkpt>
      <trkpt lat="47.96413" lon="1.9461">
        <ele>133.7</ele>
        <time>2015-09-27T08:54:18Z</time>
      </trkpt>
      <trkpt lat="47.96407" lon="1.94613">
        <ele>133.8</ele>
        <time>2015-09-27T08:54:19Z</time>
      </trkpt>
      <trkpt lat="47.96401" lon="1.94614">
        <ele>133.8</ele>
        <time>2015-09-27T08:54:20Z</time>
      </trkpt>
      <trkpt lat="47.96395" lon="1.94616">
        <ele>133.8</ele>
        <time>2015-09-27T08:54:21Z</time>
      </trkpt>
      <trkpt lat="47.96389" lon="1.94619">
        <ele>133.9</ele>
        <time>2015-09-27T08:54:22Z</time>
      </trkpt>
      <trkpt lat="47.96382" lon="1.94621">
        <ele>133.9</ele>
        <time>2015-09-27T08:54:23Z</time>
      </trkpt>
      <trkpt lat="47.96377" lon="1.94623">
        <ele>134</ele>
        <time>2015-09-27T08:54:24Z</time>
      </trkpt>
      <trkpt lat="47.96371" lon="1.94626">
        <ele>134</ele>
        <time>2015-09-27T08:54:25Z</time>
      </trkpt>
      <trkpt lat="47.96364" lon="1.94629">
        <ele>134</ele>
        <time>2015-09-27T08:54:26Z</time>
      </trkpt>
      <trkpt lat="47.96358" lon="1.94633">
        <ele>134.1</ele>
        <time>2015-09-27T08:54:27Z</time>
      </trkpt>
      <trkpt lat="47.96351" lon="1.94635">
        <ele>134.1</ele>
        <time>2015-09-27T08:54:28Z</time>
      </trkpt>
      <trkpt lat="47.96345" lon="1.94637">
        <ele>134.1</ele>
        <time>2015-09-27T08:54:29Z</time>
      </trkpt>
      <trkpt lat="47.96339" lon="1.94639">
        <ele>134.1</ele>
        <time>2015-09-27T08:54:30Z</time>
      </trkpt>
      <trkpt lat="47.96333" lon="1.94641">
        <ele>134.1</ele>
        <time>2015-09-27T08:54:31Z</time>
      </trkpt>
      <trkpt lat="47.96327" lon="1.94644">
        <ele>134.1</ele>
        <time>2015-09-27T08:54:32Z</time>
      </trkpt>
      <trkpt lat="47.96321" lon="1.94646">
        <ele>134.1</ele>
        <time>2015-09-27T08:54:33Z</time>
      </trkpt>
      <trkpt lat="47.96315" lon="1.94648">
        <ele>134.1</ele>
        <time>2015-09-27T08:54:34Z</time>
      </trkpt>
      <trkpt lat="47.96311" lon="1.94652">
        <ele>134.2</ele>
        <time>2015-09-27T08:54:35Z</time>
      </trkpt>
      <trkpt lat="47.96305" lon="1.94655">
        <ele>134.2</ele>
        <time>2015-09-27T08:54:36Z</time>
      </trkpt>
      <trkpt lat="47.963" lon="1.94657">
        <ele>134.2</ele>
        <time>2015-09-27T08:54:37Z</time>
      </trkpt>
      <trkpt lat="47.96294" lon="1.9466">
        <ele>134.3</ele>
        <time>2015-09-27T08:54:38Z</time>
      </trkpt>
      <trkpt lat="47.96288" lon="1.94663">
        <ele>134.4</ele>
        <time>2015-09-27T08:54:39Z</time>
      </trkpt>
      <trkpt lat="47.96281" lon="1.94664">
        <ele>134.6</ele>
        <time>2015-09-27T08:54:40Z</time>
      </trkpt>
      <trkpt lat="47.96274" lon="1.94667">
        <ele>134.8</ele>
        <time>2015-09-27T08:54:41Z</time>
      </trkpt>
      <trkpt lat="47.96269" lon="1.9467">
        <ele>135</ele>
        <time>2015-09-27T08:54:42Z</time>
      </trkpt>
      <trkpt lat="47.96263" lon="1.94672">
        <ele>135.1</ele>
        <time>2015-09-27T08:54:43Z</time>
      </trkpt>
      <trkpt lat="47.96258" lon="1.94675">
        <ele>135.3</ele>
        <time>2015-09-27T08:54:44Z</time>
      </trkpt>
      <trkpt lat="47.96253" lon="1.94678">
        <ele>135.4</ele>
        <time>2015-09-27T08:54:45Z</time>
      </trkpt>
      <trkpt lat="47.96248" lon="1.9468">
        <ele>135.5</ele>
        <time>2015-09-27T08:54:46Z</time>
      </trkpt>
      <trkpt lat="47.96243" lon="1.94684">
        <ele>135.6</ele>
        <time>2015-09-27T08:54:47Z</time>
      </trkpt>
      <trkpt lat="47.96236" lon="1.94686">
        <ele>135.7</ele>
        <time>2015-09-27T08:54:48Z</time>
      </trkpt>
      <trkpt lat="47.96229" lon="1.94687">
        <ele>135.8</ele>
        <time>2015-09-27T08:54:49Z</time>
      </trkpt>
      <trkpt lat="47.96223" lon="1.94689">
        <ele>135.9</ele>
        <time>2015-09-27T08:54:50Z</time>
      </trkpt>
      <trkpt lat="47.96218" lon="1.94692">
        <ele>135.9</ele>
        <time>2015-09-27T08:54:51Z</time>
      </trkpt>
      <trkpt lat="47.96213" lon="1.94695">
        <ele>136</ele>
        <time>2015-09-27T08:54:52Z</time>
      </trkpt>
      <trkpt lat="47.96207" lon="1.94697">
        <ele>136</ele>
        <time>2015-09-27T08:54:53Z</time>
      </trkpt>
      <trkpt lat="47.96201" lon="1.947">
        <ele>135.9</ele>
        <time>2015-09-27T08:54:54Z</time>
      </trkpt>
      <trkpt lat="47.96194" lon="1.94701">
        <ele>135.9</ele>
        <time>2015-09-27T08:54:55Z</time>
      </trkpt>
      <trkpt lat="47.96189" lon="1.94704">
        <ele>135.8</ele>
        <time>2015-09-27T08:54:56Z</time>
      </trkpt>
      <trkpt lat="47.96183" lon="1.94706">
        <ele>135.7</ele>
        <time>2015-09-27T08:54:57Z</time>
      </trkpt>
      <trkpt lat="47.96179" lon="1.94709">
        <ele>135.7</ele>
        <time>2015-09-27T08:54:58Z</time>
      </trkpt>
      <trkpt lat="47.96173" lon="1.94711">
        <ele>135.6</ele>
        <time>2015-09-27T08:54:59Z</time>
      </trkpt>
      <trkpt lat="47.96168" lon="1.94713">
        <ele>135.6</ele>
        <time>2015-09-27T08:55:00Z</time>
      </trkpt>
      <trkpt lat="47.96162" lon="1.94715">
        <ele>135.5</ele>
        <time>2015-09-27T08:55:01Z</time>
      </trkpt>
      <trkpt lat="47.96156" lon="1.94717">
        <ele>135.4</ele>
        <time>2015-09-27T08:55:02Z</time>
      </trkpt>
      <trkpt lat="47.96149" lon="1.9472">
        <ele>135.4</ele>
        <time>2015-09-27T08:55:03Z</time>
      </trkpt>
      <trkpt lat="47.96143" lon="1.94722">
        <ele>135.3</ele>
        <time>2015-09-27T08:55:04Z</time>
      </trkpt>
      <trkpt lat="47.96137" lon="1.94725">
        <ele>135.2</ele>
        <time>2015-09-27T08:55:05Z</time>
      </trkpt>
      <trkpt lat="47.96131" lon="1.94726">
        <ele>135.1</ele>
        <time>2015-09-27T08:55:06Z</time>
      </trkpt>
      <trkpt lat="47.96124" lon="1.94729">
        <ele>135</ele>
        <time>2015-09-27T08:55:07Z</time>
      </trkpt>
      <trkpt lat="47.96119" lon="1.94732">
        <ele>134.9</ele>
        <time>2015-09-27T08:55:08Z</time>
      </trkpt>
      <trkpt lat="47.96112" lon="1.94734">
        <ele>134.7</ele>
        <time>2015-09-27T08:55:09Z</time>
      </trkpt>
      <trkpt lat="47.96106" lon="1.94737">
        <ele>134.6</ele>
        <time>2015-09-27T08:55:10Z</time>
      </trkpt>
      <trkpt lat="47.96101" lon="1.9474">
        <ele>134.5</ele>
        <time>2015-09-27T08:55:11Z</time>
      </trkpt>
      <trkpt lat="47.96095" lon="1.94743">
        <ele>134.4</ele>
        <time>2015-09-27T08:55:12Z</time>
      </trkpt>
      <trkpt lat="47.9609" lon="1.94744">
        <ele>134.3</ele>
        <time>2015-09-27T08:55:13Z</time>
      </trkpt>
      <trkpt lat="47.96083" lon="1.94745">
        <ele>134.2</ele>
        <time>2015-09-27T08:55:14Z</time>
      </trkpt>
      <trkpt lat="47.96076" lon="1.94747">
        <ele>134.1</ele>
        <time>2015-09-27T08:55:15Z</time>
      </trkpt>
      <trkpt lat="47.96071" lon="1.94751">
        <ele>134</ele>
        <time>2015-09-27T08:55:16Z</time>
      </trkpt>
      <trkpt lat="47.96068" lon="1.94756">
        <ele>134</ele>
        <time>2015-09-27T08:55:17Z</time>
      </trkpt>
      <trkpt lat="47.96065" lon="1.94764">
        <ele>134</ele>
        <time>2015-09-27T08:55:18Z</time>
      </trkpt>
      <trkpt lat="47.96069" lon="1.94773">
        <ele>134.2</ele>
        <time>2015-09-27T08:55:19Z</time>
      </trkpt>
      <trkpt lat="47.9607" lon="1.9478">
        <ele>134.3</ele>
        <time>2015-09-27T08:55:20Z</time>
      </trkpt>
      <trkpt lat="47.96072" lon="1.94787">
        <ele>134.3</ele>
        <time>2015-09-27T08:55:21Z</time>
      </trkpt>
      <trkpt lat="47.96074" lon="1.94796">
        <ele>134.4</ele>
        <time>2015-09-27T08:55:22Z</time>
      </trkpt>
      <trkpt lat="47.96078" lon="1.94803">
        <ele>134.5</ele>
        <time>2015-09-27T08:55:23Z</time>
      </trkpt>
      <trkpt lat="47.96082" lon="1.94813">
        <ele>134.6</ele>
        <time>2015-09-27T08:55:24Z</time>
      </trkpt>
      <trkpt lat="47.96086" lon="1.9482">
        <ele>134.7</ele>
        <time>2015-09-27T08:55:25Z</time>
      </trkpt>
      <trkpt lat="47.96091" lon="1.94828">
        <ele>134.8</ele>
        <time>2015-09-27T08:55:26Z</time>
      </trkpt>
      <trkpt lat="47.96094" lon="1.94837">
        <ele>134.8</ele>
        <time>2015-09-27T08:55:27Z</time>
      </trkpt>
      <trkpt lat="47.96098" lon="1.94843">
        <ele>134.9</ele>
        <time>2015-09-27T08:55:28Z</time>
      </trkpt>
      <trkpt lat="47.961" lon="1.94852">
        <ele>134.9</ele>
        <time>2015-09-27T08:55:29Z</time>
      </trkpt>
      <trkpt lat="47.96103" lon="1.9486">
        <ele>135</ele>
        <time>2015-09-27T08:55:30Z</time>
      </trkpt>
      <trkpt lat="47.96104" lon="1.94868">
        <ele>135</ele>
        <time>2015-09-27T08:55:31Z</time>
      </trkpt>
      <trkpt lat="47.96108" lon="1.94874">
        <ele>135</ele>
        <time>2015-09-27T08:55:32Z</time>
      </trkpt>
      <trkpt lat="47.96109" lon="1.94881">
        <ele>134.9</ele>
        <time>2015-09-27T08:55:33Z</time>
      </trkpt>
      <trkpt lat="47.9611" lon="1.94889">
        <ele>134.7</ele>
        <time>2015-09-27T08:55:34Z</time>
      </trkpt>
      <trkpt lat="47.96109" lon="1.94897">
        <ele>134.5</ele>
        <time>2015-09-27T08:55:35Z</time>
      </trkpt>
      <trkpt lat="47.96112" lon="1.94905">
        <ele>134.3</ele>
        <time>2015-09-27T08:55:36Z</time>
      </trkpt>
      <trkpt lat="47.96111" lon="1.94914">
        <ele>134.1</ele>
        <time>2015-09-27T08:55:37Z</time>
      </trkpt>
      <trkpt lat="47.96111" lon="1.94922">
        <ele>134</ele>
        <time>2015-09-27T08:55:38Z</time>
      </trkpt>
      <trkpt lat="47.96117" lon="1.94928">
        <ele>133.8</ele>
        <time>2015-09-27T08:55:39Z</time>
      </trkpt>
      <trkpt lat="47.96118" lon="1.94936">
        <ele>133.6</ele>
        <time>2015-09-27T08:55:40Z</time>
      </trkpt>
      <trkpt lat="47.9612" lon="1.94943">
        <ele>133.4</ele>
        <time>2015-09-27T08:55:41Z</time>
      </trkpt>
      <trkpt lat="47.96122" lon="1.9495">
        <ele>133.2</ele>
        <time>2015-09-27T08:55:42Z</time>
      </trkpt>
      <trkpt lat="47.96126" lon="1.94957">
        <ele>133.1</ele>
        <time>2015-09-27T08:55:43Z</time>
      </trkpt>
      <trkpt lat="47.96128" lon="1.94965">
        <ele>133.2</ele>
        <time>2015-09-27T08:55:44Z</time>
      </trkpt>
      <trkpt lat="47.96131" lon="1.94971">
        <ele>133.3</ele>
        <time>2015-09-27T08:55:45Z</time>
      </trkpt>
      <trkpt lat="47.96133" lon="1.94979">
        <ele>133.3</ele>
        <time>2015-09-27T08:55:46Z</time>
      </trkpt>
      <trkpt lat="47.96135" lon="1.94985">
        <ele>133.4</ele>
        <time>2015-09-27T08:55:47Z</time>
      </trkpt>
      <trkpt lat="47.96136" lon="1.94992">
        <ele>133.3</ele>
        <time>2015-09-27T08:55:48Z</time>
      </trkpt>
      <trkpt lat="47.96139" lon="1.94999">
        <ele>133.4</ele>
        <time>2015-09-27T08:55:49Z</time>
      </trkpt>
      <trkpt lat="47.9614" lon="1.95007">
        <ele>133.4</ele>
        <time>2015-09-27T08:55:50Z</time>
      </trkpt>
      <trkpt lat="47.96141" lon="1.95014">
        <ele>133.4</ele>
        <time>2015-09-27T08:55:51Z</time>
      </trkpt>
      <trkpt lat="47.96142" lon="1.95021">
        <ele>133.3</ele>
        <time>2015-09-27T08:55:52Z</time>
      </trkpt>
      <trkpt lat="47.96145" lon="1.95027">
        <ele>133.4</ele>
        <time>2015-09-27T08:55:53Z</time>
      </trkpt>
      <trkpt lat="47.96149" lon="1.95034">
        <ele>133.5</ele>
        <time>2015-09-27T08:55:54Z</time>
      </trkpt>
      <trkpt lat="47.96149" lon="1.95041">
        <ele>133.5</ele>
        <time>2015-09-27T08:55:55Z</time>
      </trkpt>
      <trkpt lat="47.96153" lon="1.95047">
        <ele>133.5</ele>
        <time>2015-09-27T08:55:56Z</time>
      </trkpt>
      <trkpt lat="47.96155" lon="1.95055">
        <ele>133.4</ele>
        <time>2015-09-27T08:55:57Z</time>
      </trkpt>
      <trkpt lat="47.96157" lon="1.95062">
        <ele>133.4</ele>
        <time>2015-09-27T08:55:58Z</time>
      </trkpt>
      <trkpt lat="47.96159" lon="1.95069">
        <ele>133.3</ele>
        <time>2015-09-27T08:55:59Z</time>
      </trkpt>
      <trkpt lat="47.96161" lon="1.95077">
        <ele>133.1</ele>
        <time>2015-09-27T08:56:00Z</time>
      </trkpt>
      <trkpt lat="47.96163" lon="1.95083">
        <ele>133</ele>
        <time>2015-09-27T08:56:01Z</time>
      </trkpt>
      <trkpt lat="47.96163" lon="1.95091">
        <ele>132.8</ele>
        <time>2015-09-27T08:56:02Z</time>
      </trkpt>
      <trkpt lat="47.96165" lon="1.95097">
        <ele>132.8</ele>
        <time>2015-09-27T08:56:03Z</time>
      </trkpt>
      <trkpt lat="47.96166" lon="1.95103">
        <ele>132.6</ele>
        <time>2015-09-27T08:56:04Z</time>
      </trkpt>
      <trkpt lat="47.96169" lon="1.95109">
        <ele>132.6</ele>
        <time>2015-09-27T08:56:05Z</time>
      </trkpt>
      <trkpt lat="47.96171" lon="1.95114">
        <ele>132.6</ele>
        <time>2015-09-27T08:56:06Z</time>
      </trkpt>
      <trkpt lat="47.96174" lon="1.9512">
        <ele>132.5</ele>
        <time>2015-09-27T08:56:07Z</time>
      </trkpt>
      <trkpt lat="47.96178" lon="1.95126">
        <ele>132.6</ele>
        <time>2015-09-27T08:56:08Z</time>
      </trkpt>
      <trkpt lat="47.96181" lon="1.95132">
        <ele>132.7</ele>
        <time>2015-09-27T08:56:09Z</time>
      </trkpt>
      <trkpt lat="47.96184" lon="1.95138">
        <ele>132.8</ele>
        <time>2015-09-27T08:56:10Z</time>
      </trkpt>
      <trkpt lat="47.96185" lon="1.95145">
        <ele>132.9</ele>
        <time>2015-09-27T08:56:11Z</time>
      </trkpt>
      <trkpt lat="47.96185" lon="1.95154">
        <ele>132.9</ele>
        <time>2015-09-27T08:56:12Z</time>
      </trkpt>
      <trkpt lat="47.96187" lon="1.95161">
        <ele>133</ele>
        <time>2015-09-27T08:56:13Z</time>
      </trkpt>
      <trkpt lat="47.96188" lon="1.95169">
        <ele>133</ele>
        <time>2015-09-27T08:56:14Z</time>
      </trkpt>
      <trkpt lat="47.9619" lon="1.95175">
        <ele>133.1</ele>
        <time>2015-09-27T08:56:15Z</time>
      </trkpt>
      <trkpt lat="47.96193" lon="1.95183">
        <ele>133.3</ele>
        <time>2015-09-27T08:56:16Z</time>
      </trkpt>
      <trkpt lat="47.96194" lon="1.9519">
        <ele>133.3</ele>
        <time>2015-09-27T08:56:17Z</time>
      </trkpt>
      <trkpt lat="47.96197" lon="1.95196">
        <ele>133.4</ele>
        <time>2015-09-27T08:56:18Z</time>
      </trkpt>
      <trkpt lat="47.96198" lon="1.95202">
        <ele>133.5</ele>
        <time>2015-09-27T08:56:19Z</time>
      </trkpt>
      <trkpt lat="47.96199" lon="1.95208">
        <ele>133.6</ele>
        <time>2015-09-27T08:56:20Z</time>
      </trkpt>
      <trkpt lat="47.96201" lon="1.95215">
        <ele>133.5</ele>
        <time>2015-09-27T08:56:21Z</time>
      </trkpt>
      <trkpt lat="47.96203" lon="1.95221">
        <ele>133.5</ele>
        <time>2015-09-27T08:56:22Z</time>
      </trkpt>
      <trkpt lat="47.96206" lon="1.95227">
        <ele>133.5</ele>
        <time>2015-09-27T08:56:23Z</time>
      </trkpt>
      <trkpt lat="47.96209" lon="1.95234">
        <ele>133.4</ele>
        <time>2015-09-27T08:56:24Z</time>
      </trkpt>
      <trkpt lat="47.96212" lon="1.95243">
        <ele>133.4</ele>
        <time>2015-09-27T08:56:25Z</time>
      </trkpt>
      <trkpt lat="47.96214" lon="1.95251">
        <ele>133.3</ele>
        <time>2015-09-27T08:56:26Z</time>
      </trkpt>
      <trkpt lat="47.96216" lon="1.95259">
        <ele>133.2</ele>
        <time>2015-09-27T08:56:27Z</time>
      </trkpt>
      <trkpt lat="47.96219" lon="1.95266">
        <ele>133.2</ele>
        <time>2015-09-27T08:56:28Z</time>
      </trkpt>
      <trkpt lat="47.9622" lon="1.95272">
        <ele>133.1</ele>
        <time>2015-09-27T08:56:29Z</time>
      </trkpt>
      <trkpt lat="47.96222" lon="1.9528">
        <ele>133</ele>
        <time>2015-09-27T08:56:30Z</time>
      </trkpt>
      <trkpt lat="47.96225" lon="1.95287">
        <ele>133.1</ele>
        <time>2015-09-27T08:56:31Z</time>
      </trkpt>
      <trkpt lat="47.96229" lon="1.95292">
        <ele>133.2</ele>
        <time>2015-09-27T08:56:32Z</time>
      </trkpt>
      <trkpt lat="47.96231" lon="1.95298">
        <ele>133.3</ele>
        <time>2015-09-27T08:56:33Z</time>
      </trkpt>
      <trkpt lat="47.96233" lon="1.95305">
        <ele>133.4</ele>
        <time>2015-09-27T08:56:34Z</time>
      </trkpt>
      <trkpt lat="47.96234" lon="1.95313">
        <ele>133.4</ele>
        <time>2015-09-27T08:56:35Z</time>
      </trkpt>
      <trkpt lat="47.96237" lon="1.95321">
        <ele>133.5</ele>
        <time>2015-09-27T08:56:36Z</time>
      </trkpt>
      <trkpt lat="47.96238" lon="1.95326">
        <ele>133.5</ele>
        <time>2015-09-27T08:56:37Z</time>
      </trkpt>
      <trkpt lat="47.96239" lon="1.95335">
        <ele>133.5</ele>
        <time>2015-09-27T08:56:38Z</time>
      </trkpt>
      <trkpt lat="47.96242" lon="1.9534">
        <ele>133.6</ele>
        <time>2015-09-27T08:56:39Z</time>
      </trkpt>
      <trkpt lat="47.96244" lon="1.95347">
        <ele>133.5</ele>
        <time>2015-09-27T08:56:40Z</time>
      </trkpt>
      <trkpt lat="47.96246" lon="1.95355">
        <ele>133.6</ele>
        <time>2015-09-27T08:56:41Z</time>
      </trkpt>
      <trkpt lat="47.96252" lon="1.95361">
        <ele>133.7</ele>
        <time>2015-09-27T08:56:42Z</time>
      </trkpt>
      <trkpt lat="47.96254" lon="1.95368">
        <ele>133.7</ele>
        <time>2015-09-27T08:56:43Z</time>
      </trkpt>
      <trkpt lat="47.96257" lon="1.95375">
        <ele>133.8</ele>
        <time>2015-09-27T08:56:44Z</time>
      </trkpt>
      <trkpt lat="47.96257" lon="1.95384">
        <ele>133.9</ele>
        <time>2015-09-27T08:56:45Z</time>
      </trkpt>
      <trkpt lat="47.96259" lon="1.95393">
        <ele>134</ele>
        <time>2015-09-27T08:56:46Z</time>
      </trkpt>
      <trkpt lat="47.96261" lon="1.954">
        <ele>134.1</ele>
        <time>2015-09-27T08:56:47Z</time>
      </trkpt>
      <trkpt lat="47.96263" lon="1.95407">
        <ele>134.2</ele>
        <time>2015-09-27T08:56:48Z</time>
      </trkpt>
      <trkpt lat="47.96266" lon="1.95415">
        <ele>134.4</ele>
        <time>2015-09-27T08:56:49Z</time>
      </trkpt>
      <trkpt lat="47.96269" lon="1.95421">
        <ele>134.5</ele>
        <time>2015-09-27T08:56:50Z</time>
      </trkpt>
      <trkpt lat="47.96269" lon="1.95429">
        <ele>134.5</ele>
        <time>2015-09-27T08:56:51Z</time>
      </trkpt>
      <trkpt lat="47.96272" lon="1.95436">
        <ele>134.6</ele>
        <time>2015-09-27T08:56:52Z</time>
      </trkpt>
      <trkpt lat="47.96274" lon="1.95443">
        <ele>134.7</ele>
        <time>2015-09-27T08:56:53Z</time>
      </trkpt>
      <trkpt lat="47.96276" lon="1.95451">
        <ele>134.8</ele>
        <time>2015-09-27T08:56:54Z</time>
      </trkpt>
      <trkpt lat="47.96278" lon="1.95457">
        <ele>134.8</ele>
        <time>2015-09-27T08:56:55Z</time>
      </trkpt>
      <trkpt lat="47.9628" lon="1.95463">
        <ele>135</ele>
        <time>2015-09-27T08:56:56Z</time>
      </trkpt>
      <trkpt lat="47.96283" lon="1.9547">
        <ele>135.3</ele>
        <time>2015-09-27T08:56:57Z</time>
      </trkpt>
      <trkpt lat="47.96286" lon="1.95476">
        <ele>135.6</ele>
        <time>2015-09-27T08:56:58Z</time>
      </trkpt>
      <trkpt lat="47.96288" lon="1.95483">
        <ele>135.8</ele>
        <time>2015-09-27T08:56:59Z</time>
      </trkpt>
      <trkpt lat="47.96291" lon="1.95489">
        <ele>136.1</ele>
        <time>2015-09-27T08:57:00Z</time>
      </trkpt>
      <trkpt lat="47.96292" lon="1.95494">
        <ele>136.3</ele>
        <time>2015-09-27T08:57:01Z</time>
      </trkpt>
      <trkpt lat="47.96295" lon="1.95501">
        <ele>136.6</ele>
        <time>2015-09-27T08:57:02Z</time>
      </trkpt>
      <trkpt lat="47.96294" lon="1.95507">
        <ele>136.8</ele>
        <time>2015-09-27T08:57:03Z</time>
      </trkpt>
      <trkpt lat="47.96299" lon="1.95513">
        <ele>137.1</ele>
        <time>2015-09-27T08:57:04Z</time>
      </trkpt>
      <trkpt lat="47.96302" lon="1.9552">
        <ele>137.4</ele>
        <time>2015-09-27T08:57:05Z</time>
      </trkpt>
      <trkpt lat="47.96307" lon="1.95526">
        <ele>137.7</ele>
        <time>2015-09-27T08:57:06Z</time>
      </trkpt>
      <trkpt lat="47.96308" lon="1.95533">
        <ele>137.9</ele>
        <time>2015-09-27T08:57:07Z</time>
      </trkpt>
      <trkpt lat="47.96311" lon="1.9554">
        <ele>138.2</ele>
        <time>2015-09-27T08:57:08Z</time>
      </trkpt>
      <trkpt lat="47.96313" lon="1.95547">
        <ele>138.2</ele>
        <time>2015-09-27T08:57:09Z</time>
      </trkpt>
      <trkpt lat="47.96313" lon="1.95553">
        <ele>138.1</ele>
        <time>2015-09-27T08:57:10Z</time>
      </trkpt>
      <trkpt lat="47.96315" lon="1.95561">
        <ele>138</ele>
        <time>2015-09-27T08:57:11Z</time>
      </trkpt>
      <trkpt lat="47.96315" lon="1.95568">
        <ele>137.9</ele>
        <time>2015-09-27T08:57:12Z</time>
      </trkpt>
      <trkpt lat="47.96317" lon="1.95574">
        <ele>137.8</ele>
        <time>2015-09-27T08:57:13Z</time>
      </trkpt>
      <trkpt lat="47.96318" lon="1.95581">
        <ele>137.7</ele>
        <time>2015-09-27T08:57:14Z</time>
      </trkpt>
      <trkpt lat="47.9632" lon="1.95588">
        <ele>137.6</ele>
        <time>2015-09-27T08:57:15Z</time>
      </trkpt>
      <trkpt lat="47.96322" lon="1.95595">
        <ele>137.5</ele>
        <time>2015-09-27T08:57:16Z</time>
      </trkpt>
      <trkpt lat="47.96324" lon="1.95602">
        <ele>137.4</ele>
        <time>2015-09-27T08:57:17Z</time>
      </trkpt>
      <trkpt lat="47.96326" lon="1.95607">
        <ele>137.3</ele>
        <time>2015-09-27T08:57:18Z</time>
      </trkpt>
      <trkpt lat="47.96328" lon="1.95613">
        <ele>137.2</ele>
        <time>2015-09-27T08:57:19Z</time>
      </trkpt>
      <trkpt lat="47.96331" lon="1.95619">
        <ele>137.1</ele>
        <time>2015-09-27T08:57:20Z</time>
      </trkpt>
      <trkpt lat="47.96334" lon="1.95624">
        <ele>137</ele>
        <time>2015-09-27T08:57:21Z</time>
      </trkpt>
      <trkpt lat="47.96336" lon="1.95629">
        <ele>137</ele>
        <time>2015-09-27T08:57:22Z</time>
      </trkpt>
      <trkpt lat="47.96338" lon="1.95634">
        <ele>137</ele>
        <time>2015-09-27T08:57:23Z</time>
      </trkpt>
      <trkpt lat="47.9634" lon="1.95638">
        <ele>137</ele>
        <time>2015-09-27T08:57:24Z</time>
      </trkpt>
      <trkpt lat="47.9634" lon="1.95642">
        <ele>137</ele>
        <time>2015-09-27T08:57:25Z</time>
      </trkpt>
      <trkpt lat="47.96342" lon="1.95647">
        <ele>137.1</ele>
        <time>2015-09-27T08:57:26Z</time>
      </trkpt>
      <trkpt lat="47.96341" lon="1.95653">
        <ele>137.1</ele>
        <time>2015-09-27T08:57:27Z</time>
      </trkpt>
      <trkpt lat="47.96341" lon="1.95657">
        <ele>137.1</ele>
        <time>2015-09-27T08:57:28Z</time>
      </trkpt>
      <trkpt lat="47.96341" lon="1.95661">
        <ele>137.1</ele>
        <time>2015-09-27T08:57:29Z</time>
      </trkpt>
      <trkpt lat="47.96341" lon="1.95665">
        <ele>137.1</ele>
        <time>2015-09-27T08:57:30Z</time>
      </trkpt>
      <trkpt lat="47.9634" lon="1.95671">
        <ele>137.1</ele>
        <time>2015-09-27T08:57:32Z</time>
      </trkpt>
      <trkpt lat="47.96338" lon="1.95675">
        <ele>137.1</ele>
        <time>2015-09-27T08:57:34Z</time>
      </trkpt>
      <trkpt lat="47.9634" lon="1.95674">
        <ele>137.1</ele>
        <time>2015-09-27T08:57:37Z</time>
      </trkpt>
      <trkpt lat="47.96344" lon="1.95674">
        <ele>137.1</ele>
        <time>2015-09-27T08:57:39Z</time>
      </trkpt>
      <trkpt lat="47.96345" lon="1.95679">
        <ele>137.2</ele>
        <time>2015-09-27T08:57:41Z</time>
      </trkpt>
      <trkpt lat="47.96344" lon="1.95684">
        <ele>137.2</ele>
        <time>2015-09-27T08:57:43Z</time>
      </trkpt>
      <trkpt lat="47.96343" lon="1.95689">
        <ele>137.2</ele>
        <time>2015-09-27T08:57:44Z</time>
      </trkpt>
      <trkpt lat="47.96343" lon="1.95695">
        <ele>137.2</ele>
        <time>2015-09-27T08:57:45Z</time>
      </trkpt>
      <trkpt lat="47.96342" lon="1.957">
        <ele>137.2</ele>
        <time>2015-09-27T08:57:46Z</time>
      </trkpt>
      <trkpt lat="47.96341" lon="1.95705">
        <ele>137.2</ele>
        <time>2015-09-27T08:57:47Z</time>
      </trkpt>
      <trkpt lat="47.9634" lon="1.9571">
        <ele>137.2</ele>
        <time>2015-09-27T08:57:48Z</time>
      </trkpt>
      <trkpt lat="47.96339" lon="1.95715">
        <ele>137.3</ele>
        <time>2015-09-27T08:57:49Z</time>
      </trkpt>
      <trkpt lat="47.96337" lon="1.9572">
        <ele>137.3</ele>
        <time>2015-09-27T08:57:50Z</time>
      </trkpt>
      <trkpt lat="47.96336" lon="1.95725">
        <ele>137.4</ele>
        <time>2015-09-27T08:57:51Z</time>
      </trkpt>
      <trkpt lat="47.96334" lon="1.9573">
        <ele>137.4</ele>
        <time>2015-09-27T08:57:52Z</time>
      </trkpt>
      <trkpt lat="47.96333" lon="1.95735">
        <ele>137.5</ele>
        <time>2015-09-27T08:57:53Z</time>
      </trkpt>
      <trkpt lat="47.96332" lon="1.9574">
        <ele>137.5</ele>
        <time>2015-09-27T08:57:54Z</time>
      </trkpt>
      <trkpt lat="47.96331" lon="1.95745">
        <ele>137.6</ele>
        <time>2015-09-27T08:57:55Z</time>
      </trkpt>
      <trkpt lat="47.9633" lon="1.9575">
        <ele>137.6</ele>
        <time>2015-09-27T08:57:56Z</time>
      </trkpt>
      <trkpt lat="47.96329" lon="1.95755">
        <ele>137.7</ele>
        <time>2015-09-27T08:57:57Z</time>
      </trkpt>
      <trkpt lat="47.96327" lon="1.9576">
        <ele>137.7</ele>
        <time>2015-09-27T08:57:58Z</time>
      </trkpt>
      <trkpt lat="47.96326" lon="1.95765">
        <ele>137.8</ele>
        <time>2015-09-27T08:57:59Z</time>
      </trkpt>
      <trkpt lat="47.96325" lon="1.95771">
        <ele>137.9</ele>
        <time>2015-09-27T08:58:00Z</time>
      </trkpt>
      <trkpt lat="47.96323" lon="1.95777">
        <ele>137.9</ele>
        <time>2015-09-27T08:58:01Z</time>
      </trkpt>
      <trkpt lat="47.96322" lon="1.95783">
        <ele>137.9</ele>
        <time>2015-09-27T08:58:02Z</time>
      </trkpt>
      <trkpt lat="47.9632" lon="1.95789">
        <ele>138</ele>
        <time>2015-09-27T08:58:03Z</time>
      </trkpt>
      <trkpt lat="47.96318" lon="1.95795">
        <ele>137.9</ele>
        <time>2015-09-27T08:58:04Z</time>
      </trkpt>
      <trkpt lat="47.96316" lon="1.95801">
        <ele>137.8</ele>
        <time>2015-09-27T08:58:05Z</time>
      </trkpt>
      <trkpt lat="47.96314" lon="1.95807">
        <ele>137.7</ele>
        <time>2015-09-27T08:58:06Z</time>
      </trkpt>
      <trkpt lat="47.96312" lon="1.95815">
        <ele>137.6</ele>
        <time>2015-09-27T08:58:07Z</time>
      </trkpt>
      <trkpt lat="47.96309" lon="1.9582">
        <ele>137.5</ele>
        <time>2015-09-27T08:58:08Z</time>
      </trkpt>
      <trkpt lat="47.96306" lon="1.95827">
        <ele>137.4</ele>
        <time>2015-09-27T08:58:09Z</time>
      </trkpt>
      <trkpt lat="47.96304" lon="1.95835">
        <ele>137.3</ele>
        <time>2015-09-27T08:58:10Z</time>
      </trkpt>
      <trkpt lat="47.96301" lon="1.95843">
        <ele>137.2</ele>
        <time>2015-09-27T08:58:11Z</time>
      </trkpt>
      <trkpt lat="47.96299" lon="1.95853">
        <ele>137.1</ele>
        <time>2015-09-27T08:58:12Z</time>
      </trkpt>
      <trkpt lat="47.96297" lon="1.95861">
        <ele>137.1</ele>
        <time>2015-09-27T08:58:13Z</time>
      </trkpt>
      <trkpt lat="47.96296" lon="1.95872">
        <ele>137</ele>
        <time>2015-09-27T08:58:14Z</time>
      </trkpt>
      <trkpt lat="47.96294" lon="1.95882">
        <ele>136.9</ele>
        <time>2015-09-27T08:58:15Z</time>
      </trkpt>
      <trkpt lat="47.96291" lon="1.95889">
        <ele>136.8</ele>
        <time>2015-09-27T08:58:16Z</time>
      </trkpt>
      <trkpt lat="47.9629" lon="1.95898">
        <ele>136.7</ele>
        <time>2015-09-27T08:58:17Z</time>
      </trkpt>
      <trkpt lat="47.96286" lon="1.95905">
        <ele>136.4</ele>
        <time>2015-09-27T08:58:18Z</time>
      </trkpt>
      <trkpt lat="47.96285" lon="1.95915">
        <ele>136.3</ele>
        <time>2015-09-27T08:58:19Z</time>
      </trkpt>
      <trkpt lat="47.96284" lon="1.95922">
        <ele>136.2</ele>
        <time>2015-09-27T08:58:20Z</time>
      </trkpt>
      <trkpt lat="47.96281" lon="1.95928">
        <ele>136.1</ele>
        <time>2015-09-27T08:58:21Z</time>
      </trkpt>
      <trkpt lat="47.96279" lon="1.95934">
        <ele>136</ele>
        <time>2015-09-27T08:58:22Z</time>
      </trkpt>
      <trkpt lat="47.96275" lon="1.95937">
        <ele>135.8</ele>
        <time>2015-09-27T08:58:23Z</time>
      </trkpt>
      <trkpt lat="47.96272" lon="1.95941">
        <ele>135.7</ele>
        <time>2015-09-27T08:58:24Z</time>
      </trkpt>
      <trkpt lat="47.96268" lon="1.95941">
        <ele>135.6</ele>
        <time>2015-09-27T08:58:25Z</time>
      </trkpt>
      <trkpt lat="47.96264" lon="1.95945">
        <ele>135.5</ele>
        <time>2015-09-27T08:58:27Z</time>
      </trkpt>
      <trkpt lat="47.96262" lon="1.95946">
        <ele>135.4</ele>
        <time>2015-09-27T08:58:28Z</time>
      </trkpt>
      <trkpt lat="47.96256" lon="1.95949">
        <ele>135.2</ele>
        <time>2015-09-27T08:58:29Z</time>
      </trkpt>
      <trkpt lat="47.96249" lon="1.95953">
        <ele>135</ele>
        <time>2015-09-27T08:58:30Z</time>
      </trkpt>
      <trkpt lat="47.96244" lon="1.95955">
        <ele>134.9</ele>
        <time>2015-09-27T08:58:31Z</time>
      </trkpt>
      <trkpt lat="47.96237" lon="1.95959">
        <ele>134.7</ele>
        <time>2015-09-27T08:58:32Z</time>
      </trkpt>
      <trkpt lat="47.9623" lon="1.95962">
        <ele>134.4</ele>
        <time>2015-09-27T08:58:33Z</time>
      </trkpt>
      <trkpt lat="47.96223" lon="1.95965">
        <ele>134.2</ele>
        <time>2015-09-27T08:58:34Z</time>
      </trkpt>
      <trkpt lat="47.96215" lon="1.95969">
        <ele>133.9</ele>
        <time>2015-09-27T08:58:35Z</time>
      </trkpt>
      <trkpt lat="47.9621" lon="1.95971">
        <ele>133.7</ele>
        <time>2015-09-27T08:58:36Z</time>
      </trkpt>
      <trkpt lat="47.96202" lon="1.95974">
        <ele>133.4</ele>
        <time>2015-09-27T08:58:37Z</time>
      </trkpt>
      <trkpt lat="47.96194" lon="1.95973">
        <ele>133.3</ele>
        <time>2015-09-27T08:58:38Z</time>
      </trkpt>
      <trkpt lat="47.96186" lon="1.95973">
        <ele>133.1</ele>
        <time>2015-09-27T08:58:39Z</time>
      </trkpt>
      <trkpt lat="47.96178" lon="1.95972">
        <ele>132.9</ele>
        <time>2015-09-27T08:58:40Z</time>
      </trkpt>
      <trkpt lat="47.96171" lon="1.95971">
        <ele>132.7</ele>
        <time>2015-09-27T08:58:41Z</time>
      </trkpt>
      <trkpt lat="47.96164" lon="1.95969">
        <ele>132.6</ele>
        <time>2015-09-27T08:58:42Z</time>
      </trkpt>
      <trkpt lat="47.96157" lon="1.95967">
        <ele>132.5</ele>
        <time>2015-09-27T08:58:43Z</time>
      </trkpt>
      <trkpt lat="47.96149" lon="1.95964">
        <ele>132.4</ele>
        <time>2015-09-27T08:58:44Z</time>
      </trkpt>
      <trkpt lat="47.96142" lon="1.95963">
        <ele>132.3</ele>
        <time>2015-09-27T08:58:45Z</time>
      </trkpt>
      <trkpt lat="47.96135" lon="1.95962">
        <ele>132.1</ele>
        <time>2015-09-27T08:58:46Z</time>
      </trkpt>
      <trkpt lat="47.96127" lon="1.95961">
        <ele>132</ele>
        <time>2015-09-27T08:58:47Z</time>
      </trkpt>
      <trkpt lat="47.9612" lon="1.95961">
        <ele>131.9</ele>
        <time>2015-09-27T08:58:48Z</time>
      </trkpt>
      <trkpt lat="47.96112" lon="1.9596">
        <ele>131.9</ele>
        <time>2015-09-27T08:58:49Z</time>
      </trkpt>
      <trkpt lat="47.96105" lon="1.95959">
        <ele>132</ele>
        <time>2015-09-27T08:58:50Z</time>
      </trkpt>
      <trkpt lat="47.96097" lon="1.95957">
        <ele>132</ele>
        <time>2015-09-27T08:58:51Z</time>
      </trkpt>
      <trkpt lat="47.9609" lon="1.95955">
        <ele>132</ele>
        <time>2015-09-27T08:58:52Z</time>
      </trkpt>
      <trkpt lat="47.96083" lon="1.95954">
        <ele>132</ele>
        <time>2015-09-27T08:58:53Z</time>
      </trkpt>
      <trkpt lat="47.96077" lon="1.95954">
        <ele>132.1</ele>
        <time>2015-09-27T08:58:54Z</time>
      </trkpt>
      <trkpt lat="47.9607" lon="1.95953">
        <ele>132.1</ele>
        <time>2015-09-27T08:58:55Z</time>
      </trkpt>
      <trkpt lat="47.96063" lon="1.95954">
        <ele>132.1</ele>
        <time>2015-09-27T08:58:56Z</time>
      </trkpt>
      <trkpt lat="47.96056" lon="1.95955">
        <ele>132</ele>
        <time>2015-09-27T08:58:57Z</time>
      </trkpt>
      <trkpt lat="47.96049" lon="1.95958">
        <ele>132</ele>
        <time>2015-09-27T08:58:58Z</time>
      </trkpt>
      <trkpt lat="47.96045" lon="1.95965">
        <ele>131.9</ele>
        <time>2015-09-27T08:58:59Z</time>
      </trkpt>
      <trkpt lat="47.96044" lon="1.95976">
        <ele>131.8</ele>
        <time>2015-09-27T08:59:00Z</time>
      </trkpt>
      <trkpt lat="47.96045" lon="1.95987">
        <ele>131.6</ele>
        <time>2015-09-27T08:59:01Z</time>
      </trkpt>
      <trkpt lat="47.96046" lon="1.95997">
        <ele>131.5</ele>
        <time>2015-09-27T08:59:02Z</time>
      </trkpt>
      <trkpt lat="47.96047" lon="1.96006">
        <ele>131.4</ele>
        <time>2015-09-27T08:59:03Z</time>
      </trkpt>
      <trkpt lat="47.96048" lon="1.96015">
        <ele>131.2</ele>
        <time>2015-09-27T08:59:04Z</time>
      </trkpt>
      <trkpt lat="47.96049" lon="1.96023">
        <ele>131.1</ele>
        <time>2015-09-27T08:59:05Z</time>
      </trkpt>
      <trkpt lat="47.9605" lon="1.96031">
        <ele>131</ele>
        <time>2015-09-27T08:59:06Z</time>
      </trkpt>
      <trkpt lat="47.9605" lon="1.96039">
        <ele>130.8</ele>
        <time>2015-09-27T08:59:07Z</time>
      </trkpt>
      <trkpt lat="47.96051" lon="1.96048">
        <ele>130.7</ele>
        <time>2015-09-27T08:59:08Z</time>
      </trkpt>
      <trkpt lat="47.9605" lon="1.96056">
        <ele>130.7</ele>
        <time>2015-09-27T08:59:09Z</time>
      </trkpt>
      <trkpt lat="47.96049" lon="1.96064">
        <ele>130.6</ele>
        <time>2015-09-27T08:59:10Z</time>
      </trkpt>
      <trkpt lat="47.96048" lon="1.96072">
        <ele>130.5</ele>
        <time>2015-09-27T08:59:11Z</time>
      </trkpt>
      <trkpt lat="47.96047" lon="1.96078">
        <ele>130.5</ele>
        <time>2015-09-27T08:59:12Z</time>
      </trkpt>
      <trkpt lat="47.96048" lon="1.96083">
        <ele>130.4</ele>
        <time>2015-09-27T08:59:13Z</time>
      </trkpt>
      <trkpt lat="47.96048" lon="1.96089">
        <ele>130.4</ele>
        <time>2015-09-27T08:59:14Z</time>
      </trkpt>
      <trkpt lat="47.96049" lon="1.96096">
        <ele>130.3</ele>
        <time>2015-09-27T08:59:15Z</time>
      </trkpt>
      <trkpt lat="47.9605" lon="1.96103">
        <ele>130.2</ele>
        <time>2015-09-27T08:59:16Z</time>
      </trkpt>
      <trkpt lat="47.96049" lon="1.9611">
        <ele>130.1</ele>
        <time>2015-09-27T08:59:17Z</time>
      </trkpt>
      <trkpt lat="47.96048" lon="1.96117">
        <ele>130.1</ele>
        <time>2015-09-27T08:59:18Z</time>
      </trkpt>
      <trkpt lat="47.96047" lon="1.96123">
        <ele>130</ele>
        <time>2015-09-27T08:59:19Z</time>
      </trkpt>
      <trkpt lat="47.96046" lon="1.96129">
        <ele>129.9</ele>
        <time>2015-09-27T08:59:20Z</time>
      </trkpt>
      <trkpt lat="47.96046" lon="1.96135">
        <ele>129.7</ele>
        <time>2015-09-27T08:59:21Z</time>
      </trkpt>
      <trkpt lat="47.96046" lon="1.96142">
        <ele>129.4</ele>
        <time>2015-09-27T08:59:22Z</time>
      </trkpt>
      <trkpt lat="47.96047" lon="1.96147">
        <ele>129.3</ele>
        <time>2015-09-27T08:59:23Z</time>
      </trkpt>
      <trkpt lat="47.96047" lon="1.96153">
        <ele>129.1</ele>
        <time>2015-09-27T08:59:24Z</time>
      </trkpt>
      <trkpt lat="47.96048" lon="1.96158">
        <ele>128.9</ele>
        <time>2015-09-27T08:59:25Z</time>
      </trkpt>
      <trkpt lat="47.96048" lon="1.96164">
        <ele>128.7</ele>
        <time>2015-09-27T08:59:26Z</time>
      </trkpt>
      <trkpt lat="47.96048" lon="1.9617">
        <ele>128.6</ele>
        <time>2015-09-27T08:59:27Z</time>
      </trkpt>
      <trkpt lat="47.96049" lon="1.96176">
        <ele>128.4</ele>
        <time>2015-09-27T08:59:28Z</time>
      </trkpt>
      <trkpt lat="47.96049" lon="1.96183">
        <ele>128.2</ele>
        <time>2015-09-27T08:59:29Z</time>
      </trkpt>
      <trkpt lat="47.9605" lon="1.96189">
        <ele>128</ele>
        <time>2015-09-27T08:59:30Z</time>
      </trkpt>
      <trkpt lat="47.96051" lon="1.96195">
        <ele>127.8</ele>
        <time>2015-09-27T08:59:31Z</time>
      </trkpt>
      <trkpt lat="47.96052" lon="1.96202">
        <ele>127.7</ele>
        <time>2015-09-27T08:59:32Z</time>
      </trkpt>
      <trkpt lat="47.96053" lon="1.96208">
        <ele>127.6</ele>
        <time>2015-09-27T08:59:33Z</time>
      </trkpt>
      <trkpt lat="47.96055" lon="1.96214">
        <ele>127.5</ele>
        <time>2015-09-27T08:59:34Z</time>
      </trkpt>
      <trkpt lat="47.96056" lon="1.9622">
        <ele>127.5</ele>
        <time>2015-09-27T08:59:35Z</time>
      </trkpt>
      <trkpt lat="47.96058" lon="1.96226">
        <ele>127.5</ele>
        <time>2015-09-27T08:59:36Z</time>
      </trkpt>
      <trkpt lat="47.96059" lon="1.96232">
        <ele>127.5</ele>
        <time>2015-09-27T08:59:37Z</time>
      </trkpt>
      <trkpt lat="47.96061" lon="1.96239">
        <ele>127.5</ele>
        <time>2015-09-27T08:59:38Z</time>
      </trkpt>
      <trkpt lat="47.96063" lon="1.96245">
        <ele>127.5</ele>
        <time>2015-09-27T08:59:39Z</time>
      </trkpt>
      <trkpt lat="47.96065" lon="1.96251">
        <ele>127.5</ele>
        <time>2015-09-27T08:59:40Z</time>
      </trkpt>
      <trkpt lat="47.96068" lon="1.96257">
        <ele>127.6</ele>
        <time>2015-09-27T08:59:41Z</time>
      </trkpt>
      <trkpt lat="47.9607" lon="1.96263">
        <ele>127.7</ele>
        <time>2015-09-27T08:59:42Z</time>
      </trkpt>
      <trkpt lat="47.96072" lon="1.96269">
        <ele>127.8</ele>
        <time>2015-09-27T08:59:43Z</time>
      </trkpt>
      <trkpt lat="47.96073" lon="1.96275">
        <ele>127.8</ele>
        <time>2015-09-27T08:59:44Z</time>
      </trkpt>
      <trkpt lat="47.96075" lon="1.96281">
        <ele>127.9</ele>
        <time>2015-09-27T08:59:45Z</time>
      </trkpt>
      <trkpt lat="47.96076" lon="1.96287">
        <ele>128</ele>
        <time>2015-09-27T08:59:46Z</time>
      </trkpt>
      <trkpt lat="47.96078" lon="1.96293">
        <ele>128</ele>
        <time>2015-09-27T08:59:47Z</time>
      </trkpt>
      <trkpt lat="47.9608" lon="1.96298">
        <ele>128.1</ele>
        <time>2015-09-27T08:59:48Z</time>
      </trkpt>
      <trkpt lat="47.9608" lon="1.96304">
        <ele>128.1</ele>
        <time>2015-09-27T08:59:49Z</time>
      </trkpt>
      <trkpt lat="47.9608" lon="1.9631">
        <ele>128</ele>
        <time>2015-09-27T08:59:50Z</time>
      </trkpt>
      <trkpt lat="47.96078" lon="1.96315">
        <ele>127.8</ele>
        <time>2015-09-27T08:59:51Z</time>
      </trkpt>
      <trkpt lat="47.96076" lon="1.96319">
        <ele>127.6</ele>
        <time>2015-09-27T08:59:52Z</time>
      </trkpt>
      <trkpt lat="47.96072" lon="1.96322">
        <ele>127.3</ele>
        <time>2015-09-27T08:59:53Z</time>
      </trkpt>
      <trkpt lat="47.96068" lon="1.96323">
        <ele>127</ele>
        <time>2015-09-27T08:59:54Z</time>
      </trkpt>
      <trkpt lat="47.96064" lon="1.96324">
        <ele>126.7</ele>
        <time>2015-09-27T08:59:55Z</time>
      </trkpt>
      <trkpt lat="47.9606" lon="1.96326">
        <ele>126.4</ele>
        <time>2015-09-27T08:59:56Z</time>
      </trkpt>
      <trkpt lat="47.96055" lon="1.96327">
        <ele>126</ele>
        <time>2015-09-27T08:59:57Z</time>
      </trkpt>
      <trkpt lat="47.96051" lon="1.96328">
        <ele>125.7</ele>
        <time>2015-09-27T08:59:58Z</time>
      </trkpt>
      <trkpt lat="47.96046" lon="1.96329">
        <ele>125.3</ele>
        <time>2015-09-27T08:59:59Z</time>
      </trkpt>
      <trkpt lat="47.96041" lon="1.9633">
        <ele>125</ele>
        <time>2015-09-27T09:00:00Z</time>
      </trkpt>
      <trkpt lat="47.96037" lon="1.96331">
        <ele>125.2</ele>
        <time>2015-09-27T09:00:01Z</time>
      </trkpt>
      <trkpt lat="47.96032" lon="1.96332">
        <ele>125.4</ele>
        <time>2015-09-27T09:00:02Z</time>
      </trkpt>
      <trkpt lat="47.96028" lon="1.96333">
        <ele>125.6</ele>
        <time>2015-09-27T09:00:03Z</time>
      </trkpt>
      <trkpt lat="47.96023" lon="1.96334">
        <ele>125.8</ele>
        <time>2015-09-27T09:00:04Z</time>
      </trkpt>
      <trkpt lat="47.96018" lon="1.96336">
        <ele>126</ele>
        <time>2015-09-27T09:00:05Z</time>
      </trkpt>
      <trkpt lat="47.96014" lon="1.96337">
        <ele>126.2</ele>
        <time>2015-09-27T09:00:06Z</time>
      </trkpt>
      <trkpt lat="47.96009" lon="1.96337">
        <ele>126.4</ele>
        <time>2015-09-27T09:00:07Z</time>
      </trkpt>
      <trkpt lat="47.96003" lon="1.96338">
        <ele>126.6</ele>
        <time>2015-09-27T09:00:08Z</time>
      </trkpt>
      <trkpt lat="47.95998" lon="1.96339">
        <ele>126.8</ele>
        <time>2015-09-27T09:00:09Z</time>
      </trkpt>
      <trkpt lat="47.95993" lon="1.9634">
        <ele>127</ele>
        <time>2015-09-27T09:00:10Z</time>
      </trkpt>
      <trkpt lat="47.95988" lon="1.96341">
        <ele>127.2</ele>
        <time>2015-09-27T09:00:11Z</time>
      </trkpt>
      <trkpt lat="47.95982" lon="1.96342">
        <ele>127.4</ele>
        <time>2015-09-27T09:00:12Z</time>
      </trkpt>
      <trkpt lat="47.95977" lon="1.96343">
        <ele>127.6</ele>
        <time>2015-09-27T09:00:13Z</time>
      </trkpt>
      <trkpt lat="47.95972" lon="1.96344">
        <ele>127.8</ele>
        <time>2015-09-27T09:00:14Z</time>
      </trkpt>
      <trkpt lat="47.95967" lon="1.96345">
        <ele>128</ele>
        <time>2015-09-27T09:00:15Z</time>
      </trkpt>
      <trkpt lat="47.95962" lon="1.96345">
        <ele>128.2</ele>
        <time>2015-09-27T09:00:16Z</time>
      </trkpt>
      <trkpt lat="47.95957" lon="1.96346">
        <ele>128.4</ele>
        <time>2015-09-27T09:00:17Z</time>
      </trkpt>
      <trkpt lat="47.95952" lon="1.96347">
        <ele>128.6</ele>
        <time>2015-09-27T09:00:18Z</time>
      </trkpt>
      <trkpt lat="47.95948" lon="1.96348">
        <ele>128.8</ele>
        <time>2015-09-27T09:00:19Z</time>
      </trkpt>
      <trkpt lat="47.95944" lon="1.96349">
        <ele>129</ele>
        <time>2015-09-27T09:00:20Z</time>
      </trkpt>
      <trkpt lat="47.9594" lon="1.9635">
        <ele>129.2</ele>
        <time>2015-09-27T09:00:21Z</time>
      </trkpt>
      <trkpt lat="47.95936" lon="1.9635">
        <ele>129.4</ele>
        <time>2015-09-27T09:00:22Z</time>
      </trkpt>
      <trkpt lat="47.95932" lon="1.96351">
        <ele>129.6</ele>
        <time>2015-09-27T09:00:23Z</time>
      </trkpt>
      <trkpt lat="47.95928" lon="1.96351">
        <ele>129.8</ele>
        <time>2015-09-27T09:00:24Z</time>
      </trkpt>
      <trkpt lat="47.95924" lon="1.9635">
        <ele>130</ele>
        <time>2015-09-27T09:00:25Z</time>
      </trkpt>
      <trkpt lat="47.95919" lon="1.9635">
        <ele>130.2</ele>
        <time>2015-09-27T09:00:26Z</time>
      </trkpt>
      <trkpt lat="47.95915" lon="1.9635">
        <ele>130.4</ele>
        <time>2015-09-27T09:00:27Z</time>
      </trkpt>
      <trkpt lat="47.9591" lon="1.96349">
        <ele>130.7</ele>
        <time>2015-09-27T09:00:28Z</time>
      </trkpt>
      <trkpt lat="47.95904" lon="1.96347">
        <ele>130.9</ele>
        <time>2015-09-27T09:00:29Z</time>
      </trkpt>
      <trkpt lat="47.95899" lon="1.96346">
        <ele>131.2</ele>
        <time>2015-09-27T09:00:30Z</time>
      </trkpt>
      <trkpt lat="47.95893" lon="1.96343">
        <ele>131.4</ele>
        <time>2015-09-27T09:00:31Z</time>
      </trkpt>
      <trkpt lat="47.95888" lon="1.96341">
        <ele>131.6</ele>
        <time>2015-09-27T09:00:32Z</time>
      </trkpt>
      <trkpt lat="47.95882" lon="1.96338">
        <ele>131.8</ele>
        <time>2015-09-27T09:00:33Z</time>
      </trkpt>
      <trkpt lat="47.95876" lon="1.96336">
        <ele>132</ele>
        <time>2015-09-27T09:00:34Z</time>
      </trkpt>
      <trkpt lat="47.95871" lon="1.96334">
        <ele>131.9</ele>
        <time>2015-09-27T09:00:35Z</time>
      </trkpt>
      <trkpt lat="47.95865" lon="1.96332">
        <ele>131.8</ele>
        <time>2015-09-27T09:00:36Z</time>
      </trkpt>
      <trkpt lat="47.95858" lon="1.9633">
        <ele>131.6</ele>
        <time>2015-09-27T09:00:37Z</time>
      </trkpt>
      <trkpt lat="47.95851" lon="1.96328">
        <ele>131.5</ele>
        <time>2015-09-27T09:00:38Z</time>
      </trkpt>
      <trkpt lat="47.95845" lon="1.96325">
        <ele>131.3</ele>
        <time>2015-09-27T09:00:39Z</time>
      </trkpt>
      <trkpt lat="47.95839" lon="1.96322">
        <ele>131.1</ele>
        <time>2015-09-27T09:00:40Z</time>
      </trkpt>
      <trkpt lat="47.95833" lon="1.96317">
        <ele>131</ele>
        <time>2015-09-27T09:00:41Z</time>
      </trkpt>
      <trkpt lat="47.95829" lon="1.96313">
        <ele>130.8</ele>
        <time>2015-09-27T09:00:42Z</time>
      </trkpt>
      <trkpt lat="47.95825" lon="1.96308">
        <ele>130.7</ele>
        <time>2015-09-27T09:00:43Z</time>
      </trkpt>
      <trkpt lat="47.95821" lon="1.96302">
        <ele>130.5</ele>
        <time>2015-09-27T09:00:44Z</time>
      </trkpt>
      <trkpt lat="47.95816" lon="1.96292">
        <ele>130.3</ele>
        <time>2015-09-27T09:00:45Z</time>
      </trkpt>
      <trkpt lat="47.95811" lon="1.9628">
        <ele>130.1</ele>
        <time>2015-09-27T09:00:46Z</time>
      </trkpt>
      <trkpt lat="47.95809" lon="1.9627">
        <ele>129.9</ele>
        <time>2015-09-27T09:00:47Z</time>
      </trkpt>
      <trkpt lat="47.95801" lon="1.96266">
        <ele>129.8</ele>
        <time>2015-09-27T09:00:48Z</time>
      </trkpt>
      <trkpt lat="47.95798" lon="1.96264">
        <ele>129.7</ele>
        <time>2015-09-27T09:00:49Z</time>
      </trkpt>
      <trkpt lat="47.95789" lon="1.96259">
        <ele>129.5</ele>
        <time>2015-09-27T09:00:50Z</time>
      </trkpt>
      <trkpt lat="47.95783" lon="1.96251">
        <ele>129.3</ele>
        <time>2015-09-27T09:00:51Z</time>
      </trkpt>
      <trkpt lat="47.95777" lon="1.96246">
        <ele>129</ele>
        <time>2015-09-27T09:00:52Z</time>
      </trkpt>
      <trkpt lat="47.95775" lon="1.9624">
        <ele>128.9</ele>
        <time>2015-09-27T09:00:53Z</time>
      </trkpt>
      <trkpt lat="47.9577" lon="1.96235">
        <ele>128.7</ele>
        <time>2015-09-27T09:00:54Z</time>
      </trkpt>
      <trkpt lat="47.95764" lon="1.9623">
        <ele>128.5</ele>
        <time>2015-09-27T09:00:56Z</time>
      </trkpt>
      <trkpt lat="47.95757" lon="1.96224">
        <ele>128.3</ele>
        <time>2015-09-27T09:00:57Z</time>
      </trkpt>
      <trkpt lat="47.95751" lon="1.9622">
        <ele>128.1</ele>
        <time>2015-09-27T09:00:58Z</time>
      </trkpt>
      <trkpt lat="47.95748" lon="1.96217">
        <ele>128</ele>
        <time>2015-09-27T09:00:59Z</time>
      </trkpt>
      <trkpt lat="47.95743" lon="1.96212">
        <ele>127.8</ele>
        <time>2015-09-27T09:01:00Z</time>
      </trkpt>
      <trkpt lat="47.95736" lon="1.96206">
        <ele>127.7</ele>
        <time>2015-09-27T09:01:01Z</time>
      </trkpt>
      <trkpt lat="47.95727" lon="1.96196">
        <ele>127.6</ele>
        <time>2015-09-27T09:01:02Z</time>
      </trkpt>
      <trkpt lat="47.95721" lon="1.96194">
        <ele>127.5</ele>
        <time>2015-09-27T09:01:03Z</time>
      </trkpt>
      <trkpt lat="47.95726" lon="1.96195">
        <ele>127.6</ele>
        <time>2015-09-27T09:01:04Z</time>
      </trkpt>
      <trkpt lat="47.95727" lon="1.962">
        <ele>127.5</ele>
        <time>2015-09-27T09:01:12Z</time>
      </trkpt>
      <trkpt lat="47.95725" lon="1.96204">
        <ele>127.4</ele>
        <time>2015-09-27T09:01:13Z</time>
      </trkpt>
      <trkpt lat="47.95723" lon="1.96208">
        <ele>127.4</ele>
        <time>2015-09-27T09:01:14Z</time>
      </trkpt>
      <trkpt lat="47.95722" lon="1.96216">
        <ele>127.3</ele>
        <time>2015-09-27T09:01:16Z</time>
      </trkpt>
      <trkpt lat="47.95722" lon="1.96222">
        <ele>127.4</ele>
        <time>2015-09-27T09:01:17Z</time>
      </trkpt>
      <trkpt lat="47.95722" lon="1.96229">
        <ele>127.4</ele>
        <time>2015-09-27T09:01:18Z</time>
      </trkpt>
      <trkpt lat="47.95722" lon="1.96237">
        <ele>127.4</ele>
        <time>2015-09-27T09:01:19Z</time>
      </trkpt>
      <trkpt lat="47.95722" lon="1.96245">
        <ele>127.4</ele>
        <time>2015-09-27T09:01:20Z</time>
      </trkpt>
      <trkpt lat="47.95722" lon="1.96252">
        <ele>127.4</ele>
        <time>2015-09-27T09:01:21Z</time>
      </trkpt>
      <trkpt lat="47.95721" lon="1.96259">
        <ele>127.4</ele>
        <time>2015-09-27T09:01:22Z</time>
      </trkpt>
      <trkpt lat="47.95721" lon="1.96266">
        <ele>127.4</ele>
        <time>2015-09-27T09:01:23Z</time>
      </trkpt>
      <trkpt lat="47.95721" lon="1.96272">
        <ele>127.4</ele>
        <time>2015-09-27T09:01:24Z</time>
      </trkpt>
      <trkpt lat="47.95721" lon="1.96279">
        <ele>127.4</ele>
        <time>2015-09-27T09:01:25Z</time>
      </trkpt>
      <trkpt lat="47.95722" lon="1.96286">
        <ele>127.5</ele>
        <time>2015-09-27T09:01:26Z</time>
      </trkpt>
      <trkpt lat="47.95722" lon="1.96292">
        <ele>127.5</ele>
        <time>2015-09-27T09:01:27Z</time>
      </trkpt>
      <trkpt lat="47.95723" lon="1.96299">
        <ele>127.6</ele>
        <time>2015-09-27T09:01:28Z</time>
      </trkpt>
      <trkpt lat="47.95723" lon="1.96306">
        <ele>127.7</ele>
        <time>2015-09-27T09:01:29Z</time>
      </trkpt>
      <trkpt lat="47.95723" lon="1.96313">
        <ele>127.8</ele>
        <time>2015-09-27T09:01:30Z</time>
      </trkpt>
      <trkpt lat="47.95723" lon="1.9632">
        <ele>127.9</ele>
        <time>2015-09-27T09:01:31Z</time>
      </trkpt>
      <trkpt lat="47.95723" lon="1.96327">
        <ele>127.9</ele>
        <time>2015-09-27T09:01:32Z</time>
      </trkpt>
      <trkpt lat="47.95723" lon="1.96334">
        <ele>128</ele>
        <time>2015-09-27T09:01:33Z</time>
      </trkpt>
      <trkpt lat="47.95723" lon="1.96342">
        <ele>128.1</ele>
        <time>2015-09-27T09:01:34Z</time>
      </trkpt>
      <trkpt lat="47.95723" lon="1.9635">
        <ele>128.2</ele>
        <time>2015-09-27T09:01:35Z</time>
      </trkpt>
      <trkpt lat="47.95724" lon="1.96357">
        <ele>128.3</ele>
        <time>2015-09-27T09:01:36Z</time>
      </trkpt>
      <trkpt lat="47.95724" lon="1.96365">
        <ele>128.4</ele>
        <time>2015-09-27T09:01:37Z</time>
      </trkpt>
      <trkpt lat="47.95724" lon="1.96374">
        <ele>128.6</ele>
        <time>2015-09-27T09:01:38Z</time>
      </trkpt>
      <trkpt lat="47.95725" lon="1.96385">
        <ele>128.4</ele>
        <time>2015-09-27T09:01:39Z</time>
      </trkpt>
      <trkpt lat="47.95725" lon="1.96394">
        <ele>128.2</ele>
        <time>2015-09-27T09:01:40Z</time>
      </trkpt>
      <trkpt lat="47.95725" lon="1.96402">
        <ele>128</ele>
        <time>2015-09-27T09:01:41Z</time>
      </trkpt>
      <trkpt lat="47.95725" lon="1.9641">
        <ele>127.8</ele>
        <time>2015-09-27T09:01:42Z</time>
      </trkpt>
      <trkpt lat="47.95724" lon="1.96418">
        <ele>127.6</ele>
        <time>2015-09-27T09:01:43Z</time>
      </trkpt>
      <trkpt lat="47.95723" lon="1.96426">
        <ele>127.4</ele>
        <time>2015-09-27T09:01:44Z</time>
      </trkpt>
      <trkpt lat="47.95722" lon="1.96434">
        <ele>127.2</ele>
        <time>2015-09-27T09:01:45Z</time>
      </trkpt>
      <trkpt lat="47.95722" lon="1.96441">
        <ele>127</ele>
        <time>2015-09-27T09:01:46Z</time>
      </trkpt>
      <trkpt lat="47.95721" lon="1.96447">
        <ele>126.9</ele>
        <time>2015-09-27T09:01:47Z</time>
      </trkpt>
      <trkpt lat="47.95721" lon="1.96454">
        <ele>126.7</ele>
        <time>2015-09-27T09:01:48Z</time>
      </trkpt>
      <trkpt lat="47.95722" lon="1.96461">
        <ele>126.6</ele>
        <time>2015-09-27T09:01:49Z</time>
      </trkpt>
      <trkpt lat="47.95723" lon="1.96468">
        <ele>126.7</ele>
        <time>2015-09-27T09:01:50Z</time>
      </trkpt>
      <trkpt lat="47.95724" lon="1.96475">
        <ele>126.7</ele>
        <time>2015-09-27T09:01:51Z</time>
      </trkpt>
      <trkpt lat="47.95724" lon="1.96483">
        <ele>126.8</ele>
        <time>2015-09-27T09:01:52Z</time>
      </trkpt>
      <trkpt lat="47.95725" lon="1.96491">
        <ele>126.8</ele>
        <time>2015-09-27T09:01:53Z</time>
      </trkpt>
      <trkpt lat="47.95725" lon="1.96498">
        <ele>126.8</ele>
        <time>2015-09-27T09:01:54Z</time>
      </trkpt>
      <trkpt lat="47.95724" lon="1.96505">
        <ele>126.8</ele>
        <time>2015-09-27T09:01:55Z</time>
      </trkpt>
      <trkpt lat="47.95724" lon="1.96513">
        <ele>126.7</ele>
        <time>2015-09-27T09:01:56Z</time>
      </trkpt>
      <trkpt lat="47.95724" lon="1.9652">
        <ele>126.7</ele>
        <time>2015-09-27T09:01:57Z</time>
      </trkpt>
      <trkpt lat="47.95724" lon="1.96527">
        <ele>126.7</ele>
        <time>2015-09-27T09:01:58Z</time>
      </trkpt>
      <trkpt lat="47.95724" lon="1.96535">
        <ele>126.7</ele>
        <time>2015-09-27T09:01:59Z</time>
      </trkpt>
      <trkpt lat="47.95723" lon="1.96543">
        <ele>126.7</ele>
        <time>2015-09-27T09:02:00Z</time>
      </trkpt>
      <trkpt lat="47.95723" lon="1.96551">
        <ele>126.7</ele>
        <time>2015-09-27T09:02:01Z</time>
      </trkpt>
      <trkpt lat="47.95723" lon="1.96559">
        <ele>126.7</ele>
        <time>2015-09-27T09:02:02Z</time>
      </trkpt>
      <trkpt lat="47.95722" lon="1.96567">
        <ele>126.7</ele>
        <time>2015-09-27T09:02:03Z</time>
      </trkpt>
      <trkpt lat="47.95722" lon="1.96575">
        <ele>126.6</ele>
        <time>2015-09-27T09:02:04Z</time>
      </trkpt>
      <trkpt lat="47.95721" lon="1.96582">
        <ele>126.6</ele>
        <time>2015-09-27T09:02:05Z</time>
      </trkpt>
      <trkpt lat="47.95721" lon="1.9659">
        <ele>126.6</ele>
        <time>2015-09-27T09:02:06Z</time>
      </trkpt>
      <trkpt lat="47.9572" lon="1.96599">
        <ele>126.6</ele>
        <time>2015-09-27T09:02:07Z</time>
      </trkpt>
      <trkpt lat="47.9572" lon="1.96607">
        <ele>126.6</ele>
        <time>2015-09-27T09:02:08Z</time>
      </trkpt>
      <trkpt lat="47.9572" lon="1.96616">
        <ele>126.5</ele>
        <time>2015-09-27T09:02:09Z</time>
      </trkpt>
      <trkpt lat="47.9572" lon="1.96624">
        <ele>126.6</ele>
        <time>2015-09-27T09:02:10Z</time>
      </trkpt>
      <trkpt lat="47.9572" lon="1.96632">
        <ele>126.6</ele>
        <time>2015-09-27T09:02:11Z</time>
      </trkpt>
      <trkpt lat="47.9572" lon="1.96641">
        <ele>126.7</ele>
        <time>2015-09-27T09:02:12Z</time>
      </trkpt>
      <trkpt lat="47.9572" lon="1.96649">
        <ele>126.8</ele>
        <time>2015-09-27T09:02:13Z</time>
      </trkpt>
      <trkpt lat="47.9572" lon="1.96657">
        <ele>126.9</ele>
        <time>2015-09-27T09:02:14Z</time>
      </trkpt>
      <trkpt lat="47.9572" lon="1.96666">
        <ele>127</ele>
        <time>2015-09-27T09:02:16Z</time>
      </trkpt>
      <trkpt lat="47.95721" lon="1.96681">
        <ele>127.2</ele>
        <time>2015-09-27T09:02:17Z</time>
      </trkpt>
      <trkpt lat="47.95722" lon="1.96688">
        <ele>127.3</ele>
        <time>2015-09-27T09:02:18Z</time>
      </trkpt>
      <trkpt lat="47.95722" lon="1.96696">
        <ele>127.4</ele>
        <time>2015-09-27T09:02:19Z</time>
      </trkpt>
      <trkpt lat="47.95722" lon="1.96704">
        <ele>127.5</ele>
        <time>2015-09-27T09:02:20Z</time>
      </trkpt>
      <trkpt lat="47.95723" lon="1.96712">
        <ele>127.5</ele>
        <time>2015-09-27T09:02:21Z</time>
      </trkpt>
      <trkpt lat="47.95723" lon="1.96721">
        <ele>127.5</ele>
        <time>2015-09-27T09:02:22Z</time>
      </trkpt>
      <trkpt lat="47.95724" lon="1.96728">
        <ele>127.5</ele>
        <time>2015-09-27T09:02:23Z</time>
      </trkpt>
      <trkpt lat="47.95723" lon="1.96736">
        <ele>127.5</ele>
        <time>2015-09-27T09:02:24Z</time>
      </trkpt>
      <trkpt lat="47.95723" lon="1.96743">
        <ele>127.5</ele>
        <time>2015-09-27T09:02:25Z</time>
      </trkpt>
      <trkpt lat="47.95723" lon="1.96749">
        <ele>127.5</ele>
        <time>2015-09-27T09:02:26Z</time>
      </trkpt>
      <trkpt lat="47.95723" lon="1.96755">
        <ele>127.5</ele>
        <time>2015-09-27T09:02:27Z</time>
      </trkpt>
      <trkpt lat="47.95722" lon="1.96761">
        <ele>127.5</ele>
        <time>2015-09-27T09:02:28Z</time>
      </trkpt>
      <trkpt lat="47.95722" lon="1.96767">
        <ele>127.5</ele>
        <time>2015-09-27T09:02:29Z</time>
      </trkpt>
      <trkpt lat="47.95722" lon="1.96772">
        <ele>127.5</ele>
        <time>2015-09-27T09:02:30Z</time>
      </trkpt>
      <trkpt lat="47.95721" lon="1.96778">
        <ele>127.4</ele>
        <time>2015-09-27T09:02:31Z</time>
      </trkpt>
      <trkpt lat="47.9572" lon="1.96783">
        <ele>127.4</ele>
        <time>2015-09-27T09:02:32Z</time>
      </trkpt>
      <trkpt lat="47.9572" lon="1.96789">
        <ele>127.4</ele>
        <time>2015-09-27T09:02:33Z</time>
      </trkpt>
      <trkpt lat="47.9572" lon="1.96795">
        <ele>127.3</ele>
        <time>2015-09-27T09:02:34Z</time>
      </trkpt>
      <trkpt lat="47.9572" lon="1.96801">
        <ele>127.1</ele>
        <time>2015-09-27T09:02:35Z</time>
      </trkpt>
      <trkpt lat="47.9572" lon="1.96808">
        <ele>126.8</ele>
        <time>2015-09-27T09:02:36Z</time>
      </trkpt>
      <trkpt lat="47.95719" lon="1.96815">
        <ele>126.6</ele>
        <time>2015-09-27T09:02:37Z</time>
      </trkpt>
      <trkpt lat="47.95719" lon="1.96822">
        <ele>126.3</ele>
        <time>2015-09-27T09:02:38Z</time>
      </trkpt>
      <trkpt lat="47.9572" lon="1.96829">
        <ele>126.1</ele>
        <time>2015-09-27T09:02:39Z</time>
      </trkpt>
      <trkpt lat="47.9572" lon="1.96836">
        <ele>125.9</ele>
        <time>2015-09-27T09:02:40Z</time>
      </trkpt>
      <trkpt lat="47.9572" lon="1.96844">
        <ele>125.6</ele>
        <time>2015-09-27T09:02:41Z</time>
      </trkpt>
      <trkpt lat="47.95721" lon="1.96851">
        <ele>125.4</ele>
        <time>2015-09-27T09:02:42Z</time>
      </trkpt>
      <trkpt lat="47.95721" lon="1.96859">
        <ele>125.2</ele>
        <time>2015-09-27T09:02:43Z</time>
      </trkpt>
      <trkpt lat="47.95722" lon="1.96866">
        <ele>124.9</ele>
        <time>2015-09-27T09:02:44Z</time>
      </trkpt>
      <trkpt lat="47.95722" lon="1.96873">
        <ele>124.7</ele>
        <time>2015-09-27T09:02:45Z</time>
      </trkpt>
      <trkpt lat="47.95722" lon="1.96879">
        <ele>124.7</ele>
        <time>2015-09-27T09:02:46Z</time>
      </trkpt>
      <trkpt lat="47.95722" lon="1.96885">
        <ele>124.7</ele>
        <time>2015-09-27T09:02:47Z</time>
      </trkpt>
      <trkpt lat="47.95722" lon="1.96891">
        <ele>124.7</ele>
        <time>2015-09-27T09:02:48Z</time>
      </trkpt>
      <trkpt lat="47.95723" lon="1.96898">
        <ele>124.7</ele>
        <time>2015-09-27T09:02:49Z</time>
      </trkpt>
      <trkpt lat="47.95723" lon="1.96903">
        <ele>124.7</ele>
        <time>2015-09-27T09:02:50Z</time>
      </trkpt>
      <trkpt lat="47.95722" lon="1.96909">
        <ele>124.7</ele>
        <time>2015-09-27T09:02:51Z</time>
      </trkpt>
      <trkpt lat="47.95722" lon="1.96915">
        <ele>124.7</ele>
        <time>2015-09-27T09:02:52Z</time>
      </trkpt>
      <trkpt lat="47.95722" lon="1.9692">
        <ele>124.7</ele>
        <time>2015-09-27T09:02:53Z</time>
      </trkpt>
      <trkpt lat="47.95723" lon="1.96926">
        <ele>124.7</ele>
        <time>2015-09-27T09:02:54Z</time>
      </trkpt>
      <trkpt lat="47.95724" lon="1.96932">
        <ele>124.7</ele>
        <time>2015-09-27T09:02:55Z</time>
      </trkpt>
      <trkpt lat="47.95724" lon="1.96939">
        <ele>124.8</ele>
        <time>2015-09-27T09:02:56Z</time>
      </trkpt>
      <trkpt lat="47.95724" lon="1.96945">
        <ele>124.7</ele>
        <time>2015-09-27T09:02:57Z</time>
      </trkpt>
      <trkpt lat="47.95724" lon="1.96952">
        <ele>124.7</ele>
        <time>2015-09-27T09:02:58Z</time>
      </trkpt>
      <trkpt lat="47.95723" lon="1.96959">
        <ele>124.7</ele>
        <time>2015-09-27T09:02:59Z</time>
      </trkpt>
      <trkpt lat="47.95723" lon="1.96965">
        <ele>124.7</ele>
        <time>2015-09-27T09:03:00Z</time>
      </trkpt>
      <trkpt lat="47.95722" lon="1.96972">
        <ele>124.7</ele>
        <time>2015-09-27T09:03:01Z</time>
      </trkpt>
      <trkpt lat="47.95721" lon="1.96978">
        <ele>124.7</ele>
        <time>2015-09-27T09:03:02Z</time>
      </trkpt>
      <trkpt lat="47.9572" lon="1.96985">
        <ele>124.6</ele>
        <time>2015-09-27T09:03:03Z</time>
      </trkpt>
      <trkpt lat="47.95719" lon="1.96991">
        <ele>124.6</ele>
        <time>2015-09-27T09:03:04Z</time>
      </trkpt>
      <trkpt lat="47.95719" lon="1.96998">
        <ele>124.6</ele>
        <time>2015-09-27T09:03:05Z</time>
      </trkpt>
      <trkpt lat="47.95719" lon="1.97006">
        <ele>124.6</ele>
        <time>2015-09-27T09:03:06Z</time>
      </trkpt>
      <trkpt lat="47.95719" lon="1.97013">
        <ele>124.6</ele>
        <time>2015-09-27T09:03:07Z</time>
      </trkpt>
      <trkpt lat="47.9572" lon="1.9702">
        <ele>124.6</ele>
        <time>2015-09-27T09:03:08Z</time>
      </trkpt>
      <trkpt lat="47.9572" lon="1.97027">
        <ele>124.7</ele>
        <time>2015-09-27T09:03:09Z</time>
      </trkpt>
      <trkpt lat="47.95721" lon="1.97034">
        <ele>124.7</ele>
        <time>2015-09-27T09:03:10Z</time>
      </trkpt>
      <trkpt lat="47.95721" lon="1.97042">
        <ele>124.7</ele>
        <time>2015-09-27T09:03:11Z</time>
      </trkpt>
      <trkpt lat="47.95721" lon="1.97049">
        <ele>124.9</ele>
        <time>2015-09-27T09:03:12Z</time>
      </trkpt>
      <trkpt lat="47.95722" lon="1.97055">
        <ele>125.1</ele>
        <time>2015-09-27T09:03:13Z</time>
      </trkpt>
      <trkpt lat="47.95722" lon="1.97062">
        <ele>125.2</ele>
        <time>2015-09-27T09:03:14Z</time>
      </trkpt>
      <trkpt lat="47.95722" lon="1.97068">
        <ele>125.4</ele>
        <time>2015-09-27T09:03:15Z</time>
      </trkpt>
      <trkpt lat="47.95723" lon="1.97075">
        <ele>125.5</ele>
        <time>2015-09-27T09:03:16Z</time>
      </trkpt>
      <trkpt lat="47.95723" lon="1.97082">
        <ele>125.7</ele>
        <time>2015-09-27T09:03:17Z</time>
      </trkpt>
      <trkpt lat="47.95723" lon="1.97088">
        <ele>125.8</ele>
        <time>2015-09-27T09:03:18Z</time>
      </trkpt>
      <trkpt lat="47.95722" lon="1.97095">
        <ele>125.9</ele>
        <time>2015-09-27T09:03:19Z</time>
      </trkpt>
      <trkpt lat="47.95722" lon="1.97101">
        <ele>126</ele>
        <time>2015-09-27T09:03:20Z</time>
      </trkpt>
      <trkpt lat="47.95721" lon="1.97108">
        <ele>126.1</ele>
        <time>2015-09-27T09:03:21Z</time>
      </trkpt>
      <trkpt lat="47.95721" lon="1.97116">
        <ele>126.3</ele>
        <time>2015-09-27T09:03:22Z</time>
      </trkpt>
      <trkpt lat="47.9572" lon="1.97123">
        <ele>126.4</ele>
        <time>2015-09-27T09:03:23Z</time>
      </trkpt>
      <trkpt lat="47.9572" lon="1.97131">
        <ele>126.4</ele>
        <time>2015-09-27T09:03:24Z</time>
      </trkpt>
      <trkpt lat="47.95719" lon="1.97138">
        <ele>126.4</ele>
        <time>2015-09-27T09:03:25Z</time>
      </trkpt>
      <trkpt lat="47.95718" lon="1.97145">
        <ele>126.3</ele>
        <time>2015-09-27T09:03:26Z</time>
      </trkpt>
      <trkpt lat="47.95718" lon="1.97152">
        <ele>126.3</ele>
        <time>2015-09-27T09:03:27Z</time>
      </trkpt>
      <trkpt lat="47.95717" lon="1.97158">
        <ele>126.3</ele>
        <time>2015-09-27T09:03:28Z</time>
      </trkpt>
      <trkpt lat="47.95717" lon="1.97165">
        <ele>126.3</ele>
        <time>2015-09-27T09:03:29Z</time>
      </trkpt>
      <trkpt lat="47.95717" lon="1.97172">
        <ele>126.3</ele>
        <time>2015-09-27T09:03:30Z</time>
      </trkpt>
      <trkpt lat="47.95717" lon="1.97179">
        <ele>126.3</ele>
        <time>2015-09-27T09:03:31Z</time>
      </trkpt>
      <trkpt lat="47.95717" lon="1.97186">
        <ele>126.3</ele>
        <time>2015-09-27T09:03:32Z</time>
      </trkpt>
      <trkpt lat="47.95716" lon="1.97193">
        <ele>126.3</ele>
        <time>2015-09-27T09:03:33Z</time>
      </trkpt>
      <trkpt lat="47.95716" lon="1.972">
        <ele>126.3</ele>
        <time>2015-09-27T09:03:34Z</time>
      </trkpt>
      <trkpt lat="47.95716" lon="1.97207">
        <ele>126.3</ele>
        <time>2015-09-27T09:03:35Z</time>
      </trkpt>
      <trkpt lat="47.95716" lon="1.97215">
        <ele>126.4</ele>
        <time>2015-09-27T09:03:36Z</time>
      </trkpt>
      <trkpt lat="47.95716" lon="1.97222">
        <ele>126.6</ele>
        <time>2015-09-27T09:03:37Z</time>
      </trkpt>
      <trkpt lat="47.95716" lon="1.97229">
        <ele>126.7</ele>
        <time>2015-09-27T09:03:38Z</time>
      </trkpt>
      <trkpt lat="47.95716" lon="1.97237">
        <ele>126.9</ele>
        <time>2015-09-27T09:03:39Z</time>
      </trkpt>
      <trkpt lat="47.95716" lon="1.97244">
        <ele>127</ele>
        <time>2015-09-27T09:03:40Z</time>
      </trkpt>
      <trkpt lat="47.95716" lon="1.97251">
        <ele>127.2</ele>
        <time>2015-09-27T09:03:41Z</time>
      </trkpt>
      <trkpt lat="47.95717" lon="1.97258">
        <ele>127.4</ele>
        <time>2015-09-27T09:03:42Z</time>
      </trkpt>
      <trkpt lat="47.95717" lon="1.97263">
        <ele>127.5</ele>
        <time>2015-09-27T09:03:43Z</time>
      </trkpt>
      <trkpt lat="47.95718" lon="1.9727">
        <ele>127.7</ele>
        <time>2015-09-27T09:03:44Z</time>
      </trkpt>
      <trkpt lat="47.95719" lon="1.97276">
        <ele>127.8</ele>
        <time>2015-09-27T09:03:45Z</time>
      </trkpt>
      <trkpt lat="47.9572" lon="1.97283">
        <ele>128</ele>
        <time>2015-09-27T09:03:46Z</time>
      </trkpt>
      <trkpt lat="47.95721" lon="1.9729">
        <ele>128.1</ele>
        <time>2015-09-27T09:03:47Z</time>
      </trkpt>
      <trkpt lat="47.95721" lon="1.97297">
        <ele>128.1</ele>
        <time>2015-09-27T09:03:48Z</time>
      </trkpt>
      <trkpt lat="47.9572" lon="1.97305">
        <ele>128.1</ele>
        <time>2015-09-27T09:03:49Z</time>
      </trkpt>
      <trkpt lat="47.95721" lon="1.97314">
        <ele>128.1</ele>
        <time>2015-09-27T09:03:50Z</time>
      </trkpt>
      <trkpt lat="47.95721" lon="1.97323">
        <ele>128.1</ele>
        <time>2015-09-27T09:03:51Z</time>
      </trkpt>
      <trkpt lat="47.95722" lon="1.97331">
        <ele>128.1</ele>
        <time>2015-09-27T09:03:52Z</time>
      </trkpt>
      <trkpt lat="47.95721" lon="1.97339">
        <ele>128.1</ele>
        <time>2015-09-27T09:03:53Z</time>
      </trkpt>
      <trkpt lat="47.95721" lon="1.97345">
        <ele>128.1</ele>
        <time>2015-09-27T09:03:54Z</time>
      </trkpt>
      <trkpt lat="47.9572" lon="1.97351">
        <ele>128</ele>
        <time>2015-09-27T09:03:55Z</time>
      </trkpt>
      <trkpt lat="47.95722" lon="1.97357">
        <ele>128</ele>
        <time>2015-09-27T09:03:56Z</time>
      </trkpt>
      <trkpt lat="47.95725" lon="1.97363">
        <ele>128</ele>
        <time>2015-09-27T09:03:57Z</time>
      </trkpt>
      <trkpt lat="47.95729" lon="1.9737">
        <ele>128</ele>
        <time>2015-09-27T09:03:58Z</time>
      </trkpt>
      <trkpt lat="47.95733" lon="1.97377">
        <ele>128</ele>
        <time>2015-09-27T09:03:59Z</time>
      </trkpt>
      <trkpt lat="47.95735" lon="1.97383">
        <ele>128</ele>
        <time>2015-09-27T09:04:00Z</time>
      </trkpt>
      <trkpt lat="47.95738" lon="1.9739">
        <ele>128</ele>
        <time>2015-09-27T09:04:01Z</time>
      </trkpt>
      <trkpt lat="47.95741" lon="1.97397">
        <ele>128</ele>
        <time>2015-09-27T09:04:02Z</time>
      </trkpt>
      <trkpt lat="47.95743" lon="1.97404">
        <ele>128</ele>
        <time>2015-09-27T09:04:03Z</time>
      </trkpt>
      <trkpt lat="47.95746" lon="1.97412">
        <ele>128</ele>
        <time>2015-09-27T09:04:04Z</time>
      </trkpt>
      <trkpt lat="47.9575" lon="1.97419">
        <ele>128</ele>
        <time>2015-09-27T09:04:05Z</time>
      </trkpt>
      <trkpt lat="47.95753" lon="1.97425">
        <ele>128</ele>
        <time>2015-09-27T09:04:06Z</time>
      </trkpt>
      <trkpt lat="47.95756" lon="1.97432">
        <ele>128</ele>
        <time>2015-09-27T09:04:07Z</time>
      </trkpt>
      <trkpt lat="47.95759" lon="1.97439">
        <ele>128</ele>
        <time>2015-09-27T09:04:08Z</time>
      </trkpt>
      <trkpt lat="47.95762" lon="1.97446">
        <ele>128</ele>
        <time>2015-09-27T09:04:09Z</time>
      </trkpt>
      <trkpt lat="47.95764" lon="1.97453">
        <ele>128</ele>
        <time>2015-09-27T09:04:10Z</time>
      </trkpt>
      <trkpt lat="47.95765" lon="1.97459">
        <ele>128</ele>
        <time>2015-09-27T09:04:11Z</time>
      </trkpt>
      <trkpt lat="47.95767" lon="1.97465">
        <ele>127.9</ele>
        <time>2015-09-27T09:04:12Z</time>
      </trkpt>
      <trkpt lat="47.95769" lon="1.97471">
        <ele>127.8</ele>
        <time>2015-09-27T09:04:13Z</time>
      </trkpt>
      <trkpt lat="47.95771" lon="1.97476">
        <ele>127.7</ele>
        <time>2015-09-27T09:04:14Z</time>
      </trkpt>
      <trkpt lat="47.95773" lon="1.97481">
        <ele>127.7</ele>
        <time>2015-09-27T09:04:15Z</time>
      </trkpt>
      <trkpt lat="47.95775" lon="1.97487">
        <ele>127.6</ele>
        <time>2015-09-27T09:04:16Z</time>
      </trkpt>
      <trkpt lat="47.95777" lon="1.97492">
        <ele>127.5</ele>
        <time>2015-09-27T09:04:17Z</time>
      </trkpt>
      <trkpt lat="47.95779" lon="1.97498">
        <ele>127.5</ele>
        <time>2015-09-27T09:04:18Z</time>
      </trkpt>
      <trkpt lat="47.95781" lon="1.97503">
        <ele>127.4</ele>
        <time>2015-09-27T09:04:19Z</time>
      </trkpt>
      <trkpt lat="47.95783" lon="1.9751">
        <ele>127.3</ele>
        <time>2015-09-27T09:04:20Z</time>
      </trkpt>
      <trkpt lat="47.95785" lon="1.97517">
        <ele>127.2</ele>
        <time>2015-09-27T09:04:21Z</time>
      </trkpt>
      <trkpt lat="47.95788" lon="1.97524">
        <ele>127.2</ele>
        <time>2015-09-27T09:04:22Z</time>
      </trkpt>
      <trkpt lat="47.95791" lon="1.97532">
        <ele>127.1</ele>
        <time>2015-09-27T09:04:23Z</time>
      </trkpt>
      <trkpt lat="47.95794" lon="1.97539">
        <ele>126.9</ele>
        <time>2015-09-27T09:04:24Z</time>
      </trkpt>
      <trkpt lat="47.95798" lon="1.97546">
        <ele>126.6</ele>
        <time>2015-09-27T09:04:25Z</time>
      </trkpt>
      <trkpt lat="47.95801" lon="1.97552">
        <ele>126.3</ele>
        <time>2015-09-27T09:04:26Z</time>
      </trkpt>
      <trkpt lat="47.95805" lon="1.97561">
        <ele>126.1</ele>
        <time>2015-09-27T09:04:27Z</time>
      </trkpt>
      <trkpt lat="47.95808" lon="1.97568">
        <ele>125.9</ele>
        <time>2015-09-27T09:04:28Z</time>
      </trkpt>
      <trkpt lat="47.9581" lon="1.97575">
        <ele>125.9</ele>
        <time>2015-09-27T09:04:29Z</time>
      </trkpt>
      <trkpt lat="47.95812" lon="1.97581">
        <ele>125.9</ele>
        <time>2015-09-27T09:04:30Z</time>
      </trkpt>
      <trkpt lat="47.95813" lon="1.97585">
        <ele>125.9</ele>
        <time>2015-09-27T09:04:31Z</time>
      </trkpt>
      <trkpt lat="47.95815" lon="1.9759">
        <ele>125.9</ele>
        <time>2015-09-27T09:04:32Z</time>
      </trkpt>
      <trkpt lat="47.95818" lon="1.97594">
        <ele>125.9</ele>
        <time>2015-09-27T09:04:33Z</time>
      </trkpt>
      <trkpt lat="47.95822" lon="1.97597">
        <ele>125.9</ele>
        <time>2015-09-27T09:04:34Z</time>
      </trkpt>
      <trkpt lat="47.95826" lon="1.976">
        <ele>125.9</ele>
        <time>2015-09-27T09:04:35Z</time>
      </trkpt>
      <trkpt lat="47.9583" lon="1.97604">
        <ele>125.9</ele>
        <time>2015-09-27T09:04:36Z</time>
      </trkpt>
      <trkpt lat="47.95834" lon="1.97607">
        <ele>125.9</ele>
        <time>2015-09-27T09:04:37Z</time>
      </trkpt>
      <trkpt lat="47.95838" lon="1.9761">
        <ele>126</ele>
        <time>2015-09-27T09:04:38Z</time>
      </trkpt>
      <trkpt lat="47.95842" lon="1.97613">
        <ele>126.1</ele>
        <time>2015-09-27T09:04:40Z</time>
      </trkpt>
      <trkpt lat="47.9585" lon="1.97619">
        <ele>126.4</ele>
        <time>2015-09-27T09:04:41Z</time>
      </trkpt>
      <trkpt lat="47.95854" lon="1.97621">
        <ele>126.5</ele>
        <time>2015-09-27T09:04:42Z</time>
      </trkpt>
      <trkpt lat="47.95859" lon="1.97624">
        <ele>126.7</ele>
        <time>2015-09-27T09:04:43Z</time>
      </trkpt>
      <trkpt lat="47.95863" lon="1.97626">
        <ele>126.9</ele>
        <time>2015-09-27T09:04:44Z</time>
      </trkpt>
      <trkpt lat="47.95868" lon="1.97628">
        <ele>126.9</ele>
        <time>2015-09-27T09:04:45Z</time>
      </trkpt>
      <trkpt lat="47.95873" lon="1.9763">
        <ele>127</ele>
        <time>2015-09-27T09:04:46Z</time>
      </trkpt>
      <trkpt lat="47.95878" lon="1.97631">
        <ele>127.1</ele>
        <time>2015-09-27T09:04:47Z</time>
      </trkpt>
      <trkpt lat="47.95883" lon="1.97633">
        <ele>127.1</ele>
        <time>2015-09-27T09:04:48Z</time>
      </trkpt>
      <trkpt lat="47.95888" lon="1.97633">
        <ele>127.1</ele>
        <time>2015-09-27T09:04:49Z</time>
      </trkpt>
      <trkpt lat="47.95893" lon="1.97634">
        <ele>127.1</ele>
        <time>2015-09-27T09:04:50Z</time>
      </trkpt>
      <trkpt lat="47.95898" lon="1.97635">
        <ele>127.1</ele>
        <time>2015-09-27T09:04:51Z</time>
      </trkpt>
      <trkpt lat="47.95902" lon="1.97634">
        <ele>127.1</ele>
        <time>2015-09-27T09:04:52Z</time>
      </trkpt>
      <trkpt lat="47.95906" lon="1.97633">
        <ele>127.1</ele>
        <time>2015-09-27T09:04:53Z</time>
      </trkpt>
      <trkpt lat="47.9591" lon="1.97633">
        <ele>127.1</ele>
        <time>2015-09-27T09:04:54Z</time>
      </trkpt>
      <trkpt lat="47.95914" lon="1.97633">
        <ele>127.1</ele>
        <time>2015-09-27T09:04:55Z</time>
      </trkpt>
      <trkpt lat="47.95918" lon="1.97632">
        <ele>127.1</ele>
        <time>2015-09-27T09:04:56Z</time>
      </trkpt>
      <trkpt lat="47.95922" lon="1.97631">
        <ele>127.1</ele>
        <time>2015-09-27T09:04:57Z</time>
      </trkpt>
      <trkpt lat="47.95926" lon="1.97629">
        <ele>127</ele>
        <time>2015-09-27T09:04:58Z</time>
      </trkpt>
      <trkpt lat="47.95929" lon="1.97628">
        <ele>127</ele>
        <time>2015-09-27T09:04:59Z</time>
      </trkpt>
      <trkpt lat="47.95933" lon="1.97628">
        <ele>127</ele>
        <time>2015-09-27T09:05:00Z</time>
      </trkpt>
      <trkpt lat="47.95937" lon="1.97628">
        <ele>127</ele>
        <time>2015-09-27T09:05:01Z</time>
      </trkpt>
      <trkpt lat="47.95941" lon="1.97628">
        <ele>127</ele>
        <time>2015-09-27T09:05:02Z</time>
      </trkpt>
      <trkpt lat="47.95945" lon="1.97629">
        <ele>127</ele>
        <time>2015-09-27T09:05:03Z</time>
      </trkpt>
      <trkpt lat="47.9595" lon="1.97629">
        <ele>127</ele>
        <time>2015-09-27T09:05:04Z</time>
      </trkpt>
      <trkpt lat="47.95954" lon="1.97628">
        <ele>127</ele>
        <time>2015-09-27T09:05:05Z</time>
      </trkpt>
      <trkpt lat="47.95959" lon="1.97627">
        <ele>127</ele>
        <time>2015-09-27T09:05:06Z</time>
      </trkpt>
      <trkpt lat="47.95963" lon="1.97626">
        <ele>127.1</ele>
        <time>2015-09-27T09:05:07Z</time>
      </trkpt>
      <trkpt lat="47.95968" lon="1.97624">
        <ele>127</ele>
        <time>2015-09-27T09:05:08Z</time>
      </trkpt>
      <trkpt lat="47.95972" lon="1.97623">
        <ele>127</ele>
        <time>2015-09-27T09:05:09Z</time>
      </trkpt>
      <trkpt lat="47.95975" lon="1.97622">
        <ele>127</ele>
        <time>2015-09-27T09:05:10Z</time>
      </trkpt>
      <trkpt lat="47.95978" lon="1.97621">
        <ele>127</ele>
        <time>2015-09-27T09:05:11Z</time>
      </trkpt>
      <trkpt lat="47.95982" lon="1.9762">
        <ele>126.9</ele>
        <time>2015-09-27T09:05:12Z</time>
      </trkpt>
      <trkpt lat="47.95985" lon="1.97618">
        <ele>126.9</ele>
        <time>2015-09-27T09:05:13Z</time>
      </trkpt>
      <trkpt lat="47.95988" lon="1.97615">
        <ele>126.8</ele>
        <time>2015-09-27T09:05:14Z</time>
      </trkpt>
      <trkpt lat="47.95991" lon="1.97613">
        <ele>126.7</ele>
        <time>2015-09-27T09:05:15Z</time>
      </trkpt>
      <trkpt lat="47.95995" lon="1.97611">
        <ele>126.7</ele>
        <time>2015-09-27T09:05:16Z</time>
      </trkpt>
      <trkpt lat="47.95999" lon="1.97609">
        <ele>126.7</ele>
        <time>2015-09-27T09:05:17Z</time>
      </trkpt>
      <trkpt lat="47.96002" lon="1.97607">
        <ele>126.7</ele>
        <time>2015-09-27T09:05:18Z</time>
      </trkpt>
      <trkpt lat="47.96006" lon="1.97606">
        <ele>126.7</ele>
        <time>2015-09-27T09:05:19Z</time>
      </trkpt>
      <trkpt lat="47.9601" lon="1.97604">
        <ele>126.8</ele>
        <time>2015-09-27T09:05:20Z</time>
      </trkpt>
      <trkpt lat="47.96014" lon="1.97602">
        <ele>126.8</ele>
        <time>2015-09-27T09:05:21Z</time>
      </trkpt>
      <trkpt lat="47.96018" lon="1.97599">
        <ele>126.9</ele>
        <time>2015-09-27T09:05:22Z</time>
      </trkpt>
      <trkpt lat="47.96022" lon="1.97596">
        <ele>126.9</ele>
        <time>2015-09-27T09:05:23Z</time>
      </trkpt>
      <trkpt lat="47.96026" lon="1.97592">
        <ele>126.9</ele>
        <time>2015-09-27T09:05:24Z</time>
      </trkpt>
      <trkpt lat="47.9603" lon="1.97588">
        <ele>127</ele>
        <time>2015-09-27T09:05:25Z</time>
      </trkpt>
      <trkpt lat="47.96033" lon="1.97584">
        <ele>127.1</ele>
        <time>2015-09-27T09:05:26Z</time>
      </trkpt>
      <trkpt lat="47.96037" lon="1.9758">
        <ele>127.2</ele>
        <time>2015-09-27T09:05:27Z</time>
      </trkpt>
      <trkpt lat="47.9604" lon="1.97576">
        <ele>127.3</ele>
        <time>2015-09-27T09:05:28Z</time>
      </trkpt>
      <trkpt lat="47.96043" lon="1.97572">
        <ele>127.4</ele>
        <time>2015-09-27T09:05:29Z</time>
      </trkpt>
      <trkpt lat="47.96046" lon="1.97569">
        <ele>127.3</ele>
        <time>2015-09-27T09:05:31Z</time>
      </trkpt>
      <trkpt lat="47.96053" lon="1.97564">
        <ele>127.3</ele>
        <time>2015-09-27T09:05:32Z</time>
      </trkpt>
      <trkpt lat="47.96056" lon="1.97561">
        <ele>127.2</ele>
        <time>2015-09-27T09:05:33Z</time>
      </trkpt>
      <trkpt lat="47.96059" lon="1.97558">
        <ele>127.2</ele>
        <time>2015-09-27T09:05:34Z</time>
      </trkpt>
      <trkpt lat="47.96062" lon="1.97555">
        <ele>127.2</ele>
        <time>2015-09-27T09:05:35Z</time>
      </trkpt>
      <trkpt lat="47.96066" lon="1.97553">
        <ele>127.1</ele>
        <time>2015-09-27T09:05:36Z</time>
      </trkpt>
      <trkpt lat="47.96069" lon="1.9755">
        <ele>127.1</ele>
        <time>2015-09-27T09:05:37Z</time>
      </trkpt>
      <trkpt lat="47.96073" lon="1.97548">
        <ele>127.1</ele>
        <time>2015-09-27T09:05:38Z</time>
      </trkpt>
      <trkpt lat="47.96076" lon="1.97546">
        <ele>127.1</ele>
        <time>2015-09-27T09:05:39Z</time>
      </trkpt>
      <trkpt lat="47.96079" lon="1.97545">
        <ele>127</ele>
        <time>2015-09-27T09:05:40Z</time>
      </trkpt>
      <trkpt lat="47.96083" lon="1.97544">
        <ele>127</ele>
        <time>2015-09-27T09:05:41Z</time>
      </trkpt>
      <trkpt lat="47.96086" lon="1.97543">
        <ele>127</ele>
        <time>2015-09-27T09:05:42Z</time>
      </trkpt>
      <trkpt lat="47.96089" lon="1.97542">
        <ele>127</ele>
        <time>2015-09-27T09:05:43Z</time>
      </trkpt>
      <trkpt lat="47.96093" lon="1.97541">
        <ele>127</ele>
        <time>2015-09-27T09:05:44Z</time>
      </trkpt>
      <trkpt lat="47.96096" lon="1.97541">
        <ele>127</ele>
        <time>2015-09-27T09:05:45Z</time>
      </trkpt>
      <trkpt lat="47.96099" lon="1.9754">
        <ele>126.9</ele>
        <time>2015-09-27T09:05:46Z</time>
      </trkpt>
      <trkpt lat="47.96103" lon="1.97539">
        <ele>126.9</ele>
        <time>2015-09-27T09:05:47Z</time>
      </trkpt>
      <trkpt lat="47.96106" lon="1.97539">
        <ele>126.9</ele>
        <time>2015-09-27T09:05:48Z</time>
      </trkpt>
      <trkpt lat="47.9611" lon="1.97538">
        <ele>126.9</ele>
        <time>2015-09-27T09:05:49Z</time>
      </trkpt>
      <trkpt lat="47.96114" lon="1.97538">
        <ele>126.8</ele>
        <time>2015-09-27T09:05:50Z</time>
      </trkpt>
      <trkpt lat="47.96117" lon="1.97536">
        <ele>126.8</ele>
        <time>2015-09-27T09:05:51Z</time>
      </trkpt>
      <trkpt lat="47.9612" lon="1.97535">
        <ele>126.8</ele>
        <time>2015-09-27T09:05:52Z</time>
      </trkpt>
      <trkpt lat="47.96123" lon="1.97533">
        <ele>126.7</ele>
        <time>2015-09-27T09:05:53Z</time>
      </trkpt>
      <trkpt lat="47.96126" lon="1.97532">
        <ele>126.6</ele>
        <time>2015-09-27T09:05:54Z</time>
      </trkpt>
      <trkpt lat="47.9613" lon="1.9753">
        <ele>126.4</ele>
        <time>2015-09-27T09:05:55Z</time>
      </trkpt>
      <trkpt lat="47.96133" lon="1.97528">
        <ele>126.2</ele>
        <time>2015-09-27T09:05:56Z</time>
      </trkpt>
      <trkpt lat="47.96137" lon="1.97527">
        <ele>125.9</ele>
        <time>2015-09-27T09:05:57Z</time>
      </trkpt>
      <trkpt lat="47.96141" lon="1.97526">
        <ele>125.7</ele>
        <time>2015-09-27T09:05:58Z</time>
      </trkpt>
      <trkpt lat="47.96145" lon="1.97525">
        <ele>125.5</ele>
        <time>2015-09-27T09:05:59Z</time>
      </trkpt>
      <trkpt lat="47.96149" lon="1.97524">
        <ele>125.3</ele>
        <time>2015-09-27T09:06:00Z</time>
      </trkpt>
      <trkpt lat="47.96153" lon="1.97523">
        <ele>125.1</ele>
        <time>2015-09-27T09:06:01Z</time>
      </trkpt>
      <trkpt lat="47.96157" lon="1.97522">
        <ele>124.9</ele>
        <time>2015-09-27T09:06:02Z</time>
      </trkpt>
      <trkpt lat="47.96162" lon="1.9752">
        <ele>124.7</ele>
        <time>2015-09-27T09:06:03Z</time>
      </trkpt>
      <trkpt lat="47.96166" lon="1.97519">
        <ele>124.5</ele>
        <time>2015-09-27T09:06:04Z</time>
      </trkpt>
      <trkpt lat="47.9617" lon="1.97518">
        <ele>124.3</ele>
        <time>2015-09-27T09:06:05Z</time>
      </trkpt>
      <trkpt lat="47.96175" lon="1.97516">
        <ele>124.1</ele>
        <time>2015-09-27T09:06:06Z</time>
      </trkpt>
      <trkpt lat="47.96179" lon="1.97515">
        <ele>123.9</ele>
        <time>2015-09-27T09:06:07Z</time>
      </trkpt>
      <trkpt lat="47.96184" lon="1.97514">
        <ele>123.6</ele>
        <time>2015-09-27T09:06:08Z</time>
      </trkpt>
      <trkpt lat="47.96189" lon="1.97513">
        <ele>123.4</ele>
        <time>2015-09-27T09:06:09Z</time>
      </trkpt>
      <trkpt lat="47.96194" lon="1.97512">
        <ele>123.2</ele>
        <time>2015-09-27T09:06:10Z</time>
      </trkpt>
      <trkpt lat="47.96199" lon="1.97511">
        <ele>123</ele>
        <time>2015-09-27T09:06:11Z</time>
      </trkpt>
      <trkpt lat="47.96204" lon="1.9751">
        <ele>122.8</ele>
        <time>2015-09-27T09:06:12Z</time>
      </trkpt>
      <trkpt lat="47.96208" lon="1.97509">
        <ele>122.6</ele>
        <time>2015-09-27T09:06:13Z</time>
      </trkpt>
      <trkpt lat="47.96213" lon="1.97507">
        <ele>122.6</ele>
        <time>2015-09-27T09:06:14Z</time>
      </trkpt>
      <trkpt lat="47.96217" lon="1.97506">
        <ele>122.7</ele>
        <time>2015-09-27T09:06:15Z</time>
      </trkpt>
      <trkpt lat="47.96222" lon="1.97505">
        <ele>122.7</ele>
        <time>2015-09-27T09:06:16Z</time>
      </trkpt>
      <trkpt lat="47.96226" lon="1.97503">
        <ele>122.8</ele>
        <time>2015-09-27T09:06:17Z</time>
      </trkpt>
      <trkpt lat="47.9623" lon="1.97502">
        <ele>122.8</ele>
        <time>2015-09-27T09:06:18Z</time>
      </trkpt>
      <trkpt lat="47.96234" lon="1.97501">
        <ele>122.8</ele>
        <time>2015-09-27T09:06:19Z</time>
      </trkpt>
      <trkpt lat="47.96238" lon="1.975">
        <ele>122.9</ele>
        <time>2015-09-27T09:06:20Z</time>
      </trkpt>
      <trkpt lat="47.96242" lon="1.97499">
        <ele>122.9</ele>
        <time>2015-09-27T09:06:21Z</time>
      </trkpt>
      <trkpt lat="47.96246" lon="1.97498">
        <ele>122.9</ele>
        <time>2015-09-27T09:06:22Z</time>
      </trkpt>
      <trkpt lat="47.96251" lon="1.97497">
        <ele>123</ele>
        <time>2015-09-27T09:06:23Z</time>
      </trkpt>
      <trkpt lat="47.96255" lon="1.97496">
        <ele>123</ele>
        <time>2015-09-27T09:06:24Z</time>
      </trkpt>
      <trkpt lat="47.96259" lon="1.97495">
        <ele>123</ele>
        <time>2015-09-27T09:06:25Z</time>
      </trkpt>
      <trkpt lat="47.96263" lon="1.97494">
        <ele>123.1</ele>
        <time>2015-09-27T09:06:26Z</time>
      </trkpt>
      <trkpt lat="47.96267" lon="1.97494">
        <ele>123.1</ele>
        <time>2015-09-27T09:06:27Z</time>
      </trkpt>
      <trkpt lat="47.96271" lon="1.97493">
        <ele>123.2</ele>
        <time>2015-09-27T09:06:28Z</time>
      </trkpt>
      <trkpt lat="47.96275" lon="1.97492">
        <ele>123.2</ele>
        <time>2015-09-27T09:06:29Z</time>
      </trkpt>
      <trkpt lat="47.9628" lon="1.97491">
        <ele>123.2</ele>
        <time>2015-09-27T09:06:30Z</time>
      </trkpt>
      <trkpt lat="47.96284" lon="1.9749">
        <ele>123.3</ele>
        <time>2015-09-27T09:06:31Z</time>
      </trkpt>
      <trkpt lat="47.96288" lon="1.9749">
        <ele>123.3</ele>
        <time>2015-09-27T09:06:32Z</time>
      </trkpt>
      <trkpt lat="47.96291" lon="1.97489">
        <ele>123.4</ele>
        <time>2015-09-27T09:06:33Z</time>
      </trkpt>
      <trkpt lat="47.96295" lon="1.97488">
        <ele>123.4</ele>
        <time>2015-09-27T09:06:34Z</time>
      </trkpt>
      <trkpt lat="47.96299" lon="1.97487">
        <ele>123.5</ele>
        <time>2015-09-27T09:06:35Z</time>
      </trkpt>
      <trkpt lat="47.96302" lon="1.97486">
        <ele>123.5</ele>
        <time>2015-09-27T09:06:36Z</time>
      </trkpt>
      <trkpt lat="47.96306" lon="1.97485">
        <ele>123.5</ele>
        <time>2015-09-27T09:06:37Z</time>
      </trkpt>
      <trkpt lat="47.96309" lon="1.97484">
        <ele>123.6</ele>
        <time>2015-09-27T09:06:38Z</time>
      </trkpt>
      <trkpt lat="47.96313" lon="1.97483">
        <ele>123.6</ele>
        <time>2015-09-27T09:06:39Z</time>
      </trkpt>
      <trkpt lat="47.96317" lon="1.97482">
        <ele>123.7</ele>
        <time>2015-09-27T09:06:40Z</time>
      </trkpt>
      <trkpt lat="47.9632" lon="1.97481">
        <ele>123.7</ele>
        <time>2015-09-27T09:06:41Z</time>
      </trkpt>
      <trkpt lat="47.96324" lon="1.9748">
        <ele>123.8</ele>
        <time>2015-09-27T09:06:42Z</time>
      </trkpt>
      <trkpt lat="47.96328" lon="1.97479">
        <ele>123.8</ele>
        <time>2015-09-27T09:06:43Z</time>
      </trkpt>
      <trkpt lat="47.96332" lon="1.97478">
        <ele>123.8</ele>
        <time>2015-09-27T09:06:44Z</time>
      </trkpt>
      <trkpt lat="47.96336" lon="1.97477">
        <ele>123.9</ele>
        <time>2015-09-27T09:06:45Z</time>
      </trkpt>
      <trkpt lat="47.9634" lon="1.97476">
        <ele>123.9</ele>
        <time>2015-09-27T09:06:46Z</time>
      </trkpt>
      <trkpt lat="47.96344" lon="1.97475">
        <ele>124</ele>
        <time>2015-09-27T09:06:47Z</time>
      </trkpt>
      <trkpt lat="47.96349" lon="1.97474">
        <ele>124</ele>
        <time>2015-09-27T09:06:48Z</time>
      </trkpt>
      <trkpt lat="47.96353" lon="1.97473">
        <ele>124</ele>
        <time>2015-09-27T09:06:49Z</time>
      </trkpt>
      <trkpt lat="47.96357" lon="1.97473">
        <ele>124.1</ele>
        <time>2015-09-27T09:06:50Z</time>
      </trkpt>
      <trkpt lat="47.96362" lon="1.97472">
        <ele>124.1</ele>
        <time>2015-09-27T09:06:51Z</time>
      </trkpt>
      <trkpt lat="47.96366" lon="1.9747">
        <ele>124.2</ele>
        <time>2015-09-27T09:06:52Z</time>
      </trkpt>
      <trkpt lat="47.96369" lon="1.97469">
        <ele>124.2</ele>
        <time>2015-09-27T09:06:53Z</time>
      </trkpt>
      <trkpt lat="47.96374" lon="1.97468">
        <ele>124.2</ele>
        <time>2015-09-27T09:06:54Z</time>
      </trkpt>
      <trkpt lat="47.96378" lon="1.97466">
        <ele>124.2</ele>
        <time>2015-09-27T09:06:55Z</time>
      </trkpt>
      <trkpt lat="47.96382" lon="1.97465">
        <ele>124.2</ele>
        <time>2015-09-27T09:06:56Z</time>
      </trkpt>
      <trkpt lat="47.96387" lon="1.97464">
        <ele>124.3</ele>
        <time>2015-09-27T09:06:57Z</time>
      </trkpt>
      <trkpt lat="47.96391" lon="1.97463">
        <ele>124.3</ele>
        <time>2015-09-27T09:06:58Z</time>
      </trkpt>
      <trkpt lat="47.96394" lon="1.97461">
        <ele>124.3</ele>
        <time>2015-09-27T09:06:59Z</time>
      </trkpt>
      <trkpt lat="47.96399" lon="1.9746">
        <ele>124.3</ele>
        <time>2015-09-27T09:07:00Z</time>
      </trkpt>
      <trkpt lat="47.96403" lon="1.97459">
        <ele>124.3</ele>
        <time>2015-09-27T09:07:01Z</time>
      </trkpt>
      <trkpt lat="47.96407" lon="1.97458">
        <ele>124.4</ele>
        <time>2015-09-27T09:07:02Z</time>
      </trkpt>
      <trkpt lat="47.96414" lon="1.97456">
        <ele>124.5</ele>
        <time>2015-09-27T09:07:03Z</time>
      </trkpt>
      <trkpt lat="47.96419" lon="1.97455">
        <ele>124.5</ele>
        <time>2015-09-27T09:07:04Z</time>
      </trkpt>
      <trkpt lat="47.96423" lon="1.97454">
        <ele>124.6</ele>
        <time>2015-09-27T09:07:05Z</time>
      </trkpt>
      <trkpt lat="47.96426" lon="1.97454">
        <ele>124.6</ele>
        <time>2015-09-27T09:07:06Z</time>
      </trkpt>
      <trkpt lat="47.9643" lon="1.97454">
        <ele>124.6</ele>
        <time>2015-09-27T09:07:07Z</time>
      </trkpt>
      <trkpt lat="47.96437" lon="1.97453">
        <ele>124.7</ele>
        <time>2015-09-27T09:07:09Z</time>
      </trkpt>
      <trkpt lat="47.96441" lon="1.97453">
        <ele>124.8</ele>
        <time>2015-09-27T09:07:10Z</time>
      </trkpt>
      <trkpt lat="47.96445" lon="1.97454">
        <ele>124.8</ele>
        <time>2015-09-27T09:07:11Z</time>
      </trkpt>
      <trkpt lat="47.9645" lon="1.97456">
        <ele>124.9</ele>
        <time>2015-09-27T09:07:12Z</time>
      </trkpt>
      <trkpt lat="47.96454" lon="1.97458">
        <ele>125</ele>
        <time>2015-09-27T09:07:13Z</time>
      </trkpt>
      <trkpt lat="47.96459" lon="1.9746">
        <ele>125</ele>
        <time>2015-09-27T09:07:14Z</time>
      </trkpt>
      <trkpt lat="47.96463" lon="1.97462">
        <ele>125.2</ele>
        <time>2015-09-27T09:07:15Z</time>
      </trkpt>
      <trkpt lat="47.96466" lon="1.97463">
        <ele>125.3</ele>
        <time>2015-09-27T09:07:16Z</time>
      </trkpt>
      <trkpt lat="47.9647" lon="1.97464">
        <ele>125.4</ele>
        <time>2015-09-27T09:07:17Z</time>
      </trkpt>
      <trkpt lat="47.96473" lon="1.97465">
        <ele>125.5</ele>
        <time>2015-09-27T09:07:18Z</time>
      </trkpt>
      <trkpt lat="47.96477" lon="1.97468">
        <ele>125.6</ele>
        <time>2015-09-27T09:07:19Z</time>
      </trkpt>
      <trkpt lat="47.9648" lon="1.9747">
        <ele>125.8</ele>
        <time>2015-09-27T09:07:20Z</time>
      </trkpt>
      <trkpt lat="47.96483" lon="1.97472">
        <ele>125.9</ele>
        <time>2015-09-27T09:07:21Z</time>
      </trkpt>
      <trkpt lat="47.96487" lon="1.97474">
        <ele>126</ele>
        <time>2015-09-27T09:07:22Z</time>
      </trkpt>
      <trkpt lat="47.96491" lon="1.97475">
        <ele>126.1</ele>
        <time>2015-09-27T09:07:23Z</time>
      </trkpt>
      <trkpt lat="47.96495" lon="1.97476">
        <ele>126.2</ele>
        <time>2015-09-27T09:07:24Z</time>
      </trkpt>
      <trkpt lat="47.96499" lon="1.97477">
        <ele>126.3</ele>
        <time>2015-09-27T09:07:25Z</time>
      </trkpt>
      <trkpt lat="47.96503" lon="1.97479">
        <ele>126.4</ele>
        <time>2015-09-27T09:07:26Z</time>
      </trkpt>
      <trkpt lat="47.96507" lon="1.97481">
        <ele>126.6</ele>
        <time>2015-09-27T09:07:27Z</time>
      </trkpt>
      <trkpt lat="47.96511" lon="1.97483">
        <ele>126.7</ele>
        <time>2015-09-27T09:07:28Z</time>
      </trkpt>
      <trkpt lat="47.96515" lon="1.97485">
        <ele>126.8</ele>
        <time>2015-09-27T09:07:29Z</time>
      </trkpt>
      <trkpt lat="47.96519" lon="1.97487">
        <ele>126.9</ele>
        <time>2015-09-27T09:07:30Z</time>
      </trkpt>
      <trkpt lat="47.96523" lon="1.97489">
        <ele>127</ele>
        <time>2015-09-27T09:07:31Z</time>
      </trkpt>
      <trkpt lat="47.96527" lon="1.97491">
        <ele>127.1</ele>
        <time>2015-09-27T09:07:32Z</time>
      </trkpt>
      <trkpt lat="47.96531" lon="1.97492">
        <ele>127.2</ele>
        <time>2015-09-27T09:07:33Z</time>
      </trkpt>
      <trkpt lat="47.96535" lon="1.97493">
        <ele>127.3</ele>
        <time>2015-09-27T09:07:34Z</time>
      </trkpt>
      <trkpt lat="47.96539" lon="1.97495">
        <ele>127.4</ele>
        <time>2015-09-27T09:07:35Z</time>
      </trkpt>
      <trkpt lat="47.96542" lon="1.97496">
        <ele>127.5</ele>
        <time>2015-09-27T09:07:36Z</time>
      </trkpt>
      <trkpt lat="47.96546" lon="1.97499">
        <ele>127.5</ele>
        <time>2015-09-27T09:07:37Z</time>
      </trkpt>
      <trkpt lat="47.9655" lon="1.975">
        <ele>127.5</ele>
        <time>2015-09-27T09:07:38Z</time>
      </trkpt>
      <trkpt lat="47.96555" lon="1.97503">
        <ele>127.5</ele>
        <time>2015-09-27T09:07:39Z</time>
      </trkpt>
      <trkpt lat="47.96559" lon="1.97504">
        <ele>127.5</ele>
        <time>2015-09-27T09:07:40Z</time>
      </trkpt>
      <trkpt lat="47.96563" lon="1.97505">
        <ele>127.6</ele>
        <time>2015-09-27T09:07:41Z</time>
      </trkpt>
      <trkpt lat="47.96567" lon="1.97507">
        <ele>127.6</ele>
        <time>2015-09-27T09:07:42Z</time>
      </trkpt>
      <trkpt lat="47.96571" lon="1.97508">
        <ele>127.6</ele>
        <time>2015-09-27T09:07:43Z</time>
      </trkpt>
      <trkpt lat="47.96575" lon="1.9751">
        <ele>127.6</ele>
        <time>2015-09-27T09:07:44Z</time>
      </trkpt>
      <trkpt lat="47.96579" lon="1.97511">
        <ele>127.6</ele>
        <time>2015-09-27T09:07:45Z</time>
      </trkpt>
      <trkpt lat="47.96582" lon="1.97512">
        <ele>127.6</ele>
        <time>2015-09-27T09:07:46Z</time>
      </trkpt>
      <trkpt lat="47.96586" lon="1.97513">
        <ele>127.7</ele>
        <time>2015-09-27T09:07:47Z</time>
      </trkpt>
      <trkpt lat="47.96589" lon="1.97514">
        <ele>127.7</ele>
        <time>2015-09-27T09:07:48Z</time>
      </trkpt>
      <trkpt lat="47.96592" lon="1.97514">
        <ele>127.7</ele>
        <time>2015-09-27T09:07:49Z</time>
      </trkpt>
      <trkpt lat="47.96595" lon="1.97514">
        <ele>127.7</ele>
        <time>2015-09-27T09:07:50Z</time>
      </trkpt>
      <trkpt lat="47.96598" lon="1.97515">
        <ele>127.7</ele>
        <time>2015-09-27T09:07:51Z</time>
      </trkpt>
      <trkpt lat="47.96601" lon="1.97515">
        <ele>127.7</ele>
        <time>2015-09-27T09:07:52Z</time>
      </trkpt>
      <trkpt lat="47.96604" lon="1.97516">
        <ele>127.7</ele>
        <time>2015-09-27T09:07:53Z</time>
      </trkpt>
      <trkpt lat="47.96607" lon="1.97516">
        <ele>127.7</ele>
        <time>2015-09-27T09:07:54Z</time>
      </trkpt>
      <trkpt lat="47.9661" lon="1.97517">
        <ele>127.7</ele>
        <time>2015-09-27T09:07:55Z</time>
      </trkpt>
      <trkpt lat="47.96614" lon="1.97519">
        <ele>127.7</ele>
        <time>2015-09-27T09:07:56Z</time>
      </trkpt>
      <trkpt lat="47.96617" lon="1.9752">
        <ele>127.7</ele>
        <time>2015-09-27T09:07:57Z</time>
      </trkpt>
      <trkpt lat="47.96621" lon="1.9752">
        <ele>127.7</ele>
        <time>2015-09-27T09:07:58Z</time>
      </trkpt>
      <trkpt lat="47.96625" lon="1.9752">
        <ele>127.7</ele>
        <time>2015-09-27T09:07:59Z</time>
      </trkpt>
      <trkpt lat="47.96629" lon="1.97519">
        <ele>127.7</ele>
        <time>2015-09-27T09:08:00Z</time>
      </trkpt>
      <trkpt lat="47.96633" lon="1.97516">
        <ele>127.7</ele>
        <time>2015-09-27T09:08:01Z</time>
      </trkpt>
      <trkpt lat="47.96636" lon="1.97513">
        <ele>127.6</ele>
        <time>2015-09-27T09:08:02Z</time>
      </trkpt>
      <trkpt lat="47.9664" lon="1.97509">
        <ele>127.6</ele>
        <time>2015-09-27T09:08:03Z</time>
      </trkpt>
      <trkpt lat="47.96643" lon="1.97505">
        <ele>127.5</ele>
        <time>2015-09-27T09:08:04Z</time>
      </trkpt>
      <trkpt lat="47.96645" lon="1.97502">
        <ele>127.5</ele>
        <time>2015-09-27T09:08:05Z</time>
      </trkpt>
      <trkpt lat="47.96648" lon="1.97499">
        <ele>127.5</ele>
        <time>2015-09-27T09:08:06Z</time>
      </trkpt>
      <trkpt lat="47.96651" lon="1.97496">
        <ele>127.5</ele>
        <time>2015-09-27T09:08:07Z</time>
      </trkpt>
      <trkpt lat="47.96653" lon="1.97493">
        <ele>127.5</ele>
        <time>2015-09-27T09:08:08Z</time>
      </trkpt>
      <trkpt lat="47.96655" lon="1.97491">
        <ele>127.5</ele>
        <time>2015-09-27T09:08:09Z</time>
      </trkpt>
      <trkpt lat="47.96658" lon="1.97485">
        <ele>127.5</ele>
        <time>2015-09-27T09:08:11Z</time>
      </trkpt>
      <trkpt lat="47.9666" lon="1.97483">
        <ele>127.5</ele>
        <time>2015-09-27T09:08:12Z</time>
      </trkpt>
      <trkpt lat="47.96665" lon="1.97485">
        <ele>127.5</ele>
        <time>2015-09-27T09:08:14Z</time>
      </trkpt>
      <trkpt lat="47.96669" lon="1.97488">
        <ele>127.5</ele>
        <time>2015-09-27T09:08:16Z</time>
      </trkpt>
      <trkpt lat="47.96671" lon="1.97495">
        <ele>127.5</ele>
        <time>2015-09-27T09:08:18Z</time>
      </trkpt>
      <trkpt lat="47.96675" lon="1.975">
        <ele>127.5</ele>
        <time>2015-09-27T09:08:20Z</time>
      </trkpt>
      <trkpt lat="47.96676" lon="1.97504">
        <ele>127.5</ele>
        <time>2015-09-27T09:08:21Z</time>
      </trkpt>
      <trkpt lat="47.96677" lon="1.97509">
        <ele>127.5</ele>
        <time>2015-09-27T09:08:22Z</time>
      </trkpt>
      <trkpt lat="47.96677" lon="1.97513">
        <ele>127.5</ele>
        <time>2015-09-27T09:08:23Z</time>
      </trkpt>
      <trkpt lat="47.96678" lon="1.97518">
        <ele>127.4</ele>
        <time>2015-09-27T09:08:24Z</time>
      </trkpt>
      <trkpt lat="47.96679" lon="1.97522">
        <ele>127.4</ele>
        <time>2015-09-27T09:08:25Z</time>
      </trkpt>
      <trkpt lat="47.96679" lon="1.97526">
        <ele>127.4</ele>
        <time>2015-09-27T09:08:26Z</time>
      </trkpt>
      <trkpt lat="47.96679" lon="1.97534">
        <ele>127.4</ele>
        <time>2015-09-27T09:08:28Z</time>
      </trkpt>
      <trkpt lat="47.96679" lon="1.9754">
        <ele>127.4</ele>
        <time>2015-09-27T09:08:30Z</time>
      </trkpt>
      <trkpt lat="47.96685" lon="1.97542">
        <ele>127.3</ele>
        <time>2015-09-27T09:08:32Z</time>
      </trkpt>
      <trkpt lat="47.96687" lon="1.97541">
        <ele>127.3</ele>
        <time>2015-09-27T09:08:33Z</time>
      </trkpt>
      <trkpt lat="47.9669" lon="1.9754">
        <ele>127.2</ele>
        <time>2015-09-27T09:08:34Z</time>
      </trkpt>
      <trkpt lat="47.96695" lon="1.97538">
        <ele>127.2</ele>
        <time>2015-09-27T09:08:36Z</time>
      </trkpt>
      <trkpt lat="47.96699" lon="1.97535">
        <ele>127.2</ele>
        <time>2015-09-27T09:08:38Z</time>
      </trkpt>
      <trkpt lat="47.96703" lon="1.97532">
        <ele>127.2</ele>
        <time>2015-09-27T09:08:40Z</time>
      </trkpt>
      <trkpt lat="47.96705" lon="1.97529">
        <ele>127.2</ele>
        <time>2015-09-27T09:08:41Z</time>
      </trkpt>
      <trkpt lat="47.96708" lon="1.97528">
        <ele>127.2</ele>
        <time>2015-09-27T09:08:42Z</time>
      </trkpt>
      <trkpt lat="47.96712" lon="1.97524">
        <ele>127.3</ele>
        <time>2015-09-27T09:08:43Z</time>
      </trkpt>
      <trkpt lat="47.96715" lon="1.97521">
        <ele>127.5</ele>
        <time>2015-09-27T09:08:44Z</time>
      </trkpt>
      <trkpt lat="47.96719" lon="1.97518">
        <ele>127.6</ele>
        <time>2015-09-27T09:08:45Z</time>
      </trkpt>
      <trkpt lat="47.96722" lon="1.97515">
        <ele>127.7</ele>
        <time>2015-09-27T09:08:46Z</time>
      </trkpt>
      <trkpt lat="47.96726" lon="1.97511">
        <ele>127.8</ele>
        <time>2015-09-27T09:08:47Z</time>
      </trkpt>
      <trkpt lat="47.96729" lon="1.97508">
        <ele>128</ele>
        <time>2015-09-27T09:08:48Z</time>
      </trkpt>
      <trkpt lat="47.96733" lon="1.97505">
        <ele>128.1</ele>
        <time>2015-09-27T09:08:49Z</time>
      </trkpt>
      <trkpt lat="47.96737" lon="1.97502">
        <ele>128.2</ele>
        <time>2015-09-27T09:08:50Z</time>
      </trkpt>
      <trkpt lat="47.9674" lon="1.97499">
        <ele>128.3</ele>
        <time>2015-09-27T09:08:51Z</time>
      </trkpt>
      <trkpt lat="47.96744" lon="1.97496">
        <ele>128.4</ele>
        <time>2015-09-27T09:08:52Z</time>
      </trkpt>
      <trkpt lat="47.96747" lon="1.97494">
        <ele>128.4</ele>
        <time>2015-09-27T09:08:53Z</time>
      </trkpt>
      <trkpt lat="47.96751" lon="1.97491">
        <ele>128.5</ele>
        <time>2015-09-27T09:08:54Z</time>
      </trkpt>
      <trkpt lat="47.96754" lon="1.97488">
        <ele>128.6</ele>
        <time>2015-09-27T09:08:55Z</time>
      </trkpt>
      <trkpt lat="47.96758" lon="1.97485">
        <ele>128.7</ele>
        <time>2015-09-27T09:08:56Z</time>
      </trkpt>
      <trkpt lat="47.96762" lon="1.97482">
        <ele>128.7</ele>
        <time>2015-09-27T09:08:57Z</time>
      </trkpt>
      <trkpt lat="47.96765" lon="1.9748">
        <ele>128.8</ele>
        <time>2015-09-27T09:08:58Z</time>
      </trkpt>
      <trkpt lat="47.96769" lon="1.97476">
        <ele>128.8</ele>
        <time>2015-09-27T09:08:59Z</time>
      </trkpt>
      <trkpt lat="47.96772" lon="1.97474">
        <ele>128.9</ele>
        <time>2015-09-27T09:09:00Z</time>
      </trkpt>
      <trkpt lat="47.96776" lon="1.97471">
        <ele>128.9</ele>
        <time>2015-09-27T09:09:01Z</time>
      </trkpt>
      <trkpt lat="47.9678" lon="1.97469">
        <ele>128.9</ele>
        <time>2015-09-27T09:09:02Z</time>
      </trkpt>
      <trkpt lat="47.96783" lon="1.97467">
        <ele>129</ele>
        <time>2015-09-27T09:09:03Z</time>
      </trkpt>
      <trkpt lat="47.96786" lon="1.97466">
        <ele>129</ele>
        <time>2015-09-27T09:09:04Z</time>
      </trkpt>
      <trkpt lat="47.9679" lon="1.97466">
        <ele>129.1</ele>
        <time>2015-09-27T09:09:05Z</time>
      </trkpt>
      <trkpt lat="47.96793" lon="1.97463">
        <ele>129.1</ele>
        <time>2015-09-27T09:09:06Z</time>
      </trkpt>
      <trkpt lat="47.96797" lon="1.97462">
        <ele>129.2</ele>
        <time>2015-09-27T09:09:07Z</time>
      </trkpt>
      <trkpt lat="47.96801" lon="1.97462">
        <ele>129.4</ele>
        <time>2015-09-27T09:09:08Z</time>
      </trkpt>
      <trkpt lat="47.96804" lon="1.9746">
        <ele>129.5</ele>
        <time>2015-09-27T09:09:09Z</time>
      </trkpt>
      <trkpt lat="47.96807" lon="1.97457">
        <ele>129.6</ele>
        <time>2015-09-27T09:09:10Z</time>
      </trkpt>
      <trkpt lat="47.96811" lon="1.97454">
        <ele>129.7</ele>
        <time>2015-09-27T09:09:11Z</time>
      </trkpt>
      <trkpt lat="47.96813" lon="1.97449">
        <ele>129.7</ele>
        <time>2015-09-27T09:09:12Z</time>
      </trkpt>
      <trkpt lat="47.96816" lon="1.97445">
        <ele>129.8</ele>
        <time>2015-09-27T09:09:13Z</time>
      </trkpt>
      <trkpt lat="47.96819" lon="1.97441">
        <ele>129.8</ele>
        <time>2015-09-27T09:09:14Z</time>
      </trkpt>
      <trkpt lat="47.96822" lon="1.97438">
        <ele>129.9</ele>
        <time>2015-09-27T09:09:15Z</time>
      </trkpt>
      <trkpt lat="47.96825" lon="1.97433">
        <ele>129.9</ele>
        <time>2015-09-27T09:09:16Z</time>
      </trkpt>
      <trkpt lat="47.96828" lon="1.97429">
        <ele>130</ele>
        <time>2015-09-27T09:09:17Z</time>
      </trkpt>
      <trkpt lat="47.9683" lon="1.97424">
        <ele>130</ele>
        <time>2015-09-27T09:09:18Z</time>
      </trkpt>
      <trkpt lat="47.96833" lon="1.97419">
        <ele>130</ele>
        <time>2015-09-27T09:09:19Z</time>
      </trkpt>
      <trkpt lat="47.96836" lon="1.97415">
        <ele>130</ele>
        <time>2015-09-27T09:09:20Z</time>
      </trkpt>
      <trkpt lat="47.96839" lon="1.9741">
        <ele>130</ele>
        <time>2015-09-27T09:09:21Z</time>
      </trkpt>
      <trkpt lat="47.96842" lon="1.97406">
        <ele>130</ele>
        <time>2015-09-27T09:09:22Z</time>
      </trkpt>
      <trkpt lat="47.96845" lon="1.97401">
        <ele>130.1</ele>
        <time>2015-09-27T09:09:23Z</time>
      </trkpt>
      <trkpt lat="47.96849" lon="1.97397">
        <ele>130</ele>
        <time>2015-09-27T09:09:24Z</time>
      </trkpt>
      <trkpt lat="47.96852" lon="1.97393">
        <ele>130</ele>
        <time>2015-09-27T09:09:25Z</time>
      </trkpt>
      <trkpt lat="47.96855" lon="1.97388">
        <ele>130</ele>
        <time>2015-09-27T09:09:26Z</time>
      </trkpt>
      <trkpt lat="47.96858" lon="1.97379">
        <ele>129.9</ele>
        <time>2015-09-27T09:09:27Z</time>
      </trkpt>
      <trkpt lat="47.96861" lon="1.97373">
        <ele>129.8</ele>
        <time>2015-09-27T09:09:28Z</time>
      </trkpt>
      <trkpt lat="47.96864" lon="1.97368">
        <ele>129.9</ele>
        <time>2015-09-27T09:09:29Z</time>
      </trkpt>
      <trkpt lat="47.96866" lon="1.97363">
        <ele>129.9</ele>
        <time>2015-09-27T09:09:30Z</time>
      </trkpt>
      <trkpt lat="47.96869" lon="1.97358">
        <ele>129.9</ele>
        <time>2015-09-27T09:09:31Z</time>
      </trkpt>
      <trkpt lat="47.96872" lon="1.97353">
        <ele>129.9</ele>
        <time>2015-09-27T09:09:32Z</time>
      </trkpt>
      <trkpt lat="47.96874" lon="1.97348">
        <ele>130</ele>
        <time>2015-09-27T09:09:33Z</time>
      </trkpt>
      <trkpt lat="47.96878" lon="1.97344">
        <ele>130</ele>
        <time>2015-09-27T09:09:34Z</time>
      </trkpt>
      <trkpt lat="47.96882" lon="1.97339">
        <ele>130</ele>
        <time>2015-09-27T09:09:35Z</time>
      </trkpt>
      <trkpt lat="47.96885" lon="1.97334">
        <ele>130.1</ele>
        <time>2015-09-27T09:09:36Z</time>
      </trkpt>
      <trkpt lat="47.96889" lon="1.97328">
        <ele>130.1</ele>
        <time>2015-09-27T09:09:37Z</time>
      </trkpt>
      <trkpt lat="47.96892" lon="1.97323">
        <ele>130.1</ele>
        <time>2015-09-27T09:09:38Z</time>
      </trkpt>
      <trkpt lat="47.96898" lon="1.97316">
        <ele>130.1</ele>
        <time>2015-09-27T09:09:39Z</time>
      </trkpt>
      <trkpt lat="47.96902" lon="1.9731">
        <ele>130.1</ele>
        <time>2015-09-27T09:09:40Z</time>
      </trkpt>
      <trkpt lat="47.96905" lon="1.97304">
        <ele>130.1</ele>
        <time>2015-09-27T09:09:41Z</time>
      </trkpt>
      <trkpt lat="47.96908" lon="1.97298">
        <ele>130</ele>
        <time>2015-09-27T09:09:42Z</time>
      </trkpt>
      <trkpt lat="47.96911" lon="1.97292">
        <ele>130</ele>
        <time>2015-09-27T09:09:43Z</time>
      </trkpt>
      <trkpt lat="47.96914" lon="1.97286">
        <ele>130</ele>
        <time>2015-09-27T09:09:44Z</time>
      </trkpt>
      <trkpt lat="47.96918" lon="1.9728">
        <ele>129.9</ele>
        <time>2015-09-27T09:09:45Z</time>
      </trkpt>
      <trkpt lat="47.96921" lon="1.97274">
        <ele>129.9</ele>
        <time>2015-09-27T09:09:46Z</time>
      </trkpt>
      <trkpt lat="47.96924" lon="1.97268">
        <ele>129.8</ele>
        <time>2015-09-27T09:09:47Z</time>
      </trkpt>
      <trkpt lat="47.96928" lon="1.97261">
        <ele>129.8</ele>
        <time>2015-09-27T09:09:48Z</time>
      </trkpt>
      <trkpt lat="47.96931" lon="1.97254">
        <ele>129.7</ele>
        <time>2015-09-27T09:09:49Z</time>
      </trkpt>
      <trkpt lat="47.96934" lon="1.97248">
        <ele>129.6</ele>
        <time>2015-09-27T09:09:50Z</time>
      </trkpt>
      <trkpt lat="47.9694" lon="1.97245">
        <ele>129.6</ele>
        <time>2015-09-27T09:09:51Z</time>
      </trkpt>
      <trkpt lat="47.96945" lon="1.97239">
        <ele>129.5</ele>
        <time>2015-09-27T09:09:52Z</time>
      </trkpt>
      <trkpt lat="47.96947" lon="1.97237">
        <ele>129.4</ele>
        <time>2015-09-27T09:09:53Z</time>
      </trkpt>
      <trkpt lat="47.9695" lon="1.97232">
        <ele>129.4</ele>
        <time>2015-09-27T09:09:54Z</time>
      </trkpt>
      <trkpt lat="47.96954" lon="1.97226">
        <ele>129.3</ele>
        <time>2015-09-27T09:09:55Z</time>
      </trkpt>
      <trkpt lat="47.96957" lon="1.97221">
        <ele>129.2</ele>
        <time>2015-09-27T09:09:56Z</time>
      </trkpt>
      <trkpt lat="47.96964" lon="1.97224">
        <ele>129.3</ele>
        <time>2015-09-27T09:09:57Z</time>
      </trkpt>
      <trkpt lat="47.96968" lon="1.97226">
        <ele>129.4</ele>
        <time>2015-09-27T09:09:58Z</time>
      </trkpt>
      <trkpt lat="47.96972" lon="1.97228">
        <ele>129.5</ele>
        <time>2015-09-27T09:09:59Z</time>
      </trkpt>
      <trkpt lat="47.96976" lon="1.97236">
        <ele>129.7</ele>
        <time>2015-09-27T09:10:00Z</time>
      </trkpt>
      <trkpt lat="47.96979" lon="1.97245">
        <ele>129.8</ele>
        <time>2015-09-27T09:10:01Z</time>
      </trkpt>
      <trkpt lat="47.96984" lon="1.97252">
        <ele>130</ele>
        <time>2015-09-27T09:10:02Z</time>
      </trkpt>
      <trkpt lat="47.96988" lon="1.97258">
        <ele>130.1</ele>
        <time>2015-09-27T09:10:03Z</time>
      </trkpt>
      <trkpt lat="47.96992" lon="1.97263">
        <ele>130.2</ele>
        <time>2015-09-27T09:10:04Z</time>
      </trkpt>
      <trkpt lat="47.96996" lon="1.97268">
        <ele>130.3</ele>
        <time>2015-09-27T09:10:05Z</time>
      </trkpt>
      <trkpt lat="47.97" lon="1.97274">
        <ele>130.4</ele>
        <time>2015-09-27T09:10:06Z</time>
      </trkpt>
      <trkpt lat="47.97004" lon="1.97279">
        <ele>130.5</ele>
        <time>2015-09-27T09:10:07Z</time>
      </trkpt>
      <trkpt lat="47.97007" lon="1.97286">
        <ele>130.5</ele>
        <time>2015-09-27T09:10:08Z</time>
      </trkpt>
      <trkpt lat="47.97011" lon="1.97292">
        <ele>130.6</ele>
        <time>2015-09-27T09:10:09Z</time>
      </trkpt>
      <trkpt lat="47.97014" lon="1.97296">
        <ele>130.7</ele>
        <time>2015-09-27T09:10:10Z</time>
      </trkpt>
      <trkpt lat="47.97017" lon="1.97301">
        <ele>130.8</ele>
        <time>2015-09-27T09:10:11Z</time>
      </trkpt>
      <trkpt lat="47.9702" lon="1.97305">
        <ele>130.9</ele>
        <time>2015-09-27T09:10:12Z</time>
      </trkpt>
      <trkpt lat="47.97023" lon="1.97312">
        <ele>131</ele>
        <time>2015-09-27T09:10:13Z</time>
      </trkpt>
      <trkpt lat="47.97026" lon="1.97318">
        <ele>131.1</ele>
        <time>2015-09-27T09:10:14Z</time>
      </trkpt>
      <trkpt lat="47.97031" lon="1.97322">
        <ele>131.2</ele>
        <time>2015-09-27T09:10:16Z</time>
      </trkpt>
      <trkpt lat="47.97037" lon="1.97333">
        <ele>131.4</ele>
        <time>2015-09-27T09:10:17Z</time>
      </trkpt>
      <trkpt lat="47.9704" lon="1.97341">
        <ele>131.6</ele>
        <time>2015-09-27T09:10:18Z</time>
      </trkpt>
      <trkpt lat="47.97042" lon="1.97346">
        <ele>131.6</ele>
        <time>2015-09-27T09:10:19Z</time>
      </trkpt>
      <trkpt lat="47.97045" lon="1.9735">
        <ele>131.7</ele>
        <time>2015-09-27T09:10:20Z</time>
      </trkpt>
      <trkpt lat="47.97048" lon="1.97356">
        <ele>131.7</ele>
        <time>2015-09-27T09:10:21Z</time>
      </trkpt>
      <trkpt lat="47.97052" lon="1.97362">
        <ele>131.7</ele>
        <time>2015-09-27T09:10:22Z</time>
      </trkpt>
      <trkpt lat="47.97054" lon="1.97368">
        <ele>131.8</ele>
        <time>2015-09-27T09:10:23Z</time>
      </trkpt>
      <trkpt lat="47.97057" lon="1.97374">
        <ele>131.8</ele>
        <time>2015-09-27T09:10:24Z</time>
      </trkpt>
      <trkpt lat="47.97061" lon="1.9738">
        <ele>131.8</ele>
        <time>2015-09-27T09:10:25Z</time>
      </trkpt>
      <trkpt lat="47.97063" lon="1.97386">
        <ele>131.8</ele>
        <time>2015-09-27T09:10:26Z</time>
      </trkpt>
      <trkpt lat="47.97067" lon="1.97393">
        <ele>131.8</ele>
        <time>2015-09-27T09:10:27Z</time>
      </trkpt>
      <trkpt lat="47.97069" lon="1.974">
        <ele>131.9</ele>
        <time>2015-09-27T09:10:28Z</time>
      </trkpt>
      <trkpt lat="47.97072" lon="1.97405">
        <ele>131.9</ele>
        <time>2015-09-27T09:10:29Z</time>
      </trkpt>
      <trkpt lat="47.97075" lon="1.97411">
        <ele>131.9</ele>
        <time>2015-09-27T09:10:30Z</time>
      </trkpt>
      <trkpt lat="47.97079" lon="1.97419">
        <ele>131.8</ele>
        <time>2015-09-27T09:10:31Z</time>
      </trkpt>
      <trkpt lat="47.97083" lon="1.97426">
        <ele>131.8</ele>
        <time>2015-09-27T09:10:32Z</time>
      </trkpt>
      <trkpt lat="47.97087" lon="1.97435">
        <ele>131.8</ele>
        <time>2015-09-27T09:10:33Z</time>
      </trkpt>
      <trkpt lat="47.9709" lon="1.97442">
        <ele>131.8</ele>
        <time>2015-09-27T09:10:34Z</time>
      </trkpt>
      <trkpt lat="47.97093" lon="1.97449">
        <ele>131.7</ele>
        <time>2015-09-27T09:10:35Z</time>
      </trkpt>
      <trkpt lat="47.97097" lon="1.97456">
        <ele>131.7</ele>
        <time>2015-09-27T09:10:36Z</time>
      </trkpt>
      <trkpt lat="47.97101" lon="1.97463">
        <ele>131.5</ele>
        <time>2015-09-27T09:10:37Z</time>
      </trkpt>
      <trkpt lat="47.97105" lon="1.9747">
        <ele>131.3</ele>
        <time>2015-09-27T09:10:38Z</time>
      </trkpt>
      <trkpt lat="47.9711" lon="1.97478">
        <ele>131.1</ele>
        <time>2015-09-27T09:10:39Z</time>
      </trkpt>
      <trkpt lat="47.97113" lon="1.97485">
        <ele>131</ele>
        <time>2015-09-27T09:10:40Z</time>
      </trkpt>
      <trkpt lat="47.97115" lon="1.9749">
        <ele>130.8</ele>
        <time>2015-09-27T09:10:41Z</time>
      </trkpt>
      <trkpt lat="47.97118" lon="1.97497">
        <ele>130.7</ele>
        <time>2015-09-27T09:10:42Z</time>
      </trkpt>
      <trkpt lat="47.97122" lon="1.97505">
        <ele>130.5</ele>
        <time>2015-09-27T09:10:43Z</time>
      </trkpt>
      <trkpt lat="47.97126" lon="1.97512">
        <ele>130.4</ele>
        <time>2015-09-27T09:10:44Z</time>
      </trkpt>
      <trkpt lat="47.97129" lon="1.9752">
        <ele>130.3</ele>
        <time>2015-09-27T09:10:45Z</time>
      </trkpt>
      <trkpt lat="47.97133" lon="1.97527">
        <ele>130.2</ele>
        <time>2015-09-27T09:10:46Z</time>
      </trkpt>
      <trkpt lat="47.97137" lon="1.97535">
        <ele>130.2</ele>
        <time>2015-09-27T09:10:47Z</time>
      </trkpt>
      <trkpt lat="47.9714" lon="1.97543">
        <ele>130.2</ele>
        <time>2015-09-27T09:10:48Z</time>
      </trkpt>
      <trkpt lat="47.97142" lon="1.97551">
        <ele>130.1</ele>
        <time>2015-09-27T09:10:49Z</time>
      </trkpt>
      <trkpt lat="47.97146" lon="1.97556">
        <ele>130.2</ele>
        <time>2015-09-27T09:10:50Z</time>
      </trkpt>
      <trkpt lat="47.9715" lon="1.97563">
        <ele>130.2</ele>
        <time>2015-09-27T09:10:51Z</time>
      </trkpt>
      <trkpt lat="47.97154" lon="1.97569">
        <ele>130.3</ele>
        <time>2015-09-27T09:10:52Z</time>
      </trkpt>
      <trkpt lat="47.97159" lon="1.97577">
        <ele>130.3</ele>
        <time>2015-09-27T09:10:53Z</time>
      </trkpt>
      <trkpt lat="47.97164" lon="1.97583">
        <ele>130.4</ele>
        <time>2015-09-27T09:10:54Z</time>
      </trkpt>
      <trkpt lat="47.97169" lon="1.97589">
        <ele>130.6</ele>
        <time>2015-09-27T09:10:55Z</time>
      </trkpt>
      <trkpt lat="47.97173" lon="1.97595">
        <ele>130.7</ele>
        <time>2015-09-27T09:10:56Z</time>
      </trkpt>
      <trkpt lat="47.97175" lon="1.97602">
        <ele>130.8</ele>
        <time>2015-09-27T09:10:57Z</time>
      </trkpt>
      <trkpt lat="47.97179" lon="1.97607">
        <ele>130.9</ele>
        <time>2015-09-27T09:10:58Z</time>
      </trkpt>
      <trkpt lat="47.97183" lon="1.97614">
        <ele>131</ele>
        <time>2015-09-27T09:10:59Z</time>
      </trkpt>
      <trkpt lat="47.97187" lon="1.9762">
        <ele>131.2</ele>
        <time>2015-09-27T09:11:00Z</time>
      </trkpt>
      <trkpt lat="47.97192" lon="1.97627">
        <ele>131.4</ele>
        <time>2015-09-27T09:11:01Z</time>
      </trkpt>
      <trkpt lat="47.97195" lon="1.97631">
        <ele>131.6</ele>
        <time>2015-09-27T09:11:02Z</time>
      </trkpt>
      <trkpt lat="47.97197" lon="1.97636">
        <ele>131.7</ele>
        <time>2015-09-27T09:11:03Z</time>
      </trkpt>
      <trkpt lat="47.97194" lon="1.97635">
        <ele>131.6</ele>
        <time>2015-09-27T09:11:04Z</time>
      </trkpt>
      <trkpt lat="47.97195" lon="1.97644">
        <ele>131.7</ele>
        <time>2015-09-27T09:11:06Z</time>
      </trkpt>
      <trkpt lat="47.97199" lon="1.97645">
        <ele>131.9</ele>
        <time>2015-09-27T09:11:08Z</time>
      </trkpt>
      <trkpt lat="47.97204" lon="1.97649">
        <ele>132.1</ele>
        <time>2015-09-27T09:11:10Z</time>
      </trkpt>
      <trkpt lat="47.97208" lon="1.97654">
        <ele>132.3</ele>
        <time>2015-09-27T09:11:11Z</time>
      </trkpt>
      <trkpt lat="47.97211" lon="1.97659">
        <ele>132.6</ele>
        <time>2015-09-27T09:11:12Z</time>
      </trkpt>
      <trkpt lat="47.97215" lon="1.97665">
        <ele>132.9</ele>
        <time>2015-09-27T09:11:14Z</time>
      </trkpt>
      <trkpt lat="47.97218" lon="1.97671">
        <ele>133.2</ele>
        <time>2015-09-27T09:11:15Z</time>
      </trkpt>
      <trkpt lat="47.97221" lon="1.97676">
        <ele>133.5</ele>
        <time>2015-09-27T09:11:16Z</time>
      </trkpt>
      <trkpt lat="47.97223" lon="1.9768">
        <ele>133.7</ele>
        <time>2015-09-27T09:11:17Z</time>
      </trkpt>
      <trkpt lat="47.97225" lon="1.97684">
        <ele>133.9</ele>
        <time>2015-09-27T09:11:18Z</time>
      </trkpt>
      <trkpt lat="47.97228" lon="1.97688">
        <ele>134.1</ele>
        <time>2015-09-27T09:11:19Z</time>
      </trkpt>
      <trkpt lat="47.9723" lon="1.97692">
        <ele>134.4</ele>
        <time>2015-09-27T09:11:20Z</time>
      </trkpt>
      <trkpt lat="47.97233" lon="1.97696">
        <ele>134.7</ele>
        <time>2015-09-27T09:11:21Z</time>
      </trkpt>
      <trkpt lat="47.97236" lon="1.977">
        <ele>134.9</ele>
        <time>2015-09-27T09:11:22Z</time>
      </trkpt>
      <trkpt lat="47.97239" lon="1.97705">
        <ele>135.1</ele>
        <time>2015-09-27T09:11:23Z</time>
      </trkpt>
      <trkpt lat="47.97241" lon="1.97709">
        <ele>135.4</ele>
        <time>2015-09-27T09:11:24Z</time>
      </trkpt>
      <trkpt lat="47.97244" lon="1.97713">
        <ele>135.6</ele>
        <time>2015-09-27T09:11:25Z</time>
      </trkpt>
      <trkpt lat="47.97247" lon="1.97718">
        <ele>135.8</ele>
        <time>2015-09-27T09:11:26Z</time>
      </trkpt>
      <trkpt lat="47.97249" lon="1.97721">
        <ele>136</ele>
        <time>2015-09-27T09:11:27Z</time>
      </trkpt>
      <trkpt lat="47.97251" lon="1.97725">
        <ele>136.2</ele>
        <time>2015-09-27T09:11:28Z</time>
      </trkpt>
      <trkpt lat="47.97254" lon="1.97729">
        <ele>136.3</ele>
        <time>2015-09-27T09:11:29Z</time>
      </trkpt>
      <trkpt lat="47.97256" lon="1.97732">
        <ele>136.5</ele>
        <time>2015-09-27T09:11:30Z</time>
      </trkpt>
      <trkpt lat="47.97258" lon="1.97735">
        <ele>136.6</ele>
        <time>2015-09-27T09:11:31Z</time>
      </trkpt>
      <trkpt lat="47.97261" lon="1.97736">
        <ele>136.8</ele>
        <time>2015-09-27T09:11:32Z</time>
      </trkpt>
      <trkpt lat="47.97264" lon="1.97738">
        <ele>137</ele>
        <time>2015-09-27T09:11:33Z</time>
      </trkpt>
      <trkpt lat="47.97268" lon="1.9774">
        <ele>137.2</ele>
        <time>2015-09-27T09:11:34Z</time>
      </trkpt>
      <trkpt lat="47.9727" lon="1.97743">
        <ele>137.3</ele>
        <time>2015-09-27T09:11:35Z</time>
      </trkpt>
      <trkpt lat="47.97272" lon="1.97748">
        <ele>137.4</ele>
        <time>2015-09-27T09:11:37Z</time>
      </trkpt>
      <trkpt lat="47.97274" lon="1.97751">
        <ele>137.5</ele>
        <time>2015-09-27T09:11:39Z</time>
      </trkpt>
      <trkpt lat="47.97278" lon="1.97754">
        <ele>137.7</ele>
        <time>2015-09-27T09:11:41Z</time>
      </trkpt>
      <trkpt lat="47.97281" lon="1.97757">
        <ele>137.9</ele>
        <time>2015-09-27T09:11:42Z</time>
      </trkpt>
      <trkpt lat="47.97285" lon="1.97761">
        <ele>138</ele>
        <time>2015-09-27T09:11:43Z</time>
      </trkpt>
      <trkpt lat="47.97288" lon="1.97764">
        <ele>138.1</ele>
        <time>2015-09-27T09:11:44Z</time>
      </trkpt>
      <trkpt lat="47.9729" lon="1.97766">
        <ele>138.2</ele>
        <time>2015-09-27T09:11:45Z</time>
      </trkpt>
      <trkpt lat="47.97292" lon="1.97769">
        <ele>138.3</ele>
        <time>2015-09-27T09:11:46Z</time>
      </trkpt>
      <trkpt lat="47.97295" lon="1.97771">
        <ele>138.2</ele>
        <time>2015-09-27T09:11:48Z</time>
      </trkpt>
      <trkpt lat="47.97298" lon="1.97773">
        <ele>138.1</ele>
        <time>2015-09-27T09:11:51Z</time>
      </trkpt>
      <trkpt lat="47.97299" lon="1.97769">
        <ele>138.2</ele>
        <time>2015-09-27T09:12:04Z</time>
      </trkpt>
      <trkpt lat="47.97302" lon="1.97768">
        <ele>138.2</ele>
        <time>2015-09-27T09:12:10Z</time>
      </trkpt>
      <trkpt lat="47.97304" lon="1.97771">
        <ele>138.1</ele>
        <time>2015-09-27T09:12:13Z</time>
      </trkpt>
      <trkpt lat="47.97307" lon="1.97776">
        <ele>138</ele>
        <time>2015-09-27T09:12:15Z</time>
      </trkpt>
      <trkpt lat="47.9731" lon="1.97777">
        <ele>138</ele>
        <time>2015-09-27T09:12:17Z</time>
      </trkpt>
      <trkpt lat="47.97313" lon="1.97778">
        <ele>137.9</ele>
        <time>2015-09-27T09:12:19Z</time>
      </trkpt>
      <trkpt lat="47.97315" lon="1.97781">
        <ele>137.8</ele>
        <time>2015-09-27T09:12:21Z</time>
      </trkpt>
      <trkpt lat="47.97312" lon="1.9778">
        <ele>137.9</ele>
        <time>2015-09-27T09:12:41Z</time>
      </trkpt>
      <trkpt lat="47.97312" lon="1.97784">
        <ele>137.8</ele>
        <time>2015-09-27T09:12:56Z</time>
      </trkpt>
      <trkpt lat="47.97314" lon="1.97787">
        <ele>137.8</ele>
        <time>2015-09-27T09:13:00Z</time>
      </trkpt>
      <trkpt lat="47.97311" lon="1.97788">
        <ele>137.8</ele>
        <time>2015-09-27T09:13:04Z</time>
      </trkpt>
      <trkpt lat="47.97308" lon="1.97786">
        <ele>137.9</ele>
        <time>2015-09-27T09:13:07Z</time>
      </trkpt>
      <trkpt lat="47.97305" lon="1.97784">
        <ele>137.9</ele>
        <time>2015-09-27T09:13:14Z</time>
      </trkpt>
      <trkpt lat="47.97308" lon="1.97784">
        <ele>137.9</ele>
        <time>2015-09-27T09:13:23Z</time>
      </trkpt>
      <trkpt lat="47.97311" lon="1.97787">
        <ele>137.8</ele>
        <time>2015-09-27T09:13:24Z</time>
      </trkpt>
      <trkpt lat="47.97313" lon="1.9779">
        <ele>137.8</ele>
        <time>2015-09-27T09:13:25Z</time>
      </trkpt>
      <trkpt lat="47.97315" lon="1.97793">
        <ele>137.7</ele>
        <time>2015-09-27T09:13:26Z</time>
      </trkpt>
      <trkpt lat="47.97318" lon="1.97796">
        <ele>137.6</ele>
        <time>2015-09-27T09:13:27Z</time>
      </trkpt>
      <trkpt lat="47.97321" lon="1.97799">
        <ele>137.5</ele>
        <time>2015-09-27T09:13:28Z</time>
      </trkpt>
      <trkpt lat="47.97325" lon="1.97804">
        <ele>137.4</ele>
        <time>2015-09-27T09:13:30Z</time>
      </trkpt>
      <trkpt lat="47.97328" lon="1.97806">
        <ele>137.4</ele>
        <time>2015-09-27T09:13:31Z</time>
      </trkpt>
      <trkpt lat="47.9733" lon="1.97809">
        <ele>137.3</ele>
        <time>2015-09-27T09:13:32Z</time>
      </trkpt>
      <trkpt lat="47.97333" lon="1.97812">
        <ele>137.3</ele>
        <time>2015-09-27T09:13:33Z</time>
      </trkpt>
      <trkpt lat="47.97335" lon="1.97814">
        <ele>137.2</ele>
        <time>2015-09-27T09:13:34Z</time>
      </trkpt>
      <trkpt lat="47.97337" lon="1.97816">
        <ele>137.2</ele>
        <time>2015-09-27T09:13:35Z</time>
      </trkpt>
      <trkpt lat="47.97342" lon="1.97819">
        <ele>137.1</ele>
        <time>2015-09-27T09:13:37Z</time>
      </trkpt>
      <trkpt lat="47.97346" lon="1.97824">
        <ele>137.1</ele>
        <time>2015-09-27T09:13:39Z</time>
      </trkpt>
      <trkpt lat="47.97348" lon="1.97828">
        <ele>137</ele>
        <time>2015-09-27T09:13:41Z</time>
      </trkpt>
      <trkpt lat="47.97352" lon="1.9783">
        <ele>137</ele>
        <time>2015-09-27T09:13:44Z</time>
      </trkpt>
      <trkpt lat="47.97355" lon="1.97834">
        <ele>137</ele>
        <time>2015-09-27T09:13:47Z</time>
      </trkpt>
      <trkpt lat="47.97358" lon="1.97836">
        <ele>137</ele>
        <time>2015-09-27T09:13:49Z</time>
      </trkpt>
      <trkpt lat="47.97362" lon="1.97837">
        <ele>137</ele>
        <time>2015-09-27T09:13:51Z</time>
      </trkpt>
      <trkpt lat="47.97365" lon="1.97838">
        <ele>137</ele>
        <time>2015-09-27T09:13:53Z</time>
      </trkpt>
      <trkpt lat="47.9737" lon="1.97841">
        <ele>137</ele>
        <time>2015-09-27T09:13:55Z</time>
      </trkpt>
      <trkpt lat="47.97372" lon="1.97843">
        <ele>137</ele>
        <time>2015-09-27T09:13:56Z</time>
      </trkpt>
      <trkpt lat="47.97374" lon="1.97846">
        <ele>137</ele>
        <time>2015-09-27T09:13:57Z</time>
      </trkpt>
      <trkpt lat="47.97379" lon="1.97851">
        <ele>137</ele>
        <time>2015-09-27T09:13:59Z</time>
      </trkpt>
      <trkpt lat="47.97381" lon="1.97854">
        <ele>137</ele>
        <time>2015-09-27T09:14:00Z</time>
      </trkpt>
      <trkpt lat="47.97384" lon="1.97856">
        <ele>137</ele>
        <time>2015-09-27T09:14:01Z</time>
      </trkpt>
      <trkpt lat="47.97388" lon="1.97861">
        <ele>137</ele>
        <time>2015-09-27T09:14:02Z</time>
      </trkpt>
      <trkpt lat="47.97392" lon="1.97865">
        <ele>137</ele>
        <time>2015-09-27T09:14:03Z</time>
      </trkpt>
      <trkpt lat="47.97396" lon="1.9787">
        <ele>137</ele>
        <time>2015-09-27T09:14:04Z</time>
      </trkpt>
      <trkpt lat="47.97399" lon="1.97874">
        <ele>137</ele>
        <time>2015-09-27T09:14:05Z</time>
      </trkpt>
      <trkpt lat="47.97403" lon="1.97878">
        <ele>137</ele>
        <time>2015-09-27T09:14:06Z</time>
      </trkpt>
      <trkpt lat="47.97406" lon="1.97881">
        <ele>137.1</ele>
        <time>2015-09-27T09:14:07Z</time>
      </trkpt>
      <trkpt lat="47.9741" lon="1.97885">
        <ele>137.1</ele>
        <time>2015-09-27T09:14:08Z</time>
      </trkpt>
      <trkpt lat="47.97413" lon="1.97889">
        <ele>137.1</ele>
        <time>2015-09-27T09:14:09Z</time>
      </trkpt>
      <trkpt lat="47.97415" lon="1.97892">
        <ele>137.2</ele>
        <time>2015-09-27T09:14:10Z</time>
      </trkpt>
      <trkpt lat="47.97418" lon="1.97895">
        <ele>137.2</ele>
        <time>2015-09-27T09:14:11Z</time>
      </trkpt>
      <trkpt lat="47.97421" lon="1.97898">
        <ele>137.3</ele>
        <time>2015-09-27T09:14:12Z</time>
      </trkpt>
      <trkpt lat="47.97423" lon="1.97901">
        <ele>137.4</ele>
        <time>2015-09-27T09:14:13Z</time>
      </trkpt>
      <trkpt lat="47.97427" lon="1.97906">
        <ele>137.5</ele>
        <time>2015-09-27T09:14:15Z</time>
      </trkpt>
      <trkpt lat="47.97429" lon="1.97909">
        <ele>137.5</ele>
        <time>2015-09-27T09:14:16Z</time>
      </trkpt>
      <trkpt lat="47.97433" lon="1.97914">
        <ele>137.6</ele>
        <time>2015-09-27T09:14:18Z</time>
      </trkpt>
      <trkpt lat="47.97437" lon="1.97917">
        <ele>137.7</ele>
        <time>2015-09-27T09:14:20Z</time>
      </trkpt>
      <trkpt lat="47.9744" lon="1.97921">
        <ele>137.9</ele>
        <time>2015-09-27T09:14:22Z</time>
      </trkpt>
      <trkpt lat="47.97444" lon="1.97924">
        <ele>138</ele>
        <time>2015-09-27T09:14:24Z</time>
      </trkpt>
      <trkpt lat="47.97448" lon="1.97928">
        <ele>138.1</ele>
        <time>2015-09-27T09:14:26Z</time>
      </trkpt>
      <trkpt lat="47.97451" lon="1.97931">
        <ele>138.2</ele>
        <time>2015-09-27T09:14:27Z</time>
      </trkpt>
      <trkpt lat="47.97454" lon="1.97934">
        <ele>138.3</ele>
        <time>2015-09-27T09:14:28Z</time>
      </trkpt>
      <trkpt lat="47.97457" lon="1.97936">
        <ele>138.4</ele>
        <time>2015-09-27T09:14:29Z</time>
      </trkpt>
      <trkpt lat="47.97459" lon="1.97938">
        <ele>138.5</ele>
        <time>2015-09-27T09:14:30Z</time>
      </trkpt>
      <trkpt lat="47.97461" lon="1.9794">
        <ele>138.5</ele>
        <time>2015-09-27T09:14:31Z</time>
      </trkpt>
      <trkpt lat="47.97466" lon="1.97945">
        <ele>138.4</ele>
        <time>2015-09-27T09:14:33Z</time>
      </trkpt>
      <trkpt lat="47.9747" lon="1.9795">
        <ele>138.4</ele>
        <time>2015-09-27T09:14:35Z</time>
      </trkpt>
      <trkpt lat="47.97473" lon="1.97955">
        <ele>138.4</ele>
        <time>2015-09-27T09:14:36Z</time>
      </trkpt>
      <trkpt lat="47.97476" lon="1.97959">
        <ele>138.4</ele>
        <time>2015-09-27T09:14:37Z</time>
      </trkpt>
      <trkpt lat="47.97479" lon="1.97963">
        <ele>138.3</ele>
        <time>2015-09-27T09:14:38Z</time>
      </trkpt>
      <trkpt lat="47.97483" lon="1.97967">
        <ele>138.2</ele>
        <time>2015-09-27T09:14:39Z</time>
      </trkpt>
      <trkpt lat="47.97486" lon="1.9797">
        <ele>138.1</ele>
        <time>2015-09-27T09:14:40Z</time>
      </trkpt>
      <trkpt lat="47.97489" lon="1.97974">
        <ele>138</ele>
        <time>2015-09-27T09:14:41Z</time>
      </trkpt>
      <trkpt lat="47.97493" lon="1.97977">
        <ele>137.9</ele>
        <time>2015-09-27T09:14:42Z</time>
      </trkpt>
      <trkpt lat="47.97497" lon="1.97981">
        <ele>137.9</ele>
        <time>2015-09-27T09:14:43Z</time>
      </trkpt>
      <trkpt lat="47.975" lon="1.97985">
        <ele>137.8</ele>
        <time>2015-09-27T09:14:44Z</time>
      </trkpt>
      <trkpt lat="47.97503" lon="1.9799">
        <ele>137.8</ele>
        <time>2015-09-27T09:14:45Z</time>
      </trkpt>
      <trkpt lat="47.97506" lon="1.97994">
        <ele>137.8</ele>
        <time>2015-09-27T09:14:46Z</time>
      </trkpt>
      <trkpt lat="47.97509" lon="1.97998">
        <ele>137.8</ele>
        <time>2015-09-27T09:14:47Z</time>
      </trkpt>
      <trkpt lat="47.97511" lon="1.98002">
        <ele>137.8</ele>
        <time>2015-09-27T09:14:48Z</time>
      </trkpt>
      <trkpt lat="47.97514" lon="1.98005">
        <ele>137.8</ele>
        <time>2015-09-27T09:14:49Z</time>
      </trkpt>
      <trkpt lat="47.97517" lon="1.98008">
        <ele>137.7</ele>
        <time>2015-09-27T09:14:50Z</time>
      </trkpt>
      <trkpt lat="47.97519" lon="1.98011">
        <ele>137.7</ele>
        <time>2015-09-27T09:14:51Z</time>
      </trkpt>
      <trkpt lat="47.97523" lon="1.98015">
        <ele>137.7</ele>
        <time>2015-09-27T09:14:53Z</time>
      </trkpt>
      <trkpt lat="47.97526" lon="1.98017">
        <ele>137.7</ele>
        <time>2015-09-27T09:14:54Z</time>
      </trkpt>
      <trkpt lat="47.97528" lon="1.98021">
        <ele>137.7</ele>
        <time>2015-09-27T09:14:55Z</time>
      </trkpt>
      <trkpt lat="47.97531" lon="1.98024">
        <ele>137.7</ele>
        <time>2015-09-27T09:14:56Z</time>
      </trkpt>
      <trkpt lat="47.97534" lon="1.98027">
        <ele>137.8</ele>
        <time>2015-09-27T09:14:57Z</time>
      </trkpt>
      <trkpt lat="47.97538" lon="1.98031">
        <ele>137.8</ele>
        <time>2015-09-27T09:14:58Z</time>
      </trkpt>
      <trkpt lat="47.97542" lon="1.98035">
        <ele>137.8</ele>
        <time>2015-09-27T09:14:59Z</time>
      </trkpt>
      <trkpt lat="47.97545" lon="1.98039">
        <ele>138.1</ele>
        <time>2015-09-27T09:15:00Z</time>
      </trkpt>
      <trkpt lat="47.97549" lon="1.98044">
        <ele>138.3</ele>
        <time>2015-09-27T09:15:01Z</time>
      </trkpt>
      <trkpt lat="47.97553" lon="1.98049">
        <ele>138.7</ele>
        <time>2015-09-27T09:15:02Z</time>
      </trkpt>
      <trkpt lat="47.97557" lon="1.98053">
        <ele>139</ele>
        <time>2015-09-27T09:15:03Z</time>
      </trkpt>
      <trkpt lat="47.97561" lon="1.98058">
        <ele>139.3</ele>
        <time>2015-09-27T09:15:04Z</time>
      </trkpt>
      <trkpt lat="47.97566" lon="1.98065">
        <ele>139.7</ele>
        <time>2015-09-27T09:15:05Z</time>
      </trkpt>
      <trkpt lat="47.9757" lon="1.9807">
        <ele>139.9</ele>
        <time>2015-09-27T09:15:06Z</time>
      </trkpt>
      <trkpt lat="47.97574" lon="1.98074">
        <ele>140.1</ele>
        <time>2015-09-27T09:15:07Z</time>
      </trkpt>
      <trkpt lat="47.97578" lon="1.98079">
        <ele>140.3</ele>
        <time>2015-09-27T09:15:08Z</time>
      </trkpt>
      <trkpt lat="47.97582" lon="1.98084">
        <ele>140.5</ele>
        <time>2015-09-27T09:15:09Z</time>
      </trkpt>
      <trkpt lat="47.97585" lon="1.98087">
        <ele>140.6</ele>
        <time>2015-09-27T09:15:10Z</time>
      </trkpt>
      <trkpt lat="47.97589" lon="1.98091">
        <ele>140.7</ele>
        <time>2015-09-27T09:15:11Z</time>
      </trkpt>
      <trkpt lat="47.97593" lon="1.98095">
        <ele>140.8</ele>
        <time>2015-09-27T09:15:12Z</time>
      </trkpt>
      <trkpt lat="47.97598" lon="1.98099">
        <ele>140.9</ele>
        <time>2015-09-27T09:15:13Z</time>
      </trkpt>
      <trkpt lat="47.97603" lon="1.98104">
        <ele>141</ele>
        <time>2015-09-27T09:15:14Z</time>
      </trkpt>
      <trkpt lat="47.97607" lon="1.98107">
        <ele>141</ele>
        <time>2015-09-27T09:15:15Z</time>
      </trkpt>
      <trkpt lat="47.97611" lon="1.98111">
        <ele>141.1</ele>
        <time>2015-09-27T09:15:16Z</time>
      </trkpt>
      <trkpt lat="47.97615" lon="1.98115">
        <ele>141.1</ele>
        <time>2015-09-27T09:15:17Z</time>
      </trkpt>
      <trkpt lat="47.97619" lon="1.98118">
        <ele>141</ele>
        <time>2015-09-27T09:15:18Z</time>
      </trkpt>
      <trkpt lat="47.97624" lon="1.98122">
        <ele>141</ele>
        <time>2015-09-27T09:15:19Z</time>
      </trkpt>
      <trkpt lat="47.97629" lon="1.98126">
        <ele>141.1</ele>
        <time>2015-09-27T09:15:20Z</time>
      </trkpt>
      <trkpt lat="47.97633" lon="1.98129">
        <ele>141.2</ele>
        <time>2015-09-27T09:15:21Z</time>
      </trkpt>
      <trkpt lat="47.97636" lon="1.98132">
        <ele>141.3</ele>
        <time>2015-09-27T09:15:22Z</time>
      </trkpt>
      <trkpt lat="47.97638" lon="1.98135">
        <ele>141.3</ele>
        <time>2015-09-27T09:15:23Z</time>
      </trkpt>
      <trkpt lat="47.9764" lon="1.98138">
        <ele>141.4</ele>
        <time>2015-09-27T09:15:25Z</time>
      </trkpt>
      <trkpt lat="47.97643" lon="1.98137">
        <ele>141.5</ele>
        <time>2015-09-27T09:15:27Z</time>
      </trkpt>
      <trkpt lat="47.97647" lon="1.98135">
        <ele>141.6</ele>
        <time>2015-09-27T09:15:29Z</time>
      </trkpt>
      <trkpt lat="47.9765" lon="1.98136">
        <ele>141.7</ele>
        <time>2015-09-27T09:15:31Z</time>
      </trkpt>
      <trkpt lat="47.97655" lon="1.98135">
        <ele>141.9</ele>
        <time>2015-09-27T09:15:33Z</time>
      </trkpt>
      <trkpt lat="47.97659" lon="1.98135">
        <ele>142</ele>
        <time>2015-09-27T09:15:34Z</time>
      </trkpt>
      <trkpt lat="47.97663" lon="1.98135">
        <ele>142.2</ele>
        <time>2015-09-27T09:15:35Z</time>
      </trkpt>
      <trkpt lat="47.97666" lon="1.98135">
        <ele>142.3</ele>
        <time>2015-09-27T09:15:36Z</time>
      </trkpt>
      <trkpt lat="47.97669" lon="1.98135">
        <ele>142.4</ele>
        <time>2015-09-27T09:15:37Z</time>
      </trkpt>
      <trkpt lat="47.97672" lon="1.98134">
        <ele>142.5</ele>
        <time>2015-09-27T09:15:38Z</time>
      </trkpt>
      <trkpt lat="47.97676" lon="1.98134">
        <ele>142.6</ele>
        <time>2015-09-27T09:15:39Z</time>
      </trkpt>
      <trkpt lat="47.97679" lon="1.98134">
        <ele>142.8</ele>
        <time>2015-09-27T09:15:40Z</time>
      </trkpt>
      <trkpt lat="47.97682" lon="1.98134">
        <ele>142.9</ele>
        <time>2015-09-27T09:15:41Z</time>
      </trkpt>
      <trkpt lat="47.97685" lon="1.98134">
        <ele>143</ele>
        <time>2015-09-27T09:15:42Z</time>
      </trkpt>
      <trkpt lat="47.9769" lon="1.98135">
        <ele>143.1</ele>
        <time>2015-09-27T09:15:44Z</time>
      </trkpt>
      <trkpt lat="47.97695" lon="1.98134">
        <ele>143.3</ele>
        <time>2015-09-27T09:15:46Z</time>
      </trkpt>
      <trkpt lat="47.97699" lon="1.98133">
        <ele>143.5</ele>
        <time>2015-09-27T09:15:48Z</time>
      </trkpt>
      <trkpt lat="47.97701" lon="1.98131">
        <ele>143.6</ele>
        <time>2015-09-27T09:15:53Z</time>
      </trkpt>
      <trkpt lat="47.977" lon="1.98126">
        <ele>143.7</ele>
        <time>2015-09-27T09:16:07Z</time>
      </trkpt>
      <trkpt lat="47.97706" lon="1.98139">
        <ele>143.6</ele>
        <time>2015-09-27T09:23:24Z</time>
      </trkpt>
      <trkpt lat="47.9771" lon="1.98139">
        <ele>143.7</ele>
        <time>2015-09-27T09:23:28Z</time>
      </trkpt>
      <trkpt lat="47.97711" lon="1.98135">
        <ele>143.7</ele>
        <time>2015-09-27T09:23:32Z</time>
      </trkpt>
      <trkpt lat="47.97714" lon="1.98136">
        <ele>143.7</ele>
        <time>2015-09-27T09:23:42Z</time>
      </trkpt>
      <trkpt lat="47.97718" lon="1.98134">
        <ele>143.7</ele>
        <time>2015-09-27T09:23:45Z</time>
      </trkpt>
      <trkpt lat="47.97721" lon="1.98132">
        <ele>143.7</ele>
        <time>2015-09-27T09:23:47Z</time>
      </trkpt>
      <trkpt lat="47.97725" lon="1.98129">
        <ele>143.7</ele>
        <time>2015-09-27T09:23:49Z</time>
      </trkpt>
      <trkpt lat="47.97728" lon="1.98127">
        <ele>143.7</ele>
        <time>2015-09-27T09:23:51Z</time>
      </trkpt>
      <trkpt lat="47.97731" lon="1.98128">
        <ele>143.7</ele>
        <time>2015-09-27T09:23:57Z</time>
      </trkpt>
      <trkpt lat="47.9773" lon="1.98123">
        <ele>143.7</ele>
        <time>2015-09-27T09:24:01Z</time>
      </trkpt>
      <trkpt lat="47.97728" lon="1.98119">
        <ele>143.7</ele>
        <time>2015-09-27T09:24:04Z</time>
      </trkpt>
      <trkpt lat="47.97733" lon="1.98113">
        <ele>143.6</ele>
        <time>2015-09-27T09:24:08Z</time>
      </trkpt>
      <trkpt lat="47.97737" lon="1.9811">
        <ele>143.5</ele>
        <time>2015-09-27T09:24:09Z</time>
      </trkpt>
      <trkpt lat="47.97741" lon="1.98105">
        <ele>143.5</ele>
        <time>2015-09-27T09:24:10Z</time>
      </trkpt>
      <trkpt lat="47.97749" lon="1.98099">
        <ele>143.4</ele>
        <time>2015-09-27T09:24:11Z</time>
      </trkpt>
      <trkpt lat="47.97753" lon="1.98096">
        <ele>143.3</ele>
        <time>2015-09-27T09:24:12Z</time>
      </trkpt>
      <trkpt lat="47.97756" lon="1.9809">
        <ele>143.2</ele>
        <time>2015-09-27T09:24:13Z</time>
      </trkpt>
      <trkpt lat="47.9776" lon="1.9809">
        <ele>143.2</ele>
        <time>2015-09-27T09:24:14Z</time>
      </trkpt>
      <trkpt lat="47.97766" lon="1.98088">
        <ele>143.2</ele>
        <time>2015-09-27T09:24:15Z</time>
      </trkpt>
      <trkpt lat="47.97772" lon="1.98084">
        <ele>143.1</ele>
        <time>2015-09-27T09:24:16Z</time>
      </trkpt>
      <trkpt lat="47.97775" lon="1.98078">
        <ele>143.1</ele>
        <time>2015-09-27T09:24:17Z</time>
      </trkpt>
      <trkpt lat="47.9778" lon="1.98072">
        <ele>143</ele>
        <time>2015-09-27T09:24:18Z</time>
      </trkpt>
      <trkpt lat="47.97785" lon="1.98069">
        <ele>143</ele>
        <time>2015-09-27T09:24:19Z</time>
      </trkpt>
      <trkpt lat="47.97788" lon="1.98064">
        <ele>143</ele>
        <time>2015-09-27T09:24:20Z</time>
      </trkpt>
      <trkpt lat="47.97788" lon="1.98056">
        <ele>143</ele>
        <time>2015-09-27T09:24:21Z</time>
      </trkpt>
      <trkpt lat="47.97792" lon="1.98051">
        <ele>143</ele>
        <time>2015-09-27T09:24:22Z</time>
      </trkpt>
      <trkpt lat="47.97795" lon="1.98045">
        <ele>143</ele>
        <time>2015-09-27T09:24:23Z</time>
      </trkpt>
      <trkpt lat="47.97801" lon="1.98044">
        <ele>143</ele>
        <time>2015-09-27T09:24:24Z</time>
      </trkpt>
      <trkpt lat="47.97805" lon="1.98042">
        <ele>143</ele>
        <time>2015-09-27T09:24:25Z</time>
      </trkpt>
      <trkpt lat="47.97809" lon="1.98037">
        <ele>143</ele>
        <time>2015-09-27T09:24:26Z</time>
      </trkpt>
      <trkpt lat="47.97812" lon="1.98034">
        <ele>143</ele>
        <time>2015-09-27T09:24:27Z</time>
      </trkpt>
      <trkpt lat="47.97818" lon="1.98031">
        <ele>143</ele>
        <time>2015-09-27T09:24:28Z</time>
      </trkpt>
      <trkpt lat="47.97822" lon="1.98027">
        <ele>143.1</ele>
        <time>2015-09-27T09:24:29Z</time>
      </trkpt>
      <trkpt lat="47.97825" lon="1.98021">
        <ele>143.1</ele>
        <time>2015-09-27T09:24:30Z</time>
      </trkpt>
      <trkpt lat="47.97828" lon="1.98016">
        <ele>143.1</ele>
        <time>2015-09-27T09:24:31Z</time>
      </trkpt>
      <trkpt lat="47.97833" lon="1.98012">
        <ele>143.2</ele>
        <time>2015-09-27T09:24:32Z</time>
      </trkpt>
      <trkpt lat="47.97835" lon="1.98007">
        <ele>143.2</ele>
        <time>2015-09-27T09:24:33Z</time>
      </trkpt>
      <trkpt lat="47.97838" lon="1.98">
        <ele>143.3</ele>
        <time>2015-09-27T09:24:34Z</time>
      </trkpt>
      <trkpt lat="47.97844" lon="1.97997">
        <ele>143.3</ele>
        <time>2015-09-27T09:24:35Z</time>
      </trkpt>
      <trkpt lat="47.97846" lon="1.97988">
        <ele>143.4</ele>
        <time>2015-09-27T09:24:36Z</time>
      </trkpt>
      <trkpt lat="47.97849" lon="1.97983">
        <ele>143.5</ele>
        <time>2015-09-27T09:24:37Z</time>
      </trkpt>
      <trkpt lat="47.97855" lon="1.97979">
        <ele>143.6</ele>
        <time>2015-09-27T09:24:38Z</time>
      </trkpt>
      <trkpt lat="47.9786" lon="1.97974">
        <ele>143.7</ele>
        <time>2015-09-27T09:24:39Z</time>
      </trkpt>
      <trkpt lat="47.97862" lon="1.97969">
        <ele>143.7</ele>
        <time>2015-09-27T09:24:40Z</time>
      </trkpt>
      <trkpt lat="47.97868" lon="1.97969">
        <ele>143.8</ele>
        <time>2015-09-27T09:24:41Z</time>
      </trkpt>
      <trkpt lat="47.97872" lon="1.97965">
        <ele>143.9</ele>
        <time>2015-09-27T09:24:42Z</time>
      </trkpt>
      <trkpt lat="47.97874" lon="1.9796">
        <ele>144</ele>
        <time>2015-09-27T09:24:43Z</time>
      </trkpt>
      <trkpt lat="47.9788" lon="1.97959">
        <ele>143.8</ele>
        <time>2015-09-27T09:24:44Z</time>
      </trkpt>
      <trkpt lat="47.97885" lon="1.97956">
        <ele>143.6</ele>
        <time>2015-09-27T09:24:45Z</time>
      </trkpt>
      <trkpt lat="47.97888" lon="1.97953">
        <ele>143.5</ele>
        <time>2015-09-27T09:24:46Z</time>
      </trkpt>
      <trkpt lat="47.97893" lon="1.97948">
        <ele>143.3</ele>
        <time>2015-09-27T09:24:47Z</time>
      </trkpt>
      <trkpt lat="47.97899" lon="1.97946">
        <ele>143</ele>
        <time>2015-09-27T09:24:48Z</time>
      </trkpt>
      <trkpt lat="47.97902" lon="1.97944">
        <ele>142.9</ele>
        <time>2015-09-27T09:24:49Z</time>
      </trkpt>
      <trkpt lat="47.97908" lon="1.97942">
        <ele>142.7</ele>
        <time>2015-09-27T09:24:50Z</time>
      </trkpt>
      <trkpt lat="47.97911" lon="1.97937">
        <ele>142.6</ele>
        <time>2015-09-27T09:24:51Z</time>
      </trkpt>
      <trkpt lat="47.97914" lon="1.97932">
        <ele>142.4</ele>
        <time>2015-09-27T09:24:52Z</time>
      </trkpt>
      <trkpt lat="47.97917" lon="1.97928">
        <ele>142.3</ele>
        <time>2015-09-27T09:24:53Z</time>
      </trkpt>
      <trkpt lat="47.97919" lon="1.97924">
        <ele>142.2</ele>
        <time>2015-09-27T09:24:54Z</time>
      </trkpt>
      <trkpt lat="47.97921" lon="1.97922">
        <ele>142.1</ele>
        <time>2015-09-27T09:24:55Z</time>
      </trkpt>
      <trkpt lat="47.97925" lon="1.97921">
        <ele>142</ele>
        <time>2015-09-27T09:24:56Z</time>
      </trkpt>
      <trkpt lat="47.97928" lon="1.9792">
        <ele>141.9</ele>
        <time>2015-09-27T09:24:57Z</time>
      </trkpt>
      <trkpt lat="47.97931" lon="1.97917">
        <ele>141.8</ele>
        <time>2015-09-27T09:24:58Z</time>
      </trkpt>
      <trkpt lat="47.97934" lon="1.97913">
        <ele>141.7</ele>
        <time>2015-09-27T09:24:59Z</time>
      </trkpt>
      <trkpt lat="47.97937" lon="1.97909">
        <ele>141.6</ele>
        <time>2015-09-27T09:25:00Z</time>
      </trkpt>
      <trkpt lat="47.97941" lon="1.97906">
        <ele>141.5</ele>
        <time>2015-09-27T09:25:01Z</time>
      </trkpt>
      <trkpt lat="47.97944" lon="1.97902">
        <ele>141.4</ele>
        <time>2015-09-27T09:25:02Z</time>
      </trkpt>
      <trkpt lat="47.97948" lon="1.97898">
        <ele>141.3</ele>
        <time>2015-09-27T09:25:03Z</time>
      </trkpt>
      <trkpt lat="47.97951" lon="1.97895">
        <ele>141.2</ele>
        <time>2015-09-27T09:25:04Z</time>
      </trkpt>
      <trkpt lat="47.97954" lon="1.97892">
        <ele>141.1</ele>
        <time>2015-09-27T09:25:05Z</time>
      </trkpt>
      <trkpt lat="47.97957" lon="1.97889">
        <ele>141</ele>
        <time>2015-09-27T09:25:06Z</time>
      </trkpt>
      <trkpt lat="47.9796" lon="1.97886">
        <ele>141</ele>
        <time>2015-09-27T09:25:07Z</time>
      </trkpt>
      <trkpt lat="47.97963" lon="1.97883">
        <ele>141</ele>
        <time>2015-09-27T09:25:08Z</time>
      </trkpt>
      <trkpt lat="47.97965" lon="1.97879">
        <ele>141</ele>
        <time>2015-09-27T09:25:09Z</time>
      </trkpt>
      <trkpt lat="47.97968" lon="1.97875">
        <ele>141</ele>
        <time>2015-09-27T09:25:10Z</time>
      </trkpt>
      <trkpt lat="47.9797" lon="1.97871">
        <ele>141.1</ele>
        <time>2015-09-27T09:25:11Z</time>
      </trkpt>
      <trkpt lat="47.97973" lon="1.97867">
        <ele>141.1</ele>
        <time>2015-09-27T09:25:12Z</time>
      </trkpt>
      <trkpt lat="47.97976" lon="1.97863">
        <ele>141.1</ele>
        <time>2015-09-27T09:25:13Z</time>
      </trkpt>
      <trkpt lat="47.97979" lon="1.9786">
        <ele>141.2</ele>
        <time>2015-09-27T09:25:14Z</time>
      </trkpt>
      <trkpt lat="47.97983" lon="1.97856">
        <ele>141.2</ele>
        <time>2015-09-27T09:25:15Z</time>
      </trkpt>
      <trkpt lat="47.97986" lon="1.97853">
        <ele>141.3</ele>
        <time>2015-09-27T09:25:16Z</time>
      </trkpt>
      <trkpt lat="47.97989" lon="1.9785">
        <ele>141.3</ele>
        <time>2015-09-27T09:25:17Z</time>
      </trkpt>
      <trkpt lat="47.97992" lon="1.97847">
        <ele>141.3</ele>
        <time>2015-09-27T09:25:18Z</time>
      </trkpt>
      <trkpt lat="47.97995" lon="1.97844">
        <ele>141.4</ele>
        <time>2015-09-27T09:25:19Z</time>
      </trkpt>
      <trkpt lat="47.97999" lon="1.9784">
        <ele>141.4</ele>
        <time>2015-09-27T09:25:20Z</time>
      </trkpt>
      <trkpt lat="47.98003" lon="1.97837">
        <ele>141.5</ele>
        <time>2015-09-27T09:25:21Z</time>
      </trkpt>
      <trkpt lat="47.98006" lon="1.97833">
        <ele>141.5</ele>
        <time>2015-09-27T09:25:22Z</time>
      </trkpt>
      <trkpt lat="47.9801" lon="1.97829">
        <ele>141.6</ele>
        <time>2015-09-27T09:25:23Z</time>
      </trkpt>
      <trkpt lat="47.98013" lon="1.97825">
        <ele>141.6</ele>
        <time>2015-09-27T09:25:24Z</time>
      </trkpt>
      <trkpt lat="47.98017" lon="1.97821">
        <ele>141.6</ele>
        <time>2015-09-27T09:25:25Z</time>
      </trkpt>
      <trkpt lat="47.9802" lon="1.97818">
        <ele>141.7</ele>
        <time>2015-09-27T09:25:26Z</time>
      </trkpt>
      <trkpt lat="47.98024" lon="1.97814">
        <ele>141.7</ele>
        <time>2015-09-27T09:25:27Z</time>
      </trkpt>
      <trkpt lat="47.98028" lon="1.97811">
        <ele>141.8</ele>
        <time>2015-09-27T09:25:28Z</time>
      </trkpt>
      <trkpt lat="47.98031" lon="1.97806">
        <ele>141.8</ele>
        <time>2015-09-27T09:25:29Z</time>
      </trkpt>
      <trkpt lat="47.98034" lon="1.97802">
        <ele>141.9</ele>
        <time>2015-09-27T09:25:30Z</time>
      </trkpt>
      <trkpt lat="47.98037" lon="1.97798">
        <ele>141.9</ele>
        <time>2015-09-27T09:25:31Z</time>
      </trkpt>
      <trkpt lat="47.9804" lon="1.97793">
        <ele>142</ele>
        <time>2015-09-27T09:25:32Z</time>
      </trkpt>
      <trkpt lat="47.98043" lon="1.9779">
        <ele>141.9</ele>
        <time>2015-09-27T09:25:33Z</time>
      </trkpt>
      <trkpt lat="47.98046" lon="1.97787">
        <ele>141.8</ele>
        <time>2015-09-27T09:25:34Z</time>
      </trkpt>
      <trkpt lat="47.98049" lon="1.97784">
        <ele>141.7</ele>
        <time>2015-09-27T09:25:35Z</time>
      </trkpt>
      <trkpt lat="47.98051" lon="1.97781">
        <ele>141.7</ele>
        <time>2015-09-27T09:25:36Z</time>
      </trkpt>
      <trkpt lat="47.98054" lon="1.97778">
        <ele>141.6</ele>
        <time>2015-09-27T09:25:37Z</time>
      </trkpt>
      <trkpt lat="47.98056" lon="1.97775">
        <ele>141.5</ele>
        <time>2015-09-27T09:25:38Z</time>
      </trkpt>
      <trkpt lat="47.98059" lon="1.97773">
        <ele>141.4</ele>
        <time>2015-09-27T09:25:39Z</time>
      </trkpt>
      <trkpt lat="47.98061" lon="1.97771">
        <ele>141.3</ele>
        <time>2015-09-27T09:25:40Z</time>
      </trkpt>
      <trkpt lat="47.98064" lon="1.97769">
        <ele>141.3</ele>
        <time>2015-09-27T09:25:41Z</time>
      </trkpt>
      <trkpt lat="47.98066" lon="1.97765">
        <ele>141.2</ele>
        <time>2015-09-27T09:25:42Z</time>
      </trkpt>
      <trkpt lat="47.98068" lon="1.97761">
        <ele>141.1</ele>
        <time>2015-09-27T09:25:44Z</time>
      </trkpt>
      <trkpt lat="47.98073" lon="1.97752">
        <ele>141</ele>
        <time>2015-09-27T09:25:45Z</time>
      </trkpt>
      <trkpt lat="47.98075" lon="1.97747">
        <ele>140.9</ele>
        <time>2015-09-27T09:25:46Z</time>
      </trkpt>
      <trkpt lat="47.98078" lon="1.97742">
        <ele>140.8</ele>
        <time>2015-09-27T09:25:47Z</time>
      </trkpt>
      <trkpt lat="47.98081" lon="1.97738">
        <ele>140.7</ele>
        <time>2015-09-27T09:25:48Z</time>
      </trkpt>
      <trkpt lat="47.98084" lon="1.97734">
        <ele>140.6</ele>
        <time>2015-09-27T09:25:49Z</time>
      </trkpt>
      <trkpt lat="47.98087" lon="1.97731">
        <ele>140.6</ele>
        <time>2015-09-27T09:25:50Z</time>
      </trkpt>
      <trkpt lat="47.98091" lon="1.97728">
        <ele>140.5</ele>
        <time>2015-09-27T09:25:51Z</time>
      </trkpt>
      <trkpt lat="47.98094" lon="1.97725">
        <ele>140.4</ele>
        <time>2015-09-27T09:25:52Z</time>
      </trkpt>
      <trkpt lat="47.98098" lon="1.97722">
        <ele>140.4</ele>
        <time>2015-09-27T09:25:53Z</time>
      </trkpt>
      <trkpt lat="47.98101" lon="1.97719">
        <ele>140.3</ele>
        <time>2015-09-27T09:25:54Z</time>
      </trkpt>
      <trkpt lat="47.98104" lon="1.97716">
        <ele>140.3</ele>
        <time>2015-09-27T09:25:55Z</time>
      </trkpt>
      <trkpt lat="47.98108" lon="1.97712">
        <ele>140.2</ele>
        <time>2015-09-27T09:25:56Z</time>
      </trkpt>
      <trkpt lat="47.98111" lon="1.97708">
        <ele>140.2</ele>
        <time>2015-09-27T09:25:57Z</time>
      </trkpt>
      <trkpt lat="47.98115" lon="1.97705">
        <ele>140.2</ele>
        <time>2015-09-27T09:25:58Z</time>
      </trkpt>
      <trkpt lat="47.98119" lon="1.97702">
        <ele>140.1</ele>
        <time>2015-09-27T09:25:59Z</time>
      </trkpt>
      <trkpt lat="47.98124" lon="1.977">
        <ele>140.1</ele>
        <time>2015-09-27T09:26:00Z</time>
      </trkpt>
      <trkpt lat="47.98128" lon="1.97699">
        <ele>140</ele>
        <time>2015-09-27T09:26:01Z</time>
      </trkpt>
      <trkpt lat="47.98132" lon="1.97697">
        <ele>140</ele>
        <time>2015-09-27T09:26:02Z</time>
      </trkpt>
      <trkpt lat="47.98135" lon="1.97694">
        <ele>139.9</ele>
        <time>2015-09-27T09:26:03Z</time>
      </trkpt>
      <trkpt lat="47.98139" lon="1.97691">
        <ele>139.8</ele>
        <time>2015-09-27T09:26:04Z</time>
      </trkpt>
      <trkpt lat="47.98142" lon="1.97687">
        <ele>139.7</ele>
        <time>2015-09-27T09:26:05Z</time>
      </trkpt>
      <trkpt lat="47.98144" lon="1.97682">
        <ele>139.7</ele>
        <time>2015-09-27T09:26:06Z</time>
      </trkpt>
      <trkpt lat="47.98147" lon="1.97677">
        <ele>139.7</ele>
        <time>2015-09-27T09:26:07Z</time>
      </trkpt>
      <trkpt lat="47.9815" lon="1.97672">
        <ele>139.6</ele>
        <time>2015-09-27T09:26:08Z</time>
      </trkpt>
      <trkpt lat="47.98153" lon="1.97667">
        <ele>139.5</ele>
        <time>2015-09-27T09:26:09Z</time>
      </trkpt>
      <trkpt lat="47.98158" lon="1.97663">
        <ele>139.3</ele>
        <time>2015-09-27T09:26:10Z</time>
      </trkpt>
      <trkpt lat="47.98162" lon="1.9766">
        <ele>139.2</ele>
        <time>2015-09-27T09:26:11Z</time>
      </trkpt>
      <trkpt lat="47.98166" lon="1.97657">
        <ele>139</ele>
        <time>2015-09-27T09:26:12Z</time>
      </trkpt>
      <trkpt lat="47.98171" lon="1.97655">
        <ele>138.8</ele>
        <time>2015-09-27T09:26:13Z</time>
      </trkpt>
      <trkpt lat="47.98174" lon="1.97652">
        <ele>138.7</ele>
        <time>2015-09-27T09:26:14Z</time>
      </trkpt>
      <trkpt lat="47.98178" lon="1.97647">
        <ele>138.5</ele>
        <time>2015-09-27T09:26:15Z</time>
      </trkpt>
      <trkpt lat="47.98181" lon="1.97644">
        <ele>138.4</ele>
        <time>2015-09-27T09:26:16Z</time>
      </trkpt>
      <trkpt lat="47.98185" lon="1.9764">
        <ele>138.2</ele>
        <time>2015-09-27T09:26:17Z</time>
      </trkpt>
      <trkpt lat="47.9819" lon="1.97635">
        <ele>137.9</ele>
        <time>2015-09-27T09:26:18Z</time>
      </trkpt>
      <trkpt lat="47.98194" lon="1.9763">
        <ele>137.7</ele>
        <time>2015-09-27T09:26:19Z</time>
      </trkpt>
      <trkpt lat="47.98199" lon="1.97625">
        <ele>137.5</ele>
        <time>2015-09-27T09:26:20Z</time>
      </trkpt>
      <trkpt lat="47.98203" lon="1.97619">
        <ele>137.2</ele>
        <time>2015-09-27T09:26:21Z</time>
      </trkpt>
      <trkpt lat="47.98207" lon="1.97613">
        <ele>137</ele>
        <time>2015-09-27T09:26:22Z</time>
      </trkpt>
      <trkpt lat="47.98212" lon="1.97607">
        <ele>137</ele>
        <time>2015-09-27T09:26:23Z</time>
      </trkpt>
      <trkpt lat="47.98217" lon="1.97602">
        <ele>137</ele>
        <time>2015-09-27T09:26:24Z</time>
      </trkpt>
      <trkpt lat="47.98222" lon="1.97598">
        <ele>137.1</ele>
        <time>2015-09-27T09:26:25Z</time>
      </trkpt>
      <trkpt lat="47.98227" lon="1.97593">
        <ele>137.1</ele>
        <time>2015-09-27T09:26:26Z</time>
      </trkpt>
      <trkpt lat="47.98232" lon="1.97588">
        <ele>137.1</ele>
        <time>2015-09-27T09:26:27Z</time>
      </trkpt>
      <trkpt lat="47.98236" lon="1.97581">
        <ele>137.2</ele>
        <time>2015-09-27T09:26:28Z</time>
      </trkpt>
      <trkpt lat="47.9824" lon="1.97575">
        <ele>137.2</ele>
        <time>2015-09-27T09:26:29Z</time>
      </trkpt>
      <trkpt lat="47.98245" lon="1.97569">
        <ele>137.3</ele>
        <time>2015-09-27T09:26:30Z</time>
      </trkpt>
      <trkpt lat="47.9825" lon="1.97565">
        <ele>137.4</ele>
        <time>2015-09-27T09:26:31Z</time>
      </trkpt>
      <trkpt lat="47.98256" lon="1.97562">
        <ele>137.4</ele>
        <time>2015-09-27T09:26:32Z</time>
      </trkpt>
      <trkpt lat="47.98262" lon="1.9756">
        <ele>137.5</ele>
        <time>2015-09-27T09:26:33Z</time>
      </trkpt>
      <trkpt lat="47.98268" lon="1.97558">
        <ele>137.6</ele>
        <time>2015-09-27T09:26:34Z</time>
      </trkpt>
      <trkpt lat="47.98274" lon="1.97556">
        <ele>137.7</ele>
        <time>2015-09-27T09:26:35Z</time>
      </trkpt>
      <trkpt lat="47.9828" lon="1.97552">
        <ele>137.7</ele>
        <time>2015-09-27T09:26:36Z</time>
      </trkpt>
      <trkpt lat="47.98284" lon="1.97548">
        <ele>137.8</ele>
        <time>2015-09-27T09:26:37Z</time>
      </trkpt>
      <trkpt lat="47.98289" lon="1.97543">
        <ele>138</ele>
        <time>2015-09-27T09:26:38Z</time>
      </trkpt>
      <trkpt lat="47.98293" lon="1.97536">
        <ele>138</ele>
        <time>2015-09-27T09:26:39Z</time>
      </trkpt>
      <trkpt lat="47.98297" lon="1.97531">
        <ele>137.8</ele>
        <time>2015-09-27T09:26:40Z</time>
      </trkpt>
      <trkpt lat="47.98301" lon="1.97526">
        <ele>137.6</ele>
        <time>2015-09-27T09:26:41Z</time>
      </trkpt>
      <trkpt lat="47.98306" lon="1.97521">
        <ele>137.4</ele>
        <time>2015-09-27T09:26:42Z</time>
      </trkpt>
      <trkpt lat="47.98311" lon="1.97516">
        <ele>137.2</ele>
        <time>2015-09-27T09:26:43Z</time>
      </trkpt>
      <trkpt lat="47.98314" lon="1.9751">
        <ele>137.1</ele>
        <time>2015-09-27T09:26:44Z</time>
      </trkpt>
      <trkpt lat="47.98318" lon="1.97503">
        <ele>137</ele>
        <time>2015-09-27T09:26:45Z</time>
      </trkpt>
      <trkpt lat="47.98321" lon="1.97497">
        <ele>137</ele>
        <time>2015-09-27T09:26:46Z</time>
      </trkpt>
      <trkpt lat="47.98326" lon="1.97492">
        <ele>136.9</ele>
        <time>2015-09-27T09:26:47Z</time>
      </trkpt>
      <trkpt lat="47.9833" lon="1.97487">
        <ele>136.8</ele>
        <time>2015-09-27T09:26:48Z</time>
      </trkpt>
      <trkpt lat="47.98334" lon="1.97482">
        <ele>136.7</ele>
        <time>2015-09-27T09:26:49Z</time>
      </trkpt>
      <trkpt lat="47.98339" lon="1.97478">
        <ele>136.6</ele>
        <time>2015-09-27T09:26:50Z</time>
      </trkpt>
      <trkpt lat="47.98344" lon="1.97473">
        <ele>136.5</ele>
        <time>2015-09-27T09:26:51Z</time>
      </trkpt>
      <trkpt lat="47.98348" lon="1.97469">
        <ele>136.5</ele>
        <time>2015-09-27T09:26:52Z</time>
      </trkpt>
      <trkpt lat="47.98353" lon="1.97465">
        <ele>136.4</ele>
        <time>2015-09-27T09:26:53Z</time>
      </trkpt>
      <trkpt lat="47.98357" lon="1.9746">
        <ele>136.4</ele>
        <time>2015-09-27T09:26:54Z</time>
      </trkpt>
      <trkpt lat="47.98361" lon="1.97455">
        <ele>136.4</ele>
        <time>2015-09-27T09:26:55Z</time>
      </trkpt>
      <trkpt lat="47.98365" lon="1.97451">
        <ele>136.3</ele>
        <time>2015-09-27T09:26:56Z</time>
      </trkpt>
      <trkpt lat="47.9837" lon="1.97446">
        <ele>136.3</ele>
        <time>2015-09-27T09:26:57Z</time>
      </trkpt>
      <trkpt lat="47.98374" lon="1.97442">
        <ele>136.2</ele>
        <time>2015-09-27T09:26:58Z</time>
      </trkpt>
      <trkpt lat="47.98379" lon="1.97437">
        <ele>136.2</ele>
        <time>2015-09-27T09:26:59Z</time>
      </trkpt>
      <trkpt lat="47.98383" lon="1.97433">
        <ele>136.2</ele>
        <time>2015-09-27T09:27:00Z</time>
      </trkpt>
      <trkpt lat="47.98388" lon="1.97428">
        <ele>136.2</ele>
        <time>2015-09-27T09:27:01Z</time>
      </trkpt>
      <trkpt lat="47.98392" lon="1.97424">
        <ele>136.2</ele>
        <time>2015-09-27T09:27:02Z</time>
      </trkpt>
      <trkpt lat="47.98396" lon="1.97419">
        <ele>136.2</ele>
        <time>2015-09-27T09:27:03Z</time>
      </trkpt>
      <trkpt lat="47.984" lon="1.97414">
        <ele>136.2</ele>
        <time>2015-09-27T09:27:04Z</time>
      </trkpt>
      <trkpt lat="47.98404" lon="1.9741">
        <ele>136.3</ele>
        <time>2015-09-27T09:27:05Z</time>
      </trkpt>
      <trkpt lat="47.98409" lon="1.97406">
        <ele>136.3</ele>
        <time>2015-09-27T09:27:06Z</time>
      </trkpt>
      <trkpt lat="47.98413" lon="1.97402">
        <ele>136.4</ele>
        <time>2015-09-27T09:27:07Z</time>
      </trkpt>
      <trkpt lat="47.98417" lon="1.97397">
        <ele>136.5</ele>
        <time>2015-09-27T09:27:08Z</time>
      </trkpt>
      <trkpt lat="47.98421" lon="1.97393">
        <ele>136.5</ele>
        <time>2015-09-27T09:27:09Z</time>
      </trkpt>
      <trkpt lat="47.98425" lon="1.97389">
        <ele>136.6</ele>
        <time>2015-09-27T09:27:10Z</time>
      </trkpt>
      <trkpt lat="47.98428" lon="1.97385">
        <ele>136.7</ele>
        <time>2015-09-27T09:27:11Z</time>
      </trkpt>
      <trkpt lat="47.98432" lon="1.97381">
        <ele>136.8</ele>
        <time>2015-09-27T09:27:12Z</time>
      </trkpt>
      <trkpt lat="47.98436" lon="1.97376">
        <ele>137</ele>
        <time>2015-09-27T09:27:13Z</time>
      </trkpt>
      <trkpt lat="47.98441" lon="1.97372">
        <ele>137</ele>
        <time>2015-09-27T09:27:14Z</time>
      </trkpt>
      <trkpt lat="47.98445" lon="1.97367">
        <ele>136.9</ele>
        <time>2015-09-27T09:27:15Z</time>
      </trkpt>
      <trkpt lat="47.98449" lon="1.97362">
        <ele>136.8</ele>
        <time>2015-09-27T09:27:16Z</time>
      </trkpt>
      <trkpt lat="47.98454" lon="1.97357">
        <ele>136.8</ele>
        <time>2015-09-27T09:27:17Z</time>
      </trkpt>
      <trkpt lat="47.98458" lon="1.97352">
        <ele>136.7</ele>
        <time>2015-09-27T09:27:18Z</time>
      </trkpt>
      <trkpt lat="47.98463" lon="1.97347">
        <ele>136.6</ele>
        <time>2015-09-27T09:27:19Z</time>
      </trkpt>
      <trkpt lat="47.98467" lon="1.97342">
        <ele>136.5</ele>
        <time>2015-09-27T09:27:20Z</time>
      </trkpt>
      <trkpt lat="47.98471" lon="1.97338">
        <ele>136.4</ele>
        <time>2015-09-27T09:27:21Z</time>
      </trkpt>
      <trkpt lat="47.98475" lon="1.97333">
        <ele>136.3</ele>
        <time>2015-09-27T09:27:22Z</time>
      </trkpt>
      <trkpt lat="47.98479" lon="1.97329">
        <ele>136.2</ele>
        <time>2015-09-27T09:27:23Z</time>
      </trkpt>
      <trkpt lat="47.98484" lon="1.97326">
        <ele>136.2</ele>
        <time>2015-09-27T09:27:24Z</time>
      </trkpt>
      <trkpt lat="47.98488" lon="1.97322">
        <ele>136.1</ele>
        <time>2015-09-27T09:27:25Z</time>
      </trkpt>
      <trkpt lat="47.98493" lon="1.97318">
        <ele>136.1</ele>
        <time>2015-09-27T09:27:26Z</time>
      </trkpt>
      <trkpt lat="47.98497" lon="1.97314">
        <ele>136</ele>
        <time>2015-09-27T09:27:27Z</time>
      </trkpt>
      <trkpt lat="47.98501" lon="1.9731">
        <ele>136</ele>
        <time>2015-09-27T09:27:28Z</time>
      </trkpt>
      <trkpt lat="47.98505" lon="1.97306">
        <ele>136</ele>
        <time>2015-09-27T09:27:29Z</time>
      </trkpt>
      <trkpt lat="47.98508" lon="1.97302">
        <ele>136</ele>
        <time>2015-09-27T09:27:30Z</time>
      </trkpt>
      <trkpt lat="47.98512" lon="1.97298">
        <ele>136</ele>
        <time>2015-09-27T09:27:31Z</time>
      </trkpt>
      <trkpt lat="47.98516" lon="1.97294">
        <ele>136</ele>
        <time>2015-09-27T09:27:32Z</time>
      </trkpt>
      <trkpt lat="47.98519" lon="1.97289">
        <ele>135.9</ele>
        <time>2015-09-27T09:27:33Z</time>
      </trkpt>
      <trkpt lat="47.98523" lon="1.97285">
        <ele>135.8</ele>
        <time>2015-09-27T09:27:34Z</time>
      </trkpt>
      <trkpt lat="47.98527" lon="1.97281">
        <ele>135.8</ele>
        <time>2015-09-27T09:27:35Z</time>
      </trkpt>
      <trkpt lat="47.98531" lon="1.97278">
        <ele>135.7</ele>
        <time>2015-09-27T09:27:36Z</time>
      </trkpt>
      <trkpt lat="47.98535" lon="1.97274">
        <ele>135.6</ele>
        <time>2015-09-27T09:27:37Z</time>
      </trkpt>
      <trkpt lat="47.98537" lon="1.9727">
        <ele>135.5</ele>
        <time>2015-09-27T09:27:38Z</time>
      </trkpt>
      <trkpt lat="47.9854" lon="1.97265">
        <ele>135.4</ele>
        <time>2015-09-27T09:27:39Z</time>
      </trkpt>
      <trkpt lat="47.98542" lon="1.97261">
        <ele>135.3</ele>
        <time>2015-09-27T09:27:40Z</time>
      </trkpt>
      <trkpt lat="47.98545" lon="1.97257">
        <ele>135.2</ele>
        <time>2015-09-27T09:27:41Z</time>
      </trkpt>
      <trkpt lat="47.98549" lon="1.97254">
        <ele>135.1</ele>
        <time>2015-09-27T09:27:42Z</time>
      </trkpt>
      <trkpt lat="47.98553" lon="1.97252">
        <ele>135.1</ele>
        <time>2015-09-27T09:27:43Z</time>
      </trkpt>
      <trkpt lat="47.98558" lon="1.9725">
        <ele>135.1</ele>
        <time>2015-09-27T09:27:44Z</time>
      </trkpt>
      <trkpt lat="47.98562" lon="1.97248">
        <ele>135.1</ele>
        <time>2015-09-27T09:27:45Z</time>
      </trkpt>
      <trkpt lat="47.98567" lon="1.97246">
        <ele>135.2</ele>
        <time>2015-09-27T09:27:46Z</time>
      </trkpt>
      <trkpt lat="47.98572" lon="1.97244">
        <ele>135.2</ele>
        <time>2015-09-27T09:27:47Z</time>
      </trkpt>
      <trkpt lat="47.98577" lon="1.97242">
        <ele>135.3</ele>
        <time>2015-09-27T09:27:48Z</time>
      </trkpt>
      <trkpt lat="47.98582" lon="1.9724">
        <ele>135.4</ele>
        <time>2015-09-27T09:27:49Z</time>
      </trkpt>
      <trkpt lat="47.98587" lon="1.97236">
        <ele>135.6</ele>
        <time>2015-09-27T09:27:50Z</time>
      </trkpt>
      <trkpt lat="47.98592" lon="1.97233">
        <ele>135.8</ele>
        <time>2015-09-27T09:27:51Z</time>
      </trkpt>
      <trkpt lat="47.98597" lon="1.97229">
        <ele>136</ele>
        <time>2015-09-27T09:27:52Z</time>
      </trkpt>
      <trkpt lat="47.98602" lon="1.97226">
        <ele>136.2</ele>
        <time>2015-09-27T09:27:53Z</time>
      </trkpt>
      <trkpt lat="47.98607" lon="1.97223">
        <ele>136.5</ele>
        <time>2015-09-27T09:27:54Z</time>
      </trkpt>
      <trkpt lat="47.98612" lon="1.9722">
        <ele>136.8</ele>
        <time>2015-09-27T09:27:55Z</time>
      </trkpt>
      <trkpt lat="47.98617" lon="1.97218">
        <ele>137.1</ele>
        <time>2015-09-27T09:27:56Z</time>
      </trkpt>
      <trkpt lat="47.98621" lon="1.97215">
        <ele>137.4</ele>
        <time>2015-09-27T09:27:57Z</time>
      </trkpt>
      <trkpt lat="47.98626" lon="1.97212">
        <ele>137.7</ele>
        <time>2015-09-27T09:27:58Z</time>
      </trkpt>
      <trkpt lat="47.98631" lon="1.9721">
        <ele>137.7</ele>
        <time>2015-09-27T09:27:59Z</time>
      </trkpt>
      <trkpt lat="47.98635" lon="1.97207">
        <ele>137.6</ele>
        <time>2015-09-27T09:28:00Z</time>
      </trkpt>
      <trkpt lat="47.98639" lon="1.97205">
        <ele>137.5</ele>
        <time>2015-09-27T09:28:01Z</time>
      </trkpt>
      <trkpt lat="47.98644" lon="1.97202">
        <ele>137.4</ele>
        <time>2015-09-27T09:28:02Z</time>
      </trkpt>
      <trkpt lat="47.98648" lon="1.97199">
        <ele>137.3</ele>
        <time>2015-09-27T09:28:03Z</time>
      </trkpt>
      <trkpt lat="47.98652" lon="1.97197">
        <ele>137.2</ele>
        <time>2015-09-27T09:28:04Z</time>
      </trkpt>
      <trkpt lat="47.98656" lon="1.97194">
        <ele>137.2</ele>
        <time>2015-09-27T09:28:05Z</time>
      </trkpt>
      <trkpt lat="47.9866" lon="1.97192">
        <ele>137.2</ele>
        <time>2015-09-27T09:28:06Z</time>
      </trkpt>
      <trkpt lat="47.98664" lon="1.97189">
        <ele>137.2</ele>
        <time>2015-09-27T09:28:07Z</time>
      </trkpt>
      <trkpt lat="47.98668" lon="1.97186">
        <ele>137.3</ele>
        <time>2015-09-27T09:28:08Z</time>
      </trkpt>
      <trkpt lat="47.98672" lon="1.97183">
        <ele>137.4</ele>
        <time>2015-09-27T09:28:09Z</time>
      </trkpt>
      <trkpt lat="47.98676" lon="1.97181">
        <ele>137.5</ele>
        <time>2015-09-27T09:28:10Z</time>
      </trkpt>
      <trkpt lat="47.9868" lon="1.97178">
        <ele>137.6</ele>
        <time>2015-09-27T09:28:11Z</time>
      </trkpt>
      <trkpt lat="47.98684" lon="1.97176">
        <ele>137.7</ele>
        <time>2015-09-27T09:28:12Z</time>
      </trkpt>
      <trkpt lat="47.98688" lon="1.97173">
        <ele>137.9</ele>
        <time>2015-09-27T09:28:13Z</time>
      </trkpt>
      <trkpt lat="47.98692" lon="1.9717">
        <ele>138.1</ele>
        <time>2015-09-27T09:28:14Z</time>
      </trkpt>
      <trkpt lat="47.98696" lon="1.97167">
        <ele>138.3</ele>
        <time>2015-09-27T09:28:15Z</time>
      </trkpt>
      <trkpt lat="47.98701" lon="1.97165">
        <ele>138.6</ele>
        <time>2015-09-27T09:28:16Z</time>
      </trkpt>
      <trkpt lat="47.98705" lon="1.97162">
        <ele>138.8</ele>
        <time>2015-09-27T09:28:17Z</time>
      </trkpt>
      <trkpt lat="47.98709" lon="1.97159">
        <ele>139.1</ele>
        <time>2015-09-27T09:28:18Z</time>
      </trkpt>
      <trkpt lat="47.98714" lon="1.97157">
        <ele>139.1</ele>
        <time>2015-09-27T09:28:19Z</time>
      </trkpt>
      <trkpt lat="47.98718" lon="1.97155">
        <ele>139.2</ele>
        <time>2015-09-27T09:28:20Z</time>
      </trkpt>
      <trkpt lat="47.98723" lon="1.97153">
        <ele>139.2</ele>
        <time>2015-09-27T09:28:21Z</time>
      </trkpt>
      <trkpt lat="47.98727" lon="1.97151">
        <ele>139.3</ele>
        <time>2015-09-27T09:28:22Z</time>
      </trkpt>
      <trkpt lat="47.98731" lon="1.97148">
        <ele>139.4</ele>
        <time>2015-09-27T09:28:23Z</time>
      </trkpt>
      <trkpt lat="47.98735" lon="1.97146">
        <ele>139.4</ele>
        <time>2015-09-27T09:28:24Z</time>
      </trkpt>
      <trkpt lat="47.9874" lon="1.97144">
        <ele>139.5</ele>
        <time>2015-09-27T09:28:25Z</time>
      </trkpt>
      <trkpt lat="47.98744" lon="1.97142">
        <ele>139.6</ele>
        <time>2015-09-27T09:28:26Z</time>
      </trkpt>
      <trkpt lat="47.98748" lon="1.9714">
        <ele>139.7</ele>
        <time>2015-09-27T09:28:27Z</time>
      </trkpt>
      <trkpt lat="47.98752" lon="1.97137">
        <ele>139.8</ele>
        <time>2015-09-27T09:28:28Z</time>
      </trkpt>
      <trkpt lat="47.98755" lon="1.97134">
        <ele>140</ele>
        <time>2015-09-27T09:28:29Z</time>
      </trkpt>
      <trkpt lat="47.98759" lon="1.97131">
        <ele>140.1</ele>
        <time>2015-09-27T09:28:30Z</time>
      </trkpt>
      <trkpt lat="47.98763" lon="1.97129">
        <ele>140.3</ele>
        <time>2015-09-27T09:28:31Z</time>
      </trkpt>
      <trkpt lat="47.98767" lon="1.97126">
        <ele>140.5</ele>
        <time>2015-09-27T09:28:32Z</time>
      </trkpt>
      <trkpt lat="47.98771" lon="1.97124">
        <ele>140.5</ele>
        <time>2015-09-27T09:28:33Z</time>
      </trkpt>
      <trkpt lat="47.98775" lon="1.97122">
        <ele>140.4</ele>
        <time>2015-09-27T09:28:34Z</time>
      </trkpt>
      <trkpt lat="47.98778" lon="1.9712">
        <ele>140.4</ele>
        <time>2015-09-27T09:28:35Z</time>
      </trkpt>
      <trkpt lat="47.98781" lon="1.97118">
        <ele>140.3</ele>
        <time>2015-09-27T09:28:36Z</time>
      </trkpt>
      <trkpt lat="47.98785" lon="1.97116">
        <ele>140.3</ele>
        <time>2015-09-27T09:28:37Z</time>
      </trkpt>
      <trkpt lat="47.98788" lon="1.97114">
        <ele>140.2</ele>
        <time>2015-09-27T09:28:38Z</time>
      </trkpt>
      <trkpt lat="47.98791" lon="1.97111">
        <ele>140.2</ele>
        <time>2015-09-27T09:28:39Z</time>
      </trkpt>
      <trkpt lat="47.98794" lon="1.97109">
        <ele>140.1</ele>
        <time>2015-09-27T09:28:40Z</time>
      </trkpt>
      <trkpt lat="47.98798" lon="1.97107">
        <ele>139.9</ele>
        <time>2015-09-27T09:28:41Z</time>
      </trkpt>
      <trkpt lat="47.98801" lon="1.97104">
        <ele>139.8</ele>
        <time>2015-09-27T09:28:42Z</time>
      </trkpt>
      <trkpt lat="47.98805" lon="1.97102">
        <ele>139.6</ele>
        <time>2015-09-27T09:28:43Z</time>
      </trkpt>
      <trkpt lat="47.98809" lon="1.97099">
        <ele>139.5</ele>
        <time>2015-09-27T09:28:44Z</time>
      </trkpt>
      <trkpt lat="47.98813" lon="1.97097">
        <ele>139.4</ele>
        <time>2015-09-27T09:28:45Z</time>
      </trkpt>
      <trkpt lat="47.98817" lon="1.97094">
        <ele>139.3</ele>
        <time>2015-09-27T09:28:46Z</time>
      </trkpt>
      <trkpt lat="47.9882" lon="1.97091">
        <ele>139.3</ele>
        <time>2015-09-27T09:28:47Z</time>
      </trkpt>
      <trkpt lat="47.98824" lon="1.97089">
        <ele>139.2</ele>
        <time>2015-09-27T09:28:48Z</time>
      </trkpt>
      <trkpt lat="47.98828" lon="1.97086">
        <ele>139.1</ele>
        <time>2015-09-27T09:28:49Z</time>
      </trkpt>
      <trkpt lat="47.98831" lon="1.97084">
        <ele>139.1</ele>
        <time>2015-09-27T09:28:50Z</time>
      </trkpt>
      <trkpt lat="47.98835" lon="1.97081">
        <ele>139</ele>
        <time>2015-09-27T09:28:51Z</time>
      </trkpt>
      <trkpt lat="47.98839" lon="1.97079">
        <ele>139</ele>
        <time>2015-09-27T09:28:52Z</time>
      </trkpt>
      <trkpt lat="47.98843" lon="1.97076">
        <ele>139</ele>
        <time>2015-09-27T09:28:53Z</time>
      </trkpt>
      <trkpt lat="47.98846" lon="1.97074">
        <ele>138.9</ele>
        <time>2015-09-27T09:28:54Z</time>
      </trkpt>
      <trkpt lat="47.98851" lon="1.97072">
        <ele>138.9</ele>
        <time>2015-09-27T09:28:55Z</time>
      </trkpt>
      <trkpt lat="47.98855" lon="1.97069">
        <ele>138.9</ele>
        <time>2015-09-27T09:28:56Z</time>
      </trkpt>
      <trkpt lat="47.98859" lon="1.97067">
        <ele>138.9</ele>
        <time>2015-09-27T09:28:57Z</time>
      </trkpt>
      <trkpt lat="47.98863" lon="1.97064">
        <ele>138.9</ele>
        <time>2015-09-27T09:28:58Z</time>
      </trkpt>
      <trkpt lat="47.98867" lon="1.97062">
        <ele>139</ele>
        <time>2015-09-27T09:28:59Z</time>
      </trkpt>
      <trkpt lat="47.98871" lon="1.9706">
        <ele>139</ele>
        <time>2015-09-27T09:29:00Z</time>
      </trkpt>
      <trkpt lat="47.98875" lon="1.97057">
        <ele>139.1</ele>
        <time>2015-09-27T09:29:01Z</time>
      </trkpt>
      <trkpt lat="47.98879" lon="1.97053">
        <ele>139.1</ele>
        <time>2015-09-27T09:29:02Z</time>
      </trkpt>
      <trkpt lat="47.98882" lon="1.97049">
        <ele>139.2</ele>
        <time>2015-09-27T09:29:03Z</time>
      </trkpt>
      <trkpt lat="47.98885" lon="1.97044">
        <ele>139.4</ele>
        <time>2015-09-27T09:29:04Z</time>
      </trkpt>
      <trkpt lat="47.98888" lon="1.97039">
        <ele>139.4</ele>
        <time>2015-09-27T09:29:05Z</time>
      </trkpt>
      <trkpt lat="47.98891" lon="1.97034">
        <ele>139.3</ele>
        <time>2015-09-27T09:29:06Z</time>
      </trkpt>
      <trkpt lat="47.98894" lon="1.9703">
        <ele>139.2</ele>
        <time>2015-09-27T09:29:07Z</time>
      </trkpt>
      <trkpt lat="47.98897" lon="1.97025">
        <ele>139.1</ele>
        <time>2015-09-27T09:29:08Z</time>
      </trkpt>
      <trkpt lat="47.98901" lon="1.9702">
        <ele>139</ele>
        <time>2015-09-27T09:29:09Z</time>
      </trkpt>
      <trkpt lat="47.98904" lon="1.97015">
        <ele>139</ele>
        <time>2015-09-27T09:29:10Z</time>
      </trkpt>
      <trkpt lat="47.98907" lon="1.9701">
        <ele>138.9</ele>
        <time>2015-09-27T09:29:11Z</time>
      </trkpt>
      <trkpt lat="47.9891" lon="1.97004">
        <ele>138.9</ele>
        <time>2015-09-27T09:29:12Z</time>
      </trkpt>
      <trkpt lat="47.98913" lon="1.96999">
        <ele>138.9</ele>
        <time>2015-09-27T09:29:13Z</time>
      </trkpt>
      <trkpt lat="47.98916" lon="1.96994">
        <ele>138.9</ele>
        <time>2015-09-27T09:29:14Z</time>
      </trkpt>
      <trkpt lat="47.98918" lon="1.96989">
        <ele>138.9</ele>
        <time>2015-09-27T09:29:15Z</time>
      </trkpt>
      <trkpt lat="47.98921" lon="1.96985">
        <ele>138.9</ele>
        <time>2015-09-27T09:29:16Z</time>
      </trkpt>
      <trkpt lat="47.98923" lon="1.96981">
        <ele>139</ele>
        <time>2015-09-27T09:29:17Z</time>
      </trkpt>
      <trkpt lat="47.98926" lon="1.96977">
        <ele>139</ele>
        <time>2015-09-27T09:29:18Z</time>
      </trkpt>
      <trkpt lat="47.98928" lon="1.96973">
        <ele>139</ele>
        <time>2015-09-27T09:29:19Z</time>
      </trkpt>
      <trkpt lat="47.98931" lon="1.96969">
        <ele>139.1</ele>
        <time>2015-09-27T09:29:20Z</time>
      </trkpt>
      <trkpt lat="47.98933" lon="1.96966">
        <ele>139.1</ele>
        <time>2015-09-27T09:29:21Z</time>
      </trkpt>
      <trkpt lat="47.98936" lon="1.96962">
        <ele>139.2</ele>
        <time>2015-09-27T09:29:22Z</time>
      </trkpt>
      <trkpt lat="47.98938" lon="1.96959">
        <ele>139.2</ele>
        <time>2015-09-27T09:29:23Z</time>
      </trkpt>
      <trkpt lat="47.98942" lon="1.96956">
        <ele>139.2</ele>
        <time>2015-09-27T09:29:24Z</time>
      </trkpt>
      <trkpt lat="47.98945" lon="1.96953">
        <ele>139.2</ele>
        <time>2015-09-27T09:29:25Z</time>
      </trkpt>
      <trkpt lat="47.98948" lon="1.9695">
        <ele>139.2</ele>
        <time>2015-09-27T09:29:26Z</time>
      </trkpt>
      <trkpt lat="47.98951" lon="1.96947">
        <ele>139.2</ele>
        <time>2015-09-27T09:29:27Z</time>
      </trkpt>
      <trkpt lat="47.98954" lon="1.96943">
        <ele>139.2</ele>
        <time>2015-09-27T09:29:28Z</time>
      </trkpt>
      <trkpt lat="47.98956" lon="1.96938">
        <ele>139.3</ele>
        <time>2015-09-27T09:29:29Z</time>
      </trkpt>
      <trkpt lat="47.98959" lon="1.96934">
        <ele>139.3</ele>
        <time>2015-09-27T09:29:30Z</time>
      </trkpt>
      <trkpt lat="47.98961" lon="1.96928">
        <ele>139.4</ele>
        <time>2015-09-27T09:29:31Z</time>
      </trkpt>
      <trkpt lat="47.98964" lon="1.96923">
        <ele>139.6</ele>
        <time>2015-09-27T09:29:32Z</time>
      </trkpt>
      <trkpt lat="47.98966" lon="1.96918">
        <ele>139.7</ele>
        <time>2015-09-27T09:29:33Z</time>
      </trkpt>
      <trkpt lat="47.98968" lon="1.96912">
        <ele>139.8</ele>
        <time>2015-09-27T09:29:34Z</time>
      </trkpt>
      <trkpt lat="47.98971" lon="1.96907">
        <ele>140</ele>
        <time>2015-09-27T09:29:35Z</time>
      </trkpt>
      <trkpt lat="47.98974" lon="1.96902">
        <ele>140.1</ele>
        <time>2015-09-27T09:29:36Z</time>
      </trkpt>
      <trkpt lat="47.98977" lon="1.96898">
        <ele>140.2</ele>
        <time>2015-09-27T09:29:37Z</time>
      </trkpt>
      <trkpt lat="47.9898" lon="1.96894">
        <ele>140.4</ele>
        <time>2015-09-27T09:29:38Z</time>
      </trkpt>
      <trkpt lat="47.98984" lon="1.9689">
        <ele>140.5</ele>
        <time>2015-09-27T09:29:39Z</time>
      </trkpt>
      <trkpt lat="47.98987" lon="1.96886">
        <ele>140.6</ele>
        <time>2015-09-27T09:29:40Z</time>
      </trkpt>
      <trkpt lat="47.98991" lon="1.96881">
        <ele>140.7</ele>
        <time>2015-09-27T09:29:41Z</time>
      </trkpt>
      <trkpt lat="47.98995" lon="1.96876">
        <ele>140.9</ele>
        <time>2015-09-27T09:29:42Z</time>
      </trkpt>
      <trkpt lat="47.98998" lon="1.96871">
        <ele>140.9</ele>
        <time>2015-09-27T09:29:43Z</time>
      </trkpt>
      <trkpt lat="47.99002" lon="1.96865">
        <ele>141</ele>
        <time>2015-09-27T09:29:44Z</time>
      </trkpt>
      <trkpt lat="47.99007" lon="1.9686">
        <ele>141.1</ele>
        <time>2015-09-27T09:29:45Z</time>
      </trkpt>
      <trkpt lat="47.99011" lon="1.96854">
        <ele>141.1</ele>
        <time>2015-09-27T09:29:46Z</time>
      </trkpt>
      <trkpt lat="47.99014" lon="1.96848">
        <ele>141.1</ele>
        <time>2015-09-27T09:29:47Z</time>
      </trkpt>
      <trkpt lat="47.99018" lon="1.96843">
        <ele>141.1</ele>
        <time>2015-09-27T09:29:48Z</time>
      </trkpt>
      <trkpt lat="47.99022" lon="1.96838">
        <ele>141.2</ele>
        <time>2015-09-27T09:29:49Z</time>
      </trkpt>
      <trkpt lat="47.99025" lon="1.96832">
        <ele>141.2</ele>
        <time>2015-09-27T09:29:50Z</time>
      </trkpt>
      <trkpt lat="47.99029" lon="1.96826">
        <ele>141.2</ele>
        <time>2015-09-27T09:29:51Z</time>
      </trkpt>
      <trkpt lat="47.99032" lon="1.9682">
        <ele>141.2</ele>
        <time>2015-09-27T09:29:52Z</time>
      </trkpt>
      <trkpt lat="47.99036" lon="1.96814">
        <ele>141.2</ele>
        <time>2015-09-27T09:29:53Z</time>
      </trkpt>
      <trkpt lat="47.9904" lon="1.96809">
        <ele>141.2</ele>
        <time>2015-09-27T09:29:54Z</time>
      </trkpt>
      <trkpt lat="47.99044" lon="1.96804">
        <ele>141.2</ele>
        <time>2015-09-27T09:29:55Z</time>
      </trkpt>
      <trkpt lat="47.99047" lon="1.96799">
        <ele>141.1</ele>
        <time>2015-09-27T09:29:56Z</time>
      </trkpt>
      <trkpt lat="47.99048" lon="1.96795">
        <ele>141</ele>
        <time>2015-09-27T09:29:58Z</time>
      </trkpt>
      <trkpt lat="47.99051" lon="1.9679">
        <ele>141</ele>
        <time>2015-09-27T09:30:01Z</time>
      </trkpt>
      <trkpt lat="47.99055" lon="1.96786">
        <ele>140.9</ele>
        <time>2015-09-27T09:30:03Z</time>
      </trkpt>
      <trkpt lat="47.99057" lon="1.96782">
        <ele>140.8</ele>
        <time>2015-09-27T09:30:04Z</time>
      </trkpt>
      <trkpt lat="47.9906" lon="1.96778">
        <ele>140.8</ele>
        <time>2015-09-27T09:30:05Z</time>
      </trkpt>
      <trkpt lat="47.99062" lon="1.96774">
        <ele>140.7</ele>
        <time>2015-09-27T09:30:06Z</time>
      </trkpt>
      <trkpt lat="47.99064" lon="1.96769">
        <ele>140.6</ele>
        <time>2015-09-27T09:30:07Z</time>
      </trkpt>
      <trkpt lat="47.99066" lon="1.96764">
        <ele>140.5</ele>
        <time>2015-09-27T09:30:08Z</time>
      </trkpt>
      <trkpt lat="47.99069" lon="1.9676">
        <ele>140.4</ele>
        <time>2015-09-27T09:30:09Z</time>
      </trkpt>
      <trkpt lat="47.99072" lon="1.96755">
        <ele>140.2</ele>
        <time>2015-09-27T09:30:10Z</time>
      </trkpt>
      <trkpt lat="47.99075" lon="1.96751">
        <ele>140.1</ele>
        <time>2015-09-27T09:30:11Z</time>
      </trkpt>
      <trkpt lat="47.99079" lon="1.96748">
        <ele>140</ele>
        <time>2015-09-27T09:30:12Z</time>
      </trkpt>
      <trkpt lat="47.99082" lon="1.96744">
        <ele>139.9</ele>
        <time>2015-09-27T09:30:13Z</time>
      </trkpt>
      <trkpt lat="47.99086" lon="1.9674">
        <ele>139.7</ele>
        <time>2015-09-27T09:30:14Z</time>
      </trkpt>
      <trkpt lat="47.99089" lon="1.96737">
        <ele>139.6</ele>
        <time>2015-09-27T09:30:15Z</time>
      </trkpt>
      <trkpt lat="47.99093" lon="1.96734">
        <ele>139.5</ele>
        <time>2015-09-27T09:30:16Z</time>
      </trkpt>
      <trkpt lat="47.99098" lon="1.96731">
        <ele>139.3</ele>
        <time>2015-09-27T09:30:17Z</time>
      </trkpt>
      <trkpt lat="47.99101" lon="1.96728">
        <ele>139.1</ele>
        <time>2015-09-27T09:30:18Z</time>
      </trkpt>
      <trkpt lat="47.99105" lon="1.96724">
        <ele>139</ele>
        <time>2015-09-27T09:30:19Z</time>
      </trkpt>
      <trkpt lat="47.99108" lon="1.96721">
        <ele>138.8</ele>
        <time>2015-09-27T09:30:20Z</time>
      </trkpt>
      <trkpt lat="47.99111" lon="1.96717">
        <ele>138.6</ele>
        <time>2015-09-27T09:30:21Z</time>
      </trkpt>
      <trkpt lat="47.99115" lon="1.96713">
        <ele>138.4</ele>
        <time>2015-09-27T09:30:22Z</time>
      </trkpt>
      <trkpt lat="47.99118" lon="1.96709">
        <ele>138.2</ele>
        <time>2015-09-27T09:30:23Z</time>
      </trkpt>
      <trkpt lat="47.99121" lon="1.96705">
        <ele>138.1</ele>
        <time>2015-09-27T09:30:24Z</time>
      </trkpt>
      <trkpt lat="47.99124" lon="1.967">
        <ele>138.1</ele>
        <time>2015-09-27T09:30:25Z</time>
      </trkpt>
      <trkpt lat="47.99128" lon="1.96695">
        <ele>138.1</ele>
        <time>2015-09-27T09:30:26Z</time>
      </trkpt>
      <trkpt lat="47.99131" lon="1.96691">
        <ele>138.1</ele>
        <time>2015-09-27T09:30:27Z</time>
      </trkpt>
      <trkpt lat="47.99135" lon="1.96686">
        <ele>138.1</ele>
        <time>2015-09-27T09:30:28Z</time>
      </trkpt>
      <trkpt lat="47.99138" lon="1.96682">
        <ele>138.1</ele>
        <time>2015-09-27T09:30:29Z</time>
      </trkpt>
      <trkpt lat="47.99142" lon="1.96677">
        <ele>138.1</ele>
        <time>2015-09-27T09:30:30Z</time>
      </trkpt>
      <trkpt lat="47.99145" lon="1.96673">
        <ele>138</ele>
        <time>2015-09-27T09:30:31Z</time>
      </trkpt>
      <trkpt lat="47.99149" lon="1.96668">
        <ele>137.9</ele>
        <time>2015-09-27T09:30:32Z</time>
      </trkpt>
      <trkpt lat="47.99152" lon="1.96664">
        <ele>137.8</ele>
        <time>2015-09-27T09:30:33Z</time>
      </trkpt>
      <trkpt lat="47.99155" lon="1.9666">
        <ele>137.7</ele>
        <time>2015-09-27T09:30:34Z</time>
      </trkpt>
      <trkpt lat="47.99158" lon="1.96655">
        <ele>137.6</ele>
        <time>2015-09-27T09:30:35Z</time>
      </trkpt>
      <trkpt lat="47.99161" lon="1.9665">
        <ele>137.5</ele>
        <time>2015-09-27T09:30:36Z</time>
      </trkpt>
      <trkpt lat="47.99164" lon="1.96644">
        <ele>137.3</ele>
        <time>2015-09-27T09:30:37Z</time>
      </trkpt>
      <trkpt lat="47.99168" lon="1.96639">
        <ele>137.1</ele>
        <time>2015-09-27T09:30:38Z</time>
      </trkpt>
      <trkpt lat="47.99172" lon="1.96634">
        <ele>136.9</ele>
        <time>2015-09-27T09:30:39Z</time>
      </trkpt>
      <trkpt lat="47.99175" lon="1.96628">
        <ele>136.6</ele>
        <time>2015-09-27T09:30:40Z</time>
      </trkpt>
      <trkpt lat="47.99179" lon="1.96623">
        <ele>136.3</ele>
        <time>2015-09-27T09:30:41Z</time>
      </trkpt>
      <trkpt lat="47.99183" lon="1.96617">
        <ele>136</ele>
        <time>2015-09-27T09:30:42Z</time>
      </trkpt>
      <trkpt lat="47.99187" lon="1.96612">
        <ele>135.7</ele>
        <time>2015-09-27T09:30:43Z</time>
      </trkpt>
      <trkpt lat="47.99191" lon="1.96607">
        <ele>135.4</ele>
        <time>2015-09-27T09:30:44Z</time>
      </trkpt>
      <trkpt lat="47.99196" lon="1.96603">
        <ele>135.1</ele>
        <time>2015-09-27T09:30:45Z</time>
      </trkpt>
      <trkpt lat="47.992" lon="1.96598">
        <ele>134.7</ele>
        <time>2015-09-27T09:30:46Z</time>
      </trkpt>
      <trkpt lat="47.99204" lon="1.96592">
        <ele>134.4</ele>
        <time>2015-09-27T09:30:47Z</time>
      </trkpt>
      <trkpt lat="47.99208" lon="1.96587">
        <ele>134.1</ele>
        <time>2015-09-27T09:30:48Z</time>
      </trkpt>
      <trkpt lat="47.99209" lon="1.96581">
        <ele>133.9</ele>
        <time>2015-09-27T09:30:49Z</time>
      </trkpt>
      <trkpt lat="47.99206" lon="1.96575">
        <ele>133.9</ele>
        <time>2015-09-27T09:30:51Z</time>
      </trkpt>
      <trkpt lat="47.99204" lon="1.96569">
        <ele>133.9</ele>
        <time>2015-09-27T09:30:53Z</time>
      </trkpt>
      <trkpt lat="47.99204" lon="1.96562">
        <ele>133.7</ele>
        <time>2015-09-27T09:30:55Z</time>
      </trkpt>
      <trkpt lat="47.99205" lon="1.96557">
        <ele>133.5</ele>
        <time>2015-09-27T09:30:56Z</time>
      </trkpt>
      <trkpt lat="47.99206" lon="1.96553">
        <ele>133.4</ele>
        <time>2015-09-27T09:30:57Z</time>
      </trkpt>
      <trkpt lat="47.99207" lon="1.96548">
        <ele>133.2</ele>
        <time>2015-09-27T09:30:58Z</time>
      </trkpt>
      <trkpt lat="47.99208" lon="1.96543">
        <ele>133.1</ele>
        <time>2015-09-27T09:30:59Z</time>
      </trkpt>
      <trkpt lat="47.99208" lon="1.96538">
        <ele>132.8</ele>
        <time>2015-09-27T09:31:00Z</time>
      </trkpt>
      <trkpt lat="47.99209" lon="1.96534">
        <ele>132.6</ele>
        <time>2015-09-27T09:31:01Z</time>
      </trkpt>
      <trkpt lat="47.9921" lon="1.96529">
        <ele>132.3</ele>
        <time>2015-09-27T09:31:02Z</time>
      </trkpt>
      <trkpt lat="47.9921" lon="1.96523">
        <ele>132</ele>
        <time>2015-09-27T09:31:03Z</time>
      </trkpt>
      <trkpt lat="47.99211" lon="1.96516">
        <ele>131.6</ele>
        <time>2015-09-27T09:31:04Z</time>
      </trkpt>
      <trkpt lat="47.99212" lon="1.96506">
        <ele>131.1</ele>
        <time>2015-09-27T09:31:05Z</time>
      </trkpt>
      <trkpt lat="47.99212" lon="1.96496">
        <ele>130.6</ele>
        <time>2015-09-27T09:31:06Z</time>
      </trkpt>
      <trkpt lat="47.99212" lon="1.96486">
        <ele>130.2</ele>
        <time>2015-09-27T09:31:07Z</time>
      </trkpt>
      <trkpt lat="47.99213" lon="1.96476">
        <ele>129.7</ele>
        <time>2015-09-27T09:31:08Z</time>
      </trkpt>
      <trkpt lat="47.99214" lon="1.96467">
        <ele>129.2</ele>
        <time>2015-09-27T09:31:09Z</time>
      </trkpt>
      <trkpt lat="47.99216" lon="1.96458">
        <ele>128.8</ele>
        <time>2015-09-27T09:31:10Z</time>
      </trkpt>
      <trkpt lat="47.99217" lon="1.96449">
        <ele>128.9</ele>
        <time>2015-09-27T09:31:11Z</time>
      </trkpt>
      <trkpt lat="47.99219" lon="1.96442">
        <ele>128.9</ele>
        <time>2015-09-27T09:31:12Z</time>
      </trkpt>
      <trkpt lat="47.9922" lon="1.96435">
        <ele>128.9</ele>
        <time>2015-09-27T09:31:13Z</time>
      </trkpt>
      <trkpt lat="47.99222" lon="1.96428">
        <ele>128.9</ele>
        <time>2015-09-27T09:31:14Z</time>
      </trkpt>
      <trkpt lat="47.99224" lon="1.96421">
        <ele>128.9</ele>
        <time>2015-09-27T09:31:15Z</time>
      </trkpt>
      <trkpt lat="47.99224" lon="1.96414">
        <ele>128.9</ele>
        <time>2015-09-27T09:31:16Z</time>
      </trkpt>
      <trkpt lat="47.99225" lon="1.96405">
        <ele>129</ele>
        <time>2015-09-27T09:31:17Z</time>
      </trkpt>
      <trkpt lat="47.99225" lon="1.96398">
        <ele>129</ele>
        <time>2015-09-27T09:31:18Z</time>
      </trkpt>
      <trkpt lat="47.99225" lon="1.9639">
        <ele>129.1</ele>
        <time>2015-09-27T09:31:19Z</time>
      </trkpt>
      <trkpt lat="47.99225" lon="1.96381">
        <ele>129.1</ele>
        <time>2015-09-27T09:31:20Z</time>
      </trkpt>
      <trkpt lat="47.99225" lon="1.96373">
        <ele>129.2</ele>
        <time>2015-09-27T09:31:21Z</time>
      </trkpt>
      <trkpt lat="47.99225" lon="1.96364">
        <ele>129.1</ele>
        <time>2015-09-27T09:31:22Z</time>
      </trkpt>
      <trkpt lat="47.99224" lon="1.96355">
        <ele>129.1</ele>
        <time>2015-09-27T09:31:23Z</time>
      </trkpt>
      <trkpt lat="47.99224" lon="1.96346">
        <ele>129</ele>
        <time>2015-09-27T09:31:24Z</time>
      </trkpt>
      <trkpt lat="47.99224" lon="1.96337">
        <ele>129</ele>
        <time>2015-09-27T09:31:25Z</time>
      </trkpt>
      <trkpt lat="47.99225" lon="1.96329">
        <ele>128.9</ele>
        <time>2015-09-27T09:31:26Z</time>
      </trkpt>
      <trkpt lat="47.99226" lon="1.96321">
        <ele>128.8</ele>
        <time>2015-09-27T09:31:27Z</time>
      </trkpt>
      <trkpt lat="47.99228" lon="1.96313">
        <ele>128.7</ele>
        <time>2015-09-27T09:31:28Z</time>
      </trkpt>
      <trkpt lat="47.99229" lon="1.96305">
        <ele>128.6</ele>
        <time>2015-09-27T09:31:29Z</time>
      </trkpt>
      <trkpt lat="47.9923" lon="1.96296">
        <ele>128.5</ele>
        <time>2015-09-27T09:31:30Z</time>
      </trkpt>
      <trkpt lat="47.9923" lon="1.96289">
        <ele>128.5</ele>
        <time>2015-09-27T09:31:31Z</time>
      </trkpt>
      <trkpt lat="47.99231" lon="1.96282">
        <ele>128.6</ele>
        <time>2015-09-27T09:31:32Z</time>
      </trkpt>
      <trkpt lat="47.99232" lon="1.96275">
        <ele>128.7</ele>
        <time>2015-09-27T09:31:33Z</time>
      </trkpt>
      <trkpt lat="47.99232" lon="1.96268">
        <ele>128.8</ele>
        <time>2015-09-27T09:31:34Z</time>
      </trkpt>
      <trkpt lat="47.99233" lon="1.96261">
        <ele>128.9</ele>
        <time>2015-09-27T09:31:35Z</time>
      </trkpt>
      <trkpt lat="47.99233" lon="1.96254">
        <ele>129</ele>
        <time>2015-09-27T09:31:36Z</time>
      </trkpt>
      <trkpt lat="47.99234" lon="1.96247">
        <ele>129.1</ele>
        <time>2015-09-27T09:31:37Z</time>
      </trkpt>
      <trkpt lat="47.99236" lon="1.9624">
        <ele>129.2</ele>
        <time>2015-09-27T09:31:38Z</time>
      </trkpt>
      <trkpt lat="47.99237" lon="1.96233">
        <ele>129.3</ele>
        <time>2015-09-27T09:31:39Z</time>
      </trkpt>
      <trkpt lat="47.99238" lon="1.96226">
        <ele>129.4</ele>
        <time>2015-09-27T09:31:40Z</time>
      </trkpt>
      <trkpt lat="47.9924" lon="1.96218">
        <ele>129.5</ele>
        <time>2015-09-27T09:31:41Z</time>
      </trkpt>
      <trkpt lat="47.99241" lon="1.96211">
        <ele>129.6</ele>
        <time>2015-09-27T09:31:42Z</time>
      </trkpt>
      <trkpt lat="47.99242" lon="1.96204">
        <ele>129.5</ele>
        <time>2015-09-27T09:31:43Z</time>
      </trkpt>
      <trkpt lat="47.99243" lon="1.96197">
        <ele>129.3</ele>
        <time>2015-09-27T09:31:44Z</time>
      </trkpt>
      <trkpt lat="47.99244" lon="1.9619">
        <ele>129.1</ele>
        <time>2015-09-27T09:31:45Z</time>
      </trkpt>
      <trkpt lat="47.99245" lon="1.96183">
        <ele>128.9</ele>
        <time>2015-09-27T09:31:46Z</time>
      </trkpt>
      <trkpt lat="47.99247" lon="1.96175">
        <ele>128.7</ele>
        <time>2015-09-27T09:31:47Z</time>
      </trkpt>
      <trkpt lat="47.99249" lon="1.96167">
        <ele>128.5</ele>
        <time>2015-09-27T09:31:48Z</time>
      </trkpt>
      <trkpt lat="47.99251" lon="1.9616">
        <ele>128.3</ele>
        <time>2015-09-27T09:31:49Z</time>
      </trkpt>
      <trkpt lat="47.99253" lon="1.96153">
        <ele>128.2</ele>
        <time>2015-09-27T09:31:50Z</time>
      </trkpt>
      <trkpt lat="47.99255" lon="1.96145">
        <ele>128</ele>
        <time>2015-09-27T09:31:51Z</time>
      </trkpt>
      <trkpt lat="47.99257" lon="1.96138">
        <ele>127.9</ele>
        <time>2015-09-27T09:31:52Z</time>
      </trkpt>
      <trkpt lat="47.99258" lon="1.96131">
        <ele>127.7</ele>
        <time>2015-09-27T09:31:53Z</time>
      </trkpt>
      <trkpt lat="47.9926" lon="1.96124">
        <ele>127.6</ele>
        <time>2015-09-27T09:31:54Z</time>
      </trkpt>
      <trkpt lat="47.99262" lon="1.96116">
        <ele>127.5</ele>
        <time>2015-09-27T09:31:55Z</time>
      </trkpt>
      <trkpt lat="47.99263" lon="1.96109">
        <ele>127.4</ele>
        <time>2015-09-27T09:31:56Z</time>
      </trkpt>
      <trkpt lat="47.99265" lon="1.96101">
        <ele>127.3</ele>
        <time>2015-09-27T09:31:57Z</time>
      </trkpt>
      <trkpt lat="47.99266" lon="1.96094">
        <ele>127.2</ele>
        <time>2015-09-27T09:31:58Z</time>
      </trkpt>
      <trkpt lat="47.99267" lon="1.96086">
        <ele>127.1</ele>
        <time>2015-09-27T09:31:59Z</time>
      </trkpt>
      <trkpt lat="47.99268" lon="1.9608">
        <ele>127</ele>
        <time>2015-09-27T09:32:00Z</time>
      </trkpt>
      <trkpt lat="47.99269" lon="1.96073">
        <ele>126.9</ele>
        <time>2015-09-27T09:32:01Z</time>
      </trkpt>
      <trkpt lat="47.9927" lon="1.96066">
        <ele>126.9</ele>
        <time>2015-09-27T09:32:02Z</time>
      </trkpt>
      <trkpt lat="47.99271" lon="1.96059">
        <ele>126.8</ele>
        <time>2015-09-27T09:32:03Z</time>
      </trkpt>
      <trkpt lat="47.99273" lon="1.96052">
        <ele>126.7</ele>
        <time>2015-09-27T09:32:04Z</time>
      </trkpt>
      <trkpt lat="47.99274" lon="1.96045">
        <ele>126.6</ele>
        <time>2015-09-27T09:32:05Z</time>
      </trkpt>
      <trkpt lat="47.99276" lon="1.96038">
        <ele>126.7</ele>
        <time>2015-09-27T09:32:06Z</time>
      </trkpt>
      <trkpt lat="47.99277" lon="1.9603">
        <ele>126.9</ele>
        <time>2015-09-27T09:32:07Z</time>
      </trkpt>
      <trkpt lat="47.99278" lon="1.96023">
        <ele>127.1</ele>
        <time>2015-09-27T09:32:08Z</time>
      </trkpt>
      <trkpt lat="47.9928" lon="1.96016">
        <ele>127.2</ele>
        <time>2015-09-27T09:32:09Z</time>
      </trkpt>
      <trkpt lat="47.99281" lon="1.96008">
        <ele>127.5</ele>
        <time>2015-09-27T09:32:10Z</time>
      </trkpt>
      <trkpt lat="47.99283" lon="1.96">
        <ele>127.7</ele>
        <time>2015-09-27T09:32:11Z</time>
      </trkpt>
      <trkpt lat="47.99285" lon="1.95991">
        <ele>127.9</ele>
        <time>2015-09-27T09:32:12Z</time>
      </trkpt>
      <trkpt lat="47.99287" lon="1.95983">
        <ele>128.2</ele>
        <time>2015-09-27T09:32:13Z</time>
      </trkpt>
      <trkpt lat="47.99288" lon="1.95976">
        <ele>128.4</ele>
        <time>2015-09-27T09:32:14Z</time>
      </trkpt>
      <trkpt lat="47.99289" lon="1.95968">
        <ele>128.7</ele>
        <time>2015-09-27T09:32:15Z</time>
      </trkpt>
      <trkpt lat="47.9929" lon="1.95961">
        <ele>128.9</ele>
        <time>2015-09-27T09:32:16Z</time>
      </trkpt>
      <trkpt lat="47.99291" lon="1.95955">
        <ele>128.9</ele>
        <time>2015-09-27T09:32:17Z</time>
      </trkpt>
      <trkpt lat="47.99293" lon="1.95948">
        <ele>128.9</ele>
        <time>2015-09-27T09:32:18Z</time>
      </trkpt>
      <trkpt lat="47.99294" lon="1.95942">
        <ele>128.7</ele>
        <time>2015-09-27T09:32:19Z</time>
      </trkpt>
      <trkpt lat="47.99296" lon="1.95936">
        <ele>128.6</ele>
        <time>2015-09-27T09:32:20Z</time>
      </trkpt>
      <trkpt lat="47.99298" lon="1.9593">
        <ele>128.5</ele>
        <time>2015-09-27T09:32:21Z</time>
      </trkpt>
      <trkpt lat="47.99299" lon="1.95923">
        <ele>128.4</ele>
        <time>2015-09-27T09:32:22Z</time>
      </trkpt>
      <trkpt lat="47.993" lon="1.95916">
        <ele>128.3</ele>
        <time>2015-09-27T09:32:23Z</time>
      </trkpt>
      <trkpt lat="47.99302" lon="1.95909">
        <ele>128.2</ele>
        <time>2015-09-27T09:32:24Z</time>
      </trkpt>
      <trkpt lat="47.99304" lon="1.95903">
        <ele>128.1</ele>
        <time>2015-09-27T09:32:25Z</time>
      </trkpt>
      <trkpt lat="47.99305" lon="1.95896">
        <ele>128</ele>
        <time>2015-09-27T09:32:26Z</time>
      </trkpt>
      <trkpt lat="47.99306" lon="1.9589">
        <ele>128</ele>
        <time>2015-09-27T09:32:27Z</time>
      </trkpt>
      <trkpt lat="47.99307" lon="1.95884">
        <ele>127.9</ele>
        <time>2015-09-27T09:32:28Z</time>
      </trkpt>
      <trkpt lat="47.99308" lon="1.95878">
        <ele>127.8</ele>
        <time>2015-09-27T09:32:29Z</time>
      </trkpt>
      <trkpt lat="47.9931" lon="1.95873">
        <ele>127.8</ele>
        <time>2015-09-27T09:32:30Z</time>
      </trkpt>
      <trkpt lat="47.99311" lon="1.95867">
        <ele>127.7</ele>
        <time>2015-09-27T09:32:31Z</time>
      </trkpt>
      <trkpt lat="47.99312" lon="1.95861">
        <ele>127.6</ele>
        <time>2015-09-27T09:32:32Z</time>
      </trkpt>
      <trkpt lat="47.99314" lon="1.95855">
        <ele>127.6</ele>
        <time>2015-09-27T09:32:33Z</time>
      </trkpt>
      <trkpt lat="47.99315" lon="1.95849">
        <ele>127.5</ele>
        <time>2015-09-27T09:32:34Z</time>
      </trkpt>
      <trkpt lat="47.99317" lon="1.95843">
        <ele>127.4</ele>
        <time>2015-09-27T09:32:35Z</time>
      </trkpt>
      <trkpt lat="47.99318" lon="1.95838">
        <ele>127.4</ele>
        <time>2015-09-27T09:32:36Z</time>
      </trkpt>
      <trkpt lat="47.99318" lon="1.95832">
        <ele>127.3</ele>
        <time>2015-09-27T09:32:37Z</time>
      </trkpt>
      <trkpt lat="47.99319" lon="1.95827">
        <ele>127.3</ele>
        <time>2015-09-27T09:32:38Z</time>
      </trkpt>
      <trkpt lat="47.99321" lon="1.95822">
        <ele>127.2</ele>
        <time>2015-09-27T09:32:39Z</time>
      </trkpt>
      <trkpt lat="47.99322" lon="1.95818">
        <ele>127.2</ele>
        <time>2015-09-27T09:32:40Z</time>
      </trkpt>
      <trkpt lat="47.99323" lon="1.95813">
        <ele>127.2</ele>
        <time>2015-09-27T09:32:41Z</time>
      </trkpt>
      <trkpt lat="47.99324" lon="1.95808">
        <ele>127.1</ele>
        <time>2015-09-27T09:32:42Z</time>
      </trkpt>
      <trkpt lat="47.99325" lon="1.95803">
        <ele>127.1</ele>
        <time>2015-09-27T09:32:43Z</time>
      </trkpt>
      <trkpt lat="47.99326" lon="1.95798">
        <ele>127</ele>
        <time>2015-09-27T09:32:44Z</time>
      </trkpt>
      <trkpt lat="47.99328" lon="1.95793">
        <ele>127</ele>
        <time>2015-09-27T09:32:45Z</time>
      </trkpt>
      <trkpt lat="47.99329" lon="1.95788">
        <ele>127</ele>
        <time>2015-09-27T09:32:46Z</time>
      </trkpt>
      <trkpt lat="47.9933" lon="1.95783">
        <ele>127</ele>
        <time>2015-09-27T09:32:47Z</time>
      </trkpt>
      <trkpt lat="47.99331" lon="1.95778">
        <ele>127</ele>
        <time>2015-09-27T09:32:48Z</time>
      </trkpt>
      <trkpt lat="47.99332" lon="1.95772">
        <ele>127</ele>
        <time>2015-09-27T09:32:49Z</time>
      </trkpt>
      <trkpt lat="47.99334" lon="1.95767">
        <ele>127</ele>
        <time>2015-09-27T09:32:50Z</time>
      </trkpt>
      <trkpt lat="47.99335" lon="1.95762">
        <ele>127</ele>
        <time>2015-09-27T09:32:51Z</time>
      </trkpt>
      <trkpt lat="47.99336" lon="1.95756">
        <ele>127</ele>
        <time>2015-09-27T09:32:52Z</time>
      </trkpt>
      <trkpt lat="47.99338" lon="1.95751">
        <ele>127</ele>
        <time>2015-09-27T09:32:53Z</time>
      </trkpt>
      <trkpt lat="47.99339" lon="1.95745">
        <ele>127</ele>
        <time>2015-09-27T09:32:54Z</time>
      </trkpt>
      <trkpt lat="47.9934" lon="1.9574">
        <ele>127</ele>
        <time>2015-09-27T09:32:55Z</time>
      </trkpt>
      <trkpt lat="47.99341" lon="1.95735">
        <ele>127</ele>
        <time>2015-09-27T09:32:56Z</time>
      </trkpt>
      <trkpt lat="47.99342" lon="1.9573">
        <ele>127</ele>
        <time>2015-09-27T09:32:57Z</time>
      </trkpt>
      <trkpt lat="47.99342" lon="1.95724">
        <ele>127</ele>
        <time>2015-09-27T09:32:58Z</time>
      </trkpt>
      <trkpt lat="47.99343" lon="1.95719">
        <ele>127</ele>
        <time>2015-09-27T09:32:59Z</time>
      </trkpt>
      <trkpt lat="47.99344" lon="1.95714">
        <ele>127</ele>
        <time>2015-09-27T09:33:00Z</time>
      </trkpt>
      <trkpt lat="47.99345" lon="1.95709">
        <ele>127</ele>
        <time>2015-09-27T09:33:01Z</time>
      </trkpt>
      <trkpt lat="47.99346" lon="1.95705">
        <ele>127</ele>
        <time>2015-09-27T09:33:02Z</time>
      </trkpt>
      <trkpt lat="47.99347" lon="1.95701">
        <ele>127</ele>
        <time>2015-09-27T09:33:03Z</time>
      </trkpt>
      <trkpt lat="47.99348" lon="1.95696">
        <ele>127</ele>
        <time>2015-09-27T09:33:04Z</time>
      </trkpt>
      <trkpt lat="47.99349" lon="1.95692">
        <ele>126.9</ele>
        <time>2015-09-27T09:33:05Z</time>
      </trkpt>
      <trkpt lat="47.99349" lon="1.95687">
        <ele>126.9</ele>
        <time>2015-09-27T09:33:06Z</time>
      </trkpt>
      <trkpt lat="47.99349" lon="1.95682">
        <ele>126.9</ele>
        <time>2015-09-27T09:33:07Z</time>
      </trkpt>
      <trkpt lat="47.99347" lon="1.95678">
        <ele>126.9</ele>
        <time>2015-09-27T09:33:08Z</time>
      </trkpt>
      <trkpt lat="47.99344" lon="1.95675">
        <ele>126.9</ele>
        <time>2015-09-27T09:33:09Z</time>
      </trkpt>
      <trkpt lat="47.9934" lon="1.95674">
        <ele>126.8</ele>
        <time>2015-09-27T09:33:10Z</time>
      </trkpt>
      <trkpt lat="47.99336" lon="1.95673">
        <ele>126.8</ele>
        <time>2015-09-27T09:33:11Z</time>
      </trkpt>
      <trkpt lat="47.99332" lon="1.95672">
        <ele>126.8</ele>
        <time>2015-09-27T09:33:12Z</time>
      </trkpt>
      <trkpt lat="47.99328" lon="1.95671">
        <ele>126.7</ele>
        <time>2015-09-27T09:33:13Z</time>
      </trkpt>
      <trkpt lat="47.99323" lon="1.9567">
        <ele>126.7</ele>
        <time>2015-09-27T09:33:14Z</time>
      </trkpt>
      <trkpt lat="47.99318" lon="1.95669">
        <ele>126.7</ele>
        <time>2015-09-27T09:33:15Z</time>
      </trkpt>
      <trkpt lat="47.99314" lon="1.95668">
        <ele>126.6</ele>
        <time>2015-09-27T09:33:16Z</time>
      </trkpt>
      <trkpt lat="47.9931" lon="1.95666">
        <ele>126.6</ele>
        <time>2015-09-27T09:33:17Z</time>
      </trkpt>
      <trkpt lat="47.99305" lon="1.95665">
        <ele>126.6</ele>
        <time>2015-09-27T09:33:18Z</time>
      </trkpt>
      <trkpt lat="47.99301" lon="1.95663">
        <ele>126.5</ele>
        <time>2015-09-27T09:33:19Z</time>
      </trkpt>
      <trkpt lat="47.99298" lon="1.95659">
        <ele>126.5</ele>
        <time>2015-09-27T09:33:20Z</time>
      </trkpt>
      <trkpt lat="47.99296" lon="1.95654">
        <ele>126.4</ele>
        <time>2015-09-27T09:33:21Z</time>
      </trkpt>
      <trkpt lat="47.99298" lon="1.95648">
        <ele>126.3</ele>
        <time>2015-09-27T09:33:22Z</time>
      </trkpt>
      <trkpt lat="47.993" lon="1.95642">
        <ele>126.3</ele>
        <time>2015-09-27T09:33:23Z</time>
      </trkpt>
      <trkpt lat="47.99302" lon="1.95636">
        <ele>126.2</ele>
        <time>2015-09-27T09:33:24Z</time>
      </trkpt>
      <trkpt lat="47.99305" lon="1.95631">
        <ele>126.2</ele>
        <time>2015-09-27T09:33:25Z</time>
      </trkpt>
      <trkpt lat="47.99308" lon="1.95625">
        <ele>126.2</ele>
        <time>2015-09-27T09:33:26Z</time>
      </trkpt>
      <trkpt lat="47.9931" lon="1.95618">
        <ele>126.1</ele>
        <time>2015-09-27T09:33:27Z</time>
      </trkpt>
      <trkpt lat="47.99313" lon="1.95612">
        <ele>125.9</ele>
        <time>2015-09-27T09:33:28Z</time>
      </trkpt>
      <trkpt lat="47.99315" lon="1.95606">
        <ele>125.8</ele>
        <time>2015-09-27T09:33:29Z</time>
      </trkpt>
      <trkpt lat="47.99317" lon="1.956">
        <ele>125.7</ele>
        <time>2015-09-27T09:33:30Z</time>
      </trkpt>
      <trkpt lat="47.99319" lon="1.95594">
        <ele>125.6</ele>
        <time>2015-09-27T09:33:31Z</time>
      </trkpt>
      <trkpt lat="47.99322" lon="1.95588">
        <ele>125.5</ele>
        <time>2015-09-27T09:33:32Z</time>
      </trkpt>
      <trkpt lat="47.99324" lon="1.95582">
        <ele>125.4</ele>
        <time>2015-09-27T09:33:33Z</time>
      </trkpt>
      <trkpt lat="47.99326" lon="1.95577">
        <ele>125.3</ele>
        <time>2015-09-27T09:33:34Z</time>
      </trkpt>
      <trkpt lat="47.99329" lon="1.95572">
        <ele>125.2</ele>
        <time>2015-09-27T09:33:35Z</time>
      </trkpt>
      <trkpt lat="47.99332" lon="1.95566">
        <ele>125.1</ele>
        <time>2015-09-27T09:33:36Z</time>
      </trkpt>
      <trkpt lat="47.99334" lon="1.95561">
        <ele>125</ele>
        <time>2015-09-27T09:33:37Z</time>
      </trkpt>
      <trkpt lat="47.99336" lon="1.95556">
        <ele>124.9</ele>
        <time>2015-09-27T09:33:38Z</time>
      </trkpt>
      <trkpt lat="47.99338" lon="1.95552">
        <ele>124.8</ele>
        <time>2015-09-27T09:33:39Z</time>
      </trkpt>
      <trkpt lat="47.9934" lon="1.95547">
        <ele>124.7</ele>
        <time>2015-09-27T09:33:40Z</time>
      </trkpt>
      <trkpt lat="47.99342" lon="1.95542">
        <ele>124.6</ele>
        <time>2015-09-27T09:33:41Z</time>
      </trkpt>
      <trkpt lat="47.99344" lon="1.95537">
        <ele>124.6</ele>
        <time>2015-09-27T09:33:42Z</time>
      </trkpt>
      <trkpt lat="47.99346" lon="1.95532">
        <ele>124.5</ele>
        <time>2015-09-27T09:33:43Z</time>
      </trkpt>
      <trkpt lat="47.99348" lon="1.95527">
        <ele>124.5</ele>
        <time>2015-09-27T09:33:44Z</time>
      </trkpt>
      <trkpt lat="47.9935" lon="1.95522">
        <ele>124.5</ele>
        <time>2015-09-27T09:33:45Z</time>
      </trkpt>
      <trkpt lat="47.99352" lon="1.95517">
        <ele>124.4</ele>
        <time>2015-09-27T09:33:46Z</time>
      </trkpt>
      <trkpt lat="47.99354" lon="1.95512">
        <ele>124.4</ele>
        <time>2015-09-27T09:33:47Z</time>
      </trkpt>
      <trkpt lat="47.99356" lon="1.95507">
        <ele>124.4</ele>
        <time>2015-09-27T09:33:48Z</time>
      </trkpt>
      <trkpt lat="47.99357" lon="1.95501">
        <ele>124.3</ele>
        <time>2015-09-27T09:33:49Z</time>
      </trkpt>
      <trkpt lat="47.99359" lon="1.95496">
        <ele>124.3</ele>
        <time>2015-09-27T09:33:50Z</time>
      </trkpt>
      <trkpt lat="47.99361" lon="1.95491">
        <ele>124.2</ele>
        <time>2015-09-27T09:33:51Z</time>
      </trkpt>
      <trkpt lat="47.99362" lon="1.95486">
        <ele>124.2</ele>
        <time>2015-09-27T09:33:52Z</time>
      </trkpt>
      <trkpt lat="47.99364" lon="1.9548">
        <ele>124.1</ele>
        <time>2015-09-27T09:33:53Z</time>
      </trkpt>
      <trkpt lat="47.99366" lon="1.95476">
        <ele>124.1</ele>
        <time>2015-09-27T09:33:54Z</time>
      </trkpt>
      <trkpt lat="47.99368" lon="1.95471">
        <ele>124.1</ele>
        <time>2015-09-27T09:33:55Z</time>
      </trkpt>
      <trkpt lat="47.9937" lon="1.95466">
        <ele>124</ele>
        <time>2015-09-27T09:33:56Z</time>
      </trkpt>
      <trkpt lat="47.99371" lon="1.95461">
        <ele>124</ele>
        <time>2015-09-27T09:33:57Z</time>
      </trkpt>
      <trkpt lat="47.99373" lon="1.95455">
        <ele>123.9</ele>
        <time>2015-09-27T09:33:58Z</time>
      </trkpt>
      <trkpt lat="47.99375" lon="1.9545">
        <ele>123.9</ele>
        <time>2015-09-27T09:33:59Z</time>
      </trkpt>
      <trkpt lat="47.99377" lon="1.95446">
        <ele>123.8</ele>
        <time>2015-09-27T09:34:00Z</time>
      </trkpt>
      <trkpt lat="47.99379" lon="1.95441">
        <ele>123.8</ele>
        <time>2015-09-27T09:34:01Z</time>
      </trkpt>
      <trkpt lat="47.99381" lon="1.95437">
        <ele>123.7</ele>
        <time>2015-09-27T09:34:02Z</time>
      </trkpt>
      <trkpt lat="47.99383" lon="1.95432">
        <ele>123.6</ele>
        <time>2015-09-27T09:34:03Z</time>
      </trkpt>
      <trkpt lat="47.99385" lon="1.95427">
        <ele>123.6</ele>
        <time>2015-09-27T09:34:04Z</time>
      </trkpt>
      <trkpt lat="47.99387" lon="1.95422">
        <ele>123.5</ele>
        <time>2015-09-27T09:34:05Z</time>
      </trkpt>
      <trkpt lat="47.99389" lon="1.95418">
        <ele>123.5</ele>
        <time>2015-09-27T09:34:06Z</time>
      </trkpt>
      <trkpt lat="47.99391" lon="1.95412">
        <ele>123.5</ele>
        <time>2015-09-27T09:34:07Z</time>
      </trkpt>
      <trkpt lat="47.99393" lon="1.95407">
        <ele>123.4</ele>
        <time>2015-09-27T09:34:08Z</time>
      </trkpt>
      <trkpt lat="47.99394" lon="1.95401">
        <ele>123.4</ele>
        <time>2015-09-27T09:34:09Z</time>
      </trkpt>
      <trkpt lat="47.99396" lon="1.95395">
        <ele>123.4</ele>
        <time>2015-09-27T09:34:10Z</time>
      </trkpt>
      <trkpt lat="47.99398" lon="1.95389">
        <ele>123.3</ele>
        <time>2015-09-27T09:34:11Z</time>
      </trkpt>
      <trkpt lat="47.994" lon="1.95384">
        <ele>123.3</ele>
        <time>2015-09-27T09:34:12Z</time>
      </trkpt>
      <trkpt lat="47.99402" lon="1.95379">
        <ele>123.3</ele>
        <time>2015-09-27T09:34:13Z</time>
      </trkpt>
      <trkpt lat="47.99405" lon="1.95374">
        <ele>123.4</ele>
        <time>2015-09-27T09:34:14Z</time>
      </trkpt>
      <trkpt lat="47.99407" lon="1.95369">
        <ele>123.5</ele>
        <time>2015-09-27T09:34:15Z</time>
      </trkpt>
      <trkpt lat="47.99409" lon="1.95364">
        <ele>123.6</ele>
        <time>2015-09-27T09:34:16Z</time>
      </trkpt>
      <trkpt lat="47.99412" lon="1.95359">
        <ele>123.7</ele>
        <time>2015-09-27T09:34:17Z</time>
      </trkpt>
      <trkpt lat="47.99414" lon="1.95353">
        <ele>123.9</ele>
        <time>2015-09-27T09:34:18Z</time>
      </trkpt>
      <trkpt lat="47.99416" lon="1.95347">
        <ele>124</ele>
        <time>2015-09-27T09:34:19Z</time>
      </trkpt>
      <trkpt lat="47.99418" lon="1.95341">
        <ele>124.1</ele>
        <time>2015-09-27T09:34:20Z</time>
      </trkpt>
      <trkpt lat="47.99419" lon="1.95335">
        <ele>124.3</ele>
        <time>2015-09-27T09:34:21Z</time>
      </trkpt>
      <trkpt lat="47.99421" lon="1.9533">
        <ele>124.4</ele>
        <time>2015-09-27T09:34:22Z</time>
      </trkpt>
      <trkpt lat="47.99422" lon="1.95323">
        <ele>124.5</ele>
        <time>2015-09-27T09:34:23Z</time>
      </trkpt>
      <trkpt lat="47.99424" lon="1.95318">
        <ele>124.7</ele>
        <time>2015-09-27T09:34:24Z</time>
      </trkpt>
      <trkpt lat="47.99426" lon="1.95312">
        <ele>124.8</ele>
        <time>2015-09-27T09:34:25Z</time>
      </trkpt>
      <trkpt lat="47.99427" lon="1.95306">
        <ele>125</ele>
        <time>2015-09-27T09:34:26Z</time>
      </trkpt>
      <trkpt lat="47.99429" lon="1.95301">
        <ele>125.1</ele>
        <time>2015-09-27T09:34:27Z</time>
      </trkpt>
      <trkpt lat="47.99431" lon="1.95296">
        <ele>125.3</ele>
        <time>2015-09-27T09:34:28Z</time>
      </trkpt>
      <trkpt lat="47.99433" lon="1.95291">
        <ele>125.4</ele>
        <time>2015-09-27T09:34:29Z</time>
      </trkpt>
      <trkpt lat="47.99435" lon="1.95287">
        <ele>125.6</ele>
        <time>2015-09-27T09:34:30Z</time>
      </trkpt>
      <trkpt lat="47.99437" lon="1.95283">
        <ele>125.8</ele>
        <time>2015-09-27T09:34:31Z</time>
      </trkpt>
      <trkpt lat="47.99439" lon="1.9528">
        <ele>125.9</ele>
        <time>2015-09-27T09:34:32Z</time>
      </trkpt>
      <trkpt lat="47.99441" lon="1.95274">
        <ele>126.2</ele>
        <time>2015-09-27T09:34:34Z</time>
      </trkpt>
      <trkpt lat="47.99443" lon="1.95267">
        <ele>126.5</ele>
        <time>2015-09-27T09:34:36Z</time>
      </trkpt>
      <trkpt lat="47.99445" lon="1.9526">
        <ele>126.8</ele>
        <time>2015-09-27T09:34:38Z</time>
      </trkpt>
      <trkpt lat="47.99446" lon="1.95256">
        <ele>126.9</ele>
        <time>2015-09-27T09:34:39Z</time>
      </trkpt>
      <trkpt lat="47.99447" lon="1.95252">
        <ele>127.1</ele>
        <time>2015-09-27T09:34:40Z</time>
      </trkpt>
      <trkpt lat="47.99448" lon="1.95248">
        <ele>127.3</ele>
        <time>2015-09-27T09:34:41Z</time>
      </trkpt>
      <trkpt lat="47.9945" lon="1.95242">
        <ele>127.5</ele>
        <time>2015-09-27T09:34:42Z</time>
      </trkpt>
      <trkpt lat="47.99452" lon="1.95237">
        <ele>127.8</ele>
        <time>2015-09-27T09:34:43Z</time>
      </trkpt>
      <trkpt lat="47.99454" lon="1.95232">
        <ele>128</ele>
        <time>2015-09-27T09:34:44Z</time>
      </trkpt>
      <trkpt lat="47.99457" lon="1.95227">
        <ele>128.3</ele>
        <time>2015-09-27T09:34:45Z</time>
      </trkpt>
      <trkpt lat="47.99459" lon="1.95221">
        <ele>128.6</ele>
        <time>2015-09-27T09:34:46Z</time>
      </trkpt>
      <trkpt lat="47.99461" lon="1.95214">
        <ele>128.9</ele>
        <time>2015-09-27T09:34:47Z</time>
      </trkpt>
      <trkpt lat="47.99463" lon="1.95207">
        <ele>129.3</ele>
        <time>2015-09-27T09:34:48Z</time>
      </trkpt>
      <trkpt lat="47.99464" lon="1.952">
        <ele>129.6</ele>
        <time>2015-09-27T09:34:49Z</time>
      </trkpt>
      <trkpt lat="47.99465" lon="1.95193">
        <ele>130</ele>
        <time>2015-09-27T09:34:50Z</time>
      </trkpt>
      <trkpt lat="47.99467" lon="1.95186">
        <ele>130.4</ele>
        <time>2015-09-27T09:34:51Z</time>
      </trkpt>
      <trkpt lat="47.99469" lon="1.95179">
        <ele>130.8</ele>
        <time>2015-09-27T09:34:52Z</time>
      </trkpt>
      <trkpt lat="47.99471" lon="1.95173">
        <ele>131.2</ele>
        <time>2015-09-27T09:34:53Z</time>
      </trkpt>
      <trkpt lat="47.99473" lon="1.95165">
        <ele>131.6</ele>
        <time>2015-09-27T09:34:54Z</time>
      </trkpt>
      <trkpt lat="47.99476" lon="1.95157">
        <ele>132</ele>
        <time>2015-09-27T09:34:55Z</time>
      </trkpt>
      <trkpt lat="47.99479" lon="1.9515">
        <ele>132.4</ele>
        <time>2015-09-27T09:34:56Z</time>
      </trkpt>
      <trkpt lat="47.99482" lon="1.95144">
        <ele>132.8</ele>
        <time>2015-09-27T09:34:57Z</time>
      </trkpt>
      <trkpt lat="47.99485" lon="1.95138">
        <ele>133.1</ele>
        <time>2015-09-27T09:34:58Z</time>
      </trkpt>
      <trkpt lat="47.99488" lon="1.95131">
        <ele>133.5</ele>
        <time>2015-09-27T09:34:59Z</time>
      </trkpt>
      <trkpt lat="47.99491" lon="1.95125">
        <ele>133.8</ele>
        <time>2015-09-27T09:35:00Z</time>
      </trkpt>
      <trkpt lat="47.99494" lon="1.95118">
        <ele>134</ele>
        <time>2015-09-27T09:35:01Z</time>
      </trkpt>
      <trkpt lat="47.99496" lon="1.95109">
        <ele>134.1</ele>
        <time>2015-09-27T09:35:02Z</time>
      </trkpt>
      <trkpt lat="47.99498" lon="1.95102">
        <ele>134.3</ele>
        <time>2015-09-27T09:35:03Z</time>
      </trkpt>
      <trkpt lat="47.99501" lon="1.95094">
        <ele>134.4</ele>
        <time>2015-09-27T09:35:04Z</time>
      </trkpt>
      <trkpt lat="47.99504" lon="1.95087">
        <ele>134.5</ele>
        <time>2015-09-27T09:35:05Z</time>
      </trkpt>
      <trkpt lat="47.99506" lon="1.9508">
        <ele>134.6</ele>
        <time>2015-09-27T09:35:06Z</time>
      </trkpt>
      <trkpt lat="47.99509" lon="1.95073">
        <ele>134.7</ele>
        <time>2015-09-27T09:35:07Z</time>
      </trkpt>
      <trkpt lat="47.99512" lon="1.95067">
        <ele>134.8</ele>
        <time>2015-09-27T09:35:08Z</time>
      </trkpt>
      <trkpt lat="47.99515" lon="1.9506">
        <ele>134.9</ele>
        <time>2015-09-27T09:35:09Z</time>
      </trkpt>
      <trkpt lat="47.99517" lon="1.95053">
        <ele>134.9</ele>
        <time>2015-09-27T09:35:10Z</time>
      </trkpt>
      <trkpt lat="47.99519" lon="1.95046">
        <ele>135</ele>
        <time>2015-09-27T09:35:11Z</time>
      </trkpt>
      <trkpt lat="47.99521" lon="1.95039">
        <ele>135</ele>
        <time>2015-09-27T09:35:12Z</time>
      </trkpt>
      <trkpt lat="47.99523" lon="1.95032">
        <ele>135.1</ele>
        <time>2015-09-27T09:35:13Z</time>
      </trkpt>
      <trkpt lat="47.99524" lon="1.95024">
        <ele>135.2</ele>
        <time>2015-09-27T09:35:14Z</time>
      </trkpt>
      <trkpt lat="47.99526" lon="1.95017">
        <ele>135.3</ele>
        <time>2015-09-27T09:35:15Z</time>
      </trkpt>
      <trkpt lat="47.99529" lon="1.95011">
        <ele>135.4</ele>
        <time>2015-09-27T09:35:16Z</time>
      </trkpt>
      <trkpt lat="47.99532" lon="1.95005">
        <ele>135.4</ele>
        <time>2015-09-27T09:35:17Z</time>
      </trkpt>
      <trkpt lat="47.99534" lon="1.94998">
        <ele>135.5</ele>
        <time>2015-09-27T09:35:18Z</time>
      </trkpt>
      <trkpt lat="47.99537" lon="1.94992">
        <ele>135.6</ele>
        <time>2015-09-27T09:35:19Z</time>
      </trkpt>
      <trkpt lat="47.99539" lon="1.94986">
        <ele>135.7</ele>
        <time>2015-09-27T09:35:20Z</time>
      </trkpt>
      <trkpt lat="47.99542" lon="1.94979">
        <ele>135.7</ele>
        <time>2015-09-27T09:35:21Z</time>
      </trkpt>
      <trkpt lat="47.99544" lon="1.94973">
        <ele>135.8</ele>
        <time>2015-09-27T09:35:22Z</time>
      </trkpt>
      <trkpt lat="47.99547" lon="1.94968">
        <ele>135.7</ele>
        <time>2015-09-27T09:35:23Z</time>
      </trkpt>
      <trkpt lat="47.99551" lon="1.94963">
        <ele>135.6</ele>
        <time>2015-09-27T09:35:24Z</time>
      </trkpt>
      <trkpt lat="47.99556" lon="1.9496">
        <ele>135.5</ele>
        <time>2015-09-27T09:35:25Z</time>
      </trkpt>
      <trkpt lat="47.9956" lon="1.94957">
        <ele>135.3</ele>
        <time>2015-09-27T09:35:26Z</time>
      </trkpt>
      <trkpt lat="47.99564" lon="1.94953">
        <ele>135.1</ele>
        <time>2015-09-27T09:35:27Z</time>
      </trkpt>
      <trkpt lat="47.99566" lon="1.94946">
        <ele>135</ele>
        <time>2015-09-27T09:35:28Z</time>
      </trkpt>
      <trkpt lat="47.99567" lon="1.94938">
        <ele>134.9</ele>
        <time>2015-09-27T09:35:29Z</time>
      </trkpt>
      <trkpt lat="47.99569" lon="1.94931">
        <ele>134.8</ele>
        <time>2015-09-27T09:35:30Z</time>
      </trkpt>
      <trkpt lat="47.99571" lon="1.94925">
        <ele>134.7</ele>
        <time>2015-09-27T09:35:31Z</time>
      </trkpt>
      <trkpt lat="47.99574" lon="1.94919">
        <ele>134.6</ele>
        <time>2015-09-27T09:35:32Z</time>
      </trkpt>
      <trkpt lat="47.99576" lon="1.94913">
        <ele>134.6</ele>
        <time>2015-09-27T09:35:33Z</time>
      </trkpt>
      <trkpt lat="47.99579" lon="1.94906">
        <ele>134.5</ele>
        <time>2015-09-27T09:35:34Z</time>
      </trkpt>
      <trkpt lat="47.99581" lon="1.949">
        <ele>134.5</ele>
        <time>2015-09-27T09:35:35Z</time>
      </trkpt>
      <trkpt lat="47.99582" lon="1.94892">
        <ele>134.5</ele>
        <time>2015-09-27T09:35:36Z</time>
      </trkpt>
      <trkpt lat="47.99583" lon="1.94882">
        <ele>134.5</ele>
        <time>2015-09-27T09:35:37Z</time>
      </trkpt>
      <trkpt lat="47.99585" lon="1.94874">
        <ele>134.5</ele>
        <time>2015-09-27T09:35:38Z</time>
      </trkpt>
      <trkpt lat="47.99586" lon="1.94866">
        <ele>134.7</ele>
        <time>2015-09-27T09:35:39Z</time>
      </trkpt>
      <trkpt lat="47.99587" lon="1.94857">
        <ele>134.9</ele>
        <time>2015-09-27T09:35:40Z</time>
      </trkpt>
      <trkpt lat="47.99589" lon="1.9485">
        <ele>135</ele>
        <time>2015-09-27T09:35:41Z</time>
      </trkpt>
      <trkpt lat="47.99591" lon="1.94842">
        <ele>135.1</ele>
        <time>2015-09-27T09:35:42Z</time>
      </trkpt>
      <trkpt lat="47.99593" lon="1.94837">
        <ele>135.3</ele>
        <time>2015-09-27T09:35:43Z</time>
      </trkpt>
      <trkpt lat="47.99596" lon="1.94831">
        <ele>135.4</ele>
        <time>2015-09-27T09:35:44Z</time>
      </trkpt>
      <trkpt lat="47.99598" lon="1.94825">
        <ele>135.5</ele>
        <time>2015-09-27T09:35:45Z</time>
      </trkpt>
      <trkpt lat="47.996" lon="1.94818">
        <ele>135.6</ele>
        <time>2015-09-27T09:35:46Z</time>
      </trkpt>
      <trkpt lat="47.99601" lon="1.94812">
        <ele>135.7</ele>
        <time>2015-09-27T09:35:47Z</time>
      </trkpt>
      <trkpt lat="47.99602" lon="1.94806">
        <ele>135.8</ele>
        <time>2015-09-27T09:35:48Z</time>
      </trkpt>
      <trkpt lat="47.99605" lon="1.94801">
        <ele>135.9</ele>
        <time>2015-09-27T09:35:49Z</time>
      </trkpt>
      <trkpt lat="47.99607" lon="1.94795">
        <ele>135.9</ele>
        <time>2015-09-27T09:35:50Z</time>
      </trkpt>
      <trkpt lat="47.9961" lon="1.9479">
        <ele>136</ele>
        <time>2015-09-27T09:35:51Z</time>
      </trkpt>
      <trkpt lat="47.99612" lon="1.94785">
        <ele>136</ele>
        <time>2015-09-27T09:35:52Z</time>
      </trkpt>
      <trkpt lat="47.99614" lon="1.94779">
        <ele>136.1</ele>
        <time>2015-09-27T09:35:53Z</time>
      </trkpt>
      <trkpt lat="47.99616" lon="1.94772">
        <ele>136.1</ele>
        <time>2015-09-27T09:35:54Z</time>
      </trkpt>
      <trkpt lat="47.99618" lon="1.94765">
        <ele>136.1</ele>
        <time>2015-09-27T09:35:55Z</time>
      </trkpt>
      <trkpt lat="47.9962" lon="1.94758">
        <ele>136.1</ele>
        <time>2015-09-27T09:35:56Z</time>
      </trkpt>
      <trkpt lat="47.99622" lon="1.94751">
        <ele>136</ele>
        <time>2015-09-27T09:35:57Z</time>
      </trkpt>
      <trkpt lat="47.99625" lon="1.94745">
        <ele>136</ele>
        <time>2015-09-27T09:35:58Z</time>
      </trkpt>
      <trkpt lat="47.99627" lon="1.94739">
        <ele>136</ele>
        <time>2015-09-27T09:35:59Z</time>
      </trkpt>
      <trkpt lat="47.99629" lon="1.94733">
        <ele>135.9</ele>
        <time>2015-09-27T09:36:00Z</time>
      </trkpt>
      <trkpt lat="47.99631" lon="1.94729">
        <ele>135.9</ele>
        <time>2015-09-27T09:36:01Z</time>
      </trkpt>
      <trkpt lat="47.99634" lon="1.94725">
        <ele>135.8</ele>
        <time>2015-09-27T09:36:02Z</time>
      </trkpt>
      <trkpt lat="47.99637" lon="1.9472">
        <ele>135.7</ele>
        <time>2015-09-27T09:36:03Z</time>
      </trkpt>
      <trkpt lat="47.99638" lon="1.94716">
        <ele>135.7</ele>
        <time>2015-09-27T09:36:04Z</time>
      </trkpt>
      <trkpt lat="47.9964" lon="1.9471">
        <ele>135.6</ele>
        <time>2015-09-27T09:36:05Z</time>
      </trkpt>
      <trkpt lat="47.99641" lon="1.94704">
        <ele>135.7</ele>
        <time>2015-09-27T09:36:06Z</time>
      </trkpt>
      <trkpt lat="47.99643" lon="1.94698">
        <ele>135.7</ele>
        <time>2015-09-27T09:36:07Z</time>
      </trkpt>
      <trkpt lat="47.99647" lon="1.9469">
        <ele>135.6</ele>
        <time>2015-09-27T09:36:08Z</time>
      </trkpt>
      <trkpt lat="47.99653" lon="1.9468">
        <ele>135.6</ele>
        <time>2015-09-27T09:36:09Z</time>
      </trkpt>
      <trkpt lat="47.99656" lon="1.94671">
        <ele>135.5</ele>
        <time>2015-09-27T09:36:10Z</time>
      </trkpt>
      <trkpt lat="47.9966" lon="1.94663">
        <ele>135.5</ele>
        <time>2015-09-27T09:36:11Z</time>
      </trkpt>
      <trkpt lat="47.99662" lon="1.94654">
        <ele>135.5</ele>
        <time>2015-09-27T09:36:12Z</time>
      </trkpt>
      <trkpt lat="47.99664" lon="1.94645">
        <ele>135.5</ele>
        <time>2015-09-27T09:36:13Z</time>
      </trkpt>
      <trkpt lat="47.99666" lon="1.94638">
        <ele>135.5</ele>
        <time>2015-09-27T09:36:14Z</time>
      </trkpt>
      <trkpt lat="47.99667" lon="1.9463">
        <ele>135.4</ele>
        <time>2015-09-27T09:36:15Z</time>
      </trkpt>
      <trkpt lat="47.9967" lon="1.94623">
        <ele>135.4</ele>
        <time>2015-09-27T09:36:16Z</time>
      </trkpt>
      <trkpt lat="47.99672" lon="1.94615">
        <ele>135.4</ele>
        <time>2015-09-27T09:36:17Z</time>
      </trkpt>
      <trkpt lat="47.99674" lon="1.94607">
        <ele>135.4</ele>
        <time>2015-09-27T09:36:18Z</time>
      </trkpt>
      <trkpt lat="47.99676" lon="1.94599">
        <ele>135.4</ele>
        <time>2015-09-27T09:36:19Z</time>
      </trkpt>
      <trkpt lat="47.99677" lon="1.94591">
        <ele>135.4</ele>
        <time>2015-09-27T09:36:20Z</time>
      </trkpt>
      <trkpt lat="47.99678" lon="1.94584">
        <ele>135.4</ele>
        <time>2015-09-27T09:36:21Z</time>
      </trkpt>
      <trkpt lat="47.99679" lon="1.9458">
        <ele>135.4</ele>
        <time>2015-09-27T09:36:22Z</time>
      </trkpt>
      <trkpt lat="47.99681" lon="1.94575">
        <ele>135.4</ele>
        <time>2015-09-27T09:36:24Z</time>
      </trkpt>
      <trkpt lat="47.99681" lon="1.94571">
        <ele>135.4</ele>
        <time>2015-09-27T09:36:29Z</time>
      </trkpt>
      <trkpt lat="47.99683" lon="1.94568">
        <ele>135.4</ele>
        <time>2015-09-27T09:36:30Z</time>
      </trkpt>
      <trkpt lat="47.99686" lon="1.94565">
        <ele>135.3</ele>
        <time>2015-09-27T09:36:31Z</time>
      </trkpt>
      <trkpt lat="47.99689" lon="1.94561">
        <ele>135.3</ele>
        <time>2015-09-27T09:36:32Z</time>
      </trkpt>
      <trkpt lat="47.99691" lon="1.94555">
        <ele>135.3</ele>
        <time>2015-09-27T09:36:33Z</time>
      </trkpt>
      <trkpt lat="47.99693" lon="1.9455">
        <ele>135.3</ele>
        <time>2015-09-27T09:36:34Z</time>
      </trkpt>
      <trkpt lat="47.99695" lon="1.94544">
        <ele>135.3</ele>
        <time>2015-09-27T09:36:35Z</time>
      </trkpt>
      <trkpt lat="47.99697" lon="1.94539">
        <ele>135.2</ele>
        <time>2015-09-27T09:36:36Z</time>
      </trkpt>
      <trkpt lat="47.99699" lon="1.94534">
        <ele>135</ele>
        <time>2015-09-27T09:36:37Z</time>
      </trkpt>
      <trkpt lat="47.99701" lon="1.94531">
        <ele>134.9</ele>
        <time>2015-09-27T09:36:38Z</time>
      </trkpt>
      <trkpt lat="47.99706" lon="1.94531">
        <ele>134.8</ele>
        <time>2015-09-27T09:36:40Z</time>
      </trkpt>
      <trkpt lat="47.99711" lon="1.94532">
        <ele>134.8</ele>
        <time>2015-09-27T09:36:42Z</time>
      </trkpt>
      <trkpt lat="47.99716" lon="1.94531">
        <ele>134.8</ele>
        <time>2015-09-27T09:36:44Z</time>
      </trkpt>
      <trkpt lat="47.99721" lon="1.94532">
        <ele>134.8</ele>
        <time>2015-09-27T09:36:46Z</time>
      </trkpt>
      <trkpt lat="47.99725" lon="1.94532">
        <ele>134.8</ele>
        <time>2015-09-27T09:36:47Z</time>
      </trkpt>
      <trkpt lat="47.99729" lon="1.94532">
        <ele>134.8</ele>
        <time>2015-09-27T09:36:48Z</time>
      </trkpt>
      <trkpt lat="47.99732" lon="1.94532">
        <ele>134.8</ele>
        <time>2015-09-27T09:36:49Z</time>
      </trkpt>
      <trkpt lat="47.99735" lon="1.94532">
        <ele>134.8</ele>
        <time>2015-09-27T09:36:50Z</time>
      </trkpt>
      <trkpt lat="47.99738" lon="1.94533">
        <ele>134.8</ele>
        <time>2015-09-27T09:36:51Z</time>
      </trkpt>
      <trkpt lat="47.99743" lon="1.94534">
        <ele>134.9</ele>
        <time>2015-09-27T09:36:53Z</time>
      </trkpt>
      <trkpt lat="47.99747" lon="1.94537">
        <ele>134.9</ele>
        <time>2015-09-27T09:36:55Z</time>
      </trkpt>
      <trkpt lat="47.99749" lon="1.94538">
        <ele>134.9</ele>
        <time>2015-09-27T09:36:56Z</time>
      </trkpt>
      <trkpt lat="47.99752" lon="1.94539">
        <ele>134.9</ele>
        <time>2015-09-27T09:36:57Z</time>
      </trkpt>
      <trkpt lat="47.99756" lon="1.94538">
        <ele>134.9</ele>
        <time>2015-09-27T09:36:58Z</time>
      </trkpt>
      <trkpt lat="47.99759" lon="1.94536">
        <ele>134.9</ele>
        <time>2015-09-27T09:36:59Z</time>
      </trkpt>
      <trkpt lat="47.99762" lon="1.94534">
        <ele>134.9</ele>
        <time>2015-09-27T09:37:00Z</time>
      </trkpt>
      <trkpt lat="47.99764" lon="1.94532">
        <ele>134.9</ele>
        <time>2015-09-27T09:37:01Z</time>
      </trkpt>
      <trkpt lat="47.99767" lon="1.94532">
        <ele>134.8</ele>
        <time>2015-09-27T09:37:02Z</time>
      </trkpt>
      <trkpt lat="47.9977" lon="1.9453">
        <ele>134.8</ele>
        <time>2015-09-27T09:37:03Z</time>
      </trkpt>
      <trkpt lat="47.99773" lon="1.94529">
        <ele>134.8</ele>
        <time>2015-09-27T09:37:04Z</time>
      </trkpt>
      <trkpt lat="47.99776" lon="1.94527">
        <ele>134.8</ele>
        <time>2015-09-27T09:37:05Z</time>
      </trkpt>
      <trkpt lat="47.99779" lon="1.94526">
        <ele>134.8</ele>
        <time>2015-09-27T09:37:06Z</time>
      </trkpt>
      <trkpt lat="47.99781" lon="1.94523">
        <ele>134.7</ele>
        <time>2015-09-27T09:37:08Z</time>
      </trkpt>
      <trkpt lat="47.99785" lon="1.9452">
        <ele>134.7</ele>
        <time>2015-09-27T09:37:11Z</time>
      </trkpt>
      <trkpt lat="47.99786" lon="1.94517">
        <ele>134.7</ele>
        <time>2015-09-27T09:37:13Z</time>
      </trkpt>
      <trkpt lat="47.99789" lon="1.94509">
        <ele>134.6</ele>
        <time>2015-09-27T09:37:15Z</time>
      </trkpt>
      <trkpt lat="47.99791" lon="1.94505">
        <ele>134.6</ele>
        <time>2015-09-27T09:37:16Z</time>
      </trkpt>
      <trkpt lat="47.99793" lon="1.94501">
        <ele>134.5</ele>
        <time>2015-09-27T09:37:17Z</time>
      </trkpt>
      <trkpt lat="47.99795" lon="1.94497">
        <ele>134.5</ele>
        <time>2015-09-27T09:37:18Z</time>
      </trkpt>
      <trkpt lat="47.99799" lon="1.94493">
        <ele>134.5</ele>
        <time>2015-09-27T09:37:19Z</time>
      </trkpt>
      <trkpt lat="47.99802" lon="1.9449">
        <ele>134.5</ele>
        <time>2015-09-27T09:37:20Z</time>
      </trkpt>
      <trkpt lat="47.99806" lon="1.94487">
        <ele>134.5</ele>
        <time>2015-09-27T09:37:21Z</time>
      </trkpt>
      <trkpt lat="47.99809" lon="1.94483">
        <ele>134.5</ele>
        <time>2015-09-27T09:37:22Z</time>
      </trkpt>
      <trkpt lat="47.99812" lon="1.94479">
        <ele>134.5</ele>
        <time>2015-09-27T09:37:23Z</time>
      </trkpt>
      <trkpt lat="47.99816" lon="1.94475">
        <ele>134.5</ele>
        <time>2015-09-27T09:37:24Z</time>
      </trkpt>
      <trkpt lat="47.99819" lon="1.94472">
        <ele>134.5</ele>
        <time>2015-09-27T09:37:25Z</time>
      </trkpt>
      <trkpt lat="47.99823" lon="1.9447">
        <ele>134.5</ele>
        <time>2015-09-27T09:37:26Z</time>
      </trkpt>
      <trkpt lat="47.99826" lon="1.94469">
        <ele>134.5</ele>
        <time>2015-09-27T09:37:27Z</time>
      </trkpt>
      <trkpt lat="47.99829" lon="1.94468">
        <ele>134.6</ele>
        <time>2015-09-27T09:37:28Z</time>
      </trkpt>
      <trkpt lat="47.99833" lon="1.94468">
        <ele>134.6</ele>
        <time>2015-09-27T09:37:29Z</time>
      </trkpt>
      <trkpt lat="47.99837" lon="1.94466">
        <ele>134.6</ele>
        <time>2015-09-27T09:37:30Z</time>
      </trkpt>
      <trkpt lat="47.9984" lon="1.94464">
        <ele>134.6</ele>
        <time>2015-09-27T09:37:31Z</time>
      </trkpt>
      <trkpt lat="47.99842" lon="1.94459">
        <ele>134.6</ele>
        <time>2015-09-27T09:37:32Z</time>
      </trkpt>
      <trkpt lat="47.99843" lon="1.94454">
        <ele>134.6</ele>
        <time>2015-09-27T09:37:33Z</time>
      </trkpt>
      <trkpt lat="47.99844" lon="1.94448">
        <ele>134.6</ele>
        <time>2015-09-27T09:37:34Z</time>
      </trkpt>
      <trkpt lat="47.99844" lon="1.94442">
        <ele>134.6</ele>
        <time>2015-09-27T09:37:35Z</time>
      </trkpt>
      <trkpt lat="47.99845" lon="1.94437">
        <ele>134.6</ele>
        <time>2015-09-27T09:37:36Z</time>
      </trkpt>
      <trkpt lat="47.99847" lon="1.94431">
        <ele>134.6</ele>
        <time>2015-09-27T09:37:37Z</time>
      </trkpt>
      <trkpt lat="47.99847" lon="1.94424">
        <ele>134.7</ele>
        <time>2015-09-27T09:37:38Z</time>
      </trkpt>
      <trkpt lat="47.99847" lon="1.94415">
        <ele>134.7</ele>
        <time>2015-09-27T09:37:39Z</time>
      </trkpt>
      <trkpt lat="47.99846" lon="1.94406">
        <ele>134.6</ele>
        <time>2015-09-27T09:37:40Z</time>
      </trkpt>
      <trkpt lat="47.99846" lon="1.94396">
        <ele>134.6</ele>
        <time>2015-09-27T09:37:41Z</time>
      </trkpt>
      <trkpt lat="47.99845" lon="1.94386">
        <ele>134.6</ele>
        <time>2015-09-27T09:37:42Z</time>
      </trkpt>
      <trkpt lat="47.99845" lon="1.94375">
        <ele>134.6</ele>
        <time>2015-09-27T09:37:43Z</time>
      </trkpt>
      <trkpt lat="47.99846" lon="1.94365">
        <ele>134.5</ele>
        <time>2015-09-27T09:37:44Z</time>
      </trkpt>
      <trkpt lat="47.99846" lon="1.94354">
        <ele>134.5</ele>
        <time>2015-09-27T09:37:45Z</time>
      </trkpt>
      <trkpt lat="47.99846" lon="1.94344">
        <ele>134.4</ele>
        <time>2015-09-27T09:37:46Z</time>
      </trkpt>
      <trkpt lat="47.99846" lon="1.94333">
        <ele>134.3</ele>
        <time>2015-09-27T09:37:47Z</time>
      </trkpt>
      <trkpt lat="47.99847" lon="1.94323">
        <ele>134.2</ele>
        <time>2015-09-27T09:37:48Z</time>
      </trkpt>
      <trkpt lat="47.99849" lon="1.94316">
        <ele>134.2</ele>
        <time>2015-09-27T09:37:49Z</time>
      </trkpt>
      <trkpt lat="47.9985" lon="1.9431">
        <ele>134.2</ele>
        <time>2015-09-27T09:37:50Z</time>
      </trkpt>
      <trkpt lat="47.99851" lon="1.94304">
        <ele>134.1</ele>
        <time>2015-09-27T09:37:51Z</time>
      </trkpt>
      <trkpt lat="47.99852" lon="1.94297">
        <ele>134.1</ele>
        <time>2015-09-27T09:37:52Z</time>
      </trkpt>
      <trkpt lat="47.99853" lon="1.9429">
        <ele>134</ele>
        <time>2015-09-27T09:37:53Z</time>
      </trkpt>
      <trkpt lat="47.99854" lon="1.94282">
        <ele>134.1</ele>
        <time>2015-09-27T09:37:54Z</time>
      </trkpt>
      <trkpt lat="47.99855" lon="1.94275">
        <ele>134.3</ele>
        <time>2015-09-27T09:37:55Z</time>
      </trkpt>
      <trkpt lat="47.99855" lon="1.94267">
        <ele>134.4</ele>
        <time>2015-09-27T09:37:56Z</time>
      </trkpt>
      <trkpt lat="47.99856" lon="1.9426">
        <ele>134.5</ele>
        <time>2015-09-27T09:37:57Z</time>
      </trkpt>
      <trkpt lat="47.99856" lon="1.94252">
        <ele>134.6</ele>
        <time>2015-09-27T09:37:58Z</time>
      </trkpt>
      <trkpt lat="47.99856" lon="1.94245">
        <ele>134.7</ele>
        <time>2015-09-27T09:37:59Z</time>
      </trkpt>
      <trkpt lat="47.99856" lon="1.94237">
        <ele>134.8</ele>
        <time>2015-09-27T09:38:00Z</time>
      </trkpt>
      <trkpt lat="47.99856" lon="1.9423">
        <ele>134.9</ele>
        <time>2015-09-27T09:38:01Z</time>
      </trkpt>
      <trkpt lat="47.99857" lon="1.94222">
        <ele>135</ele>
        <time>2015-09-27T09:38:02Z</time>
      </trkpt>
      <trkpt lat="47.99858" lon="1.94215">
        <ele>135.1</ele>
        <time>2015-09-27T09:38:03Z</time>
      </trkpt>
      <trkpt lat="47.99859" lon="1.94207">
        <ele>135.2</ele>
        <time>2015-09-27T09:38:04Z</time>
      </trkpt>
      <trkpt lat="47.9986" lon="1.942">
        <ele>135.3</ele>
        <time>2015-09-27T09:38:05Z</time>
      </trkpt>
      <trkpt lat="47.99861" lon="1.94193">
        <ele>135.4</ele>
        <time>2015-09-27T09:38:06Z</time>
      </trkpt>
      <trkpt lat="47.99861" lon="1.94187">
        <ele>135.5</ele>
        <time>2015-09-27T09:38:07Z</time>
      </trkpt>
      <trkpt lat="47.99862" lon="1.94182">
        <ele>135.6</ele>
        <time>2015-09-27T09:38:08Z</time>
      </trkpt>
      <trkpt lat="47.99863" lon="1.94175">
        <ele>135.8</ele>
        <time>2015-09-27T09:38:09Z</time>
      </trkpt>
      <trkpt lat="47.99864" lon="1.94169">
        <ele>135.9</ele>
        <time>2015-09-27T09:38:10Z</time>
      </trkpt>
      <trkpt lat="47.99865" lon="1.94163">
        <ele>136</ele>
        <time>2015-09-27T09:38:11Z</time>
      </trkpt>
      <trkpt lat="47.99866" lon="1.94157">
        <ele>136.1</ele>
        <time>2015-09-27T09:38:12Z</time>
      </trkpt>
      <trkpt lat="47.99868" lon="1.94151">
        <ele>136.3</ele>
        <time>2015-09-27T09:38:13Z</time>
      </trkpt>
      <trkpt lat="47.99869" lon="1.94144">
        <ele>136.4</ele>
        <time>2015-09-27T09:38:14Z</time>
      </trkpt>
      <trkpt lat="47.99869" lon="1.94138">
        <ele>136.6</ele>
        <time>2015-09-27T09:38:15Z</time>
      </trkpt>
      <trkpt lat="47.99869" lon="1.94133">
        <ele>136.7</ele>
        <time>2015-09-27T09:38:16Z</time>
      </trkpt>
      <trkpt lat="47.9987" lon="1.94127">
        <ele>136.8</ele>
        <time>2015-09-27T09:38:17Z</time>
      </trkpt>
      <trkpt lat="47.99871" lon="1.94122">
        <ele>136.9</ele>
        <time>2015-09-27T09:38:18Z</time>
      </trkpt>
      <trkpt lat="47.99872" lon="1.94116">
        <ele>137</ele>
        <time>2015-09-27T09:38:19Z</time>
      </trkpt>
      <trkpt lat="47.99873" lon="1.94111">
        <ele>137.1</ele>
        <time>2015-09-27T09:38:20Z</time>
      </trkpt>
      <trkpt lat="47.99874" lon="1.94105">
        <ele>137.2</ele>
        <time>2015-09-27T09:38:21Z</time>
      </trkpt>
      <trkpt lat="47.99875" lon="1.94099">
        <ele>137.3</ele>
        <time>2015-09-27T09:38:22Z</time>
      </trkpt>
      <trkpt lat="47.99875" lon="1.94093">
        <ele>137.4</ele>
        <time>2015-09-27T09:38:23Z</time>
      </trkpt>
      <trkpt lat="47.99874" lon="1.94087">
        <ele>137.4</ele>
        <time>2015-09-27T09:38:24Z</time>
      </trkpt>
      <trkpt lat="47.99874" lon="1.94081">
        <ele>137.5</ele>
        <time>2015-09-27T09:38:25Z</time>
      </trkpt>
      <trkpt lat="47.99874" lon="1.94076">
        <ele>137.5</ele>
        <time>2015-09-27T09:38:26Z</time>
      </trkpt>
      <trkpt lat="47.99873" lon="1.9407">
        <ele>137.6</ele>
        <time>2015-09-27T09:38:27Z</time>
      </trkpt>
      <trkpt lat="47.99872" lon="1.94064">
        <ele>137.6</ele>
        <time>2015-09-27T09:38:28Z</time>
      </trkpt>
      <trkpt lat="47.99871" lon="1.94057">
        <ele>137.6</ele>
        <time>2015-09-27T09:38:29Z</time>
      </trkpt>
      <trkpt lat="47.99871" lon="1.9405">
        <ele>137.7</ele>
        <time>2015-09-27T09:38:30Z</time>
      </trkpt>
      <trkpt lat="47.9987" lon="1.94044">
        <ele>137.8</ele>
        <time>2015-09-27T09:38:31Z</time>
      </trkpt>
      <trkpt lat="47.99871" lon="1.94038">
        <ele>137.7</ele>
        <time>2015-09-27T09:38:32Z</time>
      </trkpt>
      <trkpt lat="47.99871" lon="1.94032">
        <ele>137.7</ele>
        <time>2015-09-27T09:38:33Z</time>
      </trkpt>
      <trkpt lat="47.99872" lon="1.94026">
        <ele>137.6</ele>
        <time>2015-09-27T09:38:34Z</time>
      </trkpt>
      <trkpt lat="47.99872" lon="1.94019">
        <ele>137.6</ele>
        <time>2015-09-27T09:38:35Z</time>
      </trkpt>
      <trkpt lat="47.99872" lon="1.94013">
        <ele>137.5</ele>
        <time>2015-09-27T09:38:36Z</time>
      </trkpt>
      <trkpt lat="47.99873" lon="1.94007">
        <ele>137.5</ele>
        <time>2015-09-27T09:38:37Z</time>
      </trkpt>
      <trkpt lat="47.99873" lon="1.94">
        <ele>137.4</ele>
        <time>2015-09-27T09:38:38Z</time>
      </trkpt>
      <trkpt lat="47.99874" lon="1.93994">
        <ele>137.4</ele>
        <time>2015-09-27T09:38:39Z</time>
      </trkpt>
      <trkpt lat="47.99875" lon="1.93987">
        <ele>137.3</ele>
        <time>2015-09-27T09:38:40Z</time>
      </trkpt>
      <trkpt lat="47.99876" lon="1.9398">
        <ele>137.3</ele>
        <time>2015-09-27T09:38:41Z</time>
      </trkpt>
      <trkpt lat="47.99877" lon="1.93974">
        <ele>137.2</ele>
        <time>2015-09-27T09:38:42Z</time>
      </trkpt>
      <trkpt lat="47.99876" lon="1.93968">
        <ele>137.1</ele>
        <time>2015-09-27T09:38:43Z</time>
      </trkpt>
      <trkpt lat="47.99873" lon="1.93962">
        <ele>137</ele>
        <time>2015-09-27T09:38:44Z</time>
      </trkpt>
      <trkpt lat="47.9987" lon="1.93956">
        <ele>136.7</ele>
        <time>2015-09-27T09:38:45Z</time>
      </trkpt>
      <trkpt lat="47.99866" lon="1.9395">
        <ele>136.4</ele>
        <time>2015-09-27T09:38:46Z</time>
      </trkpt>
      <trkpt lat="47.99863" lon="1.93944">
        <ele>136.1</ele>
        <time>2015-09-27T09:38:47Z</time>
      </trkpt>
      <trkpt lat="47.99861" lon="1.93939">
        <ele>135.9</ele>
        <time>2015-09-27T09:38:48Z</time>
      </trkpt>
      <trkpt lat="47.9986" lon="1.93933">
        <ele>135.7</ele>
        <time>2015-09-27T09:38:49Z</time>
      </trkpt>
      <trkpt lat="47.99864" lon="1.93928">
        <ele>135.8</ele>
        <time>2015-09-27T09:38:51Z</time>
      </trkpt>
      <trkpt lat="47.99867" lon="1.93927">
        <ele>135.9</ele>
        <time>2015-09-27T09:38:52Z</time>
      </trkpt>
      <trkpt lat="47.9987" lon="1.93927">
        <ele>136</ele>
        <time>2015-09-27T09:38:53Z</time>
      </trkpt>
      <trkpt lat="47.99874" lon="1.93926">
        <ele>136.2</ele>
        <time>2015-09-27T09:38:55Z</time>
      </trkpt>
      <trkpt lat="47.99879" lon="1.93922">
        <ele>136.2</ele>
        <time>2015-09-27T09:38:56Z</time>
      </trkpt>
      <trkpt lat="47.9988" lon="1.93919">
        <ele>136.2</ele>
        <time>2015-09-27T09:38:57Z</time>
      </trkpt>
      <trkpt lat="47.99881" lon="1.93914">
        <ele>136.1</ele>
        <time>2015-09-27T09:38:58Z</time>
      </trkpt>
      <trkpt lat="47.99882" lon="1.9391">
        <ele>136</ele>
        <time>2015-09-27T09:38:59Z</time>
      </trkpt>
      <trkpt lat="47.99883" lon="1.93904">
        <ele>135.9</ele>
        <time>2015-09-27T09:39:00Z</time>
      </trkpt>
      <trkpt lat="47.99884" lon="1.93895">
        <ele>135.7</ele>
        <time>2015-09-27T09:39:01Z</time>
      </trkpt>
      <trkpt lat="47.99885" lon="1.93887">
        <ele>135.5</ele>
        <time>2015-09-27T09:39:02Z</time>
      </trkpt>
      <trkpt lat="47.99885" lon="1.93879">
        <ele>135.3</ele>
        <time>2015-09-27T09:39:03Z</time>
      </trkpt>
      <trkpt lat="47.99886" lon="1.93871">
        <ele>135.1</ele>
        <time>2015-09-27T09:39:04Z</time>
      </trkpt>
      <trkpt lat="47.99887" lon="1.93863">
        <ele>134.7</ele>
        <time>2015-09-27T09:39:05Z</time>
      </trkpt>
      <trkpt lat="47.99887" lon="1.93856">
        <ele>134.4</ele>
        <time>2015-09-27T09:39:06Z</time>
      </trkpt>
      <trkpt lat="47.99888" lon="1.93849">
        <ele>134</ele>
        <time>2015-09-27T09:39:07Z</time>
      </trkpt>
      <trkpt lat="47.99889" lon="1.93843">
        <ele>133.7</ele>
        <time>2015-09-27T09:39:08Z</time>
      </trkpt>
      <trkpt lat="47.9989" lon="1.93836">
        <ele>133.4</ele>
        <time>2015-09-27T09:39:09Z</time>
      </trkpt>
      <trkpt lat="47.99891" lon="1.93829">
        <ele>133.1</ele>
        <time>2015-09-27T09:39:10Z</time>
      </trkpt>
      <trkpt lat="47.99891" lon="1.93821">
        <ele>132.7</ele>
        <time>2015-09-27T09:39:11Z</time>
      </trkpt>
      <trkpt lat="47.99892" lon="1.93811">
        <ele>132.2</ele>
        <time>2015-09-27T09:39:12Z</time>
      </trkpt>
      <trkpt lat="47.99892" lon="1.93801">
        <ele>131.7</ele>
        <time>2015-09-27T09:39:13Z</time>
      </trkpt>
      <trkpt lat="47.99892" lon="1.93792">
        <ele>131.2</ele>
        <time>2015-09-27T09:39:14Z</time>
      </trkpt>
      <trkpt lat="47.99892" lon="1.93784">
        <ele>131.1</ele>
        <time>2015-09-27T09:39:15Z</time>
      </trkpt>
      <trkpt lat="47.99893" lon="1.93776">
        <ele>130.9</ele>
        <time>2015-09-27T09:39:16Z</time>
      </trkpt>
      <trkpt lat="47.99893" lon="1.93768">
        <ele>130.7</ele>
        <time>2015-09-27T09:39:17Z</time>
      </trkpt>
      <trkpt lat="47.99893" lon="1.93761">
        <ele>130.6</ele>
        <time>2015-09-27T09:39:18Z</time>
      </trkpt>
      <trkpt lat="47.99892" lon="1.93757">
        <ele>130.5</ele>
        <time>2015-09-27T09:39:19Z</time>
      </trkpt>
      <trkpt lat="47.99891" lon="1.9375">
        <ele>130.4</ele>
        <time>2015-09-27T09:39:21Z</time>
      </trkpt>
      <trkpt lat="47.9989" lon="1.93744">
        <ele>130.3</ele>
        <time>2015-09-27T09:39:23Z</time>
      </trkpt>
      <trkpt lat="47.99887" lon="1.93737">
        <ele>130.2</ele>
        <time>2015-09-27T09:39:25Z</time>
      </trkpt>
      <trkpt lat="47.99886" lon="1.93733">
        <ele>130.2</ele>
        <time>2015-09-27T09:39:26Z</time>
      </trkpt>
      <trkpt lat="47.99887" lon="1.93729">
        <ele>130.1</ele>
        <time>2015-09-27T09:39:29Z</time>
      </trkpt>
      <trkpt lat="47.99889" lon="1.93732">
        <ele>130.1</ele>
        <time>2015-09-27T09:39:35Z</time>
      </trkpt>
      <trkpt lat="47.99892" lon="1.93731">
        <ele>130</ele>
        <time>2015-09-27T09:39:38Z</time>
      </trkpt>
      <trkpt lat="47.9989" lon="1.93725">
        <ele>129.9</ele>
        <time>2015-09-27T09:39:40Z</time>
      </trkpt>
      <trkpt lat="47.99888" lon="1.93721">
        <ele>129.9</ele>
        <time>2015-09-27T09:39:41Z</time>
      </trkpt>
      <trkpt lat="47.99885" lon="1.93718">
        <ele>129.9</ele>
        <time>2015-09-27T09:39:42Z</time>
      </trkpt>
      <trkpt lat="47.99883" lon="1.93715">
        <ele>129.9</ele>
        <time>2015-09-27T09:39:43Z</time>
      </trkpt>
      <trkpt lat="47.9988" lon="1.93713">
        <ele>129.9</ele>
        <time>2015-09-27T09:39:44Z</time>
      </trkpt>
      <trkpt lat="47.99877" lon="1.93711">
        <ele>130</ele>
        <time>2015-09-27T09:39:45Z</time>
      </trkpt>
      <trkpt lat="47.99874" lon="1.93711">
        <ele>130</ele>
        <time>2015-09-27T09:39:46Z</time>
      </trkpt>
      <trkpt lat="47.99871" lon="1.9371">
        <ele>129.9</ele>
        <time>2015-09-27T09:39:47Z</time>
      </trkpt>
      <trkpt lat="47.99867" lon="1.93709">
        <ele>129.8</ele>
        <time>2015-09-27T09:39:48Z</time>
      </trkpt>
      <trkpt lat="47.99863" lon="1.93707">
        <ele>129.7</ele>
        <time>2015-09-27T09:39:49Z</time>
      </trkpt>
      <trkpt lat="47.99858" lon="1.93705">
        <ele>129.6</ele>
        <time>2015-09-27T09:39:50Z</time>
      </trkpt>
      <trkpt lat="47.99854" lon="1.93702">
        <ele>129.5</ele>
        <time>2015-09-27T09:39:51Z</time>
      </trkpt>
      <trkpt lat="47.99849" lon="1.937">
        <ele>129.3</ele>
        <time>2015-09-27T09:39:52Z</time>
      </trkpt>
      <trkpt lat="47.99844" lon="1.93698">
        <ele>129.2</ele>
        <time>2015-09-27T09:39:53Z</time>
      </trkpt>
      <trkpt lat="47.99839" lon="1.93695">
        <ele>129.1</ele>
        <time>2015-09-27T09:39:54Z</time>
      </trkpt>
      <trkpt lat="47.99835" lon="1.93693">
        <ele>129</ele>
        <time>2015-09-27T09:39:55Z</time>
      </trkpt>
      <trkpt lat="47.99831" lon="1.93691">
        <ele>128.9</ele>
        <time>2015-09-27T09:39:56Z</time>
      </trkpt>
      <trkpt lat="47.99826" lon="1.93689">
        <ele>128.9</ele>
        <time>2015-09-27T09:39:57Z</time>
      </trkpt>
      <trkpt lat="47.99822" lon="1.93686">
        <ele>128.8</ele>
        <time>2015-09-27T09:39:58Z</time>
      </trkpt>
      <trkpt lat="47.99818" lon="1.93685">
        <ele>128.7</ele>
        <time>2015-09-27T09:39:59Z</time>
      </trkpt>
      <trkpt lat="47.99814" lon="1.93684">
        <ele>128.7</ele>
        <time>2015-09-27T09:40:00Z</time>
      </trkpt>
      <trkpt lat="47.99809" lon="1.93683">
        <ele>128.6</ele>
        <time>2015-09-27T09:40:01Z</time>
      </trkpt>
      <trkpt lat="47.99804" lon="1.93683">
        <ele>128.5</ele>
        <time>2015-09-27T09:40:02Z</time>
      </trkpt>
      <trkpt lat="47.99799" lon="1.93683">
        <ele>128.4</ele>
        <time>2015-09-27T09:40:03Z</time>
      </trkpt>
      <trkpt lat="47.99794" lon="1.93684">
        <ele>128.3</ele>
        <time>2015-09-27T09:40:04Z</time>
      </trkpt>
      <trkpt lat="47.9979" lon="1.93686">
        <ele>128.4</ele>
        <time>2015-09-27T09:40:05Z</time>
      </trkpt>
      <trkpt lat="47.99785" lon="1.93688">
        <ele>128.7</ele>
        <time>2015-09-27T09:40:06Z</time>
      </trkpt>
      <trkpt lat="47.99779" lon="1.93689">
        <ele>129</ele>
        <time>2015-09-27T09:40:07Z</time>
      </trkpt>
      <trkpt lat="47.99774" lon="1.93688">
        <ele>129.3</ele>
        <time>2015-09-27T09:40:08Z</time>
      </trkpt>
      <trkpt lat="47.99769" lon="1.93686">
        <ele>129.6</ele>
        <time>2015-09-27T09:40:09Z</time>
      </trkpt>
      <trkpt lat="47.99764" lon="1.93684">
        <ele>129.9</ele>
        <time>2015-09-27T09:40:10Z</time>
      </trkpt>
      <trkpt lat="47.9976" lon="1.93682">
        <ele>130.2</ele>
        <time>2015-09-27T09:40:11Z</time>
      </trkpt>
      <trkpt lat="47.99756" lon="1.93679">
        <ele>130.5</ele>
        <time>2015-09-27T09:40:12Z</time>
      </trkpt>
      <trkpt lat="47.99752" lon="1.93675">
        <ele>130.8</ele>
        <time>2015-09-27T09:40:13Z</time>
      </trkpt>
      <trkpt lat="47.99749" lon="1.93669">
        <ele>131</ele>
        <time>2015-09-27T09:40:14Z</time>
      </trkpt>
      <trkpt lat="47.99746" lon="1.93662">
        <ele>131.3</ele>
        <time>2015-09-27T09:40:15Z</time>
      </trkpt>
      <trkpt lat="47.99744" lon="1.93654">
        <ele>131.5</ele>
        <time>2015-09-27T09:40:16Z</time>
      </trkpt>
      <trkpt lat="47.99743" lon="1.93646">
        <ele>131.7</ele>
        <time>2015-09-27T09:40:17Z</time>
      </trkpt>
      <trkpt lat="47.99742" lon="1.93638">
        <ele>131.8</ele>
        <time>2015-09-27T09:40:18Z</time>
      </trkpt>
      <trkpt lat="47.99742" lon="1.93629">
        <ele>131.9</ele>
        <time>2015-09-27T09:40:19Z</time>
      </trkpt>
      <trkpt lat="47.99743" lon="1.93621">
        <ele>132</ele>
        <time>2015-09-27T09:40:20Z</time>
      </trkpt>
      <trkpt lat="47.99744" lon="1.93612">
        <ele>131.9</ele>
        <time>2015-09-27T09:40:21Z</time>
      </trkpt>
      <trkpt lat="47.99746" lon="1.93604">
        <ele>131.9</ele>
        <time>2015-09-27T09:40:22Z</time>
      </trkpt>
      <trkpt lat="47.99747" lon="1.93596">
        <ele>131.8</ele>
        <time>2015-09-27T09:40:23Z</time>
      </trkpt>
      <trkpt lat="47.99748" lon="1.93588">
        <ele>131.8</ele>
        <time>2015-09-27T09:40:24Z</time>
      </trkpt>
      <trkpt lat="47.9975" lon="1.9358">
        <ele>131.8</ele>
        <time>2015-09-27T09:40:25Z</time>
      </trkpt>
      <trkpt lat="47.99752" lon="1.93573">
        <ele>131.7</ele>
        <time>2015-09-27T09:40:26Z</time>
      </trkpt>
      <trkpt lat="47.99754" lon="1.93564">
        <ele>131.7</ele>
        <time>2015-09-27T09:40:27Z</time>
      </trkpt>
      <trkpt lat="47.99756" lon="1.93556">
        <ele>131.6</ele>
        <time>2015-09-27T09:40:28Z</time>
      </trkpt>
      <trkpt lat="47.99758" lon="1.93548">
        <ele>131.6</ele>
        <time>2015-09-27T09:40:29Z</time>
      </trkpt>
      <trkpt lat="47.9976" lon="1.9354">
        <ele>131.5</ele>
        <time>2015-09-27T09:40:30Z</time>
      </trkpt>
      <trkpt lat="47.99762" lon="1.93532">
        <ele>131.2</ele>
        <time>2015-09-27T09:40:31Z</time>
      </trkpt>
      <trkpt lat="47.99764" lon="1.93524">
        <ele>131</ele>
        <time>2015-09-27T09:40:32Z</time>
      </trkpt>
      <trkpt lat="47.99766" lon="1.93516">
        <ele>130.7</ele>
        <time>2015-09-27T09:40:33Z</time>
      </trkpt>
      <trkpt lat="47.99768" lon="1.93508">
        <ele>130.5</ele>
        <time>2015-09-27T09:40:34Z</time>
      </trkpt>
      <trkpt lat="47.9977" lon="1.935">
        <ele>130.3</ele>
        <time>2015-09-27T09:40:35Z</time>
      </trkpt>
      <trkpt lat="47.99772" lon="1.93492">
        <ele>130.1</ele>
        <time>2015-09-27T09:40:36Z</time>
      </trkpt>
      <trkpt lat="47.99774" lon="1.93484">
        <ele>129.9</ele>
        <time>2015-09-27T09:40:37Z</time>
      </trkpt>
      <trkpt lat="47.99776" lon="1.93477">
        <ele>129.7</ele>
        <time>2015-09-27T09:40:38Z</time>
      </trkpt>
      <trkpt lat="47.99778" lon="1.93469">
        <ele>129.5</ele>
        <time>2015-09-27T09:40:39Z</time>
      </trkpt>
      <trkpt lat="47.9978" lon="1.93461">
        <ele>129.3</ele>
        <time>2015-09-27T09:40:40Z</time>
      </trkpt>
      <trkpt lat="47.99782" lon="1.93453">
        <ele>129.3</ele>
        <time>2015-09-27T09:40:41Z</time>
      </trkpt>
      <trkpt lat="47.99782" lon="1.93445">
        <ele>129.3</ele>
        <time>2015-09-27T09:40:42Z</time>
      </trkpt>
      <trkpt lat="47.99781" lon="1.93437">
        <ele>129.3</ele>
        <time>2015-09-27T09:40:43Z</time>
      </trkpt>
      <trkpt lat="47.99779" lon="1.9343">
        <ele>129.4</ele>
        <time>2015-09-27T09:40:44Z</time>
      </trkpt>
      <trkpt lat="47.99774" lon="1.93422">
        <ele>129.5</ele>
        <time>2015-09-27T09:40:45Z</time>
      </trkpt>
      <trkpt lat="47.99772" lon="1.93413">
        <ele>129.6</ele>
        <time>2015-09-27T09:40:46Z</time>
      </trkpt>
      <trkpt lat="47.99768" lon="1.93405">
        <ele>129.7</ele>
        <time>2015-09-27T09:40:47Z</time>
      </trkpt>
      <trkpt lat="47.99765" lon="1.93397">
        <ele>129.9</ele>
        <time>2015-09-27T09:40:48Z</time>
      </trkpt>
      <trkpt lat="47.99763" lon="1.9339">
        <ele>130</ele>
        <time>2015-09-27T09:40:49Z</time>
      </trkpt>
      <trkpt lat="47.99759" lon="1.93383">
        <ele>130.1</ele>
        <time>2015-09-27T09:40:50Z</time>
      </trkpt>
      <trkpt lat="47.99756" lon="1.93375">
        <ele>130.3</ele>
        <time>2015-09-27T09:40:51Z</time>
      </trkpt>
      <trkpt lat="47.99754" lon="1.93368">
        <ele>130.4</ele>
        <time>2015-09-27T09:40:52Z</time>
      </trkpt>
      <trkpt lat="47.99751" lon="1.9336">
        <ele>130.6</ele>
        <time>2015-09-27T09:40:53Z</time>
      </trkpt>
      <trkpt lat="47.99749" lon="1.93352">
        <ele>130.7</ele>
        <time>2015-09-27T09:40:54Z</time>
      </trkpt>
      <trkpt lat="47.99746" lon="1.93343">
        <ele>130.9</ele>
        <time>2015-09-27T09:40:55Z</time>
      </trkpt>
      <trkpt lat="47.99742" lon="1.93335">
        <ele>131.1</ele>
        <time>2015-09-27T09:40:56Z</time>
      </trkpt>
      <trkpt lat="47.9974" lon="1.93328">
        <ele>131.2</ele>
        <time>2015-09-27T09:40:57Z</time>
      </trkpt>
      <trkpt lat="47.99736" lon="1.93319">
        <ele>131.4</ele>
        <time>2015-09-27T09:40:58Z</time>
      </trkpt>
      <trkpt lat="47.99732" lon="1.9331">
        <ele>131.7</ele>
        <time>2015-09-27T09:40:59Z</time>
      </trkpt>
      <trkpt lat="47.99729" lon="1.93302">
        <ele>131.9</ele>
        <time>2015-09-27T09:41:00Z</time>
      </trkpt>
      <trkpt lat="47.99726" lon="1.93293">
        <ele>132.2</ele>
        <time>2015-09-27T09:41:01Z</time>
      </trkpt>
      <trkpt lat="47.99722" lon="1.93285">
        <ele>132.2</ele>
        <time>2015-09-27T09:41:02Z</time>
      </trkpt>
      <trkpt lat="47.99719" lon="1.93277">
        <ele>132.2</ele>
        <time>2015-09-27T09:41:03Z</time>
      </trkpt>
      <trkpt lat="47.99716" lon="1.93269">
        <ele>132.1</ele>
        <time>2015-09-27T09:41:04Z</time>
      </trkpt>
      <trkpt lat="47.99712" lon="1.9326">
        <ele>132.1</ele>
        <time>2015-09-27T09:41:05Z</time>
      </trkpt>
      <trkpt lat="47.99708" lon="1.93252">
        <ele>132</ele>
        <time>2015-09-27T09:41:06Z</time>
      </trkpt>
      <trkpt lat="47.99705" lon="1.93244">
        <ele>131.8</ele>
        <time>2015-09-27T09:41:07Z</time>
      </trkpt>
      <trkpt lat="47.99703" lon="1.93234">
        <ele>131.5</ele>
        <time>2015-09-27T09:41:08Z</time>
      </trkpt>
      <trkpt lat="47.99701" lon="1.93224">
        <ele>131.2</ele>
        <time>2015-09-27T09:41:09Z</time>
      </trkpt>
      <trkpt lat="47.99699" lon="1.93215">
        <ele>130.9</ele>
        <time>2015-09-27T09:41:10Z</time>
      </trkpt>
      <trkpt lat="47.99697" lon="1.93207">
        <ele>130.7</ele>
        <time>2015-09-27T09:41:11Z</time>
      </trkpt>
      <trkpt lat="47.99696" lon="1.93199">
        <ele>130.7</ele>
        <time>2015-09-27T09:41:12Z</time>
      </trkpt>
      <trkpt lat="47.99697" lon="1.93191">
        <ele>130.7</ele>
        <time>2015-09-27T09:41:13Z</time>
      </trkpt>
      <trkpt lat="47.99696" lon="1.93183">
        <ele>130.7</ele>
        <time>2015-09-27T09:41:14Z</time>
      </trkpt>
      <trkpt lat="47.99696" lon="1.93175">
        <ele>130.7</ele>
        <time>2015-09-27T09:41:15Z</time>
      </trkpt>
      <trkpt lat="47.99697" lon="1.93165">
        <ele>130.7</ele>
        <time>2015-09-27T09:41:16Z</time>
      </trkpt>
      <trkpt lat="47.99696" lon="1.93156">
        <ele>130.7</ele>
        <time>2015-09-27T09:41:17Z</time>
      </trkpt>
      <trkpt lat="47.99694" lon="1.93149">
        <ele>130.7</ele>
        <time>2015-09-27T09:41:18Z</time>
      </trkpt>
      <trkpt lat="47.99693" lon="1.93142">
        <ele>130.6</ele>
        <time>2015-09-27T09:41:19Z</time>
      </trkpt>
      <trkpt lat="47.99691" lon="1.93132">
        <ele>130.6</ele>
        <time>2015-09-27T09:41:20Z</time>
      </trkpt>
      <trkpt lat="47.99689" lon="1.93124">
        <ele>130.6</ele>
        <time>2015-09-27T09:41:21Z</time>
      </trkpt>
      <trkpt lat="47.99691" lon="1.93121">
        <ele>130.7</ele>
        <time>2015-09-27T09:41:22Z</time>
      </trkpt>
      <trkpt lat="47.99702" lon="1.9313">
        <ele>130.8</ele>
        <time>2015-09-27T09:41:24Z</time>
      </trkpt>
      <trkpt lat="47.99705" lon="1.93133">
        <ele>130.9</ele>
        <time>2015-09-27T09:41:25Z</time>
      </trkpt>
      <trkpt lat="47.99709" lon="1.93135">
        <ele>131</ele>
        <time>2015-09-27T09:41:26Z</time>
      </trkpt>
      <trkpt lat="47.99713" lon="1.93139">
        <ele>131</ele>
        <time>2015-09-27T09:41:27Z</time>
      </trkpt>
      <trkpt lat="47.9972" lon="1.93147">
        <ele>131</ele>
        <time>2015-09-27T09:41:28Z</time>
      </trkpt>
      <trkpt lat="47.99724" lon="1.93152">
        <ele>131</ele>
        <time>2015-09-27T09:41:29Z</time>
      </trkpt>
      <trkpt lat="47.99729" lon="1.93153">
        <ele>131</ele>
        <time>2015-09-27T09:41:30Z</time>
      </trkpt>
      <trkpt lat="47.99735" lon="1.93153">
        <ele>131</ele>
        <time>2015-09-27T09:41:31Z</time>
      </trkpt>
      <trkpt lat="47.99741" lon="1.93155">
        <ele>131</ele>
        <time>2015-09-27T09:41:32Z</time>
      </trkpt>
      <trkpt lat="47.99747" lon="1.93159">
        <ele>130.9</ele>
        <time>2015-09-27T09:41:33Z</time>
      </trkpt>
      <trkpt lat="47.99751" lon="1.93159">
        <ele>130.9</ele>
        <time>2015-09-27T09:41:34Z</time>
      </trkpt>
      <trkpt lat="47.9976" lon="1.93161">
        <ele>130.8</ele>
        <time>2015-09-27T09:41:36Z</time>
      </trkpt>
      <trkpt lat="47.99763" lon="1.93161">
        <ele>130.8</ele>
        <time>2015-09-27T09:41:37Z</time>
      </trkpt>
      <trkpt lat="47.99768" lon="1.93161">
        <ele>130.8</ele>
        <time>2015-09-27T09:41:38Z</time>
      </trkpt>
      <trkpt lat="47.9977" lon="1.93163">
        <ele>130.7</ele>
        <time>2015-09-27T09:41:39Z</time>
      </trkpt>
      <trkpt lat="47.99775" lon="1.93163">
        <ele>130.7</ele>
        <time>2015-09-27T09:41:40Z</time>
      </trkpt>
      <trkpt lat="47.99778" lon="1.93165">
        <ele>130.6</ele>
        <time>2015-09-27T09:41:41Z</time>
      </trkpt>
      <trkpt lat="47.99782" lon="1.93169">
        <ele>130.5</ele>
        <time>2015-09-27T09:41:42Z</time>
      </trkpt>
      <trkpt lat="47.99786" lon="1.93168">
        <ele>130.5</ele>
        <time>2015-09-27T09:41:43Z</time>
      </trkpt>
      <trkpt lat="47.9979" lon="1.93171">
        <ele>130.4</ele>
        <time>2015-09-27T09:41:45Z</time>
      </trkpt>
      <trkpt lat="47.99792" lon="1.93163">
        <ele>130.6</ele>
        <time>2015-09-27T09:41:47Z</time>
      </trkpt>
      <trkpt lat="47.99793" lon="1.93154">
        <ele>131</ele>
        <time>2015-09-27T09:41:49Z</time>
      </trkpt>
      <trkpt lat="47.99792" lon="1.93148">
        <ele>131.2</ele>
        <time>2015-09-27T09:41:50Z</time>
      </trkpt>
      <trkpt lat="47.99792" lon="1.93143">
        <ele>131.4</ele>
        <time>2015-09-27T09:41:51Z</time>
      </trkpt>
      <trkpt lat="47.99793" lon="1.93138">
        <ele>131.5</ele>
        <time>2015-09-27T09:41:52Z</time>
      </trkpt>
      <trkpt lat="47.99795" lon="1.93134">
        <ele>131.7</ele>
        <time>2015-09-27T09:41:53Z</time>
      </trkpt>
      <trkpt lat="47.99796" lon="1.93129">
        <ele>131.9</ele>
        <time>2015-09-27T09:41:54Z</time>
      </trkpt>
      <trkpt lat="47.99797" lon="1.93125">
        <ele>132.1</ele>
        <time>2015-09-27T09:41:55Z</time>
      </trkpt>
      <trkpt lat="47.99798" lon="1.93117">
        <ele>132.2</ele>
        <time>2015-09-27T09:41:57Z</time>
      </trkpt>
      <trkpt lat="47.99798" lon="1.93112">
        <ele>132.2</ele>
        <time>2015-09-27T09:41:58Z</time>
      </trkpt>
      <trkpt lat="47.99798" lon="1.93108">
        <ele>132.3</ele>
        <time>2015-09-27T09:41:59Z</time>
      </trkpt>
      <trkpt lat="47.99798" lon="1.93104">
        <ele>132.3</ele>
        <time>2015-09-27T09:42:00Z</time>
      </trkpt>
      <trkpt lat="47.99798" lon="1.931">
        <ele>132.4</ele>
        <time>2015-09-27T09:42:01Z</time>
      </trkpt>
      <trkpt lat="47.99798" lon="1.93092">
        <ele>132.5</ele>
        <time>2015-09-27T09:42:03Z</time>
      </trkpt>
      <trkpt lat="47.99798" lon="1.93087">
        <ele>132.5</ele>
        <time>2015-09-27T09:42:04Z</time>
      </trkpt>
      <trkpt lat="47.99798" lon="1.93083">
        <ele>132.6</ele>
        <time>2015-09-27T09:42:05Z</time>
      </trkpt>
      <trkpt lat="47.998" lon="1.93078">
        <ele>132.7</ele>
        <time>2015-09-27T09:42:06Z</time>
      </trkpt>
      <trkpt lat="47.99801" lon="1.93073">
        <ele>132.7</ele>
        <time>2015-09-27T09:42:07Z</time>
      </trkpt>
      <trkpt lat="47.99801" lon="1.93067">
        <ele>132.8</ele>
        <time>2015-09-27T09:42:08Z</time>
      </trkpt>
      <trkpt lat="47.99802" lon="1.93061">
        <ele>132.9</ele>
        <time>2015-09-27T09:42:09Z</time>
      </trkpt>
      <trkpt lat="47.99803" lon="1.93055">
        <ele>133</ele>
        <time>2015-09-27T09:42:10Z</time>
      </trkpt>
      <trkpt lat="47.99803" lon="1.9305">
        <ele>133</ele>
        <time>2015-09-27T09:42:11Z</time>
      </trkpt>
      <trkpt lat="47.99804" lon="1.93044">
        <ele>133.1</ele>
        <time>2015-09-27T09:42:12Z</time>
      </trkpt>
      <trkpt lat="47.99805" lon="1.93037">
        <ele>133.2</ele>
        <time>2015-09-27T09:42:13Z</time>
      </trkpt>
      <trkpt lat="47.99806" lon="1.93031">
        <ele>133.2</ele>
        <time>2015-09-27T09:42:14Z</time>
      </trkpt>
      <trkpt lat="47.99807" lon="1.93024">
        <ele>133.2</ele>
        <time>2015-09-27T09:42:15Z</time>
      </trkpt>
      <trkpt lat="47.99808" lon="1.93017">
        <ele>133.2</ele>
        <time>2015-09-27T09:42:16Z</time>
      </trkpt>
      <trkpt lat="47.99809" lon="1.93009">
        <ele>133.2</ele>
        <time>2015-09-27T09:42:17Z</time>
      </trkpt>
      <trkpt lat="47.9981" lon="1.93001">
        <ele>133.2</ele>
        <time>2015-09-27T09:42:18Z</time>
      </trkpt>
      <trkpt lat="47.99811" lon="1.92993">
        <ele>133.2</ele>
        <time>2015-09-27T09:42:19Z</time>
      </trkpt>
      <trkpt lat="47.99811" lon="1.92986">
        <ele>133.2</ele>
        <time>2015-09-27T09:42:20Z</time>
      </trkpt>
      <trkpt lat="47.99812" lon="1.92978">
        <ele>133.2</ele>
        <time>2015-09-27T09:42:21Z</time>
      </trkpt>
      <trkpt lat="47.99814" lon="1.92971">
        <ele>133.3</ele>
        <time>2015-09-27T09:42:22Z</time>
      </trkpt>
      <trkpt lat="47.99815" lon="1.92963">
        <ele>133.3</ele>
        <time>2015-09-27T09:42:23Z</time>
      </trkpt>
      <trkpt lat="47.99817" lon="1.92955">
        <ele>133.3</ele>
        <time>2015-09-27T09:42:24Z</time>
      </trkpt>
      <trkpt lat="47.99818" lon="1.92947">
        <ele>133.2</ele>
        <time>2015-09-27T09:42:25Z</time>
      </trkpt>
      <trkpt lat="47.99819" lon="1.92939">
        <ele>133.1</ele>
        <time>2015-09-27T09:42:26Z</time>
      </trkpt>
      <trkpt lat="47.9982" lon="1.92932">
        <ele>133</ele>
        <time>2015-09-27T09:42:27Z</time>
      </trkpt>
      <trkpt lat="47.99821" lon="1.92924">
        <ele>132.9</ele>
        <time>2015-09-27T09:42:28Z</time>
      </trkpt>
      <trkpt lat="47.99821" lon="1.92917">
        <ele>132.9</ele>
        <time>2015-09-27T09:42:29Z</time>
      </trkpt>
      <trkpt lat="47.99823" lon="1.92911">
        <ele>132.8</ele>
        <time>2015-09-27T09:42:30Z</time>
      </trkpt>
      <trkpt lat="47.99824" lon="1.92906">
        <ele>132.8</ele>
        <time>2015-09-27T09:42:31Z</time>
      </trkpt>
      <trkpt lat="47.99825" lon="1.92902">
        <ele>132.7</ele>
        <time>2015-09-27T09:42:32Z</time>
      </trkpt>
      <trkpt lat="47.99826" lon="1.92897">
        <ele>132.7</ele>
        <time>2015-09-27T09:42:33Z</time>
      </trkpt>
      <trkpt lat="47.99827" lon="1.92893">
        <ele>132.6</ele>
        <time>2015-09-27T09:42:34Z</time>
      </trkpt>
      <trkpt lat="47.99829" lon="1.92889">
        <ele>132.6</ele>
        <time>2015-09-27T09:42:35Z</time>
      </trkpt>
      <trkpt lat="47.9983" lon="1.92885">
        <ele>132.6</ele>
        <time>2015-09-27T09:42:36Z</time>
      </trkpt>
      <trkpt lat="47.99831" lon="1.9288">
        <ele>132.5</ele>
        <time>2015-09-27T09:42:37Z</time>
      </trkpt>
      <trkpt lat="47.99832" lon="1.92875">
        <ele>132.5</ele>
        <time>2015-09-27T09:42:38Z</time>
      </trkpt>
      <trkpt lat="47.99833" lon="1.9287">
        <ele>132.5</ele>
        <time>2015-09-27T09:42:39Z</time>
      </trkpt>
      <trkpt lat="47.99833" lon="1.92865">
        <ele>132.5</ele>
        <time>2015-09-27T09:42:40Z</time>
      </trkpt>
      <trkpt lat="47.99834" lon="1.9286">
        <ele>132.5</ele>
        <time>2015-09-27T09:42:41Z</time>
      </trkpt>
      <trkpt lat="47.99835" lon="1.92854">
        <ele>132.5</ele>
        <time>2015-09-27T09:42:43Z</time>
      </trkpt>
      <trkpt lat="47.99832" lon="1.92851">
        <ele>132.5</ele>
        <time>2015-09-27T09:42:46Z</time>
      </trkpt>
      <trkpt lat="47.99831" lon="1.92847">
        <ele>132.5</ele>
        <time>2015-09-27T09:42:52Z</time>
      </trkpt>
      <trkpt lat="47.99833" lon="1.92843">
        <ele>132.5</ele>
        <time>2015-09-27T09:42:54Z</time>
      </trkpt>
      <trkpt lat="47.99834" lon="1.92837">
        <ele>132.5</ele>
        <time>2015-09-27T09:42:56Z</time>
      </trkpt>
      <trkpt lat="47.99835" lon="1.92833">
        <ele>132.5</ele>
        <time>2015-09-27T09:42:57Z</time>
      </trkpt>
      <trkpt lat="47.99836" lon="1.92828">
        <ele>132.5</ele>
        <time>2015-09-27T09:42:58Z</time>
      </trkpt>
      <trkpt lat="47.99837" lon="1.92823">
        <ele>132.5</ele>
        <time>2015-09-27T09:42:59Z</time>
      </trkpt>
      <trkpt lat="47.99838" lon="1.92817">
        <ele>132.6</ele>
        <time>2015-09-27T09:43:00Z</time>
      </trkpt>
      <trkpt lat="47.9984" lon="1.92811">
        <ele>132.6</ele>
        <time>2015-09-27T09:43:01Z</time>
      </trkpt>
      <trkpt lat="47.99841" lon="1.92805">
        <ele>132.6</ele>
        <time>2015-09-27T09:43:02Z</time>
      </trkpt>
      <trkpt lat="47.99842" lon="1.92799">
        <ele>132.6</ele>
        <time>2015-09-27T09:43:03Z</time>
      </trkpt>
      <trkpt lat="47.99844" lon="1.92793">
        <ele>132.6</ele>
        <time>2015-09-27T09:43:04Z</time>
      </trkpt>
      <trkpt lat="47.99845" lon="1.92787">
        <ele>132.8</ele>
        <time>2015-09-27T09:43:05Z</time>
      </trkpt>
      <trkpt lat="47.99846" lon="1.9278">
        <ele>132.9</ele>
        <time>2015-09-27T09:43:06Z</time>
      </trkpt>
      <trkpt lat="47.99847" lon="1.92774">
        <ele>133.1</ele>
        <time>2015-09-27T09:43:07Z</time>
      </trkpt>
      <trkpt lat="47.99848" lon="1.92767">
        <ele>133.3</ele>
        <time>2015-09-27T09:43:08Z</time>
      </trkpt>
      <trkpt lat="47.9985" lon="1.9276">
        <ele>133.4</ele>
        <time>2015-09-27T09:43:09Z</time>
      </trkpt>
      <trkpt lat="47.99851" lon="1.92753">
        <ele>133.6</ele>
        <time>2015-09-27T09:43:10Z</time>
      </trkpt>
      <trkpt lat="47.99853" lon="1.92747">
        <ele>133.8</ele>
        <time>2015-09-27T09:43:11Z</time>
      </trkpt>
      <trkpt lat="47.99855" lon="1.92741">
        <ele>134</ele>
        <time>2015-09-27T09:43:12Z</time>
      </trkpt>
      <trkpt lat="47.99857" lon="1.92735">
        <ele>134.1</ele>
        <time>2015-09-27T09:43:13Z</time>
      </trkpt>
      <trkpt lat="47.99857" lon="1.92728">
        <ele>134.3</ele>
        <time>2015-09-27T09:43:15Z</time>
      </trkpt>
      <trkpt lat="47.99857" lon="1.92723">
        <ele>134.4</ele>
        <time>2015-09-27T09:43:16Z</time>
      </trkpt>
      <trkpt lat="47.99857" lon="1.92719">
        <ele>134.5</ele>
        <time>2015-09-27T09:43:17Z</time>
      </trkpt>
      <trkpt lat="47.99857" lon="1.92713">
        <ele>134.7</ele>
        <time>2015-09-27T09:43:18Z</time>
      </trkpt>
      <trkpt lat="47.99858" lon="1.92708">
        <ele>134.8</ele>
        <time>2015-09-27T09:43:19Z</time>
      </trkpt>
      <trkpt lat="47.99858" lon="1.92702">
        <ele>134.7</ele>
        <time>2015-09-27T09:43:20Z</time>
      </trkpt>
      <trkpt lat="47.99859" lon="1.92695">
        <ele>134.7</ele>
        <time>2015-09-27T09:43:21Z</time>
      </trkpt>
      <trkpt lat="47.9986" lon="1.92688">
        <ele>134.6</ele>
        <time>2015-09-27T09:43:22Z</time>
      </trkpt>
      <trkpt lat="47.99861" lon="1.92682">
        <ele>134.6</ele>
        <time>2015-09-27T09:43:23Z</time>
      </trkpt>
      <trkpt lat="47.99862" lon="1.92675">
        <ele>134.5</ele>
        <time>2015-09-27T09:43:24Z</time>
      </trkpt>
      <trkpt lat="47.99864" lon="1.9267">
        <ele>134.5</ele>
        <time>2015-09-27T09:43:25Z</time>
      </trkpt>
      <trkpt lat="47.99866" lon="1.92664">
        <ele>134.4</ele>
        <time>2015-09-27T09:43:26Z</time>
      </trkpt>
      <trkpt lat="47.99867" lon="1.92658">
        <ele>134.4</ele>
        <time>2015-09-27T09:43:27Z</time>
      </trkpt>
      <trkpt lat="47.99869" lon="1.92652">
        <ele>134.3</ele>
        <time>2015-09-27T09:43:28Z</time>
      </trkpt>
      <trkpt lat="47.99871" lon="1.92645">
        <ele>134.2</ele>
        <time>2015-09-27T09:43:29Z</time>
      </trkpt>
      <trkpt lat="47.99872" lon="1.92638">
        <ele>134.1</ele>
        <time>2015-09-27T09:43:30Z</time>
      </trkpt>
      <trkpt lat="47.99874" lon="1.92632">
        <ele>134.1</ele>
        <time>2015-09-27T09:43:31Z</time>
      </trkpt>
      <trkpt lat="47.99875" lon="1.92626">
        <ele>134</ele>
        <time>2015-09-27T09:43:32Z</time>
      </trkpt>
      <trkpt lat="47.99875" lon="1.9262">
        <ele>133.9</ele>
        <time>2015-09-27T09:43:34Z</time>
      </trkpt>
      <trkpt lat="47.99873" lon="1.92617">
        <ele>133.9</ele>
        <time>2015-09-27T09:43:36Z</time>
      </trkpt>
      <trkpt lat="47.9987" lon="1.92614">
        <ele>133.9</ele>
        <time>2015-09-27T09:43:38Z</time>
      </trkpt>
      <trkpt lat="47.9987" lon="1.92608">
        <ele>133.8</ele>
        <time>2015-09-27T09:43:41Z</time>
      </trkpt>
      <trkpt lat="47.99871" lon="1.92604">
        <ele>133.8</ele>
        <time>2015-09-27T09:43:42Z</time>
      </trkpt>
      <trkpt lat="47.99872" lon="1.92598">
        <ele>133.7</ele>
        <time>2015-09-27T09:43:43Z</time>
      </trkpt>
      <trkpt lat="47.99873" lon="1.92592">
        <ele>133.6</ele>
        <time>2015-09-27T09:43:44Z</time>
      </trkpt>
      <trkpt lat="47.99874" lon="1.92586">
        <ele>133.5</ele>
        <time>2015-09-27T09:43:45Z</time>
      </trkpt>
      <trkpt lat="47.99875" lon="1.9258">
        <ele>133.5</ele>
        <time>2015-09-27T09:43:46Z</time>
      </trkpt>
      <trkpt lat="47.99876" lon="1.92574">
        <ele>133.3</ele>
        <time>2015-09-27T09:43:47Z</time>
      </trkpt>
      <trkpt lat="47.99877" lon="1.92569">
        <ele>133.2</ele>
        <time>2015-09-27T09:43:48Z</time>
      </trkpt>
      <trkpt lat="47.99878" lon="1.92563">
        <ele>133.1</ele>
        <time>2015-09-27T09:43:49Z</time>
      </trkpt>
      <trkpt lat="47.99878" lon="1.92558">
        <ele>132.9</ele>
        <time>2015-09-27T09:43:50Z</time>
      </trkpt>
      <trkpt lat="47.99879" lon="1.92552">
        <ele>132.8</ele>
        <time>2015-09-27T09:43:51Z</time>
      </trkpt>
      <trkpt lat="47.99879" lon="1.92545">
        <ele>132.7</ele>
        <time>2015-09-27T09:43:52Z</time>
      </trkpt>
      <trkpt lat="47.9988" lon="1.92539">
        <ele>132.6</ele>
        <time>2015-09-27T09:43:53Z</time>
      </trkpt>
      <trkpt lat="47.9988" lon="1.92532">
        <ele>132.6</ele>
        <time>2015-09-27T09:43:54Z</time>
      </trkpt>
      <trkpt lat="47.99881" lon="1.92525">
        <ele>132.5</ele>
        <time>2015-09-27T09:43:55Z</time>
      </trkpt>
      <trkpt lat="47.9988" lon="1.92518">
        <ele>132.5</ele>
        <time>2015-09-27T09:43:56Z</time>
      </trkpt>
      <trkpt lat="47.9988" lon="1.92511">
        <ele>132.5</ele>
        <time>2015-09-27T09:43:57Z</time>
      </trkpt>
      <trkpt lat="47.99881" lon="1.92504">
        <ele>132.5</ele>
        <time>2015-09-27T09:43:58Z</time>
      </trkpt>
      <trkpt lat="47.99882" lon="1.92498">
        <ele>132.4</ele>
        <time>2015-09-27T09:43:59Z</time>
      </trkpt>
      <trkpt lat="47.99883" lon="1.92492">
        <ele>132.3</ele>
        <time>2015-09-27T09:44:00Z</time>
      </trkpt>
      <trkpt lat="47.99884" lon="1.92485">
        <ele>132.1</ele>
        <time>2015-09-27T09:44:01Z</time>
      </trkpt>
      <trkpt lat="47.99886" lon="1.92477">
        <ele>132</ele>
        <time>2015-09-27T09:44:02Z</time>
      </trkpt>
      <trkpt lat="47.99887" lon="1.92469">
        <ele>131.9</ele>
        <time>2015-09-27T09:44:03Z</time>
      </trkpt>
      <trkpt lat="47.99888" lon="1.92461">
        <ele>131.7</ele>
        <time>2015-09-27T09:44:04Z</time>
      </trkpt>
      <trkpt lat="47.99889" lon="1.92454">
        <ele>131.6</ele>
        <time>2015-09-27T09:44:05Z</time>
      </trkpt>
      <trkpt lat="47.99891" lon="1.92446">
        <ele>131.6</ele>
        <time>2015-09-27T09:44:06Z</time>
      </trkpt>
      <trkpt lat="47.99892" lon="1.92439">
        <ele>131.5</ele>
        <time>2015-09-27T09:44:07Z</time>
      </trkpt>
      <trkpt lat="47.99894" lon="1.92432">
        <ele>131.4</ele>
        <time>2015-09-27T09:44:08Z</time>
      </trkpt>
      <trkpt lat="47.99894" lon="1.92425">
        <ele>131.3</ele>
        <time>2015-09-27T09:44:09Z</time>
      </trkpt>
      <trkpt lat="47.99895" lon="1.92418">
        <ele>131.3</ele>
        <time>2015-09-27T09:44:10Z</time>
      </trkpt>
      <trkpt lat="47.99896" lon="1.92412">
        <ele>131.3</ele>
        <time>2015-09-27T09:44:11Z</time>
      </trkpt>
      <trkpt lat="47.99896" lon="1.92406">
        <ele>131.3</ele>
        <time>2015-09-27T09:44:12Z</time>
      </trkpt>
      <trkpt lat="47.99895" lon="1.924">
        <ele>131.4</ele>
        <time>2015-09-27T09:44:13Z</time>
      </trkpt>
      <trkpt lat="47.99896" lon="1.92393">
        <ele>131.4</ele>
        <time>2015-09-27T09:44:14Z</time>
      </trkpt>
      <trkpt lat="47.99896" lon="1.92388">
        <ele>131.4</ele>
        <time>2015-09-27T09:44:15Z</time>
      </trkpt>
      <trkpt lat="47.99897" lon="1.92382">
        <ele>131.4</ele>
        <time>2015-09-27T09:44:16Z</time>
      </trkpt>
      <trkpt lat="47.99897" lon="1.92376">
        <ele>131.4</ele>
        <time>2015-09-27T09:44:17Z</time>
      </trkpt>
      <trkpt lat="47.99898" lon="1.9237">
        <ele>131.4</ele>
        <time>2015-09-27T09:44:18Z</time>
      </trkpt>
      <trkpt lat="47.99899" lon="1.92365">
        <ele>131.3</ele>
        <time>2015-09-27T09:44:19Z</time>
      </trkpt>
      <trkpt lat="47.999" lon="1.92359">
        <ele>131.2</ele>
        <time>2015-09-27T09:44:20Z</time>
      </trkpt>
      <trkpt lat="47.99902" lon="1.92355">
        <ele>131.1</ele>
        <time>2015-09-27T09:44:21Z</time>
      </trkpt>
      <trkpt lat="47.99904" lon="1.9235">
        <ele>131.1</ele>
        <time>2015-09-27T09:44:22Z</time>
      </trkpt>
      <trkpt lat="47.99905" lon="1.92345">
        <ele>131</ele>
        <time>2015-09-27T09:44:23Z</time>
      </trkpt>
      <trkpt lat="47.99906" lon="1.9234">
        <ele>130.9</ele>
        <time>2015-09-27T09:44:24Z</time>
      </trkpt>
      <trkpt lat="47.99907" lon="1.92336">
        <ele>130.9</ele>
        <time>2015-09-27T09:44:25Z</time>
      </trkpt>
      <trkpt lat="47.99908" lon="1.92331">
        <ele>130.8</ele>
        <time>2015-09-27T09:44:26Z</time>
      </trkpt>
      <trkpt lat="47.9991" lon="1.92326">
        <ele>130.7</ele>
        <time>2015-09-27T09:44:27Z</time>
      </trkpt>
      <trkpt lat="47.99911" lon="1.92321">
        <ele>130.7</ele>
        <time>2015-09-27T09:44:28Z</time>
      </trkpt>
      <trkpt lat="47.99912" lon="1.92316">
        <ele>130.6</ele>
        <time>2015-09-27T09:44:29Z</time>
      </trkpt>
      <trkpt lat="47.99913" lon="1.92312">
        <ele>130.6</ele>
        <time>2015-09-27T09:44:30Z</time>
      </trkpt>
      <trkpt lat="47.99913" lon="1.92307">
        <ele>130.6</ele>
        <time>2015-09-27T09:44:31Z</time>
      </trkpt>
      <trkpt lat="47.99914" lon="1.92302">
        <ele>130.6</ele>
        <time>2015-09-27T09:44:32Z</time>
      </trkpt>
      <trkpt lat="47.99914" lon="1.92298">
        <ele>130.6</ele>
        <time>2015-09-27T09:44:33Z</time>
      </trkpt>
      <trkpt lat="47.99914" lon="1.92293">
        <ele>130.6</ele>
        <time>2015-09-27T09:44:34Z</time>
      </trkpt>
      <trkpt lat="47.99915" lon="1.92288">
        <ele>130.7</ele>
        <time>2015-09-27T09:44:35Z</time>
      </trkpt>
      <trkpt lat="47.99915" lon="1.92283">
        <ele>130.8</ele>
        <time>2015-09-27T09:44:36Z</time>
      </trkpt>
      <trkpt lat="47.99916" lon="1.92277">
        <ele>131</ele>
        <time>2015-09-27T09:44:37Z</time>
      </trkpt>
      <trkpt lat="47.99917" lon="1.92271">
        <ele>131.1</ele>
        <time>2015-09-27T09:44:38Z</time>
      </trkpt>
      <trkpt lat="47.99918" lon="1.92265">
        <ele>131.2</ele>
        <time>2015-09-27T09:44:39Z</time>
      </trkpt>
      <trkpt lat="47.9992" lon="1.92259">
        <ele>131.4</ele>
        <time>2015-09-27T09:44:40Z</time>
      </trkpt>
      <trkpt lat="47.9992" lon="1.92252">
        <ele>131.5</ele>
        <time>2015-09-27T09:44:41Z</time>
      </trkpt>
      <trkpt lat="47.99921" lon="1.92246">
        <ele>131.7</ele>
        <time>2015-09-27T09:44:42Z</time>
      </trkpt>
      <trkpt lat="47.99921" lon="1.92239">
        <ele>131.9</ele>
        <time>2015-09-27T09:44:43Z</time>
      </trkpt>
      <trkpt lat="47.99922" lon="1.92233">
        <ele>132.1</ele>
        <time>2015-09-27T09:44:44Z</time>
      </trkpt>
      <trkpt lat="47.99922" lon="1.92227">
        <ele>132.3</ele>
        <time>2015-09-27T09:44:45Z</time>
      </trkpt>
      <trkpt lat="47.99923" lon="1.92221">
        <ele>132.4</ele>
        <time>2015-09-27T09:44:46Z</time>
      </trkpt>
      <trkpt lat="47.99925" lon="1.92216">
        <ele>132.6</ele>
        <time>2015-09-27T09:44:47Z</time>
      </trkpt>
      <trkpt lat="47.99926" lon="1.92212">
        <ele>132.7</ele>
        <time>2015-09-27T09:44:48Z</time>
      </trkpt>
      <trkpt lat="47.99926" lon="1.92207">
        <ele>132.8</ele>
        <time>2015-09-27T09:44:49Z</time>
      </trkpt>
      <trkpt lat="47.99927" lon="1.92201">
        <ele>133</ele>
        <time>2015-09-27T09:44:50Z</time>
      </trkpt>
      <trkpt lat="47.99927" lon="1.92195">
        <ele>133.2</ele>
        <time>2015-09-27T09:44:51Z</time>
      </trkpt>
      <trkpt lat="47.99928" lon="1.9219">
        <ele>133.4</ele>
        <time>2015-09-27T09:44:52Z</time>
      </trkpt>
      <trkpt lat="47.99928" lon="1.92184">
        <ele>133.6</ele>
        <time>2015-09-27T09:44:53Z</time>
      </trkpt>
      <trkpt lat="47.99929" lon="1.92179">
        <ele>133.8</ele>
        <time>2015-09-27T09:44:54Z</time>
      </trkpt>
      <trkpt lat="47.9993" lon="1.92173">
        <ele>133.9</ele>
        <time>2015-09-27T09:44:55Z</time>
      </trkpt>
      <trkpt lat="47.99931" lon="1.92168">
        <ele>134.1</ele>
        <time>2015-09-27T09:44:56Z</time>
      </trkpt>
      <trkpt lat="47.99931" lon="1.92162">
        <ele>134.3</ele>
        <time>2015-09-27T09:44:57Z</time>
      </trkpt>
      <trkpt lat="47.99932" lon="1.92156">
        <ele>134.5</ele>
        <time>2015-09-27T09:44:58Z</time>
      </trkpt>
      <trkpt lat="47.99934" lon="1.92148">
        <ele>134.8</ele>
        <time>2015-09-27T09:44:59Z</time>
      </trkpt>
      <trkpt lat="47.99935" lon="1.92141">
        <ele>135</ele>
        <time>2015-09-27T09:45:00Z</time>
      </trkpt>
      <trkpt lat="47.99936" lon="1.92134">
        <ele>135.2</ele>
        <time>2015-09-27T09:45:01Z</time>
      </trkpt>
      <trkpt lat="47.99937" lon="1.92128">
        <ele>135.4</ele>
        <time>2015-09-27T09:45:02Z</time>
      </trkpt>
      <trkpt lat="47.99938" lon="1.92121">
        <ele>135.5</ele>
        <time>2015-09-27T09:45:03Z</time>
      </trkpt>
      <trkpt lat="47.99938" lon="1.92115">
        <ele>135.5</ele>
        <time>2015-09-27T09:45:04Z</time>
      </trkpt>
      <trkpt lat="47.99939" lon="1.92109">
        <ele>135.6</ele>
        <time>2015-09-27T09:45:05Z</time>
      </trkpt>
      <trkpt lat="47.99941" lon="1.92103">
        <ele>135.6</ele>
        <time>2015-09-27T09:45:06Z</time>
      </trkpt>
      <trkpt lat="47.99943" lon="1.92098">
        <ele>135.6</ele>
        <time>2015-09-27T09:45:07Z</time>
      </trkpt>
      <trkpt lat="47.99944" lon="1.92092">
        <ele>135.6</ele>
        <time>2015-09-27T09:45:08Z</time>
      </trkpt>
      <trkpt lat="47.99945" lon="1.92087">
        <ele>135.6</ele>
        <time>2015-09-27T09:45:09Z</time>
      </trkpt>
      <trkpt lat="47.99946" lon="1.92081">
        <ele>135.7</ele>
        <time>2015-09-27T09:45:10Z</time>
      </trkpt>
      <trkpt lat="47.99947" lon="1.92076">
        <ele>135.7</ele>
        <time>2015-09-27T09:45:11Z</time>
      </trkpt>
      <trkpt lat="47.99948" lon="1.9207">
        <ele>135.7</ele>
        <time>2015-09-27T09:45:12Z</time>
      </trkpt>
      <trkpt lat="47.9995" lon="1.92064">
        <ele>135.8</ele>
        <time>2015-09-27T09:45:13Z</time>
      </trkpt>
      <trkpt lat="47.99952" lon="1.92056">
        <ele>135.9</ele>
        <time>2015-09-27T09:45:14Z</time>
      </trkpt>
      <trkpt lat="47.99953" lon="1.92048">
        <ele>135.9</ele>
        <time>2015-09-27T09:45:15Z</time>
      </trkpt>
      <trkpt lat="47.99954" lon="1.92041">
        <ele>136</ele>
        <time>2015-09-27T09:45:16Z</time>
      </trkpt>
      <trkpt lat="47.99955" lon="1.92034">
        <ele>135.7</ele>
        <time>2015-09-27T09:45:17Z</time>
      </trkpt>
      <trkpt lat="47.99957" lon="1.92027">
        <ele>135.5</ele>
        <time>2015-09-27T09:45:18Z</time>
      </trkpt>
      <trkpt lat="47.99958" lon="1.9202">
        <ele>135.2</ele>
        <time>2015-09-27T09:45:19Z</time>
      </trkpt>
      <trkpt lat="47.99959" lon="1.92013">
        <ele>135</ele>
        <time>2015-09-27T09:45:20Z</time>
      </trkpt>
      <trkpt lat="47.9996" lon="1.92006">
        <ele>134.7</ele>
        <time>2015-09-27T09:45:21Z</time>
      </trkpt>
      <trkpt lat="47.99961" lon="1.91999">
        <ele>134.4</ele>
        <time>2015-09-27T09:45:22Z</time>
      </trkpt>
      <trkpt lat="47.99963" lon="1.91992">
        <ele>134.2</ele>
        <time>2015-09-27T09:45:23Z</time>
      </trkpt>
      <trkpt lat="47.99964" lon="1.91986">
        <ele>134</ele>
        <time>2015-09-27T09:45:24Z</time>
      </trkpt>
      <trkpt lat="47.99966" lon="1.91979">
        <ele>133.7</ele>
        <time>2015-09-27T09:45:25Z</time>
      </trkpt>
      <trkpt lat="47.99968" lon="1.91973">
        <ele>133.5</ele>
        <time>2015-09-27T09:45:26Z</time>
      </trkpt>
      <trkpt lat="47.99969" lon="1.91966">
        <ele>133.3</ele>
        <time>2015-09-27T09:45:27Z</time>
      </trkpt>
      <trkpt lat="47.99968" lon="1.91959">
        <ele>133</ele>
        <time>2015-09-27T09:45:28Z</time>
      </trkpt>
      <trkpt lat="47.99968" lon="1.91953">
        <ele>132.9</ele>
        <time>2015-09-27T09:45:29Z</time>
      </trkpt>
      <trkpt lat="47.99969" lon="1.91948">
        <ele>132.9</ele>
        <time>2015-09-27T09:45:30Z</time>
      </trkpt>
      <trkpt lat="47.99971" lon="1.91943">
        <ele>132.8</ele>
        <time>2015-09-27T09:45:31Z</time>
      </trkpt>
      <trkpt lat="47.99973" lon="1.91938">
        <ele>132.8</ele>
        <time>2015-09-27T09:45:32Z</time>
      </trkpt>
      <trkpt lat="47.99976" lon="1.91934">
        <ele>132.7</ele>
        <time>2015-09-27T09:45:33Z</time>
      </trkpt>
      <trkpt lat="47.9998" lon="1.91931">
        <ele>132.7</ele>
        <time>2015-09-27T09:45:34Z</time>
      </trkpt>
      <trkpt lat="47.99984" lon="1.9193">
        <ele>132.7</ele>
        <time>2015-09-27T09:45:35Z</time>
      </trkpt>
      <trkpt lat="47.99987" lon="1.91929">
        <ele>132.6</ele>
        <time>2015-09-27T09:45:36Z</time>
      </trkpt>
      <trkpt lat="47.99991" lon="1.91929">
        <ele>132.6</ele>
        <time>2015-09-27T09:45:37Z</time>
      </trkpt>
      <trkpt lat="47.99996" lon="1.9193">
        <ele>132.7</ele>
        <time>2015-09-27T09:45:38Z</time>
      </trkpt>
      <trkpt lat="48.00001" lon="1.91931">
        <ele>132.7</ele>
        <time>2015-09-27T09:45:39Z</time>
      </trkpt>
      <trkpt lat="48.00006" lon="1.91932">
        <ele>132.7</ele>
        <time>2015-09-27T09:45:40Z</time>
      </trkpt>
      <trkpt lat="48.00011" lon="1.91934">
        <ele>132.7</ele>
        <time>2015-09-27T09:45:41Z</time>
      </trkpt>
      <trkpt lat="48.00017" lon="1.91936">
        <ele>132.7</ele>
        <time>2015-09-27T09:45:42Z</time>
      </trkpt>
      <trkpt lat="48.00022" lon="1.91938">
        <ele>132.8</ele>
        <time>2015-09-27T09:45:43Z</time>
      </trkpt>
      <trkpt lat="48.00028" lon="1.9194">
        <ele>132.8</ele>
        <time>2015-09-27T09:45:44Z</time>
      </trkpt>
      <trkpt lat="48.00034" lon="1.91942">
        <ele>132.8</ele>
        <time>2015-09-27T09:45:45Z</time>
      </trkpt>
      <trkpt lat="48.00039" lon="1.91943">
        <ele>132.8</ele>
        <time>2015-09-27T09:45:46Z</time>
      </trkpt>
      <trkpt lat="48.00044" lon="1.91944">
        <ele>132.8</ele>
        <time>2015-09-27T09:45:47Z</time>
      </trkpt>
      <trkpt lat="48.00049" lon="1.91944">
        <ele>132.8</ele>
        <time>2015-09-27T09:45:48Z</time>
      </trkpt>
      <trkpt lat="48.00055" lon="1.91945">
        <ele>132.8</ele>
        <time>2015-09-27T09:45:49Z</time>
      </trkpt>
      <trkpt lat="48.0006" lon="1.91947">
        <ele>132.7</ele>
        <time>2015-09-27T09:45:50Z</time>
      </trkpt>
      <trkpt lat="48.00067" lon="1.91948">
        <ele>132.7</ele>
        <time>2015-09-27T09:45:51Z</time>
      </trkpt>
      <trkpt lat="48.00073" lon="1.91949">
        <ele>132.6</ele>
        <time>2015-09-27T09:45:52Z</time>
      </trkpt>
      <trkpt lat="48.00078" lon="1.9195">
        <ele>132.6</ele>
        <time>2015-09-27T09:45:53Z</time>
      </trkpt>
      <trkpt lat="48.00084" lon="1.91951">
        <ele>132.5</ele>
        <time>2015-09-27T09:45:54Z</time>
      </trkpt>
      <trkpt lat="48.0009" lon="1.91952">
        <ele>132.5</ele>
        <time>2015-09-27T09:45:55Z</time>
      </trkpt>
      <trkpt lat="48.00095" lon="1.91952">
        <ele>132.4</ele>
        <time>2015-09-27T09:45:56Z</time>
      </trkpt>
      <trkpt lat="48.00101" lon="1.91952">
        <ele>132.4</ele>
        <time>2015-09-27T09:45:57Z</time>
      </trkpt>
      <trkpt lat="48.00106" lon="1.91952">
        <ele>132.3</ele>
        <time>2015-09-27T09:45:58Z</time>
      </trkpt>
      <trkpt lat="48.0011" lon="1.91949">
        <ele>132.3</ele>
        <time>2015-09-27T09:45:59Z</time>
      </trkpt>
      <trkpt lat="48.00116" lon="1.91951">
        <ele>132.3</ele>
        <time>2015-09-27T09:46:00Z</time>
      </trkpt>
      <trkpt lat="48.0012" lon="1.91954">
        <ele>132.2</ele>
        <time>2015-09-27T09:46:01Z</time>
      </trkpt>
      <trkpt lat="48.00125" lon="1.91955">
        <ele>132.1</ele>
        <time>2015-09-27T09:46:02Z</time>
      </trkpt>
      <trkpt lat="48.0013" lon="1.91955">
        <ele>132.1</ele>
        <time>2015-09-27T09:46:03Z</time>
      </trkpt>
      <trkpt lat="48.00135" lon="1.91957">
        <ele>132.1</ele>
        <time>2015-09-27T09:46:04Z</time>
      </trkpt>
      <trkpt lat="48.00141" lon="1.91957">
        <ele>132.2</ele>
        <time>2015-09-27T09:46:05Z</time>
      </trkpt>
      <trkpt lat="48.00147" lon="1.9196">
        <ele>132.3</ele>
        <time>2015-09-27T09:46:06Z</time>
      </trkpt>
      <trkpt lat="48.00154" lon="1.91963">
        <ele>132.4</ele>
        <time>2015-09-27T09:46:07Z</time>
      </trkpt>
      <trkpt lat="48.00159" lon="1.91967">
        <ele>132.5</ele>
        <time>2015-09-27T09:46:08Z</time>
      </trkpt>
      <trkpt lat="48.00166" lon="1.91968">
        <ele>132.5</ele>
        <time>2015-09-27T09:46:09Z</time>
      </trkpt>
      <trkpt lat="48.00173" lon="1.91972">
        <ele>132.6</ele>
        <time>2015-09-27T09:46:10Z</time>
      </trkpt>
      <trkpt lat="48.00178" lon="1.91974">
        <ele>132.7</ele>
        <time>2015-09-27T09:46:11Z</time>
      </trkpt>
      <trkpt lat="48.00183" lon="1.91973">
        <ele>132.8</ele>
        <time>2015-09-27T09:46:12Z</time>
      </trkpt>
      <trkpt lat="48.00189" lon="1.91978">
        <ele>132.8</ele>
        <time>2015-09-27T09:46:13Z</time>
      </trkpt>
      <trkpt lat="48.00195" lon="1.91978">
        <ele>132.9</ele>
        <time>2015-09-27T09:46:14Z</time>
      </trkpt>
      <trkpt lat="48.00201" lon="1.91976">
        <ele>132.9</ele>
        <time>2015-09-27T09:46:15Z</time>
      </trkpt>
      <trkpt lat="48.00204" lon="1.9197">
        <ele>133</ele>
        <time>2015-09-27T09:46:16Z</time>
      </trkpt>
      <trkpt lat="48.0021" lon="1.91968">
        <ele>133</ele>
        <time>2015-09-27T09:46:17Z</time>
      </trkpt>
      <trkpt lat="48.00215" lon="1.91961">
        <ele>132.8</ele>
        <time>2015-09-27T09:46:18Z</time>
      </trkpt>
      <trkpt lat="48.00214" lon="1.9195">
        <ele>132.9</ele>
        <time>2015-09-27T09:46:19Z</time>
      </trkpt>
      <trkpt lat="48.0022" lon="1.91948">
        <ele>132.7</ele>
        <time>2015-09-27T09:46:20Z</time>
      </trkpt>
      <trkpt lat="48.0022" lon="1.91941">
        <ele>132.7</ele>
        <time>2015-09-27T09:46:21Z</time>
      </trkpt>
      <trkpt lat="48.00222" lon="1.91932">
        <ele>132.6</ele>
        <time>2015-09-27T09:46:22Z</time>
      </trkpt>
      <trkpt lat="48.00223" lon="1.91922">
        <ele>132.6</ele>
        <time>2015-09-27T09:46:23Z</time>
      </trkpt>
      <trkpt lat="48.00223" lon="1.91912">
        <ele>132.6</ele>
        <time>2015-09-27T09:46:24Z</time>
      </trkpt>
      <trkpt lat="48.00223" lon="1.91899">
        <ele>132.5</ele>
        <time>2015-09-27T09:46:25Z</time>
      </trkpt>
      <trkpt lat="48.00223" lon="1.91886">
        <ele>132.5</ele>
        <time>2015-09-27T09:46:26Z</time>
      </trkpt>
      <trkpt lat="48.00225" lon="1.91876">
        <ele>132.4</ele>
        <time>2015-09-27T09:46:27Z</time>
      </trkpt>
      <trkpt lat="48.00227" lon="1.9187">
        <ele>132.4</ele>
        <time>2015-09-27T09:46:28Z</time>
      </trkpt>
      <trkpt lat="48.00229" lon="1.9186">
        <ele>132.6</ele>
        <time>2015-09-27T09:46:29Z</time>
      </trkpt>
      <trkpt lat="48.00231" lon="1.91849">
        <ele>132.7</ele>
        <time>2015-09-27T09:46:30Z</time>
      </trkpt>
      <trkpt lat="48.00234" lon="1.91841">
        <ele>132.8</ele>
        <time>2015-09-27T09:46:31Z</time>
      </trkpt>
      <trkpt lat="48.00237" lon="1.91833">
        <ele>132.8</ele>
        <time>2015-09-27T09:46:32Z</time>
      </trkpt>
      <trkpt lat="48.00238" lon="1.91824">
        <ele>133</ele>
        <time>2015-09-27T09:46:33Z</time>
      </trkpt>
      <trkpt lat="48.00238" lon="1.91814">
        <ele>133.2</ele>
        <time>2015-09-27T09:46:34Z</time>
      </trkpt>
      <trkpt lat="48.00241" lon="1.91808">
        <ele>133.1</ele>
        <time>2015-09-27T09:46:35Z</time>
      </trkpt>
      <trkpt lat="48.00242" lon="1.91797">
        <ele>133.3</ele>
        <time>2015-09-27T09:46:36Z</time>
      </trkpt>
      <trkpt lat="48.00242" lon="1.91787">
        <ele>133.4</ele>
        <time>2015-09-27T09:46:37Z</time>
      </trkpt>
      <trkpt lat="48.00246" lon="1.91777">
        <ele>133.4</ele>
        <time>2015-09-27T09:46:38Z</time>
      </trkpt>
      <trkpt lat="48.00248" lon="1.91769">
        <ele>133.4</ele>
        <time>2015-09-27T09:46:39Z</time>
      </trkpt>
      <trkpt lat="48.0025" lon="1.91759">
        <ele>133.4</ele>
        <time>2015-09-27T09:46:40Z</time>
      </trkpt>
      <trkpt lat="48.00251" lon="1.9175">
        <ele>133.5</ele>
        <time>2015-09-27T09:46:41Z</time>
      </trkpt>
      <trkpt lat="48.00252" lon="1.91742">
        <ele>133.5</ele>
        <time>2015-09-27T09:46:42Z</time>
      </trkpt>
      <trkpt lat="48.00255" lon="1.91735">
        <ele>133.5</ele>
        <time>2015-09-27T09:46:43Z</time>
      </trkpt>
      <trkpt lat="48.00257" lon="1.91727">
        <ele>133.6</ele>
        <time>2015-09-27T09:46:44Z</time>
      </trkpt>
      <trkpt lat="48.00258" lon="1.9172">
        <ele>133.6</ele>
        <time>2015-09-27T09:46:45Z</time>
      </trkpt>
      <trkpt lat="48.0026" lon="1.91713">
        <ele>133.7</ele>
        <time>2015-09-27T09:46:46Z</time>
      </trkpt>
      <trkpt lat="48.0026" lon="1.91703">
        <ele>133.7</ele>
        <time>2015-09-27T09:46:47Z</time>
      </trkpt>
      <trkpt lat="48.00261" lon="1.91695">
        <ele>133.5</ele>
        <time>2015-09-27T09:46:48Z</time>
      </trkpt>
      <trkpt lat="48.00263" lon="1.91688">
        <ele>133.3</ele>
        <time>2015-09-27T09:46:49Z</time>
      </trkpt>
      <trkpt lat="48.00263" lon="1.91681">
        <ele>133.2</ele>
        <time>2015-09-27T09:46:50Z</time>
      </trkpt>
      <trkpt lat="48.00266" lon="1.91675">
        <ele>133.1</ele>
        <time>2015-09-27T09:46:51Z</time>
      </trkpt>
      <trkpt lat="48.00265" lon="1.91666">
        <ele>133</ele>
        <time>2015-09-27T09:46:52Z</time>
      </trkpt>
      <trkpt lat="48.00264" lon="1.91657">
        <ele>132.9</ele>
        <time>2015-09-27T09:46:53Z</time>
      </trkpt>
      <trkpt lat="48.00266" lon="1.91649">
        <ele>132.7</ele>
        <time>2015-09-27T09:46:54Z</time>
      </trkpt>
      <trkpt lat="48.00266" lon="1.91642">
        <ele>132.6</ele>
        <time>2015-09-27T09:46:55Z</time>
      </trkpt>
      <trkpt lat="48.00266" lon="1.91636">
        <ele>132.6</ele>
        <time>2015-09-27T09:46:56Z</time>
      </trkpt>
      <trkpt lat="48.0027" lon="1.9163">
        <ele>132.5</ele>
        <time>2015-09-27T09:46:57Z</time>
      </trkpt>
      <trkpt lat="48.0027" lon="1.91625">
        <ele>132.5</ele>
        <time>2015-09-27T09:46:58Z</time>
      </trkpt>
      <trkpt lat="48.00271" lon="1.91618">
        <ele>132.5</ele>
        <time>2015-09-27T09:46:59Z</time>
      </trkpt>
      <trkpt lat="48.00272" lon="1.91609">
        <ele>132.4</ele>
        <time>2015-09-27T09:47:00Z</time>
      </trkpt>
      <trkpt lat="48.00275" lon="1.91603">
        <ele>132.4</ele>
        <time>2015-09-27T09:47:01Z</time>
      </trkpt>
      <trkpt lat="48.00276" lon="1.91595">
        <ele>132.4</ele>
        <time>2015-09-27T09:47:02Z</time>
      </trkpt>
      <trkpt lat="48.00275" lon="1.91586">
        <ele>132.3</ele>
        <time>2015-09-27T09:47:03Z</time>
      </trkpt>
      <trkpt lat="48.00278" lon="1.9158">
        <ele>132.3</ele>
        <time>2015-09-27T09:47:04Z</time>
      </trkpt>
      <trkpt lat="48.00279" lon="1.91571">
        <ele>132.3</ele>
        <time>2015-09-27T09:47:05Z</time>
      </trkpt>
      <trkpt lat="48.0028" lon="1.91562">
        <ele>132.2</ele>
        <time>2015-09-27T09:47:06Z</time>
      </trkpt>
      <trkpt lat="48.00281" lon="1.91556">
        <ele>132.1</ele>
        <time>2015-09-27T09:47:07Z</time>
      </trkpt>
      <trkpt lat="48.00283" lon="1.91547">
        <ele>132</ele>
        <time>2015-09-27T09:47:08Z</time>
      </trkpt>
      <trkpt lat="48.00284" lon="1.91538">
        <ele>132</ele>
        <time>2015-09-27T09:47:09Z</time>
      </trkpt>
      <trkpt lat="48.00284" lon="1.91528">
        <ele>132</ele>
        <time>2015-09-27T09:47:10Z</time>
      </trkpt>
      <trkpt lat="48.00284" lon="1.91519">
        <ele>132</ele>
        <time>2015-09-27T09:47:11Z</time>
      </trkpt>
      <trkpt lat="48.00285" lon="1.9151">
        <ele>132.1</ele>
        <time>2015-09-27T09:47:12Z</time>
      </trkpt>
      <trkpt lat="48.0029" lon="1.91505">
        <ele>132</ele>
        <time>2015-09-27T09:47:13Z</time>
      </trkpt>
      <trkpt lat="48.00292" lon="1.91497">
        <ele>132</ele>
        <time>2015-09-27T09:47:14Z</time>
      </trkpt>
      <trkpt lat="48.00294" lon="1.91489">
        <ele>132</ele>
        <time>2015-09-27T09:47:15Z</time>
      </trkpt>
      <trkpt lat="48.00295" lon="1.91481">
        <ele>131.9</ele>
        <time>2015-09-27T09:47:16Z</time>
      </trkpt>
      <trkpt lat="48.00297" lon="1.91473">
        <ele>131.9</ele>
        <time>2015-09-27T09:47:17Z</time>
      </trkpt>
      <trkpt lat="48.00297" lon="1.91463">
        <ele>131.9</ele>
        <time>2015-09-27T09:47:18Z</time>
      </trkpt>
      <trkpt lat="48.00297" lon="1.91453">
        <ele>132</ele>
        <time>2015-09-27T09:47:19Z</time>
      </trkpt>
      <trkpt lat="48.00298" lon="1.91445">
        <ele>132</ele>
        <time>2015-09-27T09:47:20Z</time>
      </trkpt>
      <trkpt lat="48.00297" lon="1.91436">
        <ele>132.1</ele>
        <time>2015-09-27T09:47:21Z</time>
      </trkpt>
      <trkpt lat="48.00298" lon="1.91428">
        <ele>132.2</ele>
        <time>2015-09-27T09:47:22Z</time>
      </trkpt>
      <trkpt lat="48.00299" lon="1.91422">
        <ele>132.3</ele>
        <time>2015-09-27T09:47:23Z</time>
      </trkpt>
      <trkpt lat="48.00301" lon="1.91414">
        <ele>132.3</ele>
        <time>2015-09-27T09:47:24Z</time>
      </trkpt>
      <trkpt lat="48.00301" lon="1.91408">
        <ele>132.4</ele>
        <time>2015-09-27T09:47:25Z</time>
      </trkpt>
      <trkpt lat="48.00302" lon="1.914">
        <ele>132.4</ele>
        <time>2015-09-27T09:47:26Z</time>
      </trkpt>
      <trkpt lat="48.00303" lon="1.91393">
        <ele>132.5</ele>
        <time>2015-09-27T09:47:27Z</time>
      </trkpt>
      <trkpt lat="48.00306" lon="1.91388">
        <ele>132.5</ele>
        <time>2015-09-27T09:47:28Z</time>
      </trkpt>
      <trkpt lat="48.00308" lon="1.91381">
        <ele>132.5</ele>
        <time>2015-09-27T09:47:29Z</time>
      </trkpt>
      <trkpt lat="48.00308" lon="1.91374">
        <ele>132.6</ele>
        <time>2015-09-27T09:47:30Z</time>
      </trkpt>
      <trkpt lat="48.0031" lon="1.91367">
        <ele>132.6</ele>
        <time>2015-09-27T09:47:31Z</time>
      </trkpt>
      <trkpt lat="48.00311" lon="1.9136">
        <ele>132.5</ele>
        <time>2015-09-27T09:47:32Z</time>
      </trkpt>
      <trkpt lat="48.00312" lon="1.91352">
        <ele>132.5</ele>
        <time>2015-09-27T09:47:33Z</time>
      </trkpt>
      <trkpt lat="48.00313" lon="1.91345">
        <ele>132.5</ele>
        <time>2015-09-27T09:47:34Z</time>
      </trkpt>
      <trkpt lat="48.00314" lon="1.91337">
        <ele>132.5</ele>
        <time>2015-09-27T09:47:35Z</time>
      </trkpt>
      <trkpt lat="48.00315" lon="1.9133">
        <ele>132.4</ele>
        <time>2015-09-27T09:47:36Z</time>
      </trkpt>
      <trkpt lat="48.00316" lon="1.91324">
        <ele>132.4</ele>
        <time>2015-09-27T09:47:37Z</time>
      </trkpt>
      <trkpt lat="48.00318" lon="1.91317">
        <ele>132.4</ele>
        <time>2015-09-27T09:47:38Z</time>
      </trkpt>
      <trkpt lat="48.0032" lon="1.91312">
        <ele>132.3</ele>
        <time>2015-09-27T09:47:39Z</time>
      </trkpt>
      <trkpt lat="48.00321" lon="1.91304">
        <ele>132.3</ele>
        <time>2015-09-27T09:47:40Z</time>
      </trkpt>
      <trkpt lat="48.00322" lon="1.91297">
        <ele>132.3</ele>
        <time>2015-09-27T09:47:41Z</time>
      </trkpt>
      <trkpt lat="48.00322" lon="1.91288">
        <ele>132.3</ele>
        <time>2015-09-27T09:47:42Z</time>
      </trkpt>
      <trkpt lat="48.00323" lon="1.9128">
        <ele>132.3</ele>
        <time>2015-09-27T09:47:43Z</time>
      </trkpt>
      <trkpt lat="48.00323" lon="1.91271">
        <ele>132.3</ele>
        <time>2015-09-27T09:47:44Z</time>
      </trkpt>
      <trkpt lat="48.00324" lon="1.91264">
        <ele>132.3</ele>
        <time>2015-09-27T09:47:45Z</time>
      </trkpt>
      <trkpt lat="48.00326" lon="1.91257">
        <ele>132.3</ele>
        <time>2015-09-27T09:47:46Z</time>
      </trkpt>
      <trkpt lat="48.00326" lon="1.91247">
        <ele>132.3</ele>
        <time>2015-09-27T09:47:47Z</time>
      </trkpt>
      <trkpt lat="48.00326" lon="1.9124">
        <ele>132.3</ele>
        <time>2015-09-27T09:47:48Z</time>
      </trkpt>
      <trkpt lat="48.00328" lon="1.91234">
        <ele>132.2</ele>
        <time>2015-09-27T09:47:49Z</time>
      </trkpt>
      <trkpt lat="48.00329" lon="1.91226">
        <ele>132.2</ele>
        <time>2015-09-27T09:47:50Z</time>
      </trkpt>
      <trkpt lat="48.00332" lon="1.91219">
        <ele>132.1</ele>
        <time>2015-09-27T09:47:51Z</time>
      </trkpt>
      <trkpt lat="48.00332" lon="1.91212">
        <ele>132.1</ele>
        <time>2015-09-27T09:47:52Z</time>
      </trkpt>
      <trkpt lat="48.00334" lon="1.91205">
        <ele>132</ele>
        <time>2015-09-27T09:47:53Z</time>
      </trkpt>
      <trkpt lat="48.00335" lon="1.91197">
        <ele>132.1</ele>
        <time>2015-09-27T09:47:54Z</time>
      </trkpt>
      <trkpt lat="48.00336" lon="1.9119">
        <ele>132.2</ele>
        <time>2015-09-27T09:47:55Z</time>
      </trkpt>
      <trkpt lat="48.00338" lon="1.91184">
        <ele>132.3</ele>
        <time>2015-09-27T09:47:56Z</time>
      </trkpt>
      <trkpt lat="48.00341" lon="1.91176">
        <ele>132.3</ele>
        <time>2015-09-27T09:47:57Z</time>
      </trkpt>
      <trkpt lat="48.00345" lon="1.9117">
        <ele>132.3</ele>
        <time>2015-09-27T09:47:58Z</time>
      </trkpt>
      <trkpt lat="48.00348" lon="1.91167">
        <ele>132.3</ele>
        <time>2015-09-27T09:47:59Z</time>
      </trkpt>
      <trkpt lat="48.00352" lon="1.91165">
        <ele>132.2</ele>
        <time>2015-09-27T09:48:00Z</time>
      </trkpt>
      <trkpt lat="48.00357" lon="1.91163">
        <ele>132.1</ele>
        <time>2015-09-27T09:48:01Z</time>
      </trkpt>
      <trkpt lat="48.00362" lon="1.91163">
        <ele>132</ele>
        <time>2015-09-27T09:48:02Z</time>
      </trkpt>
      <trkpt lat="48.00368" lon="1.91162">
        <ele>131.9</ele>
        <time>2015-09-27T09:48:03Z</time>
      </trkpt>
      <trkpt lat="48.00372" lon="1.91161">
        <ele>131.8</ele>
        <time>2015-09-27T09:48:04Z</time>
      </trkpt>
      <trkpt lat="48.00378" lon="1.91161">
        <ele>131.7</ele>
        <time>2015-09-27T09:48:05Z</time>
      </trkpt>
      <trkpt lat="48.00384" lon="1.91162">
        <ele>131.8</ele>
        <time>2015-09-27T09:48:06Z</time>
      </trkpt>
      <trkpt lat="48.00388" lon="1.91162">
        <ele>131.8</ele>
        <time>2015-09-27T09:48:07Z</time>
      </trkpt>
      <trkpt lat="48.00393" lon="1.91163">
        <ele>131.8</ele>
        <time>2015-09-27T09:48:08Z</time>
      </trkpt>
      <trkpt lat="48.00397" lon="1.91162">
        <ele>131.9</ele>
        <time>2015-09-27T09:48:09Z</time>
      </trkpt>
      <trkpt lat="48.00402" lon="1.91163">
        <ele>131.9</ele>
        <time>2015-09-27T09:48:10Z</time>
      </trkpt>
      <trkpt lat="48.00407" lon="1.91162">
        <ele>132</ele>
        <time>2015-09-27T09:48:11Z</time>
      </trkpt>
      <trkpt lat="48.00413" lon="1.91166">
        <ele>132</ele>
        <time>2015-09-27T09:48:12Z</time>
      </trkpt>
      <trkpt lat="48.00417" lon="1.91167">
        <ele>132</ele>
        <time>2015-09-27T09:48:13Z</time>
      </trkpt>
      <trkpt lat="48.00421" lon="1.9117">
        <ele>132</ele>
        <time>2015-09-27T09:48:14Z</time>
      </trkpt>
      <trkpt lat="48.00425" lon="1.9117">
        <ele>132</ele>
        <time>2015-09-27T09:48:15Z</time>
      </trkpt>
      <trkpt lat="48.00431" lon="1.91174">
        <ele>132</ele>
        <time>2015-09-27T09:48:16Z</time>
      </trkpt>
      <trkpt lat="48.00436" lon="1.91175">
        <ele>132.1</ele>
        <time>2015-09-27T09:48:17Z</time>
      </trkpt>
      <trkpt lat="48.00439" lon="1.91176">
        <ele>132.1</ele>
        <time>2015-09-27T09:48:18Z</time>
      </trkpt>
      <trkpt lat="48.00443" lon="1.91177">
        <ele>132.1</ele>
        <time>2015-09-27T09:48:19Z</time>
      </trkpt>
      <trkpt lat="48.00447" lon="1.91179">
        <ele>132.2</ele>
        <time>2015-09-27T09:48:20Z</time>
      </trkpt>
      <trkpt lat="48.00453" lon="1.91181">
        <ele>132.2</ele>
        <time>2015-09-27T09:48:21Z</time>
      </trkpt>
      <trkpt lat="48.00457" lon="1.91182">
        <ele>132.3</ele>
        <time>2015-09-27T09:48:22Z</time>
      </trkpt>
      <trkpt lat="48.00462" lon="1.91185">
        <ele>132.3</ele>
        <time>2015-09-27T09:48:23Z</time>
      </trkpt>
      <trkpt lat="48.00468" lon="1.91189">
        <ele>132.3</ele>
        <time>2015-09-27T09:48:24Z</time>
      </trkpt>
      <trkpt lat="48.00472" lon="1.9119">
        <ele>132.4</ele>
        <time>2015-09-27T09:48:25Z</time>
      </trkpt>
      <trkpt lat="48.00477" lon="1.91194">
        <ele>132.4</ele>
        <time>2015-09-27T09:48:26Z</time>
      </trkpt>
      <trkpt lat="48.00482" lon="1.91195">
        <ele>132.4</ele>
        <time>2015-09-27T09:48:27Z</time>
      </trkpt>
      <trkpt lat="48.00486" lon="1.91197">
        <ele>132.4</ele>
        <time>2015-09-27T09:48:28Z</time>
      </trkpt>
      <trkpt lat="48.0049" lon="1.91199">
        <ele>132.4</ele>
        <time>2015-09-27T09:48:29Z</time>
      </trkpt>
      <trkpt lat="48.00494" lon="1.91201">
        <ele>132.5</ele>
        <time>2015-09-27T09:48:30Z</time>
      </trkpt>
      <trkpt lat="48.00497" lon="1.91201">
        <ele>132.5</ele>
        <time>2015-09-27T09:48:31Z</time>
      </trkpt>
      <trkpt lat="48.00501" lon="1.91203">
        <ele>132.5</ele>
        <time>2015-09-27T09:48:32Z</time>
      </trkpt>
      <trkpt lat="48.00506" lon="1.91206">
        <ele>132.6</ele>
        <time>2015-09-27T09:48:33Z</time>
      </trkpt>
      <trkpt lat="48.0051" lon="1.91207">
        <ele>132.6</ele>
        <time>2015-09-27T09:48:34Z</time>
      </trkpt>
      <trkpt lat="48.00514" lon="1.91209">
        <ele>132.7</ele>
        <time>2015-09-27T09:48:35Z</time>
      </trkpt>
      <trkpt lat="48.00518" lon="1.91211">
        <ele>132.7</ele>
        <time>2015-09-27T09:48:36Z</time>
      </trkpt>
      <trkpt lat="48.00522" lon="1.91215">
        <ele>132.8</ele>
        <time>2015-09-27T09:48:37Z</time>
      </trkpt>
      <trkpt lat="48.00526" lon="1.91217">
        <ele>132.8</ele>
        <time>2015-09-27T09:48:38Z</time>
      </trkpt>
      <trkpt lat="48.00531" lon="1.9122">
        <ele>132.9</ele>
        <time>2015-09-27T09:48:39Z</time>
      </trkpt>
      <trkpt lat="48.00535" lon="1.91223">
        <ele>132.9</ele>
        <time>2015-09-27T09:48:40Z</time>
      </trkpt>
      <trkpt lat="48.00539" lon="1.91225">
        <ele>133</ele>
        <time>2015-09-27T09:48:41Z</time>
      </trkpt>
      <trkpt lat="48.00543" lon="1.91228">
        <ele>133</ele>
        <time>2015-09-27T09:48:42Z</time>
      </trkpt>
      <trkpt lat="48.00547" lon="1.91232">
        <ele>133</ele>
        <time>2015-09-27T09:48:43Z</time>
      </trkpt>
      <trkpt lat="48.0055" lon="1.91235">
        <ele>133</ele>
        <time>2015-09-27T09:48:44Z</time>
      </trkpt>
      <trkpt lat="48.00554" lon="1.91237">
        <ele>132.9</ele>
        <time>2015-09-27T09:48:45Z</time>
      </trkpt>
      <trkpt lat="48.00558" lon="1.91239">
        <ele>132.9</ele>
        <time>2015-09-27T09:48:46Z</time>
      </trkpt>
      <trkpt lat="48.00561" lon="1.91241">
        <ele>132.9</ele>
        <time>2015-09-27T09:48:47Z</time>
      </trkpt>
      <trkpt lat="48.00566" lon="1.91239">
        <ele>132.9</ele>
        <time>2015-09-27T09:48:49Z</time>
      </trkpt>
      <trkpt lat="48.00569" lon="1.91237">
        <ele>132.9</ele>
        <time>2015-09-27T09:48:50Z</time>
      </trkpt>
      <trkpt lat="48.00572" lon="1.91234">
        <ele>132.9</ele>
        <time>2015-09-27T09:48:51Z</time>
      </trkpt>
      <trkpt lat="48.00576" lon="1.91232">
        <ele>132.9</ele>
        <time>2015-09-27T09:48:52Z</time>
      </trkpt>
      <trkpt lat="48.0058" lon="1.9123">
        <ele>132.9</ele>
        <time>2015-09-27T09:48:53Z</time>
      </trkpt>
      <trkpt lat="48.00584" lon="1.91229">
        <ele>132.9</ele>
        <time>2015-09-27T09:48:54Z</time>
      </trkpt>
      <trkpt lat="48.00588" lon="1.91227">
        <ele>132.9</ele>
        <time>2015-09-27T09:48:55Z</time>
      </trkpt>
      <trkpt lat="48.00592" lon="1.91225">
        <ele>132.9</ele>
        <time>2015-09-27T09:48:56Z</time>
      </trkpt>
      <trkpt lat="48.00596" lon="1.91224">
        <ele>132.9</ele>
        <time>2015-09-27T09:48:57Z</time>
      </trkpt>
      <trkpt lat="48.006" lon="1.91222">
        <ele>132.9</ele>
        <time>2015-09-27T09:48:58Z</time>
      </trkpt>
      <trkpt lat="48.00605" lon="1.91221">
        <ele>132.9</ele>
        <time>2015-09-27T09:48:59Z</time>
      </trkpt>
      <trkpt lat="48.00609" lon="1.91219">
        <ele>132.9</ele>
        <time>2015-09-27T09:49:00Z</time>
      </trkpt>
      <trkpt lat="48.00614" lon="1.91217">
        <ele>132.9</ele>
        <time>2015-09-27T09:49:01Z</time>
      </trkpt>
      <trkpt lat="48.00618" lon="1.91216">
        <ele>132.9</ele>
        <time>2015-09-27T09:49:02Z</time>
      </trkpt>
      <trkpt lat="48.00622" lon="1.91214">
        <ele>132.9</ele>
        <time>2015-09-27T09:49:03Z</time>
      </trkpt>
      <trkpt lat="48.00627" lon="1.91212">
        <ele>132.9</ele>
        <time>2015-09-27T09:49:04Z</time>
      </trkpt>
      <trkpt lat="48.00631" lon="1.91209">
        <ele>132.9</ele>
        <time>2015-09-27T09:49:05Z</time>
      </trkpt>
      <trkpt lat="48.00636" lon="1.91203">
        <ele>132.9</ele>
        <time>2015-09-27T09:49:06Z</time>
      </trkpt>
      <trkpt lat="48.0064" lon="1.91201">
        <ele>132.8</ele>
        <time>2015-09-27T09:49:07Z</time>
      </trkpt>
      <trkpt lat="48.00643" lon="1.91198">
        <ele>132.8</ele>
        <time>2015-09-27T09:49:08Z</time>
      </trkpt>
      <trkpt lat="48.00648" lon="1.91194">
        <ele>132.8</ele>
        <time>2015-09-27T09:49:09Z</time>
      </trkpt>
      <trkpt lat="48.00653" lon="1.9119">
        <ele>132.7</ele>
        <time>2015-09-27T09:49:10Z</time>
      </trkpt>
      <trkpt lat="48.0066" lon="1.91191">
        <ele>132.7</ele>
        <time>2015-09-27T09:49:11Z</time>
      </trkpt>
      <trkpt lat="48.00666" lon="1.9119">
        <ele>132.6</ele>
        <time>2015-09-27T09:49:12Z</time>
      </trkpt>
      <trkpt lat="48.00671" lon="1.91186">
        <ele>132.6</ele>
        <time>2015-09-27T09:49:13Z</time>
      </trkpt>
      <trkpt lat="48.00675" lon="1.91183">
        <ele>132.6</ele>
        <time>2015-09-27T09:49:14Z</time>
      </trkpt>
      <trkpt lat="48.0068" lon="1.91182">
        <ele>132.5</ele>
        <time>2015-09-27T09:49:15Z</time>
      </trkpt>
      <trkpt lat="48.00686" lon="1.91182">
        <ele>132.5</ele>
        <time>2015-09-27T09:49:16Z</time>
      </trkpt>
      <trkpt lat="48.00689" lon="1.91176">
        <ele>132.5</ele>
        <time>2015-09-27T09:49:17Z</time>
      </trkpt>
      <trkpt lat="48.00693" lon="1.91172">
        <ele>132.5</ele>
        <time>2015-09-27T09:49:18Z</time>
      </trkpt>
      <trkpt lat="48.00697" lon="1.91168">
        <ele>132.6</ele>
        <time>2015-09-27T09:49:19Z</time>
      </trkpt>
      <trkpt lat="48.00701" lon="1.91165">
        <ele>132.6</ele>
        <time>2015-09-27T09:49:20Z</time>
      </trkpt>
      <trkpt lat="48.00706" lon="1.91162">
        <ele>132.6</ele>
        <time>2015-09-27T09:49:21Z</time>
      </trkpt>
      <trkpt lat="48.00711" lon="1.91159">
        <ele>132.6</ele>
        <time>2015-09-27T09:49:22Z</time>
      </trkpt>
      <trkpt lat="48.00718" lon="1.91158">
        <ele>132.6</ele>
        <time>2015-09-27T09:49:23Z</time>
      </trkpt>
      <trkpt lat="48.00725" lon="1.91157">
        <ele>132.6</ele>
        <time>2015-09-27T09:49:24Z</time>
      </trkpt>
      <trkpt lat="48.00729" lon="1.91154">
        <ele>132.7</ele>
        <time>2015-09-27T09:49:25Z</time>
      </trkpt>
      <trkpt lat="48.00734" lon="1.91152">
        <ele>132.7</ele>
        <time>2015-09-27T09:49:26Z</time>
      </trkpt>
      <trkpt lat="48.00741" lon="1.91153">
        <ele>132.7</ele>
        <time>2015-09-27T09:49:27Z</time>
      </trkpt>
      <trkpt lat="48.00746" lon="1.91151">
        <ele>132.7</ele>
        <time>2015-09-27T09:49:28Z</time>
      </trkpt>
      <trkpt lat="48.00752" lon="1.9115">
        <ele>132.7</ele>
        <time>2015-09-27T09:49:29Z</time>
      </trkpt>
      <trkpt lat="48.00757" lon="1.91148">
        <ele>132.7</ele>
        <time>2015-09-27T09:49:30Z</time>
      </trkpt>
      <trkpt lat="48.00762" lon="1.91144">
        <ele>132.8</ele>
        <time>2015-09-27T09:49:31Z</time>
      </trkpt>
      <trkpt lat="48.00767" lon="1.91142">
        <ele>132.8</ele>
        <time>2015-09-27T09:49:32Z</time>
      </trkpt>
      <trkpt lat="48.00773" lon="1.9114">
        <ele>132.8</ele>
        <time>2015-09-27T09:49:33Z</time>
      </trkpt>
      <trkpt lat="48.00778" lon="1.91137">
        <ele>132.9</ele>
        <time>2015-09-27T09:49:34Z</time>
      </trkpt>
      <trkpt lat="48.00784" lon="1.91136">
        <ele>132.9</ele>
        <time>2015-09-27T09:49:35Z</time>
      </trkpt>
      <trkpt lat="48.00788" lon="1.91134">
        <ele>132.9</ele>
        <time>2015-09-27T09:49:36Z</time>
      </trkpt>
      <trkpt lat="48.00791" lon="1.91129">
        <ele>133</ele>
        <time>2015-09-27T09:49:37Z</time>
      </trkpt>
      <trkpt lat="48.00796" lon="1.91128">
        <ele>133</ele>
        <time>2015-09-27T09:49:38Z</time>
      </trkpt>
      <trkpt lat="48.00801" lon="1.91129">
        <ele>133</ele>
        <time>2015-09-27T09:49:39Z</time>
      </trkpt>
      <trkpt lat="48.00807" lon="1.91124">
        <ele>133</ele>
        <time>2015-09-27T09:49:40Z</time>
      </trkpt>
      <trkpt lat="48.00811" lon="1.91122">
        <ele>133</ele>
        <time>2015-09-27T09:49:41Z</time>
      </trkpt>
      <trkpt lat="48.00818" lon="1.91124">
        <ele>133</ele>
        <time>2015-09-27T09:49:42Z</time>
      </trkpt>
      <trkpt lat="48.00822" lon="1.91116">
        <ele>133</ele>
        <time>2015-09-27T09:49:43Z</time>
      </trkpt>
      <trkpt lat="48.00827" lon="1.91115">
        <ele>133</ele>
        <time>2015-09-27T09:49:44Z</time>
      </trkpt>
      <trkpt lat="48.00832" lon="1.91112">
        <ele>133</ele>
        <time>2015-09-27T09:49:45Z</time>
      </trkpt>
      <trkpt lat="48.00839" lon="1.91111">
        <ele>133</ele>
        <time>2015-09-27T09:49:46Z</time>
      </trkpt>
      <trkpt lat="48.00844" lon="1.91108">
        <ele>133</ele>
        <time>2015-09-27T09:49:47Z</time>
      </trkpt>
      <trkpt lat="48.00848" lon="1.91104">
        <ele>133</ele>
        <time>2015-09-27T09:49:48Z</time>
      </trkpt>
      <trkpt lat="48.00852" lon="1.91101">
        <ele>133</ele>
        <time>2015-09-27T09:49:49Z</time>
      </trkpt>
      <trkpt lat="48.00857" lon="1.91099">
        <ele>133</ele>
        <time>2015-09-27T09:49:50Z</time>
      </trkpt>
      <trkpt lat="48.00861" lon="1.91097">
        <ele>133</ele>
        <time>2015-09-27T09:49:51Z</time>
      </trkpt>
      <trkpt lat="48.00865" lon="1.91096">
        <ele>133</ele>
        <time>2015-09-27T09:49:52Z</time>
      </trkpt>
      <trkpt lat="48.0087" lon="1.91096">
        <ele>133</ele>
        <time>2015-09-27T09:49:53Z</time>
      </trkpt>
      <trkpt lat="48.00873" lon="1.91092">
        <ele>133</ele>
        <time>2015-09-27T09:49:54Z</time>
      </trkpt>
      <trkpt lat="48.00877" lon="1.91092">
        <ele>133</ele>
        <time>2015-09-27T09:49:55Z</time>
      </trkpt>
      <trkpt lat="48.00883" lon="1.9109">
        <ele>133.2</ele>
        <time>2015-09-27T09:49:56Z</time>
      </trkpt>
      <trkpt lat="48.00887" lon="1.91088">
        <ele>133.3</ele>
        <time>2015-09-27T09:49:57Z</time>
      </trkpt>
      <trkpt lat="48.00891" lon="1.91085">
        <ele>133.4</ele>
        <time>2015-09-27T09:49:58Z</time>
      </trkpt>
      <trkpt lat="48.00895" lon="1.91084">
        <ele>133.5</ele>
        <time>2015-09-27T09:49:59Z</time>
      </trkpt>
      <trkpt lat="48.00899" lon="1.91083">
        <ele>133.6</ele>
        <time>2015-09-27T09:50:00Z</time>
      </trkpt>
      <trkpt lat="48.00903" lon="1.9108">
        <ele>133.7</ele>
        <time>2015-09-27T09:50:01Z</time>
      </trkpt>
      <trkpt lat="48.00907" lon="1.91077">
        <ele>133.8</ele>
        <time>2015-09-27T09:50:02Z</time>
      </trkpt>
      <trkpt lat="48.00911" lon="1.91075">
        <ele>133.9</ele>
        <time>2015-09-27T09:50:03Z</time>
      </trkpt>
      <trkpt lat="48.00915" lon="1.91073">
        <ele>134</ele>
        <time>2015-09-27T09:50:04Z</time>
      </trkpt>
      <trkpt lat="48.00919" lon="1.91071">
        <ele>134</ele>
        <time>2015-09-27T09:50:05Z</time>
      </trkpt>
      <trkpt lat="48.00922" lon="1.91068">
        <ele>134.1</ele>
        <time>2015-09-27T09:50:06Z</time>
      </trkpt>
      <trkpt lat="48.00926" lon="1.91067">
        <ele>134.2</ele>
        <time>2015-09-27T09:50:07Z</time>
      </trkpt>
      <trkpt lat="48.0093" lon="1.91065">
        <ele>134.3</ele>
        <time>2015-09-27T09:50:08Z</time>
      </trkpt>
      <trkpt lat="48.00934" lon="1.91065">
        <ele>134.4</ele>
        <time>2015-09-27T09:50:09Z</time>
      </trkpt>
      <trkpt lat="48.00938" lon="1.91063">
        <ele>134.5</ele>
        <time>2015-09-27T09:50:10Z</time>
      </trkpt>
      <trkpt lat="48.00942" lon="1.91061">
        <ele>134.6</ele>
        <time>2015-09-27T09:50:11Z</time>
      </trkpt>
      <trkpt lat="48.00946" lon="1.91059">
        <ele>134.7</ele>
        <time>2015-09-27T09:50:12Z</time>
      </trkpt>
      <trkpt lat="48.0095" lon="1.91057">
        <ele>134.8</ele>
        <time>2015-09-27T09:50:13Z</time>
      </trkpt>
      <trkpt lat="48.00953" lon="1.91054">
        <ele>134.9</ele>
        <time>2015-09-27T09:50:14Z</time>
      </trkpt>
      <trkpt lat="48.00957" lon="1.91052">
        <ele>135</ele>
        <time>2015-09-27T09:50:15Z</time>
      </trkpt>
      <trkpt lat="48.00961" lon="1.91051">
        <ele>135</ele>
        <time>2015-09-27T09:50:16Z</time>
      </trkpt>
      <trkpt lat="48.00965" lon="1.91049">
        <ele>134.9</ele>
        <time>2015-09-27T09:50:17Z</time>
      </trkpt>
      <trkpt lat="48.0097" lon="1.91047">
        <ele>134.9</ele>
        <time>2015-09-27T09:50:18Z</time>
      </trkpt>
      <trkpt lat="48.00974" lon="1.91045">
        <ele>134.8</ele>
        <time>2015-09-27T09:50:19Z</time>
      </trkpt>
      <trkpt lat="48.00978" lon="1.91043">
        <ele>134.8</ele>
        <time>2015-09-27T09:50:20Z</time>
      </trkpt>
      <trkpt lat="48.00983" lon="1.91038">
        <ele>134.7</ele>
        <time>2015-09-27T09:50:21Z</time>
      </trkpt>
      <trkpt lat="48.00987" lon="1.91037">
        <ele>134.7</ele>
        <time>2015-09-27T09:50:22Z</time>
      </trkpt>
      <trkpt lat="48.00991" lon="1.91035">
        <ele>134.6</ele>
        <time>2015-09-27T09:50:23Z</time>
      </trkpt>
      <trkpt lat="48.00996" lon="1.91033">
        <ele>134.6</ele>
        <time>2015-09-27T09:50:24Z</time>
      </trkpt>
      <trkpt lat="48.01" lon="1.9103">
        <ele>134.6</ele>
        <time>2015-09-27T09:50:25Z</time>
      </trkpt>
      <trkpt lat="48.01004" lon="1.91027">
        <ele>134.5</ele>
        <time>2015-09-27T09:50:26Z</time>
      </trkpt>
      <trkpt lat="48.01009" lon="1.91024">
        <ele>134.5</ele>
        <time>2015-09-27T09:50:27Z</time>
      </trkpt>
      <trkpt lat="48.01013" lon="1.9102">
        <ele>134.5</ele>
        <time>2015-09-27T09:50:28Z</time>
      </trkpt>
      <trkpt lat="48.01018" lon="1.91018">
        <ele>134.5</ele>
        <time>2015-09-27T09:50:29Z</time>
      </trkpt>
      <trkpt lat="48.01022" lon="1.91015">
        <ele>134.5</ele>
        <time>2015-09-27T09:50:30Z</time>
      </trkpt>
      <trkpt lat="48.01028" lon="1.91011">
        <ele>134.5</ele>
        <time>2015-09-27T09:50:31Z</time>
      </trkpt>
      <trkpt lat="48.01035" lon="1.91009">
        <ele>134.4</ele>
        <time>2015-09-27T09:50:32Z</time>
      </trkpt>
      <trkpt lat="48.0104" lon="1.91008">
        <ele>134.4</ele>
        <time>2015-09-27T09:50:33Z</time>
      </trkpt>
      <trkpt lat="48.01044" lon="1.91006">
        <ele>134.4</ele>
        <time>2015-09-27T09:50:34Z</time>
      </trkpt>
      <trkpt lat="48.01049" lon="1.91003">
        <ele>134.2</ele>
        <time>2015-09-27T09:50:35Z</time>
      </trkpt>
      <trkpt lat="48.01055" lon="1.91001">
        <ele>134.1</ele>
        <time>2015-09-27T09:50:36Z</time>
      </trkpt>
      <trkpt lat="48.01058" lon="1.90997">
        <ele>134.1</ele>
        <time>2015-09-27T09:50:37Z</time>
      </trkpt>
      <trkpt lat="48.01063" lon="1.90994">
        <ele>134</ele>
        <time>2015-09-27T09:50:38Z</time>
      </trkpt>
      <trkpt lat="48.01068" lon="1.90991">
        <ele>133.9</ele>
        <time>2015-09-27T09:50:39Z</time>
      </trkpt>
      <trkpt lat="48.01073" lon="1.90989">
        <ele>133.7</ele>
        <time>2015-09-27T09:50:40Z</time>
      </trkpt>
      <trkpt lat="48.01078" lon="1.90986">
        <ele>133.6</ele>
        <time>2015-09-27T09:50:41Z</time>
      </trkpt>
      <trkpt lat="48.01084" lon="1.90984">
        <ele>133.5</ele>
        <time>2015-09-27T09:50:42Z</time>
      </trkpt>
      <trkpt lat="48.01088" lon="1.90982">
        <ele>133.4</ele>
        <time>2015-09-27T09:50:43Z</time>
      </trkpt>
      <trkpt lat="48.01094" lon="1.90979">
        <ele>133.3</ele>
        <time>2015-09-27T09:50:44Z</time>
      </trkpt>
      <trkpt lat="48.01099" lon="1.90976">
        <ele>133.3</ele>
        <time>2015-09-27T09:50:45Z</time>
      </trkpt>
      <trkpt lat="48.01104" lon="1.90973">
        <ele>133.2</ele>
        <time>2015-09-27T09:50:46Z</time>
      </trkpt>
      <trkpt lat="48.01108" lon="1.9097">
        <ele>133.1</ele>
        <time>2015-09-27T09:50:47Z</time>
      </trkpt>
      <trkpt lat="48.01114" lon="1.90967">
        <ele>133.1</ele>
        <time>2015-09-27T09:50:48Z</time>
      </trkpt>
      <trkpt lat="48.01119" lon="1.90964">
        <ele>133</ele>
        <time>2015-09-27T09:50:49Z</time>
      </trkpt>
      <trkpt lat="48.01124" lon="1.90961">
        <ele>133</ele>
        <time>2015-09-27T09:50:50Z</time>
      </trkpt>
      <trkpt lat="48.01129" lon="1.90958">
        <ele>132.9</ele>
        <time>2015-09-27T09:50:51Z</time>
      </trkpt>
      <trkpt lat="48.01134" lon="1.90955">
        <ele>132.9</ele>
        <time>2015-09-27T09:50:52Z</time>
      </trkpt>
      <trkpt lat="48.01139" lon="1.90951">
        <ele>132.9</ele>
        <time>2015-09-27T09:50:53Z</time>
      </trkpt>
      <trkpt lat="48.01146" lon="1.9095">
        <ele>132.8</ele>
        <time>2015-09-27T09:50:54Z</time>
      </trkpt>
      <trkpt lat="48.0115" lon="1.90946">
        <ele>132.8</ele>
        <time>2015-09-27T09:50:55Z</time>
      </trkpt>
      <trkpt lat="48.01156" lon="1.90947">
        <ele>132.7</ele>
        <time>2015-09-27T09:50:56Z</time>
      </trkpt>
      <trkpt lat="48.01162" lon="1.90944">
        <ele>132.6</ele>
        <time>2015-09-27T09:50:57Z</time>
      </trkpt>
      <trkpt lat="48.01166" lon="1.90942">
        <ele>132.6</ele>
        <time>2015-09-27T09:50:58Z</time>
      </trkpt>
      <trkpt lat="48.01172" lon="1.9094">
        <ele>132.6</ele>
        <time>2015-09-27T09:50:59Z</time>
      </trkpt>
      <trkpt lat="48.01176" lon="1.90938">
        <ele>132.5</ele>
        <time>2015-09-27T09:51:00Z</time>
      </trkpt>
      <trkpt lat="48.01183" lon="1.90936">
        <ele>132.4</ele>
        <time>2015-09-27T09:51:01Z</time>
      </trkpt>
      <trkpt lat="48.01187" lon="1.90934">
        <ele>132.4</ele>
        <time>2015-09-27T09:51:02Z</time>
      </trkpt>
      <trkpt lat="48.01193" lon="1.90933">
        <ele>132.3</ele>
        <time>2015-09-27T09:51:03Z</time>
      </trkpt>
      <trkpt lat="48.01198" lon="1.9093">
        <ele>132.3</ele>
        <time>2015-09-27T09:51:04Z</time>
      </trkpt>
      <trkpt lat="48.01204" lon="1.9093">
        <ele>132.1</ele>
        <time>2015-09-27T09:51:05Z</time>
      </trkpt>
      <trkpt lat="48.01209" lon="1.90926">
        <ele>132.2</ele>
        <time>2015-09-27T09:51:06Z</time>
      </trkpt>
      <trkpt lat="48.01216" lon="1.90923">
        <ele>132.4</ele>
        <time>2015-09-27T09:51:07Z</time>
      </trkpt>
      <trkpt lat="48.01223" lon="1.90924">
        <ele>132.6</ele>
        <time>2015-09-27T09:51:08Z</time>
      </trkpt>
      <trkpt lat="48.01227" lon="1.9092">
        <ele>132.8</ele>
        <time>2015-09-27T09:51:09Z</time>
      </trkpt>
      <trkpt lat="48.01233" lon="1.90915">
        <ele>133.1</ele>
        <time>2015-09-27T09:51:10Z</time>
      </trkpt>
      <trkpt lat="48.01237" lon="1.9091">
        <ele>133.4</ele>
        <time>2015-09-27T09:51:11Z</time>
      </trkpt>
      <trkpt lat="48.01242" lon="1.90908">
        <ele>133.6</ele>
        <time>2015-09-27T09:51:12Z</time>
      </trkpt>
      <trkpt lat="48.01248" lon="1.90908">
        <ele>133.8</ele>
        <time>2015-09-27T09:51:13Z</time>
      </trkpt>
      <trkpt lat="48.01252" lon="1.90904">
        <ele>134</ele>
        <time>2015-09-27T09:51:14Z</time>
      </trkpt>
      <trkpt lat="48.01258" lon="1.90903">
        <ele>134.2</ele>
        <time>2015-09-27T09:51:15Z</time>
      </trkpt>
      <trkpt lat="48.01263" lon="1.909">
        <ele>134.4</ele>
        <time>2015-09-27T09:51:16Z</time>
      </trkpt>
      <trkpt lat="48.01269" lon="1.90897">
        <ele>134.7</ele>
        <time>2015-09-27T09:51:17Z</time>
      </trkpt>
      <trkpt lat="48.01273" lon="1.90895">
        <ele>134.8</ele>
        <time>2015-09-27T09:51:18Z</time>
      </trkpt>
      <trkpt lat="48.01277" lon="1.90892">
        <ele>135</ele>
        <time>2015-09-27T09:51:19Z</time>
      </trkpt>
      <trkpt lat="48.01283" lon="1.90893">
        <ele>135.2</ele>
        <time>2015-09-27T09:51:20Z</time>
      </trkpt>
      <trkpt lat="48.01288" lon="1.90891">
        <ele>135.3</ele>
        <time>2015-09-27T09:51:21Z</time>
      </trkpt>
      <trkpt lat="48.01291" lon="1.90887">
        <ele>135.6</ele>
        <time>2015-09-27T09:51:22Z</time>
      </trkpt>
      <trkpt lat="48.01294" lon="1.90883">
        <ele>135.7</ele>
        <time>2015-09-27T09:51:23Z</time>
      </trkpt>
      <trkpt lat="48.01297" lon="1.90882">
        <ele>135.7</ele>
        <time>2015-09-27T09:51:24Z</time>
      </trkpt>
      <trkpt lat="48.01301" lon="1.90881">
        <ele>135.7</ele>
        <time>2015-09-27T09:51:25Z</time>
      </trkpt>
      <trkpt lat="48.01304" lon="1.90878">
        <ele>135.8</ele>
        <time>2015-09-27T09:51:26Z</time>
      </trkpt>
      <trkpt lat="48.01308" lon="1.90875">
        <ele>135.8</ele>
        <time>2015-09-27T09:51:27Z</time>
      </trkpt>
      <trkpt lat="48.01312" lon="1.90871">
        <ele>135.8</ele>
        <time>2015-09-27T09:51:28Z</time>
      </trkpt>
      <trkpt lat="48.01316" lon="1.90867">
        <ele>135.7</ele>
        <time>2015-09-27T09:51:29Z</time>
      </trkpt>
      <trkpt lat="48.01319" lon="1.90863">
        <ele>135.7</ele>
        <time>2015-09-27T09:51:30Z</time>
      </trkpt>
      <trkpt lat="48.01322" lon="1.9086">
        <ele>135.7</ele>
        <time>2015-09-27T09:51:31Z</time>
      </trkpt>
      <trkpt lat="48.01325" lon="1.90858">
        <ele>135.7</ele>
        <time>2015-09-27T09:51:32Z</time>
      </trkpt>
      <trkpt lat="48.01328" lon="1.90855">
        <ele>135.7</ele>
        <time>2015-09-27T09:51:33Z</time>
      </trkpt>
      <trkpt lat="48.01333" lon="1.90852">
        <ele>135.6</ele>
        <time>2015-09-27T09:51:34Z</time>
      </trkpt>
      <trkpt lat="48.01338" lon="1.9085">
        <ele>135.6</ele>
        <time>2015-09-27T09:51:35Z</time>
      </trkpt>
      <trkpt lat="48.01342" lon="1.90848">
        <ele>135.6</ele>
        <time>2015-09-27T09:51:36Z</time>
      </trkpt>
      <trkpt lat="48.01347" lon="1.90841">
        <ele>135.6</ele>
        <time>2015-09-27T09:51:37Z</time>
      </trkpt>
      <trkpt lat="48.01352" lon="1.9084">
        <ele>135.6</ele>
        <time>2015-09-27T09:51:38Z</time>
      </trkpt>
      <trkpt lat="48.01357" lon="1.90831">
        <ele>135.6</ele>
        <time>2015-09-27T09:51:39Z</time>
      </trkpt>
      <trkpt lat="48.01362" lon="1.90827">
        <ele>135.6</ele>
        <time>2015-09-27T09:51:40Z</time>
      </trkpt>
      <trkpt lat="48.01368" lon="1.90825">
        <ele>135.6</ele>
        <time>2015-09-27T09:51:41Z</time>
      </trkpt>
      <trkpt lat="48.01373" lon="1.9082">
        <ele>135.7</ele>
        <time>2015-09-27T09:51:42Z</time>
      </trkpt>
      <trkpt lat="48.01376" lon="1.90816">
        <ele>135.7</ele>
        <time>2015-09-27T09:51:43Z</time>
      </trkpt>
      <trkpt lat="48.0138" lon="1.90806">
        <ele>135.7</ele>
        <time>2015-09-27T09:51:44Z</time>
      </trkpt>
      <trkpt lat="48.01384" lon="1.90799">
        <ele>135.7</ele>
        <time>2015-09-27T09:51:45Z</time>
      </trkpt>
      <trkpt lat="48.01389" lon="1.90793">
        <ele>135.6</ele>
        <time>2015-09-27T09:51:46Z</time>
      </trkpt>
      <trkpt lat="48.01395" lon="1.9079">
        <ele>135.5</ele>
        <time>2015-09-27T09:51:47Z</time>
      </trkpt>
      <trkpt lat="48.01406" lon="1.90793">
        <ele>135.3</ele>
        <time>2015-09-27T09:51:48Z</time>
      </trkpt>
      <trkpt lat="48.01413" lon="1.90791">
        <ele>135.1</ele>
        <time>2015-09-27T09:51:49Z</time>
      </trkpt>
      <trkpt lat="48.0142" lon="1.90787">
        <ele>135</ele>
        <time>2015-09-27T09:51:50Z</time>
      </trkpt>
      <trkpt lat="48.01426" lon="1.90782">
        <ele>134.9</ele>
        <time>2015-09-27T09:51:51Z</time>
      </trkpt>
      <trkpt lat="48.01429" lon="1.90776">
        <ele>135</ele>
        <time>2015-09-27T09:51:52Z</time>
      </trkpt>
      <trkpt lat="48.01435" lon="1.90772">
        <ele>134.9</ele>
        <time>2015-09-27T09:51:53Z</time>
      </trkpt>
      <trkpt lat="48.01439" lon="1.90764">
        <ele>135</ele>
        <time>2015-09-27T09:51:54Z</time>
      </trkpt>
      <trkpt lat="48.01444" lon="1.90759">
        <ele>135</ele>
        <time>2015-09-27T09:51:55Z</time>
      </trkpt>
      <trkpt lat="48.01449" lon="1.90755">
        <ele>135</ele>
        <time>2015-09-27T09:51:56Z</time>
      </trkpt>
      <trkpt lat="48.01456" lon="1.90753">
        <ele>134.9</ele>
        <time>2015-09-27T09:51:57Z</time>
      </trkpt>
      <trkpt lat="48.01464" lon="1.90749">
        <ele>135</ele>
        <time>2015-09-27T09:51:58Z</time>
      </trkpt>
      <trkpt lat="48.01468" lon="1.90742">
        <ele>135</ele>
        <time>2015-09-27T09:51:59Z</time>
      </trkpt>
      <trkpt lat="48.01472" lon="1.90735">
        <ele>135.1</ele>
        <time>2015-09-27T09:52:00Z</time>
      </trkpt>
      <trkpt lat="48.01478" lon="1.90732">
        <ele>135</ele>
        <time>2015-09-27T09:52:01Z</time>
      </trkpt>
      <trkpt lat="48.01483" lon="1.90725">
        <ele>134.9</ele>
        <time>2015-09-27T09:52:02Z</time>
      </trkpt>
      <trkpt lat="48.01489" lon="1.90721">
        <ele>134.8</ele>
        <time>2015-09-27T09:52:03Z</time>
      </trkpt>
      <trkpt lat="48.01496" lon="1.9072">
        <ele>134.6</ele>
        <time>2015-09-27T09:52:04Z</time>
      </trkpt>
      <trkpt lat="48.01501" lon="1.90716">
        <ele>134.5</ele>
        <time>2015-09-27T09:52:05Z</time>
      </trkpt>
      <trkpt lat="48.01509" lon="1.90715">
        <ele>134.2</ele>
        <time>2015-09-27T09:52:06Z</time>
      </trkpt>
      <trkpt lat="48.01516" lon="1.90714">
        <ele>134</ele>
        <time>2015-09-27T09:52:07Z</time>
      </trkpt>
      <trkpt lat="48.01522" lon="1.90709">
        <ele>133.7</ele>
        <time>2015-09-27T09:52:08Z</time>
      </trkpt>
      <trkpt lat="48.01526" lon="1.90704">
        <ele>133.7</ele>
        <time>2015-09-27T09:52:09Z</time>
      </trkpt>
      <trkpt lat="48.0153" lon="1.90697">
        <ele>133.7</ele>
        <time>2015-09-27T09:52:10Z</time>
      </trkpt>
      <trkpt lat="48.01535" lon="1.90692">
        <ele>133.6</ele>
        <time>2015-09-27T09:52:11Z</time>
      </trkpt>
      <trkpt lat="48.0154" lon="1.90687">
        <ele>133.6</ele>
        <time>2015-09-27T09:52:12Z</time>
      </trkpt>
      <trkpt lat="48.01545" lon="1.9068">
        <ele>133.7</ele>
        <time>2015-09-27T09:52:13Z</time>
      </trkpt>
      <trkpt lat="48.01549" lon="1.90675">
        <ele>133.8</ele>
        <time>2015-09-27T09:52:14Z</time>
      </trkpt>
      <trkpt lat="48.01555" lon="1.90675">
        <ele>133.8</ele>
        <time>2015-09-27T09:52:15Z</time>
      </trkpt>
      <trkpt lat="48.01562" lon="1.90671">
        <ele>133.9</ele>
        <time>2015-09-27T09:52:16Z</time>
      </trkpt>
      <trkpt lat="48.01566" lon="1.90665">
        <ele>134</ele>
        <time>2015-09-27T09:52:17Z</time>
      </trkpt>
      <trkpt lat="48.01571" lon="1.90661">
        <ele>134.1</ele>
        <time>2015-09-27T09:52:18Z</time>
      </trkpt>
      <trkpt lat="48.01576" lon="1.90659">
        <ele>134.1</ele>
        <time>2015-09-27T09:52:19Z</time>
      </trkpt>
      <trkpt lat="48.01578" lon="1.90652">
        <ele>134.2</ele>
        <time>2015-09-27T09:52:20Z</time>
      </trkpt>
      <trkpt lat="48.01582" lon="1.90652">
        <ele>134.2</ele>
        <time>2015-09-27T09:52:21Z</time>
      </trkpt>
      <trkpt lat="48.01584" lon="1.90642">
        <ele>134.3</ele>
        <time>2015-09-27T09:52:22Z</time>
      </trkpt>
      <trkpt lat="48.01588" lon="1.9064">
        <ele>134.3</ele>
        <time>2015-09-27T09:52:23Z</time>
      </trkpt>
      <trkpt lat="48.01593" lon="1.90633">
        <ele>134.3</ele>
        <time>2015-09-27T09:52:24Z</time>
      </trkpt>
      <trkpt lat="48.01595" lon="1.90627">
        <ele>134.3</ele>
        <time>2015-09-27T09:52:25Z</time>
      </trkpt>
      <trkpt lat="48.01599" lon="1.90625">
        <ele>134.3</ele>
        <time>2015-09-27T09:52:26Z</time>
      </trkpt>
      <trkpt lat="48.01605" lon="1.9062">
        <ele>134.3</ele>
        <time>2015-09-27T09:52:27Z</time>
      </trkpt>
      <trkpt lat="48.01609" lon="1.90615">
        <ele>134.3</ele>
        <time>2015-09-27T09:52:28Z</time>
      </trkpt>
      <trkpt lat="48.01613" lon="1.90614">
        <ele>134.2</ele>
        <time>2015-09-27T09:52:29Z</time>
      </trkpt>
      <trkpt lat="48.01618" lon="1.90607">
        <ele>134.3</ele>
        <time>2015-09-27T09:52:30Z</time>
      </trkpt>
      <trkpt lat="48.01622" lon="1.90602">
        <ele>134.3</ele>
        <time>2015-09-27T09:52:31Z</time>
      </trkpt>
      <trkpt lat="48.01629" lon="1.90603">
        <ele>134.2</ele>
        <time>2015-09-27T09:52:32Z</time>
      </trkpt>
      <trkpt lat="48.01632" lon="1.90597">
        <ele>134.3</ele>
        <time>2015-09-27T09:52:33Z</time>
      </trkpt>
      <trkpt lat="48.01636" lon="1.90593">
        <ele>134.3</ele>
        <time>2015-09-27T09:52:34Z</time>
      </trkpt>
      <trkpt lat="48.0164" lon="1.90588">
        <ele>134.3</ele>
        <time>2015-09-27T09:52:35Z</time>
      </trkpt>
      <trkpt lat="48.01645" lon="1.90586">
        <ele>134.2</ele>
        <time>2015-09-27T09:52:36Z</time>
      </trkpt>
      <trkpt lat="48.01648" lon="1.9058">
        <ele>134.3</ele>
        <time>2015-09-27T09:52:37Z</time>
      </trkpt>
      <trkpt lat="48.01654" lon="1.90579">
        <ele>134.2</ele>
        <time>2015-09-27T09:52:38Z</time>
      </trkpt>
      <trkpt lat="48.01659" lon="1.90578">
        <ele>134.2</ele>
        <time>2015-09-27T09:52:39Z</time>
      </trkpt>
      <trkpt lat="48.01665" lon="1.90579">
        <ele>134.1</ele>
        <time>2015-09-27T09:52:40Z</time>
      </trkpt>
      <trkpt lat="48.0167" lon="1.90577">
        <ele>134</ele>
        <time>2015-09-27T09:52:41Z</time>
      </trkpt>
      <trkpt lat="48.01674" lon="1.90574">
        <ele>134</ele>
        <time>2015-09-27T09:52:42Z</time>
      </trkpt>
      <trkpt lat="48.01678" lon="1.9057">
        <ele>134</ele>
        <time>2015-09-27T09:52:43Z</time>
      </trkpt>
      <trkpt lat="48.01684" lon="1.90568">
        <ele>134</ele>
        <time>2015-09-27T09:52:44Z</time>
      </trkpt>
      <trkpt lat="48.01687" lon="1.90562">
        <ele>134</ele>
        <time>2015-09-27T09:52:45Z</time>
      </trkpt>
      <trkpt lat="48.01691" lon="1.90556">
        <ele>134</ele>
        <time>2015-09-27T09:52:46Z</time>
      </trkpt>
      <trkpt lat="48.01697" lon="1.90553">
        <ele>134</ele>
        <time>2015-09-27T09:52:47Z</time>
      </trkpt>
      <trkpt lat="48.01704" lon="1.90548">
        <ele>134</ele>
        <time>2015-09-27T09:52:48Z</time>
      </trkpt>
      <trkpt lat="48.01709" lon="1.90544">
        <ele>134</ele>
        <time>2015-09-27T09:52:49Z</time>
      </trkpt>
      <trkpt lat="48.01713" lon="1.90538">
        <ele>133.7</ele>
        <time>2015-09-27T09:52:50Z</time>
      </trkpt>
      <trkpt lat="48.01716" lon="1.90532">
        <ele>133.4</ele>
        <time>2015-09-27T09:52:51Z</time>
      </trkpt>
      <trkpt lat="48.01719" lon="1.90528">
        <ele>133.2</ele>
        <time>2015-09-27T09:52:52Z</time>
      </trkpt>
      <trkpt lat="48.01724" lon="1.90523">
        <ele>132.9</ele>
        <time>2015-09-27T09:52:53Z</time>
      </trkpt>
      <trkpt lat="48.01729" lon="1.90518">
        <ele>132.6</ele>
        <time>2015-09-27T09:52:54Z</time>
      </trkpt>
      <trkpt lat="48.01733" lon="1.90514">
        <ele>132.4</ele>
        <time>2015-09-27T09:52:55Z</time>
      </trkpt>
      <trkpt lat="48.01738" lon="1.90511">
        <ele>132.1</ele>
        <time>2015-09-27T09:52:56Z</time>
      </trkpt>
      <trkpt lat="48.01743" lon="1.90508">
        <ele>131.9</ele>
        <time>2015-09-27T09:52:57Z</time>
      </trkpt>
      <trkpt lat="48.01747" lon="1.90504">
        <ele>131.7</ele>
        <time>2015-09-27T09:52:58Z</time>
      </trkpt>
      <trkpt lat="48.01751" lon="1.905">
        <ele>131.5</ele>
        <time>2015-09-27T09:52:59Z</time>
      </trkpt>
      <trkpt lat="48.01755" lon="1.90496">
        <ele>131.3</ele>
        <time>2015-09-27T09:53:00Z</time>
      </trkpt>
      <trkpt lat="48.01759" lon="1.90492">
        <ele>131.1</ele>
        <time>2015-09-27T09:53:01Z</time>
      </trkpt>
      <trkpt lat="48.01764" lon="1.90488">
        <ele>130.9</ele>
        <time>2015-09-27T09:53:02Z</time>
      </trkpt>
      <trkpt lat="48.01769" lon="1.90487">
        <ele>130.7</ele>
        <time>2015-09-27T09:53:03Z</time>
      </trkpt>
      <trkpt lat="48.01775" lon="1.90485">
        <ele>130.5</ele>
        <time>2015-09-27T09:53:04Z</time>
      </trkpt>
      <trkpt lat="48.01778" lon="1.90481">
        <ele>130.4</ele>
        <time>2015-09-27T09:53:05Z</time>
      </trkpt>
      <trkpt lat="48.01782" lon="1.90477">
        <ele>130.3</ele>
        <time>2015-09-27T09:53:06Z</time>
      </trkpt>
      <trkpt lat="48.01786" lon="1.90472">
        <ele>130.2</ele>
        <time>2015-09-27T09:53:07Z</time>
      </trkpt>
      <trkpt lat="48.0179" lon="1.90468">
        <ele>130</ele>
        <time>2015-09-27T09:53:08Z</time>
      </trkpt>
      <trkpt lat="48.01795" lon="1.90464">
        <ele>130</ele>
        <time>2015-09-27T09:53:09Z</time>
      </trkpt>
      <trkpt lat="48.01799" lon="1.90461">
        <ele>130.1</ele>
        <time>2015-09-27T09:53:10Z</time>
      </trkpt>
      <trkpt lat="48.01803" lon="1.90456">
        <ele>130.1</ele>
        <time>2015-09-27T09:53:11Z</time>
      </trkpt>
      <trkpt lat="48.01808" lon="1.90453">
        <ele>130.2</ele>
        <time>2015-09-27T09:53:12Z</time>
      </trkpt>
      <trkpt lat="48.01812" lon="1.9045">
        <ele>130.2</ele>
        <time>2015-09-27T09:53:13Z</time>
      </trkpt>
      <trkpt lat="48.01815" lon="1.90447">
        <ele>130.3</ele>
        <time>2015-09-27T09:53:14Z</time>
      </trkpt>
      <trkpt lat="48.0182" lon="1.90444">
        <ele>130.3</ele>
        <time>2015-09-27T09:53:15Z</time>
      </trkpt>
      <trkpt lat="48.01824" lon="1.90441">
        <ele>130.4</ele>
        <time>2015-09-27T09:53:16Z</time>
      </trkpt>
      <trkpt lat="48.01827" lon="1.90437">
        <ele>130.4</ele>
        <time>2015-09-27T09:53:17Z</time>
      </trkpt>
      <trkpt lat="48.0183" lon="1.90433">
        <ele>130.5</ele>
        <time>2015-09-27T09:53:18Z</time>
      </trkpt>
      <trkpt lat="48.01835" lon="1.90431">
        <ele>130.5</ele>
        <time>2015-09-27T09:53:19Z</time>
      </trkpt>
      <trkpt lat="48.01838" lon="1.90427">
        <ele>130.6</ele>
        <time>2015-09-27T09:53:20Z</time>
      </trkpt>
      <trkpt lat="48.01842" lon="1.90424">
        <ele>130.6</ele>
        <time>2015-09-27T09:53:21Z</time>
      </trkpt>
      <trkpt lat="48.01845" lon="1.90421">
        <ele>130.6</ele>
        <time>2015-09-27T09:53:22Z</time>
      </trkpt>
      <trkpt lat="48.01849" lon="1.90417">
        <ele>130.7</ele>
        <time>2015-09-27T09:53:23Z</time>
      </trkpt>
      <trkpt lat="48.01852" lon="1.90415">
        <ele>130.7</ele>
        <time>2015-09-27T09:53:24Z</time>
      </trkpt>
      <trkpt lat="48.01856" lon="1.90411">
        <ele>130.8</ele>
        <time>2015-09-27T09:53:25Z</time>
      </trkpt>
      <trkpt lat="48.01859" lon="1.90408">
        <ele>130.8</ele>
        <time>2015-09-27T09:53:26Z</time>
      </trkpt>
      <trkpt lat="48.01863" lon="1.90405">
        <ele>130.9</ele>
        <time>2015-09-27T09:53:27Z</time>
      </trkpt>
      <trkpt lat="48.01866" lon="1.90402">
        <ele>130.9</ele>
        <time>2015-09-27T09:53:28Z</time>
      </trkpt>
      <trkpt lat="48.0187" lon="1.90399">
        <ele>130.9</ele>
        <time>2015-09-27T09:53:29Z</time>
      </trkpt>
      <trkpt lat="48.01873" lon="1.90395">
        <ele>131</ele>
        <time>2015-09-27T09:53:30Z</time>
      </trkpt>
      <trkpt lat="48.01876" lon="1.90392">
        <ele>131</ele>
        <time>2015-09-27T09:53:31Z</time>
      </trkpt>
      <trkpt lat="48.0188" lon="1.90388">
        <ele>131</ele>
        <time>2015-09-27T09:53:32Z</time>
      </trkpt>
      <trkpt lat="48.01883" lon="1.90385">
        <ele>131</ele>
        <time>2015-09-27T09:53:33Z</time>
      </trkpt>
      <trkpt lat="48.01887" lon="1.90382">
        <ele>131</ele>
        <time>2015-09-27T09:53:34Z</time>
      </trkpt>
      <trkpt lat="48.01891" lon="1.90379">
        <ele>131</ele>
        <time>2015-09-27T09:53:35Z</time>
      </trkpt>
      <trkpt lat="48.01894" lon="1.90376">
        <ele>131</ele>
        <time>2015-09-27T09:53:36Z</time>
      </trkpt>
      <trkpt lat="48.01899" lon="1.90373">
        <ele>131</ele>
        <time>2015-09-27T09:53:37Z</time>
      </trkpt>
      <trkpt lat="48.01903" lon="1.90371">
        <ele>131</ele>
        <time>2015-09-27T09:53:38Z</time>
      </trkpt>
      <trkpt lat="48.01907" lon="1.90369">
        <ele>131</ele>
        <time>2015-09-27T09:53:39Z</time>
      </trkpt>
      <trkpt lat="48.01911" lon="1.90366">
        <ele>131</ele>
        <time>2015-09-27T09:53:40Z</time>
      </trkpt>
      <trkpt lat="48.01915" lon="1.90363">
        <ele>131.1</ele>
        <time>2015-09-27T09:53:41Z</time>
      </trkpt>
      <trkpt lat="48.01919" lon="1.90359">
        <ele>131.1</ele>
        <time>2015-09-27T09:53:42Z</time>
      </trkpt>
      <trkpt lat="48.01923" lon="1.90356">
        <ele>131.1</ele>
        <time>2015-09-27T09:53:43Z</time>
      </trkpt>
      <trkpt lat="48.01927" lon="1.90353">
        <ele>131.2</ele>
        <time>2015-09-27T09:53:44Z</time>
      </trkpt>
      <trkpt lat="48.01931" lon="1.9035">
        <ele>131.2</ele>
        <time>2015-09-27T09:53:45Z</time>
      </trkpt>
      <trkpt lat="48.01939" lon="1.9035">
        <ele>131.2</ele>
        <time>2015-09-27T09:53:46Z</time>
      </trkpt>
      <trkpt lat="48.01944" lon="1.90348">
        <ele>131.3</ele>
        <time>2015-09-27T09:53:47Z</time>
      </trkpt>
      <trkpt lat="48.01947" lon="1.90345">
        <ele>131.3</ele>
        <time>2015-09-27T09:53:48Z</time>
      </trkpt>
      <trkpt lat="48.0195" lon="1.9034">
        <ele>131.4</ele>
        <time>2015-09-27T09:53:49Z</time>
      </trkpt>
      <trkpt lat="48.01953" lon="1.90337">
        <ele>131.4</ele>
        <time>2015-09-27T09:53:50Z</time>
      </trkpt>
      <trkpt lat="48.01957" lon="1.90332">
        <ele>131.5</ele>
        <time>2015-09-27T09:53:51Z</time>
      </trkpt>
      <trkpt lat="48.0196" lon="1.90329">
        <ele>131.6</ele>
        <time>2015-09-27T09:53:52Z</time>
      </trkpt>
      <trkpt lat="48.01964" lon="1.90326">
        <ele>131.7</ele>
        <time>2015-09-27T09:53:53Z</time>
      </trkpt>
      <trkpt lat="48.01966" lon="1.90321">
        <ele>131.7</ele>
        <time>2015-09-27T09:53:54Z</time>
      </trkpt>
      <trkpt lat="48.01969" lon="1.90319">
        <ele>131.8</ele>
        <time>2015-09-27T09:53:55Z</time>
      </trkpt>
      <trkpt lat="48.01972" lon="1.90317">
        <ele>131.8</ele>
        <time>2015-09-27T09:53:56Z</time>
      </trkpt>
      <trkpt lat="48.01977" lon="1.90314">
        <ele>131.9</ele>
        <time>2015-09-27T09:53:57Z</time>
      </trkpt>
      <trkpt lat="48.01981" lon="1.90313">
        <ele>132</ele>
        <time>2015-09-27T09:53:58Z</time>
      </trkpt>
      <trkpt lat="48.01984" lon="1.9031">
        <ele>132</ele>
        <time>2015-09-27T09:53:59Z</time>
      </trkpt>
      <trkpt lat="48.01988" lon="1.90307">
        <ele>132</ele>
        <time>2015-09-27T09:54:00Z</time>
      </trkpt>
      <trkpt lat="48.01992" lon="1.90304">
        <ele>132</ele>
        <time>2015-09-27T09:54:01Z</time>
      </trkpt>
      <trkpt lat="48.01994" lon="1.90299">
        <ele>132</ele>
        <time>2015-09-27T09:54:02Z</time>
      </trkpt>
      <trkpt lat="48.01998" lon="1.90296">
        <ele>132</ele>
        <time>2015-09-27T09:54:03Z</time>
      </trkpt>
      <trkpt lat="48.02002" lon="1.90293">
        <ele>132</ele>
        <time>2015-09-27T09:54:04Z</time>
      </trkpt>
      <trkpt lat="48.02005" lon="1.9029">
        <ele>132</ele>
        <time>2015-09-27T09:54:05Z</time>
      </trkpt>
      <trkpt lat="48.02009" lon="1.90287">
        <ele>131.9</ele>
        <time>2015-09-27T09:54:06Z</time>
      </trkpt>
      <trkpt lat="48.02013" lon="1.90284">
        <ele>131.9</ele>
        <time>2015-09-27T09:54:07Z</time>
      </trkpt>
      <trkpt lat="48.02016" lon="1.9028">
        <ele>131.8</ele>
        <time>2015-09-27T09:54:08Z</time>
      </trkpt>
      <trkpt lat="48.0202" lon="1.90277">
        <ele>131.8</ele>
        <time>2015-09-27T09:54:09Z</time>
      </trkpt>
      <trkpt lat="48.02024" lon="1.90273">
        <ele>131.7</ele>
        <time>2015-09-27T09:54:10Z</time>
      </trkpt>
      <trkpt lat="48.02029" lon="1.90269">
        <ele>131.7</ele>
        <time>2015-09-27T09:54:11Z</time>
      </trkpt>
      <trkpt lat="48.02033" lon="1.90265">
        <ele>131.7</ele>
        <time>2015-09-27T09:54:12Z</time>
      </trkpt>
      <trkpt lat="48.02037" lon="1.9026">
        <ele>131.6</ele>
        <time>2015-09-27T09:54:13Z</time>
      </trkpt>
      <trkpt lat="48.02044" lon="1.90259">
        <ele>131.6</ele>
        <time>2015-09-27T09:54:14Z</time>
      </trkpt>
      <trkpt lat="48.02046" lon="1.90254">
        <ele>131.6</ele>
        <time>2015-09-27T09:54:15Z</time>
      </trkpt>
      <trkpt lat="48.02051" lon="1.90251">
        <ele>131.6</ele>
        <time>2015-09-27T09:54:16Z</time>
      </trkpt>
      <trkpt lat="48.02056" lon="1.90247">
        <ele>131.5</ele>
        <time>2015-09-27T09:54:17Z</time>
      </trkpt>
      <trkpt lat="48.02062" lon="1.90244">
        <ele>131.5</ele>
        <time>2015-09-27T09:54:18Z</time>
      </trkpt>
      <trkpt lat="48.02067" lon="1.9024">
        <ele>131.4</ele>
        <time>2015-09-27T09:54:19Z</time>
      </trkpt>
      <trkpt lat="48.02073" lon="1.90236">
        <ele>131.3</ele>
        <time>2015-09-27T09:54:20Z</time>
      </trkpt>
      <trkpt lat="48.02079" lon="1.90234">
        <ele>131.3</ele>
        <time>2015-09-27T09:54:21Z</time>
      </trkpt>
      <trkpt lat="48.02085" lon="1.90229">
        <ele>131.1</ele>
        <time>2015-09-27T09:54:22Z</time>
      </trkpt>
      <trkpt lat="48.02089" lon="1.90223">
        <ele>130.9</ele>
        <time>2015-09-27T09:54:23Z</time>
      </trkpt>
      <trkpt lat="48.02094" lon="1.90217">
        <ele>130.7</ele>
        <time>2015-09-27T09:54:24Z</time>
      </trkpt>
      <trkpt lat="48.02098" lon="1.90212">
        <ele>130.5</ele>
        <time>2015-09-27T09:54:25Z</time>
      </trkpt>
      <trkpt lat="48.02103" lon="1.90207">
        <ele>130.2</ele>
        <time>2015-09-27T09:54:26Z</time>
      </trkpt>
      <trkpt lat="48.02109" lon="1.90204">
        <ele>130.1</ele>
        <time>2015-09-27T09:54:27Z</time>
      </trkpt>
      <trkpt lat="48.02113" lon="1.90199">
        <ele>129.9</ele>
        <time>2015-09-27T09:54:28Z</time>
      </trkpt>
      <trkpt lat="48.02117" lon="1.90195">
        <ele>129.8</ele>
        <time>2015-09-27T09:54:29Z</time>
      </trkpt>
      <trkpt lat="48.0212" lon="1.90189">
        <ele>129.6</ele>
        <time>2015-09-27T09:54:30Z</time>
      </trkpt>
      <trkpt lat="48.02124" lon="1.90185">
        <ele>129.4</ele>
        <time>2015-09-27T09:54:31Z</time>
      </trkpt>
      <trkpt lat="48.0213" lon="1.90181">
        <ele>129.4</ele>
        <time>2015-09-27T09:54:32Z</time>
      </trkpt>
      <trkpt lat="48.02134" lon="1.90177">
        <ele>129.2</ele>
        <time>2015-09-27T09:54:33Z</time>
      </trkpt>
      <trkpt lat="48.02138" lon="1.90171">
        <ele>129.1</ele>
        <time>2015-09-27T09:54:34Z</time>
      </trkpt>
      <trkpt lat="48.02143" lon="1.90169">
        <ele>129</ele>
        <time>2015-09-27T09:54:35Z</time>
      </trkpt>
      <trkpt lat="48.02147" lon="1.90165">
        <ele>128.8</ele>
        <time>2015-09-27T09:54:36Z</time>
      </trkpt>
      <trkpt lat="48.0215" lon="1.90161">
        <ele>128.6</ele>
        <time>2015-09-27T09:54:37Z</time>
      </trkpt>
      <trkpt lat="48.02154" lon="1.90157">
        <ele>128.4</ele>
        <time>2015-09-27T09:54:38Z</time>
      </trkpt>
      <trkpt lat="48.0216" lon="1.90155">
        <ele>128.2</ele>
        <time>2015-09-27T09:54:39Z</time>
      </trkpt>
      <trkpt lat="48.02165" lon="1.90151">
        <ele>127.9</ele>
        <time>2015-09-27T09:54:40Z</time>
      </trkpt>
      <trkpt lat="48.02172" lon="1.90149">
        <ele>127.7</ele>
        <time>2015-09-27T09:54:41Z</time>
      </trkpt>
      <trkpt lat="48.02177" lon="1.90146">
        <ele>127.4</ele>
        <time>2015-09-27T09:54:42Z</time>
      </trkpt>
      <trkpt lat="48.02182" lon="1.90142">
        <ele>127</ele>
        <time>2015-09-27T09:54:43Z</time>
      </trkpt>
      <trkpt lat="48.02186" lon="1.90138">
        <ele>126.7</ele>
        <time>2015-09-27T09:54:44Z</time>
      </trkpt>
      <trkpt lat="48.02189" lon="1.90134">
        <ele>126.3</ele>
        <time>2015-09-27T09:54:45Z</time>
      </trkpt>
      <trkpt lat="48.02194" lon="1.9013">
        <ele>125.9</ele>
        <time>2015-09-27T09:54:46Z</time>
      </trkpt>
      <trkpt lat="48.022" lon="1.90127">
        <ele>125.5</ele>
        <time>2015-09-27T09:54:47Z</time>
      </trkpt>
      <trkpt lat="48.02205" lon="1.90124">
        <ele>125.1</ele>
        <time>2015-09-27T09:54:48Z</time>
      </trkpt>
      <trkpt lat="48.0221" lon="1.9012">
        <ele>125</ele>
        <time>2015-09-27T09:54:49Z</time>
      </trkpt>
      <trkpt lat="48.02213" lon="1.90116">
        <ele>125.1</ele>
        <time>2015-09-27T09:54:50Z</time>
      </trkpt>
      <trkpt lat="48.02218" lon="1.90113">
        <ele>125.3</ele>
        <time>2015-09-27T09:54:51Z</time>
      </trkpt>
      <trkpt lat="48.02222" lon="1.90109">
        <ele>125.4</ele>
        <time>2015-09-27T09:54:52Z</time>
      </trkpt>
      <trkpt lat="48.02226" lon="1.90106">
        <ele>125.5</ele>
        <time>2015-09-27T09:54:53Z</time>
      </trkpt>
      <trkpt lat="48.02232" lon="1.90103">
        <ele>125.7</ele>
        <time>2015-09-27T09:54:54Z</time>
      </trkpt>
      <trkpt lat="48.02235" lon="1.90097">
        <ele>125.7</ele>
        <time>2015-09-27T09:54:55Z</time>
      </trkpt>
      <trkpt lat="48.02239" lon="1.90093">
        <ele>125.8</ele>
        <time>2015-09-27T09:54:56Z</time>
      </trkpt>
      <trkpt lat="48.02243" lon="1.9009">
        <ele>125.9</ele>
        <time>2015-09-27T09:54:57Z</time>
      </trkpt>
      <trkpt lat="48.02246" lon="1.90086">
        <ele>125.9</ele>
        <time>2015-09-27T09:54:58Z</time>
      </trkpt>
      <trkpt lat="48.02249" lon="1.90083">
        <ele>126</ele>
        <time>2015-09-27T09:54:59Z</time>
      </trkpt>
      <trkpt lat="48.02253" lon="1.90079">
        <ele>126</ele>
        <time>2015-09-27T09:55:00Z</time>
      </trkpt>
      <trkpt lat="48.02257" lon="1.90077">
        <ele>126.1</ele>
        <time>2015-09-27T09:55:01Z</time>
      </trkpt>
      <trkpt lat="48.0226" lon="1.90073">
        <ele>126.1</ele>
        <time>2015-09-27T09:55:02Z</time>
      </trkpt>
      <trkpt lat="48.02264" lon="1.9007">
        <ele>126.1</ele>
        <time>2015-09-27T09:55:03Z</time>
      </trkpt>
      <trkpt lat="48.02267" lon="1.90067">
        <ele>126.1</ele>
        <time>2015-09-27T09:55:04Z</time>
      </trkpt>
      <trkpt lat="48.0227" lon="1.90063">
        <ele>126.1</ele>
        <time>2015-09-27T09:55:05Z</time>
      </trkpt>
      <trkpt lat="48.02274" lon="1.9006">
        <ele>126.1</ele>
        <time>2015-09-27T09:55:06Z</time>
      </trkpt>
      <trkpt lat="48.02278" lon="1.90058">
        <ele>126.2</ele>
        <time>2015-09-27T09:55:07Z</time>
      </trkpt>
      <trkpt lat="48.02281" lon="1.90057">
        <ele>126.3</ele>
        <time>2015-09-27T09:55:08Z</time>
      </trkpt>
      <trkpt lat="48.02285" lon="1.90055">
        <ele>126.3</ele>
        <time>2015-09-27T09:55:09Z</time>
      </trkpt>
      <trkpt lat="48.02288" lon="1.90053">
        <ele>126.3</ele>
        <time>2015-09-27T09:55:10Z</time>
      </trkpt>
      <trkpt lat="48.02291" lon="1.9005">
        <ele>126.3</ele>
        <time>2015-09-27T09:55:11Z</time>
      </trkpt>
      <trkpt lat="48.02295" lon="1.90047">
        <ele>126.4</ele>
        <time>2015-09-27T09:55:12Z</time>
      </trkpt>
      <trkpt lat="48.02298" lon="1.90045">
        <ele>126.4</ele>
        <time>2015-09-27T09:55:13Z</time>
      </trkpt>
      <trkpt lat="48.02301" lon="1.90042">
        <ele>126.5</ele>
        <time>2015-09-27T09:55:14Z</time>
      </trkpt>
      <trkpt lat="48.02304" lon="1.90039">
        <ele>126.6</ele>
        <time>2015-09-27T09:55:15Z</time>
      </trkpt>
      <trkpt lat="48.02307" lon="1.90036">
        <ele>126.7</ele>
        <time>2015-09-27T09:55:16Z</time>
      </trkpt>
      <trkpt lat="48.0231" lon="1.90034">
        <ele>126.8</ele>
        <time>2015-09-27T09:55:17Z</time>
      </trkpt>
      <trkpt lat="48.02313" lon="1.90031">
        <ele>126.9</ele>
        <time>2015-09-27T09:55:18Z</time>
      </trkpt>
      <trkpt lat="48.02316" lon="1.90028">
        <ele>127</ele>
        <time>2015-09-27T09:55:19Z</time>
      </trkpt>
      <trkpt lat="48.02319" lon="1.90025">
        <ele>127.1</ele>
        <time>2015-09-27T09:55:20Z</time>
      </trkpt>
      <trkpt lat="48.02322" lon="1.90022">
        <ele>127.2</ele>
        <time>2015-09-27T09:55:21Z</time>
      </trkpt>
      <trkpt lat="48.02324" lon="1.90019">
        <ele>127.3</ele>
        <time>2015-09-27T09:55:22Z</time>
      </trkpt>
      <trkpt lat="48.02327" lon="1.90017">
        <ele>127.3</ele>
        <time>2015-09-27T09:55:23Z</time>
      </trkpt>
      <trkpt lat="48.02331" lon="1.90015">
        <ele>127.4</ele>
        <time>2015-09-27T09:55:24Z</time>
      </trkpt>
      <trkpt lat="48.02334" lon="1.90012">
        <ele>127.5</ele>
        <time>2015-09-27T09:55:25Z</time>
      </trkpt>
      <trkpt lat="48.02337" lon="1.9001">
        <ele>127.5</ele>
        <time>2015-09-27T09:55:26Z</time>
      </trkpt>
      <trkpt lat="48.0234" lon="1.90007">
        <ele>127.6</ele>
        <time>2015-09-27T09:55:27Z</time>
      </trkpt>
      <trkpt lat="48.02343" lon="1.90004">
        <ele>127.6</ele>
        <time>2015-09-27T09:55:28Z</time>
      </trkpt>
      <trkpt lat="48.02346" lon="1.90001">
        <ele>127.7</ele>
        <time>2015-09-27T09:55:29Z</time>
      </trkpt>
      <trkpt lat="48.02349" lon="1.89999">
        <ele>127.7</ele>
        <time>2015-09-27T09:55:30Z</time>
      </trkpt>
      <trkpt lat="48.02353" lon="1.89996">
        <ele>127.7</ele>
        <time>2015-09-27T09:55:31Z</time>
      </trkpt>
      <trkpt lat="48.02356" lon="1.89993">
        <ele>127.7</ele>
        <time>2015-09-27T09:55:32Z</time>
      </trkpt>
      <trkpt lat="48.02359" lon="1.8999">
        <ele>127.7</ele>
        <time>2015-09-27T09:55:33Z</time>
      </trkpt>
      <trkpt lat="48.02362" lon="1.89987">
        <ele>127.7</ele>
        <time>2015-09-27T09:55:34Z</time>
      </trkpt>
      <trkpt lat="48.02365" lon="1.89984">
        <ele>127.7</ele>
        <time>2015-09-27T09:55:35Z</time>
      </trkpt>
      <trkpt lat="48.02368" lon="1.8998">
        <ele>127.6</ele>
        <time>2015-09-27T09:55:36Z</time>
      </trkpt>
      <trkpt lat="48.02371" lon="1.89977">
        <ele>127.6</ele>
        <time>2015-09-27T09:55:37Z</time>
      </trkpt>
      <trkpt lat="48.02374" lon="1.89974">
        <ele>127.6</ele>
        <time>2015-09-27T09:55:38Z</time>
      </trkpt>
      <trkpt lat="48.02377" lon="1.89971">
        <ele>127.6</ele>
        <time>2015-09-27T09:55:39Z</time>
      </trkpt>
      <trkpt lat="48.0238" lon="1.89968">
        <ele>127.6</ele>
        <time>2015-09-27T09:55:40Z</time>
      </trkpt>
      <trkpt lat="48.02384" lon="1.89965">
        <ele>127.7</ele>
        <time>2015-09-27T09:55:41Z</time>
      </trkpt>
      <trkpt lat="48.02387" lon="1.89963">
        <ele>127.7</ele>
        <time>2015-09-27T09:55:42Z</time>
      </trkpt>
      <trkpt lat="48.0239" lon="1.8996">
        <ele>127.8</ele>
        <time>2015-09-27T09:55:43Z</time>
      </trkpt>
      <trkpt lat="48.02393" lon="1.89958">
        <ele>127.9</ele>
        <time>2015-09-27T09:55:44Z</time>
      </trkpt>
      <trkpt lat="48.02396" lon="1.89955">
        <ele>128</ele>
        <time>2015-09-27T09:55:45Z</time>
      </trkpt>
      <trkpt lat="48.02399" lon="1.89953">
        <ele>128.1</ele>
        <time>2015-09-27T09:55:46Z</time>
      </trkpt>
      <trkpt lat="48.02403" lon="1.8995">
        <ele>128.2</ele>
        <time>2015-09-27T09:55:47Z</time>
      </trkpt>
      <trkpt lat="48.02406" lon="1.89947">
        <ele>128.3</ele>
        <time>2015-09-27T09:55:48Z</time>
      </trkpt>
      <trkpt lat="48.02409" lon="1.89944">
        <ele>128.4</ele>
        <time>2015-09-27T09:55:49Z</time>
      </trkpt>
      <trkpt lat="48.02412" lon="1.89942">
        <ele>128.5</ele>
        <time>2015-09-27T09:55:50Z</time>
      </trkpt>
      <trkpt lat="48.02415" lon="1.89939">
        <ele>128.6</ele>
        <time>2015-09-27T09:55:51Z</time>
      </trkpt>
      <trkpt lat="48.02419" lon="1.89936">
        <ele>128.7</ele>
        <time>2015-09-27T09:55:52Z</time>
      </trkpt>
      <trkpt lat="48.02422" lon="1.89933">
        <ele>128.8</ele>
        <time>2015-09-27T09:55:53Z</time>
      </trkpt>
      <trkpt lat="48.02426" lon="1.89929">
        <ele>128.8</ele>
        <time>2015-09-27T09:55:54Z</time>
      </trkpt>
      <trkpt lat="48.02429" lon="1.89925">
        <ele>128.8</ele>
        <time>2015-09-27T09:55:55Z</time>
      </trkpt>
      <trkpt lat="48.02433" lon="1.89921">
        <ele>128.8</ele>
        <time>2015-09-27T09:55:56Z</time>
      </trkpt>
      <trkpt lat="48.02436" lon="1.89917">
        <ele>128.8</ele>
        <time>2015-09-27T09:55:57Z</time>
      </trkpt>
      <trkpt lat="48.0244" lon="1.89913">
        <ele>128.8</ele>
        <time>2015-09-27T09:55:58Z</time>
      </trkpt>
      <trkpt lat="48.02442" lon="1.89905">
        <ele>128.7</ele>
        <time>2015-09-27T09:55:59Z</time>
      </trkpt>
      <trkpt lat="48.02446" lon="1.89903">
        <ele>128.7</ele>
        <time>2015-09-27T09:56:00Z</time>
      </trkpt>
      <trkpt lat="48.02452" lon="1.89901">
        <ele>128.8</ele>
        <time>2015-09-27T09:56:01Z</time>
      </trkpt>
      <trkpt lat="48.02456" lon="1.89896">
        <ele>128.7</ele>
        <time>2015-09-27T09:56:02Z</time>
      </trkpt>
      <trkpt lat="48.02459" lon="1.89891">
        <ele>128.6</ele>
        <time>2015-09-27T09:56:03Z</time>
      </trkpt>
      <trkpt lat="48.02464" lon="1.8989">
        <ele>128.6</ele>
        <time>2015-09-27T09:56:04Z</time>
      </trkpt>
      <trkpt lat="48.02468" lon="1.89885">
        <ele>128.5</ele>
        <time>2015-09-27T09:56:05Z</time>
      </trkpt>
      <trkpt lat="48.02472" lon="1.89883">
        <ele>128.5</ele>
        <time>2015-09-27T09:56:06Z</time>
      </trkpt>
      <trkpt lat="48.02476" lon="1.89879">
        <ele>128.4</ele>
        <time>2015-09-27T09:56:07Z</time>
      </trkpt>
      <trkpt lat="48.02479" lon="1.89875">
        <ele>128.3</ele>
        <time>2015-09-27T09:56:08Z</time>
      </trkpt>
      <trkpt lat="48.02484" lon="1.89871">
        <ele>128.3</ele>
        <time>2015-09-27T09:56:09Z</time>
      </trkpt>
      <trkpt lat="48.02488" lon="1.89867">
        <ele>128.3</ele>
        <time>2015-09-27T09:56:10Z</time>
      </trkpt>
      <trkpt lat="48.02493" lon="1.89864">
        <ele>128.4</ele>
        <time>2015-09-27T09:56:11Z</time>
      </trkpt>
      <trkpt lat="48.02498" lon="1.89862">
        <ele>128.4</ele>
        <time>2015-09-27T09:56:12Z</time>
      </trkpt>
      <trkpt lat="48.02502" lon="1.89858">
        <ele>128.4</ele>
        <time>2015-09-27T09:56:13Z</time>
      </trkpt>
      <trkpt lat="48.02506" lon="1.89854">
        <ele>128.4</ele>
        <time>2015-09-27T09:56:14Z</time>
      </trkpt>
      <trkpt lat="48.0251" lon="1.89851">
        <ele>128.4</ele>
        <time>2015-09-27T09:56:15Z</time>
      </trkpt>
      <trkpt lat="48.02514" lon="1.89848">
        <ele>128.5</ele>
        <time>2015-09-27T09:56:16Z</time>
      </trkpt>
      <trkpt lat="48.02519" lon="1.89845">
        <ele>128.5</ele>
        <time>2015-09-27T09:56:17Z</time>
      </trkpt>
      <trkpt lat="48.02524" lon="1.89842">
        <ele>128.5</ele>
        <time>2015-09-27T09:56:18Z</time>
      </trkpt>
      <trkpt lat="48.0253" lon="1.8984">
        <ele>128.5</ele>
        <time>2015-09-27T09:56:19Z</time>
      </trkpt>
      <trkpt lat="48.02534" lon="1.89837">
        <ele>128.5</ele>
        <time>2015-09-27T09:56:20Z</time>
      </trkpt>
      <trkpt lat="48.02538" lon="1.89834">
        <ele>128.5</ele>
        <time>2015-09-27T09:56:21Z</time>
      </trkpt>
      <trkpt lat="48.02543" lon="1.8983">
        <ele>128.6</ele>
        <time>2015-09-27T09:56:22Z</time>
      </trkpt>
      <trkpt lat="48.02547" lon="1.89826">
        <ele>128.7</ele>
        <time>2015-09-27T09:56:23Z</time>
      </trkpt>
      <trkpt lat="48.02551" lon="1.89821">
        <ele>128.8</ele>
        <time>2015-09-27T09:56:24Z</time>
      </trkpt>
      <trkpt lat="48.02556" lon="1.89819">
        <ele>129.1</ele>
        <time>2015-09-27T09:56:25Z</time>
      </trkpt>
      <trkpt lat="48.0256" lon="1.89814">
        <ele>129.2</ele>
        <time>2015-09-27T09:56:26Z</time>
      </trkpt>
      <trkpt lat="48.02564" lon="1.8981">
        <ele>129.3</ele>
        <time>2015-09-27T09:56:27Z</time>
      </trkpt>
      <trkpt lat="48.02569" lon="1.89807">
        <ele>129.4</ele>
        <time>2015-09-27T09:56:28Z</time>
      </trkpt>
      <trkpt lat="48.02574" lon="1.89804">
        <ele>129.5</ele>
        <time>2015-09-27T09:56:29Z</time>
      </trkpt>
      <trkpt lat="48.02579" lon="1.89801">
        <ele>129.7</ele>
        <time>2015-09-27T09:56:30Z</time>
      </trkpt>
      <trkpt lat="48.02584" lon="1.89798">
        <ele>129.8</ele>
        <time>2015-09-27T09:56:31Z</time>
      </trkpt>
      <trkpt lat="48.02588" lon="1.89793">
        <ele>129.7</ele>
        <time>2015-09-27T09:56:32Z</time>
      </trkpt>
      <trkpt lat="48.02594" lon="1.89789">
        <ele>129.9</ele>
        <time>2015-09-27T09:56:33Z</time>
      </trkpt>
      <trkpt lat="48.02599" lon="1.89785">
        <ele>130.2</ele>
        <time>2015-09-27T09:56:34Z</time>
      </trkpt>
      <trkpt lat="48.02603" lon="1.89782">
        <ele>130.4</ele>
        <time>2015-09-27T09:56:35Z</time>
      </trkpt>
      <trkpt lat="48.02608" lon="1.89777">
        <ele>130.6</ele>
        <time>2015-09-27T09:56:36Z</time>
      </trkpt>
      <trkpt lat="48.02612" lon="1.89772">
        <ele>130.8</ele>
        <time>2015-09-27T09:56:37Z</time>
      </trkpt>
      <trkpt lat="48.02617" lon="1.89768">
        <ele>131</ele>
        <time>2015-09-27T09:56:38Z</time>
      </trkpt>
      <trkpt lat="48.02621" lon="1.89764">
        <ele>131.2</ele>
        <time>2015-09-27T09:56:39Z</time>
      </trkpt>
      <trkpt lat="48.02625" lon="1.89758">
        <ele>131.4</ele>
        <time>2015-09-27T09:56:40Z</time>
      </trkpt>
      <trkpt lat="48.0263" lon="1.89755">
        <ele>131.5</ele>
        <time>2015-09-27T09:56:41Z</time>
      </trkpt>
      <trkpt lat="48.02634" lon="1.8975">
        <ele>131.7</ele>
        <time>2015-09-27T09:56:42Z</time>
      </trkpt>
      <trkpt lat="48.02639" lon="1.89745">
        <ele>131.8</ele>
        <time>2015-09-27T09:56:43Z</time>
      </trkpt>
      <trkpt lat="48.02643" lon="1.89739">
        <ele>132</ele>
        <time>2015-09-27T09:56:44Z</time>
      </trkpt>
      <trkpt lat="48.02649" lon="1.89737">
        <ele>132.1</ele>
        <time>2015-09-27T09:56:45Z</time>
      </trkpt>
      <trkpt lat="48.02653" lon="1.89733">
        <ele>132.3</ele>
        <time>2015-09-27T09:56:46Z</time>
      </trkpt>
      <trkpt lat="48.02657" lon="1.8973">
        <ele>132.4</ele>
        <time>2015-09-27T09:56:47Z</time>
      </trkpt>
      <trkpt lat="48.0266" lon="1.89726">
        <ele>132.5</ele>
        <time>2015-09-27T09:56:48Z</time>
      </trkpt>
      <trkpt lat="48.02663" lon="1.89722">
        <ele>132.7</ele>
        <time>2015-09-27T09:56:49Z</time>
      </trkpt>
      <trkpt lat="48.02668" lon="1.8972">
        <ele>132.8</ele>
        <time>2015-09-27T09:56:50Z</time>
      </trkpt>
      <trkpt lat="48.02671" lon="1.89717">
        <ele>132.9</ele>
        <time>2015-09-27T09:56:51Z</time>
      </trkpt>
      <trkpt lat="48.02675" lon="1.89715">
        <ele>133.1</ele>
        <time>2015-09-27T09:56:52Z</time>
      </trkpt>
      <trkpt lat="48.02678" lon="1.89713">
        <ele>133.2</ele>
        <time>2015-09-27T09:56:53Z</time>
      </trkpt>
      <trkpt lat="48.02681" lon="1.8971">
        <ele>133.3</ele>
        <time>2015-09-27T09:56:54Z</time>
      </trkpt>
      <trkpt lat="48.02685" lon="1.8971">
        <ele>133.4</ele>
        <time>2015-09-27T09:56:55Z</time>
      </trkpt>
      <trkpt lat="48.02688" lon="1.89709">
        <ele>133.5</ele>
        <time>2015-09-27T09:56:56Z</time>
      </trkpt>
      <trkpt lat="48.0269" lon="1.89707">
        <ele>133.6</ele>
        <time>2015-09-27T09:56:58Z</time>
      </trkpt>
      <trkpt lat="48.02694" lon="1.89706">
        <ele>133.7</ele>
        <time>2015-09-27T09:57:01Z</time>
      </trkpt>
      <trkpt lat="48.02696" lon="1.89703">
        <ele>133.8</ele>
        <time>2015-09-27T09:57:04Z</time>
      </trkpt>
      <trkpt lat="48.02698" lon="1.89699">
        <ele>133.9</ele>
        <time>2015-09-27T09:57:06Z</time>
      </trkpt>
      <trkpt lat="48.02699" lon="1.89694">
        <ele>134</ele>
        <time>2015-09-27T09:57:07Z</time>
      </trkpt>
      <trkpt lat="48.02701" lon="1.89689">
        <ele>134.1</ele>
        <time>2015-09-27T09:57:08Z</time>
      </trkpt>
      <trkpt lat="48.02703" lon="1.89683">
        <ele>134.2</ele>
        <time>2015-09-27T09:57:09Z</time>
      </trkpt>
      <trkpt lat="48.02704" lon="1.89677">
        <ele>134.3</ele>
        <time>2015-09-27T09:57:10Z</time>
      </trkpt>
      <trkpt lat="48.02705" lon="1.89672">
        <ele>134.4</ele>
        <time>2015-09-27T09:57:11Z</time>
      </trkpt>
      <trkpt lat="48.02705" lon="1.89666">
        <ele>134.5</ele>
        <time>2015-09-27T09:57:12Z</time>
      </trkpt>
      <trkpt lat="48.02706" lon="1.89661">
        <ele>134.5</ele>
        <time>2015-09-27T09:57:13Z</time>
      </trkpt>
      <trkpt lat="48.02706" lon="1.89655">
        <ele>134.6</ele>
        <time>2015-09-27T09:57:14Z</time>
      </trkpt>
      <trkpt lat="48.02706" lon="1.8965">
        <ele>134.7</ele>
        <time>2015-09-27T09:57:15Z</time>
      </trkpt>
      <trkpt lat="48.02707" lon="1.89645">
        <ele>134.7</ele>
        <time>2015-09-27T09:57:16Z</time>
      </trkpt>
      <trkpt lat="48.02708" lon="1.8964">
        <ele>134.8</ele>
        <time>2015-09-27T09:57:17Z</time>
      </trkpt>
      <trkpt lat="48.02709" lon="1.89635">
        <ele>134.9</ele>
        <time>2015-09-27T09:57:18Z</time>
      </trkpt>
      <trkpt lat="48.0271" lon="1.89629">
        <ele>134.9</ele>
        <time>2015-09-27T09:57:19Z</time>
      </trkpt>
      <trkpt lat="48.0271" lon="1.89623">
        <ele>135</ele>
        <time>2015-09-27T09:57:20Z</time>
      </trkpt>
      <trkpt lat="48.0271" lon="1.89618">
        <ele>135</ele>
        <time>2015-09-27T09:57:21Z</time>
      </trkpt>
      <trkpt lat="48.02711" lon="1.89612">
        <ele>135</ele>
        <time>2015-09-27T09:57:22Z</time>
      </trkpt>
      <trkpt lat="48.02711" lon="1.89607">
        <ele>135</ele>
        <time>2015-09-27T09:57:23Z</time>
      </trkpt>
      <trkpt lat="48.02712" lon="1.89602">
        <ele>135</ele>
        <time>2015-09-27T09:57:24Z</time>
      </trkpt>
      <trkpt lat="48.02712" lon="1.89597">
        <ele>135</ele>
        <time>2015-09-27T09:57:25Z</time>
      </trkpt>
      <trkpt lat="48.02712" lon="1.89592">
        <ele>135</ele>
        <time>2015-09-27T09:57:26Z</time>
      </trkpt>
      <trkpt lat="48.02713" lon="1.89587">
        <ele>134.9</ele>
        <time>2015-09-27T09:57:27Z</time>
      </trkpt>
      <trkpt lat="48.02714" lon="1.89582">
        <ele>134.9</ele>
        <time>2015-09-27T09:57:28Z</time>
      </trkpt>
      <trkpt lat="48.02716" lon="1.89578">
        <ele>134.9</ele>
        <time>2015-09-27T09:57:29Z</time>
      </trkpt>
      <trkpt lat="48.02719" lon="1.89574">
        <ele>134.9</ele>
        <time>2015-09-27T09:57:30Z</time>
      </trkpt>
      <trkpt lat="48.02722" lon="1.89571">
        <ele>134.8</ele>
        <time>2015-09-27T09:57:31Z</time>
      </trkpt>
      <trkpt lat="48.02726" lon="1.89568">
        <ele>134.8</ele>
        <time>2015-09-27T09:57:32Z</time>
      </trkpt>
      <trkpt lat="48.02729" lon="1.89565">
        <ele>134.8</ele>
        <time>2015-09-27T09:57:33Z</time>
      </trkpt>
      <trkpt lat="48.02731" lon="1.89562">
        <ele>134.7</ele>
        <time>2015-09-27T09:57:34Z</time>
      </trkpt>
      <trkpt lat="48.02734" lon="1.89558">
        <ele>134.7</ele>
        <time>2015-09-27T09:57:35Z</time>
      </trkpt>
      <trkpt lat="48.02737" lon="1.89555">
        <ele>134.7</ele>
        <time>2015-09-27T09:57:36Z</time>
      </trkpt>
      <trkpt lat="48.0274" lon="1.89552">
        <ele>134.6</ele>
        <time>2015-09-27T09:57:37Z</time>
      </trkpt>
      <trkpt lat="48.02743" lon="1.89549">
        <ele>134.6</ele>
        <time>2015-09-27T09:57:38Z</time>
      </trkpt>
      <trkpt lat="48.02747" lon="1.89546">
        <ele>134.5</ele>
        <time>2015-09-27T09:57:39Z</time>
      </trkpt>
      <trkpt lat="48.0275" lon="1.89543">
        <ele>134.5</ele>
        <time>2015-09-27T09:57:40Z</time>
      </trkpt>
      <trkpt lat="48.02753" lon="1.8954">
        <ele>134.4</ele>
        <time>2015-09-27T09:57:41Z</time>
      </trkpt>
      <trkpt lat="48.02756" lon="1.89537">
        <ele>134.2</ele>
        <time>2015-09-27T09:57:42Z</time>
      </trkpt>
      <trkpt lat="48.02759" lon="1.89533">
        <ele>134.1</ele>
        <time>2015-09-27T09:57:43Z</time>
      </trkpt>
      <trkpt lat="48.02762" lon="1.8953">
        <ele>133.9</ele>
        <time>2015-09-27T09:57:44Z</time>
      </trkpt>
      <trkpt lat="48.02766" lon="1.89527">
        <ele>133.7</ele>
        <time>2015-09-27T09:57:45Z</time>
      </trkpt>
      <trkpt lat="48.02769" lon="1.89524">
        <ele>133.5</ele>
        <time>2015-09-27T09:57:46Z</time>
      </trkpt>
      <trkpt lat="48.02773" lon="1.89521">
        <ele>133.3</ele>
        <time>2015-09-27T09:57:47Z</time>
      </trkpt>
      <trkpt lat="48.02776" lon="1.89517">
        <ele>133.1</ele>
        <time>2015-09-27T09:57:48Z</time>
      </trkpt>
      <trkpt lat="48.0278" lon="1.89514">
        <ele>132.9</ele>
        <time>2015-09-27T09:57:49Z</time>
      </trkpt>
      <trkpt lat="48.02784" lon="1.8951">
        <ele>132.7</ele>
        <time>2015-09-27T09:57:50Z</time>
      </trkpt>
      <trkpt lat="48.02787" lon="1.89507">
        <ele>132.4</ele>
        <time>2015-09-27T09:57:51Z</time>
      </trkpt>
      <trkpt lat="48.0279" lon="1.89503">
        <ele>132.2</ele>
        <time>2015-09-27T09:57:52Z</time>
      </trkpt>
      <trkpt lat="48.02793" lon="1.89498">
        <ele>131.9</ele>
        <time>2015-09-27T09:57:53Z</time>
      </trkpt>
      <trkpt lat="48.02796" lon="1.89494">
        <ele>131.6</ele>
        <time>2015-09-27T09:57:54Z</time>
      </trkpt>
      <trkpt lat="48.02799" lon="1.89489">
        <ele>131.4</ele>
        <time>2015-09-27T09:57:55Z</time>
      </trkpt>
      <trkpt lat="48.02801" lon="1.89484">
        <ele>131.1</ele>
        <time>2015-09-27T09:57:56Z</time>
      </trkpt>
      <trkpt lat="48.02804" lon="1.89479">
        <ele>130.9</ele>
        <time>2015-09-27T09:57:57Z</time>
      </trkpt>
      <trkpt lat="48.02807" lon="1.89474">
        <ele>130.7</ele>
        <time>2015-09-27T09:57:58Z</time>
      </trkpt>
      <trkpt lat="48.0281" lon="1.8947">
        <ele>130.4</ele>
        <time>2015-09-27T09:57:59Z</time>
      </trkpt>
      <trkpt lat="48.02813" lon="1.89465">
        <ele>130.3</ele>
        <time>2015-09-27T09:58:00Z</time>
      </trkpt>
      <trkpt lat="48.02816" lon="1.89461">
        <ele>130.1</ele>
        <time>2015-09-27T09:58:01Z</time>
      </trkpt>
      <trkpt lat="48.0282" lon="1.89457">
        <ele>130</ele>
        <time>2015-09-27T09:58:02Z</time>
      </trkpt>
      <trkpt lat="48.02823" lon="1.89452">
        <ele>130.1</ele>
        <time>2015-09-27T09:58:03Z</time>
      </trkpt>
      <trkpt lat="48.02827" lon="1.89446">
        <ele>130.1</ele>
        <time>2015-09-27T09:58:04Z</time>
      </trkpt>
      <trkpt lat="48.02831" lon="1.89438">
        <ele>130.2</ele>
        <time>2015-09-27T09:58:05Z</time>
      </trkpt>
      <trkpt lat="48.02833" lon="1.8943">
        <ele>130.3</ele>
        <time>2015-09-27T09:58:06Z</time>
      </trkpt>
      <trkpt lat="48.02835" lon="1.89421">
        <ele>130.4</ele>
        <time>2015-09-27T09:58:07Z</time>
      </trkpt>
      <trkpt lat="48.02834" lon="1.8941">
        <ele>130.6</ele>
        <time>2015-09-27T09:58:08Z</time>
      </trkpt>
      <trkpt lat="48.02835" lon="1.89401">
        <ele>130.7</ele>
        <time>2015-09-27T09:58:09Z</time>
      </trkpt>
      <trkpt lat="48.02837" lon="1.8939">
        <ele>130.8</ele>
        <time>2015-09-27T09:58:10Z</time>
      </trkpt>
      <trkpt lat="48.0284" lon="1.89383">
        <ele>130.9</ele>
        <time>2015-09-27T09:58:11Z</time>
      </trkpt>
      <trkpt lat="48.02841" lon="1.89375">
        <ele>131</ele>
        <time>2015-09-27T09:58:12Z</time>
      </trkpt>
      <trkpt lat="48.02843" lon="1.89367">
        <ele>130.9</ele>
        <time>2015-09-27T09:58:13Z</time>
      </trkpt>
      <trkpt lat="48.02844" lon="1.8936">
        <ele>130.8</ele>
        <time>2015-09-27T09:58:14Z</time>
      </trkpt>
      <trkpt lat="48.02844" lon="1.8935">
        <ele>130.6</ele>
        <time>2015-09-27T09:58:15Z</time>
      </trkpt>
      <trkpt lat="48.02846" lon="1.89342">
        <ele>130.5</ele>
        <time>2015-09-27T09:58:16Z</time>
      </trkpt>
      <trkpt lat="48.02846" lon="1.89336">
        <ele>130.4</ele>
        <time>2015-09-27T09:58:17Z</time>
      </trkpt>
      <trkpt lat="48.02849" lon="1.89332">
        <ele>130.3</ele>
        <time>2015-09-27T09:58:18Z</time>
      </trkpt>
      <trkpt lat="48.0285" lon="1.89321">
        <ele>130.1</ele>
        <time>2015-09-27T09:58:19Z</time>
      </trkpt>
      <trkpt lat="48.02852" lon="1.89312">
        <ele>129.9</ele>
        <time>2015-09-27T09:58:20Z</time>
      </trkpt>
      <trkpt lat="48.02854" lon="1.89302">
        <ele>129.7</ele>
        <time>2015-09-27T09:58:22Z</time>
      </trkpt>
      <trkpt lat="48.02857" lon="1.8928">
        <ele>128.8</ele>
        <time>2015-09-27T09:58:23Z</time>
      </trkpt>
      <trkpt lat="48.02856" lon="1.89271">
        <ele>128.4</ele>
        <time>2015-09-27T09:58:24Z</time>
      </trkpt>
      <trkpt lat="48.02857" lon="1.89261">
        <ele>127.9</ele>
        <time>2015-09-27T09:58:25Z</time>
      </trkpt>
      <trkpt lat="48.02856" lon="1.89251">
        <ele>127.4</ele>
        <time>2015-09-27T09:58:26Z</time>
      </trkpt>
      <trkpt lat="48.02857" lon="1.89242">
        <ele>126.8</ele>
        <time>2015-09-27T09:58:27Z</time>
      </trkpt>
      <trkpt lat="48.02856" lon="1.89232">
        <ele>126.4</ele>
        <time>2015-09-27T09:58:28Z</time>
      </trkpt>
      <trkpt lat="48.02858" lon="1.89226">
        <ele>126</ele>
        <time>2015-09-27T09:58:29Z</time>
      </trkpt>
      <trkpt lat="48.02858" lon="1.89218">
        <ele>125.5</ele>
        <time>2015-09-27T09:58:30Z</time>
      </trkpt>
      <trkpt lat="48.02859" lon="1.89211">
        <ele>125.1</ele>
        <time>2015-09-27T09:58:31Z</time>
      </trkpt>
      <trkpt lat="48.02859" lon="1.89204">
        <ele>124.8</ele>
        <time>2015-09-27T09:58:32Z</time>
      </trkpt>
      <trkpt lat="48.0286" lon="1.892">
        <ele>124.7</ele>
        <time>2015-09-27T09:58:33Z</time>
      </trkpt>
      <trkpt lat="48.0286" lon="1.89194">
        <ele>124.5</ele>
        <time>2015-09-27T09:58:34Z</time>
      </trkpt>
      <trkpt lat="48.02861" lon="1.89187">
        <ele>124.3</ele>
        <time>2015-09-27T09:58:35Z</time>
      </trkpt>
      <trkpt lat="48.02862" lon="1.89182">
        <ele>124.1</ele>
        <time>2015-09-27T09:58:36Z</time>
      </trkpt>
      <trkpt lat="48.02863" lon="1.89178">
        <ele>123.9</ele>
        <time>2015-09-27T09:58:37Z</time>
      </trkpt>
      <trkpt lat="48.02865" lon="1.89173">
        <ele>123.7</ele>
        <time>2015-09-27T09:58:38Z</time>
      </trkpt>
      <trkpt lat="48.02865" lon="1.89168">
        <ele>123.6</ele>
        <time>2015-09-27T09:58:39Z</time>
      </trkpt>
      <trkpt lat="48.02865" lon="1.89162">
        <ele>123.4</ele>
        <time>2015-09-27T09:58:40Z</time>
      </trkpt>
      <trkpt lat="48.02864" lon="1.89155">
        <ele>123.3</ele>
        <time>2015-09-27T09:58:41Z</time>
      </trkpt>
      <trkpt lat="48.02863" lon="1.89149">
        <ele>123.2</ele>
        <time>2015-09-27T09:58:42Z</time>
      </trkpt>
      <trkpt lat="48.02862" lon="1.89142">
        <ele>123.1</ele>
        <time>2015-09-27T09:58:43Z</time>
      </trkpt>
      <trkpt lat="48.02861" lon="1.89136">
        <ele>123</ele>
        <time>2015-09-27T09:58:44Z</time>
      </trkpt>
      <trkpt lat="48.02859" lon="1.89129">
        <ele>122.9</ele>
        <time>2015-09-27T09:58:45Z</time>
      </trkpt>
      <trkpt lat="48.02858" lon="1.89123">
        <ele>122.9</ele>
        <time>2015-09-27T09:58:46Z</time>
      </trkpt>
      <trkpt lat="48.02856" lon="1.89117">
        <ele>123.1</ele>
        <time>2015-09-27T09:58:47Z</time>
      </trkpt>
      <trkpt lat="48.02854" lon="1.8911">
        <ele>123.2</ele>
        <time>2015-09-27T09:58:48Z</time>
      </trkpt>
      <trkpt lat="48.02853" lon="1.89104">
        <ele>123.4</ele>
        <time>2015-09-27T09:58:49Z</time>
      </trkpt>
      <trkpt lat="48.02851" lon="1.89097">
        <ele>123.5</ele>
        <time>2015-09-27T09:58:50Z</time>
      </trkpt>
      <trkpt lat="48.02849" lon="1.89091">
        <ele>123.7</ele>
        <time>2015-09-27T09:58:51Z</time>
      </trkpt>
      <trkpt lat="48.02849" lon="1.89085">
        <ele>123.8</ele>
        <time>2015-09-27T09:58:52Z</time>
      </trkpt>
      <trkpt lat="48.02848" lon="1.89079">
        <ele>123.9</ele>
        <time>2015-09-27T09:58:53Z</time>
      </trkpt>
      <trkpt lat="48.02847" lon="1.89073">
        <ele>124</ele>
        <time>2015-09-27T09:58:54Z</time>
      </trkpt>
      <trkpt lat="48.02846" lon="1.89066">
        <ele>124.1</ele>
        <time>2015-09-27T09:58:55Z</time>
      </trkpt>
      <trkpt lat="48.02844" lon="1.89059">
        <ele>124.2</ele>
        <time>2015-09-27T09:58:56Z</time>
      </trkpt>
      <trkpt lat="48.02843" lon="1.89052">
        <ele>124.3</ele>
        <time>2015-09-27T09:58:57Z</time>
      </trkpt>
      <trkpt lat="48.02841" lon="1.89045">
        <ele>124.4</ele>
        <time>2015-09-27T09:58:58Z</time>
      </trkpt>
      <trkpt lat="48.0284" lon="1.89039">
        <ele>124.4</ele>
        <time>2015-09-27T09:58:59Z</time>
      </trkpt>
      <trkpt lat="48.02839" lon="1.89032">
        <ele>124.4</ele>
        <time>2015-09-27T09:59:00Z</time>
      </trkpt>
      <trkpt lat="48.02838" lon="1.89025">
        <ele>124.3</ele>
        <time>2015-09-27T09:59:01Z</time>
      </trkpt>
      <trkpt lat="48.02836" lon="1.89019">
        <ele>124.3</ele>
        <time>2015-09-27T09:59:02Z</time>
      </trkpt>
      <trkpt lat="48.02835" lon="1.89012">
        <ele>124.3</ele>
        <time>2015-09-27T09:59:03Z</time>
      </trkpt>
      <trkpt lat="48.02833" lon="1.89006">
        <ele>124.3</ele>
        <time>2015-09-27T09:59:04Z</time>
      </trkpt>
      <trkpt lat="48.02831" lon="1.88997">
        <ele>124.3</ele>
        <time>2015-09-27T09:59:05Z</time>
      </trkpt>
      <trkpt lat="48.0283" lon="1.88991">
        <ele>124.3</ele>
        <time>2015-09-27T09:59:06Z</time>
      </trkpt>
      <trkpt lat="48.0283" lon="1.88985">
        <ele>124.2</ele>
        <time>2015-09-27T09:59:07Z</time>
      </trkpt>
      <trkpt lat="48.0283" lon="1.88978">
        <ele>124.2</ele>
        <time>2015-09-27T09:59:08Z</time>
      </trkpt>
      <trkpt lat="48.02829" lon="1.88972">
        <ele>124.2</ele>
        <time>2015-09-27T09:59:09Z</time>
      </trkpt>
      <trkpt lat="48.02832" lon="1.88963">
        <ele>124.1</ele>
        <time>2015-09-27T09:59:10Z</time>
      </trkpt>
      <trkpt lat="48.02833" lon="1.88956">
        <ele>124</ele>
        <time>2015-09-27T09:59:11Z</time>
      </trkpt>
      <trkpt lat="48.02832" lon="1.88949">
        <ele>124</ele>
        <time>2015-09-27T09:59:12Z</time>
      </trkpt>
      <trkpt lat="48.02832" lon="1.88942">
        <ele>123.9</ele>
        <time>2015-09-27T09:59:13Z</time>
      </trkpt>
      <trkpt lat="48.02834" lon="1.88937">
        <ele>123.9</ele>
        <time>2015-09-27T09:59:14Z</time>
      </trkpt>
      <trkpt lat="48.02834" lon="1.8893">
        <ele>123.8</ele>
        <time>2015-09-27T09:59:15Z</time>
      </trkpt>
      <trkpt lat="48.02834" lon="1.88923">
        <ele>123.8</ele>
        <time>2015-09-27T09:59:16Z</time>
      </trkpt>
      <trkpt lat="48.02836" lon="1.88917">
        <ele>123.7</ele>
        <time>2015-09-27T09:59:17Z</time>
      </trkpt>
      <trkpt lat="48.02836" lon="1.8891">
        <ele>123.7</ele>
        <time>2015-09-27T09:59:18Z</time>
      </trkpt>
      <trkpt lat="48.02837" lon="1.88904">
        <ele>123.6</ele>
        <time>2015-09-27T09:59:19Z</time>
      </trkpt>
      <trkpt lat="48.02836" lon="1.88897">
        <ele>123.6</ele>
        <time>2015-09-27T09:59:20Z</time>
      </trkpt>
      <trkpt lat="48.02837" lon="1.8889">
        <ele>123.5</ele>
        <time>2015-09-27T09:59:21Z</time>
      </trkpt>
      <trkpt lat="48.02838" lon="1.88884">
        <ele>123.5</ele>
        <time>2015-09-27T09:59:22Z</time>
      </trkpt>
      <trkpt lat="48.02839" lon="1.88876">
        <ele>123.4</ele>
        <time>2015-09-27T09:59:23Z</time>
      </trkpt>
      <trkpt lat="48.02839" lon="1.8887">
        <ele>123.3</ele>
        <time>2015-09-27T09:59:24Z</time>
      </trkpt>
      <trkpt lat="48.02839" lon="1.88862">
        <ele>123.2</ele>
        <time>2015-09-27T09:59:25Z</time>
      </trkpt>
      <trkpt lat="48.02839" lon="1.88855">
        <ele>123.1</ele>
        <time>2015-09-27T09:59:26Z</time>
      </trkpt>
      <trkpt lat="48.02839" lon="1.88847">
        <ele>123</ele>
        <time>2015-09-27T09:59:27Z</time>
      </trkpt>
      <trkpt lat="48.02839" lon="1.8884">
        <ele>122.9</ele>
        <time>2015-09-27T09:59:28Z</time>
      </trkpt>
      <trkpt lat="48.02838" lon="1.88834">
        <ele>122.8</ele>
        <time>2015-09-27T09:59:29Z</time>
      </trkpt>
      <trkpt lat="48.02837" lon="1.88827">
        <ele>122.7</ele>
        <time>2015-09-27T09:59:30Z</time>
      </trkpt>
      <trkpt lat="48.02836" lon="1.88821">
        <ele>122.6</ele>
        <time>2015-09-27T09:59:31Z</time>
      </trkpt>
      <trkpt lat="48.02835" lon="1.88812">
        <ele>122.4</ele>
        <time>2015-09-27T09:59:32Z</time>
      </trkpt>
      <trkpt lat="48.02833" lon="1.88807">
        <ele>122.3</ele>
        <time>2015-09-27T09:59:33Z</time>
      </trkpt>
      <trkpt lat="48.02827" lon="1.88779">
        <ele>121.9</ele>
        <time>2015-09-27T09:59:36Z</time>
      </trkpt>
      <trkpt lat="48.02825" lon="1.8877">
        <ele>121.8</ele>
        <time>2015-09-27T09:59:37Z</time>
      </trkpt>
      <trkpt lat="48.02823" lon="1.88762">
        <ele>121.8</ele>
        <time>2015-09-27T09:59:38Z</time>
      </trkpt>
      <trkpt lat="48.02822" lon="1.88753">
        <ele>121.9</ele>
        <time>2015-09-27T09:59:39Z</time>
      </trkpt>
      <trkpt lat="48.02821" lon="1.88747">
        <ele>121.9</ele>
        <time>2015-09-27T09:59:40Z</time>
      </trkpt>
      <trkpt lat="48.0282" lon="1.88737">
        <ele>121.9</ele>
        <time>2015-09-27T09:59:41Z</time>
      </trkpt>
      <trkpt lat="48.02819" lon="1.88729">
        <ele>121.9</ele>
        <time>2015-09-27T09:59:42Z</time>
      </trkpt>
      <trkpt lat="48.02818" lon="1.88721">
        <ele>121.9</ele>
        <time>2015-09-27T09:59:43Z</time>
      </trkpt>
      <trkpt lat="48.02816" lon="1.88713">
        <ele>122</ele>
        <time>2015-09-27T09:59:44Z</time>
      </trkpt>
      <trkpt lat="48.02815" lon="1.88705">
        <ele>122</ele>
        <time>2015-09-27T09:59:45Z</time>
      </trkpt>
      <trkpt lat="48.02813" lon="1.88696">
        <ele>122</ele>
        <time>2015-09-27T09:59:46Z</time>
      </trkpt>
      <trkpt lat="48.02811" lon="1.88688">
        <ele>122</ele>
        <time>2015-09-27T09:59:47Z</time>
      </trkpt>
      <trkpt lat="48.02809" lon="1.88679">
        <ele>122</ele>
        <time>2015-09-27T09:59:48Z</time>
      </trkpt>
      <trkpt lat="48.02807" lon="1.88669">
        <ele>122</ele>
        <time>2015-09-27T09:59:49Z</time>
      </trkpt>
      <trkpt lat="48.02806" lon="1.8866">
        <ele>122</ele>
        <time>2015-09-27T09:59:50Z</time>
      </trkpt>
      <trkpt lat="48.02804" lon="1.88651">
        <ele>122</ele>
        <time>2015-09-27T09:59:51Z</time>
      </trkpt>
      <trkpt lat="48.02802" lon="1.8864">
        <ele>122</ele>
        <time>2015-09-27T09:59:52Z</time>
      </trkpt>
      <trkpt lat="48.02801" lon="1.88631">
        <ele>122</ele>
        <time>2015-09-27T09:59:53Z</time>
      </trkpt>
      <trkpt lat="48.02798" lon="1.8862">
        <ele>122</ele>
        <time>2015-09-27T09:59:54Z</time>
      </trkpt>
      <trkpt lat="48.02796" lon="1.88611">
        <ele>122</ele>
        <time>2015-09-27T09:59:55Z</time>
      </trkpt>
      <trkpt lat="48.02794" lon="1.88601">
        <ele>122</ele>
        <time>2015-09-27T09:59:56Z</time>
      </trkpt>
      <trkpt lat="48.02792" lon="1.88592">
        <ele>122</ele>
        <time>2015-09-27T09:59:57Z</time>
      </trkpt>
      <trkpt lat="48.02791" lon="1.88582">
        <ele>122</ele>
        <time>2015-09-27T09:59:58Z</time>
      </trkpt>
      <trkpt lat="48.02789" lon="1.88571">
        <ele>122</ele>
        <time>2015-09-27T09:59:59Z</time>
      </trkpt>
      <trkpt lat="48.02788" lon="1.8856">
        <ele>122</ele>
        <time>2015-09-27T10:00:00Z</time>
      </trkpt>
      <trkpt lat="48.02785" lon="1.88548">
        <ele>122.1</ele>
        <time>2015-09-27T10:00:01Z</time>
      </trkpt>
      <trkpt lat="48.02782" lon="1.88538">
        <ele>122.1</ele>
        <time>2015-09-27T10:00:02Z</time>
      </trkpt>
      <trkpt lat="48.02781" lon="1.88527">
        <ele>122.2</ele>
        <time>2015-09-27T10:00:03Z</time>
      </trkpt>
      <trkpt lat="48.02779" lon="1.88518">
        <ele>122.3</ele>
        <time>2015-09-27T10:00:04Z</time>
      </trkpt>
      <trkpt lat="48.02777" lon="1.88509">
        <ele>122.4</ele>
        <time>2015-09-27T10:00:05Z</time>
      </trkpt>
      <trkpt lat="48.02776" lon="1.88501">
        <ele>122.4</ele>
        <time>2015-09-27T10:00:06Z</time>
      </trkpt>
      <trkpt lat="48.02774" lon="1.8849">
        <ele>122.4</ele>
        <time>2015-09-27T10:00:07Z</time>
      </trkpt>
      <trkpt lat="48.02773" lon="1.88481">
        <ele>122.5</ele>
        <time>2015-09-27T10:00:08Z</time>
      </trkpt>
      <trkpt lat="48.02771" lon="1.88473">
        <ele>122.5</ele>
        <time>2015-09-27T10:00:09Z</time>
      </trkpt>
      <trkpt lat="48.02768" lon="1.8846">
        <ele>122.4</ele>
        <time>2015-09-27T10:00:10Z</time>
      </trkpt>
      <trkpt lat="48.02768" lon="1.88455">
        <ele>122.4</ele>
        <time>2015-09-27T10:00:11Z</time>
      </trkpt>
      <trkpt lat="48.02766" lon="1.88447">
        <ele>122.3</ele>
        <time>2015-09-27T10:00:12Z</time>
      </trkpt>
      <trkpt lat="48.02764" lon="1.88436">
        <ele>122.1</ele>
        <time>2015-09-27T10:00:13Z</time>
      </trkpt>
      <trkpt lat="48.02761" lon="1.88427">
        <ele>122</ele>
        <time>2015-09-27T10:00:14Z</time>
      </trkpt>
      <trkpt lat="48.02759" lon="1.88417">
        <ele>121.9</ele>
        <time>2015-09-27T10:00:15Z</time>
      </trkpt>
      <trkpt lat="48.02757" lon="1.88408">
        <ele>121.8</ele>
        <time>2015-09-27T10:00:16Z</time>
      </trkpt>
      <trkpt lat="48.02754" lon="1.88399">
        <ele>121.7</ele>
        <time>2015-09-27T10:00:17Z</time>
      </trkpt>
      <trkpt lat="48.02753" lon="1.88395">
        <ele>121.7</ele>
        <time>2015-09-27T10:00:18Z</time>
      </trkpt>
      <trkpt lat="48.02742" lon="1.88366">
        <ele>121.2</ele>
        <time>2015-09-27T10:00:21Z</time>
      </trkpt>
      <trkpt lat="48.02738" lon="1.88359">
        <ele>121.1</ele>
        <time>2015-09-27T10:00:22Z</time>
      </trkpt>
      <trkpt lat="48.02735" lon="1.8835">
        <ele>120.9</ele>
        <time>2015-09-27T10:00:23Z</time>
      </trkpt>
      <trkpt lat="48.02731" lon="1.88341">
        <ele>120.8</ele>
        <time>2015-09-27T10:00:24Z</time>
      </trkpt>
      <trkpt lat="48.02711" lon="1.88312">
        <ele>120.2</ele>
        <time>2015-09-27T10:00:28Z</time>
      </trkpt>
      <trkpt lat="48.02707" lon="1.88306">
        <ele>120.2</ele>
        <time>2015-09-27T10:00:29Z</time>
      </trkpt>
      <trkpt lat="48.02702" lon="1.883">
        <ele>120.1</ele>
        <time>2015-09-27T10:00:30Z</time>
      </trkpt>
      <trkpt lat="48.02695" lon="1.88293">
        <ele>120</ele>
        <time>2015-09-27T10:00:31Z</time>
      </trkpt>
      <trkpt lat="48.02689" lon="1.88285">
        <ele>120</ele>
        <time>2015-09-27T10:00:32Z</time>
      </trkpt>
      <trkpt lat="48.02683" lon="1.8828">
        <ele>120</ele>
        <time>2015-09-27T10:00:33Z</time>
      </trkpt>
      <trkpt lat="48.02677" lon="1.88275">
        <ele>119.9</ele>
        <time>2015-09-27T10:00:34Z</time>
      </trkpt>
      <trkpt lat="48.0267" lon="1.8827">
        <ele>119.9</ele>
        <time>2015-09-27T10:00:35Z</time>
      </trkpt>
      <trkpt lat="48.02664" lon="1.88265">
        <ele>119.8</ele>
        <time>2015-09-27T10:00:36Z</time>
      </trkpt>
      <trkpt lat="48.02657" lon="1.88261">
        <ele>119.8</ele>
        <time>2015-09-27T10:00:37Z</time>
      </trkpt>
      <trkpt lat="48.0265" lon="1.88257">
        <ele>119.7</ele>
        <time>2015-09-27T10:00:38Z</time>
      </trkpt>
      <trkpt lat="48.02643" lon="1.88254">
        <ele>119.6</ele>
        <time>2015-09-27T10:00:39Z</time>
      </trkpt>
      <trkpt lat="48.02636" lon="1.88252">
        <ele>119.6</ele>
        <time>2015-09-27T10:00:40Z</time>
      </trkpt>
      <trkpt lat="48.02629" lon="1.8825">
        <ele>119.5</ele>
        <time>2015-09-27T10:00:41Z</time>
      </trkpt>
      <trkpt lat="48.02622" lon="1.88248">
        <ele>119.5</ele>
        <time>2015-09-27T10:00:42Z</time>
      </trkpt>
      <trkpt lat="48.02614" lon="1.88247">
        <ele>119.5</ele>
        <time>2015-09-27T10:00:43Z</time>
      </trkpt>
      <trkpt lat="48.02607" lon="1.88245">
        <ele>119.6</ele>
        <time>2015-09-27T10:00:44Z</time>
      </trkpt>
      <trkpt lat="48.026" lon="1.88244">
        <ele>119.6</ele>
        <time>2015-09-27T10:00:45Z</time>
      </trkpt>
      <trkpt lat="48.02593" lon="1.88244">
        <ele>119.6</ele>
        <time>2015-09-27T10:00:46Z</time>
      </trkpt>
      <trkpt lat="48.02585" lon="1.88244">
        <ele>119.7</ele>
        <time>2015-09-27T10:00:47Z</time>
      </trkpt>
      <trkpt lat="48.02579" lon="1.88243">
        <ele>119.7</ele>
        <time>2015-09-27T10:00:48Z</time>
      </trkpt>
      <trkpt lat="48.02574" lon="1.88241">
        <ele>119.8</ele>
        <time>2015-09-27T10:00:49Z</time>
      </trkpt>
      <trkpt lat="48.02568" lon="1.88241">
        <ele>119.8</ele>
        <time>2015-09-27T10:00:50Z</time>
      </trkpt>
      <trkpt lat="48.02561" lon="1.88241">
        <ele>119.9</ele>
        <time>2015-09-27T10:00:51Z</time>
      </trkpt>
      <trkpt lat="48.02555" lon="1.8824">
        <ele>119.9</ele>
        <time>2015-09-27T10:00:52Z</time>
      </trkpt>
      <trkpt lat="48.02549" lon="1.88239">
        <ele>119.9</ele>
        <time>2015-09-27T10:00:53Z</time>
      </trkpt>
      <trkpt lat="48.02544" lon="1.88237">
        <ele>120</ele>
        <time>2015-09-27T10:00:54Z</time>
      </trkpt>
      <trkpt lat="48.02537" lon="1.88236">
        <ele>120</ele>
        <time>2015-09-27T10:00:55Z</time>
      </trkpt>
      <trkpt lat="48.02533" lon="1.88234">
        <ele>120</ele>
        <time>2015-09-27T10:00:56Z</time>
      </trkpt>
      <trkpt lat="48.02528" lon="1.88232">
        <ele>120</ele>
        <time>2015-09-27T10:00:57Z</time>
      </trkpt>
      <trkpt lat="48.02522" lon="1.88231">
        <ele>119.9</ele>
        <time>2015-09-27T10:00:58Z</time>
      </trkpt>
      <trkpt lat="48.02517" lon="1.88228">
        <ele>119.9</ele>
        <time>2015-09-27T10:00:59Z</time>
      </trkpt>
      <trkpt lat="48.02511" lon="1.88226">
        <ele>119.9</ele>
        <time>2015-09-27T10:01:00Z</time>
      </trkpt>
      <trkpt lat="48.02505" lon="1.88224">
        <ele>119.9</ele>
        <time>2015-09-27T10:01:01Z</time>
      </trkpt>
      <trkpt lat="48.02501" lon="1.88223">
        <ele>119.9</ele>
        <time>2015-09-27T10:01:02Z</time>
      </trkpt>
      <trkpt lat="48.02496" lon="1.88221">
        <ele>119.9</ele>
        <time>2015-09-27T10:01:03Z</time>
      </trkpt>
      <trkpt lat="48.02491" lon="1.88217">
        <ele>119.9</ele>
        <time>2015-09-27T10:01:04Z</time>
      </trkpt>
      <trkpt lat="48.02486" lon="1.88214">
        <ele>120</ele>
        <time>2015-09-27T10:01:05Z</time>
      </trkpt>
      <trkpt lat="48.02481" lon="1.88211">
        <ele>120</ele>
        <time>2015-09-27T10:01:06Z</time>
      </trkpt>
      <trkpt lat="48.02475" lon="1.88207">
        <ele>120</ele>
        <time>2015-09-27T10:01:07Z</time>
      </trkpt>
      <trkpt lat="48.02469" lon="1.88201">
        <ele>119.9</ele>
        <time>2015-09-27T10:01:08Z</time>
      </trkpt>
      <trkpt lat="48.02463" lon="1.88197">
        <ele>119.9</ele>
        <time>2015-09-27T10:01:09Z</time>
      </trkpt>
      <trkpt lat="48.02459" lon="1.88193">
        <ele>119.8</ele>
        <time>2015-09-27T10:01:10Z</time>
      </trkpt>
      <trkpt lat="48.02455" lon="1.88186">
        <ele>119.7</ele>
        <time>2015-09-27T10:01:11Z</time>
      </trkpt>
      <trkpt lat="48.02451" lon="1.8818">
        <ele>119.6</ele>
        <time>2015-09-27T10:01:12Z</time>
      </trkpt>
      <trkpt lat="48.02447" lon="1.88174">
        <ele>119.5</ele>
        <time>2015-09-27T10:01:13Z</time>
      </trkpt>
      <trkpt lat="48.02443" lon="1.88167">
        <ele>119.4</ele>
        <time>2015-09-27T10:01:14Z</time>
      </trkpt>
      <trkpt lat="48.02439" lon="1.88161">
        <ele>119.3</ele>
        <time>2015-09-27T10:01:15Z</time>
      </trkpt>
      <trkpt lat="48.02436" lon="1.88157">
        <ele>119.3</ele>
        <time>2015-09-27T10:01:16Z</time>
      </trkpt>
      <trkpt lat="48.02432" lon="1.88151">
        <ele>119.2</ele>
        <time>2015-09-27T10:01:17Z</time>
      </trkpt>
      <trkpt lat="48.02428" lon="1.88145">
        <ele>119.2</ele>
        <time>2015-09-27T10:01:18Z</time>
      </trkpt>
      <trkpt lat="48.02425" lon="1.8814">
        <ele>119.1</ele>
        <time>2015-09-27T10:01:19Z</time>
      </trkpt>
      <trkpt lat="48.02421" lon="1.88134">
        <ele>119.1</ele>
        <time>2015-09-27T10:01:20Z</time>
      </trkpt>
      <trkpt lat="48.02417" lon="1.88127">
        <ele>119</ele>
        <time>2015-09-27T10:01:21Z</time>
      </trkpt>
      <trkpt lat="48.02415" lon="1.88121">
        <ele>119.1</ele>
        <time>2015-09-27T10:01:22Z</time>
      </trkpt>
      <trkpt lat="48.02411" lon="1.88116">
        <ele>119.3</ele>
        <time>2015-09-27T10:01:23Z</time>
      </trkpt>
      <trkpt lat="48.02408" lon="1.8811">
        <ele>119.4</ele>
        <time>2015-09-27T10:01:24Z</time>
      </trkpt>
      <trkpt lat="48.02406" lon="1.88105">
        <ele>119.6</ele>
        <time>2015-09-27T10:01:25Z</time>
      </trkpt>
      <trkpt lat="48.02404" lon="1.88099">
        <ele>119.7</ele>
        <time>2015-09-27T10:01:26Z</time>
      </trkpt>
      <trkpt lat="48.02402" lon="1.88091">
        <ele>120</ele>
        <time>2015-09-27T10:01:27Z</time>
      </trkpt>
      <trkpt lat="48.02401" lon="1.88087">
        <ele>120.1</ele>
        <time>2015-09-27T10:01:28Z</time>
      </trkpt>
      <trkpt lat="48.024" lon="1.88079">
        <ele>120.3</ele>
        <time>2015-09-27T10:01:29Z</time>
      </trkpt>
      <trkpt lat="48.02399" lon="1.88074">
        <ele>120.4</ele>
        <time>2015-09-27T10:01:30Z</time>
      </trkpt>
      <trkpt lat="48.02398" lon="1.8807">
        <ele>120.5</ele>
        <time>2015-09-27T10:01:31Z</time>
      </trkpt>
      <trkpt lat="48.02397" lon="1.88064">
        <ele>120.7</ele>
        <time>2015-09-27T10:01:32Z</time>
      </trkpt>
      <trkpt lat="48.02396" lon="1.88059">
        <ele>120.8</ele>
        <time>2015-09-27T10:01:33Z</time>
      </trkpt>
      <trkpt lat="48.02393" lon="1.88051">
        <ele>121</ele>
        <time>2015-09-27T10:01:35Z</time>
      </trkpt>
      <trkpt lat="48.02391" lon="1.88046">
        <ele>121.1</ele>
        <time>2015-09-27T10:01:37Z</time>
      </trkpt>
      <trkpt lat="48.02391" lon="1.88041">
        <ele>121.2</ele>
        <time>2015-09-27T10:01:38Z</time>
      </trkpt>
      <trkpt lat="48.02391" lon="1.88037">
        <ele>121.2</ele>
        <time>2015-09-27T10:01:40Z</time>
      </trkpt>
      <trkpt lat="48.0239" lon="1.88029">
        <ele>121.2</ele>
        <time>2015-09-27T10:01:42Z</time>
      </trkpt>
      <trkpt lat="48.02389" lon="1.88025">
        <ele>121.2</ele>
        <time>2015-09-27T10:01:43Z</time>
      </trkpt>
      <trkpt lat="48.02388" lon="1.88021">
        <ele>121.2</ele>
        <time>2015-09-27T10:01:44Z</time>
      </trkpt>
      <trkpt lat="48.02388" lon="1.88013">
        <ele>121.2</ele>
        <time>2015-09-27T10:01:46Z</time>
      </trkpt>
      <trkpt lat="48.02388" lon="1.88005">
        <ele>121.2</ele>
        <time>2015-09-27T10:01:48Z</time>
      </trkpt>
      <trkpt lat="48.02388" lon="1.88">
        <ele>121.2</ele>
        <time>2015-09-27T10:01:49Z</time>
      </trkpt>
      <trkpt lat="48.02388" lon="1.87995">
        <ele>121.2</ele>
        <time>2015-09-27T10:01:50Z</time>
      </trkpt>
      <trkpt lat="48.02388" lon="1.87991">
        <ele>121.2</ele>
        <time>2015-09-27T10:01:51Z</time>
      </trkpt>
      <trkpt lat="48.02387" lon="1.87986">
        <ele>121.1</ele>
        <time>2015-09-27T10:01:52Z</time>
      </trkpt>
      <trkpt lat="48.02387" lon="1.87982">
        <ele>121.1</ele>
        <time>2015-09-27T10:01:53Z</time>
      </trkpt>
      <trkpt lat="48.02387" lon="1.87977">
        <ele>121.1</ele>
        <time>2015-09-27T10:01:54Z</time>
      </trkpt>
      <trkpt lat="48.02386" lon="1.87967">
        <ele>121.1</ele>
        <time>2015-09-27T10:01:56Z</time>
      </trkpt>
      <trkpt lat="48.02386" lon="1.87962">
        <ele>121.1</ele>
        <time>2015-09-27T10:01:57Z</time>
      </trkpt>
      <trkpt lat="48.02387" lon="1.87958">
        <ele>121.1</ele>
        <time>2015-09-27T10:01:58Z</time>
      </trkpt>
      <trkpt lat="48.02387" lon="1.87954">
        <ele>121</ele>
        <time>2015-09-27T10:01:59Z</time>
      </trkpt>
      <trkpt lat="48.02388" lon="1.87949">
        <ele>120.9</ele>
        <time>2015-09-27T10:02:00Z</time>
      </trkpt>
      <trkpt lat="48.02388" lon="1.87945">
        <ele>120.8</ele>
        <time>2015-09-27T10:02:01Z</time>
      </trkpt>
      <trkpt lat="48.02388" lon="1.8794">
        <ele>120.7</ele>
        <time>2015-09-27T10:02:02Z</time>
      </trkpt>
      <trkpt lat="48.02388" lon="1.87936">
        <ele>120.6</ele>
        <time>2015-09-27T10:02:03Z</time>
      </trkpt>
      <trkpt lat="48.02388" lon="1.87931">
        <ele>120.5</ele>
        <time>2015-09-27T10:02:04Z</time>
      </trkpt>
      <trkpt lat="48.02388" lon="1.87926">
        <ele>120.4</ele>
        <time>2015-09-27T10:02:05Z</time>
      </trkpt>
      <trkpt lat="48.02388" lon="1.87921">
        <ele>120.3</ele>
        <time>2015-09-27T10:02:06Z</time>
      </trkpt>
      <trkpt lat="48.02388" lon="1.87917">
        <ele>120.2</ele>
        <time>2015-09-27T10:02:07Z</time>
      </trkpt>
      <trkpt lat="48.02388" lon="1.87912">
        <ele>120</ele>
        <time>2015-09-27T10:02:08Z</time>
      </trkpt>
      <trkpt lat="48.02388" lon="1.87906">
        <ele>119.9</ele>
        <time>2015-09-27T10:02:09Z</time>
      </trkpt>
      <trkpt lat="48.02388" lon="1.87902">
        <ele>119.8</ele>
        <time>2015-09-27T10:02:10Z</time>
      </trkpt>
      <trkpt lat="48.02388" lon="1.87896">
        <ele>119.7</ele>
        <time>2015-09-27T10:02:11Z</time>
      </trkpt>
      <trkpt lat="48.02388" lon="1.87891">
        <ele>119.5</ele>
        <time>2015-09-27T10:02:12Z</time>
      </trkpt>
      <trkpt lat="48.02388" lon="1.87885">
        <ele>119.4</ele>
        <time>2015-09-27T10:02:13Z</time>
      </trkpt>
      <trkpt lat="48.02387" lon="1.87879">
        <ele>119.2</ele>
        <time>2015-09-27T10:02:14Z</time>
      </trkpt>
      <trkpt lat="48.02387" lon="1.87872">
        <ele>119.1</ele>
        <time>2015-09-27T10:02:15Z</time>
      </trkpt>
      <trkpt lat="48.02385" lon="1.87862">
        <ele>119.1</ele>
        <time>2015-09-27T10:02:16Z</time>
      </trkpt>
      <trkpt lat="48.02385" lon="1.87857">
        <ele>119.1</ele>
        <time>2015-09-27T10:02:17Z</time>
      </trkpt>
      <trkpt lat="48.02384" lon="1.8785">
        <ele>119</ele>
        <time>2015-09-27T10:02:18Z</time>
      </trkpt>
      <trkpt lat="48.02383" lon="1.87842">
        <ele>119</ele>
        <time>2015-09-27T10:02:19Z</time>
      </trkpt>
      <trkpt lat="48.02382" lon="1.87833">
        <ele>119</ele>
        <time>2015-09-27T10:02:20Z</time>
      </trkpt>
      <trkpt lat="48.02383" lon="1.87827">
        <ele>119</ele>
        <time>2015-09-27T10:02:21Z</time>
      </trkpt>
      <trkpt lat="48.02382" lon="1.87818">
        <ele>119</ele>
        <time>2015-09-27T10:02:22Z</time>
      </trkpt>
      <trkpt lat="48.02382" lon="1.87811">
        <ele>119</ele>
        <time>2015-09-27T10:02:23Z</time>
      </trkpt>
      <trkpt lat="48.02381" lon="1.87801">
        <ele>118.9</ele>
        <time>2015-09-27T10:02:24Z</time>
      </trkpt>
      <trkpt lat="48.0238" lon="1.87793">
        <ele>118.9</ele>
        <time>2015-09-27T10:02:25Z</time>
      </trkpt>
      <trkpt lat="48.02379" lon="1.87782">
        <ele>119.1</ele>
        <time>2015-09-27T10:02:26Z</time>
      </trkpt>
      <trkpt lat="48.02379" lon="1.87772">
        <ele>119.2</ele>
        <time>2015-09-27T10:02:27Z</time>
      </trkpt>
      <trkpt lat="48.02378" lon="1.87762">
        <ele>119.4</ele>
        <time>2015-09-27T10:02:28Z</time>
      </trkpt>
      <trkpt lat="48.02376" lon="1.87751">
        <ele>119.5</ele>
        <time>2015-09-27T10:02:29Z</time>
      </trkpt>
      <trkpt lat="48.02375" lon="1.87742">
        <ele>119.6</ele>
        <time>2015-09-27T10:02:30Z</time>
      </trkpt>
      <trkpt lat="48.02374" lon="1.87729">
        <ele>119.8</ele>
        <time>2015-09-27T10:02:31Z</time>
      </trkpt>
      <trkpt lat="48.02372" lon="1.87719">
        <ele>119.9</ele>
        <time>2015-09-27T10:02:32Z</time>
      </trkpt>
      <trkpt lat="48.0237" lon="1.87708">
        <ele>120</ele>
        <time>2015-09-27T10:02:33Z</time>
      </trkpt>
      <trkpt lat="48.02368" lon="1.87696">
        <ele>120.2</ele>
        <time>2015-09-27T10:02:34Z</time>
      </trkpt>
      <trkpt lat="48.02365" lon="1.87687">
        <ele>120.3</ele>
        <time>2015-09-27T10:02:35Z</time>
      </trkpt>
      <trkpt lat="48.02362" lon="1.87677">
        <ele>120.5</ele>
        <time>2015-09-27T10:02:36Z</time>
      </trkpt>
      <trkpt lat="48.02358" lon="1.87666">
        <ele>120.7</ele>
        <time>2015-09-27T10:02:37Z</time>
      </trkpt>
      <trkpt lat="48.02356" lon="1.87656">
        <ele>120.9</ele>
        <time>2015-09-27T10:02:38Z</time>
      </trkpt>
      <trkpt lat="48.02354" lon="1.87645">
        <ele>121.1</ele>
        <time>2015-09-27T10:02:39Z</time>
      </trkpt>
      <trkpt lat="48.02352" lon="1.87635">
        <ele>121.4</ele>
        <time>2015-09-27T10:02:40Z</time>
      </trkpt>
      <trkpt lat="48.0235" lon="1.87628">
        <ele>121.5</ele>
        <time>2015-09-27T10:02:41Z</time>
      </trkpt>
      <trkpt lat="48.02351" lon="1.87621">
        <ele>121.7</ele>
        <time>2015-09-27T10:02:42Z</time>
      </trkpt>
      <trkpt lat="48.02349" lon="1.87612">
        <ele>122.1</ele>
        <time>2015-09-27T10:02:43Z</time>
      </trkpt>
      <trkpt lat="48.02347" lon="1.87603">
        <ele>122.5</ele>
        <time>2015-09-27T10:02:44Z</time>
      </trkpt>
      <trkpt lat="48.02346" lon="1.87593">
        <ele>122.8</ele>
        <time>2015-09-27T10:02:45Z</time>
      </trkpt>
      <trkpt lat="48.02344" lon="1.87584">
        <ele>123.2</ele>
        <time>2015-09-27T10:02:46Z</time>
      </trkpt>
      <trkpt lat="48.02342" lon="1.87577">
        <ele>123.4</ele>
        <time>2015-09-27T10:02:47Z</time>
      </trkpt>
      <trkpt lat="48.02339" lon="1.8757">
        <ele>123.6</ele>
        <time>2015-09-27T10:02:48Z</time>
      </trkpt>
      <trkpt lat="48.02338" lon="1.87566">
        <ele>123.8</ele>
        <time>2015-09-27T10:02:49Z</time>
      </trkpt>
      <trkpt lat="48.02337" lon="1.8756">
        <ele>124</ele>
        <time>2015-09-27T10:02:50Z</time>
      </trkpt>
      <trkpt lat="48.02336" lon="1.87555">
        <ele>124.1</ele>
        <time>2015-09-27T10:02:51Z</time>
      </trkpt>
      <trkpt lat="48.02333" lon="1.87549">
        <ele>124.3</ele>
        <time>2015-09-27T10:02:52Z</time>
      </trkpt>
      <trkpt lat="48.02333" lon="1.87543">
        <ele>124.5</ele>
        <time>2015-09-27T10:02:54Z</time>
      </trkpt>
      <trkpt lat="48.02331" lon="1.87536">
        <ele>124.5</ele>
        <time>2015-09-27T10:02:55Z</time>
      </trkpt>
      <trkpt lat="48.02329" lon="1.87528">
        <ele>124.5</ele>
        <time>2015-09-27T10:02:56Z</time>
      </trkpt>
      <trkpt lat="48.02328" lon="1.87523">
        <ele>124.5</ele>
        <time>2015-09-27T10:02:59Z</time>
      </trkpt>
      <trkpt lat="48.02327" lon="1.87519">
        <ele>124.5</ele>
        <time>2015-09-27T10:03:02Z</time>
      </trkpt>
      <trkpt lat="48.02326" lon="1.87523">
        <ele>124.5</ele>
        <time>2015-09-27T10:03:10Z</time>
      </trkpt>
      <trkpt lat="48.02326" lon="1.87519">
        <ele>124.5</ele>
        <time>2015-09-27T10:03:14Z</time>
      </trkpt>
      <trkpt lat="48.02325" lon="1.87513">
        <ele>124.5</ele>
        <time>2015-09-27T10:03:26Z</time>
      </trkpt>
      <trkpt lat="48.02325" lon="1.87504">
        <ele>124.6</ele>
        <time>2015-09-27T10:03:28Z</time>
      </trkpt>
      <trkpt lat="48.02327" lon="1.87491">
        <ele>124.7</ele>
        <time>2015-09-27T10:03:31Z</time>
      </trkpt>
      <trkpt lat="48.02326" lon="1.87497">
        <ele>124.6</ele>
        <time>2015-09-27T10:03:32Z</time>
      </trkpt>
      <trkpt lat="48.02325" lon="1.87487">
        <ele>124.7</ele>
        <time>2015-09-27T10:03:33Z</time>
      </trkpt>
      <trkpt lat="48.02322" lon="1.87481">
        <ele>124.6</ele>
        <time>2015-09-27T10:03:34Z</time>
      </trkpt>
      <trkpt lat="48.02324" lon="1.87487">
        <ele>124.6</ele>
        <time>2015-09-27T10:03:36Z</time>
      </trkpt>
      <trkpt lat="48.02312" lon="1.87485">
        <ele>124.4</ele>
        <time>2015-09-27T10:03:38Z</time>
      </trkpt>
      <trkpt lat="48.02309" lon="1.87482">
        <ele>124.4</ele>
        <time>2015-09-27T10:03:39Z</time>
      </trkpt>
      <trkpt lat="48.02306" lon="1.87479">
        <ele>124.3</ele>
        <time>2015-09-27T10:03:40Z</time>
      </trkpt>
      <trkpt lat="48.02304" lon="1.87476">
        <ele>124.3</ele>
        <time>2015-09-27T10:03:41Z</time>
      </trkpt>
      <trkpt lat="48.02299" lon="1.87471">
        <ele>124.2</ele>
        <time>2015-09-27T10:03:42Z</time>
      </trkpt>
      <trkpt lat="48.02295" lon="1.87467">
        <ele>124.1</ele>
        <time>2015-09-27T10:03:43Z</time>
      </trkpt>
      <trkpt lat="48.0229" lon="1.87461">
        <ele>124</ele>
        <time>2015-09-27T10:03:44Z</time>
      </trkpt>
      <trkpt lat="48.02289" lon="1.87453">
        <ele>123.9</ele>
        <time>2015-09-27T10:03:45Z</time>
      </trkpt>
      <trkpt lat="48.02286" lon="1.87449">
        <ele>123.8</ele>
        <time>2015-09-27T10:03:46Z</time>
      </trkpt>
      <trkpt lat="48.02282" lon="1.87444">
        <ele>123.7</ele>
        <time>2015-09-27T10:03:47Z</time>
      </trkpt>
      <trkpt lat="48.02278" lon="1.8744">
        <ele>123.6</ele>
        <time>2015-09-27T10:03:48Z</time>
      </trkpt>
      <trkpt lat="48.02274" lon="1.87436">
        <ele>123.5</ele>
        <time>2015-09-27T10:03:49Z</time>
      </trkpt>
      <trkpt lat="48.0227" lon="1.87432">
        <ele>123.4</ele>
        <time>2015-09-27T10:03:50Z</time>
      </trkpt>
      <trkpt lat="48.02265" lon="1.87429">
        <ele>123.3</ele>
        <time>2015-09-27T10:03:51Z</time>
      </trkpt>
      <trkpt lat="48.02261" lon="1.87426">
        <ele>123.2</ele>
        <time>2015-09-27T10:03:52Z</time>
      </trkpt>
      <trkpt lat="48.02257" lon="1.87423">
        <ele>123.2</ele>
        <time>2015-09-27T10:03:53Z</time>
      </trkpt>
      <trkpt lat="48.02252" lon="1.87419">
        <ele>123</ele>
        <time>2015-09-27T10:03:54Z</time>
      </trkpt>
      <trkpt lat="48.02248" lon="1.87416">
        <ele>123</ele>
        <time>2015-09-27T10:03:55Z</time>
      </trkpt>
      <trkpt lat="48.02243" lon="1.87415">
        <ele>122.9</ele>
        <time>2015-09-27T10:03:56Z</time>
      </trkpt>
      <trkpt lat="48.02238" lon="1.87412">
        <ele>122.8</ele>
        <time>2015-09-27T10:03:57Z</time>
      </trkpt>
      <trkpt lat="48.02234" lon="1.8741">
        <ele>122.7</ele>
        <time>2015-09-27T10:03:58Z</time>
      </trkpt>
      <trkpt lat="48.02229" lon="1.87408">
        <ele>122.6</ele>
        <time>2015-09-27T10:03:59Z</time>
      </trkpt>
      <trkpt lat="48.02225" lon="1.87405">
        <ele>122.6</ele>
        <time>2015-09-27T10:04:00Z</time>
      </trkpt>
      <trkpt lat="48.0222" lon="1.87403">
        <ele>122.5</ele>
        <time>2015-09-27T10:04:01Z</time>
      </trkpt>
      <trkpt lat="48.02215" lon="1.87401">
        <ele>122.4</ele>
        <time>2015-09-27T10:04:02Z</time>
      </trkpt>
      <trkpt lat="48.02211" lon="1.874">
        <ele>122.3</ele>
        <time>2015-09-27T10:04:03Z</time>
      </trkpt>
      <trkpt lat="48.02207" lon="1.87396">
        <ele>122.3</ele>
        <time>2015-09-27T10:04:04Z</time>
      </trkpt>
      <trkpt lat="48.02203" lon="1.87394">
        <ele>122.5</ele>
        <time>2015-09-27T10:04:05Z</time>
      </trkpt>
      <trkpt lat="48.02199" lon="1.87391">
        <ele>122.7</ele>
        <time>2015-09-27T10:04:06Z</time>
      </trkpt>
      <trkpt lat="48.02195" lon="1.87389">
        <ele>122.8</ele>
        <time>2015-09-27T10:04:07Z</time>
      </trkpt>
      <trkpt lat="48.02191" lon="1.87387">
        <ele>123</ele>
        <time>2015-09-27T10:04:08Z</time>
      </trkpt>
      <trkpt lat="48.02186" lon="1.87386">
        <ele>123.2</ele>
        <time>2015-09-27T10:04:09Z</time>
      </trkpt>
      <trkpt lat="48.02182" lon="1.87384">
        <ele>123.4</ele>
        <time>2015-09-27T10:04:10Z</time>
      </trkpt>
      <trkpt lat="48.02178" lon="1.87382">
        <ele>123.6</ele>
        <time>2015-09-27T10:04:11Z</time>
      </trkpt>
      <trkpt lat="48.02175" lon="1.87377">
        <ele>123.6</ele>
        <time>2015-09-27T10:04:12Z</time>
      </trkpt>
      <trkpt lat="48.02172" lon="1.87374">
        <ele>123.7</ele>
        <time>2015-09-27T10:04:13Z</time>
      </trkpt>
      <trkpt lat="48.02169" lon="1.87372">
        <ele>123.8</ele>
        <time>2015-09-27T10:04:14Z</time>
      </trkpt>
      <trkpt lat="48.02164" lon="1.8737">
        <ele>123.9</ele>
        <time>2015-09-27T10:04:16Z</time>
      </trkpt>
      <trkpt lat="48.02151" lon="1.87368">
        <ele>124.5</ele>
        <time>2015-09-27T10:04:18Z</time>
      </trkpt>
      <trkpt lat="48.02152" lon="1.87363">
        <ele>124.2</ele>
        <time>2015-09-27T10:04:19Z</time>
      </trkpt>
      <trkpt lat="48.02181" lon="1.87312">
        <ele>121.3</ele>
        <time>2015-09-27T10:04:28Z</time>
      </trkpt>
      <trkpt lat="48.02184" lon="1.87305">
        <ele>121</ele>
        <time>2015-09-27T10:04:29Z</time>
      </trkpt>
      <trkpt lat="48.02186" lon="1.87299">
        <ele>120.8</ele>
        <time>2015-09-27T10:04:30Z</time>
      </trkpt>
      <trkpt lat="48.02187" lon="1.8729">
        <ele>120.5</ele>
        <time>2015-09-27T10:04:31Z</time>
      </trkpt>
      <trkpt lat="48.02189" lon="1.87283">
        <ele>120.4</ele>
        <time>2015-09-27T10:04:32Z</time>
      </trkpt>
      <trkpt lat="48.02192" lon="1.87274">
        <ele>120.4</ele>
        <time>2015-09-27T10:04:33Z</time>
      </trkpt>
      <trkpt lat="48.02194" lon="1.87264">
        <ele>120.3</ele>
        <time>2015-09-27T10:04:34Z</time>
      </trkpt>
      <trkpt lat="48.02196" lon="1.87256">
        <ele>120.2</ele>
        <time>2015-09-27T10:04:35Z</time>
      </trkpt>
      <trkpt lat="48.02199" lon="1.8725">
        <ele>120.2</ele>
        <time>2015-09-27T10:04:36Z</time>
      </trkpt>
      <trkpt lat="48.02201" lon="1.8724">
        <ele>120.1</ele>
        <time>2015-09-27T10:04:37Z</time>
      </trkpt>
      <trkpt lat="48.02202" lon="1.8723">
        <ele>120.1</ele>
        <time>2015-09-27T10:04:38Z</time>
      </trkpt>
      <trkpt lat="48.02204" lon="1.8722">
        <ele>120.1</ele>
        <time>2015-09-27T10:04:39Z</time>
      </trkpt>
      <trkpt lat="48.02206" lon="1.87212">
        <ele>120</ele>
        <time>2015-09-27T10:04:40Z</time>
      </trkpt>
      <trkpt lat="48.02209" lon="1.87205">
        <ele>120</ele>
        <time>2015-09-27T10:04:41Z</time>
      </trkpt>
      <trkpt lat="48.02211" lon="1.87198">
        <ele>120</ele>
        <time>2015-09-27T10:04:42Z</time>
      </trkpt>
      <trkpt lat="48.02214" lon="1.87192">
        <ele>120.1</ele>
        <time>2015-09-27T10:04:43Z</time>
      </trkpt>
      <trkpt lat="48.02215" lon="1.87185">
        <ele>120.1</ele>
        <time>2015-09-27T10:04:44Z</time>
      </trkpt>
      <trkpt lat="48.02216" lon="1.87178">
        <ele>120.1</ele>
        <time>2015-09-27T10:04:45Z</time>
      </trkpt>
      <trkpt lat="48.02218" lon="1.87172">
        <ele>120.1</ele>
        <time>2015-09-27T10:04:46Z</time>
      </trkpt>
      <trkpt lat="48.02219" lon="1.87165">
        <ele>120.1</ele>
        <time>2015-09-27T10:04:47Z</time>
      </trkpt>
      <trkpt lat="48.0222" lon="1.87159">
        <ele>120.1</ele>
        <time>2015-09-27T10:04:48Z</time>
      </trkpt>
      <trkpt lat="48.02221" lon="1.87155">
        <ele>120.2</ele>
        <time>2015-09-27T10:04:49Z</time>
      </trkpt>
      <trkpt lat="48.02222" lon="1.8715">
        <ele>120.2</ele>
        <time>2015-09-27T10:04:50Z</time>
      </trkpt>
      <trkpt lat="48.02223" lon="1.87143">
        <ele>120.2</ele>
        <time>2015-09-27T10:04:51Z</time>
      </trkpt>
      <trkpt lat="48.02226" lon="1.87137">
        <ele>120.2</ele>
        <time>2015-09-27T10:04:52Z</time>
      </trkpt>
      <trkpt lat="48.02228" lon="1.87131">
        <ele>120.2</ele>
        <time>2015-09-27T10:04:53Z</time>
      </trkpt>
      <trkpt lat="48.02229" lon="1.87125">
        <ele>120.2</ele>
        <time>2015-09-27T10:04:54Z</time>
      </trkpt>
      <trkpt lat="48.0223" lon="1.8712">
        <ele>120.3</ele>
        <time>2015-09-27T10:04:55Z</time>
      </trkpt>
      <trkpt lat="48.02232" lon="1.87114">
        <ele>120.3</ele>
        <time>2015-09-27T10:04:56Z</time>
      </trkpt>
      <trkpt lat="48.02234" lon="1.87108">
        <ele>120.4</ele>
        <time>2015-09-27T10:04:57Z</time>
      </trkpt>
      <trkpt lat="48.02235" lon="1.87101">
        <ele>120.4</ele>
        <time>2015-09-27T10:04:58Z</time>
      </trkpt>
      <trkpt lat="48.02237" lon="1.87094">
        <ele>120.5</ele>
        <time>2015-09-27T10:04:59Z</time>
      </trkpt>
      <trkpt lat="48.02239" lon="1.87088">
        <ele>120.5</ele>
        <time>2015-09-27T10:05:00Z</time>
      </trkpt>
      <trkpt lat="48.0224" lon="1.87082">
        <ele>120.5</ele>
        <time>2015-09-27T10:05:01Z</time>
      </trkpt>
      <trkpt lat="48.02241" lon="1.87077">
        <ele>120.5</ele>
        <time>2015-09-27T10:05:02Z</time>
      </trkpt>
      <trkpt lat="48.02242" lon="1.87071">
        <ele>120.5</ele>
        <time>2015-09-27T10:05:03Z</time>
      </trkpt>
      <trkpt lat="48.02244" lon="1.87064">
        <ele>120.5</ele>
        <time>2015-09-27T10:05:04Z</time>
      </trkpt>
      <trkpt lat="48.02246" lon="1.87059">
        <ele>120.5</ele>
        <time>2015-09-27T10:05:05Z</time>
      </trkpt>
      <trkpt lat="48.02247" lon="1.87055">
        <ele>120.5</ele>
        <time>2015-09-27T10:05:06Z</time>
      </trkpt>
      <trkpt lat="48.02249" lon="1.8705">
        <ele>120.5</ele>
        <time>2015-09-27T10:05:07Z</time>
      </trkpt>
      <trkpt lat="48.02253" lon="1.87048">
        <ele>120.5</ele>
        <time>2015-09-27T10:05:08Z</time>
      </trkpt>
      <trkpt lat="48.02257" lon="1.87048">
        <ele>120.4</ele>
        <time>2015-09-27T10:05:09Z</time>
      </trkpt>
      <trkpt lat="48.02259" lon="1.8705">
        <ele>120.4</ele>
        <time>2015-09-27T10:05:10Z</time>
      </trkpt>
      <trkpt lat="48.02265" lon="1.87051">
        <ele>120.4</ele>
        <time>2015-09-27T10:05:11Z</time>
      </trkpt>
      <trkpt lat="48.02268" lon="1.87053">
        <ele>120.3</ele>
        <time>2015-09-27T10:05:12Z</time>
      </trkpt>
      <trkpt lat="48.02273" lon="1.87055">
        <ele>120.3</ele>
        <time>2015-09-27T10:05:13Z</time>
      </trkpt>
      <trkpt lat="48.02277" lon="1.87058">
        <ele>120.3</ele>
        <time>2015-09-27T10:05:14Z</time>
      </trkpt>
      <trkpt lat="48.02281" lon="1.8706">
        <ele>120.3</ele>
        <time>2015-09-27T10:05:15Z</time>
      </trkpt>
      <trkpt lat="48.02285" lon="1.87064">
        <ele>120.3</ele>
        <time>2015-09-27T10:05:16Z</time>
      </trkpt>
      <trkpt lat="48.02289" lon="1.87066">
        <ele>120.3</ele>
        <time>2015-09-27T10:05:17Z</time>
      </trkpt>
      <trkpt lat="48.02293" lon="1.87068">
        <ele>120.4</ele>
        <time>2015-09-27T10:05:18Z</time>
      </trkpt>
      <trkpt lat="48.02298" lon="1.87071">
        <ele>120.5</ele>
        <time>2015-09-27T10:05:19Z</time>
      </trkpt>
      <trkpt lat="48.02302" lon="1.87072">
        <ele>120.6</ele>
        <time>2015-09-27T10:05:20Z</time>
      </trkpt>
      <trkpt lat="48.02306" lon="1.87074">
        <ele>120.7</ele>
        <time>2015-09-27T10:05:21Z</time>
      </trkpt>
      <trkpt lat="48.02308" lon="1.87075">
        <ele>120.8</ele>
        <time>2015-09-27T10:05:22Z</time>
      </trkpt>
      <trkpt lat="48.02311" lon="1.87076">
        <ele>120.9</ele>
        <time>2015-09-27T10:05:23Z</time>
      </trkpt>
      <trkpt lat="48.02317" lon="1.87079">
        <ele>121.1</ele>
        <time>2015-09-27T10:05:24Z</time>
      </trkpt>
      <trkpt lat="48.02321" lon="1.87081">
        <ele>121.2</ele>
        <time>2015-09-27T10:05:25Z</time>
      </trkpt>
      <trkpt lat="48.02327" lon="1.87084">
        <ele>121.4</ele>
        <time>2015-09-27T10:05:26Z</time>
      </trkpt>
      <trkpt lat="48.02331" lon="1.87087">
        <ele>121.5</ele>
        <time>2015-09-27T10:05:27Z</time>
      </trkpt>
      <trkpt lat="48.02335" lon="1.87089">
        <ele>121.6</ele>
        <time>2015-09-27T10:05:28Z</time>
      </trkpt>
      <trkpt lat="48.02339" lon="1.87091">
        <ele>121.7</ele>
        <time>2015-09-27T10:05:29Z</time>
      </trkpt>
      <trkpt lat="48.02343" lon="1.87093">
        <ele>121.8</ele>
        <time>2015-09-27T10:05:30Z</time>
      </trkpt>
      <trkpt lat="48.02346" lon="1.87095">
        <ele>121.9</ele>
        <time>2015-09-27T10:05:31Z</time>
      </trkpt>
      <trkpt lat="48.02349" lon="1.87094">
        <ele>122</ele>
        <time>2015-09-27T10:05:32Z</time>
      </trkpt>
      <trkpt lat="48.02355" lon="1.87095">
        <ele>122.2</ele>
        <time>2015-09-27T10:05:34Z</time>
      </trkpt>
      <trkpt lat="48.02358" lon="1.87095">
        <ele>122.2</ele>
        <time>2015-09-27T10:05:35Z</time>
      </trkpt>
      <trkpt lat="48.02362" lon="1.87096">
        <ele>122.3</ele>
        <time>2015-09-27T10:05:36Z</time>
      </trkpt>
      <trkpt lat="48.02366" lon="1.87096">
        <ele>122.4</ele>
        <time>2015-09-27T10:05:37Z</time>
      </trkpt>
      <trkpt lat="48.0237" lon="1.87095">
        <ele>122.5</ele>
        <time>2015-09-27T10:05:38Z</time>
      </trkpt>
      <trkpt lat="48.02375" lon="1.87095">
        <ele>122.6</ele>
        <time>2015-09-27T10:05:39Z</time>
      </trkpt>
      <trkpt lat="48.02377" lon="1.87093">
        <ele>122.7</ele>
        <time>2015-09-27T10:05:40Z</time>
      </trkpt>
      <trkpt lat="48.02381" lon="1.87091">
        <ele>122.7</ele>
        <time>2015-09-27T10:05:41Z</time>
      </trkpt>
      <trkpt lat="48.02385" lon="1.8709">
        <ele>122.8</ele>
        <time>2015-09-27T10:05:42Z</time>
      </trkpt>
      <trkpt lat="48.02391" lon="1.8709">
        <ele>122.9</ele>
        <time>2015-09-27T10:05:43Z</time>
      </trkpt>
      <trkpt lat="48.02396" lon="1.87091">
        <ele>123.1</ele>
        <time>2015-09-27T10:05:44Z</time>
      </trkpt>
      <trkpt lat="48.02401" lon="1.8709">
        <ele>123.1</ele>
        <time>2015-09-27T10:05:45Z</time>
      </trkpt>
      <trkpt lat="48.02405" lon="1.87088">
        <ele>123.2</ele>
        <time>2015-09-27T10:05:46Z</time>
      </trkpt>
      <trkpt lat="48.02409" lon="1.87088">
        <ele>123.2</ele>
        <time>2015-09-27T10:05:47Z</time>
      </trkpt>
      <trkpt lat="48.02413" lon="1.87087">
        <ele>123.3</ele>
        <time>2015-09-27T10:05:48Z</time>
      </trkpt>
      <trkpt lat="48.02418" lon="1.87085">
        <ele>123.3</ele>
        <time>2015-09-27T10:05:49Z</time>
      </trkpt>
      <trkpt lat="48.02422" lon="1.87084">
        <ele>123.4</ele>
        <time>2015-09-27T10:05:50Z</time>
      </trkpt>
      <trkpt lat="48.02426" lon="1.87083">
        <ele>123.4</ele>
        <time>2015-09-27T10:05:51Z</time>
      </trkpt>
      <trkpt lat="48.0243" lon="1.87082">
        <ele>123.5</ele>
        <time>2015-09-27T10:05:52Z</time>
      </trkpt>
      <trkpt lat="48.02434" lon="1.87081">
        <ele>123.5</ele>
        <time>2015-09-27T10:05:53Z</time>
      </trkpt>
      <trkpt lat="48.02438" lon="1.8708">
        <ele>123.5</ele>
        <time>2015-09-27T10:05:54Z</time>
      </trkpt>
      <trkpt lat="48.02442" lon="1.87079">
        <ele>123.5</ele>
        <time>2015-09-27T10:05:55Z</time>
      </trkpt>
      <trkpt lat="48.02445" lon="1.87079">
        <ele>123.6</ele>
        <time>2015-09-27T10:05:56Z</time>
      </trkpt>
      <trkpt lat="48.02448" lon="1.87078">
        <ele>123.6</ele>
        <time>2015-09-27T10:05:57Z</time>
      </trkpt>
      <trkpt lat="48.02451" lon="1.87078">
        <ele>123.6</ele>
        <time>2015-09-27T10:05:58Z</time>
      </trkpt>
      <trkpt lat="48.02455" lon="1.87078">
        <ele>123.7</ele>
        <time>2015-09-27T10:05:59Z</time>
      </trkpt>
      <trkpt lat="48.02458" lon="1.87078">
        <ele>123.7</ele>
        <time>2015-09-27T10:06:00Z</time>
      </trkpt>
      <trkpt lat="48.02462" lon="1.87077">
        <ele>123.7</ele>
        <time>2015-09-27T10:06:01Z</time>
      </trkpt>
      <trkpt lat="48.02465" lon="1.87076">
        <ele>123.6</ele>
        <time>2015-09-27T10:06:02Z</time>
      </trkpt>
      <trkpt lat="48.02468" lon="1.87075">
        <ele>123.6</ele>
        <time>2015-09-27T10:06:03Z</time>
      </trkpt>
      <trkpt lat="48.02472" lon="1.87074">
        <ele>123.5</ele>
        <time>2015-09-27T10:06:05Z</time>
      </trkpt>
      <trkpt lat="48.02484" lon="1.87062">
        <ele>123.1</ele>
        <time>2015-09-27T10:06:07Z</time>
      </trkpt>
      <trkpt lat="48.02487" lon="1.8706">
        <ele>123</ele>
        <time>2015-09-27T10:06:12Z</time>
      </trkpt>
      <trkpt lat="48.02494" lon="1.87057">
        <ele>122.9</ele>
        <time>2015-09-27T10:06:15Z</time>
      </trkpt>
      <trkpt lat="48.02498" lon="1.87056">
        <ele>122.9</ele>
        <time>2015-09-27T10:06:17Z</time>
      </trkpt>
      <trkpt lat="48.02504" lon="1.87054">
        <ele>122.9</ele>
        <time>2015-09-27T10:06:19Z</time>
      </trkpt>
      <trkpt lat="48.02508" lon="1.87052">
        <ele>122.9</ele>
        <time>2015-09-27T10:06:21Z</time>
      </trkpt>
      <trkpt lat="48.02513" lon="1.87051">
        <ele>122.9</ele>
        <time>2015-09-27T10:06:23Z</time>
      </trkpt>
      <trkpt lat="48.02518" lon="1.87049">
        <ele>122.9</ele>
        <time>2015-09-27T10:06:25Z</time>
      </trkpt>
      <trkpt lat="48.02522" lon="1.87048">
        <ele>122.9</ele>
        <time>2015-09-27T10:06:27Z</time>
      </trkpt>
      <trkpt lat="48.02527" lon="1.87046">
        <ele>122.9</ele>
        <time>2015-09-27T10:06:29Z</time>
      </trkpt>
      <trkpt lat="48.02532" lon="1.87045">
        <ele>122.9</ele>
        <time>2015-09-27T10:06:31Z</time>
      </trkpt>
      <trkpt lat="48.02537" lon="1.87043">
        <ele>123</ele>
        <time>2015-09-27T10:06:33Z</time>
      </trkpt>
      <trkpt lat="48.02541" lon="1.87042">
        <ele>123</ele>
        <time>2015-09-27T10:06:35Z</time>
      </trkpt>
      <trkpt lat="48.02546" lon="1.8704">
        <ele>123</ele>
        <time>2015-09-27T10:06:37Z</time>
      </trkpt>
      <trkpt lat="48.0255" lon="1.87039">
        <ele>123.1</ele>
        <time>2015-09-27T10:06:39Z</time>
      </trkpt>
      <trkpt lat="48.02553" lon="1.87038">
        <ele>123.1</ele>
        <time>2015-09-27T10:06:41Z</time>
      </trkpt>
      <trkpt lat="48.02558" lon="1.87058">
        <ele>123.4</ele>
        <time>2015-09-27T10:07:09Z</time>
      </trkpt>
      <trkpt lat="48.02559" lon="1.87062">
        <ele>123.4</ele>
        <time>2015-09-27T10:07:18Z</time>
      </trkpt>
      <trkpt lat="48.0256" lon="1.87067">
        <ele>123.5</ele>
        <time>2015-09-27T10:07:21Z</time>
      </trkpt>
      <trkpt lat="48.02561" lon="1.87071">
        <ele>123.6</ele>
        <time>2015-09-27T10:07:24Z</time>
      </trkpt>
      <trkpt lat="48.02562" lon="1.87076">
        <ele>123.6</ele>
        <time>2015-09-27T10:07:27Z</time>
      </trkpt>
      <trkpt lat="48.02562" lon="1.8708">
        <ele>123.7</ele>
        <time>2015-09-27T10:07:30Z</time>
      </trkpt>
      <trkpt lat="48.02562" lon="1.87085">
        <ele>123.8</ele>
        <time>2015-09-27T10:07:33Z</time>
      </trkpt>
      <trkpt lat="48.02564" lon="1.8709">
        <ele>123.8</ele>
        <time>2015-09-27T10:07:36Z</time>
      </trkpt>
      <trkpt lat="48.02565" lon="1.87094">
        <ele>123.9</ele>
        <time>2015-09-27T10:07:39Z</time>
      </trkpt>
      <trkpt lat="48.02567" lon="1.87098">
        <ele>124</ele>
        <time>2015-09-27T10:07:42Z</time>
      </trkpt>
      <trkpt lat="48.02567" lon="1.87103">
        <ele>124</ele>
        <time>2015-09-27T10:07:46Z</time>
      </trkpt>
      <trkpt lat="48.02568" lon="1.87108">
        <ele>124.1</ele>
        <time>2015-09-27T10:07:50Z</time>
      </trkpt>
      <trkpt lat="48.0257" lon="1.87112">
        <ele>124.2</ele>
        <time>2015-09-27T10:07:54Z</time>
      </trkpt>
      <trkpt lat="48.02571" lon="1.87118">
        <ele>124.3</ele>
        <time>2015-09-27T10:07:57Z</time>
      </trkpt>
      <trkpt lat="48.02571" lon="1.87122">
        <ele>124.3</ele>
        <time>2015-09-27T10:08:00Z</time>
      </trkpt>
      <trkpt lat="48.02573" lon="1.87126">
        <ele>124.4</ele>
        <time>2015-09-27T10:08:04Z</time>
      </trkpt>
      <trkpt lat="48.02576" lon="1.87129">
        <ele>124.4</ele>
        <time>2015-09-27T10:08:08Z</time>
      </trkpt>
      <trkpt lat="48.02579" lon="1.8713">
        <ele>124.5</ele>
        <time>2015-09-27T10:08:11Z</time>
      </trkpt>
      <trkpt lat="48.02582" lon="1.87131">
        <ele>124.5</ele>
        <time>2015-09-27T10:08:14Z</time>
      </trkpt>
      <trkpt lat="48.02585" lon="1.8713">
        <ele>124.5</ele>
        <time>2015-09-27T10:08:17Z</time>
      </trkpt>
      <trkpt lat="48.02588" lon="1.8713">
        <ele>124.6</ele>
        <time>2015-09-27T10:08:20Z</time>
      </trkpt>
      <trkpt lat="48.02591" lon="1.87132">
        <ele>124.6</ele>
        <time>2015-09-27T10:08:24Z</time>
      </trkpt>
      <trkpt lat="48.02593" lon="1.87136">
        <ele>124.7</ele>
        <time>2015-09-27T10:08:27Z</time>
      </trkpt>
      <trkpt lat="48.02593" lon="1.8714">
        <ele>124.7</ele>
        <time>2015-09-27T10:08:31Z</time>
      </trkpt>
      <trkpt lat="48.02593" lon="1.87144">
        <ele>124.8</ele>
        <time>2015-09-27T10:08:37Z</time>
      </trkpt>
      <trkpt lat="48.02595" lon="1.87148">
        <ele>124.8</ele>
        <time>2015-09-27T10:08:43Z</time>
      </trkpt>
      <trkpt lat="48.02594" lon="1.87152">
        <ele>124.8</ele>
        <time>2015-09-27T10:09:04Z</time>
      </trkpt>
      <trkpt lat="48.02596" lon="1.87157">
        <ele>124.9</ele>
        <time>2015-09-27T10:09:06Z</time>
      </trkpt>
      <trkpt lat="48.02598" lon="1.87161">
        <ele>125</ele>
        <time>2015-09-27T10:09:09Z</time>
      </trkpt>
      <trkpt lat="48.026" lon="1.87165">
        <ele>125</ele>
        <time>2015-09-27T10:09:12Z</time>
      </trkpt>
      <trkpt lat="48.02601" lon="1.8716">
        <ele>125</ele>
        <time>2015-09-27T10:09:44Z</time>
      </trkpt>
      <trkpt lat="48.02603" lon="1.87156">
        <ele>125</ele>
        <time>2015-09-27T10:09:47Z</time>
      </trkpt>
      <trkpt lat="48.02604" lon="1.87152">
        <ele>125</ele>
        <time>2015-09-27T10:09:50Z</time>
      </trkpt>
      <trkpt lat="48.02605" lon="1.87147">
        <ele>125</ele>
        <time>2015-09-27T10:09:53Z</time>
      </trkpt>
      <trkpt lat="48.02606" lon="1.87143">
        <ele>124.9</ele>
        <time>2015-09-27T10:09:56Z</time>
      </trkpt>
      <trkpt lat="48.02605" lon="1.87139">
        <ele>124.9</ele>
        <time>2015-09-27T10:09:59Z</time>
      </trkpt>
      <trkpt lat="48.02605" lon="1.87134">
        <ele>124.8</ele>
        <time>2015-09-27T10:10:02Z</time>
      </trkpt>
      <trkpt lat="48.02607" lon="1.8713">
        <ele>124.8</ele>
        <time>2015-09-27T10:10:05Z</time>
      </trkpt>
      <trkpt lat="48.02609" lon="1.87126">
        <ele>124.8</ele>
        <time>2015-09-27T10:10:07Z</time>
      </trkpt>
      <trkpt lat="48.0261" lon="1.87121">
        <ele>124.8</ele>
        <time>2015-09-27T10:10:10Z</time>
      </trkpt>
      <trkpt lat="48.02612" lon="1.87117">
        <ele>124.7</ele>
        <time>2015-09-27T10:10:13Z</time>
      </trkpt>
      <trkpt lat="48.02612" lon="1.87112">
        <ele>124.7</ele>
        <time>2015-09-27T10:10:17Z</time>
      </trkpt>
      <trkpt lat="48.02612" lon="1.87108">
        <ele>124.6</ele>
        <time>2015-09-27T10:10:21Z</time>
      </trkpt>
      <trkpt lat="48.02612" lon="1.87103">
        <ele>124.6</ele>
        <time>2015-09-27T10:10:24Z</time>
      </trkpt>
      <trkpt lat="48.02609" lon="1.87101">
        <ele>124.5</ele>
        <time>2015-09-27T10:10:30Z</time>
      </trkpt>
      <trkpt lat="48.02606" lon="1.871">
        <ele>124.5</ele>
        <time>2015-09-27T10:10:35Z</time>
      </trkpt>
      <trkpt lat="48.02603" lon="1.87099">
        <ele>124.4</ele>
        <time>2015-09-27T10:10:39Z</time>
      </trkpt>
      <trkpt lat="48.026" lon="1.87098">
        <ele>124.4</ele>
        <time>2015-09-27T10:10:44Z</time>
      </trkpt>
      <trkpt lat="48.02598" lon="1.87096">
        <ele>124.3</ele>
        <time>2015-09-27T10:10:51Z</time>
      </trkpt>
      <trkpt lat="48.02596" lon="1.871">
        <ele>124.3</ele>
        <time>2015-09-27T10:10:55Z</time>
      </trkpt>
      <trkpt lat="48.02597" lon="1.87105">
        <ele>124.4</ele>
        <time>2015-09-27T10:10:59Z</time>
      </trkpt>
      <trkpt lat="48.02593" lon="1.87103">
        <ele>124.3</ele>
        <time>2015-09-27T10:11:07Z</time>
      </trkpt>
      <trkpt lat="48.02596" lon="1.87101">
        <ele>124.4</ele>
        <time>2015-09-27T10:11:15Z</time>
      </trkpt>
      <trkpt lat="48.02598" lon="1.87099">
        <ele>124.4</ele>
        <time>2015-09-27T10:11:18Z</time>
      </trkpt>
      <trkpt lat="48.02602" lon="1.87101">
        <ele>124.4</ele>
        <time>2015-09-27T10:11:27Z</time>
      </trkpt>
    </trkseg>
  </trk>
</gpx>